<?xml version="1.0" encoding="UTF-8" standalone="no" ?>
<gpx xmlns="http://www.topografix.com/GPX/1/1" xmlns:xsi="http://www.w3.org/2001/XMLSchema-instance" xsi:schemaLocation="http://www.topografix.com/GPX/1/1 http://www.topografix.com/GPX/1/1/gpx.xsd" version="1.1" creator="VisuGPX - https://www.visugpx.com">
  <metadata>
    <name>MB. Sortie du 22/09/2019</name>
    <desc><![CDATA[Sortie VTT du dimanche 22 septembre 2019]]></desc>
  </metadata>
  <trk>
    <name><![CDATA[MB. Sortie du 22/09/2019_1]]></name>
    <trkseg>
      <trkpt lat="47.2643" lon="-2.31554">
        <ele>11</ele>
        <time>2019-09-22T06:50:53Z</time>
      </trkpt>
      <trkpt lat="47.2643" lon="-2.31554">
        <ele>31</ele>
        <time>2019-09-22T06:51:14Z</time>
      </trkpt>
      <trkpt lat="47.26434" lon="-2.31546">
        <ele>55</ele>
        <time>2019-09-22T06:51:28Z</time>
      </trkpt>
      <trkpt lat="47.26424" lon="-2.3154">
        <ele>87</ele>
        <time>2019-09-22T06:51:34Z</time>
      </trkpt>
      <trkpt lat="47.26421" lon="-2.31532">
        <ele>93</ele>
        <time>2019-09-22T06:51:38Z</time>
      </trkpt>
      <trkpt lat="47.26417" lon="-2.31531">
        <ele>88</ele>
        <time>2019-09-22T06:51:42Z</time>
      </trkpt>
      <trkpt lat="47.26413" lon="-2.31538">
        <ele>81</ele>
        <time>2019-09-22T06:51:44Z</time>
      </trkpt>
      <trkpt lat="47.26413" lon="-2.31538">
        <ele>10.5</ele>
        <time>2019-09-22T06:51:51Z</time>
      </trkpt>
      <trkpt lat="47.26413" lon="-2.31538">
        <ele>10.5</ele>
        <time>2019-09-22T06:53:23Z</time>
      </trkpt>
      <trkpt lat="47.26424" lon="-2.31549">
        <ele>77</ele>
        <time>2019-09-22T06:53:23Z</time>
      </trkpt>
      <trkpt lat="47.26415" lon="-2.31553">
        <ele>61</ele>
        <time>2019-09-22T06:54:26Z</time>
      </trkpt>
      <trkpt lat="47.26412" lon="-2.31553">
        <ele>61</ele>
        <time>2019-09-22T06:54:56Z</time>
      </trkpt>
      <trkpt lat="47.26407" lon="-2.31557">
        <ele>61</ele>
        <time>2019-09-22T06:54:58Z</time>
      </trkpt>
      <trkpt lat="47.26404" lon="-2.31563">
        <ele>62</ele>
        <time>2019-09-22T06:55:00Z</time>
      </trkpt>
      <trkpt lat="47.26404" lon="-2.31571">
        <ele>64</ele>
        <time>2019-09-22T06:55:02Z</time>
      </trkpt>
      <trkpt lat="47.26403" lon="-2.31576">
        <ele>64</ele>
        <time>2019-09-22T06:55:03Z</time>
      </trkpt>
      <trkpt lat="47.26403" lon="-2.3158">
        <ele>64</ele>
        <time>2019-09-22T06:55:04Z</time>
      </trkpt>
      <trkpt lat="47.26403" lon="-2.31584">
        <ele>65</ele>
        <time>2019-09-22T06:55:05Z</time>
      </trkpt>
      <trkpt lat="47.26402" lon="-2.31589">
        <ele>65</ele>
        <time>2019-09-22T06:55:06Z</time>
      </trkpt>
      <trkpt lat="47.26402" lon="-2.31593">
        <ele>66</ele>
        <time>2019-09-22T06:55:07Z</time>
      </trkpt>
      <trkpt lat="47.26402" lon="-2.31597">
        <ele>66</ele>
        <time>2019-09-22T06:55:08Z</time>
      </trkpt>
      <trkpt lat="47.26402" lon="-2.31602">
        <ele>66</ele>
        <time>2019-09-22T06:55:09Z</time>
      </trkpt>
      <trkpt lat="47.26402" lon="-2.31606">
        <ele>66</ele>
        <time>2019-09-22T06:55:10Z</time>
      </trkpt>
      <trkpt lat="47.26403" lon="-2.3161">
        <ele>66</ele>
        <time>2019-09-22T06:55:11Z</time>
      </trkpt>
      <trkpt lat="47.26403" lon="-2.31619">
        <ele>67</ele>
        <time>2019-09-22T06:55:13Z</time>
      </trkpt>
      <trkpt lat="47.26403" lon="-2.31624">
        <ele>67</ele>
        <time>2019-09-22T06:55:14Z</time>
      </trkpt>
      <trkpt lat="47.26404" lon="-2.31638">
        <ele>66</ele>
        <time>2019-09-22T06:55:18Z</time>
      </trkpt>
      <trkpt lat="47.26406" lon="-2.31647">
        <ele>66</ele>
        <time>2019-09-22T06:55:20Z</time>
      </trkpt>
      <trkpt lat="47.26403" lon="-2.31656">
        <ele>65</ele>
        <time>2019-09-22T06:55:21Z</time>
      </trkpt>
      <trkpt lat="47.26397" lon="-2.31663">
        <ele>63</ele>
        <time>2019-09-22T06:55:25Z</time>
      </trkpt>
      <trkpt lat="47.26392" lon="-2.31667">
        <ele>63</ele>
        <time>2019-09-22T06:55:27Z</time>
      </trkpt>
      <trkpt lat="47.26385" lon="-2.31668">
        <ele>62</ele>
        <time>2019-09-22T06:55:29Z</time>
      </trkpt>
      <trkpt lat="47.26378" lon="-2.31673">
        <ele>61</ele>
        <time>2019-09-22T06:55:30Z</time>
      </trkpt>
      <trkpt lat="47.26371" lon="-2.31679">
        <ele>61</ele>
        <time>2019-09-22T06:55:32Z</time>
      </trkpt>
      <trkpt lat="47.26365" lon="-2.31683">
        <ele>61</ele>
        <time>2019-09-22T06:55:34Z</time>
      </trkpt>
      <trkpt lat="47.26361" lon="-2.31686">
        <ele>61</ele>
        <time>2019-09-22T06:55:36Z</time>
      </trkpt>
      <trkpt lat="47.26353" lon="-2.3169">
        <ele>61</ele>
        <time>2019-09-22T06:55:38Z</time>
      </trkpt>
      <trkpt lat="47.26338" lon="-2.31697">
        <ele>61</ele>
        <time>2019-09-22T06:55:41Z</time>
      </trkpt>
      <trkpt lat="47.26332" lon="-2.31701">
        <ele>60</ele>
        <time>2019-09-22T06:55:42Z</time>
      </trkpt>
      <trkpt lat="47.26327" lon="-2.31706">
        <ele>60</ele>
        <time>2019-09-22T06:55:43Z</time>
      </trkpt>
      <trkpt lat="47.26317" lon="-2.3171">
        <ele>60</ele>
        <time>2019-09-22T06:55:45Z</time>
      </trkpt>
      <trkpt lat="47.26312" lon="-2.31712">
        <ele>61</ele>
        <time>2019-09-22T06:55:46Z</time>
      </trkpt>
      <trkpt lat="47.26308" lon="-2.31715">
        <ele>61</ele>
        <time>2019-09-22T06:55:47Z</time>
      </trkpt>
      <trkpt lat="47.26305" lon="-2.3172">
        <ele>61</ele>
        <time>2019-09-22T06:55:48Z</time>
      </trkpt>
      <trkpt lat="47.263" lon="-2.31727">
        <ele>60</ele>
        <time>2019-09-22T06:55:50Z</time>
      </trkpt>
      <trkpt lat="47.26299" lon="-2.31741">
        <ele>60</ele>
        <time>2019-09-22T06:55:53Z</time>
      </trkpt>
      <trkpt lat="47.263" lon="-2.31751">
        <ele>61</ele>
        <time>2019-09-22T06:55:54Z</time>
      </trkpt>
      <trkpt lat="47.26301" lon="-2.31762">
        <ele>61</ele>
        <time>2019-09-22T06:55:56Z</time>
      </trkpt>
      <trkpt lat="47.263" lon="-2.31776">
        <ele>61</ele>
        <time>2019-09-22T06:55:59Z</time>
      </trkpt>
      <trkpt lat="47.263" lon="-2.31781">
        <ele>61</ele>
        <time>2019-09-22T06:56:00Z</time>
      </trkpt>
      <trkpt lat="47.263" lon="-2.31787">
        <ele>62</ele>
        <time>2019-09-22T06:56:01Z</time>
      </trkpt>
      <trkpt lat="47.263" lon="-2.31793">
        <ele>62</ele>
        <time>2019-09-22T06:56:02Z</time>
      </trkpt>
      <trkpt lat="47.263" lon="-2.31799">
        <ele>62</ele>
        <time>2019-09-22T06:56:03Z</time>
      </trkpt>
      <trkpt lat="47.26298" lon="-2.31811">
        <ele>62</ele>
        <time>2019-09-22T06:56:05Z</time>
      </trkpt>
      <trkpt lat="47.26297" lon="-2.31817">
        <ele>62</ele>
        <time>2019-09-22T06:56:06Z</time>
      </trkpt>
      <trkpt lat="47.26296" lon="-2.31822">
        <ele>62</ele>
        <time>2019-09-22T06:56:07Z</time>
      </trkpt>
      <trkpt lat="47.26294" lon="-2.31839">
        <ele>62</ele>
        <time>2019-09-22T06:56:10Z</time>
      </trkpt>
      <trkpt lat="47.26294" lon="-2.31845">
        <ele>63</ele>
        <time>2019-09-22T06:56:11Z</time>
      </trkpt>
      <trkpt lat="47.26293" lon="-2.3186">
        <ele>63</ele>
        <time>2019-09-22T06:56:14Z</time>
      </trkpt>
      <trkpt lat="47.26292" lon="-2.31867">
        <ele>63</ele>
        <time>2019-09-22T06:56:16Z</time>
      </trkpt>
      <trkpt lat="47.26292" lon="-2.31872">
        <ele>63</ele>
        <time>2019-09-22T06:56:17Z</time>
      </trkpt>
      <trkpt lat="47.26289" lon="-2.31878">
        <ele>64</ele>
        <time>2019-09-22T06:56:19Z</time>
      </trkpt>
      <trkpt lat="47.26283" lon="-2.31885">
        <ele>64</ele>
        <time>2019-09-22T06:56:22Z</time>
      </trkpt>
      <trkpt lat="47.26277" lon="-2.3189">
        <ele>65</ele>
        <time>2019-09-22T06:56:24Z</time>
      </trkpt>
      <trkpt lat="47.26272" lon="-2.31897">
        <ele>65</ele>
        <time>2019-09-22T06:56:27Z</time>
      </trkpt>
      <trkpt lat="47.26268" lon="-2.31903">
        <ele>65</ele>
        <time>2019-09-22T06:56:29Z</time>
      </trkpt>
      <trkpt lat="47.26265" lon="-2.31907">
        <ele>66</ele>
        <time>2019-09-22T06:56:30Z</time>
      </trkpt>
      <trkpt lat="47.26261" lon="-2.31915">
        <ele>66</ele>
        <time>2019-09-22T06:56:32Z</time>
      </trkpt>
      <trkpt lat="47.26259" lon="-2.31919">
        <ele>66</ele>
        <time>2019-09-22T06:56:33Z</time>
      </trkpt>
      <trkpt lat="47.26255" lon="-2.31926">
        <ele>66</ele>
        <time>2019-09-22T06:56:35Z</time>
      </trkpt>
      <trkpt lat="47.26253" lon="-2.31929">
        <ele>66</ele>
        <time>2019-09-22T06:56:36Z</time>
      </trkpt>
      <trkpt lat="47.2625" lon="-2.31936">
        <ele>67</ele>
        <time>2019-09-22T06:56:38Z</time>
      </trkpt>
      <trkpt lat="47.26245" lon="-2.31945">
        <ele>67</ele>
        <time>2019-09-22T06:56:40Z</time>
      </trkpt>
      <trkpt lat="47.26241" lon="-2.31953">
        <ele>68</ele>
        <time>2019-09-22T06:56:41Z</time>
      </trkpt>
      <trkpt lat="47.26237" lon="-2.31959">
        <ele>67</ele>
        <time>2019-09-22T06:56:43Z</time>
      </trkpt>
      <trkpt lat="47.26232" lon="-2.31963">
        <ele>67</ele>
        <time>2019-09-22T06:56:48Z</time>
      </trkpt>
      <trkpt lat="47.26227" lon="-2.31969">
        <ele>67</ele>
        <time>2019-09-22T06:56:51Z</time>
      </trkpt>
      <trkpt lat="47.26223" lon="-2.31973">
        <ele>68</ele>
        <time>2019-09-22T06:56:53Z</time>
      </trkpt>
      <trkpt lat="47.26218" lon="-2.31977">
        <ele>68</ele>
        <time>2019-09-22T06:56:55Z</time>
      </trkpt>
      <trkpt lat="47.26216" lon="-2.31979">
        <ele>68</ele>
        <time>2019-09-22T06:56:56Z</time>
      </trkpt>
      <trkpt lat="47.26211" lon="-2.31982">
        <ele>68</ele>
        <time>2019-09-22T06:56:58Z</time>
      </trkpt>
      <trkpt lat="47.26205" lon="-2.31986">
        <ele>68</ele>
        <time>2019-09-22T06:57:00Z</time>
      </trkpt>
      <trkpt lat="47.26199" lon="-2.31995">
        <ele>68</ele>
        <time>2019-09-22T06:57:03Z</time>
      </trkpt>
      <trkpt lat="47.26196" lon="-2.32004">
        <ele>69</ele>
        <time>2019-09-22T06:57:07Z</time>
      </trkpt>
      <trkpt lat="47.26194" lon="-2.32007">
        <ele>69</ele>
        <time>2019-09-22T06:57:09Z</time>
      </trkpt>
      <trkpt lat="47.26187" lon="-2.32009">
        <ele>69</ele>
        <time>2019-09-22T06:57:14Z</time>
      </trkpt>
      <trkpt lat="47.26185" lon="-2.32009">
        <ele>68</ele>
        <time>2019-09-22T06:57:15Z</time>
      </trkpt>
      <trkpt lat="47.26178" lon="-2.32012">
        <ele>70</ele>
        <time>2019-09-22T06:57:17Z</time>
      </trkpt>
      <trkpt lat="47.2617" lon="-2.32017">
        <ele>70</ele>
        <time>2019-09-22T06:57:19Z</time>
      </trkpt>
      <trkpt lat="47.26166" lon="-2.32021">
        <ele>70</ele>
        <time>2019-09-22T06:57:20Z</time>
      </trkpt>
      <trkpt lat="47.26162" lon="-2.32025">
        <ele>70</ele>
        <time>2019-09-22T06:57:21Z</time>
      </trkpt>
      <trkpt lat="47.26159" lon="-2.32029">
        <ele>70</ele>
        <time>2019-09-22T06:57:22Z</time>
      </trkpt>
      <trkpt lat="47.26154" lon="-2.32039">
        <ele>70</ele>
        <time>2019-09-22T06:57:24Z</time>
      </trkpt>
      <trkpt lat="47.26151" lon="-2.32051">
        <ele>68</ele>
        <time>2019-09-22T06:57:26Z</time>
      </trkpt>
      <trkpt lat="47.26147" lon="-2.32062">
        <ele>66</ele>
        <time>2019-09-22T06:57:28Z</time>
      </trkpt>
      <trkpt lat="47.26143" lon="-2.32072">
        <ele>65</ele>
        <time>2019-09-22T06:57:30Z</time>
      </trkpt>
      <trkpt lat="47.26142" lon="-2.32078">
        <ele>65</ele>
        <time>2019-09-22T06:57:31Z</time>
      </trkpt>
      <trkpt lat="47.26135" lon="-2.32095">
        <ele>64</ele>
        <time>2019-09-22T06:57:34Z</time>
      </trkpt>
      <trkpt lat="47.26131" lon="-2.32106">
        <ele>64</ele>
        <time>2019-09-22T06:57:36Z</time>
      </trkpt>
      <trkpt lat="47.26129" lon="-2.32112">
        <ele>64</ele>
        <time>2019-09-22T06:57:37Z</time>
      </trkpt>
      <trkpt lat="47.26128" lon="-2.32117">
        <ele>65</ele>
        <time>2019-09-22T06:57:38Z</time>
      </trkpt>
      <trkpt lat="47.26126" lon="-2.32123">
        <ele>64</ele>
        <time>2019-09-22T06:57:39Z</time>
      </trkpt>
      <trkpt lat="47.26125" lon="-2.3213">
        <ele>64</ele>
        <time>2019-09-22T06:57:40Z</time>
      </trkpt>
      <trkpt lat="47.26121" lon="-2.3214">
        <ele>64</ele>
        <time>2019-09-22T06:57:42Z</time>
      </trkpt>
      <trkpt lat="47.26117" lon="-2.32151">
        <ele>64</ele>
        <time>2019-09-22T06:57:44Z</time>
      </trkpt>
      <trkpt lat="47.26114" lon="-2.32164">
        <ele>64</ele>
        <time>2019-09-22T06:57:46Z</time>
      </trkpt>
      <trkpt lat="47.26112" lon="-2.32171">
        <ele>63</ele>
        <time>2019-09-22T06:57:47Z</time>
      </trkpt>
      <trkpt lat="47.26106" lon="-2.32187">
        <ele>62</ele>
        <time>2019-09-22T06:57:50Z</time>
      </trkpt>
      <trkpt lat="47.261" lon="-2.32203">
        <ele>62</ele>
        <time>2019-09-22T06:57:53Z</time>
      </trkpt>
      <trkpt lat="47.26097" lon="-2.32208">
        <ele>62</ele>
        <time>2019-09-22T06:57:54Z</time>
      </trkpt>
      <trkpt lat="47.26092" lon="-2.32219">
        <ele>62</ele>
        <time>2019-09-22T06:57:55Z</time>
      </trkpt>
      <trkpt lat="47.26089" lon="-2.32223">
        <ele>61</ele>
        <time>2019-09-22T06:57:56Z</time>
      </trkpt>
      <trkpt lat="47.26082" lon="-2.32231">
        <ele>61</ele>
        <time>2019-09-22T06:57:58Z</time>
      </trkpt>
      <trkpt lat="47.26079" lon="-2.32234">
        <ele>61</ele>
        <time>2019-09-22T06:57:59Z</time>
      </trkpt>
      <trkpt lat="47.26076" lon="-2.32238">
        <ele>61</ele>
        <time>2019-09-22T06:58:00Z</time>
      </trkpt>
      <trkpt lat="47.26069" lon="-2.32247">
        <ele>60</ele>
        <time>2019-09-22T06:58:02Z</time>
      </trkpt>
      <trkpt lat="47.26066" lon="-2.32252">
        <ele>60</ele>
        <time>2019-09-22T06:58:03Z</time>
      </trkpt>
      <trkpt lat="47.2606" lon="-2.32259">
        <ele>59</ele>
        <time>2019-09-22T06:58:05Z</time>
      </trkpt>
      <trkpt lat="47.26052" lon="-2.32266">
        <ele>59</ele>
        <time>2019-09-22T06:58:07Z</time>
      </trkpt>
      <trkpt lat="47.26046" lon="-2.32274">
        <ele>58</ele>
        <time>2019-09-22T06:58:09Z</time>
      </trkpt>
      <trkpt lat="47.26042" lon="-2.32277">
        <ele>58</ele>
        <time>2019-09-22T06:58:10Z</time>
      </trkpt>
      <trkpt lat="47.26038" lon="-2.32282">
        <ele>58</ele>
        <time>2019-09-22T06:58:11Z</time>
      </trkpt>
      <trkpt lat="47.26035" lon="-2.32285">
        <ele>58</ele>
        <time>2019-09-22T06:58:12Z</time>
      </trkpt>
      <trkpt lat="47.26024" lon="-2.32297">
        <ele>57</ele>
        <time>2019-09-22T06:58:15Z</time>
      </trkpt>
      <trkpt lat="47.26021" lon="-2.323">
        <ele>58</ele>
        <time>2019-09-22T06:58:16Z</time>
      </trkpt>
      <trkpt lat="47.26018" lon="-2.32304">
        <ele>58</ele>
        <time>2019-09-22T06:58:17Z</time>
      </trkpt>
      <trkpt lat="47.26015" lon="-2.32308">
        <ele>58</ele>
        <time>2019-09-22T06:58:18Z</time>
      </trkpt>
      <trkpt lat="47.26009" lon="-2.32317">
        <ele>58</ele>
        <time>2019-09-22T06:58:20Z</time>
      </trkpt>
      <trkpt lat="47.26005" lon="-2.32322">
        <ele>58</ele>
        <time>2019-09-22T06:58:21Z</time>
      </trkpt>
      <trkpt lat="47.25998" lon="-2.32329">
        <ele>58</ele>
        <time>2019-09-22T06:58:23Z</time>
      </trkpt>
      <trkpt lat="47.25995" lon="-2.32333">
        <ele>57</ele>
        <time>2019-09-22T06:58:24Z</time>
      </trkpt>
      <trkpt lat="47.25992" lon="-2.32338">
        <ele>57</ele>
        <time>2019-09-22T06:58:25Z</time>
      </trkpt>
      <trkpt lat="47.25989" lon="-2.32344">
        <ele>56</ele>
        <time>2019-09-22T06:58:26Z</time>
      </trkpt>
      <trkpt lat="47.25986" lon="-2.32348">
        <ele>56</ele>
        <time>2019-09-22T06:58:27Z</time>
      </trkpt>
      <trkpt lat="47.25982" lon="-2.32354">
        <ele>56</ele>
        <time>2019-09-22T06:58:28Z</time>
      </trkpt>
      <trkpt lat="47.25979" lon="-2.32358">
        <ele>55</ele>
        <time>2019-09-22T06:58:29Z</time>
      </trkpt>
      <trkpt lat="47.25976" lon="-2.32362">
        <ele>55</ele>
        <time>2019-09-22T06:58:30Z</time>
      </trkpt>
      <trkpt lat="47.25967" lon="-2.32375">
        <ele>55</ele>
        <time>2019-09-22T06:58:33Z</time>
      </trkpt>
      <trkpt lat="47.2596" lon="-2.32383">
        <ele>55</ele>
        <time>2019-09-22T06:58:35Z</time>
      </trkpt>
      <trkpt lat="47.25957" lon="-2.32386">
        <ele>55</ele>
        <time>2019-09-22T06:58:36Z</time>
      </trkpt>
      <trkpt lat="47.25954" lon="-2.32391">
        <ele>55</ele>
        <time>2019-09-22T06:58:37Z</time>
      </trkpt>
      <trkpt lat="47.25951" lon="-2.32395">
        <ele>55</ele>
        <time>2019-09-22T06:58:38Z</time>
      </trkpt>
      <trkpt lat="47.25948" lon="-2.32399">
        <ele>55</ele>
        <time>2019-09-22T06:58:39Z</time>
      </trkpt>
      <trkpt lat="47.25938" lon="-2.32411">
        <ele>55</ele>
        <time>2019-09-22T06:58:42Z</time>
      </trkpt>
      <trkpt lat="47.25935" lon="-2.32415">
        <ele>55</ele>
        <time>2019-09-22T06:58:43Z</time>
      </trkpt>
      <trkpt lat="47.25932" lon="-2.3242">
        <ele>55</ele>
        <time>2019-09-22T06:58:44Z</time>
      </trkpt>
      <trkpt lat="47.25926" lon="-2.32428">
        <ele>55</ele>
        <time>2019-09-22T06:58:47Z</time>
      </trkpt>
      <trkpt lat="47.25917" lon="-2.32439">
        <ele>55</ele>
        <time>2019-09-22T06:58:50Z</time>
      </trkpt>
      <trkpt lat="47.25911" lon="-2.32447">
        <ele>55</ele>
        <time>2019-09-22T06:58:51Z</time>
      </trkpt>
      <trkpt lat="47.25909" lon="-2.3245">
        <ele>55</ele>
        <time>2019-09-22T06:58:52Z</time>
      </trkpt>
      <trkpt lat="47.25903" lon="-2.32458">
        <ele>55</ele>
        <time>2019-09-22T06:58:54Z</time>
      </trkpt>
      <trkpt lat="47.25898" lon="-2.32464">
        <ele>55</ele>
        <time>2019-09-22T06:58:56Z</time>
      </trkpt>
      <trkpt lat="47.25888" lon="-2.32471">
        <ele>55</ele>
        <time>2019-09-22T06:58:59Z</time>
      </trkpt>
      <trkpt lat="47.25884" lon="-2.32474">
        <ele>56</ele>
        <time>2019-09-22T06:59:00Z</time>
      </trkpt>
      <trkpt lat="47.25876" lon="-2.32477">
        <ele>56</ele>
        <time>2019-09-22T06:59:02Z</time>
      </trkpt>
      <trkpt lat="47.25872" lon="-2.32478">
        <ele>56</ele>
        <time>2019-09-22T06:59:03Z</time>
      </trkpt>
      <trkpt lat="47.25868" lon="-2.32478">
        <ele>56</ele>
        <time>2019-09-22T06:59:04Z</time>
      </trkpt>
      <trkpt lat="47.25864" lon="-2.32478">
        <ele>56</ele>
        <time>2019-09-22T06:59:05Z</time>
      </trkpt>
      <trkpt lat="47.25859" lon="-2.32479">
        <ele>56</ele>
        <time>2019-09-22T06:59:06Z</time>
      </trkpt>
      <trkpt lat="47.25855" lon="-2.32479">
        <ele>56</ele>
        <time>2019-09-22T06:59:07Z</time>
      </trkpt>
      <trkpt lat="47.25843" lon="-2.32476">
        <ele>57</ele>
        <time>2019-09-22T06:59:10Z</time>
      </trkpt>
      <trkpt lat="47.25835" lon="-2.32474">
        <ele>56</ele>
        <time>2019-09-22T06:59:12Z</time>
      </trkpt>
      <trkpt lat="47.25831" lon="-2.32472">
        <ele>56</ele>
        <time>2019-09-22T06:59:13Z</time>
      </trkpt>
      <trkpt lat="47.25824" lon="-2.32467">
        <ele>57</ele>
        <time>2019-09-22T06:59:16Z</time>
      </trkpt>
      <trkpt lat="47.25813" lon="-2.32461">
        <ele>57</ele>
        <time>2019-09-22T06:59:19Z</time>
      </trkpt>
      <trkpt lat="47.2581" lon="-2.3246">
        <ele>57</ele>
        <time>2019-09-22T06:59:20Z</time>
      </trkpt>
      <trkpt lat="47.25803" lon="-2.32458">
        <ele>57</ele>
        <time>2019-09-22T06:59:22Z</time>
      </trkpt>
      <trkpt lat="47.25797" lon="-2.32461">
        <ele>57</ele>
        <time>2019-09-22T06:59:24Z</time>
      </trkpt>
      <trkpt lat="47.2579" lon="-2.32463">
        <ele>57</ele>
        <time>2019-09-22T06:59:26Z</time>
      </trkpt>
      <trkpt lat="47.25781" lon="-2.32458">
        <ele>58</ele>
        <time>2019-09-22T06:59:29Z</time>
      </trkpt>
      <trkpt lat="47.25777" lon="-2.32449">
        <ele>57</ele>
        <time>2019-09-22T06:59:31Z</time>
      </trkpt>
      <trkpt lat="47.25775" lon="-2.32445">
        <ele>56</ele>
        <time>2019-09-22T06:59:32Z</time>
      </trkpt>
      <trkpt lat="47.25771" lon="-2.32436">
        <ele>56</ele>
        <time>2019-09-22T06:59:33Z</time>
      </trkpt>
      <trkpt lat="47.25764" lon="-2.3243">
        <ele>56</ele>
        <time>2019-09-22T06:59:35Z</time>
      </trkpt>
      <trkpt lat="47.25755" lon="-2.3243">
        <ele>55</ele>
        <time>2019-09-22T06:59:37Z</time>
      </trkpt>
      <trkpt lat="47.2575" lon="-2.3243">
        <ele>55</ele>
        <time>2019-09-22T06:59:38Z</time>
      </trkpt>
      <trkpt lat="47.25745" lon="-2.3243">
        <ele>55</ele>
        <time>2019-09-22T06:59:40Z</time>
      </trkpt>
      <trkpt lat="47.25736" lon="-2.32429">
        <ele>54</ele>
        <time>2019-09-22T06:59:42Z</time>
      </trkpt>
      <trkpt lat="47.25731" lon="-2.32429">
        <ele>54</ele>
        <time>2019-09-22T06:59:43Z</time>
      </trkpt>
      <trkpt lat="47.25727" lon="-2.32429">
        <ele>54</ele>
        <time>2019-09-22T06:59:44Z</time>
      </trkpt>
      <trkpt lat="47.25719" lon="-2.32429">
        <ele>54</ele>
        <time>2019-09-22T06:59:46Z</time>
      </trkpt>
      <trkpt lat="47.25715" lon="-2.32428">
        <ele>54</ele>
        <time>2019-09-22T06:59:47Z</time>
      </trkpt>
      <trkpt lat="47.25706" lon="-2.32428">
        <ele>55</ele>
        <time>2019-09-22T06:59:49Z</time>
      </trkpt>
      <trkpt lat="47.25698" lon="-2.32427">
        <ele>56</ele>
        <time>2019-09-22T06:59:51Z</time>
      </trkpt>
      <trkpt lat="47.25694" lon="-2.32426">
        <ele>57</ele>
        <time>2019-09-22T06:59:52Z</time>
      </trkpt>
      <trkpt lat="47.2569" lon="-2.32426">
        <ele>58</ele>
        <time>2019-09-22T06:59:53Z</time>
      </trkpt>
      <trkpt lat="47.25686" lon="-2.32425">
        <ele>59</ele>
        <time>2019-09-22T06:59:54Z</time>
      </trkpt>
      <trkpt lat="47.25682" lon="-2.32425">
        <ele>59</ele>
        <time>2019-09-22T06:59:55Z</time>
      </trkpt>
      <trkpt lat="47.25678" lon="-2.32424">
        <ele>59</ele>
        <time>2019-09-22T06:59:56Z</time>
      </trkpt>
      <trkpt lat="47.25667" lon="-2.32425">
        <ele>60</ele>
        <time>2019-09-22T06:59:59Z</time>
      </trkpt>
      <trkpt lat="47.25663" lon="-2.32433">
        <ele>60</ele>
        <time>2019-09-22T07:00:01Z</time>
      </trkpt>
      <trkpt lat="47.25663" lon="-2.32445">
        <ele>60</ele>
        <time>2019-09-22T07:00:03Z</time>
      </trkpt>
      <trkpt lat="47.25666" lon="-2.32456">
        <ele>61</ele>
        <time>2019-09-22T07:00:05Z</time>
      </trkpt>
      <trkpt lat="47.25668" lon="-2.32462">
        <ele>61</ele>
        <time>2019-09-22T07:00:06Z</time>
      </trkpt>
      <trkpt lat="47.2567" lon="-2.32467">
        <ele>60</ele>
        <time>2019-09-22T07:00:07Z</time>
      </trkpt>
      <trkpt lat="47.25671" lon="-2.32473">
        <ele>60</ele>
        <time>2019-09-22T07:00:08Z</time>
      </trkpt>
      <trkpt lat="47.25673" lon="-2.32478">
        <ele>60</ele>
        <time>2019-09-22T07:00:09Z</time>
      </trkpt>
      <trkpt lat="47.25675" lon="-2.32483">
        <ele>59</ele>
        <time>2019-09-22T07:00:10Z</time>
      </trkpt>
      <trkpt lat="47.25678" lon="-2.32494">
        <ele>60</ele>
        <time>2019-09-22T07:00:11Z</time>
      </trkpt>
      <trkpt lat="47.25679" lon="-2.32499">
        <ele>60</ele>
        <time>2019-09-22T07:00:12Z</time>
      </trkpt>
      <trkpt lat="47.25681" lon="-2.32505">
        <ele>60</ele>
        <time>2019-09-22T07:00:13Z</time>
      </trkpt>
      <trkpt lat="47.25683" lon="-2.3251">
        <ele>60</ele>
        <time>2019-09-22T07:00:14Z</time>
      </trkpt>
      <trkpt lat="47.25685" lon="-2.32515">
        <ele>59</ele>
        <time>2019-09-22T07:00:15Z</time>
      </trkpt>
      <trkpt lat="47.25686" lon="-2.32521">
        <ele>59</ele>
        <time>2019-09-22T07:00:16Z</time>
      </trkpt>
      <trkpt lat="47.25691" lon="-2.32535">
        <ele>59</ele>
        <time>2019-09-22T07:00:19Z</time>
      </trkpt>
      <trkpt lat="47.25693" lon="-2.3254">
        <ele>59</ele>
        <time>2019-09-22T07:00:20Z</time>
      </trkpt>
      <trkpt lat="47.25694" lon="-2.32544">
        <ele>60</ele>
        <time>2019-09-22T07:00:21Z</time>
      </trkpt>
      <trkpt lat="47.25699" lon="-2.3256">
        <ele>59</ele>
        <time>2019-09-22T07:00:25Z</time>
      </trkpt>
      <trkpt lat="47.25704" lon="-2.32572">
        <ele>63</ele>
        <time>2019-09-22T07:00:28Z</time>
      </trkpt>
      <trkpt lat="47.25706" lon="-2.32583">
        <ele>63</ele>
        <time>2019-09-22T07:00:30Z</time>
      </trkpt>
      <trkpt lat="47.25709" lon="-2.326">
        <ele>63</ele>
        <time>2019-09-22T07:00:33Z</time>
      </trkpt>
      <trkpt lat="47.2571" lon="-2.32605">
        <ele>63</ele>
        <time>2019-09-22T07:00:34Z</time>
      </trkpt>
      <trkpt lat="47.25709" lon="-2.32615">
        <ele>62</ele>
        <time>2019-09-22T07:00:36Z</time>
      </trkpt>
      <trkpt lat="47.25704" lon="-2.32624">
        <ele>62</ele>
        <time>2019-09-22T07:00:38Z</time>
      </trkpt>
      <trkpt lat="47.25697" lon="-2.32629">
        <ele>62</ele>
        <time>2019-09-22T07:00:40Z</time>
      </trkpt>
      <trkpt lat="47.2569" lon="-2.32632">
        <ele>62</ele>
        <time>2019-09-22T07:00:42Z</time>
      </trkpt>
      <trkpt lat="47.25684" lon="-2.32635">
        <ele>62</ele>
        <time>2019-09-22T07:00:44Z</time>
      </trkpt>
      <trkpt lat="47.25677" lon="-2.32638">
        <ele>62</ele>
        <time>2019-09-22T07:00:46Z</time>
      </trkpt>
      <trkpt lat="47.25673" lon="-2.32639">
        <ele>62</ele>
        <time>2019-09-22T07:00:47Z</time>
      </trkpt>
      <trkpt lat="47.25669" lon="-2.32641">
        <ele>62</ele>
        <time>2019-09-22T07:00:48Z</time>
      </trkpt>
      <trkpt lat="47.25659" lon="-2.32647">
        <ele>62</ele>
        <time>2019-09-22T07:00:51Z</time>
      </trkpt>
      <trkpt lat="47.25655" lon="-2.32649">
        <ele>62</ele>
        <time>2019-09-22T07:00:52Z</time>
      </trkpt>
      <trkpt lat="47.25652" lon="-2.3265">
        <ele>63</ele>
        <time>2019-09-22T07:00:53Z</time>
      </trkpt>
      <trkpt lat="47.25648" lon="-2.32651">
        <ele>63</ele>
        <time>2019-09-22T07:00:54Z</time>
      </trkpt>
      <trkpt lat="47.25645" lon="-2.32653">
        <ele>63</ele>
        <time>2019-09-22T07:00:55Z</time>
      </trkpt>
      <trkpt lat="47.25637" lon="-2.32655">
        <ele>63</ele>
        <time>2019-09-22T07:00:57Z</time>
      </trkpt>
      <trkpt lat="47.25634" lon="-2.32656">
        <ele>63</ele>
        <time>2019-09-22T07:00:58Z</time>
      </trkpt>
      <trkpt lat="47.25626" lon="-2.3266">
        <ele>63</ele>
        <time>2019-09-22T07:01:00Z</time>
      </trkpt>
      <trkpt lat="47.25622" lon="-2.32662">
        <ele>63</ele>
        <time>2019-09-22T07:01:01Z</time>
      </trkpt>
      <trkpt lat="47.25619" lon="-2.32664">
        <ele>63</ele>
        <time>2019-09-22T07:01:02Z</time>
      </trkpt>
      <trkpt lat="47.25612" lon="-2.32669">
        <ele>62</ele>
        <time>2019-09-22T07:01:04Z</time>
      </trkpt>
      <trkpt lat="47.25608" lon="-2.32672">
        <ele>62</ele>
        <time>2019-09-22T07:01:05Z</time>
      </trkpt>
      <trkpt lat="47.25597" lon="-2.32676">
        <ele>62</ele>
        <time>2019-09-22T07:01:08Z</time>
      </trkpt>
      <trkpt lat="47.25588" lon="-2.32678">
        <ele>62</ele>
        <time>2019-09-22T07:01:10Z</time>
      </trkpt>
      <trkpt lat="47.25584" lon="-2.32679">
        <ele>62</ele>
        <time>2019-09-22T07:01:11Z</time>
      </trkpt>
      <trkpt lat="47.2558" lon="-2.3268">
        <ele>62</ele>
        <time>2019-09-22T07:01:12Z</time>
      </trkpt>
      <trkpt lat="47.25568" lon="-2.32684">
        <ele>63</ele>
        <time>2019-09-22T07:01:15Z</time>
      </trkpt>
      <trkpt lat="47.25564" lon="-2.32686">
        <ele>63</ele>
        <time>2019-09-22T07:01:16Z</time>
      </trkpt>
      <trkpt lat="47.2556" lon="-2.32687">
        <ele>63</ele>
        <time>2019-09-22T07:01:17Z</time>
      </trkpt>
      <trkpt lat="47.25556" lon="-2.32689">
        <ele>63</ele>
        <time>2019-09-22T07:01:18Z</time>
      </trkpt>
      <trkpt lat="47.25548" lon="-2.32693">
        <ele>64</ele>
        <time>2019-09-22T07:01:20Z</time>
      </trkpt>
      <trkpt lat="47.25545" lon="-2.32695">
        <ele>64</ele>
        <time>2019-09-22T07:01:21Z</time>
      </trkpt>
      <trkpt lat="47.25536" lon="-2.32698">
        <ele>64</ele>
        <time>2019-09-22T07:01:23Z</time>
      </trkpt>
      <trkpt lat="47.25529" lon="-2.32703">
        <ele>63</ele>
        <time>2019-09-22T07:01:25Z</time>
      </trkpt>
      <trkpt lat="47.25524" lon="-2.32704">
        <ele>63</ele>
        <time>2019-09-22T07:01:26Z</time>
      </trkpt>
      <trkpt lat="47.2552" lon="-2.32706">
        <ele>62</ele>
        <time>2019-09-22T07:01:27Z</time>
      </trkpt>
      <trkpt lat="47.25515" lon="-2.32707">
        <ele>62</ele>
        <time>2019-09-22T07:01:28Z</time>
      </trkpt>
      <trkpt lat="47.25502" lon="-2.32706">
        <ele>62</ele>
        <time>2019-09-22T07:01:31Z</time>
      </trkpt>
      <trkpt lat="47.25498" lon="-2.32706">
        <ele>62</ele>
        <time>2019-09-22T07:01:32Z</time>
      </trkpt>
      <trkpt lat="47.25494" lon="-2.32706">
        <ele>62</ele>
        <time>2019-09-22T07:01:33Z</time>
      </trkpt>
      <trkpt lat="47.2549" lon="-2.32708">
        <ele>61</ele>
        <time>2019-09-22T07:01:34Z</time>
      </trkpt>
      <trkpt lat="47.25486" lon="-2.32709">
        <ele>61</ele>
        <time>2019-09-22T07:01:35Z</time>
      </trkpt>
      <trkpt lat="47.25478" lon="-2.32715">
        <ele>61</ele>
        <time>2019-09-22T07:01:37Z</time>
      </trkpt>
      <trkpt lat="47.25471" lon="-2.32722">
        <ele>62</ele>
        <time>2019-09-22T07:01:39Z</time>
      </trkpt>
      <trkpt lat="47.25468" lon="-2.32727">
        <ele>62</ele>
        <time>2019-09-22T07:01:40Z</time>
      </trkpt>
      <trkpt lat="47.25465" lon="-2.32731">
        <ele>62</ele>
        <time>2019-09-22T07:01:41Z</time>
      </trkpt>
      <trkpt lat="47.25462" lon="-2.32735">
        <ele>62</ele>
        <time>2019-09-22T07:01:42Z</time>
      </trkpt>
      <trkpt lat="47.25459" lon="-2.32739">
        <ele>62</ele>
        <time>2019-09-22T07:01:43Z</time>
      </trkpt>
      <trkpt lat="47.25455" lon="-2.32744">
        <ele>62</ele>
        <time>2019-09-22T07:01:44Z</time>
      </trkpt>
      <trkpt lat="47.25452" lon="-2.32748">
        <ele>62</ele>
        <time>2019-09-22T07:01:45Z</time>
      </trkpt>
      <trkpt lat="47.25446" lon="-2.32757">
        <ele>62</ele>
        <time>2019-09-22T07:01:47Z</time>
      </trkpt>
      <trkpt lat="47.25443" lon="-2.32761">
        <ele>62</ele>
        <time>2019-09-22T07:01:48Z</time>
      </trkpt>
      <trkpt lat="47.25438" lon="-2.3277">
        <ele>62</ele>
        <time>2019-09-22T07:01:50Z</time>
      </trkpt>
      <trkpt lat="47.25434" lon="-2.32781">
        <ele>62</ele>
        <time>2019-09-22T07:01:52Z</time>
      </trkpt>
      <trkpt lat="47.25432" lon="-2.32786">
        <ele>62</ele>
        <time>2019-09-22T07:01:53Z</time>
      </trkpt>
      <trkpt lat="47.25425" lon="-2.32795">
        <ele>62</ele>
        <time>2019-09-22T07:01:55Z</time>
      </trkpt>
      <trkpt lat="47.25422" lon="-2.328">
        <ele>62</ele>
        <time>2019-09-22T07:01:56Z</time>
      </trkpt>
      <trkpt lat="47.25419" lon="-2.32805">
        <ele>62</ele>
        <time>2019-09-22T07:01:57Z</time>
      </trkpt>
      <trkpt lat="47.25416" lon="-2.3281">
        <ele>62</ele>
        <time>2019-09-22T07:01:58Z</time>
      </trkpt>
      <trkpt lat="47.25412" lon="-2.32815">
        <ele>62</ele>
        <time>2019-09-22T07:01:59Z</time>
      </trkpt>
      <trkpt lat="47.25409" lon="-2.3282">
        <ele>62</ele>
        <time>2019-09-22T07:02:00Z</time>
      </trkpt>
      <trkpt lat="47.25401" lon="-2.32829">
        <ele>62</ele>
        <time>2019-09-22T07:02:01Z</time>
      </trkpt>
      <trkpt lat="47.25397" lon="-2.32833">
        <ele>62</ele>
        <time>2019-09-22T07:02:02Z</time>
      </trkpt>
      <trkpt lat="47.2539" lon="-2.32842">
        <ele>62</ele>
        <time>2019-09-22T07:02:04Z</time>
      </trkpt>
      <trkpt lat="47.25386" lon="-2.32846">
        <ele>62</ele>
        <time>2019-09-22T07:02:05Z</time>
      </trkpt>
      <trkpt lat="47.25383" lon="-2.32851">
        <ele>61</ele>
        <time>2019-09-22T07:02:06Z</time>
      </trkpt>
      <trkpt lat="47.25379" lon="-2.32855">
        <ele>62</ele>
        <time>2019-09-22T07:02:07Z</time>
      </trkpt>
      <trkpt lat="47.25376" lon="-2.32859">
        <ele>62</ele>
        <time>2019-09-22T07:02:08Z</time>
      </trkpt>
      <trkpt lat="47.25369" lon="-2.32867">
        <ele>63</ele>
        <time>2019-09-22T07:02:10Z</time>
      </trkpt>
      <trkpt lat="47.25365" lon="-2.3287">
        <ele>62</ele>
        <time>2019-09-22T07:02:11Z</time>
      </trkpt>
      <trkpt lat="47.25361" lon="-2.32875">
        <ele>62</ele>
        <time>2019-09-22T07:02:12Z</time>
      </trkpt>
      <trkpt lat="47.25354" lon="-2.32882">
        <ele>62</ele>
        <time>2019-09-22T07:02:14Z</time>
      </trkpt>
      <trkpt lat="47.2535" lon="-2.32885">
        <ele>62</ele>
        <time>2019-09-22T07:02:15Z</time>
      </trkpt>
      <trkpt lat="47.25347" lon="-2.32889">
        <ele>62</ele>
        <time>2019-09-22T07:02:16Z</time>
      </trkpt>
      <trkpt lat="47.25343" lon="-2.32893">
        <ele>62</ele>
        <time>2019-09-22T07:02:17Z</time>
      </trkpt>
      <trkpt lat="47.25339" lon="-2.32896">
        <ele>61</ele>
        <time>2019-09-22T07:02:18Z</time>
      </trkpt>
      <trkpt lat="47.25333" lon="-2.32903">
        <ele>62</ele>
        <time>2019-09-22T07:02:21Z</time>
      </trkpt>
      <trkpt lat="47.25329" lon="-2.32907">
        <ele>62</ele>
        <time>2019-09-22T07:02:22Z</time>
      </trkpt>
      <trkpt lat="47.25319" lon="-2.32917">
        <ele>62</ele>
        <time>2019-09-22T07:02:25Z</time>
      </trkpt>
      <trkpt lat="47.25316" lon="-2.32921">
        <ele>62</ele>
        <time>2019-09-22T07:02:26Z</time>
      </trkpt>
      <trkpt lat="47.25312" lon="-2.32925">
        <ele>63</ele>
        <time>2019-09-22T07:02:27Z</time>
      </trkpt>
      <trkpt lat="47.25309" lon="-2.32936">
        <ele>63</ele>
        <time>2019-09-22T07:02:29Z</time>
      </trkpt>
      <trkpt lat="47.2531" lon="-2.32949">
        <ele>62</ele>
        <time>2019-09-22T07:02:31Z</time>
      </trkpt>
      <trkpt lat="47.25314" lon="-2.32959">
        <ele>62</ele>
        <time>2019-09-22T07:02:33Z</time>
      </trkpt>
      <trkpt lat="47.25317" lon="-2.32965">
        <ele>61</ele>
        <time>2019-09-22T07:02:34Z</time>
      </trkpt>
      <trkpt lat="47.25322" lon="-2.32976">
        <ele>61</ele>
        <time>2019-09-22T07:02:36Z</time>
      </trkpt>
      <trkpt lat="47.25324" lon="-2.32982">
        <ele>61</ele>
        <time>2019-09-22T07:02:37Z</time>
      </trkpt>
      <trkpt lat="47.25326" lon="-2.32988">
        <ele>61</ele>
        <time>2019-09-22T07:02:38Z</time>
      </trkpt>
      <trkpt lat="47.25329" lon="-2.32994">
        <ele>61</ele>
        <time>2019-09-22T07:02:39Z</time>
      </trkpt>
      <trkpt lat="47.25331" lon="-2.33">
        <ele>60</ele>
        <time>2019-09-22T07:02:40Z</time>
      </trkpt>
      <trkpt lat="47.25333" lon="-2.33006">
        <ele>60</ele>
        <time>2019-09-22T07:02:41Z</time>
      </trkpt>
      <trkpt lat="47.25335" lon="-2.33011">
        <ele>60</ele>
        <time>2019-09-22T07:02:42Z</time>
      </trkpt>
      <trkpt lat="47.25337" lon="-2.33018">
        <ele>60</ele>
        <time>2019-09-22T07:02:43Z</time>
      </trkpt>
      <trkpt lat="47.2534" lon="-2.33023">
        <ele>60</ele>
        <time>2019-09-22T07:02:44Z</time>
      </trkpt>
      <trkpt lat="47.25342" lon="-2.33029">
        <ele>60</ele>
        <time>2019-09-22T07:02:45Z</time>
      </trkpt>
      <trkpt lat="47.25345" lon="-2.33035">
        <ele>59</ele>
        <time>2019-09-22T07:02:46Z</time>
      </trkpt>
      <trkpt lat="47.25347" lon="-2.33041">
        <ele>60</ele>
        <time>2019-09-22T07:02:47Z</time>
      </trkpt>
      <trkpt lat="47.25354" lon="-2.33057">
        <ele>59</ele>
        <time>2019-09-22T07:02:49Z</time>
      </trkpt>
      <trkpt lat="47.25355" lon="-2.33063">
        <ele>59</ele>
        <time>2019-09-22T07:02:51Z</time>
      </trkpt>
      <trkpt lat="47.25359" lon="-2.33075">
        <ele>59</ele>
        <time>2019-09-22T07:02:53Z</time>
      </trkpt>
      <trkpt lat="47.2536" lon="-2.3308">
        <ele>59</ele>
        <time>2019-09-22T07:02:54Z</time>
      </trkpt>
      <trkpt lat="47.25363" lon="-2.3309">
        <ele>58</ele>
        <time>2019-09-22T07:02:56Z</time>
      </trkpt>
      <trkpt lat="47.25365" lon="-2.33097">
        <ele>59</ele>
        <time>2019-09-22T07:02:58Z</time>
      </trkpt>
      <trkpt lat="47.25365" lon="-2.33097">
        <ele>8</ele>
        <time>2019-09-22T07:03:04Z</time>
      </trkpt>
      <trkpt lat="47.25365" lon="-2.33097">
        <ele>8</ele>
        <time>2019-09-22T07:08:53Z</time>
      </trkpt>
      <trkpt lat="47.25375" lon="-2.33118">
        <ele>63</ele>
        <time>2019-09-22T07:08:53Z</time>
      </trkpt>
      <trkpt lat="47.25378" lon="-2.3313">
        <ele>59</ele>
        <time>2019-09-22T07:08:59Z</time>
      </trkpt>
      <trkpt lat="47.25383" lon="-2.33137">
        <ele>55</ele>
        <time>2019-09-22T07:09:02Z</time>
      </trkpt>
      <trkpt lat="47.25386" lon="-2.3314">
        <ele>54</ele>
        <time>2019-09-22T07:09:04Z</time>
      </trkpt>
      <trkpt lat="47.25391" lon="-2.3314">
        <ele>53</ele>
        <time>2019-09-22T07:09:07Z</time>
      </trkpt>
      <trkpt lat="47.25396" lon="-2.33137">
        <ele>54</ele>
        <time>2019-09-22T07:09:10Z</time>
      </trkpt>
      <trkpt lat="47.25399" lon="-2.33134">
        <ele>54</ele>
        <time>2019-09-22T07:09:12Z</time>
      </trkpt>
      <trkpt lat="47.25407" lon="-2.33131">
        <ele>56</ele>
        <time>2019-09-22T07:09:16Z</time>
      </trkpt>
      <trkpt lat="47.25409" lon="-2.3313">
        <ele>57</ele>
        <time>2019-09-22T07:09:17Z</time>
      </trkpt>
      <trkpt lat="47.25411" lon="-2.33129">
        <ele>58</ele>
        <time>2019-09-22T07:09:18Z</time>
      </trkpt>
      <trkpt lat="47.25416" lon="-2.33128">
        <ele>58</ele>
        <time>2019-09-22T07:09:20Z</time>
      </trkpt>
      <trkpt lat="47.25424" lon="-2.33124">
        <ele>59</ele>
        <time>2019-09-22T07:09:23Z</time>
      </trkpt>
      <trkpt lat="47.2543" lon="-2.33123">
        <ele>58</ele>
        <time>2019-09-22T07:09:25Z</time>
      </trkpt>
      <trkpt lat="47.25435" lon="-2.3312">
        <ele>59</ele>
        <time>2019-09-22T07:09:28Z</time>
      </trkpt>
      <trkpt lat="47.25441" lon="-2.33117">
        <ele>59</ele>
        <time>2019-09-22T07:09:30Z</time>
      </trkpt>
      <trkpt lat="47.25444" lon="-2.33116">
        <ele>59</ele>
        <time>2019-09-22T07:09:31Z</time>
      </trkpt>
      <trkpt lat="47.2545" lon="-2.33113">
        <ele>59</ele>
        <time>2019-09-22T07:09:33Z</time>
      </trkpt>
      <trkpt lat="47.25453" lon="-2.33112">
        <ele>59</ele>
        <time>2019-09-22T07:09:34Z</time>
      </trkpt>
      <trkpt lat="47.25455" lon="-2.3311">
        <ele>58</ele>
        <time>2019-09-22T07:09:35Z</time>
      </trkpt>
      <trkpt lat="47.25458" lon="-2.33109">
        <ele>58</ele>
        <time>2019-09-22T07:09:36Z</time>
      </trkpt>
      <trkpt lat="47.25464" lon="-2.33106">
        <ele>59</ele>
        <time>2019-09-22T07:09:38Z</time>
      </trkpt>
      <trkpt lat="47.2547" lon="-2.33103">
        <ele>59</ele>
        <time>2019-09-22T07:09:40Z</time>
      </trkpt>
      <trkpt lat="47.25474" lon="-2.33099">
        <ele>59</ele>
        <time>2019-09-22T07:09:42Z</time>
      </trkpt>
      <trkpt lat="47.2548" lon="-2.33096">
        <ele>59</ele>
        <time>2019-09-22T07:09:45Z</time>
      </trkpt>
      <trkpt lat="47.25483" lon="-2.33094">
        <ele>58</ele>
        <time>2019-09-22T07:09:47Z</time>
      </trkpt>
      <trkpt lat="47.25487" lon="-2.3309">
        <ele>58</ele>
        <time>2019-09-22T07:09:50Z</time>
      </trkpt>
      <trkpt lat="47.25493" lon="-2.33084">
        <ele>58</ele>
        <time>2019-09-22T07:09:53Z</time>
      </trkpt>
      <trkpt lat="47.25498" lon="-2.33077">
        <ele>58</ele>
        <time>2019-09-22T07:09:55Z</time>
      </trkpt>
      <trkpt lat="47.25503" lon="-2.33071">
        <ele>57</ele>
        <time>2019-09-22T07:09:57Z</time>
      </trkpt>
      <trkpt lat="47.25506" lon="-2.33068">
        <ele>57</ele>
        <time>2019-09-22T07:09:58Z</time>
      </trkpt>
      <trkpt lat="47.25509" lon="-2.33064">
        <ele>57</ele>
        <time>2019-09-22T07:09:59Z</time>
      </trkpt>
      <trkpt lat="47.25512" lon="-2.33061">
        <ele>57</ele>
        <time>2019-09-22T07:10:00Z</time>
      </trkpt>
      <trkpt lat="47.25524" lon="-2.33052">
        <ele>58</ele>
        <time>2019-09-22T07:10:04Z</time>
      </trkpt>
      <trkpt lat="47.25534" lon="-2.33048">
        <ele>58</ele>
        <time>2019-09-22T07:10:06Z</time>
      </trkpt>
      <trkpt lat="47.25545" lon="-2.33046">
        <ele>58</ele>
        <time>2019-09-22T07:10:10Z</time>
      </trkpt>
      <trkpt lat="47.25548" lon="-2.33045">
        <ele>58</ele>
        <time>2019-09-22T07:10:11Z</time>
      </trkpt>
      <trkpt lat="47.25552" lon="-2.33044">
        <ele>58</ele>
        <time>2019-09-22T07:10:12Z</time>
      </trkpt>
      <trkpt lat="47.25558" lon="-2.33043">
        <ele>58</ele>
        <time>2019-09-22T07:10:14Z</time>
      </trkpt>
      <trkpt lat="47.25562" lon="-2.33042">
        <ele>58</ele>
        <time>2019-09-22T07:10:15Z</time>
      </trkpt>
      <trkpt lat="47.25569" lon="-2.33039">
        <ele>58</ele>
        <time>2019-09-22T07:10:17Z</time>
      </trkpt>
      <trkpt lat="47.2558" lon="-2.33036">
        <ele>58</ele>
        <time>2019-09-22T07:10:20Z</time>
      </trkpt>
      <trkpt lat="47.25584" lon="-2.33035">
        <ele>58</ele>
        <time>2019-09-22T07:10:21Z</time>
      </trkpt>
      <trkpt lat="47.25591" lon="-2.33034">
        <ele>58</ele>
        <time>2019-09-22T07:10:23Z</time>
      </trkpt>
      <trkpt lat="47.25594" lon="-2.33033">
        <ele>58</ele>
        <time>2019-09-22T07:10:24Z</time>
      </trkpt>
      <trkpt lat="47.25598" lon="-2.33032">
        <ele>58</ele>
        <time>2019-09-22T07:10:25Z</time>
      </trkpt>
      <trkpt lat="47.25604" lon="-2.33031">
        <ele>59</ele>
        <time>2019-09-22T07:10:27Z</time>
      </trkpt>
      <trkpt lat="47.25614" lon="-2.33021">
        <ele>60</ele>
        <time>2019-09-22T07:10:30Z</time>
      </trkpt>
      <trkpt lat="47.25616" lon="-2.33011">
        <ele>60</ele>
        <time>2019-09-22T07:10:32Z</time>
      </trkpt>
      <trkpt lat="47.25614" lon="-2.32998">
        <ele>60</ele>
        <time>2019-09-22T07:10:35Z</time>
      </trkpt>
      <trkpt lat="47.25614" lon="-2.32994">
        <ele>60</ele>
        <time>2019-09-22T07:10:36Z</time>
      </trkpt>
      <trkpt lat="47.25613" lon="-2.32984">
        <ele>60</ele>
        <time>2019-09-22T07:10:38Z</time>
      </trkpt>
      <trkpt lat="47.25611" lon="-2.32977">
        <ele>60</ele>
        <time>2019-09-22T07:10:40Z</time>
      </trkpt>
      <trkpt lat="47.2561" lon="-2.32974">
        <ele>60</ele>
        <time>2019-09-22T07:10:41Z</time>
      </trkpt>
      <trkpt lat="47.25618" lon="-2.33004">
        <ele>59</ele>
        <time>2019-09-22T07:10:52Z</time>
      </trkpt>
      <trkpt lat="47.25619" lon="-2.33011">
        <ele>59</ele>
        <time>2019-09-22T07:10:53Z</time>
      </trkpt>
      <trkpt lat="47.25621" lon="-2.33017">
        <ele>59</ele>
        <time>2019-09-22T07:10:55Z</time>
      </trkpt>
      <trkpt lat="47.25623" lon="-2.33024">
        <ele>59</ele>
        <time>2019-09-22T07:10:56Z</time>
      </trkpt>
      <trkpt lat="47.25626" lon="-2.33029">
        <ele>58</ele>
        <time>2019-09-22T07:10:57Z</time>
      </trkpt>
      <trkpt lat="47.25629" lon="-2.33035">
        <ele>58</ele>
        <time>2019-09-22T07:10:58Z</time>
      </trkpt>
      <trkpt lat="47.25632" lon="-2.33041">
        <ele>58</ele>
        <time>2019-09-22T07:10:59Z</time>
      </trkpt>
      <trkpt lat="47.25635" lon="-2.33046">
        <ele>59</ele>
        <time>2019-09-22T07:11:00Z</time>
      </trkpt>
      <trkpt lat="47.25638" lon="-2.33051">
        <ele>59</ele>
        <time>2019-09-22T07:11:01Z</time>
      </trkpt>
      <trkpt lat="47.25641" lon="-2.33056">
        <ele>59</ele>
        <time>2019-09-22T07:11:02Z</time>
      </trkpt>
      <trkpt lat="47.25648" lon="-2.33067">
        <ele>59</ele>
        <time>2019-09-22T07:11:04Z</time>
      </trkpt>
      <trkpt lat="47.2565" lon="-2.33074">
        <ele>59</ele>
        <time>2019-09-22T07:11:05Z</time>
      </trkpt>
      <trkpt lat="47.25652" lon="-2.33081">
        <ele>59</ele>
        <time>2019-09-22T07:11:06Z</time>
      </trkpt>
      <trkpt lat="47.25655" lon="-2.33089">
        <ele>58</ele>
        <time>2019-09-22T07:11:07Z</time>
      </trkpt>
      <trkpt lat="47.25659" lon="-2.33095">
        <ele>59</ele>
        <time>2019-09-22T07:11:08Z</time>
      </trkpt>
      <trkpt lat="47.25662" lon="-2.33101">
        <ele>58</ele>
        <time>2019-09-22T07:11:09Z</time>
      </trkpt>
      <trkpt lat="47.25671" lon="-2.33122">
        <ele>59</ele>
        <time>2019-09-22T07:11:12Z</time>
      </trkpt>
      <trkpt lat="47.25674" lon="-2.33129">
        <ele>58</ele>
        <time>2019-09-22T07:11:13Z</time>
      </trkpt>
      <trkpt lat="47.25676" lon="-2.33137">
        <ele>59</ele>
        <time>2019-09-22T07:11:14Z</time>
      </trkpt>
      <trkpt lat="47.25679" lon="-2.33144">
        <ele>58</ele>
        <time>2019-09-22T07:11:15Z</time>
      </trkpt>
      <trkpt lat="47.25683" lon="-2.33151">
        <ele>58</ele>
        <time>2019-09-22T07:11:16Z</time>
      </trkpt>
      <trkpt lat="47.25692" lon="-2.33173">
        <ele>58</ele>
        <time>2019-09-22T07:11:18Z</time>
      </trkpt>
      <trkpt lat="47.25695" lon="-2.33181">
        <ele>57</ele>
        <time>2019-09-22T07:11:20Z</time>
      </trkpt>
      <trkpt lat="47.25698" lon="-2.33189">
        <ele>57</ele>
        <time>2019-09-22T07:11:21Z</time>
      </trkpt>
      <trkpt lat="47.25701" lon="-2.33196">
        <ele>57</ele>
        <time>2019-09-22T07:11:22Z</time>
      </trkpt>
      <trkpt lat="47.25704" lon="-2.33204">
        <ele>57</ele>
        <time>2019-09-22T07:11:23Z</time>
      </trkpt>
      <trkpt lat="47.2571" lon="-2.33219">
        <ele>57</ele>
        <time>2019-09-22T07:11:24Z</time>
      </trkpt>
      <trkpt lat="47.25713" lon="-2.33227">
        <ele>57</ele>
        <time>2019-09-22T07:11:25Z</time>
      </trkpt>
      <trkpt lat="47.25715" lon="-2.33235">
        <ele>57</ele>
        <time>2019-09-22T07:11:27Z</time>
      </trkpt>
      <trkpt lat="47.25718" lon="-2.33243">
        <ele>57</ele>
        <time>2019-09-22T07:11:28Z</time>
      </trkpt>
      <trkpt lat="47.2572" lon="-2.33251">
        <ele>57</ele>
        <time>2019-09-22T07:11:29Z</time>
      </trkpt>
      <trkpt lat="47.25722" lon="-2.33259">
        <ele>57</ele>
        <time>2019-09-22T07:11:30Z</time>
      </trkpt>
      <trkpt lat="47.25727" lon="-2.33275">
        <ele>56</ele>
        <time>2019-09-22T07:11:31Z</time>
      </trkpt>
      <trkpt lat="47.25729" lon="-2.33282">
        <ele>56</ele>
        <time>2019-09-22T07:11:32Z</time>
      </trkpt>
      <trkpt lat="47.25732" lon="-2.3329">
        <ele>56</ele>
        <time>2019-09-22T07:11:33Z</time>
      </trkpt>
      <trkpt lat="47.25736" lon="-2.33296">
        <ele>55</ele>
        <time>2019-09-22T07:11:35Z</time>
      </trkpt>
      <trkpt lat="47.2574" lon="-2.33303">
        <ele>55</ele>
        <time>2019-09-22T07:11:36Z</time>
      </trkpt>
      <trkpt lat="47.25744" lon="-2.33309">
        <ele>55</ele>
        <time>2019-09-22T07:11:37Z</time>
      </trkpt>
      <trkpt lat="47.25753" lon="-2.33323">
        <ele>55</ele>
        <time>2019-09-22T07:11:38Z</time>
      </trkpt>
      <trkpt lat="47.25758" lon="-2.3333">
        <ele>55</ele>
        <time>2019-09-22T07:11:39Z</time>
      </trkpt>
      <trkpt lat="47.25771" lon="-2.33353">
        <ele>54</ele>
        <time>2019-09-22T07:11:42Z</time>
      </trkpt>
      <trkpt lat="47.25773" lon="-2.33362">
        <ele>54</ele>
        <time>2019-09-22T07:11:43Z</time>
      </trkpt>
      <trkpt lat="47.25775" lon="-2.33371">
        <ele>54</ele>
        <time>2019-09-22T07:11:44Z</time>
      </trkpt>
      <trkpt lat="47.25778" lon="-2.33388">
        <ele>54</ele>
        <time>2019-09-22T07:11:46Z</time>
      </trkpt>
      <trkpt lat="47.2578" lon="-2.33396">
        <ele>54</ele>
        <time>2019-09-22T07:11:47Z</time>
      </trkpt>
      <trkpt lat="47.25782" lon="-2.33404">
        <ele>55</ele>
        <time>2019-09-22T07:11:48Z</time>
      </trkpt>
      <trkpt lat="47.25783" lon="-2.33413">
        <ele>55</ele>
        <time>2019-09-22T07:11:50Z</time>
      </trkpt>
      <trkpt lat="47.25785" lon="-2.33421">
        <ele>55</ele>
        <time>2019-09-22T07:11:51Z</time>
      </trkpt>
      <trkpt lat="47.25787" lon="-2.33437">
        <ele>55</ele>
        <time>2019-09-22T07:11:52Z</time>
      </trkpt>
      <trkpt lat="47.2579" lon="-2.33444">
        <ele>54</ele>
        <time>2019-09-22T07:11:53Z</time>
      </trkpt>
      <trkpt lat="47.25796" lon="-2.33468">
        <ele>54</ele>
        <time>2019-09-22T07:11:56Z</time>
      </trkpt>
      <trkpt lat="47.25797" lon="-2.33476">
        <ele>55</ele>
        <time>2019-09-22T07:11:57Z</time>
      </trkpt>
      <trkpt lat="47.25799" lon="-2.33484">
        <ele>55</ele>
        <time>2019-09-22T07:11:58Z</time>
      </trkpt>
      <trkpt lat="47.25801" lon="-2.33492">
        <ele>55</ele>
        <time>2019-09-22T07:11:59Z</time>
      </trkpt>
      <trkpt lat="47.25802" lon="-2.335">
        <ele>55</ele>
        <time>2019-09-22T07:12:00Z</time>
      </trkpt>
      <trkpt lat="47.25803" lon="-2.33508">
        <ele>55</ele>
        <time>2019-09-22T07:12:01Z</time>
      </trkpt>
      <trkpt lat="47.25805" lon="-2.33516">
        <ele>55</ele>
        <time>2019-09-22T07:12:02Z</time>
      </trkpt>
      <trkpt lat="47.25806" lon="-2.33524">
        <ele>55</ele>
        <time>2019-09-22T07:12:03Z</time>
      </trkpt>
      <trkpt lat="47.25808" lon="-2.33532">
        <ele>55</ele>
        <time>2019-09-22T07:12:04Z</time>
      </trkpt>
      <trkpt lat="47.25809" lon="-2.33539">
        <ele>55</ele>
        <time>2019-09-22T07:12:05Z</time>
      </trkpt>
      <trkpt lat="47.25813" lon="-2.33558">
        <ele>54</ele>
        <time>2019-09-22T07:12:08Z</time>
      </trkpt>
      <trkpt lat="47.25816" lon="-2.33566">
        <ele>55</ele>
        <time>2019-09-22T07:12:10Z</time>
      </trkpt>
      <trkpt lat="47.25821" lon="-2.33569">
        <ele>55</ele>
        <time>2019-09-22T07:12:12Z</time>
      </trkpt>
      <trkpt lat="47.25828" lon="-2.3357">
        <ele>55</ele>
        <time>2019-09-22T07:12:14Z</time>
      </trkpt>
      <trkpt lat="47.25832" lon="-2.33571">
        <ele>55</ele>
        <time>2019-09-22T07:12:15Z</time>
      </trkpt>
      <trkpt lat="47.25845" lon="-2.3357">
        <ele>55</ele>
        <time>2019-09-22T07:12:18Z</time>
      </trkpt>
      <trkpt lat="47.25849" lon="-2.33569">
        <ele>55</ele>
        <time>2019-09-22T07:12:19Z</time>
      </trkpt>
      <trkpt lat="47.25854" lon="-2.33569">
        <ele>55</ele>
        <time>2019-09-22T07:12:20Z</time>
      </trkpt>
      <trkpt lat="47.2586" lon="-2.33569">
        <ele>55</ele>
        <time>2019-09-22T07:12:21Z</time>
      </trkpt>
      <trkpt lat="47.25865" lon="-2.33568">
        <ele>55</ele>
        <time>2019-09-22T07:12:22Z</time>
      </trkpt>
      <trkpt lat="47.25891" lon="-2.3356">
        <ele>55</ele>
        <time>2019-09-22T07:12:27Z</time>
      </trkpt>
      <trkpt lat="47.25906" lon="-2.33548">
        <ele>56</ele>
        <time>2019-09-22T07:12:30Z</time>
      </trkpt>
      <trkpt lat="47.25911" lon="-2.33543">
        <ele>55</ele>
        <time>2019-09-22T07:12:31Z</time>
      </trkpt>
      <trkpt lat="47.25921" lon="-2.33536">
        <ele>55</ele>
        <time>2019-09-22T07:12:33Z</time>
      </trkpt>
      <trkpt lat="47.25926" lon="-2.33531">
        <ele>55</ele>
        <time>2019-09-22T07:12:34Z</time>
      </trkpt>
      <trkpt lat="47.25931" lon="-2.33526">
        <ele>55</ele>
        <time>2019-09-22T07:12:35Z</time>
      </trkpt>
      <trkpt lat="47.25937" lon="-2.33522">
        <ele>55</ele>
        <time>2019-09-22T07:12:36Z</time>
      </trkpt>
      <trkpt lat="47.25942" lon="-2.33518">
        <ele>56</ele>
        <time>2019-09-22T07:12:37Z</time>
      </trkpt>
      <trkpt lat="47.25951" lon="-2.3351">
        <ele>56</ele>
        <time>2019-09-22T07:12:39Z</time>
      </trkpt>
      <trkpt lat="47.25956" lon="-2.33506">
        <ele>56</ele>
        <time>2019-09-22T07:12:40Z</time>
      </trkpt>
      <trkpt lat="47.2596" lon="-2.33501">
        <ele>56</ele>
        <time>2019-09-22T07:12:41Z</time>
      </trkpt>
      <trkpt lat="47.2597" lon="-2.33495">
        <ele>55</ele>
        <time>2019-09-22T07:12:43Z</time>
      </trkpt>
      <trkpt lat="47.25979" lon="-2.33495">
        <ele>56</ele>
        <time>2019-09-22T07:12:45Z</time>
      </trkpt>
      <trkpt lat="47.25983" lon="-2.33496">
        <ele>56</ele>
        <time>2019-09-22T07:12:46Z</time>
      </trkpt>
      <trkpt lat="47.25993" lon="-2.33494">
        <ele>56</ele>
        <time>2019-09-22T07:12:48Z</time>
      </trkpt>
      <trkpt lat="47.25999" lon="-2.33494">
        <ele>56</ele>
        <time>2019-09-22T07:12:49Z</time>
      </trkpt>
      <trkpt lat="47.2601" lon="-2.3349">
        <ele>55</ele>
        <time>2019-09-22T07:12:51Z</time>
      </trkpt>
      <trkpt lat="47.26015" lon="-2.33489">
        <ele>55</ele>
        <time>2019-09-22T07:12:52Z</time>
      </trkpt>
      <trkpt lat="47.2602" lon="-2.33488">
        <ele>55</ele>
        <time>2019-09-22T07:12:53Z</time>
      </trkpt>
      <trkpt lat="47.26032" lon="-2.33478">
        <ele>55</ele>
        <time>2019-09-22T07:12:56Z</time>
      </trkpt>
      <trkpt lat="47.26038" lon="-2.33467">
        <ele>55</ele>
        <time>2019-09-22T07:12:58Z</time>
      </trkpt>
      <trkpt lat="47.26041" lon="-2.33461">
        <ele>54</ele>
        <time>2019-09-22T07:12:59Z</time>
      </trkpt>
      <trkpt lat="47.26047" lon="-2.33452">
        <ele>54</ele>
        <time>2019-09-22T07:13:01Z</time>
      </trkpt>
      <trkpt lat="47.26051" lon="-2.33447">
        <ele>54</ele>
        <time>2019-09-22T07:13:02Z</time>
      </trkpt>
      <trkpt lat="47.26055" lon="-2.33442">
        <ele>54</ele>
        <time>2019-09-22T07:13:03Z</time>
      </trkpt>
      <trkpt lat="47.26062" lon="-2.33432">
        <ele>54</ele>
        <time>2019-09-22T07:13:05Z</time>
      </trkpt>
      <trkpt lat="47.26064" lon="-2.33425">
        <ele>54</ele>
        <time>2019-09-22T07:13:06Z</time>
      </trkpt>
      <trkpt lat="47.26071" lon="-2.33411">
        <ele>54</ele>
        <time>2019-09-22T07:13:08Z</time>
      </trkpt>
      <trkpt lat="47.26076" lon="-2.33406">
        <ele>53</ele>
        <time>2019-09-22T07:13:10Z</time>
      </trkpt>
      <trkpt lat="47.26081" lon="-2.33403">
        <ele>53</ele>
        <time>2019-09-22T07:13:11Z</time>
      </trkpt>
      <trkpt lat="47.26104" lon="-2.3341">
        <ele>53</ele>
        <time>2019-09-22T07:13:14Z</time>
      </trkpt>
      <trkpt lat="47.26108" lon="-2.33415">
        <ele>53</ele>
        <time>2019-09-22T07:13:15Z</time>
      </trkpt>
      <trkpt lat="47.26112" lon="-2.33421">
        <ele>52</ele>
        <time>2019-09-22T07:13:16Z</time>
      </trkpt>
      <trkpt lat="47.26116" lon="-2.33426">
        <ele>52</ele>
        <time>2019-09-22T07:13:17Z</time>
      </trkpt>
      <trkpt lat="47.2612" lon="-2.33431">
        <ele>52</ele>
        <time>2019-09-22T07:13:18Z</time>
      </trkpt>
      <trkpt lat="47.26125" lon="-2.33435">
        <ele>52</ele>
        <time>2019-09-22T07:13:19Z</time>
      </trkpt>
      <trkpt lat="47.2613" lon="-2.33437">
        <ele>51</ele>
        <time>2019-09-22T07:13:20Z</time>
      </trkpt>
      <trkpt lat="47.26136" lon="-2.33438">
        <ele>51</ele>
        <time>2019-09-22T07:13:21Z</time>
      </trkpt>
      <trkpt lat="47.26142" lon="-2.3344">
        <ele>51</ele>
        <time>2019-09-22T07:13:22Z</time>
      </trkpt>
      <trkpt lat="47.26148" lon="-2.3344">
        <ele>51</ele>
        <time>2019-09-22T07:13:23Z</time>
      </trkpt>
      <trkpt lat="47.26153" lon="-2.33442">
        <ele>51</ele>
        <time>2019-09-22T07:13:24Z</time>
      </trkpt>
      <trkpt lat="47.26171" lon="-2.33445">
        <ele>50</ele>
        <time>2019-09-22T07:13:27Z</time>
      </trkpt>
      <trkpt lat="47.26177" lon="-2.33446">
        <ele>51</ele>
        <time>2019-09-22T07:13:28Z</time>
      </trkpt>
      <trkpt lat="47.26183" lon="-2.33446">
        <ele>50</ele>
        <time>2019-09-22T07:13:29Z</time>
      </trkpt>
      <trkpt lat="47.26194" lon="-2.33447">
        <ele>50</ele>
        <time>2019-09-22T07:13:31Z</time>
      </trkpt>
      <trkpt lat="47.26205" lon="-2.33445">
        <ele>50</ele>
        <time>2019-09-22T07:13:33Z</time>
      </trkpt>
      <trkpt lat="47.26211" lon="-2.33444">
        <ele>50</ele>
        <time>2019-09-22T07:13:34Z</time>
      </trkpt>
      <trkpt lat="47.26217" lon="-2.33442">
        <ele>49</ele>
        <time>2019-09-22T07:13:35Z</time>
      </trkpt>
      <trkpt lat="47.26223" lon="-2.3344">
        <ele>49</ele>
        <time>2019-09-22T07:13:36Z</time>
      </trkpt>
      <trkpt lat="47.26229" lon="-2.33439">
        <ele>49</ele>
        <time>2019-09-22T07:13:37Z</time>
      </trkpt>
      <trkpt lat="47.26234" lon="-2.33438">
        <ele>49</ele>
        <time>2019-09-22T07:13:38Z</time>
      </trkpt>
      <trkpt lat="47.2624" lon="-2.33437">
        <ele>49</ele>
        <time>2019-09-22T07:13:39Z</time>
      </trkpt>
      <trkpt lat="47.26245" lon="-2.33436">
        <ele>49</ele>
        <time>2019-09-22T07:13:40Z</time>
      </trkpt>
      <trkpt lat="47.2625" lon="-2.33435">
        <ele>49</ele>
        <time>2019-09-22T07:13:41Z</time>
      </trkpt>
      <trkpt lat="47.26256" lon="-2.33435">
        <ele>49</ele>
        <time>2019-09-22T07:13:42Z</time>
      </trkpt>
      <trkpt lat="47.26272" lon="-2.33432">
        <ele>49</ele>
        <time>2019-09-22T07:13:45Z</time>
      </trkpt>
      <trkpt lat="47.26277" lon="-2.33431">
        <ele>49</ele>
        <time>2019-09-22T07:13:46Z</time>
      </trkpt>
      <trkpt lat="47.26283" lon="-2.3343">
        <ele>50</ele>
        <time>2019-09-22T07:13:47Z</time>
      </trkpt>
      <trkpt lat="47.26288" lon="-2.33429">
        <ele>50</ele>
        <time>2019-09-22T07:13:48Z</time>
      </trkpt>
      <trkpt lat="47.26311" lon="-2.33426">
        <ele>50</ele>
        <time>2019-09-22T07:13:53Z</time>
      </trkpt>
      <trkpt lat="47.26316" lon="-2.33425">
        <ele>50</ele>
        <time>2019-09-22T07:13:54Z</time>
      </trkpt>
      <trkpt lat="47.26322" lon="-2.33423">
        <ele>50</ele>
        <time>2019-09-22T07:13:55Z</time>
      </trkpt>
      <trkpt lat="47.26335" lon="-2.33418">
        <ele>49</ele>
        <time>2019-09-22T07:13:56Z</time>
      </trkpt>
      <trkpt lat="47.2634" lon="-2.33416">
        <ele>50</ele>
        <time>2019-09-22T07:13:57Z</time>
      </trkpt>
      <trkpt lat="47.26346" lon="-2.33415">
        <ele>49</ele>
        <time>2019-09-22T07:13:58Z</time>
      </trkpt>
      <trkpt lat="47.26352" lon="-2.33413">
        <ele>49</ele>
        <time>2019-09-22T07:13:59Z</time>
      </trkpt>
      <trkpt lat="47.26358" lon="-2.33411">
        <ele>49</ele>
        <time>2019-09-22T07:14:00Z</time>
      </trkpt>
      <trkpt lat="47.26363" lon="-2.33408">
        <ele>50</ele>
        <time>2019-09-22T07:14:01Z</time>
      </trkpt>
      <trkpt lat="47.26369" lon="-2.33407">
        <ele>50</ele>
        <time>2019-09-22T07:14:03Z</time>
      </trkpt>
      <trkpt lat="47.26375" lon="-2.33405">
        <ele>50</ele>
        <time>2019-09-22T07:14:04Z</time>
      </trkpt>
      <trkpt lat="47.26386" lon="-2.334">
        <ele>50</ele>
        <time>2019-09-22T07:14:05Z</time>
      </trkpt>
      <trkpt lat="47.26391" lon="-2.33397">
        <ele>50</ele>
        <time>2019-09-22T07:14:06Z</time>
      </trkpt>
      <trkpt lat="47.26397" lon="-2.33395">
        <ele>50</ele>
        <time>2019-09-22T07:14:07Z</time>
      </trkpt>
      <trkpt lat="47.26402" lon="-2.33392">
        <ele>51</ele>
        <time>2019-09-22T07:14:08Z</time>
      </trkpt>
      <trkpt lat="47.26408" lon="-2.3339">
        <ele>51</ele>
        <time>2019-09-22T07:14:09Z</time>
      </trkpt>
      <trkpt lat="47.26429" lon="-2.33378">
        <ele>51</ele>
        <time>2019-09-22T07:14:13Z</time>
      </trkpt>
      <trkpt lat="47.26434" lon="-2.33375">
        <ele>51</ele>
        <time>2019-09-22T07:14:14Z</time>
      </trkpt>
      <trkpt lat="47.26439" lon="-2.33371">
        <ele>51</ele>
        <time>2019-09-22T07:14:15Z</time>
      </trkpt>
      <trkpt lat="47.26443" lon="-2.33368">
        <ele>51</ele>
        <time>2019-09-22T07:14:16Z</time>
      </trkpt>
      <trkpt lat="47.26448" lon="-2.33365">
        <ele>50</ele>
        <time>2019-09-22T07:14:17Z</time>
      </trkpt>
      <trkpt lat="47.26452" lon="-2.33362">
        <ele>50</ele>
        <time>2019-09-22T07:14:18Z</time>
      </trkpt>
      <trkpt lat="47.26457" lon="-2.33358">
        <ele>50</ele>
        <time>2019-09-22T07:14:19Z</time>
      </trkpt>
      <trkpt lat="47.26462" lon="-2.33354">
        <ele>50</ele>
        <time>2019-09-22T07:14:20Z</time>
      </trkpt>
      <trkpt lat="47.26466" lon="-2.33351">
        <ele>50</ele>
        <time>2019-09-22T07:14:21Z</time>
      </trkpt>
      <trkpt lat="47.26471" lon="-2.33347">
        <ele>50</ele>
        <time>2019-09-22T07:14:22Z</time>
      </trkpt>
      <trkpt lat="47.26475" lon="-2.33344">
        <ele>49</ele>
        <time>2019-09-22T07:14:23Z</time>
      </trkpt>
      <trkpt lat="47.26479" lon="-2.33339">
        <ele>50</ele>
        <time>2019-09-22T07:14:24Z</time>
      </trkpt>
      <trkpt lat="47.26482" lon="-2.33335">
        <ele>50</ele>
        <time>2019-09-22T07:14:25Z</time>
      </trkpt>
      <trkpt lat="47.26486" lon="-2.33329">
        <ele>50</ele>
        <time>2019-09-22T07:14:26Z</time>
      </trkpt>
      <trkpt lat="47.26488" lon="-2.33323">
        <ele>50</ele>
        <time>2019-09-22T07:14:27Z</time>
      </trkpt>
      <trkpt lat="47.2649" lon="-2.33317">
        <ele>50</ele>
        <time>2019-09-22T07:14:28Z</time>
      </trkpt>
      <trkpt lat="47.26492" lon="-2.3331">
        <ele>50</ele>
        <time>2019-09-22T07:14:29Z</time>
      </trkpt>
      <trkpt lat="47.26494" lon="-2.33305">
        <ele>50</ele>
        <time>2019-09-22T07:14:30Z</time>
      </trkpt>
      <trkpt lat="47.26507" lon="-2.33294">
        <ele>51</ele>
        <time>2019-09-22T07:14:33Z</time>
      </trkpt>
      <trkpt lat="47.26512" lon="-2.33295">
        <ele>51</ele>
        <time>2019-09-22T07:14:34Z</time>
      </trkpt>
      <trkpt lat="47.26516" lon="-2.33296">
        <ele>51</ele>
        <time>2019-09-22T07:14:35Z</time>
      </trkpt>
      <trkpt lat="47.26524" lon="-2.33292">
        <ele>50</ele>
        <time>2019-09-22T07:14:37Z</time>
      </trkpt>
      <trkpt lat="47.26532" lon="-2.33292">
        <ele>51</ele>
        <time>2019-09-22T07:14:40Z</time>
      </trkpt>
      <trkpt lat="47.26535" lon="-2.33298">
        <ele>51</ele>
        <time>2019-09-22T07:14:42Z</time>
      </trkpt>
      <trkpt lat="47.26539" lon="-2.333">
        <ele>52</ele>
        <time>2019-09-22T07:14:44Z</time>
      </trkpt>
      <trkpt lat="47.26546" lon="-2.33293">
        <ele>52</ele>
        <time>2019-09-22T07:14:47Z</time>
      </trkpt>
      <trkpt lat="47.26548" lon="-2.33291">
        <ele>52</ele>
        <time>2019-09-22T07:14:48Z</time>
      </trkpt>
      <trkpt lat="47.26551" lon="-2.33288">
        <ele>52</ele>
        <time>2019-09-22T07:14:49Z</time>
      </trkpt>
      <trkpt lat="47.26554" lon="-2.33285">
        <ele>52</ele>
        <time>2019-09-22T07:14:50Z</time>
      </trkpt>
      <trkpt lat="47.26557" lon="-2.33281">
        <ele>52</ele>
        <time>2019-09-22T07:14:51Z</time>
      </trkpt>
      <trkpt lat="47.2656" lon="-2.33277">
        <ele>53</ele>
        <time>2019-09-22T07:14:52Z</time>
      </trkpt>
      <trkpt lat="47.26568" lon="-2.3327">
        <ele>53</ele>
        <time>2019-09-22T07:14:54Z</time>
      </trkpt>
      <trkpt lat="47.26572" lon="-2.33266">
        <ele>53</ele>
        <time>2019-09-22T07:14:55Z</time>
      </trkpt>
      <trkpt lat="47.26579" lon="-2.33258">
        <ele>53</ele>
        <time>2019-09-22T07:14:57Z</time>
      </trkpt>
      <trkpt lat="47.26586" lon="-2.33252">
        <ele>53</ele>
        <time>2019-09-22T07:14:59Z</time>
      </trkpt>
      <trkpt lat="47.2659" lon="-2.33248">
        <ele>53</ele>
        <time>2019-09-22T07:15:00Z</time>
      </trkpt>
      <trkpt lat="47.26594" lon="-2.33245">
        <ele>53</ele>
        <time>2019-09-22T07:15:01Z</time>
      </trkpt>
      <trkpt lat="47.26598" lon="-2.33241">
        <ele>53</ele>
        <time>2019-09-22T07:15:02Z</time>
      </trkpt>
      <trkpt lat="47.26602" lon="-2.33237">
        <ele>53</ele>
        <time>2019-09-22T07:15:03Z</time>
      </trkpt>
      <trkpt lat="47.26605" lon="-2.33233">
        <ele>52</ele>
        <time>2019-09-22T07:15:04Z</time>
      </trkpt>
      <trkpt lat="47.26609" lon="-2.33229">
        <ele>53</ele>
        <time>2019-09-22T07:15:05Z</time>
      </trkpt>
      <trkpt lat="47.26613" lon="-2.33225">
        <ele>53</ele>
        <time>2019-09-22T07:15:06Z</time>
      </trkpt>
      <trkpt lat="47.26617" lon="-2.33221">
        <ele>53</ele>
        <time>2019-09-22T07:15:07Z</time>
      </trkpt>
      <trkpt lat="47.26621" lon="-2.33216">
        <ele>53</ele>
        <time>2019-09-22T07:15:08Z</time>
      </trkpt>
      <trkpt lat="47.26625" lon="-2.33212">
        <ele>53</ele>
        <time>2019-09-22T07:15:09Z</time>
      </trkpt>
      <trkpt lat="47.26629" lon="-2.33208">
        <ele>53</ele>
        <time>2019-09-22T07:15:10Z</time>
      </trkpt>
      <trkpt lat="47.26633" lon="-2.33204">
        <ele>53</ele>
        <time>2019-09-22T07:15:11Z</time>
      </trkpt>
      <trkpt lat="47.26637" lon="-2.332">
        <ele>53</ele>
        <time>2019-09-22T07:15:12Z</time>
      </trkpt>
      <trkpt lat="47.26653" lon="-2.33184">
        <ele>53</ele>
        <time>2019-09-22T07:15:16Z</time>
      </trkpt>
      <trkpt lat="47.26656" lon="-2.3318">
        <ele>53</ele>
        <time>2019-09-22T07:15:18Z</time>
      </trkpt>
      <trkpt lat="47.26662" lon="-2.33173">
        <ele>53</ele>
        <time>2019-09-22T07:15:20Z</time>
      </trkpt>
      <trkpt lat="47.26667" lon="-2.33168">
        <ele>53</ele>
        <time>2019-09-22T07:15:22Z</time>
      </trkpt>
      <trkpt lat="47.2667" lon="-2.33166">
        <ele>53</ele>
        <time>2019-09-22T07:15:23Z</time>
      </trkpt>
      <trkpt lat="47.26673" lon="-2.33164">
        <ele>54</ele>
        <time>2019-09-22T07:15:24Z</time>
      </trkpt>
      <trkpt lat="47.26676" lon="-2.33161">
        <ele>54</ele>
        <time>2019-09-22T07:15:25Z</time>
      </trkpt>
      <trkpt lat="47.26682" lon="-2.33154">
        <ele>54</ele>
        <time>2019-09-22T07:15:27Z</time>
      </trkpt>
      <trkpt lat="47.26689" lon="-2.33147">
        <ele>54</ele>
        <time>2019-09-22T07:15:29Z</time>
      </trkpt>
      <trkpt lat="47.26692" lon="-2.33144">
        <ele>54</ele>
        <time>2019-09-22T07:15:30Z</time>
      </trkpt>
      <trkpt lat="47.26695" lon="-2.3314">
        <ele>54</ele>
        <time>2019-09-22T07:15:31Z</time>
      </trkpt>
      <trkpt lat="47.26698" lon="-2.33136">
        <ele>54</ele>
        <time>2019-09-22T07:15:32Z</time>
      </trkpt>
      <trkpt lat="47.26706" lon="-2.33129">
        <ele>54</ele>
        <time>2019-09-22T07:15:34Z</time>
      </trkpt>
      <trkpt lat="47.2671" lon="-2.33125">
        <ele>54</ele>
        <time>2019-09-22T07:15:35Z</time>
      </trkpt>
      <trkpt lat="47.26713" lon="-2.33122">
        <ele>54</ele>
        <time>2019-09-22T07:15:36Z</time>
      </trkpt>
      <trkpt lat="47.26716" lon="-2.33119">
        <ele>54</ele>
        <time>2019-09-22T07:15:37Z</time>
      </trkpt>
      <trkpt lat="47.2672" lon="-2.33116">
        <ele>53</ele>
        <time>2019-09-22T07:15:38Z</time>
      </trkpt>
      <trkpt lat="47.26729" lon="-2.33107">
        <ele>53</ele>
        <time>2019-09-22T07:15:41Z</time>
      </trkpt>
      <trkpt lat="47.26735" lon="-2.33101">
        <ele>54</ele>
        <time>2019-09-22T07:15:43Z</time>
      </trkpt>
      <trkpt lat="47.26738" lon="-2.33098">
        <ele>53</ele>
        <time>2019-09-22T07:15:44Z</time>
      </trkpt>
      <trkpt lat="47.26759" lon="-2.33101">
        <ele>54</ele>
        <time>2019-09-22T07:15:49Z</time>
      </trkpt>
      <trkpt lat="47.26762" lon="-2.33106">
        <ele>53</ele>
        <time>2019-09-22T07:15:50Z</time>
      </trkpt>
      <trkpt lat="47.26765" lon="-2.3312">
        <ele>54</ele>
        <time>2019-09-22T07:15:52Z</time>
      </trkpt>
      <trkpt lat="47.26764" lon="-2.33127">
        <ele>53</ele>
        <time>2019-09-22T07:15:53Z</time>
      </trkpt>
      <trkpt lat="47.26763" lon="-2.33134">
        <ele>53</ele>
        <time>2019-09-22T07:15:54Z</time>
      </trkpt>
      <trkpt lat="47.26761" lon="-2.33142">
        <ele>53</ele>
        <time>2019-09-22T07:15:55Z</time>
      </trkpt>
      <trkpt lat="47.2676" lon="-2.33149">
        <ele>53</ele>
        <time>2019-09-22T07:15:56Z</time>
      </trkpt>
      <trkpt lat="47.26758" lon="-2.33156">
        <ele>53</ele>
        <time>2019-09-22T07:15:57Z</time>
      </trkpt>
      <trkpt lat="47.26756" lon="-2.33163">
        <ele>52</ele>
        <time>2019-09-22T07:15:58Z</time>
      </trkpt>
      <trkpt lat="47.26754" lon="-2.3317">
        <ele>53</ele>
        <time>2019-09-22T07:15:59Z</time>
      </trkpt>
      <trkpt lat="47.26753" lon="-2.33176">
        <ele>53</ele>
        <time>2019-09-22T07:16:00Z</time>
      </trkpt>
      <trkpt lat="47.26749" lon="-2.33189">
        <ele>53</ele>
        <time>2019-09-22T07:16:02Z</time>
      </trkpt>
      <trkpt lat="47.26744" lon="-2.33201">
        <ele>53</ele>
        <time>2019-09-22T07:16:04Z</time>
      </trkpt>
      <trkpt lat="47.26743" lon="-2.33207">
        <ele>53</ele>
        <time>2019-09-22T07:16:06Z</time>
      </trkpt>
      <trkpt lat="47.26741" lon="-2.33214">
        <ele>53</ele>
        <time>2019-09-22T07:16:07Z</time>
      </trkpt>
      <trkpt lat="47.26738" lon="-2.33222">
        <ele>54</ele>
        <time>2019-09-22T07:16:08Z</time>
      </trkpt>
      <trkpt lat="47.26736" lon="-2.3323">
        <ele>54</ele>
        <time>2019-09-22T07:16:09Z</time>
      </trkpt>
      <trkpt lat="47.26734" lon="-2.33237">
        <ele>54</ele>
        <time>2019-09-22T07:16:10Z</time>
      </trkpt>
      <trkpt lat="47.26729" lon="-2.33259">
        <ele>53</ele>
        <time>2019-09-22T07:16:12Z</time>
      </trkpt>
      <trkpt lat="47.26729" lon="-2.33267">
        <ele>53</ele>
        <time>2019-09-22T07:16:13Z</time>
      </trkpt>
      <trkpt lat="47.2673" lon="-2.33283">
        <ele>53</ele>
        <time>2019-09-22T07:16:15Z</time>
      </trkpt>
      <trkpt lat="47.26732" lon="-2.33292">
        <ele>53</ele>
        <time>2019-09-22T07:16:16Z</time>
      </trkpt>
      <trkpt lat="47.26735" lon="-2.333">
        <ele>53</ele>
        <time>2019-09-22T07:16:17Z</time>
      </trkpt>
      <trkpt lat="47.26737" lon="-2.33308">
        <ele>53</ele>
        <time>2019-09-22T07:16:18Z</time>
      </trkpt>
      <trkpt lat="47.26742" lon="-2.33325">
        <ele>53</ele>
        <time>2019-09-22T07:16:20Z</time>
      </trkpt>
      <trkpt lat="47.26744" lon="-2.33333">
        <ele>53</ele>
        <time>2019-09-22T07:16:21Z</time>
      </trkpt>
      <trkpt lat="47.26746" lon="-2.33341">
        <ele>53</ele>
        <time>2019-09-22T07:16:22Z</time>
      </trkpt>
      <trkpt lat="47.26748" lon="-2.33349">
        <ele>53</ele>
        <time>2019-09-22T07:16:24Z</time>
      </trkpt>
      <trkpt lat="47.2675" lon="-2.33366">
        <ele>52</ele>
        <time>2019-09-22T07:16:26Z</time>
      </trkpt>
      <trkpt lat="47.2675" lon="-2.33374">
        <ele>52</ele>
        <time>2019-09-22T07:16:27Z</time>
      </trkpt>
      <trkpt lat="47.26752" lon="-2.33382">
        <ele>52</ele>
        <time>2019-09-22T07:16:28Z</time>
      </trkpt>
      <trkpt lat="47.26753" lon="-2.33399">
        <ele>52</ele>
        <time>2019-09-22T07:16:30Z</time>
      </trkpt>
      <trkpt lat="47.26754" lon="-2.33407">
        <ele>52</ele>
        <time>2019-09-22T07:16:31Z</time>
      </trkpt>
      <trkpt lat="47.26755" lon="-2.33415">
        <ele>52</ele>
        <time>2019-09-22T07:16:32Z</time>
      </trkpt>
      <trkpt lat="47.26755" lon="-2.33423">
        <ele>52</ele>
        <time>2019-09-22T07:16:33Z</time>
      </trkpt>
      <trkpt lat="47.26756" lon="-2.3343">
        <ele>52</ele>
        <time>2019-09-22T07:16:34Z</time>
      </trkpt>
      <trkpt lat="47.26758" lon="-2.33446">
        <ele>52</ele>
        <time>2019-09-22T07:16:36Z</time>
      </trkpt>
      <trkpt lat="47.26758" lon="-2.33454">
        <ele>52</ele>
        <time>2019-09-22T07:16:37Z</time>
      </trkpt>
      <trkpt lat="47.26759" lon="-2.33461">
        <ele>52</ele>
        <time>2019-09-22T07:16:38Z</time>
      </trkpt>
      <trkpt lat="47.26761" lon="-2.33467">
        <ele>52</ele>
        <time>2019-09-22T07:16:39Z</time>
      </trkpt>
      <trkpt lat="47.26762" lon="-2.33474">
        <ele>52</ele>
        <time>2019-09-22T07:16:40Z</time>
      </trkpt>
      <trkpt lat="47.26763" lon="-2.33481">
        <ele>52</ele>
        <time>2019-09-22T07:16:41Z</time>
      </trkpt>
      <trkpt lat="47.26764" lon="-2.33489">
        <ele>52</ele>
        <time>2019-09-22T07:16:42Z</time>
      </trkpt>
      <trkpt lat="47.26766" lon="-2.33496">
        <ele>51</ele>
        <time>2019-09-22T07:16:43Z</time>
      </trkpt>
      <trkpt lat="47.2677" lon="-2.33517">
        <ele>51</ele>
        <time>2019-09-22T07:16:46Z</time>
      </trkpt>
      <trkpt lat="47.26771" lon="-2.33524">
        <ele>50</ele>
        <time>2019-09-22T07:16:47Z</time>
      </trkpt>
      <trkpt lat="47.26772" lon="-2.33531">
        <ele>50</ele>
        <time>2019-09-22T07:16:48Z</time>
      </trkpt>
      <trkpt lat="47.26773" lon="-2.33539">
        <ele>50</ele>
        <time>2019-09-22T07:16:49Z</time>
      </trkpt>
      <trkpt lat="47.26775" lon="-2.33545">
        <ele>50</ele>
        <time>2019-09-22T07:16:50Z</time>
      </trkpt>
      <trkpt lat="47.26776" lon="-2.33551">
        <ele>50</ele>
        <time>2019-09-22T07:16:51Z</time>
      </trkpt>
      <trkpt lat="47.26777" lon="-2.33563">
        <ele>50</ele>
        <time>2019-09-22T07:16:52Z</time>
      </trkpt>
      <trkpt lat="47.26783" lon="-2.33573">
        <ele>50</ele>
        <time>2019-09-22T07:16:55Z</time>
      </trkpt>
      <trkpt lat="47.26793" lon="-2.33573">
        <ele>51</ele>
        <time>2019-09-22T07:16:58Z</time>
      </trkpt>
      <trkpt lat="47.26803" lon="-2.33569">
        <ele>52</ele>
        <time>2019-09-22T07:17:00Z</time>
      </trkpt>
      <trkpt lat="47.26808" lon="-2.33567">
        <ele>52</ele>
        <time>2019-09-22T07:17:01Z</time>
      </trkpt>
      <trkpt lat="47.26813" lon="-2.33566">
        <ele>52</ele>
        <time>2019-09-22T07:17:02Z</time>
      </trkpt>
      <trkpt lat="47.26818" lon="-2.33564">
        <ele>52</ele>
        <time>2019-09-22T07:17:03Z</time>
      </trkpt>
      <trkpt lat="47.26823" lon="-2.33562">
        <ele>53</ele>
        <time>2019-09-22T07:17:04Z</time>
      </trkpt>
      <trkpt lat="47.26828" lon="-2.3356">
        <ele>54</ele>
        <time>2019-09-22T07:17:05Z</time>
      </trkpt>
      <trkpt lat="47.26833" lon="-2.33559">
        <ele>54</ele>
        <time>2019-09-22T07:17:06Z</time>
      </trkpt>
      <trkpt lat="47.26852" lon="-2.33551">
        <ele>54</ele>
        <time>2019-09-22T07:17:11Z</time>
      </trkpt>
      <trkpt lat="47.26857" lon="-2.33546">
        <ele>54</ele>
        <time>2019-09-22T07:17:12Z</time>
      </trkpt>
      <trkpt lat="47.26863" lon="-2.33543">
        <ele>54</ele>
        <time>2019-09-22T07:17:13Z</time>
      </trkpt>
      <trkpt lat="47.26868" lon="-2.3354">
        <ele>54</ele>
        <time>2019-09-22T07:17:14Z</time>
      </trkpt>
      <trkpt lat="47.26874" lon="-2.33538">
        <ele>54</ele>
        <time>2019-09-22T07:17:15Z</time>
      </trkpt>
      <trkpt lat="47.26879" lon="-2.33538">
        <ele>53</ele>
        <time>2019-09-22T07:17:16Z</time>
      </trkpt>
      <trkpt lat="47.26884" lon="-2.33539">
        <ele>53</ele>
        <time>2019-09-22T07:17:17Z</time>
      </trkpt>
      <trkpt lat="47.26895" lon="-2.3355">
        <ele>53</ele>
        <time>2019-09-22T07:17:20Z</time>
      </trkpt>
      <trkpt lat="47.26898" lon="-2.33556">
        <ele>53</ele>
        <time>2019-09-22T07:17:21Z</time>
      </trkpt>
      <trkpt lat="47.26901" lon="-2.33562">
        <ele>53</ele>
        <time>2019-09-22T07:17:22Z</time>
      </trkpt>
      <trkpt lat="47.26906" lon="-2.33574">
        <ele>53</ele>
        <time>2019-09-22T07:17:23Z</time>
      </trkpt>
      <trkpt lat="47.26909" lon="-2.33579">
        <ele>52</ele>
        <time>2019-09-22T07:17:24Z</time>
      </trkpt>
      <trkpt lat="47.26912" lon="-2.33586">
        <ele>52</ele>
        <time>2019-09-22T07:17:25Z</time>
      </trkpt>
      <trkpt lat="47.26914" lon="-2.33592">
        <ele>52</ele>
        <time>2019-09-22T07:17:26Z</time>
      </trkpt>
      <trkpt lat="47.26916" lon="-2.33599">
        <ele>52</ele>
        <time>2019-09-22T07:17:27Z</time>
      </trkpt>
      <trkpt lat="47.26919" lon="-2.33605">
        <ele>52</ele>
        <time>2019-09-22T07:17:28Z</time>
      </trkpt>
      <trkpt lat="47.26921" lon="-2.33611">
        <ele>52</ele>
        <time>2019-09-22T07:17:29Z</time>
      </trkpt>
      <trkpt lat="47.26923" lon="-2.33616">
        <ele>52</ele>
        <time>2019-09-22T07:17:30Z</time>
      </trkpt>
      <trkpt lat="47.26926" lon="-2.33629">
        <ele>52</ele>
        <time>2019-09-22T07:17:32Z</time>
      </trkpt>
      <trkpt lat="47.2693" lon="-2.33651">
        <ele>53</ele>
        <time>2019-09-22T07:17:35Z</time>
      </trkpt>
      <trkpt lat="47.26931" lon="-2.33658">
        <ele>53</ele>
        <time>2019-09-22T07:17:36Z</time>
      </trkpt>
      <trkpt lat="47.26933" lon="-2.33664">
        <ele>53</ele>
        <time>2019-09-22T07:17:38Z</time>
      </trkpt>
      <trkpt lat="47.26933" lon="-2.33671">
        <ele>53</ele>
        <time>2019-09-22T07:17:39Z</time>
      </trkpt>
      <trkpt lat="47.26934" lon="-2.33678">
        <ele>54</ele>
        <time>2019-09-22T07:17:40Z</time>
      </trkpt>
      <trkpt lat="47.26935" lon="-2.33685">
        <ele>54</ele>
        <time>2019-09-22T07:17:41Z</time>
      </trkpt>
      <trkpt lat="47.26938" lon="-2.33705">
        <ele>55</ele>
        <time>2019-09-22T07:17:43Z</time>
      </trkpt>
      <trkpt lat="47.26939" lon="-2.33712">
        <ele>55</ele>
        <time>2019-09-22T07:17:44Z</time>
      </trkpt>
      <trkpt lat="47.26939" lon="-2.33719">
        <ele>55</ele>
        <time>2019-09-22T07:17:45Z</time>
      </trkpt>
      <trkpt lat="47.26939" lon="-2.33727">
        <ele>55</ele>
        <time>2019-09-22T07:17:46Z</time>
      </trkpt>
      <trkpt lat="47.26938" lon="-2.33733">
        <ele>55</ele>
        <time>2019-09-22T07:17:47Z</time>
      </trkpt>
      <trkpt lat="47.26937" lon="-2.33741">
        <ele>55</ele>
        <time>2019-09-22T07:17:48Z</time>
      </trkpt>
      <trkpt lat="47.26935" lon="-2.33748">
        <ele>55</ele>
        <time>2019-09-22T07:17:50Z</time>
      </trkpt>
      <trkpt lat="47.26934" lon="-2.33755">
        <ele>55</ele>
        <time>2019-09-22T07:17:51Z</time>
      </trkpt>
      <trkpt lat="47.26932" lon="-2.33763">
        <ele>55</ele>
        <time>2019-09-22T07:17:52Z</time>
      </trkpt>
      <trkpt lat="47.26931" lon="-2.3377">
        <ele>55</ele>
        <time>2019-09-22T07:17:53Z</time>
      </trkpt>
      <trkpt lat="47.2693" lon="-2.33777">
        <ele>56</ele>
        <time>2019-09-22T07:17:54Z</time>
      </trkpt>
      <trkpt lat="47.2693" lon="-2.33784">
        <ele>56</ele>
        <time>2019-09-22T07:17:55Z</time>
      </trkpt>
      <trkpt lat="47.2693" lon="-2.3379">
        <ele>56</ele>
        <time>2019-09-22T07:17:56Z</time>
      </trkpt>
      <trkpt lat="47.26932" lon="-2.33797">
        <ele>56</ele>
        <time>2019-09-22T07:17:57Z</time>
      </trkpt>
      <trkpt lat="47.26934" lon="-2.33803">
        <ele>56</ele>
        <time>2019-09-22T07:17:58Z</time>
      </trkpt>
      <trkpt lat="47.26941" lon="-2.33812">
        <ele>56</ele>
        <time>2019-09-22T07:18:00Z</time>
      </trkpt>
      <trkpt lat="47.26945" lon="-2.33816">
        <ele>57</ele>
        <time>2019-09-22T07:18:01Z</time>
      </trkpt>
      <trkpt lat="47.26949" lon="-2.3382">
        <ele>57</ele>
        <time>2019-09-22T07:18:02Z</time>
      </trkpt>
      <trkpt lat="47.26958" lon="-2.33827">
        <ele>57</ele>
        <time>2019-09-22T07:18:04Z</time>
      </trkpt>
      <trkpt lat="47.26962" lon="-2.3383">
        <ele>57</ele>
        <time>2019-09-22T07:18:05Z</time>
      </trkpt>
      <trkpt lat="47.26966" lon="-2.33832">
        <ele>57</ele>
        <time>2019-09-22T07:18:06Z</time>
      </trkpt>
      <trkpt lat="47.26971" lon="-2.33835">
        <ele>57</ele>
        <time>2019-09-22T07:18:07Z</time>
      </trkpt>
      <trkpt lat="47.26982" lon="-2.33842">
        <ele>57</ele>
        <time>2019-09-22T07:18:10Z</time>
      </trkpt>
      <trkpt lat="47.26986" lon="-2.33844">
        <ele>58</ele>
        <time>2019-09-22T07:18:11Z</time>
      </trkpt>
      <trkpt lat="47.2699" lon="-2.33846">
        <ele>58</ele>
        <time>2019-09-22T07:18:12Z</time>
      </trkpt>
      <trkpt lat="47.26995" lon="-2.33849">
        <ele>58</ele>
        <time>2019-09-22T07:18:13Z</time>
      </trkpt>
      <trkpt lat="47.26999" lon="-2.33851">
        <ele>58</ele>
        <time>2019-09-22T07:18:14Z</time>
      </trkpt>
      <trkpt lat="47.27011" lon="-2.33858">
        <ele>58</ele>
        <time>2019-09-22T07:18:16Z</time>
      </trkpt>
      <trkpt lat="47.27023" lon="-2.33866">
        <ele>59</ele>
        <time>2019-09-22T07:18:19Z</time>
      </trkpt>
      <trkpt lat="47.27027" lon="-2.33869">
        <ele>59</ele>
        <time>2019-09-22T07:18:20Z</time>
      </trkpt>
      <trkpt lat="47.27035" lon="-2.33875">
        <ele>59</ele>
        <time>2019-09-22T07:18:22Z</time>
      </trkpt>
      <trkpt lat="47.27044" lon="-2.33883">
        <ele>60</ele>
        <time>2019-09-22T07:18:24Z</time>
      </trkpt>
      <trkpt lat="47.27048" lon="-2.33888">
        <ele>60</ele>
        <time>2019-09-22T07:18:25Z</time>
      </trkpt>
      <trkpt lat="47.27052" lon="-2.33892">
        <ele>60</ele>
        <time>2019-09-22T07:18:26Z</time>
      </trkpt>
      <trkpt lat="47.27056" lon="-2.33896">
        <ele>60</ele>
        <time>2019-09-22T07:18:27Z</time>
      </trkpt>
      <trkpt lat="47.2706" lon="-2.33901">
        <ele>60</ele>
        <time>2019-09-22T07:18:28Z</time>
      </trkpt>
      <trkpt lat="47.27068" lon="-2.3391">
        <ele>61</ele>
        <time>2019-09-22T07:18:30Z</time>
      </trkpt>
      <trkpt lat="47.27075" lon="-2.33917">
        <ele>61</ele>
        <time>2019-09-22T07:18:32Z</time>
      </trkpt>
      <trkpt lat="47.27082" lon="-2.33923">
        <ele>62</ele>
        <time>2019-09-22T07:18:34Z</time>
      </trkpt>
      <trkpt lat="47.27095" lon="-2.33934">
        <ele>63</ele>
        <time>2019-09-22T07:18:38Z</time>
      </trkpt>
      <trkpt lat="47.27101" lon="-2.33939">
        <ele>64</ele>
        <time>2019-09-22T07:18:40Z</time>
      </trkpt>
      <trkpt lat="47.27104" lon="-2.33942">
        <ele>64</ele>
        <time>2019-09-22T07:18:41Z</time>
      </trkpt>
      <trkpt lat="47.27111" lon="-2.33948">
        <ele>64</ele>
        <time>2019-09-22T07:18:43Z</time>
      </trkpt>
      <trkpt lat="47.27115" lon="-2.33952">
        <ele>64</ele>
        <time>2019-09-22T07:18:44Z</time>
      </trkpt>
      <trkpt lat="47.27119" lon="-2.33955">
        <ele>64</ele>
        <time>2019-09-22T07:18:45Z</time>
      </trkpt>
      <trkpt lat="47.27128" lon="-2.33967">
        <ele>64</ele>
        <time>2019-09-22T07:18:49Z</time>
      </trkpt>
      <trkpt lat="47.27132" lon="-2.33971">
        <ele>65</ele>
        <time>2019-09-22T07:18:50Z</time>
      </trkpt>
      <trkpt lat="47.27136" lon="-2.33974">
        <ele>65</ele>
        <time>2019-09-22T07:18:51Z</time>
      </trkpt>
      <trkpt lat="47.2714" lon="-2.33978">
        <ele>65</ele>
        <time>2019-09-22T07:18:52Z</time>
      </trkpt>
      <trkpt lat="47.27147" lon="-2.33986">
        <ele>65</ele>
        <time>2019-09-22T07:18:54Z</time>
      </trkpt>
      <trkpt lat="47.27151" lon="-2.33989">
        <ele>66</ele>
        <time>2019-09-22T07:18:55Z</time>
      </trkpt>
      <trkpt lat="47.27154" lon="-2.33992">
        <ele>66</ele>
        <time>2019-09-22T07:18:56Z</time>
      </trkpt>
      <trkpt lat="47.27158" lon="-2.33996">
        <ele>67</ele>
        <time>2019-09-22T07:18:57Z</time>
      </trkpt>
      <trkpt lat="47.27162" lon="-2.34">
        <ele>67</ele>
        <time>2019-09-22T07:18:58Z</time>
      </trkpt>
      <trkpt lat="47.27169" lon="-2.34007">
        <ele>67</ele>
        <time>2019-09-22T07:19:00Z</time>
      </trkpt>
      <trkpt lat="47.27173" lon="-2.34011">
        <ele>67</ele>
        <time>2019-09-22T07:19:01Z</time>
      </trkpt>
      <trkpt lat="47.27177" lon="-2.34016">
        <ele>67</ele>
        <time>2019-09-22T07:19:02Z</time>
      </trkpt>
      <trkpt lat="47.27185" lon="-2.34023">
        <ele>67</ele>
        <time>2019-09-22T07:19:04Z</time>
      </trkpt>
      <trkpt lat="47.27188" lon="-2.34026">
        <ele>67</ele>
        <time>2019-09-22T07:19:05Z</time>
      </trkpt>
      <trkpt lat="47.27192" lon="-2.3403">
        <ele>67</ele>
        <time>2019-09-22T07:19:06Z</time>
      </trkpt>
      <trkpt lat="47.27196" lon="-2.34033">
        <ele>67</ele>
        <time>2019-09-22T07:19:07Z</time>
      </trkpt>
      <trkpt lat="47.272" lon="-2.34037">
        <ele>67</ele>
        <time>2019-09-22T07:19:08Z</time>
      </trkpt>
      <trkpt lat="47.27203" lon="-2.3404">
        <ele>67</ele>
        <time>2019-09-22T07:19:09Z</time>
      </trkpt>
      <trkpt lat="47.27207" lon="-2.34044">
        <ele>68</ele>
        <time>2019-09-22T07:19:10Z</time>
      </trkpt>
      <trkpt lat="47.27211" lon="-2.34048">
        <ele>67</ele>
        <time>2019-09-22T07:19:11Z</time>
      </trkpt>
      <trkpt lat="47.27215" lon="-2.34051">
        <ele>68</ele>
        <time>2019-09-22T07:19:12Z</time>
      </trkpt>
      <trkpt lat="47.27229" lon="-2.34052">
        <ele>68</ele>
        <time>2019-09-22T07:19:15Z</time>
      </trkpt>
      <trkpt lat="47.27233" lon="-2.34051">
        <ele>68</ele>
        <time>2019-09-22T07:19:16Z</time>
      </trkpt>
      <trkpt lat="47.27242" lon="-2.34049">
        <ele>69</ele>
        <time>2019-09-22T07:19:18Z</time>
      </trkpt>
      <trkpt lat="47.27247" lon="-2.34049">
        <ele>69</ele>
        <time>2019-09-22T07:19:19Z</time>
      </trkpt>
      <trkpt lat="47.27255" lon="-2.3405">
        <ele>70</ele>
        <time>2019-09-22T07:19:21Z</time>
      </trkpt>
      <trkpt lat="47.2726" lon="-2.34051">
        <ele>70</ele>
        <time>2019-09-22T07:19:22Z</time>
      </trkpt>
      <trkpt lat="47.27264" lon="-2.34054">
        <ele>70</ele>
        <time>2019-09-22T07:19:23Z</time>
      </trkpt>
      <trkpt lat="47.27272" lon="-2.34062">
        <ele>70</ele>
        <time>2019-09-22T07:19:25Z</time>
      </trkpt>
      <trkpt lat="47.27275" lon="-2.34067">
        <ele>70</ele>
        <time>2019-09-22T07:19:26Z</time>
      </trkpt>
      <trkpt lat="47.2728" lon="-2.34087">
        <ele>71</ele>
        <time>2019-09-22T07:19:29Z</time>
      </trkpt>
      <trkpt lat="47.27281" lon="-2.34094">
        <ele>71</ele>
        <time>2019-09-22T07:19:30Z</time>
      </trkpt>
      <trkpt lat="47.27283" lon="-2.34109">
        <ele>71</ele>
        <time>2019-09-22T07:19:32Z</time>
      </trkpt>
      <trkpt lat="47.27285" lon="-2.34115">
        <ele>71</ele>
        <time>2019-09-22T07:19:33Z</time>
      </trkpt>
      <trkpt lat="47.27289" lon="-2.3412">
        <ele>71</ele>
        <time>2019-09-22T07:19:34Z</time>
      </trkpt>
      <trkpt lat="47.27293" lon="-2.34126">
        <ele>71</ele>
        <time>2019-09-22T07:19:35Z</time>
      </trkpt>
      <trkpt lat="47.27297" lon="-2.34131">
        <ele>71</ele>
        <time>2019-09-22T07:19:36Z</time>
      </trkpt>
      <trkpt lat="47.27303" lon="-2.34136">
        <ele>71</ele>
        <time>2019-09-22T07:19:37Z</time>
      </trkpt>
      <trkpt lat="47.27308" lon="-2.34139">
        <ele>71</ele>
        <time>2019-09-22T07:19:38Z</time>
      </trkpt>
      <trkpt lat="47.27314" lon="-2.34143">
        <ele>71</ele>
        <time>2019-09-22T07:19:39Z</time>
      </trkpt>
      <trkpt lat="47.27319" lon="-2.34146">
        <ele>71</ele>
        <time>2019-09-22T07:19:40Z</time>
      </trkpt>
      <trkpt lat="47.27325" lon="-2.3415">
        <ele>71</ele>
        <time>2019-09-22T07:19:41Z</time>
      </trkpt>
      <trkpt lat="47.2733" lon="-2.34153">
        <ele>71</ele>
        <time>2019-09-22T07:19:42Z</time>
      </trkpt>
      <trkpt lat="47.27336" lon="-2.34156">
        <ele>71</ele>
        <time>2019-09-22T07:19:43Z</time>
      </trkpt>
      <trkpt lat="47.27341" lon="-2.34158">
        <ele>71</ele>
        <time>2019-09-22T07:19:44Z</time>
      </trkpt>
      <trkpt lat="47.27351" lon="-2.34164">
        <ele>71</ele>
        <time>2019-09-22T07:19:46Z</time>
      </trkpt>
      <trkpt lat="47.27361" lon="-2.34169">
        <ele>71</ele>
        <time>2019-09-22T07:19:48Z</time>
      </trkpt>
      <trkpt lat="47.27366" lon="-2.34172">
        <ele>71</ele>
        <time>2019-09-22T07:19:49Z</time>
      </trkpt>
      <trkpt lat="47.27371" lon="-2.34176">
        <ele>71</ele>
        <time>2019-09-22T07:19:50Z</time>
      </trkpt>
      <trkpt lat="47.27385" lon="-2.34186">
        <ele>70</ele>
        <time>2019-09-22T07:19:52Z</time>
      </trkpt>
      <trkpt lat="47.27389" lon="-2.3419">
        <ele>70</ele>
        <time>2019-09-22T07:19:53Z</time>
      </trkpt>
      <trkpt lat="47.27393" lon="-2.34194">
        <ele>70</ele>
        <time>2019-09-22T07:19:54Z</time>
      </trkpt>
      <trkpt lat="47.27396" lon="-2.34198">
        <ele>70</ele>
        <time>2019-09-22T07:19:55Z</time>
      </trkpt>
      <trkpt lat="47.27401" lon="-2.34212">
        <ele>70</ele>
        <time>2019-09-22T07:19:58Z</time>
      </trkpt>
      <trkpt lat="47.27402" lon="-2.34223">
        <ele>70</ele>
        <time>2019-09-22T07:20:00Z</time>
      </trkpt>
      <trkpt lat="47.27403" lon="-2.34229">
        <ele>70</ele>
        <time>2019-09-22T07:20:01Z</time>
      </trkpt>
      <trkpt lat="47.27409" lon="-2.34239">
        <ele>70</ele>
        <time>2019-09-22T07:20:05Z</time>
      </trkpt>
      <trkpt lat="47.27415" lon="-2.34249">
        <ele>70</ele>
        <time>2019-09-22T07:20:08Z</time>
      </trkpt>
      <trkpt lat="47.27416" lon="-2.34262">
        <ele>69</ele>
        <time>2019-09-22T07:20:10Z</time>
      </trkpt>
      <trkpt lat="47.27416" lon="-2.34268">
        <ele>69</ele>
        <time>2019-09-22T07:20:11Z</time>
      </trkpt>
      <trkpt lat="47.27416" lon="-2.34276">
        <ele>69</ele>
        <time>2019-09-22T07:20:12Z</time>
      </trkpt>
      <trkpt lat="47.27416" lon="-2.34282">
        <ele>69</ele>
        <time>2019-09-22T07:20:13Z</time>
      </trkpt>
      <trkpt lat="47.27417" lon="-2.34296">
        <ele>70</ele>
        <time>2019-09-22T07:20:16Z</time>
      </trkpt>
      <trkpt lat="47.27417" lon="-2.34302">
        <ele>70</ele>
        <time>2019-09-22T07:20:17Z</time>
      </trkpt>
      <trkpt lat="47.27417" lon="-2.34315">
        <ele>71</ele>
        <time>2019-09-22T07:20:19Z</time>
      </trkpt>
      <trkpt lat="47.27416" lon="-2.34327">
        <ele>72</ele>
        <time>2019-09-22T07:20:21Z</time>
      </trkpt>
      <trkpt lat="47.27416" lon="-2.34335">
        <ele>72</ele>
        <time>2019-09-22T07:20:22Z</time>
      </trkpt>
      <trkpt lat="47.27416" lon="-2.34343">
        <ele>72</ele>
        <time>2019-09-22T07:20:23Z</time>
      </trkpt>
      <trkpt lat="47.27416" lon="-2.34351">
        <ele>73</ele>
        <time>2019-09-22T07:20:24Z</time>
      </trkpt>
      <trkpt lat="47.27417" lon="-2.3436">
        <ele>73</ele>
        <time>2019-09-22T07:20:25Z</time>
      </trkpt>
      <trkpt lat="47.27418" lon="-2.34367">
        <ele>73</ele>
        <time>2019-09-22T07:20:26Z</time>
      </trkpt>
      <trkpt lat="47.27418" lon="-2.34375">
        <ele>73</ele>
        <time>2019-09-22T07:20:27Z</time>
      </trkpt>
      <trkpt lat="47.27419" lon="-2.34382">
        <ele>73</ele>
        <time>2019-09-22T07:20:28Z</time>
      </trkpt>
      <trkpt lat="47.27421" lon="-2.34396">
        <ele>73</ele>
        <time>2019-09-22T07:20:30Z</time>
      </trkpt>
      <trkpt lat="47.27422" lon="-2.34403">
        <ele>73</ele>
        <time>2019-09-22T07:20:31Z</time>
      </trkpt>
      <trkpt lat="47.27422" lon="-2.3441">
        <ele>74</ele>
        <time>2019-09-22T07:20:32Z</time>
      </trkpt>
      <trkpt lat="47.27423" lon="-2.34417">
        <ele>74</ele>
        <time>2019-09-22T07:20:33Z</time>
      </trkpt>
      <trkpt lat="47.27423" lon="-2.34424">
        <ele>74</ele>
        <time>2019-09-22T07:20:34Z</time>
      </trkpt>
      <trkpt lat="47.27424" lon="-2.34431">
        <ele>74</ele>
        <time>2019-09-22T07:20:35Z</time>
      </trkpt>
      <trkpt lat="47.27425" lon="-2.34444">
        <ele>74</ele>
        <time>2019-09-22T07:20:37Z</time>
      </trkpt>
      <trkpt lat="47.27425" lon="-2.34451">
        <ele>74</ele>
        <time>2019-09-22T07:20:38Z</time>
      </trkpt>
      <trkpt lat="47.27426" lon="-2.34464">
        <ele>74</ele>
        <time>2019-09-22T07:20:40Z</time>
      </trkpt>
      <trkpt lat="47.27426" lon="-2.34471">
        <ele>74</ele>
        <time>2019-09-22T07:20:41Z</time>
      </trkpt>
      <trkpt lat="47.27426" lon="-2.34478">
        <ele>74</ele>
        <time>2019-09-22T07:20:42Z</time>
      </trkpt>
      <trkpt lat="47.27427" lon="-2.34486">
        <ele>74</ele>
        <time>2019-09-22T07:20:43Z</time>
      </trkpt>
      <trkpt lat="47.27428" lon="-2.34494">
        <ele>74</ele>
        <time>2019-09-22T07:20:44Z</time>
      </trkpt>
      <trkpt lat="47.2743" lon="-2.345">
        <ele>74</ele>
        <time>2019-09-22T07:20:45Z</time>
      </trkpt>
      <trkpt lat="47.27432" lon="-2.34507">
        <ele>74</ele>
        <time>2019-09-22T07:20:46Z</time>
      </trkpt>
      <trkpt lat="47.27433" lon="-2.34514">
        <ele>74</ele>
        <time>2019-09-22T07:20:47Z</time>
      </trkpt>
      <trkpt lat="47.27434" lon="-2.34522">
        <ele>74</ele>
        <time>2019-09-22T07:20:48Z</time>
      </trkpt>
      <trkpt lat="47.27436" lon="-2.34529">
        <ele>74</ele>
        <time>2019-09-22T07:20:49Z</time>
      </trkpt>
      <trkpt lat="47.27438" lon="-2.34535">
        <ele>74</ele>
        <time>2019-09-22T07:20:50Z</time>
      </trkpt>
      <trkpt lat="47.27439" lon="-2.34542">
        <ele>74</ele>
        <time>2019-09-22T07:20:51Z</time>
      </trkpt>
      <trkpt lat="47.27443" lon="-2.34557">
        <ele>73</ele>
        <time>2019-09-22T07:20:53Z</time>
      </trkpt>
      <trkpt lat="47.27445" lon="-2.34564">
        <ele>73</ele>
        <time>2019-09-22T07:20:54Z</time>
      </trkpt>
      <trkpt lat="47.27446" lon="-2.34571">
        <ele>73</ele>
        <time>2019-09-22T07:20:55Z</time>
      </trkpt>
      <trkpt lat="47.27451" lon="-2.34592">
        <ele>73</ele>
        <time>2019-09-22T07:20:58Z</time>
      </trkpt>
      <trkpt lat="47.27452" lon="-2.346">
        <ele>73</ele>
        <time>2019-09-22T07:20:59Z</time>
      </trkpt>
      <trkpt lat="47.27453" lon="-2.34607">
        <ele>73</ele>
        <time>2019-09-22T07:21:00Z</time>
      </trkpt>
      <trkpt lat="47.27453" lon="-2.34614">
        <ele>73</ele>
        <time>2019-09-22T07:21:01Z</time>
      </trkpt>
      <trkpt lat="47.27454" lon="-2.34622">
        <ele>74</ele>
        <time>2019-09-22T07:21:02Z</time>
      </trkpt>
      <trkpt lat="47.27455" lon="-2.34631">
        <ele>74</ele>
        <time>2019-09-22T07:21:03Z</time>
      </trkpt>
      <trkpt lat="47.27456" lon="-2.34638">
        <ele>75</ele>
        <time>2019-09-22T07:21:04Z</time>
      </trkpt>
      <trkpt lat="47.27456" lon="-2.34646">
        <ele>75</ele>
        <time>2019-09-22T07:21:05Z</time>
      </trkpt>
      <trkpt lat="47.27457" lon="-2.34654">
        <ele>74</ele>
        <time>2019-09-22T07:21:06Z</time>
      </trkpt>
      <trkpt lat="47.27458" lon="-2.34662">
        <ele>74</ele>
        <time>2019-09-22T07:21:07Z</time>
      </trkpt>
      <trkpt lat="47.27458" lon="-2.34669">
        <ele>74</ele>
        <time>2019-09-22T07:21:08Z</time>
      </trkpt>
      <trkpt lat="47.27458" lon="-2.34677">
        <ele>74</ele>
        <time>2019-09-22T07:21:09Z</time>
      </trkpt>
      <trkpt lat="47.27458" lon="-2.34685">
        <ele>74</ele>
        <time>2019-09-22T07:21:10Z</time>
      </trkpt>
      <trkpt lat="47.27459" lon="-2.34692">
        <ele>74</ele>
        <time>2019-09-22T07:21:11Z</time>
      </trkpt>
      <trkpt lat="47.27459" lon="-2.34699">
        <ele>74</ele>
        <time>2019-09-22T07:21:12Z</time>
      </trkpt>
      <trkpt lat="47.27458" lon="-2.34706">
        <ele>74</ele>
        <time>2019-09-22T07:21:13Z</time>
      </trkpt>
      <trkpt lat="47.27458" lon="-2.34714">
        <ele>74</ele>
        <time>2019-09-22T07:21:14Z</time>
      </trkpt>
      <trkpt lat="47.27457" lon="-2.34722">
        <ele>74</ele>
        <time>2019-09-22T07:21:15Z</time>
      </trkpt>
      <trkpt lat="47.27457" lon="-2.3473">
        <ele>73</ele>
        <time>2019-09-22T07:21:16Z</time>
      </trkpt>
      <trkpt lat="47.27457" lon="-2.34739">
        <ele>73</ele>
        <time>2019-09-22T07:21:17Z</time>
      </trkpt>
      <trkpt lat="47.27456" lon="-2.34749">
        <ele>73</ele>
        <time>2019-09-22T07:21:18Z</time>
      </trkpt>
      <trkpt lat="47.27457" lon="-2.34766">
        <ele>72</ele>
        <time>2019-09-22T07:21:19Z</time>
      </trkpt>
      <trkpt lat="47.27457" lon="-2.34775">
        <ele>72</ele>
        <time>2019-09-22T07:21:20Z</time>
      </trkpt>
      <trkpt lat="47.27458" lon="-2.34784">
        <ele>72</ele>
        <time>2019-09-22T07:21:22Z</time>
      </trkpt>
      <trkpt lat="47.27459" lon="-2.34793">
        <ele>71</ele>
        <time>2019-09-22T07:21:23Z</time>
      </trkpt>
      <trkpt lat="47.2746" lon="-2.34803">
        <ele>71</ele>
        <time>2019-09-22T07:21:24Z</time>
      </trkpt>
      <trkpt lat="47.2746" lon="-2.34812">
        <ele>70</ele>
        <time>2019-09-22T07:21:25Z</time>
      </trkpt>
      <trkpt lat="47.27461" lon="-2.34821">
        <ele>70</ele>
        <time>2019-09-22T07:21:26Z</time>
      </trkpt>
      <trkpt lat="47.27461" lon="-2.34831">
        <ele>70</ele>
        <time>2019-09-22T07:21:27Z</time>
      </trkpt>
      <trkpt lat="47.27462" lon="-2.3484">
        <ele>70</ele>
        <time>2019-09-22T07:21:28Z</time>
      </trkpt>
      <trkpt lat="47.27461" lon="-2.3485">
        <ele>70</ele>
        <time>2019-09-22T07:21:29Z</time>
      </trkpt>
      <trkpt lat="47.27461" lon="-2.3486">
        <ele>70</ele>
        <time>2019-09-22T07:21:30Z</time>
      </trkpt>
      <trkpt lat="47.27461" lon="-2.34888">
        <ele>70</ele>
        <time>2019-09-22T07:21:33Z</time>
      </trkpt>
      <trkpt lat="47.27462" lon="-2.34897">
        <ele>70</ele>
        <time>2019-09-22T07:21:34Z</time>
      </trkpt>
      <trkpt lat="47.27465" lon="-2.34913">
        <ele>71</ele>
        <time>2019-09-22T07:21:36Z</time>
      </trkpt>
      <trkpt lat="47.27467" lon="-2.34921">
        <ele>71</ele>
        <time>2019-09-22T07:21:37Z</time>
      </trkpt>
      <trkpt lat="47.27469" lon="-2.3493">
        <ele>71</ele>
        <time>2019-09-22T07:21:38Z</time>
      </trkpt>
      <trkpt lat="47.27472" lon="-2.34937">
        <ele>71</ele>
        <time>2019-09-22T07:21:39Z</time>
      </trkpt>
      <trkpt lat="47.27474" lon="-2.34945">
        <ele>71</ele>
        <time>2019-09-22T07:21:40Z</time>
      </trkpt>
      <trkpt lat="47.27479" lon="-2.3496">
        <ele>71</ele>
        <time>2019-09-22T07:21:42Z</time>
      </trkpt>
      <trkpt lat="47.27483" lon="-2.34975">
        <ele>71</ele>
        <time>2019-09-22T07:21:43Z</time>
      </trkpt>
      <trkpt lat="47.27487" lon="-2.34988">
        <ele>71</ele>
        <time>2019-09-22T07:21:45Z</time>
      </trkpt>
      <trkpt lat="47.27489" lon="-2.34994">
        <ele>70</ele>
        <time>2019-09-22T07:21:46Z</time>
      </trkpt>
      <trkpt lat="47.27492" lon="-2.35005">
        <ele>71</ele>
        <time>2019-09-22T07:21:48Z</time>
      </trkpt>
      <trkpt lat="47.27494" lon="-2.35011">
        <ele>71</ele>
        <time>2019-09-22T07:21:50Z</time>
      </trkpt>
      <trkpt lat="47.27496" lon="-2.35018">
        <ele>70</ele>
        <time>2019-09-22T07:21:51Z</time>
      </trkpt>
      <trkpt lat="47.27498" lon="-2.35024">
        <ele>71</ele>
        <time>2019-09-22T07:21:52Z</time>
      </trkpt>
      <trkpt lat="47.275" lon="-2.35031">
        <ele>71</ele>
        <time>2019-09-22T07:21:53Z</time>
      </trkpt>
      <trkpt lat="47.27502" lon="-2.35037">
        <ele>71</ele>
        <time>2019-09-22T07:21:54Z</time>
      </trkpt>
      <trkpt lat="47.27503" lon="-2.35043">
        <ele>71</ele>
        <time>2019-09-22T07:21:55Z</time>
      </trkpt>
      <trkpt lat="47.27504" lon="-2.3505">
        <ele>71</ele>
        <time>2019-09-22T07:21:56Z</time>
      </trkpt>
      <trkpt lat="47.27504" lon="-2.35064">
        <ele>71</ele>
        <time>2019-09-22T07:21:58Z</time>
      </trkpt>
      <trkpt lat="47.27503" lon="-2.35071">
        <ele>71</ele>
        <time>2019-09-22T07:21:59Z</time>
      </trkpt>
      <trkpt lat="47.27502" lon="-2.35078">
        <ele>71</ele>
        <time>2019-09-22T07:22:00Z</time>
      </trkpt>
      <trkpt lat="47.27502" lon="-2.35085">
        <ele>71</ele>
        <time>2019-09-22T07:22:01Z</time>
      </trkpt>
      <trkpt lat="47.27501" lon="-2.35092">
        <ele>71</ele>
        <time>2019-09-22T07:22:02Z</time>
      </trkpt>
      <trkpt lat="47.27501" lon="-2.35099">
        <ele>71</ele>
        <time>2019-09-22T07:22:03Z</time>
      </trkpt>
      <trkpt lat="47.27501" lon="-2.35106">
        <ele>70</ele>
        <time>2019-09-22T07:22:04Z</time>
      </trkpt>
      <trkpt lat="47.27501" lon="-2.35112">
        <ele>70</ele>
        <time>2019-09-22T07:22:05Z</time>
      </trkpt>
      <trkpt lat="47.27501" lon="-2.35118">
        <ele>71</ele>
        <time>2019-09-22T07:22:06Z</time>
      </trkpt>
      <trkpt lat="47.27505" lon="-2.35128">
        <ele>71</ele>
        <time>2019-09-22T07:22:08Z</time>
      </trkpt>
      <trkpt lat="47.27513" lon="-2.35133">
        <ele>71</ele>
        <time>2019-09-22T07:22:10Z</time>
      </trkpt>
      <trkpt lat="47.27525" lon="-2.35137">
        <ele>70</ele>
        <time>2019-09-22T07:22:13Z</time>
      </trkpt>
      <trkpt lat="47.2753" lon="-2.35139">
        <ele>70</ele>
        <time>2019-09-22T07:22:14Z</time>
      </trkpt>
      <trkpt lat="47.2754" lon="-2.35141">
        <ele>71</ele>
        <time>2019-09-22T07:22:16Z</time>
      </trkpt>
      <trkpt lat="47.27553" lon="-2.35139">
        <ele>72</ele>
        <time>2019-09-22T07:22:19Z</time>
      </trkpt>
      <trkpt lat="47.27568" lon="-2.35137">
        <ele>72</ele>
        <time>2019-09-22T07:22:22Z</time>
      </trkpt>
      <trkpt lat="47.27573" lon="-2.35138">
        <ele>72</ele>
        <time>2019-09-22T07:22:23Z</time>
      </trkpt>
      <trkpt lat="47.27578" lon="-2.35136">
        <ele>72</ele>
        <time>2019-09-22T07:22:24Z</time>
      </trkpt>
      <trkpt lat="47.27583" lon="-2.35136">
        <ele>72</ele>
        <time>2019-09-22T07:22:25Z</time>
      </trkpt>
      <trkpt lat="47.27587" lon="-2.35135">
        <ele>72</ele>
        <time>2019-09-22T07:22:26Z</time>
      </trkpt>
      <trkpt lat="47.27603" lon="-2.35138">
        <ele>71</ele>
        <time>2019-09-22T07:22:29Z</time>
      </trkpt>
      <trkpt lat="47.27606" lon="-2.35143">
        <ele>71</ele>
        <time>2019-09-22T07:22:30Z</time>
      </trkpt>
      <trkpt lat="47.27607" lon="-2.35151">
        <ele>71</ele>
        <time>2019-09-22T07:22:31Z</time>
      </trkpt>
      <trkpt lat="47.27609" lon="-2.35157">
        <ele>71</ele>
        <time>2019-09-22T07:22:32Z</time>
      </trkpt>
      <trkpt lat="47.2761" lon="-2.35165">
        <ele>71</ele>
        <time>2019-09-22T07:22:33Z</time>
      </trkpt>
      <trkpt lat="47.27616" lon="-2.35174">
        <ele>71</ele>
        <time>2019-09-22T07:22:35Z</time>
      </trkpt>
      <trkpt lat="47.2762" lon="-2.35176">
        <ele>70</ele>
        <time>2019-09-22T07:22:36Z</time>
      </trkpt>
      <trkpt lat="47.27625" lon="-2.35177">
        <ele>70</ele>
        <time>2019-09-22T07:22:37Z</time>
      </trkpt>
      <trkpt lat="47.2763" lon="-2.35177">
        <ele>71</ele>
        <time>2019-09-22T07:22:38Z</time>
      </trkpt>
      <trkpt lat="47.27642" lon="-2.35175">
        <ele>71</ele>
        <time>2019-09-22T07:22:40Z</time>
      </trkpt>
      <trkpt lat="47.27648" lon="-2.35174">
        <ele>71</ele>
        <time>2019-09-22T07:22:41Z</time>
      </trkpt>
      <trkpt lat="47.27654" lon="-2.35174">
        <ele>71</ele>
        <time>2019-09-22T07:22:42Z</time>
      </trkpt>
      <trkpt lat="47.2766" lon="-2.35174">
        <ele>70</ele>
        <time>2019-09-22T07:22:43Z</time>
      </trkpt>
      <trkpt lat="47.27668" lon="-2.35179">
        <ele>70</ele>
        <time>2019-09-22T07:22:45Z</time>
      </trkpt>
      <trkpt lat="47.27672" lon="-2.3519">
        <ele>69</ele>
        <time>2019-09-22T07:22:47Z</time>
      </trkpt>
      <trkpt lat="47.27672" lon="-2.35197">
        <ele>69</ele>
        <time>2019-09-22T07:22:48Z</time>
      </trkpt>
      <trkpt lat="47.27673" lon="-2.35205">
        <ele>69</ele>
        <time>2019-09-22T07:22:49Z</time>
      </trkpt>
      <trkpt lat="47.27673" lon="-2.35211">
        <ele>70</ele>
        <time>2019-09-22T07:22:50Z</time>
      </trkpt>
      <trkpt lat="47.27679" lon="-2.3522">
        <ele>70</ele>
        <time>2019-09-22T07:22:53Z</time>
      </trkpt>
      <trkpt lat="47.27687" lon="-2.35221">
        <ele>70</ele>
        <time>2019-09-22T07:22:55Z</time>
      </trkpt>
      <trkpt lat="47.27691" lon="-2.35219">
        <ele>69</ele>
        <time>2019-09-22T07:22:56Z</time>
      </trkpt>
      <trkpt lat="47.27696" lon="-2.35219">
        <ele>69</ele>
        <time>2019-09-22T07:22:57Z</time>
      </trkpt>
      <trkpt lat="47.27702" lon="-2.35217">
        <ele>69</ele>
        <time>2019-09-22T07:22:58Z</time>
      </trkpt>
      <trkpt lat="47.27707" lon="-2.35215">
        <ele>68</ele>
        <time>2019-09-22T07:22:59Z</time>
      </trkpt>
      <trkpt lat="47.27713" lon="-2.35214">
        <ele>68</ele>
        <time>2019-09-22T07:23:00Z</time>
      </trkpt>
      <trkpt lat="47.27719" lon="-2.35211">
        <ele>68</ele>
        <time>2019-09-22T07:23:01Z</time>
      </trkpt>
      <trkpt lat="47.2773" lon="-2.35207">
        <ele>68</ele>
        <time>2019-09-22T07:23:02Z</time>
      </trkpt>
      <trkpt lat="47.27736" lon="-2.35205">
        <ele>67</ele>
        <time>2019-09-22T07:23:03Z</time>
      </trkpt>
      <trkpt lat="47.27743" lon="-2.35205">
        <ele>67</ele>
        <time>2019-09-22T07:23:04Z</time>
      </trkpt>
      <trkpt lat="47.27753" lon="-2.35204">
        <ele>66</ele>
        <time>2019-09-22T07:23:06Z</time>
      </trkpt>
      <trkpt lat="47.27758" lon="-2.35204">
        <ele>66</ele>
        <time>2019-09-22T07:23:07Z</time>
      </trkpt>
      <trkpt lat="47.27762" lon="-2.35204">
        <ele>66</ele>
        <time>2019-09-22T07:23:08Z</time>
      </trkpt>
      <trkpt lat="47.2777" lon="-2.3521">
        <ele>66</ele>
        <time>2019-09-22T07:23:11Z</time>
      </trkpt>
      <trkpt lat="47.27774" lon="-2.35219">
        <ele>65</ele>
        <time>2019-09-22T07:23:13Z</time>
      </trkpt>
      <trkpt lat="47.27775" lon="-2.35226">
        <ele>65</ele>
        <time>2019-09-22T07:23:14Z</time>
      </trkpt>
      <trkpt lat="47.27776" lon="-2.35234">
        <ele>65</ele>
        <time>2019-09-22T07:23:15Z</time>
      </trkpt>
      <trkpt lat="47.27781" lon="-2.3526">
        <ele>66</ele>
        <time>2019-09-22T07:23:19Z</time>
      </trkpt>
      <trkpt lat="47.27783" lon="-2.35268">
        <ele>65</ele>
        <time>2019-09-22T07:23:20Z</time>
      </trkpt>
      <trkpt lat="47.27785" lon="-2.35277">
        <ele>65</ele>
        <time>2019-09-22T07:23:21Z</time>
      </trkpt>
      <trkpt lat="47.27787" lon="-2.35285">
        <ele>65</ele>
        <time>2019-09-22T07:23:22Z</time>
      </trkpt>
      <trkpt lat="47.27789" lon="-2.35293">
        <ele>65</ele>
        <time>2019-09-22T07:23:23Z</time>
      </trkpt>
      <trkpt lat="47.27794" lon="-2.35317">
        <ele>65</ele>
        <time>2019-09-22T07:23:26Z</time>
      </trkpt>
      <trkpt lat="47.27796" lon="-2.35325">
        <ele>65</ele>
        <time>2019-09-22T07:23:27Z</time>
      </trkpt>
      <trkpt lat="47.27798" lon="-2.35332">
        <ele>65</ele>
        <time>2019-09-22T07:23:28Z</time>
      </trkpt>
      <trkpt lat="47.27799" lon="-2.35338">
        <ele>65</ele>
        <time>2019-09-22T07:23:29Z</time>
      </trkpt>
      <trkpt lat="47.27801" lon="-2.35345">
        <ele>64</ele>
        <time>2019-09-22T07:23:30Z</time>
      </trkpt>
      <trkpt lat="47.27804" lon="-2.35351">
        <ele>64</ele>
        <time>2019-09-22T07:23:31Z</time>
      </trkpt>
      <trkpt lat="47.27816" lon="-2.35362">
        <ele>64</ele>
        <time>2019-09-22T07:23:34Z</time>
      </trkpt>
      <trkpt lat="47.2782" lon="-2.35362">
        <ele>64</ele>
        <time>2019-09-22T07:23:35Z</time>
      </trkpt>
      <trkpt lat="47.27826" lon="-2.35362">
        <ele>64</ele>
        <time>2019-09-22T07:23:36Z</time>
      </trkpt>
      <trkpt lat="47.27831" lon="-2.35362">
        <ele>64</ele>
        <time>2019-09-22T07:23:37Z</time>
      </trkpt>
      <trkpt lat="47.27836" lon="-2.35361">
        <ele>64</ele>
        <time>2019-09-22T07:23:38Z</time>
      </trkpt>
      <trkpt lat="47.27841" lon="-2.35361">
        <ele>64</ele>
        <time>2019-09-22T07:23:39Z</time>
      </trkpt>
      <trkpt lat="47.27846" lon="-2.3536">
        <ele>64</ele>
        <time>2019-09-22T07:23:40Z</time>
      </trkpt>
      <trkpt lat="47.27856" lon="-2.35359">
        <ele>65</ele>
        <time>2019-09-22T07:23:42Z</time>
      </trkpt>
      <trkpt lat="47.2786" lon="-2.35359">
        <ele>65</ele>
        <time>2019-09-22T07:23:43Z</time>
      </trkpt>
      <trkpt lat="47.27867" lon="-2.35361">
        <ele>65</ele>
        <time>2019-09-22T07:23:45Z</time>
      </trkpt>
      <trkpt lat="47.27873" lon="-2.35365">
        <ele>65</ele>
        <time>2019-09-22T07:23:47Z</time>
      </trkpt>
      <trkpt lat="47.2788" lon="-2.35373">
        <ele>65</ele>
        <time>2019-09-22T07:23:48Z</time>
      </trkpt>
      <trkpt lat="47.27886" lon="-2.35381">
        <ele>65</ele>
        <time>2019-09-22T07:23:51Z</time>
      </trkpt>
      <trkpt lat="47.27889" lon="-2.35386">
        <ele>65</ele>
        <time>2019-09-22T07:23:52Z</time>
      </trkpt>
      <trkpt lat="47.27893" lon="-2.35391">
        <ele>65</ele>
        <time>2019-09-22T07:23:53Z</time>
      </trkpt>
      <trkpt lat="47.27897" lon="-2.35396">
        <ele>65</ele>
        <time>2019-09-22T07:23:54Z</time>
      </trkpt>
      <trkpt lat="47.27901" lon="-2.354">
        <ele>65</ele>
        <time>2019-09-22T07:23:55Z</time>
      </trkpt>
      <trkpt lat="47.27904" lon="-2.35405">
        <ele>65</ele>
        <time>2019-09-22T07:23:56Z</time>
      </trkpt>
      <trkpt lat="47.27908" lon="-2.35409">
        <ele>65</ele>
        <time>2019-09-22T07:23:57Z</time>
      </trkpt>
      <trkpt lat="47.27912" lon="-2.35413">
        <ele>64</ele>
        <time>2019-09-22T07:23:58Z</time>
      </trkpt>
      <trkpt lat="47.27916" lon="-2.35418">
        <ele>64</ele>
        <time>2019-09-22T07:23:59Z</time>
      </trkpt>
      <trkpt lat="47.27923" lon="-2.35428">
        <ele>64</ele>
        <time>2019-09-22T07:24:00Z</time>
      </trkpt>
      <trkpt lat="47.2793" lon="-2.35438">
        <ele>64</ele>
        <time>2019-09-22T07:24:02Z</time>
      </trkpt>
      <trkpt lat="47.27934" lon="-2.35443">
        <ele>64</ele>
        <time>2019-09-22T07:24:04Z</time>
      </trkpt>
      <trkpt lat="47.27938" lon="-2.35448">
        <ele>64</ele>
        <time>2019-09-22T07:24:05Z</time>
      </trkpt>
      <trkpt lat="47.27942" lon="-2.35452">
        <ele>64</ele>
        <time>2019-09-22T07:24:06Z</time>
      </trkpt>
      <trkpt lat="47.27946" lon="-2.35455">
        <ele>64</ele>
        <time>2019-09-22T07:24:07Z</time>
      </trkpt>
      <trkpt lat="47.27951" lon="-2.35457">
        <ele>64</ele>
        <time>2019-09-22T07:24:08Z</time>
      </trkpt>
      <trkpt lat="47.27955" lon="-2.3546">
        <ele>64</ele>
        <time>2019-09-22T07:24:09Z</time>
      </trkpt>
      <trkpt lat="47.2796" lon="-2.35462">
        <ele>64</ele>
        <time>2019-09-22T07:24:10Z</time>
      </trkpt>
      <trkpt lat="47.27968" lon="-2.35465">
        <ele>63</ele>
        <time>2019-09-22T07:24:12Z</time>
      </trkpt>
      <trkpt lat="47.27976" lon="-2.35465">
        <ele>64</ele>
        <time>2019-09-22T07:24:14Z</time>
      </trkpt>
      <trkpt lat="47.27982" lon="-2.35463">
        <ele>64</ele>
        <time>2019-09-22T07:24:16Z</time>
      </trkpt>
      <trkpt lat="47.27985" lon="-2.35462">
        <ele>64</ele>
        <time>2019-09-22T07:24:17Z</time>
      </trkpt>
      <trkpt lat="47.27989" lon="-2.35461">
        <ele>64</ele>
        <time>2019-09-22T07:24:18Z</time>
      </trkpt>
      <trkpt lat="47.27993" lon="-2.3546">
        <ele>64</ele>
        <time>2019-09-22T07:24:19Z</time>
      </trkpt>
      <trkpt lat="47.27997" lon="-2.35459">
        <ele>65</ele>
        <time>2019-09-22T07:24:20Z</time>
      </trkpt>
      <trkpt lat="47.28001" lon="-2.3546">
        <ele>64</ele>
        <time>2019-09-22T07:24:21Z</time>
      </trkpt>
      <trkpt lat="47.28006" lon="-2.3546">
        <ele>64</ele>
        <time>2019-09-22T07:24:22Z</time>
      </trkpt>
      <trkpt lat="47.28016" lon="-2.35462">
        <ele>64</ele>
        <time>2019-09-22T07:24:24Z</time>
      </trkpt>
      <trkpt lat="47.28022" lon="-2.35464">
        <ele>65</ele>
        <time>2019-09-22T07:24:25Z</time>
      </trkpt>
      <trkpt lat="47.28028" lon="-2.35467">
        <ele>65</ele>
        <time>2019-09-22T07:24:26Z</time>
      </trkpt>
      <trkpt lat="47.28034" lon="-2.35471">
        <ele>65</ele>
        <time>2019-09-22T07:24:27Z</time>
      </trkpt>
      <trkpt lat="47.2804" lon="-2.35475">
        <ele>66</ele>
        <time>2019-09-22T07:24:28Z</time>
      </trkpt>
      <trkpt lat="47.28045" lon="-2.3548">
        <ele>66</ele>
        <time>2019-09-22T07:24:29Z</time>
      </trkpt>
      <trkpt lat="47.28055" lon="-2.35486">
        <ele>66</ele>
        <time>2019-09-22T07:24:31Z</time>
      </trkpt>
      <trkpt lat="47.2806" lon="-2.35487">
        <ele>66</ele>
        <time>2019-09-22T07:24:32Z</time>
      </trkpt>
      <trkpt lat="47.28068" lon="-2.35489">
        <ele>66</ele>
        <time>2019-09-22T07:24:34Z</time>
      </trkpt>
      <trkpt lat="47.28072" lon="-2.3549">
        <ele>66</ele>
        <time>2019-09-22T07:24:35Z</time>
      </trkpt>
      <trkpt lat="47.28075" lon="-2.35491">
        <ele>66</ele>
        <time>2019-09-22T07:24:36Z</time>
      </trkpt>
      <trkpt lat="47.28079" lon="-2.35492">
        <ele>67</ele>
        <time>2019-09-22T07:24:37Z</time>
      </trkpt>
      <trkpt lat="47.28087" lon="-2.35491">
        <ele>67</ele>
        <time>2019-09-22T07:24:39Z</time>
      </trkpt>
      <trkpt lat="47.28094" lon="-2.35489">
        <ele>68</ele>
        <time>2019-09-22T07:24:41Z</time>
      </trkpt>
      <trkpt lat="47.28099" lon="-2.35486">
        <ele>68</ele>
        <time>2019-09-22T07:24:42Z</time>
      </trkpt>
      <trkpt lat="47.28106" lon="-2.35483">
        <ele>69</ele>
        <time>2019-09-22T07:24:43Z</time>
      </trkpt>
      <trkpt lat="47.2811" lon="-2.35482">
        <ele>69</ele>
        <time>2019-09-22T07:24:44Z</time>
      </trkpt>
      <trkpt lat="47.28117" lon="-2.35478">
        <ele>70</ele>
        <time>2019-09-22T07:24:46Z</time>
      </trkpt>
      <trkpt lat="47.28121" lon="-2.35476">
        <ele>70</ele>
        <time>2019-09-22T07:24:47Z</time>
      </trkpt>
      <trkpt lat="47.28127" lon="-2.35473">
        <ele>70</ele>
        <time>2019-09-22T07:24:50Z</time>
      </trkpt>
      <trkpt lat="47.28135" lon="-2.3547">
        <ele>70</ele>
        <time>2019-09-22T07:24:51Z</time>
      </trkpt>
      <trkpt lat="47.28138" lon="-2.35469">
        <ele>70</ele>
        <time>2019-09-22T07:24:53Z</time>
      </trkpt>
      <trkpt lat="47.28148" lon="-2.35466">
        <ele>70</ele>
        <time>2019-09-22T07:24:56Z</time>
      </trkpt>
      <trkpt lat="47.28152" lon="-2.35465">
        <ele>70</ele>
        <time>2019-09-22T07:24:57Z</time>
      </trkpt>
      <trkpt lat="47.28156" lon="-2.35464">
        <ele>70</ele>
        <time>2019-09-22T07:24:58Z</time>
      </trkpt>
      <trkpt lat="47.28159" lon="-2.35462">
        <ele>70</ele>
        <time>2019-09-22T07:24:59Z</time>
      </trkpt>
      <trkpt lat="47.28169" lon="-2.3546">
        <ele>70</ele>
        <time>2019-09-22T07:25:02Z</time>
      </trkpt>
      <trkpt lat="47.28177" lon="-2.35457">
        <ele>70</ele>
        <time>2019-09-22T07:25:04Z</time>
      </trkpt>
      <trkpt lat="47.28184" lon="-2.35457">
        <ele>70</ele>
        <time>2019-09-22T07:25:06Z</time>
      </trkpt>
      <trkpt lat="47.28187" lon="-2.35457">
        <ele>70</ele>
        <time>2019-09-22T07:25:07Z</time>
      </trkpt>
      <trkpt lat="47.2819" lon="-2.35457">
        <ele>70</ele>
        <time>2019-09-22T07:25:08Z</time>
      </trkpt>
      <trkpt lat="47.28196" lon="-2.3545">
        <ele>71</ele>
        <time>2019-09-22T07:25:11Z</time>
      </trkpt>
      <trkpt lat="47.28199" lon="-2.35447">
        <ele>70</ele>
        <time>2019-09-22T07:25:12Z</time>
      </trkpt>
      <trkpt lat="47.28202" lon="-2.35444">
        <ele>70</ele>
        <time>2019-09-22T07:25:13Z</time>
      </trkpt>
      <trkpt lat="47.2821" lon="-2.35434">
        <ele>71</ele>
        <time>2019-09-22T07:25:15Z</time>
      </trkpt>
      <trkpt lat="47.28214" lon="-2.35429">
        <ele>71</ele>
        <time>2019-09-22T07:25:16Z</time>
      </trkpt>
      <trkpt lat="47.28222" lon="-2.35421">
        <ele>71</ele>
        <time>2019-09-22T07:25:18Z</time>
      </trkpt>
      <trkpt lat="47.28227" lon="-2.35417">
        <ele>71</ele>
        <time>2019-09-22T07:25:19Z</time>
      </trkpt>
      <trkpt lat="47.28232" lon="-2.35413">
        <ele>71</ele>
        <time>2019-09-22T07:25:20Z</time>
      </trkpt>
      <trkpt lat="47.2824" lon="-2.35405">
        <ele>71</ele>
        <time>2019-09-22T07:25:22Z</time>
      </trkpt>
      <trkpt lat="47.28249" lon="-2.35404">
        <ele>71</ele>
        <time>2019-09-22T07:25:25Z</time>
      </trkpt>
      <trkpt lat="47.28253" lon="-2.35408">
        <ele>72</ele>
        <time>2019-09-22T07:25:27Z</time>
      </trkpt>
      <trkpt lat="47.28258" lon="-2.35409">
        <ele>72</ele>
        <time>2019-09-22T07:25:28Z</time>
      </trkpt>
      <trkpt lat="47.28267" lon="-2.3541">
        <ele>73</ele>
        <time>2019-09-22T07:25:31Z</time>
      </trkpt>
      <trkpt lat="47.28272" lon="-2.35408">
        <ele>73</ele>
        <time>2019-09-22T07:25:33Z</time>
      </trkpt>
      <trkpt lat="47.28275" lon="-2.35406">
        <ele>73</ele>
        <time>2019-09-22T07:25:35Z</time>
      </trkpt>
      <trkpt lat="47.28278" lon="-2.35398">
        <ele>74</ele>
        <time>2019-09-22T07:25:38Z</time>
      </trkpt>
      <trkpt lat="47.28281" lon="-2.35393">
        <ele>74</ele>
        <time>2019-09-22T07:25:39Z</time>
      </trkpt>
      <trkpt lat="47.28284" lon="-2.35387">
        <ele>74</ele>
        <time>2019-09-22T07:25:40Z</time>
      </trkpt>
      <trkpt lat="47.28288" lon="-2.35383">
        <ele>74</ele>
        <time>2019-09-22T07:25:41Z</time>
      </trkpt>
      <trkpt lat="47.28292" lon="-2.35376">
        <ele>74</ele>
        <time>2019-09-22T07:25:42Z</time>
      </trkpt>
      <trkpt lat="47.28297" lon="-2.35371">
        <ele>75</ele>
        <time>2019-09-22T07:25:44Z</time>
      </trkpt>
      <trkpt lat="47.28305" lon="-2.35366">
        <ele>75</ele>
        <time>2019-09-22T07:25:45Z</time>
      </trkpt>
      <trkpt lat="47.28309" lon="-2.35362">
        <ele>75</ele>
        <time>2019-09-22T07:25:46Z</time>
      </trkpt>
      <trkpt lat="47.28319" lon="-2.35355">
        <ele>76</ele>
        <time>2019-09-22T07:25:50Z</time>
      </trkpt>
      <trkpt lat="47.28324" lon="-2.35353">
        <ele>76</ele>
        <time>2019-09-22T07:25:51Z</time>
      </trkpt>
      <trkpt lat="47.28331" lon="-2.35348">
        <ele>76</ele>
        <time>2019-09-22T07:25:52Z</time>
      </trkpt>
      <trkpt lat="47.28337" lon="-2.35345">
        <ele>76</ele>
        <time>2019-09-22T07:25:54Z</time>
      </trkpt>
      <trkpt lat="47.28343" lon="-2.35341">
        <ele>76</ele>
        <time>2019-09-22T07:25:56Z</time>
      </trkpt>
      <trkpt lat="47.28345" lon="-2.35339">
        <ele>76</ele>
        <time>2019-09-22T07:25:57Z</time>
      </trkpt>
      <trkpt lat="47.28351" lon="-2.35337">
        <ele>75</ele>
        <time>2019-09-22T07:26:00Z</time>
      </trkpt>
      <trkpt lat="47.28355" lon="-2.35342">
        <ele>75</ele>
        <time>2019-09-22T07:26:04Z</time>
      </trkpt>
      <trkpt lat="47.28358" lon="-2.35353">
        <ele>75</ele>
        <time>2019-09-22T07:26:09Z</time>
      </trkpt>
      <trkpt lat="47.28361" lon="-2.35362">
        <ele>75</ele>
        <time>2019-09-22T07:26:13Z</time>
      </trkpt>
      <trkpt lat="47.28363" lon="-2.35368">
        <ele>75</ele>
        <time>2019-09-22T07:26:16Z</time>
      </trkpt>
      <trkpt lat="47.28365" lon="-2.3538">
        <ele>76</ele>
        <time>2019-09-22T07:26:19Z</time>
      </trkpt>
      <trkpt lat="47.28366" lon="-2.35385">
        <ele>77</ele>
        <time>2019-09-22T07:26:21Z</time>
      </trkpt>
      <trkpt lat="47.2837" lon="-2.35392">
        <ele>77</ele>
        <time>2019-09-22T07:26:25Z</time>
      </trkpt>
      <trkpt lat="47.28375" lon="-2.35401">
        <ele>78</ele>
        <time>2019-09-22T07:26:28Z</time>
      </trkpt>
      <trkpt lat="47.28382" lon="-2.35409">
        <ele>78</ele>
        <time>2019-09-22T07:26:30Z</time>
      </trkpt>
      <trkpt lat="47.28384" lon="-2.35411">
        <ele>78</ele>
        <time>2019-09-22T07:26:31Z</time>
      </trkpt>
      <trkpt lat="47.28386" lon="-2.35413">
        <ele>78</ele>
        <time>2019-09-22T07:26:32Z</time>
      </trkpt>
      <trkpt lat="47.2839" lon="-2.35419">
        <ele>79</ele>
        <time>2019-09-22T07:26:35Z</time>
      </trkpt>
      <trkpt lat="47.28395" lon="-2.35423">
        <ele>80</ele>
        <time>2019-09-22T07:26:37Z</time>
      </trkpt>
      <trkpt lat="47.284" lon="-2.35426">
        <ele>80</ele>
        <time>2019-09-22T07:26:39Z</time>
      </trkpt>
      <trkpt lat="47.28403" lon="-2.35428">
        <ele>81</ele>
        <time>2019-09-22T07:26:40Z</time>
      </trkpt>
      <trkpt lat="47.28407" lon="-2.3543">
        <ele>80</ele>
        <time>2019-09-22T07:26:41Z</time>
      </trkpt>
      <trkpt lat="47.28414" lon="-2.35435">
        <ele>81</ele>
        <time>2019-09-22T07:26:43Z</time>
      </trkpt>
      <trkpt lat="47.28421" lon="-2.35439">
        <ele>82</ele>
        <time>2019-09-22T07:26:45Z</time>
      </trkpt>
      <trkpt lat="47.28427" lon="-2.35443">
        <ele>82</ele>
        <time>2019-09-22T07:26:48Z</time>
      </trkpt>
      <trkpt lat="47.28434" lon="-2.35441">
        <ele>83</ele>
        <time>2019-09-22T07:26:49Z</time>
      </trkpt>
      <trkpt lat="47.28442" lon="-2.35439">
        <ele>85</ele>
        <time>2019-09-22T07:26:54Z</time>
      </trkpt>
      <trkpt lat="47.28446" lon="-2.35438">
        <ele>86</ele>
        <time>2019-09-22T07:26:56Z</time>
      </trkpt>
      <trkpt lat="47.28453" lon="-2.35438">
        <ele>87</ele>
        <time>2019-09-22T07:27:00Z</time>
      </trkpt>
      <trkpt lat="47.28457" lon="-2.35442">
        <ele>88</ele>
        <time>2019-09-22T07:27:02Z</time>
      </trkpt>
      <trkpt lat="47.28466" lon="-2.35443">
        <ele>88</ele>
        <time>2019-09-22T07:27:05Z</time>
      </trkpt>
      <trkpt lat="47.28472" lon="-2.35441">
        <ele>88</ele>
        <time>2019-09-22T07:27:07Z</time>
      </trkpt>
      <trkpt lat="47.28478" lon="-2.35437">
        <ele>88</ele>
        <time>2019-09-22T07:27:09Z</time>
      </trkpt>
      <trkpt lat="47.28486" lon="-2.35437">
        <ele>89</ele>
        <time>2019-09-22T07:27:11Z</time>
      </trkpt>
      <trkpt lat="47.28493" lon="-2.35438">
        <ele>89</ele>
        <time>2019-09-22T07:27:12Z</time>
      </trkpt>
      <trkpt lat="47.28501" lon="-2.35435">
        <ele>90</ele>
        <time>2019-09-22T07:27:14Z</time>
      </trkpt>
      <trkpt lat="47.2852" lon="-2.35443">
        <ele>90</ele>
        <time>2019-09-22T07:27:20Z</time>
      </trkpt>
      <trkpt lat="47.28525" lon="-2.35445">
        <ele>90</ele>
        <time>2019-09-22T07:27:22Z</time>
      </trkpt>
      <trkpt lat="47.28531" lon="-2.35446">
        <ele>90</ele>
        <time>2019-09-22T07:27:25Z</time>
      </trkpt>
      <trkpt lat="47.28531" lon="-2.35446">
        <ele>26.2</ele>
        <time>2019-09-22T07:27:31Z</time>
      </trkpt>
      <trkpt lat="47.28531" lon="-2.35446">
        <ele>26.2</ele>
        <time>2019-09-22T07:27:37Z</time>
      </trkpt>
      <trkpt lat="47.28541" lon="-2.3544">
        <ele>89</ele>
        <time>2019-09-22T07:27:37Z</time>
      </trkpt>
      <trkpt lat="47.28557" lon="-2.35424">
        <ele>67</ele>
        <time>2019-09-22T07:27:42Z</time>
      </trkpt>
      <trkpt lat="47.28557" lon="-2.35417">
        <ele>74</ele>
        <time>2019-09-22T07:27:45Z</time>
      </trkpt>
      <trkpt lat="47.28565" lon="-2.35435">
        <ele>94</ele>
        <time>2019-09-22T07:27:52Z</time>
      </trkpt>
      <trkpt lat="47.28566" lon="-2.35447">
        <ele>94</ele>
        <time>2019-09-22T07:27:54Z</time>
      </trkpt>
      <trkpt lat="47.28567" lon="-2.35459">
        <ele>102</ele>
        <time>2019-09-22T07:27:56Z</time>
      </trkpt>
      <trkpt lat="47.2857" lon="-2.35465">
        <ele>104</ele>
        <time>2019-09-22T07:27:57Z</time>
      </trkpt>
      <trkpt lat="47.28571" lon="-2.35473">
        <ele>101</ele>
        <time>2019-09-22T07:27:58Z</time>
      </trkpt>
      <trkpt lat="47.28573" lon="-2.3548">
        <ele>99</ele>
        <time>2019-09-22T07:27:59Z</time>
      </trkpt>
      <trkpt lat="47.28576" lon="-2.355">
        <ele>106</ele>
        <time>2019-09-22T07:28:02Z</time>
      </trkpt>
      <trkpt lat="47.28579" lon="-2.35507">
        <ele>107</ele>
        <time>2019-09-22T07:28:03Z</time>
      </trkpt>
      <trkpt lat="47.2858" lon="-2.35514">
        <ele>108</ele>
        <time>2019-09-22T07:28:04Z</time>
      </trkpt>
      <trkpt lat="47.28581" lon="-2.35522">
        <ele>110</ele>
        <time>2019-09-22T07:28:05Z</time>
      </trkpt>
      <trkpt lat="47.28582" lon="-2.35531">
        <ele>110</ele>
        <time>2019-09-22T07:28:06Z</time>
      </trkpt>
      <trkpt lat="47.28583" lon="-2.3554">
        <ele>109</ele>
        <time>2019-09-22T07:28:08Z</time>
      </trkpt>
      <trkpt lat="47.28584" lon="-2.35548">
        <ele>109</ele>
        <time>2019-09-22T07:28:09Z</time>
      </trkpt>
      <trkpt lat="47.28588" lon="-2.35575">
        <ele>107</ele>
        <time>2019-09-22T07:28:12Z</time>
      </trkpt>
      <trkpt lat="47.28588" lon="-2.35585">
        <ele>106</ele>
        <time>2019-09-22T07:28:13Z</time>
      </trkpt>
      <trkpt lat="47.2859" lon="-2.35595">
        <ele>105</ele>
        <time>2019-09-22T07:28:14Z</time>
      </trkpt>
      <trkpt lat="47.28591" lon="-2.35605">
        <ele>103</ele>
        <time>2019-09-22T07:28:15Z</time>
      </trkpt>
      <trkpt lat="47.28592" lon="-2.35615">
        <ele>101</ele>
        <time>2019-09-22T07:28:16Z</time>
      </trkpt>
      <trkpt lat="47.28595" lon="-2.35633">
        <ele>99</ele>
        <time>2019-09-22T07:28:18Z</time>
      </trkpt>
      <trkpt lat="47.28596" lon="-2.35641">
        <ele>99</ele>
        <time>2019-09-22T07:28:19Z</time>
      </trkpt>
      <trkpt lat="47.28597" lon="-2.3565">
        <ele>98</ele>
        <time>2019-09-22T07:28:20Z</time>
      </trkpt>
      <trkpt lat="47.286" lon="-2.35674">
        <ele>98</ele>
        <time>2019-09-22T07:28:22Z</time>
      </trkpt>
      <trkpt lat="47.28601" lon="-2.35683">
        <ele>98</ele>
        <time>2019-09-22T07:28:23Z</time>
      </trkpt>
      <trkpt lat="47.28602" lon="-2.35692">
        <ele>98</ele>
        <time>2019-09-22T07:28:25Z</time>
      </trkpt>
      <trkpt lat="47.28603" lon="-2.35701">
        <ele>98</ele>
        <time>2019-09-22T07:28:26Z</time>
      </trkpt>
      <trkpt lat="47.28605" lon="-2.3571">
        <ele>98</ele>
        <time>2019-09-22T07:28:27Z</time>
      </trkpt>
      <trkpt lat="47.28607" lon="-2.35719">
        <ele>97</ele>
        <time>2019-09-22T07:28:28Z</time>
      </trkpt>
      <trkpt lat="47.2861" lon="-2.35727">
        <ele>96</ele>
        <time>2019-09-22T07:28:29Z</time>
      </trkpt>
      <trkpt lat="47.28614" lon="-2.35732">
        <ele>95</ele>
        <time>2019-09-22T07:28:30Z</time>
      </trkpt>
      <trkpt lat="47.28618" lon="-2.35738">
        <ele>94</ele>
        <time>2019-09-22T07:28:31Z</time>
      </trkpt>
      <trkpt lat="47.28622" lon="-2.35743">
        <ele>93</ele>
        <time>2019-09-22T07:28:32Z</time>
      </trkpt>
      <trkpt lat="47.28625" lon="-2.3575">
        <ele>93</ele>
        <time>2019-09-22T07:28:33Z</time>
      </trkpt>
      <trkpt lat="47.28626" lon="-2.35757">
        <ele>93</ele>
        <time>2019-09-22T07:28:34Z</time>
      </trkpt>
      <trkpt lat="47.28628" lon="-2.35765">
        <ele>93</ele>
        <time>2019-09-22T07:28:35Z</time>
      </trkpt>
      <trkpt lat="47.2863" lon="-2.35773">
        <ele>92</ele>
        <time>2019-09-22T07:28:36Z</time>
      </trkpt>
      <trkpt lat="47.28631" lon="-2.3578">
        <ele>92</ele>
        <time>2019-09-22T07:28:37Z</time>
      </trkpt>
      <trkpt lat="47.28633" lon="-2.35788">
        <ele>91</ele>
        <time>2019-09-22T07:28:38Z</time>
      </trkpt>
      <trkpt lat="47.28635" lon="-2.35795">
        <ele>91</ele>
        <time>2019-09-22T07:28:39Z</time>
      </trkpt>
      <trkpt lat="47.28637" lon="-2.35808">
        <ele>91</ele>
        <time>2019-09-22T07:28:41Z</time>
      </trkpt>
      <trkpt lat="47.28637" lon="-2.35814">
        <ele>91</ele>
        <time>2019-09-22T07:28:42Z</time>
      </trkpt>
      <trkpt lat="47.28638" lon="-2.3582">
        <ele>92</ele>
        <time>2019-09-22T07:28:43Z</time>
      </trkpt>
      <trkpt lat="47.28639" lon="-2.35827">
        <ele>92</ele>
        <time>2019-09-22T07:28:44Z</time>
      </trkpt>
      <trkpt lat="47.2864" lon="-2.35833">
        <ele>92</ele>
        <time>2019-09-22T07:28:45Z</time>
      </trkpt>
      <trkpt lat="47.28644" lon="-2.35844">
        <ele>91</ele>
        <time>2019-09-22T07:28:47Z</time>
      </trkpt>
      <trkpt lat="47.28647" lon="-2.35849">
        <ele>91</ele>
        <time>2019-09-22T07:28:48Z</time>
      </trkpt>
      <trkpt lat="47.28649" lon="-2.35855">
        <ele>91</ele>
        <time>2019-09-22T07:28:49Z</time>
      </trkpt>
      <trkpt lat="47.28652" lon="-2.35862">
        <ele>90</ele>
        <time>2019-09-22T07:28:50Z</time>
      </trkpt>
      <trkpt lat="47.28654" lon="-2.35868">
        <ele>91</ele>
        <time>2019-09-22T07:28:51Z</time>
      </trkpt>
      <trkpt lat="47.28656" lon="-2.35874">
        <ele>90</ele>
        <time>2019-09-22T07:28:52Z</time>
      </trkpt>
      <trkpt lat="47.28658" lon="-2.3588">
        <ele>90</ele>
        <time>2019-09-22T07:28:53Z</time>
      </trkpt>
      <trkpt lat="47.2866" lon="-2.35887">
        <ele>90</ele>
        <time>2019-09-22T07:28:54Z</time>
      </trkpt>
      <trkpt lat="47.28662" lon="-2.35893">
        <ele>90</ele>
        <time>2019-09-22T07:28:55Z</time>
      </trkpt>
      <trkpt lat="47.28666" lon="-2.35905">
        <ele>90</ele>
        <time>2019-09-22T07:28:57Z</time>
      </trkpt>
      <trkpt lat="47.28667" lon="-2.35911">
        <ele>90</ele>
        <time>2019-09-22T07:28:58Z</time>
      </trkpt>
      <trkpt lat="47.28667" lon="-2.35921">
        <ele>89</ele>
        <time>2019-09-22T07:29:00Z</time>
      </trkpt>
      <trkpt lat="47.28665" lon="-2.35929">
        <ele>89</ele>
        <time>2019-09-22T07:29:02Z</time>
      </trkpt>
      <trkpt lat="47.28664" lon="-2.35936">
        <ele>89</ele>
        <time>2019-09-22T07:29:05Z</time>
      </trkpt>
      <trkpt lat="47.28668" lon="-2.35942">
        <ele>90</ele>
        <time>2019-09-22T07:29:09Z</time>
      </trkpt>
      <trkpt lat="47.28668" lon="-2.35942">
        <ele>32.9</ele>
        <time>2019-09-22T07:29:16Z</time>
      </trkpt>
      <trkpt lat="47.28668" lon="-2.35942">
        <ele>32.9</ele>
        <time>2019-09-22T07:29:42Z</time>
      </trkpt>
      <trkpt lat="47.28678" lon="-2.35969">
        <ele>89</ele>
        <time>2019-09-22T07:29:42Z</time>
      </trkpt>
      <trkpt lat="47.2869" lon="-2.36001">
        <ele>88</ele>
        <time>2019-09-22T07:29:47Z</time>
      </trkpt>
      <trkpt lat="47.28696" lon="-2.36018">
        <ele>88</ele>
        <time>2019-09-22T07:29:48Z</time>
      </trkpt>
      <trkpt lat="47.28699" lon="-2.36027">
        <ele>87</ele>
        <time>2019-09-22T07:29:49Z</time>
      </trkpt>
      <trkpt lat="47.28709" lon="-2.3605">
        <ele>90</ele>
        <time>2019-09-22T07:29:52Z</time>
      </trkpt>
      <trkpt lat="47.28711" lon="-2.36057">
        <ele>89</ele>
        <time>2019-09-22T07:29:53Z</time>
      </trkpt>
      <trkpt lat="47.28714" lon="-2.36065">
        <ele>90</ele>
        <time>2019-09-22T07:29:54Z</time>
      </trkpt>
      <trkpt lat="47.28718" lon="-2.36072">
        <ele>90</ele>
        <time>2019-09-22T07:29:55Z</time>
      </trkpt>
      <trkpt lat="47.28721" lon="-2.3608">
        <ele>90</ele>
        <time>2019-09-22T07:29:56Z</time>
      </trkpt>
      <trkpt lat="47.28724" lon="-2.36088">
        <ele>89</ele>
        <time>2019-09-22T07:29:58Z</time>
      </trkpt>
      <trkpt lat="47.28727" lon="-2.36096">
        <ele>89</ele>
        <time>2019-09-22T07:29:59Z</time>
      </trkpt>
      <trkpt lat="47.2873" lon="-2.36104">
        <ele>89</ele>
        <time>2019-09-22T07:30:00Z</time>
      </trkpt>
      <trkpt lat="47.28732" lon="-2.36112">
        <ele>89</ele>
        <time>2019-09-22T07:30:01Z</time>
      </trkpt>
      <trkpt lat="47.28737" lon="-2.36127">
        <ele>90</ele>
        <time>2019-09-22T07:30:03Z</time>
      </trkpt>
      <trkpt lat="47.28739" lon="-2.36135">
        <ele>89</ele>
        <time>2019-09-22T07:30:04Z</time>
      </trkpt>
      <trkpt lat="47.28741" lon="-2.36142">
        <ele>89</ele>
        <time>2019-09-22T07:30:05Z</time>
      </trkpt>
      <trkpt lat="47.28742" lon="-2.36149">
        <ele>89</ele>
        <time>2019-09-22T07:30:06Z</time>
      </trkpt>
      <trkpt lat="47.28745" lon="-2.36162">
        <ele>91</ele>
        <time>2019-09-22T07:30:07Z</time>
      </trkpt>
      <trkpt lat="47.28747" lon="-2.36175">
        <ele>91</ele>
        <time>2019-09-22T07:30:09Z</time>
      </trkpt>
      <trkpt lat="47.28747" lon="-2.3618">
        <ele>92</ele>
        <time>2019-09-22T07:30:11Z</time>
      </trkpt>
      <trkpt lat="47.2875" lon="-2.3619">
        <ele>93</ele>
        <time>2019-09-22T07:30:13Z</time>
      </trkpt>
      <trkpt lat="47.28753" lon="-2.36201">
        <ele>93</ele>
        <time>2019-09-22T07:30:15Z</time>
      </trkpt>
      <trkpt lat="47.28759" lon="-2.36211">
        <ele>93</ele>
        <time>2019-09-22T07:30:17Z</time>
      </trkpt>
      <trkpt lat="47.28768" lon="-2.36211">
        <ele>93</ele>
        <time>2019-09-22T07:30:19Z</time>
      </trkpt>
      <trkpt lat="47.28774" lon="-2.36207">
        <ele>92</ele>
        <time>2019-09-22T07:30:20Z</time>
      </trkpt>
      <trkpt lat="47.2878" lon="-2.36203">
        <ele>93</ele>
        <time>2019-09-22T07:30:21Z</time>
      </trkpt>
      <trkpt lat="47.28785" lon="-2.36199">
        <ele>92</ele>
        <time>2019-09-22T07:30:22Z</time>
      </trkpt>
      <trkpt lat="47.28798" lon="-2.3619">
        <ele>91</ele>
        <time>2019-09-22T07:30:24Z</time>
      </trkpt>
      <trkpt lat="47.28804" lon="-2.36186">
        <ele>91</ele>
        <time>2019-09-22T07:30:25Z</time>
      </trkpt>
      <trkpt lat="47.28809" lon="-2.36181">
        <ele>90</ele>
        <time>2019-09-22T07:30:26Z</time>
      </trkpt>
      <trkpt lat="47.28825" lon="-2.36164">
        <ele>89</ele>
        <time>2019-09-22T07:30:29Z</time>
      </trkpt>
      <trkpt lat="47.28829" lon="-2.36157">
        <ele>88</ele>
        <time>2019-09-22T07:30:30Z</time>
      </trkpt>
      <trkpt lat="47.28834" lon="-2.36151">
        <ele>87</ele>
        <time>2019-09-22T07:30:31Z</time>
      </trkpt>
      <trkpt lat="47.28839" lon="-2.36145">
        <ele>87</ele>
        <time>2019-09-22T07:30:32Z</time>
      </trkpt>
      <trkpt lat="47.28844" lon="-2.36139">
        <ele>86</ele>
        <time>2019-09-22T07:30:33Z</time>
      </trkpt>
      <trkpt lat="47.28849" lon="-2.36133">
        <ele>85</ele>
        <time>2019-09-22T07:30:34Z</time>
      </trkpt>
      <trkpt lat="47.28854" lon="-2.36127">
        <ele>84</ele>
        <time>2019-09-22T07:30:35Z</time>
      </trkpt>
      <trkpt lat="47.28859" lon="-2.36122">
        <ele>84</ele>
        <time>2019-09-22T07:30:36Z</time>
      </trkpt>
      <trkpt lat="47.28865" lon="-2.36117">
        <ele>84</ele>
        <time>2019-09-22T07:30:37Z</time>
      </trkpt>
      <trkpt lat="47.2887" lon="-2.36111">
        <ele>84</ele>
        <time>2019-09-22T07:30:38Z</time>
      </trkpt>
      <trkpt lat="47.28886" lon="-2.36094">
        <ele>83</ele>
        <time>2019-09-22T07:30:40Z</time>
      </trkpt>
      <trkpt lat="47.28891" lon="-2.36089">
        <ele>83</ele>
        <time>2019-09-22T07:30:41Z</time>
      </trkpt>
      <trkpt lat="47.28896" lon="-2.36084">
        <ele>83</ele>
        <time>2019-09-22T07:30:42Z</time>
      </trkpt>
      <trkpt lat="47.28901" lon="-2.36078">
        <ele>82</ele>
        <time>2019-09-22T07:30:43Z</time>
      </trkpt>
      <trkpt lat="47.28911" lon="-2.36069">
        <ele>82</ele>
        <time>2019-09-22T07:30:45Z</time>
      </trkpt>
      <trkpt lat="47.28916" lon="-2.36064">
        <ele>82</ele>
        <time>2019-09-22T07:30:46Z</time>
      </trkpt>
      <trkpt lat="47.28927" lon="-2.36057">
        <ele>82</ele>
        <time>2019-09-22T07:30:48Z</time>
      </trkpt>
      <trkpt lat="47.28933" lon="-2.36053">
        <ele>82</ele>
        <time>2019-09-22T07:30:49Z</time>
      </trkpt>
      <trkpt lat="47.2896" lon="-2.36036">
        <ele>80</ele>
        <time>2019-09-22T07:30:54Z</time>
      </trkpt>
      <trkpt lat="47.28965" lon="-2.36032">
        <ele>80</ele>
        <time>2019-09-22T07:30:55Z</time>
      </trkpt>
      <trkpt lat="47.2897" lon="-2.36027">
        <ele>80</ele>
        <time>2019-09-22T07:30:56Z</time>
      </trkpt>
      <trkpt lat="47.28979" lon="-2.36017">
        <ele>80</ele>
        <time>2019-09-22T07:30:58Z</time>
      </trkpt>
      <trkpt lat="47.28983" lon="-2.36013">
        <ele>80</ele>
        <time>2019-09-22T07:30:59Z</time>
      </trkpt>
      <trkpt lat="47.28988" lon="-2.36008">
        <ele>81</ele>
        <time>2019-09-22T07:31:00Z</time>
      </trkpt>
      <trkpt lat="47.29009" lon="-2.35989">
        <ele>81</ele>
        <time>2019-09-22T07:31:04Z</time>
      </trkpt>
      <trkpt lat="47.29014" lon="-2.35984">
        <ele>81</ele>
        <time>2019-09-22T07:31:05Z</time>
      </trkpt>
      <trkpt lat="47.29019" lon="-2.35978">
        <ele>82</ele>
        <time>2019-09-22T07:31:06Z</time>
      </trkpt>
      <trkpt lat="47.29029" lon="-2.35969">
        <ele>81</ele>
        <time>2019-09-22T07:31:08Z</time>
      </trkpt>
      <trkpt lat="47.29034" lon="-2.35964">
        <ele>81</ele>
        <time>2019-09-22T07:31:09Z</time>
      </trkpt>
      <trkpt lat="47.29039" lon="-2.35958">
        <ele>81</ele>
        <time>2019-09-22T07:31:10Z</time>
      </trkpt>
      <trkpt lat="47.29044" lon="-2.35951">
        <ele>81</ele>
        <time>2019-09-22T07:31:11Z</time>
      </trkpt>
      <trkpt lat="47.29049" lon="-2.35946">
        <ele>81</ele>
        <time>2019-09-22T07:31:12Z</time>
      </trkpt>
      <trkpt lat="47.29054" lon="-2.35939">
        <ele>81</ele>
        <time>2019-09-22T07:31:13Z</time>
      </trkpt>
      <trkpt lat="47.29059" lon="-2.35934">
        <ele>81</ele>
        <time>2019-09-22T07:31:14Z</time>
      </trkpt>
      <trkpt lat="47.29069" lon="-2.35923">
        <ele>81</ele>
        <time>2019-09-22T07:31:16Z</time>
      </trkpt>
      <trkpt lat="47.29074" lon="-2.35917">
        <ele>81</ele>
        <time>2019-09-22T07:31:17Z</time>
      </trkpt>
      <trkpt lat="47.29079" lon="-2.3591">
        <ele>80</ele>
        <time>2019-09-22T07:31:18Z</time>
      </trkpt>
      <trkpt lat="47.29084" lon="-2.35904">
        <ele>81</ele>
        <time>2019-09-22T07:31:20Z</time>
      </trkpt>
      <trkpt lat="47.29089" lon="-2.35899">
        <ele>81</ele>
        <time>2019-09-22T07:31:21Z</time>
      </trkpt>
      <trkpt lat="47.29105" lon="-2.3588">
        <ele>80</ele>
        <time>2019-09-22T07:31:24Z</time>
      </trkpt>
      <trkpt lat="47.2911" lon="-2.35874">
        <ele>80</ele>
        <time>2019-09-22T07:31:25Z</time>
      </trkpt>
      <trkpt lat="47.2912" lon="-2.35862">
        <ele>80</ele>
        <time>2019-09-22T07:31:27Z</time>
      </trkpt>
      <trkpt lat="47.29125" lon="-2.35856">
        <ele>80</ele>
        <time>2019-09-22T07:31:28Z</time>
      </trkpt>
      <trkpt lat="47.29131" lon="-2.3585">
        <ele>80</ele>
        <time>2019-09-22T07:31:29Z</time>
      </trkpt>
      <trkpt lat="47.29136" lon="-2.35844">
        <ele>79</ele>
        <time>2019-09-22T07:31:30Z</time>
      </trkpt>
      <trkpt lat="47.29141" lon="-2.35838">
        <ele>79</ele>
        <time>2019-09-22T07:31:31Z</time>
      </trkpt>
      <trkpt lat="47.29147" lon="-2.35833">
        <ele>79</ele>
        <time>2019-09-22T07:31:32Z</time>
      </trkpt>
      <trkpt lat="47.29152" lon="-2.35828">
        <ele>79</ele>
        <time>2019-09-22T07:31:33Z</time>
      </trkpt>
      <trkpt lat="47.29157" lon="-2.35823">
        <ele>79</ele>
        <time>2019-09-22T07:31:34Z</time>
      </trkpt>
      <trkpt lat="47.29162" lon="-2.35819">
        <ele>79</ele>
        <time>2019-09-22T07:31:35Z</time>
      </trkpt>
      <trkpt lat="47.2918" lon="-2.35807">
        <ele>80</ele>
        <time>2019-09-22T07:31:37Z</time>
      </trkpt>
      <trkpt lat="47.29185" lon="-2.35804">
        <ele>80</ele>
        <time>2019-09-22T07:31:38Z</time>
      </trkpt>
      <trkpt lat="47.29191" lon="-2.358">
        <ele>80</ele>
        <time>2019-09-22T07:31:39Z</time>
      </trkpt>
      <trkpt lat="47.29202" lon="-2.35792">
        <ele>80</ele>
        <time>2019-09-22T07:31:41Z</time>
      </trkpt>
      <trkpt lat="47.29207" lon="-2.35788">
        <ele>80</ele>
        <time>2019-09-22T07:31:42Z</time>
      </trkpt>
      <trkpt lat="47.29212" lon="-2.35782">
        <ele>80</ele>
        <time>2019-09-22T07:31:43Z</time>
      </trkpt>
      <trkpt lat="47.29217" lon="-2.35779">
        <ele>81</ele>
        <time>2019-09-22T07:31:44Z</time>
      </trkpt>
      <trkpt lat="47.29221" lon="-2.35775">
        <ele>81</ele>
        <time>2019-09-22T07:31:45Z</time>
      </trkpt>
      <trkpt lat="47.29225" lon="-2.35771">
        <ele>81</ele>
        <time>2019-09-22T07:31:46Z</time>
      </trkpt>
      <trkpt lat="47.2923" lon="-2.35767">
        <ele>81</ele>
        <time>2019-09-22T07:31:48Z</time>
      </trkpt>
      <trkpt lat="47.29234" lon="-2.35763">
        <ele>80</ele>
        <time>2019-09-22T07:31:49Z</time>
      </trkpt>
      <trkpt lat="47.29238" lon="-2.35759">
        <ele>81</ele>
        <time>2019-09-22T07:31:50Z</time>
      </trkpt>
      <trkpt lat="47.29242" lon="-2.35754">
        <ele>81</ele>
        <time>2019-09-22T07:31:51Z</time>
      </trkpt>
      <trkpt lat="47.29245" lon="-2.35749">
        <ele>81</ele>
        <time>2019-09-22T07:31:52Z</time>
      </trkpt>
      <trkpt lat="47.29248" lon="-2.35745">
        <ele>81</ele>
        <time>2019-09-22T07:31:53Z</time>
      </trkpt>
      <trkpt lat="47.29252" lon="-2.35736">
        <ele>81</ele>
        <time>2019-09-22T07:31:55Z</time>
      </trkpt>
      <trkpt lat="47.29257" lon="-2.35731">
        <ele>82</ele>
        <time>2019-09-22T07:31:57Z</time>
      </trkpt>
      <trkpt lat="47.2927" lon="-2.35736">
        <ele>83</ele>
        <time>2019-09-22T07:32:01Z</time>
      </trkpt>
      <trkpt lat="47.29282" lon="-2.35746">
        <ele>83</ele>
        <time>2019-09-22T07:32:04Z</time>
      </trkpt>
      <trkpt lat="47.29296" lon="-2.3576">
        <ele>83</ele>
        <time>2019-09-22T07:32:07Z</time>
      </trkpt>
      <trkpt lat="47.29301" lon="-2.35765">
        <ele>83</ele>
        <time>2019-09-22T07:32:08Z</time>
      </trkpt>
      <trkpt lat="47.29307" lon="-2.35769">
        <ele>83</ele>
        <time>2019-09-22T07:32:09Z</time>
      </trkpt>
      <trkpt lat="47.29317" lon="-2.35778">
        <ele>83</ele>
        <time>2019-09-22T07:32:11Z</time>
      </trkpt>
      <trkpt lat="47.29328" lon="-2.35788">
        <ele>83</ele>
        <time>2019-09-22T07:32:13Z</time>
      </trkpt>
      <trkpt lat="47.29333" lon="-2.35793">
        <ele>83</ele>
        <time>2019-09-22T07:32:14Z</time>
      </trkpt>
      <trkpt lat="47.29338" lon="-2.35799">
        <ele>83</ele>
        <time>2019-09-22T07:32:15Z</time>
      </trkpt>
      <trkpt lat="47.29343" lon="-2.35803">
        <ele>83</ele>
        <time>2019-09-22T07:32:16Z</time>
      </trkpt>
      <trkpt lat="47.29349" lon="-2.35808">
        <ele>83</ele>
        <time>2019-09-22T07:32:17Z</time>
      </trkpt>
      <trkpt lat="47.29354" lon="-2.35812">
        <ele>83</ele>
        <time>2019-09-22T07:32:19Z</time>
      </trkpt>
      <trkpt lat="47.29359" lon="-2.35817">
        <ele>83</ele>
        <time>2019-09-22T07:32:20Z</time>
      </trkpt>
      <trkpt lat="47.29369" lon="-2.35826">
        <ele>83</ele>
        <time>2019-09-22T07:32:22Z</time>
      </trkpt>
      <trkpt lat="47.29374" lon="-2.35831">
        <ele>83</ele>
        <time>2019-09-22T07:32:23Z</time>
      </trkpt>
      <trkpt lat="47.29378" lon="-2.35835">
        <ele>83</ele>
        <time>2019-09-22T07:32:24Z</time>
      </trkpt>
      <trkpt lat="47.29382" lon="-2.35839">
        <ele>83</ele>
        <time>2019-09-22T07:32:25Z</time>
      </trkpt>
      <trkpt lat="47.29387" lon="-2.35844">
        <ele>84</ele>
        <time>2019-09-22T07:32:26Z</time>
      </trkpt>
      <trkpt lat="47.29392" lon="-2.35848">
        <ele>83</ele>
        <time>2019-09-22T07:32:27Z</time>
      </trkpt>
      <trkpt lat="47.29396" lon="-2.35853">
        <ele>83</ele>
        <time>2019-09-22T07:32:28Z</time>
      </trkpt>
      <trkpt lat="47.29408" lon="-2.35867">
        <ele>82</ele>
        <time>2019-09-22T07:32:30Z</time>
      </trkpt>
      <trkpt lat="47.29416" lon="-2.35877">
        <ele>82</ele>
        <time>2019-09-22T07:32:32Z</time>
      </trkpt>
      <trkpt lat="47.2942" lon="-2.35882">
        <ele>82</ele>
        <time>2019-09-22T07:32:33Z</time>
      </trkpt>
      <trkpt lat="47.29424" lon="-2.35887">
        <ele>82</ele>
        <time>2019-09-22T07:32:34Z</time>
      </trkpt>
      <trkpt lat="47.29428" lon="-2.35891">
        <ele>82</ele>
        <time>2019-09-22T07:32:35Z</time>
      </trkpt>
      <trkpt lat="47.29432" lon="-2.35896">
        <ele>81</ele>
        <time>2019-09-22T07:32:36Z</time>
      </trkpt>
      <trkpt lat="47.29435" lon="-2.35899">
        <ele>82</ele>
        <time>2019-09-22T07:32:37Z</time>
      </trkpt>
      <trkpt lat="47.2944" lon="-2.35902">
        <ele>82</ele>
        <time>2019-09-22T07:32:39Z</time>
      </trkpt>
      <trkpt lat="47.29444" lon="-2.35904">
        <ele>82</ele>
        <time>2019-09-22T07:32:41Z</time>
      </trkpt>
      <trkpt lat="47.29448" lon="-2.35904">
        <ele>82</ele>
        <time>2019-09-22T07:32:43Z</time>
      </trkpt>
      <trkpt lat="47.29453" lon="-2.35905">
        <ele>83</ele>
        <time>2019-09-22T07:32:46Z</time>
      </trkpt>
      <trkpt lat="47.29459" lon="-2.35904">
        <ele>82</ele>
        <time>2019-09-22T07:32:49Z</time>
      </trkpt>
      <trkpt lat="47.29463" lon="-2.35903">
        <ele>82</ele>
        <time>2019-09-22T07:32:51Z</time>
      </trkpt>
      <trkpt lat="47.2947" lon="-2.35903">
        <ele>82</ele>
        <time>2019-09-22T07:32:55Z</time>
      </trkpt>
      <trkpt lat="47.29476" lon="-2.35903">
        <ele>83</ele>
        <time>2019-09-22T07:32:58Z</time>
      </trkpt>
      <trkpt lat="47.29479" lon="-2.35903">
        <ele>83</ele>
        <time>2019-09-22T07:32:59Z</time>
      </trkpt>
      <trkpt lat="47.29483" lon="-2.35902">
        <ele>83</ele>
        <time>2019-09-22T07:33:01Z</time>
      </trkpt>
      <trkpt lat="47.29492" lon="-2.35899">
        <ele>84</ele>
        <time>2019-09-22T07:33:05Z</time>
      </trkpt>
      <trkpt lat="47.29498" lon="-2.35903">
        <ele>85</ele>
        <time>2019-09-22T07:33:08Z</time>
      </trkpt>
      <trkpt lat="47.29501" lon="-2.3591">
        <ele>85</ele>
        <time>2019-09-22T07:33:11Z</time>
      </trkpt>
      <trkpt lat="47.29503" lon="-2.35916">
        <ele>85</ele>
        <time>2019-09-22T07:33:13Z</time>
      </trkpt>
      <trkpt lat="47.29506" lon="-2.35924">
        <ele>86</ele>
        <time>2019-09-22T07:33:16Z</time>
      </trkpt>
      <trkpt lat="47.29508" lon="-2.35929">
        <ele>87</ele>
        <time>2019-09-22T07:33:18Z</time>
      </trkpt>
      <trkpt lat="47.29508" lon="-2.35929">
        <ele>35</ele>
        <time>2019-09-22T07:33:23Z</time>
      </trkpt>
      <trkpt lat="47.29508" lon="-2.35929">
        <ele>35</ele>
        <time>2019-09-22T07:35:57Z</time>
      </trkpt>
      <trkpt lat="47.29528" lon="-2.35936">
        <ele>85</ele>
        <time>2019-09-22T07:35:57Z</time>
      </trkpt>
      <trkpt lat="47.29554" lon="-2.35922">
        <ele>88</ele>
        <time>2019-09-22T07:36:03Z</time>
      </trkpt>
      <trkpt lat="47.29568" lon="-2.35916">
        <ele>86</ele>
        <time>2019-09-22T07:36:05Z</time>
      </trkpt>
      <trkpt lat="47.29584" lon="-2.35907">
        <ele>85</ele>
        <time>2019-09-22T07:36:08Z</time>
      </trkpt>
      <trkpt lat="47.29601" lon="-2.35896">
        <ele>85</ele>
        <time>2019-09-22T07:36:11Z</time>
      </trkpt>
      <trkpt lat="47.29605" lon="-2.35893">
        <ele>86</ele>
        <time>2019-09-22T07:36:12Z</time>
      </trkpt>
      <trkpt lat="47.2961" lon="-2.35889">
        <ele>86</ele>
        <time>2019-09-22T07:36:13Z</time>
      </trkpt>
      <trkpt lat="47.29615" lon="-2.35884">
        <ele>85</ele>
        <time>2019-09-22T07:36:14Z</time>
      </trkpt>
      <trkpt lat="47.2962" lon="-2.35881">
        <ele>85</ele>
        <time>2019-09-22T07:36:15Z</time>
      </trkpt>
      <trkpt lat="47.29625" lon="-2.35878">
        <ele>85</ele>
        <time>2019-09-22T07:36:16Z</time>
      </trkpt>
      <trkpt lat="47.29634" lon="-2.35873">
        <ele>85</ele>
        <time>2019-09-22T07:36:18Z</time>
      </trkpt>
      <trkpt lat="47.29643" lon="-2.35867">
        <ele>86</ele>
        <time>2019-09-22T07:36:20Z</time>
      </trkpt>
      <trkpt lat="47.29647" lon="-2.35864">
        <ele>86</ele>
        <time>2019-09-22T07:36:21Z</time>
      </trkpt>
      <trkpt lat="47.2965" lon="-2.35859">
        <ele>85</ele>
        <time>2019-09-22T07:36:22Z</time>
      </trkpt>
      <trkpt lat="47.29654" lon="-2.35847">
        <ele>84</ele>
        <time>2019-09-22T07:36:25Z</time>
      </trkpt>
      <trkpt lat="47.2966" lon="-2.35838">
        <ele>84</ele>
        <time>2019-09-22T07:36:27Z</time>
      </trkpt>
      <trkpt lat="47.29664" lon="-2.35837">
        <ele>84</ele>
        <time>2019-09-22T07:36:28Z</time>
      </trkpt>
      <trkpt lat="47.29669" lon="-2.35837">
        <ele>84</ele>
        <time>2019-09-22T07:36:29Z</time>
      </trkpt>
      <trkpt lat="47.29674" lon="-2.35837">
        <ele>83</ele>
        <time>2019-09-22T07:36:30Z</time>
      </trkpt>
      <trkpt lat="47.29686" lon="-2.35838">
        <ele>83</ele>
        <time>2019-09-22T07:36:32Z</time>
      </trkpt>
      <trkpt lat="47.29692" lon="-2.35837">
        <ele>83</ele>
        <time>2019-09-22T07:36:33Z</time>
      </trkpt>
      <trkpt lat="47.29699" lon="-2.35835">
        <ele>83</ele>
        <time>2019-09-22T07:36:34Z</time>
      </trkpt>
      <trkpt lat="47.29705" lon="-2.35832">
        <ele>83</ele>
        <time>2019-09-22T07:36:35Z</time>
      </trkpt>
      <trkpt lat="47.29717" lon="-2.35825">
        <ele>83</ele>
        <time>2019-09-22T07:36:37Z</time>
      </trkpt>
      <trkpt lat="47.29722" lon="-2.35822">
        <ele>83</ele>
        <time>2019-09-22T07:36:38Z</time>
      </trkpt>
      <trkpt lat="47.29732" lon="-2.35816">
        <ele>83</ele>
        <time>2019-09-22T07:36:40Z</time>
      </trkpt>
      <trkpt lat="47.29736" lon="-2.35813">
        <ele>83</ele>
        <time>2019-09-22T07:36:41Z</time>
      </trkpt>
      <trkpt lat="47.29741" lon="-2.3581">
        <ele>83</ele>
        <time>2019-09-22T07:36:42Z</time>
      </trkpt>
      <trkpt lat="47.29746" lon="-2.35808">
        <ele>83</ele>
        <time>2019-09-22T07:36:43Z</time>
      </trkpt>
      <trkpt lat="47.2975" lon="-2.35804">
        <ele>83</ele>
        <time>2019-09-22T07:36:44Z</time>
      </trkpt>
      <trkpt lat="47.29755" lon="-2.35802">
        <ele>83</ele>
        <time>2019-09-22T07:36:45Z</time>
      </trkpt>
      <trkpt lat="47.2976" lon="-2.358">
        <ele>83</ele>
        <time>2019-09-22T07:36:46Z</time>
      </trkpt>
      <trkpt lat="47.29764" lon="-2.35798">
        <ele>83</ele>
        <time>2019-09-22T07:36:47Z</time>
      </trkpt>
      <trkpt lat="47.29769" lon="-2.35796">
        <ele>83</ele>
        <time>2019-09-22T07:36:48Z</time>
      </trkpt>
      <trkpt lat="47.29774" lon="-2.35795">
        <ele>83</ele>
        <time>2019-09-22T07:36:49Z</time>
      </trkpt>
      <trkpt lat="47.29779" lon="-2.35794">
        <ele>84</ele>
        <time>2019-09-22T07:36:50Z</time>
      </trkpt>
      <trkpt lat="47.29783" lon="-2.35793">
        <ele>84</ele>
        <time>2019-09-22T07:36:51Z</time>
      </trkpt>
      <trkpt lat="47.29793" lon="-2.3579">
        <ele>83</ele>
        <time>2019-09-22T07:36:53Z</time>
      </trkpt>
      <trkpt lat="47.29797" lon="-2.35789">
        <ele>83</ele>
        <time>2019-09-22T07:36:54Z</time>
      </trkpt>
      <trkpt lat="47.29802" lon="-2.35787">
        <ele>83</ele>
        <time>2019-09-22T07:36:55Z</time>
      </trkpt>
      <trkpt lat="47.29807" lon="-2.35786">
        <ele>83</ele>
        <time>2019-09-22T07:36:56Z</time>
      </trkpt>
      <trkpt lat="47.29817" lon="-2.35782">
        <ele>83</ele>
        <time>2019-09-22T07:36:58Z</time>
      </trkpt>
      <trkpt lat="47.29823" lon="-2.3578">
        <ele>83</ele>
        <time>2019-09-22T07:36:59Z</time>
      </trkpt>
      <trkpt lat="47.29828" lon="-2.35778">
        <ele>83</ele>
        <time>2019-09-22T07:37:00Z</time>
      </trkpt>
      <trkpt lat="47.29834" lon="-2.35776">
        <ele>83</ele>
        <time>2019-09-22T07:37:01Z</time>
      </trkpt>
      <trkpt lat="47.2984" lon="-2.35774">
        <ele>83</ele>
        <time>2019-09-22T07:37:02Z</time>
      </trkpt>
      <trkpt lat="47.29847" lon="-2.35772">
        <ele>82</ele>
        <time>2019-09-22T07:37:03Z</time>
      </trkpt>
      <trkpt lat="47.29854" lon="-2.3577">
        <ele>82</ele>
        <time>2019-09-22T07:37:04Z</time>
      </trkpt>
      <trkpt lat="47.29861" lon="-2.35767">
        <ele>82</ele>
        <time>2019-09-22T07:37:05Z</time>
      </trkpt>
      <trkpt lat="47.29868" lon="-2.35765">
        <ele>82</ele>
        <time>2019-09-22T07:37:06Z</time>
      </trkpt>
      <trkpt lat="47.29875" lon="-2.35763">
        <ele>82</ele>
        <time>2019-09-22T07:37:07Z</time>
      </trkpt>
      <trkpt lat="47.29882" lon="-2.3576">
        <ele>82</ele>
        <time>2019-09-22T07:37:08Z</time>
      </trkpt>
      <trkpt lat="47.29889" lon="-2.35757">
        <ele>82</ele>
        <time>2019-09-22T07:37:09Z</time>
      </trkpt>
      <trkpt lat="47.29895" lon="-2.35753">
        <ele>82</ele>
        <time>2019-09-22T07:37:10Z</time>
      </trkpt>
      <trkpt lat="47.29901" lon="-2.3575">
        <ele>82</ele>
        <time>2019-09-22T07:37:11Z</time>
      </trkpt>
      <trkpt lat="47.29907" lon="-2.35746">
        <ele>82</ele>
        <time>2019-09-22T07:37:12Z</time>
      </trkpt>
      <trkpt lat="47.29912" lon="-2.35741">
        <ele>82</ele>
        <time>2019-09-22T07:37:13Z</time>
      </trkpt>
      <trkpt lat="47.29918" lon="-2.35737">
        <ele>82</ele>
        <time>2019-09-22T07:37:14Z</time>
      </trkpt>
      <trkpt lat="47.29923" lon="-2.35733">
        <ele>83</ele>
        <time>2019-09-22T07:37:15Z</time>
      </trkpt>
      <trkpt lat="47.29929" lon="-2.35728">
        <ele>83</ele>
        <time>2019-09-22T07:37:16Z</time>
      </trkpt>
      <trkpt lat="47.29935" lon="-2.35724">
        <ele>83</ele>
        <time>2019-09-22T07:37:17Z</time>
      </trkpt>
      <trkpt lat="47.2994" lon="-2.35719">
        <ele>84</ele>
        <time>2019-09-22T07:37:18Z</time>
      </trkpt>
      <trkpt lat="47.29965" lon="-2.35703">
        <ele>84</ele>
        <time>2019-09-22T07:37:22Z</time>
      </trkpt>
      <trkpt lat="47.29971" lon="-2.357">
        <ele>85</ele>
        <time>2019-09-22T07:37:23Z</time>
      </trkpt>
      <trkpt lat="47.29976" lon="-2.35697">
        <ele>85</ele>
        <time>2019-09-22T07:37:24Z</time>
      </trkpt>
      <trkpt lat="47.29983" lon="-2.35693">
        <ele>85</ele>
        <time>2019-09-22T07:37:25Z</time>
      </trkpt>
      <trkpt lat="47.3" lon="-2.35683">
        <ele>85</ele>
        <time>2019-09-22T07:37:28Z</time>
      </trkpt>
      <trkpt lat="47.30006" lon="-2.35679">
        <ele>85</ele>
        <time>2019-09-22T07:37:29Z</time>
      </trkpt>
      <trkpt lat="47.30011" lon="-2.35676">
        <ele>85</ele>
        <time>2019-09-22T07:37:30Z</time>
      </trkpt>
      <trkpt lat="47.30017" lon="-2.35672">
        <ele>85</ele>
        <time>2019-09-22T07:37:31Z</time>
      </trkpt>
      <trkpt lat="47.30023" lon="-2.35669">
        <ele>85</ele>
        <time>2019-09-22T07:37:32Z</time>
      </trkpt>
      <trkpt lat="47.30028" lon="-2.35666">
        <ele>85</ele>
        <time>2019-09-22T07:37:33Z</time>
      </trkpt>
      <trkpt lat="47.30039" lon="-2.35659">
        <ele>85</ele>
        <time>2019-09-22T07:37:35Z</time>
      </trkpt>
      <trkpt lat="47.30045" lon="-2.35655">
        <ele>86</ele>
        <time>2019-09-22T07:37:36Z</time>
      </trkpt>
      <trkpt lat="47.3005" lon="-2.35652">
        <ele>86</ele>
        <time>2019-09-22T07:37:37Z</time>
      </trkpt>
      <trkpt lat="47.30056" lon="-2.35648">
        <ele>87</ele>
        <time>2019-09-22T07:37:38Z</time>
      </trkpt>
      <trkpt lat="47.30061" lon="-2.35645">
        <ele>87</ele>
        <time>2019-09-22T07:37:39Z</time>
      </trkpt>
      <trkpt lat="47.30067" lon="-2.35642">
        <ele>86</ele>
        <time>2019-09-22T07:37:40Z</time>
      </trkpt>
      <trkpt lat="47.30072" lon="-2.35638">
        <ele>87</ele>
        <time>2019-09-22T07:37:41Z</time>
      </trkpt>
      <trkpt lat="47.30084" lon="-2.35632">
        <ele>87</ele>
        <time>2019-09-22T07:37:42Z</time>
      </trkpt>
      <trkpt lat="47.30089" lon="-2.35629">
        <ele>87</ele>
        <time>2019-09-22T07:37:43Z</time>
      </trkpt>
      <trkpt lat="47.30094" lon="-2.35625">
        <ele>87</ele>
        <time>2019-09-22T07:37:44Z</time>
      </trkpt>
      <trkpt lat="47.301" lon="-2.35622">
        <ele>87</ele>
        <time>2019-09-22T07:37:45Z</time>
      </trkpt>
      <trkpt lat="47.30105" lon="-2.35619">
        <ele>87</ele>
        <time>2019-09-22T07:37:46Z</time>
      </trkpt>
      <trkpt lat="47.3011" lon="-2.35615">
        <ele>87</ele>
        <time>2019-09-22T07:37:47Z</time>
      </trkpt>
      <trkpt lat="47.30115" lon="-2.35612">
        <ele>87</ele>
        <time>2019-09-22T07:37:48Z</time>
      </trkpt>
      <trkpt lat="47.30119" lon="-2.35607">
        <ele>88</ele>
        <time>2019-09-22T07:37:49Z</time>
      </trkpt>
      <trkpt lat="47.30124" lon="-2.35603">
        <ele>88</ele>
        <time>2019-09-22T07:37:50Z</time>
      </trkpt>
      <trkpt lat="47.30135" lon="-2.35595">
        <ele>89</ele>
        <time>2019-09-22T07:37:52Z</time>
      </trkpt>
      <trkpt lat="47.30141" lon="-2.35594">
        <ele>89</ele>
        <time>2019-09-22T07:37:53Z</time>
      </trkpt>
      <trkpt lat="47.30148" lon="-2.35593">
        <ele>89</ele>
        <time>2019-09-22T07:37:54Z</time>
      </trkpt>
      <trkpt lat="47.30154" lon="-2.3559">
        <ele>89</ele>
        <time>2019-09-22T07:37:55Z</time>
      </trkpt>
      <trkpt lat="47.30173" lon="-2.3558">
        <ele>89</ele>
        <time>2019-09-22T07:37:59Z</time>
      </trkpt>
      <trkpt lat="47.3018" lon="-2.35577">
        <ele>88</ele>
        <time>2019-09-22T07:38:00Z</time>
      </trkpt>
      <trkpt lat="47.30187" lon="-2.35575">
        <ele>88</ele>
        <time>2019-09-22T07:38:01Z</time>
      </trkpt>
      <trkpt lat="47.30194" lon="-2.35573">
        <ele>88</ele>
        <time>2019-09-22T07:38:02Z</time>
      </trkpt>
      <trkpt lat="47.30201" lon="-2.35572">
        <ele>88</ele>
        <time>2019-09-22T07:38:03Z</time>
      </trkpt>
      <trkpt lat="47.30209" lon="-2.35572">
        <ele>88</ele>
        <time>2019-09-22T07:38:04Z</time>
      </trkpt>
      <trkpt lat="47.3023" lon="-2.35573">
        <ele>88</ele>
        <time>2019-09-22T07:38:07Z</time>
      </trkpt>
      <trkpt lat="47.30236" lon="-2.35575">
        <ele>88</ele>
        <time>2019-09-22T07:38:08Z</time>
      </trkpt>
      <trkpt lat="47.30242" lon="-2.35577">
        <ele>88</ele>
        <time>2019-09-22T07:38:09Z</time>
      </trkpt>
      <trkpt lat="47.30248" lon="-2.35578">
        <ele>88</ele>
        <time>2019-09-22T07:38:10Z</time>
      </trkpt>
      <trkpt lat="47.30267" lon="-2.35579">
        <ele>88</ele>
        <time>2019-09-22T07:38:12Z</time>
      </trkpt>
      <trkpt lat="47.30281" lon="-2.35581">
        <ele>88</ele>
        <time>2019-09-22T07:38:15Z</time>
      </trkpt>
      <trkpt lat="47.30288" lon="-2.35583">
        <ele>88</ele>
        <time>2019-09-22T07:38:16Z</time>
      </trkpt>
      <trkpt lat="47.30295" lon="-2.35584">
        <ele>88</ele>
        <time>2019-09-22T07:38:17Z</time>
      </trkpt>
      <trkpt lat="47.30301" lon="-2.35585">
        <ele>88</ele>
        <time>2019-09-22T07:38:18Z</time>
      </trkpt>
      <trkpt lat="47.30315" lon="-2.35587">
        <ele>88</ele>
        <time>2019-09-22T07:38:20Z</time>
      </trkpt>
      <trkpt lat="47.30322" lon="-2.35588">
        <ele>88</ele>
        <time>2019-09-22T07:38:21Z</time>
      </trkpt>
      <trkpt lat="47.30329" lon="-2.35589">
        <ele>88</ele>
        <time>2019-09-22T07:38:22Z</time>
      </trkpt>
      <trkpt lat="47.30335" lon="-2.35591">
        <ele>88</ele>
        <time>2019-09-22T07:38:23Z</time>
      </trkpt>
      <trkpt lat="47.30342" lon="-2.35593">
        <ele>88</ele>
        <time>2019-09-22T07:38:24Z</time>
      </trkpt>
      <trkpt lat="47.30348" lon="-2.35595">
        <ele>88</ele>
        <time>2019-09-22T07:38:25Z</time>
      </trkpt>
      <trkpt lat="47.30354" lon="-2.35595">
        <ele>88</ele>
        <time>2019-09-22T07:38:26Z</time>
      </trkpt>
      <trkpt lat="47.3036" lon="-2.35595">
        <ele>88</ele>
        <time>2019-09-22T07:38:27Z</time>
      </trkpt>
      <trkpt lat="47.30367" lon="-2.35594">
        <ele>88</ele>
        <time>2019-09-22T07:38:28Z</time>
      </trkpt>
      <trkpt lat="47.30378" lon="-2.35592">
        <ele>88</ele>
        <time>2019-09-22T07:38:30Z</time>
      </trkpt>
      <trkpt lat="47.30384" lon="-2.35591">
        <ele>88</ele>
        <time>2019-09-22T07:38:31Z</time>
      </trkpt>
      <trkpt lat="47.30398" lon="-2.35602">
        <ele>88</ele>
        <time>2019-09-22T07:38:33Z</time>
      </trkpt>
      <trkpt lat="47.30402" lon="-2.35609">
        <ele>88</ele>
        <time>2019-09-22T07:38:34Z</time>
      </trkpt>
      <trkpt lat="47.30406" lon="-2.35615">
        <ele>88</ele>
        <time>2019-09-22T07:38:36Z</time>
      </trkpt>
      <trkpt lat="47.3041" lon="-2.35622">
        <ele>88</ele>
        <time>2019-09-22T07:38:37Z</time>
      </trkpt>
      <trkpt lat="47.30414" lon="-2.3563">
        <ele>88</ele>
        <time>2019-09-22T07:38:38Z</time>
      </trkpt>
      <trkpt lat="47.30418" lon="-2.35637">
        <ele>88</ele>
        <time>2019-09-22T07:38:39Z</time>
      </trkpt>
      <trkpt lat="47.30423" lon="-2.35642">
        <ele>88</ele>
        <time>2019-09-22T07:38:40Z</time>
      </trkpt>
      <trkpt lat="47.30428" lon="-2.35648">
        <ele>88</ele>
        <time>2019-09-22T07:38:41Z</time>
      </trkpt>
      <trkpt lat="47.30434" lon="-2.35653">
        <ele>88</ele>
        <time>2019-09-22T07:38:42Z</time>
      </trkpt>
      <trkpt lat="47.30439" lon="-2.35657">
        <ele>88</ele>
        <time>2019-09-22T07:38:43Z</time>
      </trkpt>
      <trkpt lat="47.30445" lon="-2.35662">
        <ele>88</ele>
        <time>2019-09-22T07:38:44Z</time>
      </trkpt>
      <trkpt lat="47.30457" lon="-2.35671">
        <ele>88</ele>
        <time>2019-09-22T07:38:45Z</time>
      </trkpt>
      <trkpt lat="47.30463" lon="-2.35677">
        <ele>88</ele>
        <time>2019-09-22T07:38:46Z</time>
      </trkpt>
      <trkpt lat="47.30469" lon="-2.35683">
        <ele>88</ele>
        <time>2019-09-22T07:38:48Z</time>
      </trkpt>
      <trkpt lat="47.30475" lon="-2.35688">
        <ele>88</ele>
        <time>2019-09-22T07:38:49Z</time>
      </trkpt>
      <trkpt lat="47.3048" lon="-2.35694">
        <ele>88</ele>
        <time>2019-09-22T07:38:50Z</time>
      </trkpt>
      <trkpt lat="47.30495" lon="-2.35715">
        <ele>87</ele>
        <time>2019-09-22T07:38:53Z</time>
      </trkpt>
      <trkpt lat="47.305" lon="-2.35722">
        <ele>87</ele>
        <time>2019-09-22T07:38:54Z</time>
      </trkpt>
      <trkpt lat="47.30506" lon="-2.35729">
        <ele>87</ele>
        <time>2019-09-22T07:38:55Z</time>
      </trkpt>
      <trkpt lat="47.30511" lon="-2.35734">
        <ele>87</ele>
        <time>2019-09-22T07:38:56Z</time>
      </trkpt>
      <trkpt lat="47.30516" lon="-2.35741">
        <ele>87</ele>
        <time>2019-09-22T07:38:57Z</time>
      </trkpt>
      <trkpt lat="47.30521" lon="-2.35747">
        <ele>86</ele>
        <time>2019-09-22T07:38:58Z</time>
      </trkpt>
      <trkpt lat="47.30526" lon="-2.35754">
        <ele>86</ele>
        <time>2019-09-22T07:38:59Z</time>
      </trkpt>
      <trkpt lat="47.30531" lon="-2.35761">
        <ele>87</ele>
        <time>2019-09-22T07:39:00Z</time>
      </trkpt>
      <trkpt lat="47.30546" lon="-2.35781">
        <ele>87</ele>
        <time>2019-09-22T07:39:02Z</time>
      </trkpt>
      <trkpt lat="47.3055" lon="-2.35787">
        <ele>87</ele>
        <time>2019-09-22T07:39:03Z</time>
      </trkpt>
      <trkpt lat="47.30561" lon="-2.358">
        <ele>86</ele>
        <time>2019-09-22T07:39:05Z</time>
      </trkpt>
      <trkpt lat="47.30566" lon="-2.35807">
        <ele>86</ele>
        <time>2019-09-22T07:39:06Z</time>
      </trkpt>
      <trkpt lat="47.30585" lon="-2.35832">
        <ele>87</ele>
        <time>2019-09-22T07:39:10Z</time>
      </trkpt>
      <trkpt lat="47.3059" lon="-2.35839">
        <ele>87</ele>
        <time>2019-09-22T07:39:11Z</time>
      </trkpt>
      <trkpt lat="47.30595" lon="-2.35845">
        <ele>87</ele>
        <time>2019-09-22T07:39:12Z</time>
      </trkpt>
      <trkpt lat="47.30601" lon="-2.35851">
        <ele>87</ele>
        <time>2019-09-22T07:39:13Z</time>
      </trkpt>
      <trkpt lat="47.30606" lon="-2.35857">
        <ele>87</ele>
        <time>2019-09-22T07:39:14Z</time>
      </trkpt>
      <trkpt lat="47.30611" lon="-2.35863">
        <ele>87</ele>
        <time>2019-09-22T07:39:15Z</time>
      </trkpt>
      <trkpt lat="47.30617" lon="-2.35869">
        <ele>88</ele>
        <time>2019-09-22T07:39:16Z</time>
      </trkpt>
      <trkpt lat="47.30627" lon="-2.35881">
        <ele>88</ele>
        <time>2019-09-22T07:39:19Z</time>
      </trkpt>
      <trkpt lat="47.30633" lon="-2.35887">
        <ele>89</ele>
        <time>2019-09-22T07:39:20Z</time>
      </trkpt>
      <trkpt lat="47.30639" lon="-2.35891">
        <ele>88</ele>
        <time>2019-09-22T07:39:21Z</time>
      </trkpt>
      <trkpt lat="47.30651" lon="-2.35898">
        <ele>89</ele>
        <time>2019-09-22T07:39:23Z</time>
      </trkpt>
      <trkpt lat="47.30668" lon="-2.35895">
        <ele>90</ele>
        <time>2019-09-22T07:39:26Z</time>
      </trkpt>
      <trkpt lat="47.30673" lon="-2.3589">
        <ele>90</ele>
        <time>2019-09-22T07:39:27Z</time>
      </trkpt>
      <trkpt lat="47.30677" lon="-2.35884">
        <ele>91</ele>
        <time>2019-09-22T07:39:28Z</time>
      </trkpt>
      <trkpt lat="47.30688" lon="-2.35872">
        <ele>91</ele>
        <time>2019-09-22T07:39:29Z</time>
      </trkpt>
      <trkpt lat="47.30693" lon="-2.35866">
        <ele>90</ele>
        <time>2019-09-22T07:39:31Z</time>
      </trkpt>
      <trkpt lat="47.30697" lon="-2.3586">
        <ele>90</ele>
        <time>2019-09-22T07:39:32Z</time>
      </trkpt>
      <trkpt lat="47.30702" lon="-2.35855">
        <ele>90</ele>
        <time>2019-09-22T07:39:33Z</time>
      </trkpt>
      <trkpt lat="47.30707" lon="-2.3585">
        <ele>90</ele>
        <time>2019-09-22T07:39:34Z</time>
      </trkpt>
      <trkpt lat="47.30711" lon="-2.35844">
        <ele>90</ele>
        <time>2019-09-22T07:39:35Z</time>
      </trkpt>
      <trkpt lat="47.30715" lon="-2.35839">
        <ele>90</ele>
        <time>2019-09-22T07:39:36Z</time>
      </trkpt>
      <trkpt lat="47.30719" lon="-2.35835">
        <ele>90</ele>
        <time>2019-09-22T07:39:37Z</time>
      </trkpt>
      <trkpt lat="47.30724" lon="-2.3583">
        <ele>90</ele>
        <time>2019-09-22T07:39:38Z</time>
      </trkpt>
      <trkpt lat="47.30728" lon="-2.35825">
        <ele>91</ele>
        <time>2019-09-22T07:39:39Z</time>
      </trkpt>
      <trkpt lat="47.30737" lon="-2.35817">
        <ele>91</ele>
        <time>2019-09-22T07:39:41Z</time>
      </trkpt>
      <trkpt lat="47.30741" lon="-2.35812">
        <ele>91</ele>
        <time>2019-09-22T07:39:42Z</time>
      </trkpt>
      <trkpt lat="47.30746" lon="-2.35808">
        <ele>90</ele>
        <time>2019-09-22T07:39:43Z</time>
      </trkpt>
      <trkpt lat="47.30751" lon="-2.35804">
        <ele>91</ele>
        <time>2019-09-22T07:39:44Z</time>
      </trkpt>
      <trkpt lat="47.30756" lon="-2.358">
        <ele>91</ele>
        <time>2019-09-22T07:39:45Z</time>
      </trkpt>
      <trkpt lat="47.30762" lon="-2.35799">
        <ele>91</ele>
        <time>2019-09-22T07:39:46Z</time>
      </trkpt>
      <trkpt lat="47.30768" lon="-2.35799">
        <ele>91</ele>
        <time>2019-09-22T07:39:47Z</time>
      </trkpt>
      <trkpt lat="47.30774" lon="-2.35801">
        <ele>92</ele>
        <time>2019-09-22T07:39:48Z</time>
      </trkpt>
      <trkpt lat="47.30779" lon="-2.35803">
        <ele>91</ele>
        <time>2019-09-22T07:39:49Z</time>
      </trkpt>
      <trkpt lat="47.30785" lon="-2.35807">
        <ele>91</ele>
        <time>2019-09-22T07:39:50Z</time>
      </trkpt>
      <trkpt lat="47.3079" lon="-2.35811">
        <ele>91</ele>
        <time>2019-09-22T07:39:51Z</time>
      </trkpt>
      <trkpt lat="47.30795" lon="-2.35815">
        <ele>91</ele>
        <time>2019-09-22T07:39:52Z</time>
      </trkpt>
      <trkpt lat="47.30801" lon="-2.35819">
        <ele>91</ele>
        <time>2019-09-22T07:39:53Z</time>
      </trkpt>
      <trkpt lat="47.30807" lon="-2.35823">
        <ele>91</ele>
        <time>2019-09-22T07:39:54Z</time>
      </trkpt>
      <trkpt lat="47.30812" lon="-2.35827">
        <ele>91</ele>
        <time>2019-09-22T07:39:55Z</time>
      </trkpt>
      <trkpt lat="47.30818" lon="-2.35831">
        <ele>91</ele>
        <time>2019-09-22T07:39:56Z</time>
      </trkpt>
      <trkpt lat="47.30829" lon="-2.35838">
        <ele>91</ele>
        <time>2019-09-22T07:39:58Z</time>
      </trkpt>
      <trkpt lat="47.30835" lon="-2.35842">
        <ele>91</ele>
        <time>2019-09-22T07:39:59Z</time>
      </trkpt>
      <trkpt lat="47.30859" lon="-2.35857">
        <ele>91</ele>
        <time>2019-09-22T07:40:03Z</time>
      </trkpt>
      <trkpt lat="47.30865" lon="-2.35861">
        <ele>91</ele>
        <time>2019-09-22T07:40:04Z</time>
      </trkpt>
      <trkpt lat="47.30872" lon="-2.35864">
        <ele>91</ele>
        <time>2019-09-22T07:40:05Z</time>
      </trkpt>
      <trkpt lat="47.30878" lon="-2.35866">
        <ele>91</ele>
        <time>2019-09-22T07:40:06Z</time>
      </trkpt>
      <trkpt lat="47.30885" lon="-2.35866">
        <ele>91</ele>
        <time>2019-09-22T07:40:07Z</time>
      </trkpt>
      <trkpt lat="47.30906" lon="-2.35866">
        <ele>91</ele>
        <time>2019-09-22T07:40:10Z</time>
      </trkpt>
      <trkpt lat="47.30912" lon="-2.35864">
        <ele>91</ele>
        <time>2019-09-22T07:40:11Z</time>
      </trkpt>
      <trkpt lat="47.30919" lon="-2.35861">
        <ele>91</ele>
        <time>2019-09-22T07:40:12Z</time>
      </trkpt>
      <trkpt lat="47.30925" lon="-2.35858">
        <ele>91</ele>
        <time>2019-09-22T07:40:13Z</time>
      </trkpt>
      <trkpt lat="47.30944" lon="-2.35846">
        <ele>91</ele>
        <time>2019-09-22T07:40:15Z</time>
      </trkpt>
      <trkpt lat="47.3095" lon="-2.35843">
        <ele>91</ele>
        <time>2019-09-22T07:40:16Z</time>
      </trkpt>
      <trkpt lat="47.30957" lon="-2.35839">
        <ele>91</ele>
        <time>2019-09-22T07:40:18Z</time>
      </trkpt>
      <trkpt lat="47.30963" lon="-2.35836">
        <ele>91</ele>
        <time>2019-09-22T07:40:19Z</time>
      </trkpt>
      <trkpt lat="47.3097" lon="-2.35833">
        <ele>91</ele>
        <time>2019-09-22T07:40:20Z</time>
      </trkpt>
      <trkpt lat="47.30997" lon="-2.35821">
        <ele>92</ele>
        <time>2019-09-22T07:40:23Z</time>
      </trkpt>
      <trkpt lat="47.31004" lon="-2.35818">
        <ele>92</ele>
        <time>2019-09-22T07:40:25Z</time>
      </trkpt>
      <trkpt lat="47.3101" lon="-2.35815">
        <ele>92</ele>
        <time>2019-09-22T07:40:26Z</time>
      </trkpt>
      <trkpt lat="47.31017" lon="-2.35813">
        <ele>92</ele>
        <time>2019-09-22T07:40:27Z</time>
      </trkpt>
      <trkpt lat="47.31024" lon="-2.35811">
        <ele>92</ele>
        <time>2019-09-22T07:40:28Z</time>
      </trkpt>
      <trkpt lat="47.31037" lon="-2.35806">
        <ele>92</ele>
        <time>2019-09-22T07:40:29Z</time>
      </trkpt>
      <trkpt lat="47.31065" lon="-2.35797">
        <ele>92</ele>
        <time>2019-09-22T07:40:34Z</time>
      </trkpt>
      <trkpt lat="47.31092" lon="-2.35789">
        <ele>92</ele>
        <time>2019-09-22T07:40:38Z</time>
      </trkpt>
      <trkpt lat="47.31112" lon="-2.35783">
        <ele>91</ele>
        <time>2019-09-22T07:40:40Z</time>
      </trkpt>
      <trkpt lat="47.31124" lon="-2.3578">
        <ele>90</ele>
        <time>2019-09-22T07:40:42Z</time>
      </trkpt>
      <trkpt lat="47.3113" lon="-2.35779">
        <ele>90</ele>
        <time>2019-09-22T07:40:43Z</time>
      </trkpt>
      <trkpt lat="47.31148" lon="-2.35774">
        <ele>90</ele>
        <time>2019-09-22T07:40:46Z</time>
      </trkpt>
      <trkpt lat="47.31155" lon="-2.3577">
        <ele>90</ele>
        <time>2019-09-22T07:40:47Z</time>
      </trkpt>
      <trkpt lat="47.31164" lon="-2.35758">
        <ele>90</ele>
        <time>2019-09-22T07:40:49Z</time>
      </trkpt>
      <trkpt lat="47.31169" lon="-2.3575">
        <ele>90</ele>
        <time>2019-09-22T07:40:50Z</time>
      </trkpt>
      <trkpt lat="47.31176" lon="-2.35733">
        <ele>90</ele>
        <time>2019-09-22T07:40:52Z</time>
      </trkpt>
      <trkpt lat="47.31179" lon="-2.35724">
        <ele>90</ele>
        <time>2019-09-22T07:40:53Z</time>
      </trkpt>
      <trkpt lat="47.31182" lon="-2.35715">
        <ele>91</ele>
        <time>2019-09-22T07:40:54Z</time>
      </trkpt>
      <trkpt lat="47.31185" lon="-2.35705">
        <ele>91</ele>
        <time>2019-09-22T07:40:55Z</time>
      </trkpt>
      <trkpt lat="47.31187" lon="-2.35696">
        <ele>91</ele>
        <time>2019-09-22T07:40:56Z</time>
      </trkpt>
      <trkpt lat="47.31197" lon="-2.35671">
        <ele>90</ele>
        <time>2019-09-22T07:40:59Z</time>
      </trkpt>
      <trkpt lat="47.31202" lon="-2.35664">
        <ele>90</ele>
        <time>2019-09-22T07:41:00Z</time>
      </trkpt>
      <trkpt lat="47.31208" lon="-2.35658">
        <ele>90</ele>
        <time>2019-09-22T07:41:01Z</time>
      </trkpt>
      <trkpt lat="47.31214" lon="-2.35652">
        <ele>90</ele>
        <time>2019-09-22T07:41:02Z</time>
      </trkpt>
      <trkpt lat="47.3122" lon="-2.35647">
        <ele>90</ele>
        <time>2019-09-22T07:41:03Z</time>
      </trkpt>
      <trkpt lat="47.31232" lon="-2.35636">
        <ele>90</ele>
        <time>2019-09-22T07:41:05Z</time>
      </trkpt>
      <trkpt lat="47.31244" lon="-2.35624">
        <ele>90</ele>
        <time>2019-09-22T07:41:07Z</time>
      </trkpt>
      <trkpt lat="47.31251" lon="-2.35618">
        <ele>90</ele>
        <time>2019-09-22T07:41:08Z</time>
      </trkpt>
      <trkpt lat="47.31257" lon="-2.35613">
        <ele>90</ele>
        <time>2019-09-22T07:41:09Z</time>
      </trkpt>
      <trkpt lat="47.31274" lon="-2.35598">
        <ele>89</ele>
        <time>2019-09-22T07:41:12Z</time>
      </trkpt>
      <trkpt lat="47.3128" lon="-2.35592">
        <ele>89</ele>
        <time>2019-09-22T07:41:13Z</time>
      </trkpt>
      <trkpt lat="47.31287" lon="-2.35587">
        <ele>88</ele>
        <time>2019-09-22T07:41:14Z</time>
      </trkpt>
      <trkpt lat="47.31293" lon="-2.35583">
        <ele>89</ele>
        <time>2019-09-22T07:41:15Z</time>
      </trkpt>
      <trkpt lat="47.31299" lon="-2.35579">
        <ele>88</ele>
        <time>2019-09-22T07:41:16Z</time>
      </trkpt>
      <trkpt lat="47.31305" lon="-2.35575">
        <ele>87</ele>
        <time>2019-09-22T07:41:17Z</time>
      </trkpt>
      <trkpt lat="47.3131" lon="-2.35571">
        <ele>88</ele>
        <time>2019-09-22T07:41:19Z</time>
      </trkpt>
      <trkpt lat="47.31319" lon="-2.35566">
        <ele>87</ele>
        <time>2019-09-22T07:41:21Z</time>
      </trkpt>
      <trkpt lat="47.31326" lon="-2.35568">
        <ele>88</ele>
        <time>2019-09-22T07:41:24Z</time>
      </trkpt>
      <trkpt lat="47.31328" lon="-2.35581">
        <ele>88</ele>
        <time>2019-09-22T07:41:27Z</time>
      </trkpt>
      <trkpt lat="47.31329" lon="-2.35597">
        <ele>88</ele>
        <time>2019-09-22T07:41:30Z</time>
      </trkpt>
      <trkpt lat="47.3133" lon="-2.35608">
        <ele>88</ele>
        <time>2019-09-22T07:41:32Z</time>
      </trkpt>
      <trkpt lat="47.3133" lon="-2.3562">
        <ele>89</ele>
        <time>2019-09-22T07:41:34Z</time>
      </trkpt>
      <trkpt lat="47.31331" lon="-2.35628">
        <ele>89</ele>
        <time>2019-09-22T07:41:35Z</time>
      </trkpt>
      <trkpt lat="47.31331" lon="-2.35636">
        <ele>89</ele>
        <time>2019-09-22T07:41:36Z</time>
      </trkpt>
      <trkpt lat="47.31331" lon="-2.35643">
        <ele>89</ele>
        <time>2019-09-22T07:41:37Z</time>
      </trkpt>
      <trkpt lat="47.31332" lon="-2.35663">
        <ele>89</ele>
        <time>2019-09-22T07:41:40Z</time>
      </trkpt>
      <trkpt lat="47.31332" lon="-2.35671">
        <ele>89</ele>
        <time>2019-09-22T07:41:41Z</time>
      </trkpt>
      <trkpt lat="47.31331" lon="-2.3568">
        <ele>89</ele>
        <time>2019-09-22T07:41:42Z</time>
      </trkpt>
      <trkpt lat="47.3133" lon="-2.35689">
        <ele>89</ele>
        <time>2019-09-22T07:41:43Z</time>
      </trkpt>
      <trkpt lat="47.31331" lon="-2.35699">
        <ele>89</ele>
        <time>2019-09-22T07:41:44Z</time>
      </trkpt>
      <trkpt lat="47.31331" lon="-2.35708">
        <ele>89</ele>
        <time>2019-09-22T07:41:45Z</time>
      </trkpt>
      <trkpt lat="47.31331" lon="-2.35717">
        <ele>89</ele>
        <time>2019-09-22T07:41:46Z</time>
      </trkpt>
      <trkpt lat="47.31331" lon="-2.35727">
        <ele>88</ele>
        <time>2019-09-22T07:41:47Z</time>
      </trkpt>
      <trkpt lat="47.31332" lon="-2.35736">
        <ele>88</ele>
        <time>2019-09-22T07:41:48Z</time>
      </trkpt>
      <trkpt lat="47.31332" lon="-2.35744">
        <ele>88</ele>
        <time>2019-09-22T07:41:49Z</time>
      </trkpt>
      <trkpt lat="47.31332" lon="-2.35753">
        <ele>88</ele>
        <time>2019-09-22T07:41:50Z</time>
      </trkpt>
      <trkpt lat="47.31332" lon="-2.35761">
        <ele>88</ele>
        <time>2019-09-22T07:41:51Z</time>
      </trkpt>
      <trkpt lat="47.31332" lon="-2.35769">
        <ele>87</ele>
        <time>2019-09-22T07:41:52Z</time>
      </trkpt>
      <trkpt lat="47.31334" lon="-2.35785">
        <ele>87</ele>
        <time>2019-09-22T07:41:54Z</time>
      </trkpt>
      <trkpt lat="47.31337" lon="-2.35813">
        <ele>87</ele>
        <time>2019-09-22T07:41:57Z</time>
      </trkpt>
      <trkpt lat="47.31338" lon="-2.35821">
        <ele>87</ele>
        <time>2019-09-22T07:41:58Z</time>
      </trkpt>
      <trkpt lat="47.31339" lon="-2.35847">
        <ele>88</ele>
        <time>2019-09-22T07:42:00Z</time>
      </trkpt>
      <trkpt lat="47.31341" lon="-2.35857">
        <ele>87</ele>
        <time>2019-09-22T07:42:01Z</time>
      </trkpt>
      <trkpt lat="47.3135" lon="-2.35884">
        <ele>87</ele>
        <time>2019-09-22T07:42:04Z</time>
      </trkpt>
      <trkpt lat="47.31354" lon="-2.35892">
        <ele>88</ele>
        <time>2019-09-22T07:42:05Z</time>
      </trkpt>
      <trkpt lat="47.31358" lon="-2.359">
        <ele>88</ele>
        <time>2019-09-22T07:42:07Z</time>
      </trkpt>
      <trkpt lat="47.31362" lon="-2.35907">
        <ele>88</ele>
        <time>2019-09-22T07:42:08Z</time>
      </trkpt>
      <trkpt lat="47.31365" lon="-2.35915">
        <ele>88</ele>
        <time>2019-09-22T07:42:09Z</time>
      </trkpt>
      <trkpt lat="47.3137" lon="-2.35922">
        <ele>87</ele>
        <time>2019-09-22T07:42:10Z</time>
      </trkpt>
      <trkpt lat="47.31374" lon="-2.3593">
        <ele>88</ele>
        <time>2019-09-22T07:42:11Z</time>
      </trkpt>
      <trkpt lat="47.31387" lon="-2.35952">
        <ele>89</ele>
        <time>2019-09-22T07:42:14Z</time>
      </trkpt>
      <trkpt lat="47.3139" lon="-2.35959">
        <ele>89</ele>
        <time>2019-09-22T07:42:15Z</time>
      </trkpt>
      <trkpt lat="47.31396" lon="-2.35983">
        <ele>89</ele>
        <time>2019-09-22T07:42:18Z</time>
      </trkpt>
      <trkpt lat="47.31398" lon="-2.3599">
        <ele>89</ele>
        <time>2019-09-22T07:42:19Z</time>
      </trkpt>
      <trkpt lat="47.31401" lon="-2.35997">
        <ele>90</ele>
        <time>2019-09-22T07:42:20Z</time>
      </trkpt>
      <trkpt lat="47.31403" lon="-2.36004">
        <ele>90</ele>
        <time>2019-09-22T07:42:21Z</time>
      </trkpt>
      <trkpt lat="47.31407" lon="-2.36011">
        <ele>90</ele>
        <time>2019-09-22T07:42:22Z</time>
      </trkpt>
      <trkpt lat="47.3141" lon="-2.36018">
        <ele>90</ele>
        <time>2019-09-22T07:42:23Z</time>
      </trkpt>
      <trkpt lat="47.31413" lon="-2.36026">
        <ele>90</ele>
        <time>2019-09-22T07:42:24Z</time>
      </trkpt>
      <trkpt lat="47.31416" lon="-2.36038">
        <ele>90</ele>
        <time>2019-09-22T07:42:25Z</time>
      </trkpt>
      <trkpt lat="47.31419" lon="-2.36045">
        <ele>90</ele>
        <time>2019-09-22T07:42:26Z</time>
      </trkpt>
      <trkpt lat="47.31422" lon="-2.36053">
        <ele>90</ele>
        <time>2019-09-22T07:42:27Z</time>
      </trkpt>
      <trkpt lat="47.31424" lon="-2.36061">
        <ele>90</ele>
        <time>2019-09-22T07:42:28Z</time>
      </trkpt>
      <trkpt lat="47.31427" lon="-2.36067">
        <ele>90</ele>
        <time>2019-09-22T07:42:29Z</time>
      </trkpt>
      <trkpt lat="47.31429" lon="-2.36074">
        <ele>90</ele>
        <time>2019-09-22T07:42:30Z</time>
      </trkpt>
      <trkpt lat="47.31436" lon="-2.36095">
        <ele>91</ele>
        <time>2019-09-22T07:42:33Z</time>
      </trkpt>
      <trkpt lat="47.31441" lon="-2.36108">
        <ele>91</ele>
        <time>2019-09-22T07:42:35Z</time>
      </trkpt>
      <trkpt lat="47.31445" lon="-2.36123">
        <ele>91</ele>
        <time>2019-09-22T07:42:37Z</time>
      </trkpt>
      <trkpt lat="47.31447" lon="-2.3613">
        <ele>91</ele>
        <time>2019-09-22T07:42:38Z</time>
      </trkpt>
      <trkpt lat="47.31449" lon="-2.36136">
        <ele>91</ele>
        <time>2019-09-22T07:42:39Z</time>
      </trkpt>
      <trkpt lat="47.31451" lon="-2.36142">
        <ele>91</ele>
        <time>2019-09-22T07:42:40Z</time>
      </trkpt>
      <trkpt lat="47.31456" lon="-2.36163">
        <ele>92</ele>
        <time>2019-09-22T07:42:43Z</time>
      </trkpt>
      <trkpt lat="47.31457" lon="-2.36172">
        <ele>91</ele>
        <time>2019-09-22T07:42:45Z</time>
      </trkpt>
      <trkpt lat="47.31459" lon="-2.3618">
        <ele>91</ele>
        <time>2019-09-22T07:42:46Z</time>
      </trkpt>
      <trkpt lat="47.31461" lon="-2.36189">
        <ele>91</ele>
        <time>2019-09-22T07:42:47Z</time>
      </trkpt>
      <trkpt lat="47.31467" lon="-2.36216">
        <ele>91</ele>
        <time>2019-09-22T07:42:50Z</time>
      </trkpt>
      <trkpt lat="47.31469" lon="-2.36225">
        <ele>91</ele>
        <time>2019-09-22T07:42:51Z</time>
      </trkpt>
      <trkpt lat="47.31473" lon="-2.36244">
        <ele>92</ele>
        <time>2019-09-22T07:42:53Z</time>
      </trkpt>
      <trkpt lat="47.31478" lon="-2.36261">
        <ele>91</ele>
        <time>2019-09-22T07:42:54Z</time>
      </trkpt>
      <trkpt lat="47.3148" lon="-2.36271">
        <ele>90</ele>
        <time>2019-09-22T07:42:56Z</time>
      </trkpt>
      <trkpt lat="47.31482" lon="-2.3628">
        <ele>90</ele>
        <time>2019-09-22T07:42:57Z</time>
      </trkpt>
      <trkpt lat="47.31484" lon="-2.36289">
        <ele>91</ele>
        <time>2019-09-22T07:42:58Z</time>
      </trkpt>
      <trkpt lat="47.31489" lon="-2.36308">
        <ele>90</ele>
        <time>2019-09-22T07:43:00Z</time>
      </trkpt>
      <trkpt lat="47.31491" lon="-2.36317">
        <ele>89</ele>
        <time>2019-09-22T07:43:01Z</time>
      </trkpt>
      <trkpt lat="47.31493" lon="-2.36336">
        <ele>89</ele>
        <time>2019-09-22T07:43:03Z</time>
      </trkpt>
      <trkpt lat="47.31494" lon="-2.36346">
        <ele>88</ele>
        <time>2019-09-22T07:43:04Z</time>
      </trkpt>
      <trkpt lat="47.31494" lon="-2.36356">
        <ele>88</ele>
        <time>2019-09-22T07:43:05Z</time>
      </trkpt>
      <trkpt lat="47.31493" lon="-2.36365">
        <ele>89</ele>
        <time>2019-09-22T07:43:06Z</time>
      </trkpt>
      <trkpt lat="47.31492" lon="-2.36374">
        <ele>89</ele>
        <time>2019-09-22T07:43:07Z</time>
      </trkpt>
      <trkpt lat="47.31493" lon="-2.36392">
        <ele>89</ele>
        <time>2019-09-22T07:43:09Z</time>
      </trkpt>
      <trkpt lat="47.31494" lon="-2.3641">
        <ele>89</ele>
        <time>2019-09-22T07:43:11Z</time>
      </trkpt>
      <trkpt lat="47.31495" lon="-2.36428">
        <ele>88</ele>
        <time>2019-09-22T07:43:13Z</time>
      </trkpt>
      <trkpt lat="47.31495" lon="-2.36436">
        <ele>88</ele>
        <time>2019-09-22T07:43:14Z</time>
      </trkpt>
      <trkpt lat="47.31495" lon="-2.36444">
        <ele>88</ele>
        <time>2019-09-22T07:43:15Z</time>
      </trkpt>
      <trkpt lat="47.31497" lon="-2.36466">
        <ele>87</ele>
        <time>2019-09-22T07:43:18Z</time>
      </trkpt>
      <trkpt lat="47.31498" lon="-2.36473">
        <ele>86</ele>
        <time>2019-09-22T07:43:19Z</time>
      </trkpt>
      <trkpt lat="47.31499" lon="-2.36486">
        <ele>86</ele>
        <time>2019-09-22T07:43:21Z</time>
      </trkpt>
      <trkpt lat="47.315" lon="-2.36493">
        <ele>86</ele>
        <time>2019-09-22T07:43:22Z</time>
      </trkpt>
      <trkpt lat="47.31499" lon="-2.36511">
        <ele>86</ele>
        <time>2019-09-22T07:43:24Z</time>
      </trkpt>
      <trkpt lat="47.315" lon="-2.36521">
        <ele>86</ele>
        <time>2019-09-22T07:43:26Z</time>
      </trkpt>
      <trkpt lat="47.31497" lon="-2.36531">
        <ele>86</ele>
        <time>2019-09-22T07:43:29Z</time>
      </trkpt>
      <trkpt lat="47.31498" lon="-2.36551">
        <ele>87</ele>
        <time>2019-09-22T07:43:32Z</time>
      </trkpt>
      <trkpt lat="47.31498" lon="-2.36559">
        <ele>87</ele>
        <time>2019-09-22T07:43:33Z</time>
      </trkpt>
      <trkpt lat="47.31499" lon="-2.36567">
        <ele>87</ele>
        <time>2019-09-22T07:43:34Z</time>
      </trkpt>
      <trkpt lat="47.31499" lon="-2.36594">
        <ele>87</ele>
        <time>2019-09-22T07:43:36Z</time>
      </trkpt>
      <trkpt lat="47.315" lon="-2.36604">
        <ele>87</ele>
        <time>2019-09-22T07:43:37Z</time>
      </trkpt>
      <trkpt lat="47.31502" lon="-2.36612">
        <ele>87</ele>
        <time>2019-09-22T07:43:38Z</time>
      </trkpt>
      <trkpt lat="47.31504" lon="-2.3662">
        <ele>87</ele>
        <time>2019-09-22T07:43:39Z</time>
      </trkpt>
      <trkpt lat="47.31508" lon="-2.36635">
        <ele>87</ele>
        <time>2019-09-22T07:43:41Z</time>
      </trkpt>
      <trkpt lat="47.3151" lon="-2.36642">
        <ele>87</ele>
        <time>2019-09-22T07:43:42Z</time>
      </trkpt>
      <trkpt lat="47.31512" lon="-2.3665">
        <ele>87</ele>
        <time>2019-09-22T07:43:43Z</time>
      </trkpt>
      <trkpt lat="47.31514" lon="-2.36659">
        <ele>87</ele>
        <time>2019-09-22T07:43:44Z</time>
      </trkpt>
      <trkpt lat="47.31516" lon="-2.36665">
        <ele>87</ele>
        <time>2019-09-22T07:43:45Z</time>
      </trkpt>
      <trkpt lat="47.31517" lon="-2.36673">
        <ele>87</ele>
        <time>2019-09-22T07:43:46Z</time>
      </trkpt>
      <trkpt lat="47.31519" lon="-2.3668">
        <ele>87</ele>
        <time>2019-09-22T07:43:47Z</time>
      </trkpt>
      <trkpt lat="47.3152" lon="-2.36687">
        <ele>87</ele>
        <time>2019-09-22T07:43:48Z</time>
      </trkpt>
      <trkpt lat="47.31524" lon="-2.367">
        <ele>87</ele>
        <time>2019-09-22T07:43:50Z</time>
      </trkpt>
      <trkpt lat="47.31525" lon="-2.36707">
        <ele>87</ele>
        <time>2019-09-22T07:43:51Z</time>
      </trkpt>
      <trkpt lat="47.31526" lon="-2.36714">
        <ele>87</ele>
        <time>2019-09-22T07:43:52Z</time>
      </trkpt>
      <trkpt lat="47.31528" lon="-2.3672">
        <ele>87</ele>
        <time>2019-09-22T07:43:53Z</time>
      </trkpt>
      <trkpt lat="47.31529" lon="-2.36727">
        <ele>87</ele>
        <time>2019-09-22T07:43:54Z</time>
      </trkpt>
      <trkpt lat="47.31531" lon="-2.36734">
        <ele>87</ele>
        <time>2019-09-22T07:43:56Z</time>
      </trkpt>
      <trkpt lat="47.31533" lon="-2.3674">
        <ele>87</ele>
        <time>2019-09-22T07:43:57Z</time>
      </trkpt>
      <trkpt lat="47.31535" lon="-2.36747">
        <ele>86</ele>
        <time>2019-09-22T07:43:58Z</time>
      </trkpt>
      <trkpt lat="47.31538" lon="-2.3676">
        <ele>86</ele>
        <time>2019-09-22T07:44:00Z</time>
      </trkpt>
      <trkpt lat="47.3154" lon="-2.36767">
        <ele>86</ele>
        <time>2019-09-22T07:44:01Z</time>
      </trkpt>
      <trkpt lat="47.31544" lon="-2.36787">
        <ele>86</ele>
        <time>2019-09-22T07:44:03Z</time>
      </trkpt>
      <trkpt lat="47.31545" lon="-2.36793">
        <ele>86</ele>
        <time>2019-09-22T07:44:04Z</time>
      </trkpt>
      <trkpt lat="47.31547" lon="-2.368">
        <ele>86</ele>
        <time>2019-09-22T07:44:05Z</time>
      </trkpt>
      <trkpt lat="47.31551" lon="-2.36811">
        <ele>86</ele>
        <time>2019-09-22T07:44:08Z</time>
      </trkpt>
      <trkpt lat="47.31552" lon="-2.36818">
        <ele>86</ele>
        <time>2019-09-22T07:44:09Z</time>
      </trkpt>
      <trkpt lat="47.31558" lon="-2.36837">
        <ele>85</ele>
        <time>2019-09-22T07:44:11Z</time>
      </trkpt>
      <trkpt lat="47.3156" lon="-2.36844">
        <ele>85</ele>
        <time>2019-09-22T07:44:12Z</time>
      </trkpt>
      <trkpt lat="47.31563" lon="-2.36857">
        <ele>85</ele>
        <time>2019-09-22T07:44:15Z</time>
      </trkpt>
      <trkpt lat="47.31565" lon="-2.36864">
        <ele>85</ele>
        <time>2019-09-22T07:44:16Z</time>
      </trkpt>
      <trkpt lat="47.31567" lon="-2.36871">
        <ele>85</ele>
        <time>2019-09-22T07:44:17Z</time>
      </trkpt>
      <trkpt lat="47.31569" lon="-2.36878">
        <ele>86</ele>
        <time>2019-09-22T07:44:18Z</time>
      </trkpt>
      <trkpt lat="47.31571" lon="-2.36885">
        <ele>86</ele>
        <time>2019-09-22T07:44:19Z</time>
      </trkpt>
      <trkpt lat="47.31573" lon="-2.36891">
        <ele>86</ele>
        <time>2019-09-22T07:44:20Z</time>
      </trkpt>
      <trkpt lat="47.31579" lon="-2.36911">
        <ele>87</ele>
        <time>2019-09-22T07:44:23Z</time>
      </trkpt>
      <trkpt lat="47.31582" lon="-2.36918">
        <ele>87</ele>
        <time>2019-09-22T07:44:24Z</time>
      </trkpt>
      <trkpt lat="47.31584" lon="-2.36925">
        <ele>87</ele>
        <time>2019-09-22T07:44:25Z</time>
      </trkpt>
      <trkpt lat="47.31585" lon="-2.36932">
        <ele>87</ele>
        <time>2019-09-22T07:44:26Z</time>
      </trkpt>
      <trkpt lat="47.31588" lon="-2.36938">
        <ele>87</ele>
        <time>2019-09-22T07:44:27Z</time>
      </trkpt>
      <trkpt lat="47.3159" lon="-2.36945">
        <ele>88</ele>
        <time>2019-09-22T07:44:28Z</time>
      </trkpt>
      <trkpt lat="47.31592" lon="-2.36951">
        <ele>88</ele>
        <time>2019-09-22T07:44:29Z</time>
      </trkpt>
      <trkpt lat="47.31594" lon="-2.36958">
        <ele>88</ele>
        <time>2019-09-22T07:44:30Z</time>
      </trkpt>
      <trkpt lat="47.31596" lon="-2.36964">
        <ele>88</ele>
        <time>2019-09-22T07:44:31Z</time>
      </trkpt>
      <trkpt lat="47.31598" lon="-2.36971">
        <ele>88</ele>
        <time>2019-09-22T07:44:32Z</time>
      </trkpt>
      <trkpt lat="47.31602" lon="-2.36985">
        <ele>89</ele>
        <time>2019-09-22T07:44:33Z</time>
      </trkpt>
      <trkpt lat="47.31606" lon="-2.36999">
        <ele>89</ele>
        <time>2019-09-22T07:44:35Z</time>
      </trkpt>
      <trkpt lat="47.31609" lon="-2.37006">
        <ele>88</ele>
        <time>2019-09-22T07:44:36Z</time>
      </trkpt>
      <trkpt lat="47.31611" lon="-2.37012">
        <ele>89</ele>
        <time>2019-09-22T07:44:37Z</time>
      </trkpt>
      <trkpt lat="47.31613" lon="-2.37019">
        <ele>89</ele>
        <time>2019-09-22T07:44:38Z</time>
      </trkpt>
      <trkpt lat="47.31614" lon="-2.37026">
        <ele>89</ele>
        <time>2019-09-22T07:44:39Z</time>
      </trkpt>
      <trkpt lat="47.31617" lon="-2.37031">
        <ele>89</ele>
        <time>2019-09-22T07:44:40Z</time>
      </trkpt>
      <trkpt lat="47.31621" lon="-2.37044">
        <ele>89</ele>
        <time>2019-09-22T07:44:43Z</time>
      </trkpt>
      <trkpt lat="47.31626" lon="-2.37056">
        <ele>90</ele>
        <time>2019-09-22T07:44:45Z</time>
      </trkpt>
      <trkpt lat="47.31629" lon="-2.37062">
        <ele>90</ele>
        <time>2019-09-22T07:44:46Z</time>
      </trkpt>
      <trkpt lat="47.31632" lon="-2.37067">
        <ele>90</ele>
        <time>2019-09-22T07:44:47Z</time>
      </trkpt>
      <trkpt lat="47.31636" lon="-2.37074">
        <ele>90</ele>
        <time>2019-09-22T07:44:48Z</time>
      </trkpt>
      <trkpt lat="47.31639" lon="-2.37081">
        <ele>90</ele>
        <time>2019-09-22T07:44:49Z</time>
      </trkpt>
      <trkpt lat="47.31649" lon="-2.37099">
        <ele>91</ele>
        <time>2019-09-22T07:44:52Z</time>
      </trkpt>
      <trkpt lat="47.31652" lon="-2.37106">
        <ele>91</ele>
        <time>2019-09-22T07:44:53Z</time>
      </trkpt>
      <trkpt lat="47.31655" lon="-2.37113">
        <ele>91</ele>
        <time>2019-09-22T07:44:54Z</time>
      </trkpt>
      <trkpt lat="47.31658" lon="-2.37119">
        <ele>91</ele>
        <time>2019-09-22T07:44:55Z</time>
      </trkpt>
      <trkpt lat="47.3166" lon="-2.37125">
        <ele>91</ele>
        <time>2019-09-22T07:44:56Z</time>
      </trkpt>
      <trkpt lat="47.31663" lon="-2.37131">
        <ele>91</ele>
        <time>2019-09-22T07:44:57Z</time>
      </trkpt>
      <trkpt lat="47.31668" lon="-2.37143">
        <ele>91</ele>
        <time>2019-09-22T07:44:59Z</time>
      </trkpt>
      <trkpt lat="47.31678" lon="-2.37168">
        <ele>92</ele>
        <time>2019-09-22T07:45:02Z</time>
      </trkpt>
      <trkpt lat="47.31681" lon="-2.37175">
        <ele>92</ele>
        <time>2019-09-22T07:45:03Z</time>
      </trkpt>
      <trkpt lat="47.31684" lon="-2.37183">
        <ele>92</ele>
        <time>2019-09-22T07:45:04Z</time>
      </trkpt>
      <trkpt lat="47.31685" lon="-2.37191">
        <ele>92</ele>
        <time>2019-09-22T07:45:06Z</time>
      </trkpt>
      <trkpt lat="47.31687" lon="-2.37207">
        <ele>93</ele>
        <time>2019-09-22T07:45:07Z</time>
      </trkpt>
      <trkpt lat="47.31685" lon="-2.37216">
        <ele>93</ele>
        <time>2019-09-22T07:45:08Z</time>
      </trkpt>
      <trkpt lat="47.31683" lon="-2.37224">
        <ele>94</ele>
        <time>2019-09-22T07:45:10Z</time>
      </trkpt>
      <trkpt lat="47.3168" lon="-2.37232">
        <ele>94</ele>
        <time>2019-09-22T07:45:11Z</time>
      </trkpt>
      <trkpt lat="47.31665" lon="-2.37249">
        <ele>94</ele>
        <time>2019-09-22T07:45:14Z</time>
      </trkpt>
      <trkpt lat="47.3166" lon="-2.37254">
        <ele>94</ele>
        <time>2019-09-22T07:45:15Z</time>
      </trkpt>
      <trkpt lat="47.31651" lon="-2.37263">
        <ele>94</ele>
        <time>2019-09-22T07:45:17Z</time>
      </trkpt>
      <trkpt lat="47.31636" lon="-2.37274">
        <ele>94</ele>
        <time>2019-09-22T07:45:20Z</time>
      </trkpt>
      <trkpt lat="47.31631" lon="-2.37279">
        <ele>95</ele>
        <time>2019-09-22T07:45:21Z</time>
      </trkpt>
      <trkpt lat="47.31627" lon="-2.37285">
        <ele>94</ele>
        <time>2019-09-22T07:45:22Z</time>
      </trkpt>
      <trkpt lat="47.31624" lon="-2.37292">
        <ele>94</ele>
        <time>2019-09-22T07:45:23Z</time>
      </trkpt>
      <trkpt lat="47.31621" lon="-2.37298">
        <ele>94</ele>
        <time>2019-09-22T07:45:24Z</time>
      </trkpt>
      <trkpt lat="47.3162" lon="-2.37307">
        <ele>94</ele>
        <time>2019-09-22T07:45:25Z</time>
      </trkpt>
      <trkpt lat="47.3162" lon="-2.37315">
        <ele>94</ele>
        <time>2019-09-22T07:45:26Z</time>
      </trkpt>
      <trkpt lat="47.31621" lon="-2.37324">
        <ele>94</ele>
        <time>2019-09-22T07:45:27Z</time>
      </trkpt>
      <trkpt lat="47.31622" lon="-2.37333">
        <ele>94</ele>
        <time>2019-09-22T07:45:28Z</time>
      </trkpt>
      <trkpt lat="47.31623" lon="-2.37342">
        <ele>94</ele>
        <time>2019-09-22T07:45:29Z</time>
      </trkpt>
      <trkpt lat="47.31625" lon="-2.37351">
        <ele>93</ele>
        <time>2019-09-22T07:45:30Z</time>
      </trkpt>
      <trkpt lat="47.31628" lon="-2.37359">
        <ele>93</ele>
        <time>2019-09-22T07:45:31Z</time>
      </trkpt>
      <trkpt lat="47.3163" lon="-2.37368">
        <ele>93</ele>
        <time>2019-09-22T07:45:32Z</time>
      </trkpt>
      <trkpt lat="47.31635" lon="-2.37402">
        <ele>92</ele>
        <time>2019-09-22T07:45:35Z</time>
      </trkpt>
      <trkpt lat="47.31636" lon="-2.37411">
        <ele>92</ele>
        <time>2019-09-22T07:45:36Z</time>
      </trkpt>
      <trkpt lat="47.31637" lon="-2.37419">
        <ele>92</ele>
        <time>2019-09-22T07:45:37Z</time>
      </trkpt>
      <trkpt lat="47.31637" lon="-2.37428">
        <ele>91</ele>
        <time>2019-09-22T07:45:38Z</time>
      </trkpt>
      <trkpt lat="47.31637" lon="-2.37437">
        <ele>92</ele>
        <time>2019-09-22T07:45:39Z</time>
      </trkpt>
      <trkpt lat="47.31637" lon="-2.37446">
        <ele>92</ele>
        <time>2019-09-22T07:45:40Z</time>
      </trkpt>
      <trkpt lat="47.31637" lon="-2.37454">
        <ele>92</ele>
        <time>2019-09-22T07:45:41Z</time>
      </trkpt>
      <trkpt lat="47.31638" lon="-2.37464">
        <ele>91</ele>
        <time>2019-09-22T07:45:42Z</time>
      </trkpt>
      <trkpt lat="47.31639" lon="-2.37473">
        <ele>91</ele>
        <time>2019-09-22T07:45:43Z</time>
      </trkpt>
      <trkpt lat="47.31639" lon="-2.37483">
        <ele>92</ele>
        <time>2019-09-22T07:45:44Z</time>
      </trkpt>
      <trkpt lat="47.31639" lon="-2.37492">
        <ele>91</ele>
        <time>2019-09-22T07:45:45Z</time>
      </trkpt>
      <trkpt lat="47.31638" lon="-2.37501">
        <ele>91</ele>
        <time>2019-09-22T07:45:46Z</time>
      </trkpt>
      <trkpt lat="47.31636" lon="-2.37509">
        <ele>91</ele>
        <time>2019-09-22T07:45:47Z</time>
      </trkpt>
      <trkpt lat="47.31634" lon="-2.37517">
        <ele>91</ele>
        <time>2019-09-22T07:45:48Z</time>
      </trkpt>
      <trkpt lat="47.31631" lon="-2.37525">
        <ele>91</ele>
        <time>2019-09-22T07:45:49Z</time>
      </trkpt>
      <trkpt lat="47.31628" lon="-2.37534">
        <ele>91</ele>
        <time>2019-09-22T07:45:50Z</time>
      </trkpt>
      <trkpt lat="47.31625" lon="-2.37542">
        <ele>91</ele>
        <time>2019-09-22T07:45:51Z</time>
      </trkpt>
      <trkpt lat="47.31617" lon="-2.37568">
        <ele>92</ele>
        <time>2019-09-22T07:45:54Z</time>
      </trkpt>
      <trkpt lat="47.31616" lon="-2.37577">
        <ele>92</ele>
        <time>2019-09-22T07:45:55Z</time>
      </trkpt>
      <trkpt lat="47.31615" lon="-2.37586">
        <ele>92</ele>
        <time>2019-09-22T07:45:56Z</time>
      </trkpt>
      <trkpt lat="47.31614" lon="-2.37595">
        <ele>92</ele>
        <time>2019-09-22T07:45:57Z</time>
      </trkpt>
      <trkpt lat="47.31615" lon="-2.37604">
        <ele>92</ele>
        <time>2019-09-22T07:45:58Z</time>
      </trkpt>
      <trkpt lat="47.31615" lon="-2.37613">
        <ele>92</ele>
        <time>2019-09-22T07:45:59Z</time>
      </trkpt>
      <trkpt lat="47.31616" lon="-2.37623">
        <ele>92</ele>
        <time>2019-09-22T07:46:00Z</time>
      </trkpt>
      <trkpt lat="47.31618" lon="-2.37632">
        <ele>92</ele>
        <time>2019-09-22T07:46:01Z</time>
      </trkpt>
      <trkpt lat="47.3162" lon="-2.3764">
        <ele>91</ele>
        <time>2019-09-22T07:46:02Z</time>
      </trkpt>
      <trkpt lat="47.31628" lon="-2.37654">
        <ele>91</ele>
        <time>2019-09-22T07:46:05Z</time>
      </trkpt>
      <trkpt lat="47.3164" lon="-2.37662">
        <ele>92</ele>
        <time>2019-09-22T07:46:07Z</time>
      </trkpt>
      <trkpt lat="47.31646" lon="-2.37666">
        <ele>91</ele>
        <time>2019-09-22T07:46:08Z</time>
      </trkpt>
      <trkpt lat="47.31651" lon="-2.3767">
        <ele>91</ele>
        <time>2019-09-22T07:46:09Z</time>
      </trkpt>
      <trkpt lat="47.31657" lon="-2.37673">
        <ele>92</ele>
        <time>2019-09-22T07:46:10Z</time>
      </trkpt>
      <trkpt lat="47.31662" lon="-2.37678">
        <ele>92</ele>
        <time>2019-09-22T07:46:11Z</time>
      </trkpt>
      <trkpt lat="47.31667" lon="-2.37683">
        <ele>92</ele>
        <time>2019-09-22T07:46:12Z</time>
      </trkpt>
      <trkpt lat="47.31671" lon="-2.37689">
        <ele>92</ele>
        <time>2019-09-22T07:46:13Z</time>
      </trkpt>
      <trkpt lat="47.31676" lon="-2.37695">
        <ele>92</ele>
        <time>2019-09-22T07:46:14Z</time>
      </trkpt>
      <trkpt lat="47.31681" lon="-2.377">
        <ele>92</ele>
        <time>2019-09-22T07:46:15Z</time>
      </trkpt>
      <trkpt lat="47.31686" lon="-2.37704">
        <ele>92</ele>
        <time>2019-09-22T07:46:16Z</time>
      </trkpt>
      <trkpt lat="47.31691" lon="-2.37708">
        <ele>92</ele>
        <time>2019-09-22T07:46:17Z</time>
      </trkpt>
      <trkpt lat="47.31709" lon="-2.37714">
        <ele>91</ele>
        <time>2019-09-22T07:46:19Z</time>
      </trkpt>
      <trkpt lat="47.31715" lon="-2.37715">
        <ele>91</ele>
        <time>2019-09-22T07:46:21Z</time>
      </trkpt>
      <trkpt lat="47.3172" lon="-2.37715">
        <ele>91</ele>
        <time>2019-09-22T07:46:22Z</time>
      </trkpt>
      <trkpt lat="47.31725" lon="-2.37714">
        <ele>91</ele>
        <time>2019-09-22T07:46:23Z</time>
      </trkpt>
      <trkpt lat="47.31737" lon="-2.37711">
        <ele>91</ele>
        <time>2019-09-22T07:46:25Z</time>
      </trkpt>
      <trkpt lat="47.31742" lon="-2.37708">
        <ele>91</ele>
        <time>2019-09-22T07:46:26Z</time>
      </trkpt>
      <trkpt lat="47.31747" lon="-2.37705">
        <ele>91</ele>
        <time>2019-09-22T07:46:27Z</time>
      </trkpt>
      <trkpt lat="47.31752" lon="-2.377">
        <ele>92</ele>
        <time>2019-09-22T07:46:28Z</time>
      </trkpt>
      <trkpt lat="47.31757" lon="-2.37696">
        <ele>92</ele>
        <time>2019-09-22T07:46:29Z</time>
      </trkpt>
      <trkpt lat="47.31762" lon="-2.37692">
        <ele>92</ele>
        <time>2019-09-22T07:46:30Z</time>
      </trkpt>
      <trkpt lat="47.31771" lon="-2.37683">
        <ele>92</ele>
        <time>2019-09-22T07:46:32Z</time>
      </trkpt>
      <trkpt lat="47.31776" lon="-2.37678">
        <ele>92</ele>
        <time>2019-09-22T07:46:33Z</time>
      </trkpt>
      <trkpt lat="47.31786" lon="-2.3767">
        <ele>92</ele>
        <time>2019-09-22T07:46:35Z</time>
      </trkpt>
      <trkpt lat="47.31795" lon="-2.37662">
        <ele>92</ele>
        <time>2019-09-22T07:46:36Z</time>
      </trkpt>
      <trkpt lat="47.31806" lon="-2.37657">
        <ele>92</ele>
        <time>2019-09-22T07:46:38Z</time>
      </trkpt>
      <trkpt lat="47.31811" lon="-2.37656">
        <ele>92</ele>
        <time>2019-09-22T07:46:39Z</time>
      </trkpt>
      <trkpt lat="47.31824" lon="-2.37661">
        <ele>91</ele>
        <time>2019-09-22T07:46:42Z</time>
      </trkpt>
      <trkpt lat="47.31826" lon="-2.37672">
        <ele>91</ele>
        <time>2019-09-22T07:46:44Z</time>
      </trkpt>
      <trkpt lat="47.31825" lon="-2.37678">
        <ele>91</ele>
        <time>2019-09-22T07:46:46Z</time>
      </trkpt>
      <trkpt lat="47.31823" lon="-2.37685">
        <ele>91</ele>
        <time>2019-09-22T07:46:47Z</time>
      </trkpt>
      <trkpt lat="47.31819" lon="-2.377">
        <ele>91</ele>
        <time>2019-09-22T07:46:48Z</time>
      </trkpt>
      <trkpt lat="47.31818" lon="-2.37708">
        <ele>91</ele>
        <time>2019-09-22T07:46:49Z</time>
      </trkpt>
      <trkpt lat="47.31816" lon="-2.37717">
        <ele>91</ele>
        <time>2019-09-22T07:46:50Z</time>
      </trkpt>
      <trkpt lat="47.31815" lon="-2.37725">
        <ele>92</ele>
        <time>2019-09-22T07:46:51Z</time>
      </trkpt>
      <trkpt lat="47.31815" lon="-2.37734">
        <ele>91</ele>
        <time>2019-09-22T07:46:52Z</time>
      </trkpt>
      <trkpt lat="47.31814" lon="-2.37743">
        <ele>91</ele>
        <time>2019-09-22T07:46:53Z</time>
      </trkpt>
      <trkpt lat="47.31813" lon="-2.37752">
        <ele>91</ele>
        <time>2019-09-22T07:46:54Z</time>
      </trkpt>
      <trkpt lat="47.31812" lon="-2.37762">
        <ele>91</ele>
        <time>2019-09-22T07:46:55Z</time>
      </trkpt>
      <trkpt lat="47.31812" lon="-2.37771">
        <ele>91</ele>
        <time>2019-09-22T07:46:56Z</time>
      </trkpt>
      <trkpt lat="47.31811" lon="-2.37781">
        <ele>91</ele>
        <time>2019-09-22T07:46:57Z</time>
      </trkpt>
      <trkpt lat="47.3181" lon="-2.37791">
        <ele>90</ele>
        <time>2019-09-22T07:46:58Z</time>
      </trkpt>
      <trkpt lat="47.31808" lon="-2.37801">
        <ele>91</ele>
        <time>2019-09-22T07:46:59Z</time>
      </trkpt>
      <trkpt lat="47.31807" lon="-2.37812">
        <ele>90</ele>
        <time>2019-09-22T07:47:01Z</time>
      </trkpt>
      <trkpt lat="47.31807" lon="-2.37823">
        <ele>90</ele>
        <time>2019-09-22T07:47:02Z</time>
      </trkpt>
      <trkpt lat="47.31806" lon="-2.37833">
        <ele>90</ele>
        <time>2019-09-22T07:47:03Z</time>
      </trkpt>
      <trkpt lat="47.31805" lon="-2.37843">
        <ele>90</ele>
        <time>2019-09-22T07:47:04Z</time>
      </trkpt>
      <trkpt lat="47.31804" lon="-2.37853">
        <ele>90</ele>
        <time>2019-09-22T07:47:05Z</time>
      </trkpt>
      <trkpt lat="47.31803" lon="-2.37863">
        <ele>89</ele>
        <time>2019-09-22T07:47:06Z</time>
      </trkpt>
      <trkpt lat="47.31802" lon="-2.37874">
        <ele>89</ele>
        <time>2019-09-22T07:47:07Z</time>
      </trkpt>
      <trkpt lat="47.31801" lon="-2.37885">
        <ele>89</ele>
        <time>2019-09-22T07:47:08Z</time>
      </trkpt>
      <trkpt lat="47.318" lon="-2.37895">
        <ele>88</ele>
        <time>2019-09-22T07:47:09Z</time>
      </trkpt>
      <trkpt lat="47.31799" lon="-2.37907">
        <ele>88</ele>
        <time>2019-09-22T07:47:10Z</time>
      </trkpt>
      <trkpt lat="47.31798" lon="-2.37918">
        <ele>88</ele>
        <time>2019-09-22T07:47:11Z</time>
      </trkpt>
      <trkpt lat="47.31798" lon="-2.37929">
        <ele>87</ele>
        <time>2019-09-22T07:47:12Z</time>
      </trkpt>
      <trkpt lat="47.31797" lon="-2.37939">
        <ele>87</ele>
        <time>2019-09-22T07:47:13Z</time>
      </trkpt>
      <trkpt lat="47.31796" lon="-2.3795">
        <ele>87</ele>
        <time>2019-09-22T07:47:14Z</time>
      </trkpt>
      <trkpt lat="47.31796" lon="-2.37972">
        <ele>86</ele>
        <time>2019-09-22T07:47:15Z</time>
      </trkpt>
      <trkpt lat="47.31796" lon="-2.37983">
        <ele>86</ele>
        <time>2019-09-22T07:47:16Z</time>
      </trkpt>
      <trkpt lat="47.31796" lon="-2.37995">
        <ele>86</ele>
        <time>2019-09-22T07:47:17Z</time>
      </trkpt>
      <trkpt lat="47.31796" lon="-2.38007">
        <ele>85</ele>
        <time>2019-09-22T07:47:19Z</time>
      </trkpt>
      <trkpt lat="47.31797" lon="-2.38018">
        <ele>86</ele>
        <time>2019-09-22T07:47:20Z</time>
      </trkpt>
      <trkpt lat="47.31798" lon="-2.3805">
        <ele>86</ele>
        <time>2019-09-22T07:47:23Z</time>
      </trkpt>
      <trkpt lat="47.31801" lon="-2.38081">
        <ele>86</ele>
        <time>2019-09-22T07:47:26Z</time>
      </trkpt>
      <trkpt lat="47.318" lon="-2.38092">
        <ele>86</ele>
        <time>2019-09-22T07:47:27Z</time>
      </trkpt>
      <trkpt lat="47.31801" lon="-2.38102">
        <ele>86</ele>
        <time>2019-09-22T07:47:28Z</time>
      </trkpt>
      <trkpt lat="47.31801" lon="-2.38113">
        <ele>85</ele>
        <time>2019-09-22T07:47:29Z</time>
      </trkpt>
      <trkpt lat="47.31801" lon="-2.38124">
        <ele>85</ele>
        <time>2019-09-22T07:47:30Z</time>
      </trkpt>
      <trkpt lat="47.31802" lon="-2.38144">
        <ele>85</ele>
        <time>2019-09-22T07:47:31Z</time>
      </trkpt>
      <trkpt lat="47.31803" lon="-2.38155">
        <ele>85</ele>
        <time>2019-09-22T07:47:32Z</time>
      </trkpt>
      <trkpt lat="47.31804" lon="-2.38174">
        <ele>85</ele>
        <time>2019-09-22T07:47:34Z</time>
      </trkpt>
      <trkpt lat="47.31804" lon="-2.38185">
        <ele>85</ele>
        <time>2019-09-22T07:47:35Z</time>
      </trkpt>
      <trkpt lat="47.31805" lon="-2.38195">
        <ele>85</ele>
        <time>2019-09-22T07:47:36Z</time>
      </trkpt>
      <trkpt lat="47.31805" lon="-2.38205">
        <ele>85</ele>
        <time>2019-09-22T07:47:37Z</time>
      </trkpt>
      <trkpt lat="47.31806" lon="-2.38215">
        <ele>85</ele>
        <time>2019-09-22T07:47:38Z</time>
      </trkpt>
      <trkpt lat="47.31807" lon="-2.38225">
        <ele>85</ele>
        <time>2019-09-22T07:47:39Z</time>
      </trkpt>
      <trkpt lat="47.31807" lon="-2.38235">
        <ele>86</ele>
        <time>2019-09-22T07:47:40Z</time>
      </trkpt>
      <trkpt lat="47.31808" lon="-2.38264">
        <ele>86</ele>
        <time>2019-09-22T07:47:44Z</time>
      </trkpt>
      <trkpt lat="47.31809" lon="-2.38273">
        <ele>86</ele>
        <time>2019-09-22T07:47:45Z</time>
      </trkpt>
      <trkpt lat="47.31809" lon="-2.38282">
        <ele>86</ele>
        <time>2019-09-22T07:47:46Z</time>
      </trkpt>
      <trkpt lat="47.3181" lon="-2.383">
        <ele>87</ele>
        <time>2019-09-22T07:47:48Z</time>
      </trkpt>
      <trkpt lat="47.3181" lon="-2.38309">
        <ele>87</ele>
        <time>2019-09-22T07:47:49Z</time>
      </trkpt>
      <trkpt lat="47.3181" lon="-2.38319">
        <ele>87</ele>
        <time>2019-09-22T07:47:50Z</time>
      </trkpt>
      <trkpt lat="47.3181" lon="-2.38328">
        <ele>87</ele>
        <time>2019-09-22T07:47:51Z</time>
      </trkpt>
      <trkpt lat="47.3181" lon="-2.38336">
        <ele>87</ele>
        <time>2019-09-22T07:47:52Z</time>
      </trkpt>
      <trkpt lat="47.3181" lon="-2.38345">
        <ele>87</ele>
        <time>2019-09-22T07:47:53Z</time>
      </trkpt>
      <trkpt lat="47.31811" lon="-2.38353">
        <ele>88</ele>
        <time>2019-09-22T07:47:54Z</time>
      </trkpt>
      <trkpt lat="47.31811" lon="-2.38362">
        <ele>88</ele>
        <time>2019-09-22T07:47:55Z</time>
      </trkpt>
      <trkpt lat="47.31811" lon="-2.3837">
        <ele>88</ele>
        <time>2019-09-22T07:47:56Z</time>
      </trkpt>
      <trkpt lat="47.31811" lon="-2.38378">
        <ele>88</ele>
        <time>2019-09-22T07:47:57Z</time>
      </trkpt>
      <trkpt lat="47.31811" lon="-2.38385">
        <ele>88</ele>
        <time>2019-09-22T07:47:58Z</time>
      </trkpt>
      <trkpt lat="47.31811" lon="-2.384">
        <ele>89</ele>
        <time>2019-09-22T07:48:00Z</time>
      </trkpt>
      <trkpt lat="47.31811" lon="-2.38408">
        <ele>89</ele>
        <time>2019-09-22T07:48:01Z</time>
      </trkpt>
      <trkpt lat="47.31811" lon="-2.38416">
        <ele>89</ele>
        <time>2019-09-22T07:48:02Z</time>
      </trkpt>
      <trkpt lat="47.3181" lon="-2.38423">
        <ele>90</ele>
        <time>2019-09-22T07:48:03Z</time>
      </trkpt>
      <trkpt lat="47.31811" lon="-2.38431">
        <ele>90</ele>
        <time>2019-09-22T07:48:04Z</time>
      </trkpt>
      <trkpt lat="47.3181" lon="-2.3844">
        <ele>90</ele>
        <time>2019-09-22T07:48:05Z</time>
      </trkpt>
      <trkpt lat="47.3181" lon="-2.38448">
        <ele>90</ele>
        <time>2019-09-22T07:48:06Z</time>
      </trkpt>
      <trkpt lat="47.3181" lon="-2.38456">
        <ele>90</ele>
        <time>2019-09-22T07:48:07Z</time>
      </trkpt>
      <trkpt lat="47.3181" lon="-2.38464">
        <ele>90</ele>
        <time>2019-09-22T07:48:08Z</time>
      </trkpt>
      <trkpt lat="47.3181" lon="-2.38472">
        <ele>91</ele>
        <time>2019-09-22T07:48:09Z</time>
      </trkpt>
      <trkpt lat="47.3181" lon="-2.38488">
        <ele>91</ele>
        <time>2019-09-22T07:48:11Z</time>
      </trkpt>
      <trkpt lat="47.3181" lon="-2.38495">
        <ele>91</ele>
        <time>2019-09-22T07:48:12Z</time>
      </trkpt>
      <trkpt lat="47.3181" lon="-2.38501">
        <ele>91</ele>
        <time>2019-09-22T07:48:13Z</time>
      </trkpt>
      <trkpt lat="47.31809" lon="-2.3852">
        <ele>91</ele>
        <time>2019-09-22T07:48:16Z</time>
      </trkpt>
      <trkpt lat="47.31811" lon="-2.3853">
        <ele>91</ele>
        <time>2019-09-22T07:48:18Z</time>
      </trkpt>
      <trkpt lat="47.31822" lon="-2.3854">
        <ele>90</ele>
        <time>2019-09-22T07:48:21Z</time>
      </trkpt>
      <trkpt lat="47.31827" lon="-2.38538">
        <ele>90</ele>
        <time>2019-09-22T07:48:22Z</time>
      </trkpt>
      <trkpt lat="47.31832" lon="-2.38537">
        <ele>90</ele>
        <time>2019-09-22T07:48:23Z</time>
      </trkpt>
      <trkpt lat="47.31838" lon="-2.38535">
        <ele>91</ele>
        <time>2019-09-22T07:48:24Z</time>
      </trkpt>
      <trkpt lat="47.31844" lon="-2.38533">
        <ele>91</ele>
        <time>2019-09-22T07:48:25Z</time>
      </trkpt>
      <trkpt lat="47.31863" lon="-2.38527">
        <ele>90</ele>
        <time>2019-09-22T07:48:28Z</time>
      </trkpt>
      <trkpt lat="47.3187" lon="-2.38524">
        <ele>90</ele>
        <time>2019-09-22T07:48:29Z</time>
      </trkpt>
      <trkpt lat="47.31877" lon="-2.38522">
        <ele>90</ele>
        <time>2019-09-22T07:48:30Z</time>
      </trkpt>
      <trkpt lat="47.31884" lon="-2.38519">
        <ele>90</ele>
        <time>2019-09-22T07:48:31Z</time>
      </trkpt>
      <trkpt lat="47.31891" lon="-2.38516">
        <ele>90</ele>
        <time>2019-09-22T07:48:32Z</time>
      </trkpt>
      <trkpt lat="47.31898" lon="-2.38512">
        <ele>90</ele>
        <time>2019-09-22T07:48:33Z</time>
      </trkpt>
      <trkpt lat="47.31905" lon="-2.38508">
        <ele>90</ele>
        <time>2019-09-22T07:48:34Z</time>
      </trkpt>
      <trkpt lat="47.31912" lon="-2.38504">
        <ele>89</ele>
        <time>2019-09-22T07:48:35Z</time>
      </trkpt>
      <trkpt lat="47.31919" lon="-2.385">
        <ele>89</ele>
        <time>2019-09-22T07:48:36Z</time>
      </trkpt>
      <trkpt lat="47.31925" lon="-2.38496">
        <ele>89</ele>
        <time>2019-09-22T07:48:37Z</time>
      </trkpt>
      <trkpt lat="47.31954" lon="-2.3849">
        <ele>89</ele>
        <time>2019-09-22T07:48:41Z</time>
      </trkpt>
      <trkpt lat="47.31961" lon="-2.38488">
        <ele>89</ele>
        <time>2019-09-22T07:48:42Z</time>
      </trkpt>
      <trkpt lat="47.31982" lon="-2.38482">
        <ele>89</ele>
        <time>2019-09-22T07:48:45Z</time>
      </trkpt>
      <trkpt lat="47.32002" lon="-2.38472">
        <ele>89</ele>
        <time>2019-09-22T07:48:47Z</time>
      </trkpt>
      <trkpt lat="47.32021" lon="-2.38465">
        <ele>90</ele>
        <time>2019-09-22T07:48:50Z</time>
      </trkpt>
      <trkpt lat="47.32034" lon="-2.38459">
        <ele>89</ele>
        <time>2019-09-22T07:48:52Z</time>
      </trkpt>
      <trkpt lat="47.32041" lon="-2.38455">
        <ele>89</ele>
        <time>2019-09-22T07:48:53Z</time>
      </trkpt>
      <trkpt lat="47.32047" lon="-2.38452">
        <ele>89</ele>
        <time>2019-09-22T07:48:54Z</time>
      </trkpt>
      <trkpt lat="47.32054" lon="-2.38448">
        <ele>89</ele>
        <time>2019-09-22T07:48:55Z</time>
      </trkpt>
      <trkpt lat="47.32073" lon="-2.38439">
        <ele>88</ele>
        <time>2019-09-22T07:48:58Z</time>
      </trkpt>
      <trkpt lat="47.32093" lon="-2.3843">
        <ele>89</ele>
        <time>2019-09-22T07:49:01Z</time>
      </trkpt>
      <trkpt lat="47.32099" lon="-2.38428">
        <ele>89</ele>
        <time>2019-09-22T07:49:02Z</time>
      </trkpt>
      <trkpt lat="47.32105" lon="-2.38427">
        <ele>89</ele>
        <time>2019-09-22T07:49:03Z</time>
      </trkpt>
      <trkpt lat="47.32112" lon="-2.38424">
        <ele>89</ele>
        <time>2019-09-22T07:49:04Z</time>
      </trkpt>
      <trkpt lat="47.32119" lon="-2.38422">
        <ele>89</ele>
        <time>2019-09-22T07:49:05Z</time>
      </trkpt>
      <trkpt lat="47.32123" lon="-2.38418">
        <ele>89</ele>
        <time>2019-09-22T07:49:07Z</time>
      </trkpt>
      <trkpt lat="47.32128" lon="-2.38415">
        <ele>88</ele>
        <time>2019-09-22T07:49:08Z</time>
      </trkpt>
      <trkpt lat="47.32132" lon="-2.38413">
        <ele>87</ele>
        <time>2019-09-22T07:49:09Z</time>
      </trkpt>
      <trkpt lat="47.32135" lon="-2.3841">
        <ele>87</ele>
        <time>2019-09-22T07:49:10Z</time>
      </trkpt>
      <trkpt lat="47.32146" lon="-2.38398">
        <ele>88</ele>
        <time>2019-09-22T07:49:13Z</time>
      </trkpt>
      <trkpt lat="47.32152" lon="-2.38389">
        <ele>89</ele>
        <time>2019-09-22T07:49:15Z</time>
      </trkpt>
      <trkpt lat="47.32169" lon="-2.38366">
        <ele>89</ele>
        <time>2019-09-22T07:49:20Z</time>
      </trkpt>
      <trkpt lat="47.32173" lon="-2.38361">
        <ele>88</ele>
        <time>2019-09-22T07:49:21Z</time>
      </trkpt>
      <trkpt lat="47.32176" lon="-2.38354">
        <ele>88</ele>
        <time>2019-09-22T07:49:22Z</time>
      </trkpt>
      <trkpt lat="47.32184" lon="-2.38343">
        <ele>88</ele>
        <time>2019-09-22T07:49:24Z</time>
      </trkpt>
      <trkpt lat="47.32187" lon="-2.38336">
        <ele>88</ele>
        <time>2019-09-22T07:49:25Z</time>
      </trkpt>
      <trkpt lat="47.3219" lon="-2.38331">
        <ele>88</ele>
        <time>2019-09-22T07:49:26Z</time>
      </trkpt>
      <trkpt lat="47.32194" lon="-2.38325">
        <ele>88</ele>
        <time>2019-09-22T07:49:27Z</time>
      </trkpt>
      <trkpt lat="47.32199" lon="-2.38319">
        <ele>87</ele>
        <time>2019-09-22T07:49:28Z</time>
      </trkpt>
      <trkpt lat="47.32202" lon="-2.38314">
        <ele>87</ele>
        <time>2019-09-22T07:49:29Z</time>
      </trkpt>
      <trkpt lat="47.32206" lon="-2.38309">
        <ele>87</ele>
        <time>2019-09-22T07:49:30Z</time>
      </trkpt>
      <trkpt lat="47.3221" lon="-2.38303">
        <ele>87</ele>
        <time>2019-09-22T07:49:31Z</time>
      </trkpt>
      <trkpt lat="47.32215" lon="-2.383">
        <ele>87</ele>
        <time>2019-09-22T07:49:32Z</time>
      </trkpt>
      <trkpt lat="47.3222" lon="-2.38299">
        <ele>87</ele>
        <time>2019-09-22T07:49:33Z</time>
      </trkpt>
      <trkpt lat="47.32232" lon="-2.38298">
        <ele>87</ele>
        <time>2019-09-22T07:49:35Z</time>
      </trkpt>
      <trkpt lat="47.32242" lon="-2.38295">
        <ele>87</ele>
        <time>2019-09-22T07:49:37Z</time>
      </trkpt>
      <trkpt lat="47.32248" lon="-2.38293">
        <ele>87</ele>
        <time>2019-09-22T07:49:38Z</time>
      </trkpt>
      <trkpt lat="47.32265" lon="-2.3829">
        <ele>87</ele>
        <time>2019-09-22T07:49:40Z</time>
      </trkpt>
      <trkpt lat="47.32271" lon="-2.38289">
        <ele>87</ele>
        <time>2019-09-22T07:49:41Z</time>
      </trkpt>
      <trkpt lat="47.32276" lon="-2.3829">
        <ele>87</ele>
        <time>2019-09-22T07:49:42Z</time>
      </trkpt>
      <trkpt lat="47.32299" lon="-2.38296">
        <ele>87</ele>
        <time>2019-09-22T07:49:47Z</time>
      </trkpt>
      <trkpt lat="47.32304" lon="-2.38299">
        <ele>87</ele>
        <time>2019-09-22T07:49:48Z</time>
      </trkpt>
      <trkpt lat="47.3232" lon="-2.38305">
        <ele>88</ele>
        <time>2019-09-22T07:49:51Z</time>
      </trkpt>
      <trkpt lat="47.32331" lon="-2.38308">
        <ele>88</ele>
        <time>2019-09-22T07:49:53Z</time>
      </trkpt>
      <trkpt lat="47.32337" lon="-2.3831">
        <ele>88</ele>
        <time>2019-09-22T07:49:54Z</time>
      </trkpt>
      <trkpt lat="47.32343" lon="-2.38312">
        <ele>88</ele>
        <time>2019-09-22T07:49:55Z</time>
      </trkpt>
      <trkpt lat="47.32348" lon="-2.38314">
        <ele>88</ele>
        <time>2019-09-22T07:49:56Z</time>
      </trkpt>
      <trkpt lat="47.32362" lon="-2.3832">
        <ele>89</ele>
        <time>2019-09-22T07:49:59Z</time>
      </trkpt>
      <trkpt lat="47.32367" lon="-2.38323">
        <ele>89</ele>
        <time>2019-09-22T07:50:00Z</time>
      </trkpt>
      <trkpt lat="47.32376" lon="-2.38327">
        <ele>89</ele>
        <time>2019-09-22T07:50:02Z</time>
      </trkpt>
      <trkpt lat="47.32381" lon="-2.38331">
        <ele>90</ele>
        <time>2019-09-22T07:50:03Z</time>
      </trkpt>
      <trkpt lat="47.32386" lon="-2.38334">
        <ele>91</ele>
        <time>2019-09-22T07:50:04Z</time>
      </trkpt>
      <trkpt lat="47.32391" lon="-2.38337">
        <ele>91</ele>
        <time>2019-09-22T07:50:05Z</time>
      </trkpt>
      <trkpt lat="47.32397" lon="-2.3834">
        <ele>91</ele>
        <time>2019-09-22T07:50:06Z</time>
      </trkpt>
      <trkpt lat="47.32401" lon="-2.38343">
        <ele>91</ele>
        <time>2019-09-22T07:50:07Z</time>
      </trkpt>
      <trkpt lat="47.32406" lon="-2.38345">
        <ele>91</ele>
        <time>2019-09-22T07:50:08Z</time>
      </trkpt>
      <trkpt lat="47.32412" lon="-2.38349">
        <ele>91</ele>
        <time>2019-09-22T07:50:09Z</time>
      </trkpt>
      <trkpt lat="47.32417" lon="-2.38351">
        <ele>91</ele>
        <time>2019-09-22T07:50:10Z</time>
      </trkpt>
      <trkpt lat="47.32422" lon="-2.38354">
        <ele>91</ele>
        <time>2019-09-22T07:50:11Z</time>
      </trkpt>
      <trkpt lat="47.32439" lon="-2.38364">
        <ele>92</ele>
        <time>2019-09-22T07:50:14Z</time>
      </trkpt>
      <trkpt lat="47.32446" lon="-2.38367">
        <ele>92</ele>
        <time>2019-09-22T07:50:15Z</time>
      </trkpt>
      <trkpt lat="47.32452" lon="-2.38369">
        <ele>91</ele>
        <time>2019-09-22T07:50:16Z</time>
      </trkpt>
      <trkpt lat="47.32472" lon="-2.38377">
        <ele>92</ele>
        <time>2019-09-22T07:50:19Z</time>
      </trkpt>
      <trkpt lat="47.32478" lon="-2.38378">
        <ele>92</ele>
        <time>2019-09-22T07:50:20Z</time>
      </trkpt>
      <trkpt lat="47.3249" lon="-2.38382">
        <ele>91</ele>
        <time>2019-09-22T07:50:22Z</time>
      </trkpt>
      <trkpt lat="47.32495" lon="-2.38385">
        <ele>91</ele>
        <time>2019-09-22T07:50:23Z</time>
      </trkpt>
      <trkpt lat="47.32501" lon="-2.38387">
        <ele>91</ele>
        <time>2019-09-22T07:50:24Z</time>
      </trkpt>
      <trkpt lat="47.32506" lon="-2.38387">
        <ele>91</ele>
        <time>2019-09-22T07:50:25Z</time>
      </trkpt>
      <trkpt lat="47.32511" lon="-2.38388">
        <ele>91</ele>
        <time>2019-09-22T07:50:26Z</time>
      </trkpt>
      <trkpt lat="47.32518" lon="-2.38389">
        <ele>91</ele>
        <time>2019-09-22T07:50:28Z</time>
      </trkpt>
      <trkpt lat="47.32522" lon="-2.38382">
        <ele>91</ele>
        <time>2019-09-22T07:50:30Z</time>
      </trkpt>
      <trkpt lat="47.32523" lon="-2.38371">
        <ele>91</ele>
        <time>2019-09-22T07:50:32Z</time>
      </trkpt>
      <trkpt lat="47.32524" lon="-2.38358">
        <ele>91</ele>
        <time>2019-09-22T07:50:34Z</time>
      </trkpt>
      <trkpt lat="47.32525" lon="-2.38351">
        <ele>91</ele>
        <time>2019-09-22T07:50:35Z</time>
      </trkpt>
      <trkpt lat="47.32525" lon="-2.38344">
        <ele>91</ele>
        <time>2019-09-22T07:50:36Z</time>
      </trkpt>
      <trkpt lat="47.32526" lon="-2.38337">
        <ele>92</ele>
        <time>2019-09-22T07:50:37Z</time>
      </trkpt>
      <trkpt lat="47.32528" lon="-2.38327">
        <ele>92</ele>
        <time>2019-09-22T07:50:39Z</time>
      </trkpt>
      <trkpt lat="47.32533" lon="-2.38322">
        <ele>91</ele>
        <time>2019-09-22T07:50:41Z</time>
      </trkpt>
      <trkpt lat="47.32549" lon="-2.38319">
        <ele>91</ele>
        <time>2019-09-22T07:50:44Z</time>
      </trkpt>
      <trkpt lat="47.3256" lon="-2.38317">
        <ele>92</ele>
        <time>2019-09-22T07:50:46Z</time>
      </trkpt>
      <trkpt lat="47.32565" lon="-2.38318">
        <ele>92</ele>
        <time>2019-09-22T07:50:47Z</time>
      </trkpt>
      <trkpt lat="47.32581" lon="-2.38311">
        <ele>91</ele>
        <time>2019-09-22T07:50:50Z</time>
      </trkpt>
      <trkpt lat="47.32587" lon="-2.38308">
        <ele>91</ele>
        <time>2019-09-22T07:50:51Z</time>
      </trkpt>
      <trkpt lat="47.32593" lon="-2.38308">
        <ele>90</ele>
        <time>2019-09-22T07:50:52Z</time>
      </trkpt>
      <trkpt lat="47.32599" lon="-2.38307">
        <ele>90</ele>
        <time>2019-09-22T07:50:53Z</time>
      </trkpt>
      <trkpt lat="47.32605" lon="-2.38307">
        <ele>89</ele>
        <time>2019-09-22T07:50:54Z</time>
      </trkpt>
      <trkpt lat="47.3261" lon="-2.38309">
        <ele>88</ele>
        <time>2019-09-22T07:50:55Z</time>
      </trkpt>
      <trkpt lat="47.32619" lon="-2.38317">
        <ele>87</ele>
        <time>2019-09-22T07:50:56Z</time>
      </trkpt>
      <trkpt lat="47.32624" lon="-2.3832">
        <ele>86</ele>
        <time>2019-09-22T07:50:57Z</time>
      </trkpt>
      <trkpt lat="47.32628" lon="-2.38324">
        <ele>86</ele>
        <time>2019-09-22T07:50:58Z</time>
      </trkpt>
      <trkpt lat="47.32632" lon="-2.38328">
        <ele>86</ele>
        <time>2019-09-22T07:50:59Z</time>
      </trkpt>
      <trkpt lat="47.32635" lon="-2.38332">
        <ele>86</ele>
        <time>2019-09-22T07:51:00Z</time>
      </trkpt>
      <trkpt lat="47.32645" lon="-2.38342">
        <ele>84</ele>
        <time>2019-09-22T07:51:03Z</time>
      </trkpt>
      <trkpt lat="47.32652" lon="-2.3835">
        <ele>84</ele>
        <time>2019-09-22T07:51:05Z</time>
      </trkpt>
      <trkpt lat="47.32658" lon="-2.38357">
        <ele>85</ele>
        <time>2019-09-22T07:51:07Z</time>
      </trkpt>
      <trkpt lat="47.32664" lon="-2.38365">
        <ele>84</ele>
        <time>2019-09-22T07:51:09Z</time>
      </trkpt>
      <trkpt lat="47.32667" lon="-2.38369">
        <ele>84</ele>
        <time>2019-09-22T07:51:10Z</time>
      </trkpt>
      <trkpt lat="47.32672" lon="-2.38376">
        <ele>85</ele>
        <time>2019-09-22T07:51:12Z</time>
      </trkpt>
      <trkpt lat="47.32678" lon="-2.38383">
        <ele>86</ele>
        <time>2019-09-22T07:51:14Z</time>
      </trkpt>
      <trkpt lat="47.32685" lon="-2.38396">
        <ele>86</ele>
        <time>2019-09-22T07:51:17Z</time>
      </trkpt>
      <trkpt lat="47.32692" lon="-2.38402">
        <ele>86</ele>
        <time>2019-09-22T07:51:19Z</time>
      </trkpt>
      <trkpt lat="47.32701" lon="-2.38406">
        <ele>87</ele>
        <time>2019-09-22T07:51:22Z</time>
      </trkpt>
      <trkpt lat="47.32705" lon="-2.38408">
        <ele>87</ele>
        <time>2019-09-22T07:51:23Z</time>
      </trkpt>
      <trkpt lat="47.32721" lon="-2.38409">
        <ele>88</ele>
        <time>2019-09-22T07:51:28Z</time>
      </trkpt>
      <trkpt lat="47.32725" lon="-2.38409">
        <ele>88</ele>
        <time>2019-09-22T07:51:30Z</time>
      </trkpt>
      <trkpt lat="47.32738" lon="-2.38404">
        <ele>89</ele>
        <time>2019-09-22T07:51:32Z</time>
      </trkpt>
      <trkpt lat="47.32752" lon="-2.38403">
        <ele>90</ele>
        <time>2019-09-22T07:51:37Z</time>
      </trkpt>
      <trkpt lat="47.32763" lon="-2.38402">
        <ele>90</ele>
        <time>2019-09-22T07:51:40Z</time>
      </trkpt>
      <trkpt lat="47.32767" lon="-2.38401">
        <ele>91</ele>
        <time>2019-09-22T07:51:41Z</time>
      </trkpt>
      <trkpt lat="47.32774" lon="-2.38399">
        <ele>90</ele>
        <time>2019-09-22T07:51:42Z</time>
      </trkpt>
      <trkpt lat="47.3278" lon="-2.38393">
        <ele>90</ele>
        <time>2019-09-22T07:51:45Z</time>
      </trkpt>
      <trkpt lat="47.32786" lon="-2.38365">
        <ele>89</ele>
        <time>2019-09-22T07:51:48Z</time>
      </trkpt>
      <trkpt lat="47.32787" lon="-2.38357">
        <ele>89</ele>
        <time>2019-09-22T07:51:49Z</time>
      </trkpt>
      <trkpt lat="47.32788" lon="-2.38349">
        <ele>88</ele>
        <time>2019-09-22T07:51:51Z</time>
      </trkpt>
      <trkpt lat="47.32789" lon="-2.38341">
        <ele>88</ele>
        <time>2019-09-22T07:51:52Z</time>
      </trkpt>
      <trkpt lat="47.32799" lon="-2.38298">
        <ele>88</ele>
        <time>2019-09-22T07:51:57Z</time>
      </trkpt>
      <trkpt lat="47.32802" lon="-2.38288">
        <ele>88</ele>
        <time>2019-09-22T07:51:58Z</time>
      </trkpt>
      <trkpt lat="47.32804" lon="-2.38277">
        <ele>88</ele>
        <time>2019-09-22T07:51:59Z</time>
      </trkpt>
      <trkpt lat="47.32806" lon="-2.38266">
        <ele>88</ele>
        <time>2019-09-22T07:52:00Z</time>
      </trkpt>
      <trkpt lat="47.32815" lon="-2.38232">
        <ele>88</ele>
        <time>2019-09-22T07:52:03Z</time>
      </trkpt>
      <trkpt lat="47.32818" lon="-2.38221">
        <ele>87</ele>
        <time>2019-09-22T07:52:04Z</time>
      </trkpt>
      <trkpt lat="47.32822" lon="-2.3821">
        <ele>87</ele>
        <time>2019-09-22T07:52:05Z</time>
      </trkpt>
      <trkpt lat="47.32825" lon="-2.38199">
        <ele>87</ele>
        <time>2019-09-22T07:52:06Z</time>
      </trkpt>
      <trkpt lat="47.3283" lon="-2.38188">
        <ele>86</ele>
        <time>2019-09-22T07:52:07Z</time>
      </trkpt>
      <trkpt lat="47.32835" lon="-2.38177">
        <ele>86</ele>
        <time>2019-09-22T07:52:08Z</time>
      </trkpt>
      <trkpt lat="47.3284" lon="-2.38167">
        <ele>85</ele>
        <time>2019-09-22T07:52:09Z</time>
      </trkpt>
      <trkpt lat="47.32845" lon="-2.38158">
        <ele>85</ele>
        <time>2019-09-22T07:52:10Z</time>
      </trkpt>
      <trkpt lat="47.32851" lon="-2.38149">
        <ele>85</ele>
        <time>2019-09-22T07:52:11Z</time>
      </trkpt>
      <trkpt lat="47.32856" lon="-2.38139">
        <ele>84</ele>
        <time>2019-09-22T07:52:12Z</time>
      </trkpt>
      <trkpt lat="47.32862" lon="-2.38131">
        <ele>84</ele>
        <time>2019-09-22T07:52:13Z</time>
      </trkpt>
      <trkpt lat="47.32868" lon="-2.38122">
        <ele>83</ele>
        <time>2019-09-22T07:52:14Z</time>
      </trkpt>
      <trkpt lat="47.32873" lon="-2.38113">
        <ele>83</ele>
        <time>2019-09-22T07:52:15Z</time>
      </trkpt>
      <trkpt lat="47.32878" lon="-2.38104">
        <ele>83</ele>
        <time>2019-09-22T07:52:16Z</time>
      </trkpt>
      <trkpt lat="47.32883" lon="-2.38095">
        <ele>82</ele>
        <time>2019-09-22T07:52:17Z</time>
      </trkpt>
      <trkpt lat="47.32899" lon="-2.38068">
        <ele>81</ele>
        <time>2019-09-22T07:52:19Z</time>
      </trkpt>
      <trkpt lat="47.32904" lon="-2.3806">
        <ele>81</ele>
        <time>2019-09-22T07:52:21Z</time>
      </trkpt>
      <trkpt lat="47.32909" lon="-2.3805">
        <ele>80</ele>
        <time>2019-09-22T07:52:22Z</time>
      </trkpt>
      <trkpt lat="47.32914" lon="-2.38041">
        <ele>80</ele>
        <time>2019-09-22T07:52:23Z</time>
      </trkpt>
      <trkpt lat="47.32919" lon="-2.38032">
        <ele>79</ele>
        <time>2019-09-22T07:52:24Z</time>
      </trkpt>
      <trkpt lat="47.32938" lon="-2.38001">
        <ele>79</ele>
        <time>2019-09-22T07:52:28Z</time>
      </trkpt>
      <trkpt lat="47.32953" lon="-2.37982">
        <ele>79</ele>
        <time>2019-09-22T07:52:31Z</time>
      </trkpt>
      <trkpt lat="47.32958" lon="-2.37976">
        <ele>79</ele>
        <time>2019-09-22T07:52:32Z</time>
      </trkpt>
      <trkpt lat="47.32966" lon="-2.37964">
        <ele>79</ele>
        <time>2019-09-22T07:52:34Z</time>
      </trkpt>
      <trkpt lat="47.32971" lon="-2.37958">
        <ele>80</ele>
        <time>2019-09-22T07:52:35Z</time>
      </trkpt>
      <trkpt lat="47.32975" lon="-2.37951">
        <ele>80</ele>
        <time>2019-09-22T07:52:36Z</time>
      </trkpt>
      <trkpt lat="47.32979" lon="-2.37945">
        <ele>80</ele>
        <time>2019-09-22T07:52:37Z</time>
      </trkpt>
      <trkpt lat="47.32991" lon="-2.37924">
        <ele>80</ele>
        <time>2019-09-22T07:52:40Z</time>
      </trkpt>
      <trkpt lat="47.32995" lon="-2.37917">
        <ele>80</ele>
        <time>2019-09-22T07:52:41Z</time>
      </trkpt>
      <trkpt lat="47.32999" lon="-2.37909">
        <ele>81</ele>
        <time>2019-09-22T07:52:42Z</time>
      </trkpt>
      <trkpt lat="47.33009" lon="-2.37892">
        <ele>80</ele>
        <time>2019-09-22T07:52:43Z</time>
      </trkpt>
      <trkpt lat="47.33014" lon="-2.37883">
        <ele>80</ele>
        <time>2019-09-22T07:52:45Z</time>
      </trkpt>
      <trkpt lat="47.33025" lon="-2.37859">
        <ele>80</ele>
        <time>2019-09-22T07:52:48Z</time>
      </trkpt>
      <trkpt lat="47.33029" lon="-2.37853">
        <ele>80</ele>
        <time>2019-09-22T07:52:49Z</time>
      </trkpt>
      <trkpt lat="47.33034" lon="-2.37848">
        <ele>80</ele>
        <time>2019-09-22T07:52:50Z</time>
      </trkpt>
      <trkpt lat="47.3304" lon="-2.37842">
        <ele>80</ele>
        <time>2019-09-22T07:52:51Z</time>
      </trkpt>
      <trkpt lat="47.33051" lon="-2.3783">
        <ele>80</ele>
        <time>2019-09-22T07:52:53Z</time>
      </trkpt>
      <trkpt lat="47.33056" lon="-2.37825">
        <ele>80</ele>
        <time>2019-09-22T07:52:54Z</time>
      </trkpt>
      <trkpt lat="47.33062" lon="-2.37819">
        <ele>80</ele>
        <time>2019-09-22T07:52:55Z</time>
      </trkpt>
      <trkpt lat="47.33067" lon="-2.37814">
        <ele>81</ele>
        <time>2019-09-22T07:52:56Z</time>
      </trkpt>
      <trkpt lat="47.33078" lon="-2.37804">
        <ele>81</ele>
        <time>2019-09-22T07:52:58Z</time>
      </trkpt>
      <trkpt lat="47.33089" lon="-2.37794">
        <ele>81</ele>
        <time>2019-09-22T07:53:00Z</time>
      </trkpt>
      <trkpt lat="47.33095" lon="-2.37789">
        <ele>81</ele>
        <time>2019-09-22T07:53:01Z</time>
      </trkpt>
      <trkpt lat="47.33106" lon="-2.37777">
        <ele>81</ele>
        <time>2019-09-22T07:53:03Z</time>
      </trkpt>
      <trkpt lat="47.33111" lon="-2.37773">
        <ele>81</ele>
        <time>2019-09-22T07:53:04Z</time>
      </trkpt>
      <trkpt lat="47.33116" lon="-2.37768">
        <ele>81</ele>
        <time>2019-09-22T07:53:05Z</time>
      </trkpt>
      <trkpt lat="47.33121" lon="-2.37762">
        <ele>81</ele>
        <time>2019-09-22T07:53:06Z</time>
      </trkpt>
      <trkpt lat="47.33126" lon="-2.37757">
        <ele>81</ele>
        <time>2019-09-22T07:53:07Z</time>
      </trkpt>
      <trkpt lat="47.33132" lon="-2.37751">
        <ele>81</ele>
        <time>2019-09-22T07:53:08Z</time>
      </trkpt>
      <trkpt lat="47.33139" lon="-2.37748">
        <ele>81</ele>
        <time>2019-09-22T07:53:09Z</time>
      </trkpt>
      <trkpt lat="47.33149" lon="-2.37746">
        <ele>82</ele>
        <time>2019-09-22T07:53:11Z</time>
      </trkpt>
      <trkpt lat="47.33155" lon="-2.37745">
        <ele>81</ele>
        <time>2019-09-22T07:53:12Z</time>
      </trkpt>
      <trkpt lat="47.33161" lon="-2.37753">
        <ele>80</ele>
        <time>2019-09-22T07:53:14Z</time>
      </trkpt>
      <trkpt lat="47.33167" lon="-2.37766">
        <ele>80</ele>
        <time>2019-09-22T07:53:16Z</time>
      </trkpt>
      <trkpt lat="47.3317" lon="-2.37772">
        <ele>80</ele>
        <time>2019-09-22T07:53:17Z</time>
      </trkpt>
      <trkpt lat="47.33174" lon="-2.37778">
        <ele>80</ele>
        <time>2019-09-22T07:53:18Z</time>
      </trkpt>
      <trkpt lat="47.33177" lon="-2.37784">
        <ele>80</ele>
        <time>2019-09-22T07:53:19Z</time>
      </trkpt>
      <trkpt lat="47.3318" lon="-2.37789">
        <ele>80</ele>
        <time>2019-09-22T07:53:20Z</time>
      </trkpt>
      <trkpt lat="47.33182" lon="-2.37795">
        <ele>80</ele>
        <time>2019-09-22T07:53:21Z</time>
      </trkpt>
      <trkpt lat="47.33186" lon="-2.37801">
        <ele>80</ele>
        <time>2019-09-22T07:53:22Z</time>
      </trkpt>
      <trkpt lat="47.33189" lon="-2.37805">
        <ele>80</ele>
        <time>2019-09-22T07:53:23Z</time>
      </trkpt>
      <trkpt lat="47.33193" lon="-2.3781">
        <ele>80</ele>
        <time>2019-09-22T07:53:24Z</time>
      </trkpt>
      <trkpt lat="47.33196" lon="-2.37816">
        <ele>79</ele>
        <time>2019-09-22T07:53:25Z</time>
      </trkpt>
      <trkpt lat="47.33203" lon="-2.37826">
        <ele>79</ele>
        <time>2019-09-22T07:53:27Z</time>
      </trkpt>
      <trkpt lat="47.3321" lon="-2.37836">
        <ele>79</ele>
        <time>2019-09-22T07:53:29Z</time>
      </trkpt>
      <trkpt lat="47.33214" lon="-2.37841">
        <ele>79</ele>
        <time>2019-09-22T07:53:30Z</time>
      </trkpt>
      <trkpt lat="47.33217" lon="-2.37846">
        <ele>79</ele>
        <time>2019-09-22T07:53:31Z</time>
      </trkpt>
      <trkpt lat="47.33229" lon="-2.37859">
        <ele>78</ele>
        <time>2019-09-22T07:53:33Z</time>
      </trkpt>
      <trkpt lat="47.33233" lon="-2.37864">
        <ele>78</ele>
        <time>2019-09-22T07:53:34Z</time>
      </trkpt>
      <trkpt lat="47.33238" lon="-2.37869">
        <ele>78</ele>
        <time>2019-09-22T07:53:36Z</time>
      </trkpt>
      <trkpt lat="47.33242" lon="-2.37874">
        <ele>79</ele>
        <time>2019-09-22T07:53:37Z</time>
      </trkpt>
      <trkpt lat="47.33246" lon="-2.37877">
        <ele>79</ele>
        <time>2019-09-22T07:53:38Z</time>
      </trkpt>
      <trkpt lat="47.3325" lon="-2.37881">
        <ele>79</ele>
        <time>2019-09-22T07:53:39Z</time>
      </trkpt>
      <trkpt lat="47.33254" lon="-2.37883">
        <ele>79</ele>
        <time>2019-09-22T07:53:40Z</time>
      </trkpt>
      <trkpt lat="47.33265" lon="-2.37883">
        <ele>79</ele>
        <time>2019-09-22T07:53:43Z</time>
      </trkpt>
      <trkpt lat="47.33273" lon="-2.37881">
        <ele>80</ele>
        <time>2019-09-22T07:53:45Z</time>
      </trkpt>
      <trkpt lat="47.33279" lon="-2.37878">
        <ele>80</ele>
        <time>2019-09-22T07:53:47Z</time>
      </trkpt>
      <trkpt lat="47.33282" lon="-2.37878">
        <ele>81</ele>
        <time>2019-09-22T07:53:48Z</time>
      </trkpt>
      <trkpt lat="47.33288" lon="-2.37876">
        <ele>81</ele>
        <time>2019-09-22T07:53:49Z</time>
      </trkpt>
      <trkpt lat="47.33294" lon="-2.37875">
        <ele>81</ele>
        <time>2019-09-22T07:53:52Z</time>
      </trkpt>
      <trkpt lat="47.33297" lon="-2.37874">
        <ele>81</ele>
        <time>2019-09-22T07:53:53Z</time>
      </trkpt>
      <trkpt lat="47.333" lon="-2.37873">
        <ele>82</ele>
        <time>2019-09-22T07:53:54Z</time>
      </trkpt>
      <trkpt lat="47.33303" lon="-2.37872">
        <ele>82</ele>
        <time>2019-09-22T07:53:55Z</time>
      </trkpt>
      <trkpt lat="47.33305" lon="-2.37871">
        <ele>82</ele>
        <time>2019-09-22T07:53:56Z</time>
      </trkpt>
      <trkpt lat="47.33311" lon="-2.3787">
        <ele>82</ele>
        <time>2019-09-22T07:53:58Z</time>
      </trkpt>
      <trkpt lat="47.33317" lon="-2.37868">
        <ele>82</ele>
        <time>2019-09-22T07:54:00Z</time>
      </trkpt>
      <trkpt lat="47.33326" lon="-2.37864">
        <ele>83</ele>
        <time>2019-09-22T07:54:03Z</time>
      </trkpt>
      <trkpt lat="47.33328" lon="-2.37863">
        <ele>83</ele>
        <time>2019-09-22T07:54:04Z</time>
      </trkpt>
      <trkpt lat="47.33334" lon="-2.37861">
        <ele>83</ele>
        <time>2019-09-22T07:54:06Z</time>
      </trkpt>
      <trkpt lat="47.33339" lon="-2.3786">
        <ele>84</ele>
        <time>2019-09-22T07:54:08Z</time>
      </trkpt>
      <trkpt lat="47.33341" lon="-2.37859">
        <ele>84</ele>
        <time>2019-09-22T07:54:09Z</time>
      </trkpt>
      <trkpt lat="47.33346" lon="-2.37857">
        <ele>84</ele>
        <time>2019-09-22T07:54:11Z</time>
      </trkpt>
      <trkpt lat="47.33348" lon="-2.37856">
        <ele>84</ele>
        <time>2019-09-22T07:54:12Z</time>
      </trkpt>
      <trkpt lat="47.33351" lon="-2.37856">
        <ele>84</ele>
        <time>2019-09-22T07:54:13Z</time>
      </trkpt>
      <trkpt lat="47.33356" lon="-2.37858">
        <ele>84</ele>
        <time>2019-09-22T07:54:15Z</time>
      </trkpt>
      <trkpt lat="47.33361" lon="-2.37854">
        <ele>85</ele>
        <time>2019-09-22T07:54:18Z</time>
      </trkpt>
      <trkpt lat="47.33365" lon="-2.37847">
        <ele>85</ele>
        <time>2019-09-22T07:54:20Z</time>
      </trkpt>
      <trkpt lat="47.33371" lon="-2.37833">
        <ele>85</ele>
        <time>2019-09-22T07:54:23Z</time>
      </trkpt>
      <trkpt lat="47.33374" lon="-2.37828">
        <ele>84</ele>
        <time>2019-09-22T07:54:24Z</time>
      </trkpt>
      <trkpt lat="47.33376" lon="-2.37824">
        <ele>84</ele>
        <time>2019-09-22T07:54:25Z</time>
      </trkpt>
      <trkpt lat="47.3338" lon="-2.37813">
        <ele>84</ele>
        <time>2019-09-22T07:54:27Z</time>
      </trkpt>
      <trkpt lat="47.33382" lon="-2.37808">
        <ele>84</ele>
        <time>2019-09-22T07:54:28Z</time>
      </trkpt>
      <trkpt lat="47.33384" lon="-2.37797">
        <ele>84</ele>
        <time>2019-09-22T07:54:30Z</time>
      </trkpt>
      <trkpt lat="47.33385" lon="-2.37785">
        <ele>84</ele>
        <time>2019-09-22T07:54:32Z</time>
      </trkpt>
      <trkpt lat="47.33385" lon="-2.37779">
        <ele>84</ele>
        <time>2019-09-22T07:54:33Z</time>
      </trkpt>
      <trkpt lat="47.33385" lon="-2.37774">
        <ele>84</ele>
        <time>2019-09-22T07:54:34Z</time>
      </trkpt>
      <trkpt lat="47.33384" lon="-2.37769">
        <ele>84</ele>
        <time>2019-09-22T07:54:35Z</time>
      </trkpt>
      <trkpt lat="47.33385" lon="-2.37752">
        <ele>84</ele>
        <time>2019-09-22T07:54:38Z</time>
      </trkpt>
      <trkpt lat="47.33385" lon="-2.37746">
        <ele>84</ele>
        <time>2019-09-22T07:54:39Z</time>
      </trkpt>
      <trkpt lat="47.33385" lon="-2.37722">
        <ele>85</ele>
        <time>2019-09-22T07:54:42Z</time>
      </trkpt>
      <trkpt lat="47.33385" lon="-2.37701">
        <ele>86</ele>
        <time>2019-09-22T07:54:45Z</time>
      </trkpt>
      <trkpt lat="47.33386" lon="-2.37694">
        <ele>85</ele>
        <time>2019-09-22T07:54:46Z</time>
      </trkpt>
      <trkpt lat="47.33386" lon="-2.37678">
        <ele>85</ele>
        <time>2019-09-22T07:54:48Z</time>
      </trkpt>
      <trkpt lat="47.33389" lon="-2.3766">
        <ele>85</ele>
        <time>2019-09-22T07:54:51Z</time>
      </trkpt>
      <trkpt lat="47.33395" lon="-2.37646">
        <ele>85</ele>
        <time>2019-09-22T07:54:52Z</time>
      </trkpt>
      <trkpt lat="47.334" lon="-2.37639">
        <ele>85</ele>
        <time>2019-09-22T07:54:53Z</time>
      </trkpt>
      <trkpt lat="47.33405" lon="-2.37634">
        <ele>85</ele>
        <time>2019-09-22T07:54:54Z</time>
      </trkpt>
      <trkpt lat="47.3341" lon="-2.37628">
        <ele>85</ele>
        <time>2019-09-22T07:54:56Z</time>
      </trkpt>
      <trkpt lat="47.33425" lon="-2.37617">
        <ele>86</ele>
        <time>2019-09-22T07:54:59Z</time>
      </trkpt>
      <trkpt lat="47.3343" lon="-2.37613">
        <ele>86</ele>
        <time>2019-09-22T07:55:00Z</time>
      </trkpt>
      <trkpt lat="47.33439" lon="-2.37606">
        <ele>87</ele>
        <time>2019-09-22T07:55:02Z</time>
      </trkpt>
      <trkpt lat="47.33449" lon="-2.37598">
        <ele>87</ele>
        <time>2019-09-22T07:55:04Z</time>
      </trkpt>
      <trkpt lat="47.33453" lon="-2.37594">
        <ele>87</ele>
        <time>2019-09-22T07:55:05Z</time>
      </trkpt>
      <trkpt lat="47.33459" lon="-2.3759">
        <ele>87</ele>
        <time>2019-09-22T07:55:06Z</time>
      </trkpt>
      <trkpt lat="47.33464" lon="-2.37585">
        <ele>88</ele>
        <time>2019-09-22T07:55:07Z</time>
      </trkpt>
      <trkpt lat="47.33468" lon="-2.3758">
        <ele>88</ele>
        <time>2019-09-22T07:55:08Z</time>
      </trkpt>
      <trkpt lat="47.33473" lon="-2.37575">
        <ele>88</ele>
        <time>2019-09-22T07:55:09Z</time>
      </trkpt>
      <trkpt lat="47.33478" lon="-2.37568">
        <ele>88</ele>
        <time>2019-09-22T07:55:10Z</time>
      </trkpt>
      <trkpt lat="47.33482" lon="-2.37563">
        <ele>88</ele>
        <time>2019-09-22T07:55:11Z</time>
      </trkpt>
      <trkpt lat="47.33486" lon="-2.37556">
        <ele>87</ele>
        <time>2019-09-22T07:55:12Z</time>
      </trkpt>
      <trkpt lat="47.3349" lon="-2.3755">
        <ele>87</ele>
        <time>2019-09-22T07:55:13Z</time>
      </trkpt>
      <trkpt lat="47.33494" lon="-2.37543">
        <ele>87</ele>
        <time>2019-09-22T07:55:14Z</time>
      </trkpt>
      <trkpt lat="47.33498" lon="-2.37538">
        <ele>87</ele>
        <time>2019-09-22T07:55:15Z</time>
      </trkpt>
      <trkpt lat="47.33509" lon="-2.37518">
        <ele>87</ele>
        <time>2019-09-22T07:55:18Z</time>
      </trkpt>
      <trkpt lat="47.33516" lon="-2.37503">
        <ele>87</ele>
        <time>2019-09-22T07:55:20Z</time>
      </trkpt>
      <trkpt lat="47.3352" lon="-2.37494">
        <ele>87</ele>
        <time>2019-09-22T07:55:21Z</time>
      </trkpt>
      <trkpt lat="47.33527" lon="-2.37477">
        <ele>87</ele>
        <time>2019-09-22T07:55:23Z</time>
      </trkpt>
      <trkpt lat="47.3353" lon="-2.37467">
        <ele>86</ele>
        <time>2019-09-22T07:55:24Z</time>
      </trkpt>
      <trkpt lat="47.33533" lon="-2.37456">
        <ele>85</ele>
        <time>2019-09-22T07:55:25Z</time>
      </trkpt>
      <trkpt lat="47.33535" lon="-2.37445">
        <ele>85</ele>
        <time>2019-09-22T07:55:26Z</time>
      </trkpt>
      <trkpt lat="47.33536" lon="-2.37434">
        <ele>84</ele>
        <time>2019-09-22T07:55:27Z</time>
      </trkpt>
      <trkpt lat="47.33537" lon="-2.37423">
        <ele>83</ele>
        <time>2019-09-22T07:55:28Z</time>
      </trkpt>
      <trkpt lat="47.33536" lon="-2.37411">
        <ele>83</ele>
        <time>2019-09-22T07:55:29Z</time>
      </trkpt>
      <trkpt lat="47.33536" lon="-2.374">
        <ele>83</ele>
        <time>2019-09-22T07:55:30Z</time>
      </trkpt>
      <trkpt lat="47.33537" lon="-2.37389">
        <ele>82</ele>
        <time>2019-09-22T07:55:31Z</time>
      </trkpt>
      <trkpt lat="47.33546" lon="-2.3735">
        <ele>81</ele>
        <time>2019-09-22T07:55:35Z</time>
      </trkpt>
      <trkpt lat="47.33552" lon="-2.37344">
        <ele>81</ele>
        <time>2019-09-22T07:55:36Z</time>
      </trkpt>
      <trkpt lat="47.33558" lon="-2.37341">
        <ele>81</ele>
        <time>2019-09-22T07:55:37Z</time>
      </trkpt>
      <trkpt lat="47.33565" lon="-2.37337">
        <ele>80</ele>
        <time>2019-09-22T07:55:38Z</time>
      </trkpt>
      <trkpt lat="47.33571" lon="-2.37334">
        <ele>80</ele>
        <time>2019-09-22T07:55:39Z</time>
      </trkpt>
      <trkpt lat="47.33578" lon="-2.37332">
        <ele>80</ele>
        <time>2019-09-22T07:55:40Z</time>
      </trkpt>
      <trkpt lat="47.33585" lon="-2.37331">
        <ele>80</ele>
        <time>2019-09-22T07:55:41Z</time>
      </trkpt>
      <trkpt lat="47.33591" lon="-2.37329">
        <ele>80</ele>
        <time>2019-09-22T07:55:42Z</time>
      </trkpt>
      <trkpt lat="47.33597" lon="-2.37328">
        <ele>80</ele>
        <time>2019-09-22T07:55:43Z</time>
      </trkpt>
      <trkpt lat="47.33603" lon="-2.37326">
        <ele>80</ele>
        <time>2019-09-22T07:55:44Z</time>
      </trkpt>
      <trkpt lat="47.33612" lon="-2.37316">
        <ele>80</ele>
        <time>2019-09-22T07:55:46Z</time>
      </trkpt>
      <trkpt lat="47.33614" lon="-2.37308">
        <ele>80</ele>
        <time>2019-09-22T07:55:47Z</time>
      </trkpt>
      <trkpt lat="47.33615" lon="-2.37298">
        <ele>80</ele>
        <time>2019-09-22T07:55:48Z</time>
      </trkpt>
      <trkpt lat="47.33614" lon="-2.37288">
        <ele>80</ele>
        <time>2019-09-22T07:55:49Z</time>
      </trkpt>
      <trkpt lat="47.33611" lon="-2.37268">
        <ele>79</ele>
        <time>2019-09-22T07:55:51Z</time>
      </trkpt>
      <trkpt lat="47.33609" lon="-2.3726">
        <ele>80</ele>
        <time>2019-09-22T07:55:52Z</time>
      </trkpt>
      <trkpt lat="47.33607" lon="-2.37252">
        <ele>79</ele>
        <time>2019-09-22T07:55:53Z</time>
      </trkpt>
      <trkpt lat="47.33605" lon="-2.37243">
        <ele>79</ele>
        <time>2019-09-22T07:55:54Z</time>
      </trkpt>
      <trkpt lat="47.33603" lon="-2.37234">
        <ele>79</ele>
        <time>2019-09-22T07:55:55Z</time>
      </trkpt>
      <trkpt lat="47.336" lon="-2.37226">
        <ele>79</ele>
        <time>2019-09-22T07:55:56Z</time>
      </trkpt>
      <trkpt lat="47.33598" lon="-2.37218">
        <ele>79</ele>
        <time>2019-09-22T07:55:57Z</time>
      </trkpt>
      <trkpt lat="47.33597" lon="-2.37209">
        <ele>78</ele>
        <time>2019-09-22T07:55:58Z</time>
      </trkpt>
      <trkpt lat="47.336" lon="-2.37174">
        <ele>78</ele>
        <time>2019-09-22T07:56:02Z</time>
      </trkpt>
      <trkpt lat="47.33601" lon="-2.37166">
        <ele>78</ele>
        <time>2019-09-22T07:56:03Z</time>
      </trkpt>
      <trkpt lat="47.33603" lon="-2.37149">
        <ele>78</ele>
        <time>2019-09-22T07:56:05Z</time>
      </trkpt>
      <trkpt lat="47.33603" lon="-2.37112">
        <ele>79</ele>
        <time>2019-09-22T07:56:09Z</time>
      </trkpt>
      <trkpt lat="47.33603" lon="-2.37103">
        <ele>79</ele>
        <time>2019-09-22T07:56:10Z</time>
      </trkpt>
      <trkpt lat="47.33602" lon="-2.37078">
        <ele>78</ele>
        <time>2019-09-22T07:56:13Z</time>
      </trkpt>
      <trkpt lat="47.33602" lon="-2.37069">
        <ele>78</ele>
        <time>2019-09-22T07:56:14Z</time>
      </trkpt>
      <trkpt lat="47.33603" lon="-2.37061">
        <ele>78</ele>
        <time>2019-09-22T07:56:15Z</time>
      </trkpt>
      <trkpt lat="47.33604" lon="-2.37043">
        <ele>77</ele>
        <time>2019-09-22T07:56:17Z</time>
      </trkpt>
      <trkpt lat="47.33602" lon="-2.37034">
        <ele>77</ele>
        <time>2019-09-22T07:56:18Z</time>
      </trkpt>
      <trkpt lat="47.33602" lon="-2.37026">
        <ele>76</ele>
        <time>2019-09-22T07:56:19Z</time>
      </trkpt>
      <trkpt lat="47.33601" lon="-2.37018">
        <ele>76</ele>
        <time>2019-09-22T07:56:20Z</time>
      </trkpt>
      <trkpt lat="47.33601" lon="-2.37002">
        <ele>76</ele>
        <time>2019-09-22T07:56:22Z</time>
      </trkpt>
      <trkpt lat="47.33601" lon="-2.36975">
        <ele>76</ele>
        <time>2019-09-22T07:56:24Z</time>
      </trkpt>
      <trkpt lat="47.33605" lon="-2.36958">
        <ele>76</ele>
        <time>2019-09-22T07:56:26Z</time>
      </trkpt>
      <trkpt lat="47.33608" lon="-2.36949">
        <ele>77</ele>
        <time>2019-09-22T07:56:27Z</time>
      </trkpt>
      <trkpt lat="47.33612" lon="-2.36941">
        <ele>77</ele>
        <time>2019-09-22T07:56:28Z</time>
      </trkpt>
      <trkpt lat="47.33616" lon="-2.36933">
        <ele>77</ele>
        <time>2019-09-22T07:56:29Z</time>
      </trkpt>
      <trkpt lat="47.33621" lon="-2.36926">
        <ele>78</ele>
        <time>2019-09-22T07:56:30Z</time>
      </trkpt>
      <trkpt lat="47.33626" lon="-2.3692">
        <ele>78</ele>
        <time>2019-09-22T07:56:31Z</time>
      </trkpt>
      <trkpt lat="47.33636" lon="-2.36906">
        <ele>78</ele>
        <time>2019-09-22T07:56:34Z</time>
      </trkpt>
      <trkpt lat="47.33646" lon="-2.36893">
        <ele>78</ele>
        <time>2019-09-22T07:56:35Z</time>
      </trkpt>
      <trkpt lat="47.33661" lon="-2.36877">
        <ele>79</ele>
        <time>2019-09-22T07:56:38Z</time>
      </trkpt>
      <trkpt lat="47.33666" lon="-2.36871">
        <ele>79</ele>
        <time>2019-09-22T07:56:39Z</time>
      </trkpt>
      <trkpt lat="47.3368" lon="-2.36854">
        <ele>79</ele>
        <time>2019-09-22T07:56:42Z</time>
      </trkpt>
      <trkpt lat="47.33685" lon="-2.36848">
        <ele>79</ele>
        <time>2019-09-22T07:56:43Z</time>
      </trkpt>
      <trkpt lat="47.33689" lon="-2.36843">
        <ele>79</ele>
        <time>2019-09-22T07:56:44Z</time>
      </trkpt>
      <trkpt lat="47.33694" lon="-2.36837">
        <ele>79</ele>
        <time>2019-09-22T07:56:45Z</time>
      </trkpt>
      <trkpt lat="47.33716" lon="-2.36818">
        <ele>79</ele>
        <time>2019-09-22T07:56:49Z</time>
      </trkpt>
      <trkpt lat="47.33722" lon="-2.36816">
        <ele>79</ele>
        <time>2019-09-22T07:56:50Z</time>
      </trkpt>
      <trkpt lat="47.33734" lon="-2.36813">
        <ele>79</ele>
        <time>2019-09-22T07:56:52Z</time>
      </trkpt>
      <trkpt lat="47.3374" lon="-2.36809">
        <ele>78</ele>
        <time>2019-09-22T07:56:54Z</time>
      </trkpt>
      <trkpt lat="47.33753" lon="-2.36805">
        <ele>79</ele>
        <time>2019-09-22T07:56:56Z</time>
      </trkpt>
      <trkpt lat="47.3376" lon="-2.36804">
        <ele>79</ele>
        <time>2019-09-22T07:56:57Z</time>
      </trkpt>
      <trkpt lat="47.33775" lon="-2.36801">
        <ele>80</ele>
        <time>2019-09-22T07:56:58Z</time>
      </trkpt>
      <trkpt lat="47.33782" lon="-2.36798">
        <ele>80</ele>
        <time>2019-09-22T07:56:59Z</time>
      </trkpt>
      <trkpt lat="47.3379" lon="-2.36795">
        <ele>80</ele>
        <time>2019-09-22T07:57:00Z</time>
      </trkpt>
      <trkpt lat="47.33798" lon="-2.36792">
        <ele>80</ele>
        <time>2019-09-22T07:57:01Z</time>
      </trkpt>
      <trkpt lat="47.33806" lon="-2.3679">
        <ele>80</ele>
        <time>2019-09-22T07:57:02Z</time>
      </trkpt>
      <trkpt lat="47.33813" lon="-2.36787">
        <ele>79</ele>
        <time>2019-09-22T07:57:03Z</time>
      </trkpt>
      <trkpt lat="47.3382" lon="-2.36785">
        <ele>79</ele>
        <time>2019-09-22T07:57:04Z</time>
      </trkpt>
      <trkpt lat="47.33828" lon="-2.36782">
        <ele>79</ele>
        <time>2019-09-22T07:57:05Z</time>
      </trkpt>
      <trkpt lat="47.33835" lon="-2.36779">
        <ele>78</ele>
        <time>2019-09-22T07:57:06Z</time>
      </trkpt>
      <trkpt lat="47.33841" lon="-2.36777">
        <ele>79</ele>
        <time>2019-09-22T07:57:07Z</time>
      </trkpt>
      <trkpt lat="47.33848" lon="-2.36775">
        <ele>79</ele>
        <time>2019-09-22T07:57:08Z</time>
      </trkpt>
      <trkpt lat="47.33855" lon="-2.36772">
        <ele>78</ele>
        <time>2019-09-22T07:57:09Z</time>
      </trkpt>
      <trkpt lat="47.33862" lon="-2.3677">
        <ele>79</ele>
        <time>2019-09-22T07:57:10Z</time>
      </trkpt>
      <trkpt lat="47.33868" lon="-2.36769">
        <ele>79</ele>
        <time>2019-09-22T07:57:11Z</time>
      </trkpt>
      <trkpt lat="47.33874" lon="-2.36768">
        <ele>79</ele>
        <time>2019-09-22T07:57:12Z</time>
      </trkpt>
      <trkpt lat="47.33881" lon="-2.36766">
        <ele>79</ele>
        <time>2019-09-22T07:57:14Z</time>
      </trkpt>
      <trkpt lat="47.33887" lon="-2.36764">
        <ele>79</ele>
        <time>2019-09-22T07:57:15Z</time>
      </trkpt>
      <trkpt lat="47.33892" lon="-2.36763">
        <ele>79</ele>
        <time>2019-09-22T07:57:16Z</time>
      </trkpt>
      <trkpt lat="47.33898" lon="-2.36761">
        <ele>79</ele>
        <time>2019-09-22T07:57:17Z</time>
      </trkpt>
      <trkpt lat="47.33902" lon="-2.3676">
        <ele>79</ele>
        <time>2019-09-22T07:57:18Z</time>
      </trkpt>
      <trkpt lat="47.33906" lon="-2.36758">
        <ele>79</ele>
        <time>2019-09-22T07:57:19Z</time>
      </trkpt>
      <trkpt lat="47.33909" lon="-2.36757">
        <ele>79</ele>
        <time>2019-09-22T07:57:20Z</time>
      </trkpt>
      <trkpt lat="47.33914" lon="-2.36754">
        <ele>79</ele>
        <time>2019-09-22T07:57:22Z</time>
      </trkpt>
      <trkpt lat="47.3393" lon="-2.36759">
        <ele>78</ele>
        <time>2019-09-22T07:57:25Z</time>
      </trkpt>
      <trkpt lat="47.33936" lon="-2.36758">
        <ele>79</ele>
        <time>2019-09-22T07:57:26Z</time>
      </trkpt>
      <trkpt lat="47.33941" lon="-2.36757">
        <ele>79</ele>
        <time>2019-09-22T07:57:27Z</time>
      </trkpt>
      <trkpt lat="47.3396" lon="-2.36753">
        <ele>78</ele>
        <time>2019-09-22T07:57:30Z</time>
      </trkpt>
      <trkpt lat="47.33967" lon="-2.36752">
        <ele>78</ele>
        <time>2019-09-22T07:57:32Z</time>
      </trkpt>
      <trkpt lat="47.33973" lon="-2.3675">
        <ele>78</ele>
        <time>2019-09-22T07:57:33Z</time>
      </trkpt>
      <trkpt lat="47.3398" lon="-2.36749">
        <ele>77</ele>
        <time>2019-09-22T07:57:34Z</time>
      </trkpt>
      <trkpt lat="47.33987" lon="-2.36746">
        <ele>77</ele>
        <time>2019-09-22T07:57:35Z</time>
      </trkpt>
      <trkpt lat="47.33993" lon="-2.36744">
        <ele>77</ele>
        <time>2019-09-22T07:57:36Z</time>
      </trkpt>
      <trkpt lat="47.34014" lon="-2.36735">
        <ele>77</ele>
        <time>2019-09-22T07:57:39Z</time>
      </trkpt>
      <trkpt lat="47.34027" lon="-2.36729">
        <ele>76</ele>
        <time>2019-09-22T07:57:41Z</time>
      </trkpt>
      <trkpt lat="47.34034" lon="-2.36725">
        <ele>76</ele>
        <time>2019-09-22T07:57:42Z</time>
      </trkpt>
      <trkpt lat="47.34041" lon="-2.36722">
        <ele>75</ele>
        <time>2019-09-22T07:57:43Z</time>
      </trkpt>
      <trkpt lat="47.34047" lon="-2.36718">
        <ele>75</ele>
        <time>2019-09-22T07:57:44Z</time>
      </trkpt>
      <trkpt lat="47.34053" lon="-2.36714">
        <ele>75</ele>
        <time>2019-09-22T07:57:45Z</time>
      </trkpt>
      <trkpt lat="47.34063" lon="-2.36708">
        <ele>75</ele>
        <time>2019-09-22T07:57:47Z</time>
      </trkpt>
      <trkpt lat="47.34068" lon="-2.36706">
        <ele>75</ele>
        <time>2019-09-22T07:57:48Z</time>
      </trkpt>
      <trkpt lat="47.34076" lon="-2.36704">
        <ele>75</ele>
        <time>2019-09-22T07:57:49Z</time>
      </trkpt>
      <trkpt lat="47.34085" lon="-2.36715">
        <ele>74</ele>
        <time>2019-09-22T07:57:53Z</time>
      </trkpt>
      <trkpt lat="47.34087" lon="-2.36722">
        <ele>74</ele>
        <time>2019-09-22T07:57:54Z</time>
      </trkpt>
      <trkpt lat="47.34088" lon="-2.36729">
        <ele>74</ele>
        <time>2019-09-22T07:57:55Z</time>
      </trkpt>
      <trkpt lat="47.3409" lon="-2.36736">
        <ele>73</ele>
        <time>2019-09-22T07:57:56Z</time>
      </trkpt>
      <trkpt lat="47.34095" lon="-2.3677">
        <ele>73</ele>
        <time>2019-09-22T07:58:00Z</time>
      </trkpt>
      <trkpt lat="47.34099" lon="-2.36788">
        <ele>73</ele>
        <time>2019-09-22T07:58:01Z</time>
      </trkpt>
      <trkpt lat="47.34101" lon="-2.36797">
        <ele>73</ele>
        <time>2019-09-22T07:58:02Z</time>
      </trkpt>
      <trkpt lat="47.34103" lon="-2.36807">
        <ele>73</ele>
        <time>2019-09-22T07:58:03Z</time>
      </trkpt>
      <trkpt lat="47.34111" lon="-2.36847">
        <ele>73</ele>
        <time>2019-09-22T07:58:07Z</time>
      </trkpt>
      <trkpt lat="47.34114" lon="-2.36857">
        <ele>73</ele>
        <time>2019-09-22T07:58:08Z</time>
      </trkpt>
      <trkpt lat="47.34117" lon="-2.36867">
        <ele>73</ele>
        <time>2019-09-22T07:58:09Z</time>
      </trkpt>
      <trkpt lat="47.34121" lon="-2.36875">
        <ele>73</ele>
        <time>2019-09-22T07:58:10Z</time>
      </trkpt>
      <trkpt lat="47.34125" lon="-2.36883">
        <ele>73</ele>
        <time>2019-09-22T07:58:11Z</time>
      </trkpt>
      <trkpt lat="47.34133" lon="-2.36899">
        <ele>73</ele>
        <time>2019-09-22T07:58:13Z</time>
      </trkpt>
      <trkpt lat="47.34137" lon="-2.36906">
        <ele>73</ele>
        <time>2019-09-22T07:58:14Z</time>
      </trkpt>
      <trkpt lat="47.34141" lon="-2.36914">
        <ele>73</ele>
        <time>2019-09-22T07:58:15Z</time>
      </trkpt>
      <trkpt lat="47.34145" lon="-2.36922">
        <ele>73</ele>
        <time>2019-09-22T07:58:16Z</time>
      </trkpt>
      <trkpt lat="47.34156" lon="-2.36942">
        <ele>73</ele>
        <time>2019-09-22T07:58:19Z</time>
      </trkpt>
      <trkpt lat="47.3417" lon="-2.3696">
        <ele>75</ele>
        <time>2019-09-22T07:58:22Z</time>
      </trkpt>
      <trkpt lat="47.34177" lon="-2.36972">
        <ele>74</ele>
        <time>2019-09-22T07:58:24Z</time>
      </trkpt>
      <trkpt lat="47.34189" lon="-2.36991">
        <ele>74</ele>
        <time>2019-09-22T07:58:27Z</time>
      </trkpt>
      <trkpt lat="47.34196" lon="-2.37003">
        <ele>74</ele>
        <time>2019-09-22T07:58:29Z</time>
      </trkpt>
      <trkpt lat="47.34204" lon="-2.37015">
        <ele>74</ele>
        <time>2019-09-22T07:58:31Z</time>
      </trkpt>
      <trkpt lat="47.34208" lon="-2.3702">
        <ele>74</ele>
        <time>2019-09-22T07:58:32Z</time>
      </trkpt>
      <trkpt lat="47.34211" lon="-2.37026">
        <ele>74</ele>
        <time>2019-09-22T07:58:33Z</time>
      </trkpt>
      <trkpt lat="47.34214" lon="-2.37031">
        <ele>75</ele>
        <time>2019-09-22T07:58:34Z</time>
      </trkpt>
      <trkpt lat="47.34217" lon="-2.37037">
        <ele>75</ele>
        <time>2019-09-22T07:58:35Z</time>
      </trkpt>
      <trkpt lat="47.3422" lon="-2.37043">
        <ele>75</ele>
        <time>2019-09-22T07:58:36Z</time>
      </trkpt>
      <trkpt lat="47.34223" lon="-2.37048">
        <ele>75</ele>
        <time>2019-09-22T07:58:37Z</time>
      </trkpt>
      <trkpt lat="47.34226" lon="-2.37054">
        <ele>75</ele>
        <time>2019-09-22T07:58:38Z</time>
      </trkpt>
      <trkpt lat="47.34229" lon="-2.37059">
        <ele>75</ele>
        <time>2019-09-22T07:58:39Z</time>
      </trkpt>
      <trkpt lat="47.34236" lon="-2.37067">
        <ele>76</ele>
        <time>2019-09-22T07:58:41Z</time>
      </trkpt>
      <trkpt lat="47.34249" lon="-2.37063">
        <ele>76</ele>
        <time>2019-09-22T07:58:44Z</time>
      </trkpt>
      <trkpt lat="47.34252" lon="-2.37059">
        <ele>76</ele>
        <time>2019-09-22T07:58:45Z</time>
      </trkpt>
      <trkpt lat="47.34256" lon="-2.37055">
        <ele>76</ele>
        <time>2019-09-22T07:58:46Z</time>
      </trkpt>
      <trkpt lat="47.34261" lon="-2.3705">
        <ele>76</ele>
        <time>2019-09-22T07:58:48Z</time>
      </trkpt>
      <trkpt lat="47.34265" lon="-2.37047">
        <ele>77</ele>
        <time>2019-09-22T07:58:49Z</time>
      </trkpt>
      <trkpt lat="47.34271" lon="-2.37042">
        <ele>77</ele>
        <time>2019-09-22T07:58:50Z</time>
      </trkpt>
      <trkpt lat="47.34277" lon="-2.37036">
        <ele>78</ele>
        <time>2019-09-22T07:58:51Z</time>
      </trkpt>
      <trkpt lat="47.34282" lon="-2.3703">
        <ele>78</ele>
        <time>2019-09-22T07:58:52Z</time>
      </trkpt>
      <trkpt lat="47.34287" lon="-2.37025">
        <ele>78</ele>
        <time>2019-09-22T07:58:53Z</time>
      </trkpt>
      <trkpt lat="47.34293" lon="-2.37019">
        <ele>78</ele>
        <time>2019-09-22T07:58:54Z</time>
      </trkpt>
      <trkpt lat="47.34298" lon="-2.37012">
        <ele>79</ele>
        <time>2019-09-22T07:58:55Z</time>
      </trkpt>
      <trkpt lat="47.34303" lon="-2.37005">
        <ele>78</ele>
        <time>2019-09-22T07:58:56Z</time>
      </trkpt>
      <trkpt lat="47.34312" lon="-2.36992">
        <ele>78</ele>
        <time>2019-09-22T07:58:58Z</time>
      </trkpt>
      <trkpt lat="47.34317" lon="-2.36985">
        <ele>78</ele>
        <time>2019-09-22T07:58:59Z</time>
      </trkpt>
      <trkpt lat="47.34326" lon="-2.36971">
        <ele>79</ele>
        <time>2019-09-22T07:59:01Z</time>
      </trkpt>
      <trkpt lat="47.34331" lon="-2.36965">
        <ele>79</ele>
        <time>2019-09-22T07:59:02Z</time>
      </trkpt>
      <trkpt lat="47.34336" lon="-2.36959">
        <ele>78</ele>
        <time>2019-09-22T07:59:03Z</time>
      </trkpt>
      <trkpt lat="47.3435" lon="-2.36936">
        <ele>78</ele>
        <time>2019-09-22T07:59:06Z</time>
      </trkpt>
      <trkpt lat="47.34354" lon="-2.36929">
        <ele>77</ele>
        <time>2019-09-22T07:59:07Z</time>
      </trkpt>
      <trkpt lat="47.34358" lon="-2.36921">
        <ele>77</ele>
        <time>2019-09-22T07:59:08Z</time>
      </trkpt>
      <trkpt lat="47.34362" lon="-2.36914">
        <ele>76</ele>
        <time>2019-09-22T07:59:09Z</time>
      </trkpt>
      <trkpt lat="47.34367" lon="-2.36907">
        <ele>76</ele>
        <time>2019-09-22T07:59:10Z</time>
      </trkpt>
      <trkpt lat="47.34371" lon="-2.369">
        <ele>76</ele>
        <time>2019-09-22T07:59:11Z</time>
      </trkpt>
      <trkpt lat="47.34375" lon="-2.36893">
        <ele>75</ele>
        <time>2019-09-22T07:59:12Z</time>
      </trkpt>
      <trkpt lat="47.3438" lon="-2.36886">
        <ele>75</ele>
        <time>2019-09-22T07:59:13Z</time>
      </trkpt>
      <trkpt lat="47.34384" lon="-2.36879">
        <ele>75</ele>
        <time>2019-09-22T07:59:14Z</time>
      </trkpt>
      <trkpt lat="47.34388" lon="-2.36872">
        <ele>75</ele>
        <time>2019-09-22T07:59:15Z</time>
      </trkpt>
      <trkpt lat="47.34393" lon="-2.36864">
        <ele>74</ele>
        <time>2019-09-22T07:59:16Z</time>
      </trkpt>
      <trkpt lat="47.34397" lon="-2.36857">
        <ele>74</ele>
        <time>2019-09-22T07:59:17Z</time>
      </trkpt>
      <trkpt lat="47.34401" lon="-2.3685">
        <ele>74</ele>
        <time>2019-09-22T07:59:18Z</time>
      </trkpt>
      <trkpt lat="47.34406" lon="-2.36843">
        <ele>74</ele>
        <time>2019-09-22T07:59:19Z</time>
      </trkpt>
      <trkpt lat="47.3441" lon="-2.36835">
        <ele>73</ele>
        <time>2019-09-22T07:59:20Z</time>
      </trkpt>
      <trkpt lat="47.34415" lon="-2.36828">
        <ele>73</ele>
        <time>2019-09-22T07:59:21Z</time>
      </trkpt>
      <trkpt lat="47.34419" lon="-2.36821">
        <ele>73</ele>
        <time>2019-09-22T07:59:22Z</time>
      </trkpt>
      <trkpt lat="47.34424" lon="-2.36813">
        <ele>73</ele>
        <time>2019-09-22T07:59:23Z</time>
      </trkpt>
      <trkpt lat="47.34428" lon="-2.36807">
        <ele>73</ele>
        <time>2019-09-22T07:59:24Z</time>
      </trkpt>
      <trkpt lat="47.34433" lon="-2.368">
        <ele>72</ele>
        <time>2019-09-22T07:59:25Z</time>
      </trkpt>
      <trkpt lat="47.34442" lon="-2.36785">
        <ele>72</ele>
        <time>2019-09-22T07:59:26Z</time>
      </trkpt>
      <trkpt lat="47.34446" lon="-2.36778">
        <ele>72</ele>
        <time>2019-09-22T07:59:27Z</time>
      </trkpt>
      <trkpt lat="47.34455" lon="-2.36765">
        <ele>72</ele>
        <time>2019-09-22T07:59:30Z</time>
      </trkpt>
      <trkpt lat="47.34464" lon="-2.3675">
        <ele>72</ele>
        <time>2019-09-22T07:59:32Z</time>
      </trkpt>
      <trkpt lat="47.34469" lon="-2.36742">
        <ele>73</ele>
        <time>2019-09-22T07:59:33Z</time>
      </trkpt>
      <trkpt lat="47.34473" lon="-2.36734">
        <ele>73</ele>
        <time>2019-09-22T07:59:34Z</time>
      </trkpt>
      <trkpt lat="47.34478" lon="-2.36726">
        <ele>73</ele>
        <time>2019-09-22T07:59:35Z</time>
      </trkpt>
      <trkpt lat="47.34482" lon="-2.36719">
        <ele>73</ele>
        <time>2019-09-22T07:59:36Z</time>
      </trkpt>
      <trkpt lat="47.34487" lon="-2.3671">
        <ele>73</ele>
        <time>2019-09-22T07:59:37Z</time>
      </trkpt>
      <trkpt lat="47.34495" lon="-2.36693">
        <ele>73</ele>
        <time>2019-09-22T07:59:39Z</time>
      </trkpt>
      <trkpt lat="47.34499" lon="-2.36685">
        <ele>73</ele>
        <time>2019-09-22T07:59:40Z</time>
      </trkpt>
      <trkpt lat="47.34503" lon="-2.36677">
        <ele>72</ele>
        <time>2019-09-22T07:59:41Z</time>
      </trkpt>
      <trkpt lat="47.34513" lon="-2.36648">
        <ele>73</ele>
        <time>2019-09-22T07:59:44Z</time>
      </trkpt>
      <trkpt lat="47.34518" lon="-2.36636">
        <ele>73</ele>
        <time>2019-09-22T07:59:45Z</time>
      </trkpt>
      <trkpt lat="47.34523" lon="-2.36625">
        <ele>74</ele>
        <time>2019-09-22T07:59:46Z</time>
      </trkpt>
      <trkpt lat="47.34527" lon="-2.36616">
        <ele>73</ele>
        <time>2019-09-22T07:59:47Z</time>
      </trkpt>
      <trkpt lat="47.34535" lon="-2.36597">
        <ele>73</ele>
        <time>2019-09-22T07:59:48Z</time>
      </trkpt>
      <trkpt lat="47.34543" lon="-2.36579">
        <ele>72</ele>
        <time>2019-09-22T07:59:51Z</time>
      </trkpt>
      <trkpt lat="47.34547" lon="-2.36568">
        <ele>72</ele>
        <time>2019-09-22T07:59:52Z</time>
      </trkpt>
      <trkpt lat="47.34557" lon="-2.36539">
        <ele>72</ele>
        <time>2019-09-22T07:59:55Z</time>
      </trkpt>
      <trkpt lat="47.34561" lon="-2.3653">
        <ele>72</ele>
        <time>2019-09-22T07:59:56Z</time>
      </trkpt>
      <trkpt lat="47.34564" lon="-2.36521">
        <ele>72</ele>
        <time>2019-09-22T07:59:57Z</time>
      </trkpt>
      <trkpt lat="47.34568" lon="-2.36512">
        <ele>72</ele>
        <time>2019-09-22T07:59:58Z</time>
      </trkpt>
      <trkpt lat="47.34571" lon="-2.36503">
        <ele>72</ele>
        <time>2019-09-22T07:59:59Z</time>
      </trkpt>
      <trkpt lat="47.34575" lon="-2.36493">
        <ele>72</ele>
        <time>2019-09-22T08:00:00Z</time>
      </trkpt>
      <trkpt lat="47.34578" lon="-2.36484">
        <ele>72</ele>
        <time>2019-09-22T08:00:01Z</time>
      </trkpt>
      <trkpt lat="47.34582" lon="-2.36473">
        <ele>72</ele>
        <time>2019-09-22T08:00:02Z</time>
      </trkpt>
      <trkpt lat="47.34602" lon="-2.36444">
        <ele>73</ele>
        <time>2019-09-22T08:00:06Z</time>
      </trkpt>
      <trkpt lat="47.34608" lon="-2.36442">
        <ele>73</ele>
        <time>2019-09-22T08:00:07Z</time>
      </trkpt>
      <trkpt lat="47.34621" lon="-2.36438">
        <ele>74</ele>
        <time>2019-09-22T08:00:08Z</time>
      </trkpt>
      <trkpt lat="47.34628" lon="-2.36433">
        <ele>73</ele>
        <time>2019-09-22T08:00:09Z</time>
      </trkpt>
      <trkpt lat="47.34635" lon="-2.36428">
        <ele>73</ele>
        <time>2019-09-22T08:00:11Z</time>
      </trkpt>
      <trkpt lat="47.34641" lon="-2.36423">
        <ele>73</ele>
        <time>2019-09-22T08:00:12Z</time>
      </trkpt>
      <trkpt lat="47.34653" lon="-2.36416">
        <ele>72</ele>
        <time>2019-09-22T08:00:14Z</time>
      </trkpt>
      <trkpt lat="47.34665" lon="-2.3641">
        <ele>72</ele>
        <time>2019-09-22T08:00:16Z</time>
      </trkpt>
      <trkpt lat="47.3467" lon="-2.36408">
        <ele>73</ele>
        <time>2019-09-22T08:00:17Z</time>
      </trkpt>
      <trkpt lat="47.34676" lon="-2.36406">
        <ele>73</ele>
        <time>2019-09-22T08:00:18Z</time>
      </trkpt>
      <trkpt lat="47.34683" lon="-2.36404">
        <ele>72</ele>
        <time>2019-09-22T08:00:19Z</time>
      </trkpt>
      <trkpt lat="47.34689" lon="-2.36402">
        <ele>73</ele>
        <time>2019-09-22T08:00:20Z</time>
      </trkpt>
      <trkpt lat="47.34716" lon="-2.36392">
        <ele>74</ele>
        <time>2019-09-22T08:00:24Z</time>
      </trkpt>
      <trkpt lat="47.34722" lon="-2.36389">
        <ele>74</ele>
        <time>2019-09-22T08:00:25Z</time>
      </trkpt>
      <trkpt lat="47.34745" lon="-2.36376">
        <ele>74</ele>
        <time>2019-09-22T08:00:29Z</time>
      </trkpt>
      <trkpt lat="47.34751" lon="-2.36373">
        <ele>74</ele>
        <time>2019-09-22T08:00:30Z</time>
      </trkpt>
      <trkpt lat="47.34757" lon="-2.36369">
        <ele>74</ele>
        <time>2019-09-22T08:00:31Z</time>
      </trkpt>
      <trkpt lat="47.34762" lon="-2.36364">
        <ele>74</ele>
        <time>2019-09-22T08:00:32Z</time>
      </trkpt>
      <trkpt lat="47.34774" lon="-2.36357">
        <ele>74</ele>
        <time>2019-09-22T08:00:34Z</time>
      </trkpt>
      <trkpt lat="47.3478" lon="-2.36353">
        <ele>74</ele>
        <time>2019-09-22T08:00:35Z</time>
      </trkpt>
      <trkpt lat="47.34786" lon="-2.36349">
        <ele>74</ele>
        <time>2019-09-22T08:00:36Z</time>
      </trkpt>
      <trkpt lat="47.34792" lon="-2.36345">
        <ele>74</ele>
        <time>2019-09-22T08:00:37Z</time>
      </trkpt>
      <trkpt lat="47.34811" lon="-2.36331">
        <ele>73</ele>
        <time>2019-09-22T08:00:40Z</time>
      </trkpt>
      <trkpt lat="47.34817" lon="-2.36327">
        <ele>73</ele>
        <time>2019-09-22T08:00:42Z</time>
      </trkpt>
      <trkpt lat="47.34823" lon="-2.36323">
        <ele>73</ele>
        <time>2019-09-22T08:00:43Z</time>
      </trkpt>
      <trkpt lat="47.3483" lon="-2.36319">
        <ele>73</ele>
        <time>2019-09-22T08:00:44Z</time>
      </trkpt>
      <trkpt lat="47.34836" lon="-2.36315">
        <ele>73</ele>
        <time>2019-09-22T08:00:45Z</time>
      </trkpt>
      <trkpt lat="47.34848" lon="-2.36306">
        <ele>73</ele>
        <time>2019-09-22T08:00:47Z</time>
      </trkpt>
      <trkpt lat="47.34859" lon="-2.36298">
        <ele>73</ele>
        <time>2019-09-22T08:00:49Z</time>
      </trkpt>
      <trkpt lat="47.34865" lon="-2.36294">
        <ele>73</ele>
        <time>2019-09-22T08:00:50Z</time>
      </trkpt>
      <trkpt lat="47.34871" lon="-2.3629">
        <ele>73</ele>
        <time>2019-09-22T08:00:51Z</time>
      </trkpt>
      <trkpt lat="47.34876" lon="-2.36286">
        <ele>74</ele>
        <time>2019-09-22T08:00:52Z</time>
      </trkpt>
      <trkpt lat="47.34882" lon="-2.36281">
        <ele>73</ele>
        <time>2019-09-22T08:00:53Z</time>
      </trkpt>
      <trkpt lat="47.34887" lon="-2.36277">
        <ele>73</ele>
        <time>2019-09-22T08:00:54Z</time>
      </trkpt>
      <trkpt lat="47.34893" lon="-2.36272">
        <ele>72</ele>
        <time>2019-09-22T08:00:55Z</time>
      </trkpt>
      <trkpt lat="47.34899" lon="-2.36267">
        <ele>72</ele>
        <time>2019-09-22T08:00:56Z</time>
      </trkpt>
      <trkpt lat="47.34905" lon="-2.36262">
        <ele>72</ele>
        <time>2019-09-22T08:00:57Z</time>
      </trkpt>
      <trkpt lat="47.34911" lon="-2.36256">
        <ele>72</ele>
        <time>2019-09-22T08:00:58Z</time>
      </trkpt>
      <trkpt lat="47.34917" lon="-2.36251">
        <ele>72</ele>
        <time>2019-09-22T08:00:59Z</time>
      </trkpt>
      <trkpt lat="47.34929" lon="-2.36239">
        <ele>71</ele>
        <time>2019-09-22T08:01:01Z</time>
      </trkpt>
      <trkpt lat="47.34934" lon="-2.36231">
        <ele>70</ele>
        <time>2019-09-22T08:01:02Z</time>
      </trkpt>
      <trkpt lat="47.3494" lon="-2.36224">
        <ele>70</ele>
        <time>2019-09-22T08:01:03Z</time>
      </trkpt>
      <trkpt lat="47.34946" lon="-2.36217">
        <ele>70</ele>
        <time>2019-09-22T08:01:04Z</time>
      </trkpt>
      <trkpt lat="47.34952" lon="-2.3621">
        <ele>70</ele>
        <time>2019-09-22T08:01:05Z</time>
      </trkpt>
      <trkpt lat="47.34958" lon="-2.36202">
        <ele>69</ele>
        <time>2019-09-22T08:01:06Z</time>
      </trkpt>
      <trkpt lat="47.34978" lon="-2.3618">
        <ele>69</ele>
        <time>2019-09-22T08:01:09Z</time>
      </trkpt>
      <trkpt lat="47.34985" lon="-2.36174">
        <ele>68</ele>
        <time>2019-09-22T08:01:10Z</time>
      </trkpt>
      <trkpt lat="47.34992" lon="-2.3617">
        <ele>68</ele>
        <time>2019-09-22T08:01:11Z</time>
      </trkpt>
      <trkpt lat="47.35" lon="-2.36167">
        <ele>69</ele>
        <time>2019-09-22T08:01:12Z</time>
      </trkpt>
      <trkpt lat="47.35016" lon="-2.36167">
        <ele>68</ele>
        <time>2019-09-22T08:01:14Z</time>
      </trkpt>
      <trkpt lat="47.35024" lon="-2.36167">
        <ele>68</ele>
        <time>2019-09-22T08:01:15Z</time>
      </trkpt>
      <trkpt lat="47.35032" lon="-2.36169">
        <ele>68</ele>
        <time>2019-09-22T08:01:16Z</time>
      </trkpt>
      <trkpt lat="47.35039" lon="-2.36171">
        <ele>68</ele>
        <time>2019-09-22T08:01:17Z</time>
      </trkpt>
      <trkpt lat="47.35047" lon="-2.36174">
        <ele>67</ele>
        <time>2019-09-22T08:01:18Z</time>
      </trkpt>
      <trkpt lat="47.35055" lon="-2.36177">
        <ele>68</ele>
        <time>2019-09-22T08:01:19Z</time>
      </trkpt>
      <trkpt lat="47.35063" lon="-2.36179">
        <ele>68</ele>
        <time>2019-09-22T08:01:20Z</time>
      </trkpt>
      <trkpt lat="47.3507" lon="-2.36179">
        <ele>68</ele>
        <time>2019-09-22T08:01:21Z</time>
      </trkpt>
      <trkpt lat="47.35077" lon="-2.36178">
        <ele>67</ele>
        <time>2019-09-22T08:01:22Z</time>
      </trkpt>
      <trkpt lat="47.35081" lon="-2.36176">
        <ele>66</ele>
        <time>2019-09-22T08:01:23Z</time>
      </trkpt>
      <trkpt lat="47.35087" lon="-2.36171">
        <ele>66</ele>
        <time>2019-09-22T08:01:26Z</time>
      </trkpt>
      <trkpt lat="47.35089" lon="-2.36169">
        <ele>66</ele>
        <time>2019-09-22T08:01:28Z</time>
      </trkpt>
      <trkpt lat="47.35094" lon="-2.36165">
        <ele>66</ele>
        <time>2019-09-22T08:01:31Z</time>
      </trkpt>
      <trkpt lat="47.351" lon="-2.36166">
        <ele>65</ele>
        <time>2019-09-22T08:01:33Z</time>
      </trkpt>
      <trkpt lat="47.35104" lon="-2.36166">
        <ele>65</ele>
        <time>2019-09-22T08:01:34Z</time>
      </trkpt>
      <trkpt lat="47.35109" lon="-2.36165">
        <ele>65</ele>
        <time>2019-09-22T08:01:35Z</time>
      </trkpt>
      <trkpt lat="47.35119" lon="-2.36162">
        <ele>65</ele>
        <time>2019-09-22T08:01:37Z</time>
      </trkpt>
      <trkpt lat="47.35124" lon="-2.3616">
        <ele>65</ele>
        <time>2019-09-22T08:01:38Z</time>
      </trkpt>
      <trkpt lat="47.35134" lon="-2.36153">
        <ele>65</ele>
        <time>2019-09-22T08:01:40Z</time>
      </trkpt>
      <trkpt lat="47.35139" lon="-2.3615">
        <ele>65</ele>
        <time>2019-09-22T08:01:41Z</time>
      </trkpt>
      <trkpt lat="47.35148" lon="-2.36144">
        <ele>65</ele>
        <time>2019-09-22T08:01:43Z</time>
      </trkpt>
      <trkpt lat="47.35152" lon="-2.36142">
        <ele>65</ele>
        <time>2019-09-22T08:01:44Z</time>
      </trkpt>
      <trkpt lat="47.35157" lon="-2.36139">
        <ele>65</ele>
        <time>2019-09-22T08:01:45Z</time>
      </trkpt>
      <trkpt lat="47.35172" lon="-2.36128">
        <ele>66</ele>
        <time>2019-09-22T08:01:48Z</time>
      </trkpt>
      <trkpt lat="47.35178" lon="-2.36124">
        <ele>67</ele>
        <time>2019-09-22T08:01:49Z</time>
      </trkpt>
      <trkpt lat="47.3519" lon="-2.36114">
        <ele>67</ele>
        <time>2019-09-22T08:01:51Z</time>
      </trkpt>
      <trkpt lat="47.35197" lon="-2.36108">
        <ele>67</ele>
        <time>2019-09-22T08:01:52Z</time>
      </trkpt>
      <trkpt lat="47.35202" lon="-2.36103">
        <ele>66</ele>
        <time>2019-09-22T08:01:53Z</time>
      </trkpt>
      <trkpt lat="47.35208" lon="-2.36098">
        <ele>66</ele>
        <time>2019-09-22T08:01:54Z</time>
      </trkpt>
      <trkpt lat="47.35214" lon="-2.36093">
        <ele>66</ele>
        <time>2019-09-22T08:01:55Z</time>
      </trkpt>
      <trkpt lat="47.3522" lon="-2.36088">
        <ele>66</ele>
        <time>2019-09-22T08:01:56Z</time>
      </trkpt>
      <trkpt lat="47.35225" lon="-2.36083">
        <ele>67</ele>
        <time>2019-09-22T08:01:57Z</time>
      </trkpt>
      <trkpt lat="47.3523" lon="-2.36078">
        <ele>67</ele>
        <time>2019-09-22T08:01:58Z</time>
      </trkpt>
      <trkpt lat="47.35236" lon="-2.36073">
        <ele>67</ele>
        <time>2019-09-22T08:01:59Z</time>
      </trkpt>
      <trkpt lat="47.35247" lon="-2.36064">
        <ele>67</ele>
        <time>2019-09-22T08:02:01Z</time>
      </trkpt>
      <trkpt lat="47.35263" lon="-2.3605">
        <ele>67</ele>
        <time>2019-09-22T08:02:03Z</time>
      </trkpt>
      <trkpt lat="47.35269" lon="-2.36045">
        <ele>67</ele>
        <time>2019-09-22T08:02:05Z</time>
      </trkpt>
      <trkpt lat="47.35285" lon="-2.36031">
        <ele>66</ele>
        <time>2019-09-22T08:02:07Z</time>
      </trkpt>
      <trkpt lat="47.35297" lon="-2.36021">
        <ele>66</ele>
        <time>2019-09-22T08:02:10Z</time>
      </trkpt>
      <trkpt lat="47.3531" lon="-2.35997">
        <ele>66</ele>
        <time>2019-09-22T08:02:13Z</time>
      </trkpt>
      <trkpt lat="47.35316" lon="-2.3598">
        <ele>66</ele>
        <time>2019-09-22T08:02:15Z</time>
      </trkpt>
      <trkpt lat="47.3532" lon="-2.35971">
        <ele>66</ele>
        <time>2019-09-22T08:02:16Z</time>
      </trkpt>
      <trkpt lat="47.35324" lon="-2.35963">
        <ele>66</ele>
        <time>2019-09-22T08:02:17Z</time>
      </trkpt>
      <trkpt lat="47.35331" lon="-2.35947">
        <ele>65</ele>
        <time>2019-09-22T08:02:19Z</time>
      </trkpt>
      <trkpt lat="47.35339" lon="-2.35933">
        <ele>66</ele>
        <time>2019-09-22T08:02:21Z</time>
      </trkpt>
      <trkpt lat="47.35343" lon="-2.35926">
        <ele>66</ele>
        <time>2019-09-22T08:02:22Z</time>
      </trkpt>
      <trkpt lat="47.35351" lon="-2.35913">
        <ele>66</ele>
        <time>2019-09-22T08:02:24Z</time>
      </trkpt>
      <trkpt lat="47.35356" lon="-2.35907">
        <ele>66</ele>
        <time>2019-09-22T08:02:25Z</time>
      </trkpt>
      <trkpt lat="47.35361" lon="-2.35901">
        <ele>66</ele>
        <time>2019-09-22T08:02:26Z</time>
      </trkpt>
      <trkpt lat="47.35366" lon="-2.35896">
        <ele>66</ele>
        <time>2019-09-22T08:02:27Z</time>
      </trkpt>
      <trkpt lat="47.35371" lon="-2.3589">
        <ele>66</ele>
        <time>2019-09-22T08:02:28Z</time>
      </trkpt>
      <trkpt lat="47.35388" lon="-2.35876">
        <ele>65</ele>
        <time>2019-09-22T08:02:30Z</time>
      </trkpt>
      <trkpt lat="47.35393" lon="-2.35871">
        <ele>66</ele>
        <time>2019-09-22T08:02:31Z</time>
      </trkpt>
      <trkpt lat="47.35403" lon="-2.35859">
        <ele>66</ele>
        <time>2019-09-22T08:02:33Z</time>
      </trkpt>
      <trkpt lat="47.35416" lon="-2.35839">
        <ele>66</ele>
        <time>2019-09-22T08:02:36Z</time>
      </trkpt>
      <trkpt lat="47.3542" lon="-2.35833">
        <ele>66</ele>
        <time>2019-09-22T08:02:37Z</time>
      </trkpt>
      <trkpt lat="47.35425" lon="-2.35827">
        <ele>66</ele>
        <time>2019-09-22T08:02:38Z</time>
      </trkpt>
      <trkpt lat="47.3543" lon="-2.35821">
        <ele>66</ele>
        <time>2019-09-22T08:02:39Z</time>
      </trkpt>
      <trkpt lat="47.35434" lon="-2.35814">
        <ele>66</ele>
        <time>2019-09-22T08:02:40Z</time>
      </trkpt>
      <trkpt lat="47.35439" lon="-2.35809">
        <ele>66</ele>
        <time>2019-09-22T08:02:41Z</time>
      </trkpt>
      <trkpt lat="47.35448" lon="-2.35796">
        <ele>66</ele>
        <time>2019-09-22T08:02:44Z</time>
      </trkpt>
      <trkpt lat="47.35452" lon="-2.3579">
        <ele>66</ele>
        <time>2019-09-22T08:02:45Z</time>
      </trkpt>
      <trkpt lat="47.35456" lon="-2.35784">
        <ele>66</ele>
        <time>2019-09-22T08:02:46Z</time>
      </trkpt>
      <trkpt lat="47.3546" lon="-2.35778">
        <ele>66</ele>
        <time>2019-09-22T08:02:47Z</time>
      </trkpt>
      <trkpt lat="47.35465" lon="-2.35772">
        <ele>66</ele>
        <time>2019-09-22T08:02:48Z</time>
      </trkpt>
      <trkpt lat="47.35469" lon="-2.35766">
        <ele>66</ele>
        <time>2019-09-22T08:02:49Z</time>
      </trkpt>
      <trkpt lat="47.35474" lon="-2.3576">
        <ele>66</ele>
        <time>2019-09-22T08:02:50Z</time>
      </trkpt>
      <trkpt lat="47.35478" lon="-2.35753">
        <ele>66</ele>
        <time>2019-09-22T08:02:51Z</time>
      </trkpt>
      <trkpt lat="47.35482" lon="-2.35746">
        <ele>66</ele>
        <time>2019-09-22T08:02:52Z</time>
      </trkpt>
      <trkpt lat="47.35486" lon="-2.3574">
        <ele>67</ele>
        <time>2019-09-22T08:02:53Z</time>
      </trkpt>
      <trkpt lat="47.35491" lon="-2.35732">
        <ele>67</ele>
        <time>2019-09-22T08:02:54Z</time>
      </trkpt>
      <trkpt lat="47.35496" lon="-2.35726">
        <ele>67</ele>
        <time>2019-09-22T08:02:55Z</time>
      </trkpt>
      <trkpt lat="47.355" lon="-2.35719">
        <ele>67</ele>
        <time>2019-09-22T08:02:56Z</time>
      </trkpt>
      <trkpt lat="47.35506" lon="-2.35712">
        <ele>67</ele>
        <time>2019-09-22T08:02:57Z</time>
      </trkpt>
      <trkpt lat="47.35511" lon="-2.35706">
        <ele>67</ele>
        <time>2019-09-22T08:02:58Z</time>
      </trkpt>
      <trkpt lat="47.35515" lon="-2.35699">
        <ele>67</ele>
        <time>2019-09-22T08:02:59Z</time>
      </trkpt>
      <trkpt lat="47.3552" lon="-2.35694">
        <ele>66</ele>
        <time>2019-09-22T08:03:00Z</time>
      </trkpt>
      <trkpt lat="47.35526" lon="-2.35688">
        <ele>66</ele>
        <time>2019-09-22T08:03:01Z</time>
      </trkpt>
      <trkpt lat="47.35531" lon="-2.35683">
        <ele>66</ele>
        <time>2019-09-22T08:03:02Z</time>
      </trkpt>
      <trkpt lat="47.35537" lon="-2.35678">
        <ele>66</ele>
        <time>2019-09-22T08:03:03Z</time>
      </trkpt>
      <trkpt lat="47.35543" lon="-2.35673">
        <ele>65</ele>
        <time>2019-09-22T08:03:04Z</time>
      </trkpt>
      <trkpt lat="47.35549" lon="-2.35667">
        <ele>65</ele>
        <time>2019-09-22T08:03:05Z</time>
      </trkpt>
      <trkpt lat="47.35561" lon="-2.35656">
        <ele>65</ele>
        <time>2019-09-22T08:03:06Z</time>
      </trkpt>
      <trkpt lat="47.35567" lon="-2.35651">
        <ele>65</ele>
        <time>2019-09-22T08:03:07Z</time>
      </trkpt>
      <trkpt lat="47.35573" lon="-2.35646">
        <ele>64</ele>
        <time>2019-09-22T08:03:08Z</time>
      </trkpt>
      <trkpt lat="47.35579" lon="-2.35641">
        <ele>64</ele>
        <time>2019-09-22T08:03:09Z</time>
      </trkpt>
      <trkpt lat="47.35585" lon="-2.35635">
        <ele>64</ele>
        <time>2019-09-22T08:03:10Z</time>
      </trkpt>
      <trkpt lat="47.3559" lon="-2.35629">
        <ele>64</ele>
        <time>2019-09-22T08:03:11Z</time>
      </trkpt>
      <trkpt lat="47.35596" lon="-2.35623">
        <ele>64</ele>
        <time>2019-09-22T08:03:12Z</time>
      </trkpt>
      <trkpt lat="47.35601" lon="-2.35617">
        <ele>63</ele>
        <time>2019-09-22T08:03:13Z</time>
      </trkpt>
      <trkpt lat="47.35607" lon="-2.35611">
        <ele>63</ele>
        <time>2019-09-22T08:03:14Z</time>
      </trkpt>
      <trkpt lat="47.35612" lon="-2.35604">
        <ele>63</ele>
        <time>2019-09-22T08:03:15Z</time>
      </trkpt>
      <trkpt lat="47.35617" lon="-2.35598">
        <ele>64</ele>
        <time>2019-09-22T08:03:16Z</time>
      </trkpt>
      <trkpt lat="47.35622" lon="-2.35592">
        <ele>64</ele>
        <time>2019-09-22T08:03:17Z</time>
      </trkpt>
      <trkpt lat="47.35633" lon="-2.35581">
        <ele>64</ele>
        <time>2019-09-22T08:03:19Z</time>
      </trkpt>
      <trkpt lat="47.35639" lon="-2.35575">
        <ele>64</ele>
        <time>2019-09-22T08:03:20Z</time>
      </trkpt>
      <trkpt lat="47.35646" lon="-2.3557">
        <ele>64</ele>
        <time>2019-09-22T08:03:21Z</time>
      </trkpt>
      <trkpt lat="47.35652" lon="-2.35564">
        <ele>64</ele>
        <time>2019-09-22T08:03:23Z</time>
      </trkpt>
      <trkpt lat="47.35657" lon="-2.35559">
        <ele>64</ele>
        <time>2019-09-22T08:03:24Z</time>
      </trkpt>
      <trkpt lat="47.35663" lon="-2.35555">
        <ele>64</ele>
        <time>2019-09-22T08:03:25Z</time>
      </trkpt>
      <trkpt lat="47.35687" lon="-2.35538">
        <ele>64</ele>
        <time>2019-09-22T08:03:29Z</time>
      </trkpt>
      <trkpt lat="47.35697" lon="-2.35532">
        <ele>64</ele>
        <time>2019-09-22T08:03:31Z</time>
      </trkpt>
      <trkpt lat="47.35703" lon="-2.3553">
        <ele>64</ele>
        <time>2019-09-22T08:03:32Z</time>
      </trkpt>
      <trkpt lat="47.35715" lon="-2.35526">
        <ele>65</ele>
        <time>2019-09-22T08:03:34Z</time>
      </trkpt>
      <trkpt lat="47.35721" lon="-2.35523">
        <ele>65</ele>
        <time>2019-09-22T08:03:35Z</time>
      </trkpt>
      <trkpt lat="47.35732" lon="-2.35517">
        <ele>65</ele>
        <time>2019-09-22T08:03:37Z</time>
      </trkpt>
      <trkpt lat="47.35738" lon="-2.35515">
        <ele>66</ele>
        <time>2019-09-22T08:03:38Z</time>
      </trkpt>
      <trkpt lat="47.35744" lon="-2.35512">
        <ele>66</ele>
        <time>2019-09-22T08:03:39Z</time>
      </trkpt>
      <trkpt lat="47.3575" lon="-2.3551">
        <ele>66</ele>
        <time>2019-09-22T08:03:40Z</time>
      </trkpt>
      <trkpt lat="47.35756" lon="-2.35508">
        <ele>66</ele>
        <time>2019-09-22T08:03:41Z</time>
      </trkpt>
      <trkpt lat="47.35773" lon="-2.35502">
        <ele>66</ele>
        <time>2019-09-22T08:03:43Z</time>
      </trkpt>
      <trkpt lat="47.35779" lon="-2.355">
        <ele>66</ele>
        <time>2019-09-22T08:03:45Z</time>
      </trkpt>
      <trkpt lat="47.3579" lon="-2.35495">
        <ele>67</ele>
        <time>2019-09-22T08:03:46Z</time>
      </trkpt>
      <trkpt lat="47.35796" lon="-2.35492">
        <ele>67</ele>
        <time>2019-09-22T08:03:47Z</time>
      </trkpt>
      <trkpt lat="47.35803" lon="-2.35488">
        <ele>67</ele>
        <time>2019-09-22T08:03:49Z</time>
      </trkpt>
      <trkpt lat="47.35815" lon="-2.35483">
        <ele>67</ele>
        <time>2019-09-22T08:03:51Z</time>
      </trkpt>
      <trkpt lat="47.35827" lon="-2.35476">
        <ele>67</ele>
        <time>2019-09-22T08:03:53Z</time>
      </trkpt>
      <trkpt lat="47.35839" lon="-2.35473">
        <ele>68</ele>
        <time>2019-09-22T08:03:55Z</time>
      </trkpt>
      <trkpt lat="47.3585" lon="-2.35467">
        <ele>68</ele>
        <time>2019-09-22T08:03:57Z</time>
      </trkpt>
      <trkpt lat="47.35856" lon="-2.35464">
        <ele>68</ele>
        <time>2019-09-22T08:03:58Z</time>
      </trkpt>
      <trkpt lat="47.35867" lon="-2.35458">
        <ele>68</ele>
        <time>2019-09-22T08:04:00Z</time>
      </trkpt>
      <trkpt lat="47.35872" lon="-2.35453">
        <ele>68</ele>
        <time>2019-09-22T08:04:01Z</time>
      </trkpt>
      <trkpt lat="47.35877" lon="-2.35449">
        <ele>68</ele>
        <time>2019-09-22T08:04:02Z</time>
      </trkpt>
      <trkpt lat="47.35883" lon="-2.35445">
        <ele>68</ele>
        <time>2019-09-22T08:04:03Z</time>
      </trkpt>
      <trkpt lat="47.35889" lon="-2.35439">
        <ele>68</ele>
        <time>2019-09-22T08:04:04Z</time>
      </trkpt>
      <trkpt lat="47.35894" lon="-2.35434">
        <ele>68</ele>
        <time>2019-09-22T08:04:05Z</time>
      </trkpt>
      <trkpt lat="47.359" lon="-2.35428">
        <ele>69</ele>
        <time>2019-09-22T08:04:06Z</time>
      </trkpt>
      <trkpt lat="47.35906" lon="-2.35424">
        <ele>69</ele>
        <time>2019-09-22T08:04:07Z</time>
      </trkpt>
      <trkpt lat="47.35912" lon="-2.35419">
        <ele>69</ele>
        <time>2019-09-22T08:04:08Z</time>
      </trkpt>
      <trkpt lat="47.35918" lon="-2.35416">
        <ele>69</ele>
        <time>2019-09-22T08:04:09Z</time>
      </trkpt>
      <trkpt lat="47.35924" lon="-2.35413">
        <ele>69</ele>
        <time>2019-09-22T08:04:10Z</time>
      </trkpt>
      <trkpt lat="47.3593" lon="-2.35409">
        <ele>70</ele>
        <time>2019-09-22T08:04:11Z</time>
      </trkpt>
      <trkpt lat="47.35935" lon="-2.35404">
        <ele>70</ele>
        <time>2019-09-22T08:04:12Z</time>
      </trkpt>
      <trkpt lat="47.35943" lon="-2.3539">
        <ele>70</ele>
        <time>2019-09-22T08:04:14Z</time>
      </trkpt>
      <trkpt lat="47.35947" lon="-2.35383">
        <ele>69</ele>
        <time>2019-09-22T08:04:15Z</time>
      </trkpt>
      <trkpt lat="47.3595" lon="-2.35376">
        <ele>70</ele>
        <time>2019-09-22T08:04:16Z</time>
      </trkpt>
      <trkpt lat="47.35955" lon="-2.35369">
        <ele>70</ele>
        <time>2019-09-22T08:04:17Z</time>
      </trkpt>
      <trkpt lat="47.3596" lon="-2.35362">
        <ele>70</ele>
        <time>2019-09-22T08:04:18Z</time>
      </trkpt>
      <trkpt lat="47.35964" lon="-2.35355">
        <ele>70</ele>
        <time>2019-09-22T08:04:19Z</time>
      </trkpt>
      <trkpt lat="47.3597" lon="-2.35348">
        <ele>69</ele>
        <time>2019-09-22T08:04:20Z</time>
      </trkpt>
      <trkpt lat="47.35974" lon="-2.35341">
        <ele>69</ele>
        <time>2019-09-22T08:04:21Z</time>
      </trkpt>
      <trkpt lat="47.3598" lon="-2.35334">
        <ele>69</ele>
        <time>2019-09-22T08:04:22Z</time>
      </trkpt>
      <trkpt lat="47.35985" lon="-2.35328">
        <ele>69</ele>
        <time>2019-09-22T08:04:23Z</time>
      </trkpt>
      <trkpt lat="47.35989" lon="-2.35321">
        <ele>68</ele>
        <time>2019-09-22T08:04:24Z</time>
      </trkpt>
      <trkpt lat="47.35999" lon="-2.35308">
        <ele>68</ele>
        <time>2019-09-22T08:04:26Z</time>
      </trkpt>
      <trkpt lat="47.36009" lon="-2.35296">
        <ele>68</ele>
        <time>2019-09-22T08:04:28Z</time>
      </trkpt>
      <trkpt lat="47.36014" lon="-2.35289">
        <ele>67</ele>
        <time>2019-09-22T08:04:29Z</time>
      </trkpt>
      <trkpt lat="47.36019" lon="-2.35283">
        <ele>67</ele>
        <time>2019-09-22T08:04:30Z</time>
      </trkpt>
      <trkpt lat="47.36024" lon="-2.35275">
        <ele>67</ele>
        <time>2019-09-22T08:04:31Z</time>
      </trkpt>
      <trkpt lat="47.36029" lon="-2.35268">
        <ele>66</ele>
        <time>2019-09-22T08:04:32Z</time>
      </trkpt>
      <trkpt lat="47.3604" lon="-2.35254">
        <ele>66</ele>
        <time>2019-09-22T08:04:34Z</time>
      </trkpt>
      <trkpt lat="47.36045" lon="-2.35247">
        <ele>65</ele>
        <time>2019-09-22T08:04:35Z</time>
      </trkpt>
      <trkpt lat="47.36062" lon="-2.35226">
        <ele>63</ele>
        <time>2019-09-22T08:04:38Z</time>
      </trkpt>
      <trkpt lat="47.36067" lon="-2.35219">
        <ele>63</ele>
        <time>2019-09-22T08:04:39Z</time>
      </trkpt>
      <trkpt lat="47.36073" lon="-2.35211">
        <ele>62</ele>
        <time>2019-09-22T08:04:40Z</time>
      </trkpt>
      <trkpt lat="47.36078" lon="-2.35204">
        <ele>62</ele>
        <time>2019-09-22T08:04:41Z</time>
      </trkpt>
      <trkpt lat="47.36083" lon="-2.35196">
        <ele>62</ele>
        <time>2019-09-22T08:04:42Z</time>
      </trkpt>
      <trkpt lat="47.36093" lon="-2.35182">
        <ele>61</ele>
        <time>2019-09-22T08:04:44Z</time>
      </trkpt>
      <trkpt lat="47.36098" lon="-2.35175">
        <ele>61</ele>
        <time>2019-09-22T08:04:45Z</time>
      </trkpt>
      <trkpt lat="47.36103" lon="-2.35168">
        <ele>61</ele>
        <time>2019-09-22T08:04:46Z</time>
      </trkpt>
      <trkpt lat="47.36108" lon="-2.35162">
        <ele>61</ele>
        <time>2019-09-22T08:04:47Z</time>
      </trkpt>
      <trkpt lat="47.36113" lon="-2.35156">
        <ele>61</ele>
        <time>2019-09-22T08:04:48Z</time>
      </trkpt>
      <trkpt lat="47.36123" lon="-2.35144">
        <ele>62</ele>
        <time>2019-09-22T08:04:50Z</time>
      </trkpt>
      <trkpt lat="47.36142" lon="-2.3512">
        <ele>62</ele>
        <time>2019-09-22T08:04:53Z</time>
      </trkpt>
      <trkpt lat="47.36147" lon="-2.35115">
        <ele>62</ele>
        <time>2019-09-22T08:04:54Z</time>
      </trkpt>
      <trkpt lat="47.36153" lon="-2.35109">
        <ele>62</ele>
        <time>2019-09-22T08:04:55Z</time>
      </trkpt>
      <trkpt lat="47.36159" lon="-2.35103">
        <ele>63</ele>
        <time>2019-09-22T08:04:56Z</time>
      </trkpt>
      <trkpt lat="47.36166" lon="-2.35097">
        <ele>63</ele>
        <time>2019-09-22T08:04:57Z</time>
      </trkpt>
      <trkpt lat="47.36196" lon="-2.35068">
        <ele>63</ele>
        <time>2019-09-22T08:05:03Z</time>
      </trkpt>
      <trkpt lat="47.36219" lon="-2.35041">
        <ele>63</ele>
        <time>2019-09-22T08:05:06Z</time>
      </trkpt>
      <trkpt lat="47.3623" lon="-2.35035">
        <ele>69</ele>
        <time>2019-09-22T08:05:10Z</time>
      </trkpt>
      <trkpt lat="47.36234" lon="-2.35027">
        <ele>73</ele>
        <time>2019-09-22T08:05:11Z</time>
      </trkpt>
      <trkpt lat="47.36253" lon="-2.3498">
        <ele>77</ele>
        <time>2019-09-22T08:05:15Z</time>
      </trkpt>
      <trkpt lat="47.36257" lon="-2.34971">
        <ele>77</ele>
        <time>2019-09-22T08:05:16Z</time>
      </trkpt>
      <trkpt lat="47.3626" lon="-2.34962">
        <ele>76</ele>
        <time>2019-09-22T08:05:17Z</time>
      </trkpt>
      <trkpt lat="47.36263" lon="-2.34953">
        <ele>76</ele>
        <time>2019-09-22T08:05:18Z</time>
      </trkpt>
      <trkpt lat="47.36266" lon="-2.34945">
        <ele>74</ele>
        <time>2019-09-22T08:05:19Z</time>
      </trkpt>
      <trkpt lat="47.3627" lon="-2.34939">
        <ele>74</ele>
        <time>2019-09-22T08:05:20Z</time>
      </trkpt>
      <trkpt lat="47.36277" lon="-2.34933">
        <ele>73</ele>
        <time>2019-09-22T08:05:22Z</time>
      </trkpt>
      <trkpt lat="47.36286" lon="-2.34944">
        <ele>72</ele>
        <time>2019-09-22T08:05:25Z</time>
      </trkpt>
      <trkpt lat="47.36288" lon="-2.34952">
        <ele>72</ele>
        <time>2019-09-22T08:05:26Z</time>
      </trkpt>
      <trkpt lat="47.3629" lon="-2.34977">
        <ele>69</ele>
        <time>2019-09-22T08:05:30Z</time>
      </trkpt>
      <trkpt lat="47.36293" lon="-2.34992">
        <ele>68</ele>
        <time>2019-09-22T08:05:32Z</time>
      </trkpt>
      <trkpt lat="47.36294" lon="-2.34999">
        <ele>67</ele>
        <time>2019-09-22T08:05:33Z</time>
      </trkpt>
      <trkpt lat="47.36296" lon="-2.35006">
        <ele>67</ele>
        <time>2019-09-22T08:05:34Z</time>
      </trkpt>
      <trkpt lat="47.36304" lon="-2.3501">
        <ele>66</ele>
        <time>2019-09-22T08:05:36Z</time>
      </trkpt>
      <trkpt lat="47.36312" lon="-2.3501">
        <ele>65</ele>
        <time>2019-09-22T08:05:38Z</time>
      </trkpt>
      <trkpt lat="47.36324" lon="-2.35006">
        <ele>66</ele>
        <time>2019-09-22T08:05:41Z</time>
      </trkpt>
      <trkpt lat="47.36328" lon="-2.35003">
        <ele>66</ele>
        <time>2019-09-22T08:05:42Z</time>
      </trkpt>
      <trkpt lat="47.36337" lon="-2.34992">
        <ele>66</ele>
        <time>2019-09-22T08:05:44Z</time>
      </trkpt>
      <trkpt lat="47.3634" lon="-2.34985">
        <ele>66</ele>
        <time>2019-09-22T08:05:45Z</time>
      </trkpt>
      <trkpt lat="47.36345" lon="-2.3498">
        <ele>66</ele>
        <time>2019-09-22T08:05:46Z</time>
      </trkpt>
      <trkpt lat="47.3635" lon="-2.34975">
        <ele>66</ele>
        <time>2019-09-22T08:05:47Z</time>
      </trkpt>
      <trkpt lat="47.3636" lon="-2.34963">
        <ele>66</ele>
        <time>2019-09-22T08:05:49Z</time>
      </trkpt>
      <trkpt lat="47.36365" lon="-2.34958">
        <ele>66</ele>
        <time>2019-09-22T08:05:50Z</time>
      </trkpt>
      <trkpt lat="47.3637" lon="-2.34954">
        <ele>67</ele>
        <time>2019-09-22T08:05:51Z</time>
      </trkpt>
      <trkpt lat="47.36376" lon="-2.34947">
        <ele>66</ele>
        <time>2019-09-22T08:05:52Z</time>
      </trkpt>
      <trkpt lat="47.36382" lon="-2.34941">
        <ele>67</ele>
        <time>2019-09-22T08:05:53Z</time>
      </trkpt>
      <trkpt lat="47.36388" lon="-2.34936">
        <ele>67</ele>
        <time>2019-09-22T08:05:54Z</time>
      </trkpt>
      <trkpt lat="47.36393" lon="-2.34931">
        <ele>66</ele>
        <time>2019-09-22T08:05:55Z</time>
      </trkpt>
      <trkpt lat="47.36398" lon="-2.34927">
        <ele>66</ele>
        <time>2019-09-22T08:05:56Z</time>
      </trkpt>
      <trkpt lat="47.36402" lon="-2.34925">
        <ele>65</ele>
        <time>2019-09-22T08:05:57Z</time>
      </trkpt>
      <trkpt lat="47.36407" lon="-2.34921">
        <ele>65</ele>
        <time>2019-09-22T08:05:58Z</time>
      </trkpt>
      <trkpt lat="47.36411" lon="-2.34918">
        <ele>65</ele>
        <time>2019-09-22T08:05:59Z</time>
      </trkpt>
      <trkpt lat="47.36418" lon="-2.34915">
        <ele>65</ele>
        <time>2019-09-22T08:06:01Z</time>
      </trkpt>
      <trkpt lat="47.36424" lon="-2.34911">
        <ele>65</ele>
        <time>2019-09-22T08:06:03Z</time>
      </trkpt>
      <trkpt lat="47.36429" lon="-2.34906">
        <ele>65</ele>
        <time>2019-09-22T08:06:05Z</time>
      </trkpt>
      <trkpt lat="47.3644" lon="-2.34899">
        <ele>65</ele>
        <time>2019-09-22T08:06:09Z</time>
      </trkpt>
      <trkpt lat="47.36449" lon="-2.34904">
        <ele>65</ele>
        <time>2019-09-22T08:06:13Z</time>
      </trkpt>
      <trkpt lat="47.36454" lon="-2.34913">
        <ele>65</ele>
        <time>2019-09-22T08:06:15Z</time>
      </trkpt>
      <trkpt lat="47.36458" lon="-2.34918">
        <ele>65</ele>
        <time>2019-09-22T08:06:16Z</time>
      </trkpt>
      <trkpt lat="47.36461" lon="-2.34924">
        <ele>65</ele>
        <time>2019-09-22T08:06:17Z</time>
      </trkpt>
      <trkpt lat="47.36465" lon="-2.34932">
        <ele>65</ele>
        <time>2019-09-22T08:06:18Z</time>
      </trkpt>
      <trkpt lat="47.3647" lon="-2.34939">
        <ele>65</ele>
        <time>2019-09-22T08:06:19Z</time>
      </trkpt>
      <trkpt lat="47.36476" lon="-2.34948">
        <ele>64</ele>
        <time>2019-09-22T08:06:20Z</time>
      </trkpt>
      <trkpt lat="47.36481" lon="-2.34956">
        <ele>64</ele>
        <time>2019-09-22T08:06:21Z</time>
      </trkpt>
      <trkpt lat="47.36496" lon="-2.34983">
        <ele>63</ele>
        <time>2019-09-22T08:06:24Z</time>
      </trkpt>
      <trkpt lat="47.36501" lon="-2.34993">
        <ele>63</ele>
        <time>2019-09-22T08:06:25Z</time>
      </trkpt>
      <trkpt lat="47.36511" lon="-2.35011">
        <ele>62</ele>
        <time>2019-09-22T08:06:26Z</time>
      </trkpt>
      <trkpt lat="47.36516" lon="-2.35021">
        <ele>62</ele>
        <time>2019-09-22T08:06:28Z</time>
      </trkpt>
      <trkpt lat="47.36521" lon="-2.35031">
        <ele>63</ele>
        <time>2019-09-22T08:06:29Z</time>
      </trkpt>
      <trkpt lat="47.36527" lon="-2.35039">
        <ele>63</ele>
        <time>2019-09-22T08:06:30Z</time>
      </trkpt>
      <trkpt lat="47.36532" lon="-2.35048">
        <ele>63</ele>
        <time>2019-09-22T08:06:31Z</time>
      </trkpt>
      <trkpt lat="47.36543" lon="-2.35065">
        <ele>63</ele>
        <time>2019-09-22T08:06:33Z</time>
      </trkpt>
      <trkpt lat="47.36548" lon="-2.35073">
        <ele>62</ele>
        <time>2019-09-22T08:06:34Z</time>
      </trkpt>
      <trkpt lat="47.36563" lon="-2.35101">
        <ele>61</ele>
        <time>2019-09-22T08:06:37Z</time>
      </trkpt>
      <trkpt lat="47.36567" lon="-2.35111">
        <ele>61</ele>
        <time>2019-09-22T08:06:38Z</time>
      </trkpt>
      <trkpt lat="47.36572" lon="-2.3512">
        <ele>61</ele>
        <time>2019-09-22T08:06:39Z</time>
      </trkpt>
      <trkpt lat="47.36577" lon="-2.35129">
        <ele>60</ele>
        <time>2019-09-22T08:06:40Z</time>
      </trkpt>
      <trkpt lat="47.36582" lon="-2.35138">
        <ele>60</ele>
        <time>2019-09-22T08:06:41Z</time>
      </trkpt>
      <trkpt lat="47.36587" lon="-2.35147">
        <ele>59</ele>
        <time>2019-09-22T08:06:42Z</time>
      </trkpt>
      <trkpt lat="47.36593" lon="-2.35155">
        <ele>59</ele>
        <time>2019-09-22T08:06:43Z</time>
      </trkpt>
      <trkpt lat="47.36609" lon="-2.35179">
        <ele>58</ele>
        <time>2019-09-22T08:06:46Z</time>
      </trkpt>
      <trkpt lat="47.36618" lon="-2.35194">
        <ele>58</ele>
        <time>2019-09-22T08:06:48Z</time>
      </trkpt>
      <trkpt lat="47.36622" lon="-2.35201">
        <ele>58</ele>
        <time>2019-09-22T08:06:49Z</time>
      </trkpt>
      <trkpt lat="47.36632" lon="-2.35217">
        <ele>58</ele>
        <time>2019-09-22T08:06:50Z</time>
      </trkpt>
      <trkpt lat="47.36636" lon="-2.35223">
        <ele>58</ele>
        <time>2019-09-22T08:06:51Z</time>
      </trkpt>
      <trkpt lat="47.3664" lon="-2.35227">
        <ele>58</ele>
        <time>2019-09-22T08:06:53Z</time>
      </trkpt>
      <trkpt lat="47.36651" lon="-2.35225">
        <ele>58</ele>
        <time>2019-09-22T08:06:56Z</time>
      </trkpt>
      <trkpt lat="47.36658" lon="-2.35216">
        <ele>58</ele>
        <time>2019-09-22T08:06:58Z</time>
      </trkpt>
      <trkpt lat="47.36665" lon="-2.35205">
        <ele>59</ele>
        <time>2019-09-22T08:07:00Z</time>
      </trkpt>
      <trkpt lat="47.36672" lon="-2.35191">
        <ele>59</ele>
        <time>2019-09-22T08:07:02Z</time>
      </trkpt>
      <trkpt lat="47.36676" lon="-2.35184">
        <ele>59</ele>
        <time>2019-09-22T08:07:03Z</time>
      </trkpt>
      <trkpt lat="47.36682" lon="-2.35177">
        <ele>58</ele>
        <time>2019-09-22T08:07:04Z</time>
      </trkpt>
      <trkpt lat="47.36687" lon="-2.35168">
        <ele>58</ele>
        <time>2019-09-22T08:07:05Z</time>
      </trkpt>
      <trkpt lat="47.36691" lon="-2.3516">
        <ele>58</ele>
        <time>2019-09-22T08:07:06Z</time>
      </trkpt>
      <trkpt lat="47.36696" lon="-2.35152">
        <ele>59</ele>
        <time>2019-09-22T08:07:07Z</time>
      </trkpt>
      <trkpt lat="47.367" lon="-2.35144">
        <ele>59</ele>
        <time>2019-09-22T08:07:08Z</time>
      </trkpt>
      <trkpt lat="47.36704" lon="-2.35136">
        <ele>59</ele>
        <time>2019-09-22T08:07:09Z</time>
      </trkpt>
      <trkpt lat="47.36708" lon="-2.35128">
        <ele>59</ele>
        <time>2019-09-22T08:07:10Z</time>
      </trkpt>
      <trkpt lat="47.36711" lon="-2.35121">
        <ele>59</ele>
        <time>2019-09-22T08:07:11Z</time>
      </trkpt>
      <trkpt lat="47.36715" lon="-2.35114">
        <ele>58</ele>
        <time>2019-09-22T08:07:12Z</time>
      </trkpt>
      <trkpt lat="47.36719" lon="-2.35107">
        <ele>58</ele>
        <time>2019-09-22T08:07:13Z</time>
      </trkpt>
      <trkpt lat="47.36722" lon="-2.35101">
        <ele>58</ele>
        <time>2019-09-22T08:07:14Z</time>
      </trkpt>
      <trkpt lat="47.36726" lon="-2.35095">
        <ele>58</ele>
        <time>2019-09-22T08:07:15Z</time>
      </trkpt>
      <trkpt lat="47.3673" lon="-2.3509">
        <ele>59</ele>
        <time>2019-09-22T08:07:16Z</time>
      </trkpt>
      <trkpt lat="47.36733" lon="-2.35084">
        <ele>59</ele>
        <time>2019-09-22T08:07:17Z</time>
      </trkpt>
      <trkpt lat="47.36737" lon="-2.35077">
        <ele>59</ele>
        <time>2019-09-22T08:07:18Z</time>
      </trkpt>
      <trkpt lat="47.36741" lon="-2.35071">
        <ele>59</ele>
        <time>2019-09-22T08:07:19Z</time>
      </trkpt>
      <trkpt lat="47.36748" lon="-2.35062">
        <ele>60</ele>
        <time>2019-09-22T08:07:21Z</time>
      </trkpt>
      <trkpt lat="47.36751" lon="-2.35057">
        <ele>62</ele>
        <time>2019-09-22T08:07:22Z</time>
      </trkpt>
      <trkpt lat="47.36756" lon="-2.3505">
        <ele>62</ele>
        <time>2019-09-22T08:07:23Z</time>
      </trkpt>
      <trkpt lat="47.3676" lon="-2.35043">
        <ele>63</ele>
        <time>2019-09-22T08:07:24Z</time>
      </trkpt>
      <trkpt lat="47.36763" lon="-2.35035">
        <ele>63</ele>
        <time>2019-09-22T08:07:25Z</time>
      </trkpt>
      <trkpt lat="47.3677" lon="-2.35022">
        <ele>62</ele>
        <time>2019-09-22T08:07:27Z</time>
      </trkpt>
      <trkpt lat="47.36774" lon="-2.35015">
        <ele>62</ele>
        <time>2019-09-22T08:07:28Z</time>
      </trkpt>
      <trkpt lat="47.36777" lon="-2.35009">
        <ele>62</ele>
        <time>2019-09-22T08:07:29Z</time>
      </trkpt>
      <trkpt lat="47.36781" lon="-2.35003">
        <ele>62</ele>
        <time>2019-09-22T08:07:30Z</time>
      </trkpt>
      <trkpt lat="47.36785" lon="-2.34998">
        <ele>62</ele>
        <time>2019-09-22T08:07:31Z</time>
      </trkpt>
      <trkpt lat="47.3679" lon="-2.34993">
        <ele>61</ele>
        <time>2019-09-22T08:07:32Z</time>
      </trkpt>
      <trkpt lat="47.36793" lon="-2.34988">
        <ele>62</ele>
        <time>2019-09-22T08:07:33Z</time>
      </trkpt>
      <trkpt lat="47.36797" lon="-2.34983">
        <ele>62</ele>
        <time>2019-09-22T08:07:34Z</time>
      </trkpt>
      <trkpt lat="47.36805" lon="-2.34972">
        <ele>61</ele>
        <time>2019-09-22T08:07:36Z</time>
      </trkpt>
      <trkpt lat="47.36815" lon="-2.34967">
        <ele>61</ele>
        <time>2019-09-22T08:07:38Z</time>
      </trkpt>
      <trkpt lat="47.3682" lon="-2.34965">
        <ele>60</ele>
        <time>2019-09-22T08:07:39Z</time>
      </trkpt>
      <trkpt lat="47.36851" lon="-2.34956">
        <ele>59</ele>
        <time>2019-09-22T08:07:44Z</time>
      </trkpt>
      <trkpt lat="47.36858" lon="-2.34954">
        <ele>59</ele>
        <time>2019-09-22T08:07:45Z</time>
      </trkpt>
      <trkpt lat="47.36865" lon="-2.34952">
        <ele>59</ele>
        <time>2019-09-22T08:07:46Z</time>
      </trkpt>
      <trkpt lat="47.36879" lon="-2.34947">
        <ele>59</ele>
        <time>2019-09-22T08:07:47Z</time>
      </trkpt>
      <trkpt lat="47.36886" lon="-2.34946">
        <ele>58</ele>
        <time>2019-09-22T08:07:48Z</time>
      </trkpt>
      <trkpt lat="47.36901" lon="-2.34942">
        <ele>58</ele>
        <time>2019-09-22T08:07:50Z</time>
      </trkpt>
      <trkpt lat="47.36923" lon="-2.34937">
        <ele>58</ele>
        <time>2019-09-22T08:07:54Z</time>
      </trkpt>
      <trkpt lat="47.36944" lon="-2.34931">
        <ele>58</ele>
        <time>2019-09-22T08:07:57Z</time>
      </trkpt>
      <trkpt lat="47.36969" lon="-2.34895">
        <ele>58</ele>
        <time>2019-09-22T08:08:02Z</time>
      </trkpt>
      <trkpt lat="47.36972" lon="-2.34888">
        <ele>58</ele>
        <time>2019-09-22T08:08:03Z</time>
      </trkpt>
      <trkpt lat="47.36975" lon="-2.34882">
        <ele>58</ele>
        <time>2019-09-22T08:08:04Z</time>
      </trkpt>
      <trkpt lat="47.36983" lon="-2.34876">
        <ele>57</ele>
        <time>2019-09-22T08:08:06Z</time>
      </trkpt>
      <trkpt lat="47.36987" lon="-2.34875">
        <ele>57</ele>
        <time>2019-09-22T08:08:07Z</time>
      </trkpt>
      <trkpt lat="47.36998" lon="-2.34874">
        <ele>57</ele>
        <time>2019-09-22T08:08:08Z</time>
      </trkpt>
      <trkpt lat="47.37018" lon="-2.34877">
        <ele>57</ele>
        <time>2019-09-22T08:08:11Z</time>
      </trkpt>
      <trkpt lat="47.37032" lon="-2.34875">
        <ele>57</ele>
        <time>2019-09-22T08:08:13Z</time>
      </trkpt>
      <trkpt lat="47.37039" lon="-2.34873">
        <ele>57</ele>
        <time>2019-09-22T08:08:14Z</time>
      </trkpt>
      <trkpt lat="47.37046" lon="-2.34871">
        <ele>57</ele>
        <time>2019-09-22T08:08:15Z</time>
      </trkpt>
      <trkpt lat="47.37053" lon="-2.34869">
        <ele>57</ele>
        <time>2019-09-22T08:08:16Z</time>
      </trkpt>
      <trkpt lat="47.3706" lon="-2.34867">
        <ele>57</ele>
        <time>2019-09-22T08:08:17Z</time>
      </trkpt>
      <trkpt lat="47.37068" lon="-2.34865">
        <ele>57</ele>
        <time>2019-09-22T08:08:18Z</time>
      </trkpt>
      <trkpt lat="47.37082" lon="-2.34865">
        <ele>57</ele>
        <time>2019-09-22T08:08:21Z</time>
      </trkpt>
      <trkpt lat="47.37101" lon="-2.34875">
        <ele>57</ele>
        <time>2019-09-22T08:08:23Z</time>
      </trkpt>
      <trkpt lat="47.37107" lon="-2.34879">
        <ele>57</ele>
        <time>2019-09-22T08:08:24Z</time>
      </trkpt>
      <trkpt lat="47.37119" lon="-2.34885">
        <ele>58</ele>
        <time>2019-09-22T08:08:27Z</time>
      </trkpt>
      <trkpt lat="47.37125" lon="-2.34886">
        <ele>57</ele>
        <time>2019-09-22T08:08:28Z</time>
      </trkpt>
      <trkpt lat="47.37131" lon="-2.34886">
        <ele>58</ele>
        <time>2019-09-22T08:08:29Z</time>
      </trkpt>
      <trkpt lat="47.37135" lon="-2.34882">
        <ele>57</ele>
        <time>2019-09-22T08:08:30Z</time>
      </trkpt>
      <trkpt lat="47.3714" lon="-2.34875">
        <ele>58</ele>
        <time>2019-09-22T08:08:31Z</time>
      </trkpt>
      <trkpt lat="47.37144" lon="-2.34868">
        <ele>58</ele>
        <time>2019-09-22T08:08:32Z</time>
      </trkpt>
      <trkpt lat="47.37149" lon="-2.3486">
        <ele>59</ele>
        <time>2019-09-22T08:08:33Z</time>
      </trkpt>
      <trkpt lat="47.37154" lon="-2.34853">
        <ele>59</ele>
        <time>2019-09-22T08:08:34Z</time>
      </trkpt>
      <trkpt lat="47.3716" lon="-2.34846">
        <ele>58</ele>
        <time>2019-09-22T08:08:35Z</time>
      </trkpt>
      <trkpt lat="47.37165" lon="-2.34839">
        <ele>57</ele>
        <time>2019-09-22T08:08:36Z</time>
      </trkpt>
      <trkpt lat="47.3717" lon="-2.34833">
        <ele>57</ele>
        <time>2019-09-22T08:08:37Z</time>
      </trkpt>
      <trkpt lat="47.37175" lon="-2.34826">
        <ele>57</ele>
        <time>2019-09-22T08:08:38Z</time>
      </trkpt>
      <trkpt lat="47.3718" lon="-2.3482">
        <ele>57</ele>
        <time>2019-09-22T08:08:39Z</time>
      </trkpt>
      <trkpt lat="47.37185" lon="-2.34814">
        <ele>57</ele>
        <time>2019-09-22T08:08:40Z</time>
      </trkpt>
      <trkpt lat="47.3719" lon="-2.34808">
        <ele>57</ele>
        <time>2019-09-22T08:08:41Z</time>
      </trkpt>
      <trkpt lat="47.37194" lon="-2.34801">
        <ele>57</ele>
        <time>2019-09-22T08:08:42Z</time>
      </trkpt>
      <trkpt lat="47.37209" lon="-2.34782">
        <ele>57</ele>
        <time>2019-09-22T08:08:44Z</time>
      </trkpt>
      <trkpt lat="47.37214" lon="-2.34776">
        <ele>57</ele>
        <time>2019-09-22T08:08:45Z</time>
      </trkpt>
      <trkpt lat="47.37219" lon="-2.3477">
        <ele>57</ele>
        <time>2019-09-22T08:08:46Z</time>
      </trkpt>
      <trkpt lat="47.37225" lon="-2.34762">
        <ele>57</ele>
        <time>2019-09-22T08:08:47Z</time>
      </trkpt>
      <trkpt lat="47.37244" lon="-2.34727">
        <ele>57</ele>
        <time>2019-09-22T08:08:51Z</time>
      </trkpt>
      <trkpt lat="47.37248" lon="-2.34718">
        <ele>57</ele>
        <time>2019-09-22T08:08:52Z</time>
      </trkpt>
      <trkpt lat="47.37255" lon="-2.347">
        <ele>57</ele>
        <time>2019-09-22T08:08:54Z</time>
      </trkpt>
      <trkpt lat="47.37258" lon="-2.34691">
        <ele>57</ele>
        <time>2019-09-22T08:08:55Z</time>
      </trkpt>
      <trkpt lat="47.37262" lon="-2.3467">
        <ele>57</ele>
        <time>2019-09-22T08:08:57Z</time>
      </trkpt>
      <trkpt lat="47.37263" lon="-2.3466">
        <ele>57</ele>
        <time>2019-09-22T08:08:58Z</time>
      </trkpt>
      <trkpt lat="47.37264" lon="-2.34642">
        <ele>58</ele>
        <time>2019-09-22T08:09:00Z</time>
      </trkpt>
      <trkpt lat="47.37265" lon="-2.34633">
        <ele>58</ele>
        <time>2019-09-22T08:09:01Z</time>
      </trkpt>
      <trkpt lat="47.37267" lon="-2.34624">
        <ele>57</ele>
        <time>2019-09-22T08:09:02Z</time>
      </trkpt>
      <trkpt lat="47.37268" lon="-2.34613">
        <ele>57</ele>
        <time>2019-09-22T08:09:03Z</time>
      </trkpt>
      <trkpt lat="47.37268" lon="-2.34604">
        <ele>57</ele>
        <time>2019-09-22T08:09:04Z</time>
      </trkpt>
      <trkpt lat="47.37268" lon="-2.34594">
        <ele>58</ele>
        <time>2019-09-22T08:09:05Z</time>
      </trkpt>
      <trkpt lat="47.37269" lon="-2.34584">
        <ele>58</ele>
        <time>2019-09-22T08:09:06Z</time>
      </trkpt>
      <trkpt lat="47.37271" lon="-2.34556">
        <ele>58</ele>
        <time>2019-09-22T08:09:09Z</time>
      </trkpt>
      <trkpt lat="47.37273" lon="-2.34526">
        <ele>59</ele>
        <time>2019-09-22T08:09:11Z</time>
      </trkpt>
      <trkpt lat="47.37274" lon="-2.34515">
        <ele>59</ele>
        <time>2019-09-22T08:09:12Z</time>
      </trkpt>
      <trkpt lat="47.37274" lon="-2.34506">
        <ele>59</ele>
        <time>2019-09-22T08:09:13Z</time>
      </trkpt>
      <trkpt lat="47.37275" lon="-2.34496">
        <ele>59</ele>
        <time>2019-09-22T08:09:14Z</time>
      </trkpt>
      <trkpt lat="47.37275" lon="-2.34486">
        <ele>59</ele>
        <time>2019-09-22T08:09:15Z</time>
      </trkpt>
      <trkpt lat="47.37274" lon="-2.34476">
        <ele>59</ele>
        <time>2019-09-22T08:09:16Z</time>
      </trkpt>
      <trkpt lat="47.37273" lon="-2.34456">
        <ele>59</ele>
        <time>2019-09-22T08:09:18Z</time>
      </trkpt>
      <trkpt lat="47.37273" lon="-2.34446">
        <ele>59</ele>
        <time>2019-09-22T08:09:19Z</time>
      </trkpt>
      <trkpt lat="47.37273" lon="-2.34428">
        <ele>59</ele>
        <time>2019-09-22T08:09:21Z</time>
      </trkpt>
      <trkpt lat="47.37273" lon="-2.34419">
        <ele>59</ele>
        <time>2019-09-22T08:09:22Z</time>
      </trkpt>
      <trkpt lat="47.37273" lon="-2.3441">
        <ele>58</ele>
        <time>2019-09-22T08:09:23Z</time>
      </trkpt>
      <trkpt lat="47.37272" lon="-2.34401">
        <ele>59</ele>
        <time>2019-09-22T08:09:24Z</time>
      </trkpt>
      <trkpt lat="47.37271" lon="-2.34374">
        <ele>58</ele>
        <time>2019-09-22T08:09:27Z</time>
      </trkpt>
      <trkpt lat="47.3727" lon="-2.34355">
        <ele>59</ele>
        <time>2019-09-22T08:09:29Z</time>
      </trkpt>
      <trkpt lat="47.37271" lon="-2.34336">
        <ele>59</ele>
        <time>2019-09-22T08:09:31Z</time>
      </trkpt>
      <trkpt lat="47.37271" lon="-2.34325">
        <ele>59</ele>
        <time>2019-09-22T08:09:32Z</time>
      </trkpt>
      <trkpt lat="47.37271" lon="-2.34315">
        <ele>59</ele>
        <time>2019-09-22T08:09:33Z</time>
      </trkpt>
      <trkpt lat="47.37271" lon="-2.34304">
        <ele>59</ele>
        <time>2019-09-22T08:09:34Z</time>
      </trkpt>
      <trkpt lat="47.37271" lon="-2.34293">
        <ele>59</ele>
        <time>2019-09-22T08:09:35Z</time>
      </trkpt>
      <trkpt lat="47.37276" lon="-2.34253">
        <ele>58</ele>
        <time>2019-09-22T08:09:39Z</time>
      </trkpt>
      <trkpt lat="47.37262" lon="-2.3416">
        <ele>57</ele>
        <time>2019-09-22T08:09:48Z</time>
      </trkpt>
      <trkpt lat="47.37259" lon="-2.34146">
        <ele>57</ele>
        <time>2019-09-22T08:09:50Z</time>
      </trkpt>
      <trkpt lat="47.37259" lon="-2.34135">
        <ele>56</ele>
        <time>2019-09-22T08:09:51Z</time>
      </trkpt>
      <trkpt lat="47.37257" lon="-2.34127">
        <ele>57</ele>
        <time>2019-09-22T08:09:52Z</time>
      </trkpt>
      <trkpt lat="47.37252" lon="-2.34111">
        <ele>55</ele>
        <time>2019-09-22T08:09:54Z</time>
      </trkpt>
      <trkpt lat="47.3725" lon="-2.34104">
        <ele>58</ele>
        <time>2019-09-22T08:09:55Z</time>
      </trkpt>
      <trkpt lat="47.37247" lon="-2.34086">
        <ele>58</ele>
        <time>2019-09-22T08:09:57Z</time>
      </trkpt>
      <trkpt lat="47.37244" lon="-2.34079">
        <ele>58</ele>
        <time>2019-09-22T08:09:58Z</time>
      </trkpt>
      <trkpt lat="47.37242" lon="-2.34071">
        <ele>60</ele>
        <time>2019-09-22T08:09:59Z</time>
      </trkpt>
      <trkpt lat="47.37241" lon="-2.34063">
        <ele>59</ele>
        <time>2019-09-22T08:10:00Z</time>
      </trkpt>
      <trkpt lat="47.37233" lon="-2.34032">
        <ele>61</ele>
        <time>2019-09-22T08:10:04Z</time>
      </trkpt>
      <trkpt lat="47.37231" lon="-2.34024">
        <ele>61</ele>
        <time>2019-09-22T08:10:05Z</time>
      </trkpt>
      <trkpt lat="47.3723" lon="-2.34015">
        <ele>60</ele>
        <time>2019-09-22T08:10:06Z</time>
      </trkpt>
      <trkpt lat="47.3723" lon="-2.34006">
        <ele>59</ele>
        <time>2019-09-22T08:10:07Z</time>
      </trkpt>
      <trkpt lat="47.37226" lon="-2.33965">
        <ele>60</ele>
        <time>2019-09-22T08:10:12Z</time>
      </trkpt>
      <trkpt lat="47.37225" lon="-2.33951">
        <ele>61</ele>
        <time>2019-09-22T08:10:14Z</time>
      </trkpt>
      <trkpt lat="47.37224" lon="-2.33942">
        <ele>61</ele>
        <time>2019-09-22T08:10:15Z</time>
      </trkpt>
      <trkpt lat="47.37223" lon="-2.33934">
        <ele>60</ele>
        <time>2019-09-22T08:10:16Z</time>
      </trkpt>
      <trkpt lat="47.37221" lon="-2.3391">
        <ele>62</ele>
        <time>2019-09-22T08:10:19Z</time>
      </trkpt>
      <trkpt lat="47.3723" lon="-2.33895">
        <ele>62</ele>
        <time>2019-09-22T08:10:22Z</time>
      </trkpt>
      <trkpt lat="47.37264" lon="-2.33924">
        <ele>78</ele>
        <time>2019-09-22T08:10:27Z</time>
      </trkpt>
      <trkpt lat="47.37248" lon="-2.33928">
        <ele>115</ele>
        <time>2019-09-22T08:10:30Z</time>
      </trkpt>
      <trkpt lat="47.37244" lon="-2.33923">
        <ele>121</ele>
        <time>2019-09-22T08:10:31Z</time>
      </trkpt>
      <trkpt lat="47.37225" lon="-2.33863">
        <ele>143</ele>
        <time>2019-09-22T08:10:35Z</time>
      </trkpt>
      <trkpt lat="47.37228" lon="-2.33849">
        <ele>141</ele>
        <time>2019-09-22T08:10:36Z</time>
      </trkpt>
      <trkpt lat="47.37236" lon="-2.33842">
        <ele>138</ele>
        <time>2019-09-22T08:10:37Z</time>
      </trkpt>
      <trkpt lat="47.37244" lon="-2.33836">
        <ele>135</ele>
        <time>2019-09-22T08:10:38Z</time>
      </trkpt>
      <trkpt lat="47.37264" lon="-2.33831">
        <ele>124</ele>
        <time>2019-09-22T08:10:40Z</time>
      </trkpt>
      <trkpt lat="47.37277" lon="-2.33827">
        <ele>113</ele>
        <time>2019-09-22T08:10:42Z</time>
      </trkpt>
      <trkpt lat="47.37283" lon="-2.33826">
        <ele>109</ele>
        <time>2019-09-22T08:10:43Z</time>
      </trkpt>
      <trkpt lat="47.37291" lon="-2.33825">
        <ele>106</ele>
        <time>2019-09-22T08:10:44Z</time>
      </trkpt>
      <trkpt lat="47.37298" lon="-2.33823">
        <ele>101</ele>
        <time>2019-09-22T08:10:45Z</time>
      </trkpt>
      <trkpt lat="47.37306" lon="-2.33819">
        <ele>96</ele>
        <time>2019-09-22T08:10:46Z</time>
      </trkpt>
      <trkpt lat="47.37314" lon="-2.33815">
        <ele>91</ele>
        <time>2019-09-22T08:10:47Z</time>
      </trkpt>
      <trkpt lat="47.37321" lon="-2.33811">
        <ele>87</ele>
        <time>2019-09-22T08:10:48Z</time>
      </trkpt>
      <trkpt lat="47.37327" lon="-2.33808">
        <ele>85</ele>
        <time>2019-09-22T08:10:49Z</time>
      </trkpt>
      <trkpt lat="47.37334" lon="-2.33806">
        <ele>83</ele>
        <time>2019-09-22T08:10:50Z</time>
      </trkpt>
      <trkpt lat="47.3734" lon="-2.33803">
        <ele>82</ele>
        <time>2019-09-22T08:10:51Z</time>
      </trkpt>
      <trkpt lat="47.37351" lon="-2.33795">
        <ele>80</ele>
        <time>2019-09-22T08:10:53Z</time>
      </trkpt>
      <trkpt lat="47.37358" lon="-2.33792">
        <ele>78</ele>
        <time>2019-09-22T08:10:54Z</time>
      </trkpt>
      <trkpt lat="47.37364" lon="-2.33789">
        <ele>79</ele>
        <time>2019-09-22T08:10:55Z</time>
      </trkpt>
      <trkpt lat="47.37384" lon="-2.33781">
        <ele>78</ele>
        <time>2019-09-22T08:10:58Z</time>
      </trkpt>
      <trkpt lat="47.37405" lon="-2.3377">
        <ele>69</ele>
        <time>2019-09-22T08:11:01Z</time>
      </trkpt>
      <trkpt lat="47.37412" lon="-2.33766">
        <ele>69</ele>
        <time>2019-09-22T08:11:02Z</time>
      </trkpt>
      <trkpt lat="47.37418" lon="-2.33764">
        <ele>69</ele>
        <time>2019-09-22T08:11:03Z</time>
      </trkpt>
      <trkpt lat="47.37424" lon="-2.33761">
        <ele>68</ele>
        <time>2019-09-22T08:11:04Z</time>
      </trkpt>
      <trkpt lat="47.3743" lon="-2.33757">
        <ele>68</ele>
        <time>2019-09-22T08:11:05Z</time>
      </trkpt>
      <trkpt lat="47.37442" lon="-2.33749">
        <ele>68</ele>
        <time>2019-09-22T08:11:07Z</time>
      </trkpt>
      <trkpt lat="47.37448" lon="-2.33745">
        <ele>68</ele>
        <time>2019-09-22T08:11:08Z</time>
      </trkpt>
      <trkpt lat="47.37454" lon="-2.33739">
        <ele>68</ele>
        <time>2019-09-22T08:11:09Z</time>
      </trkpt>
      <trkpt lat="47.3746" lon="-2.33734">
        <ele>67</ele>
        <time>2019-09-22T08:11:10Z</time>
      </trkpt>
      <trkpt lat="47.37466" lon="-2.33728">
        <ele>67</ele>
        <time>2019-09-22T08:11:11Z</time>
      </trkpt>
      <trkpt lat="47.37472" lon="-2.33722">
        <ele>67</ele>
        <time>2019-09-22T08:11:12Z</time>
      </trkpt>
      <trkpt lat="47.37478" lon="-2.33716">
        <ele>67</ele>
        <time>2019-09-22T08:11:13Z</time>
      </trkpt>
      <trkpt lat="47.37485" lon="-2.33711">
        <ele>67</ele>
        <time>2019-09-22T08:11:14Z</time>
      </trkpt>
      <trkpt lat="47.37491" lon="-2.33704">
        <ele>67</ele>
        <time>2019-09-22T08:11:15Z</time>
      </trkpt>
      <trkpt lat="47.37498" lon="-2.33697">
        <ele>67</ele>
        <time>2019-09-22T08:11:16Z</time>
      </trkpt>
      <trkpt lat="47.37517" lon="-2.3368">
        <ele>65</ele>
        <time>2019-09-22T08:11:19Z</time>
      </trkpt>
      <trkpt lat="47.37524" lon="-2.33675">
        <ele>65</ele>
        <time>2019-09-22T08:11:20Z</time>
      </trkpt>
      <trkpt lat="47.37531" lon="-2.3367">
        <ele>65</ele>
        <time>2019-09-22T08:11:21Z</time>
      </trkpt>
      <trkpt lat="47.37537" lon="-2.33664">
        <ele>65</ele>
        <time>2019-09-22T08:11:22Z</time>
      </trkpt>
      <trkpt lat="47.37544" lon="-2.33659">
        <ele>65</ele>
        <time>2019-09-22T08:11:23Z</time>
      </trkpt>
      <trkpt lat="47.3755" lon="-2.33653">
        <ele>64</ele>
        <time>2019-09-22T08:11:24Z</time>
      </trkpt>
      <trkpt lat="47.37557" lon="-2.33646">
        <ele>65</ele>
        <time>2019-09-22T08:11:25Z</time>
      </trkpt>
      <trkpt lat="47.37563" lon="-2.33641">
        <ele>65</ele>
        <time>2019-09-22T08:11:26Z</time>
      </trkpt>
      <trkpt lat="47.37586" lon="-2.33615">
        <ele>64</ele>
        <time>2019-09-22T08:11:30Z</time>
      </trkpt>
      <trkpt lat="47.37592" lon="-2.33608">
        <ele>64</ele>
        <time>2019-09-22T08:11:31Z</time>
      </trkpt>
      <trkpt lat="47.37603" lon="-2.33595">
        <ele>64</ele>
        <time>2019-09-22T08:11:33Z</time>
      </trkpt>
      <trkpt lat="47.37609" lon="-2.33589">
        <ele>64</ele>
        <time>2019-09-22T08:11:34Z</time>
      </trkpt>
      <trkpt lat="47.37634" lon="-2.33562">
        <ele>65</ele>
        <time>2019-09-22T08:11:38Z</time>
      </trkpt>
      <trkpt lat="47.3764" lon="-2.33557">
        <ele>65</ele>
        <time>2019-09-22T08:11:39Z</time>
      </trkpt>
      <trkpt lat="47.37656" lon="-2.33541">
        <ele>66</ele>
        <time>2019-09-22T08:11:42Z</time>
      </trkpt>
      <trkpt lat="47.37661" lon="-2.33534">
        <ele>68</ele>
        <time>2019-09-22T08:11:43Z</time>
      </trkpt>
      <trkpt lat="47.37666" lon="-2.33528">
        <ele>68</ele>
        <time>2019-09-22T08:11:44Z</time>
      </trkpt>
      <trkpt lat="47.3768" lon="-2.33513">
        <ele>67</ele>
        <time>2019-09-22T08:11:46Z</time>
      </trkpt>
      <trkpt lat="47.37685" lon="-2.33507">
        <ele>67</ele>
        <time>2019-09-22T08:11:47Z</time>
      </trkpt>
      <trkpt lat="47.37691" lon="-2.33502">
        <ele>67</ele>
        <time>2019-09-22T08:11:48Z</time>
      </trkpt>
      <trkpt lat="47.37708" lon="-2.33487">
        <ele>66</ele>
        <time>2019-09-22T08:11:51Z</time>
      </trkpt>
      <trkpt lat="47.37714" lon="-2.3348">
        <ele>66</ele>
        <time>2019-09-22T08:11:52Z</time>
      </trkpt>
      <trkpt lat="47.37729" lon="-2.33461">
        <ele>66</ele>
        <time>2019-09-22T08:11:55Z</time>
      </trkpt>
      <trkpt lat="47.37739" lon="-2.33448">
        <ele>66</ele>
        <time>2019-09-22T08:11:57Z</time>
      </trkpt>
      <trkpt lat="47.37744" lon="-2.33443">
        <ele>66</ele>
        <time>2019-09-22T08:11:58Z</time>
      </trkpt>
      <trkpt lat="47.37749" lon="-2.33438">
        <ele>66</ele>
        <time>2019-09-22T08:11:59Z</time>
      </trkpt>
      <trkpt lat="47.37755" lon="-2.33433">
        <ele>66</ele>
        <time>2019-09-22T08:12:00Z</time>
      </trkpt>
      <trkpt lat="47.37761" lon="-2.33427">
        <ele>66</ele>
        <time>2019-09-22T08:12:01Z</time>
      </trkpt>
      <trkpt lat="47.3777" lon="-2.33416">
        <ele>67</ele>
        <time>2019-09-22T08:12:03Z</time>
      </trkpt>
      <trkpt lat="47.37775" lon="-2.33409">
        <ele>67</ele>
        <time>2019-09-22T08:12:04Z</time>
      </trkpt>
      <trkpt lat="47.3778" lon="-2.33403">
        <ele>67</ele>
        <time>2019-09-22T08:12:05Z</time>
      </trkpt>
      <trkpt lat="47.37785" lon="-2.33398">
        <ele>67</ele>
        <time>2019-09-22T08:12:06Z</time>
      </trkpt>
      <trkpt lat="47.3779" lon="-2.33392">
        <ele>68</ele>
        <time>2019-09-22T08:12:07Z</time>
      </trkpt>
      <trkpt lat="47.37796" lon="-2.33386">
        <ele>67</ele>
        <time>2019-09-22T08:12:08Z</time>
      </trkpt>
      <trkpt lat="47.37802" lon="-2.3338">
        <ele>67</ele>
        <time>2019-09-22T08:12:09Z</time>
      </trkpt>
      <trkpt lat="47.37807" lon="-2.33375">
        <ele>67</ele>
        <time>2019-09-22T08:12:10Z</time>
      </trkpt>
      <trkpt lat="47.37813" lon="-2.33368">
        <ele>67</ele>
        <time>2019-09-22T08:12:11Z</time>
      </trkpt>
      <trkpt lat="47.37818" lon="-2.33363">
        <ele>67</ele>
        <time>2019-09-22T08:12:12Z</time>
      </trkpt>
      <trkpt lat="47.37823" lon="-2.33357">
        <ele>67</ele>
        <time>2019-09-22T08:12:13Z</time>
      </trkpt>
      <trkpt lat="47.37833" lon="-2.33348">
        <ele>67</ele>
        <time>2019-09-22T08:12:15Z</time>
      </trkpt>
      <trkpt lat="47.37838" lon="-2.33342">
        <ele>67</ele>
        <time>2019-09-22T08:12:16Z</time>
      </trkpt>
      <trkpt lat="47.37848" lon="-2.33332">
        <ele>67</ele>
        <time>2019-09-22T08:12:18Z</time>
      </trkpt>
      <trkpt lat="47.37855" lon="-2.33326">
        <ele>67</ele>
        <time>2019-09-22T08:12:19Z</time>
      </trkpt>
      <trkpt lat="47.37861" lon="-2.3332">
        <ele>68</ele>
        <time>2019-09-22T08:12:20Z</time>
      </trkpt>
      <trkpt lat="47.37867" lon="-2.33314">
        <ele>68</ele>
        <time>2019-09-22T08:12:21Z</time>
      </trkpt>
      <trkpt lat="47.37872" lon="-2.33308">
        <ele>68</ele>
        <time>2019-09-22T08:12:22Z</time>
      </trkpt>
      <trkpt lat="47.37878" lon="-2.33302">
        <ele>68</ele>
        <time>2019-09-22T08:12:23Z</time>
      </trkpt>
      <trkpt lat="47.37884" lon="-2.33295">
        <ele>68</ele>
        <time>2019-09-22T08:12:24Z</time>
      </trkpt>
      <trkpt lat="47.37889" lon="-2.33289">
        <ele>67</ele>
        <time>2019-09-22T08:12:25Z</time>
      </trkpt>
      <trkpt lat="47.37894" lon="-2.33282">
        <ele>67</ele>
        <time>2019-09-22T08:12:26Z</time>
      </trkpt>
      <trkpt lat="47.379" lon="-2.33276">
        <ele>67</ele>
        <time>2019-09-22T08:12:27Z</time>
      </trkpt>
      <trkpt lat="47.37905" lon="-2.3327">
        <ele>67</ele>
        <time>2019-09-22T08:12:28Z</time>
      </trkpt>
      <trkpt lat="47.37911" lon="-2.33264">
        <ele>67</ele>
        <time>2019-09-22T08:12:29Z</time>
      </trkpt>
      <trkpt lat="47.37916" lon="-2.33258">
        <ele>67</ele>
        <time>2019-09-22T08:12:30Z</time>
      </trkpt>
      <trkpt lat="47.37922" lon="-2.33252">
        <ele>67</ele>
        <time>2019-09-22T08:12:31Z</time>
      </trkpt>
      <trkpt lat="47.37943" lon="-2.33231">
        <ele>66</ele>
        <time>2019-09-22T08:12:35Z</time>
      </trkpt>
      <trkpt lat="47.37959" lon="-2.33215">
        <ele>67</ele>
        <time>2019-09-22T08:12:38Z</time>
      </trkpt>
      <trkpt lat="47.37964" lon="-2.33209">
        <ele>67</ele>
        <time>2019-09-22T08:12:39Z</time>
      </trkpt>
      <trkpt lat="47.37969" lon="-2.33204">
        <ele>67</ele>
        <time>2019-09-22T08:12:40Z</time>
      </trkpt>
      <trkpt lat="47.37974" lon="-2.33198">
        <ele>67</ele>
        <time>2019-09-22T08:12:41Z</time>
      </trkpt>
      <trkpt lat="47.37979" lon="-2.33193">
        <ele>67</ele>
        <time>2019-09-22T08:12:42Z</time>
      </trkpt>
      <trkpt lat="47.37984" lon="-2.33187">
        <ele>67</ele>
        <time>2019-09-22T08:12:43Z</time>
      </trkpt>
      <trkpt lat="47.37989" lon="-2.33181">
        <ele>67</ele>
        <time>2019-09-22T08:12:44Z</time>
      </trkpt>
      <trkpt lat="47.38" lon="-2.33169">
        <ele>67</ele>
        <time>2019-09-22T08:12:46Z</time>
      </trkpt>
      <trkpt lat="47.38005" lon="-2.33163">
        <ele>67</ele>
        <time>2019-09-22T08:12:47Z</time>
      </trkpt>
      <trkpt lat="47.3801" lon="-2.33158">
        <ele>67</ele>
        <time>2019-09-22T08:12:48Z</time>
      </trkpt>
      <trkpt lat="47.38015" lon="-2.33153">
        <ele>67</ele>
        <time>2019-09-22T08:12:49Z</time>
      </trkpt>
      <trkpt lat="47.38021" lon="-2.33147">
        <ele>67</ele>
        <time>2019-09-22T08:12:50Z</time>
      </trkpt>
      <trkpt lat="47.38026" lon="-2.33141">
        <ele>67</ele>
        <time>2019-09-22T08:12:51Z</time>
      </trkpt>
      <trkpt lat="47.38031" lon="-2.33135">
        <ele>67</ele>
        <time>2019-09-22T08:12:52Z</time>
      </trkpt>
      <trkpt lat="47.38036" lon="-2.33128">
        <ele>67</ele>
        <time>2019-09-22T08:12:53Z</time>
      </trkpt>
      <trkpt lat="47.38042" lon="-2.33122">
        <ele>67</ele>
        <time>2019-09-22T08:12:54Z</time>
      </trkpt>
      <trkpt lat="47.38047" lon="-2.33116">
        <ele>67</ele>
        <time>2019-09-22T08:12:55Z</time>
      </trkpt>
      <trkpt lat="47.38052" lon="-2.33111">
        <ele>67</ele>
        <time>2019-09-22T08:12:56Z</time>
      </trkpt>
      <trkpt lat="47.38062" lon="-2.331">
        <ele>67</ele>
        <time>2019-09-22T08:12:58Z</time>
      </trkpt>
      <trkpt lat="47.38067" lon="-2.33094">
        <ele>68</ele>
        <time>2019-09-22T08:12:59Z</time>
      </trkpt>
      <trkpt lat="47.38072" lon="-2.33088">
        <ele>68</ele>
        <time>2019-09-22T08:13:00Z</time>
      </trkpt>
      <trkpt lat="47.38077" lon="-2.33083">
        <ele>68</ele>
        <time>2019-09-22T08:13:01Z</time>
      </trkpt>
      <trkpt lat="47.38087" lon="-2.33074">
        <ele>68</ele>
        <time>2019-09-22T08:13:03Z</time>
      </trkpt>
      <trkpt lat="47.38092" lon="-2.33068">
        <ele>69</ele>
        <time>2019-09-22T08:13:04Z</time>
      </trkpt>
      <trkpt lat="47.38097" lon="-2.33063">
        <ele>69</ele>
        <time>2019-09-22T08:13:05Z</time>
      </trkpt>
      <trkpt lat="47.38102" lon="-2.33057">
        <ele>69</ele>
        <time>2019-09-22T08:13:06Z</time>
      </trkpt>
      <trkpt lat="47.38106" lon="-2.33052">
        <ele>69</ele>
        <time>2019-09-22T08:13:07Z</time>
      </trkpt>
      <trkpt lat="47.38112" lon="-2.33046">
        <ele>69</ele>
        <time>2019-09-22T08:13:08Z</time>
      </trkpt>
      <trkpt lat="47.38121" lon="-2.33036">
        <ele>69</ele>
        <time>2019-09-22T08:13:10Z</time>
      </trkpt>
      <trkpt lat="47.38126" lon="-2.33032">
        <ele>69</ele>
        <time>2019-09-22T08:13:11Z</time>
      </trkpt>
      <trkpt lat="47.38132" lon="-2.33026">
        <ele>70</ele>
        <time>2019-09-22T08:13:12Z</time>
      </trkpt>
      <trkpt lat="47.38137" lon="-2.33021">
        <ele>70</ele>
        <time>2019-09-22T08:13:13Z</time>
      </trkpt>
      <trkpt lat="47.38152" lon="-2.33003">
        <ele>70</ele>
        <time>2019-09-22T08:13:16Z</time>
      </trkpt>
      <trkpt lat="47.38157" lon="-2.32997">
        <ele>70</ele>
        <time>2019-09-22T08:13:17Z</time>
      </trkpt>
      <trkpt lat="47.38174" lon="-2.32982">
        <ele>71</ele>
        <time>2019-09-22T08:13:20Z</time>
      </trkpt>
      <trkpt lat="47.3818" lon="-2.32978">
        <ele>71</ele>
        <time>2019-09-22T08:13:21Z</time>
      </trkpt>
      <trkpt lat="47.38192" lon="-2.32969">
        <ele>71</ele>
        <time>2019-09-22T08:13:23Z</time>
      </trkpt>
      <trkpt lat="47.38204" lon="-2.32956">
        <ele>71</ele>
        <time>2019-09-22T08:13:26Z</time>
      </trkpt>
      <trkpt lat="47.38209" lon="-2.32952">
        <ele>71</ele>
        <time>2019-09-22T08:13:27Z</time>
      </trkpt>
      <trkpt lat="47.38213" lon="-2.32949">
        <ele>71</ele>
        <time>2019-09-22T08:13:28Z</time>
      </trkpt>
      <trkpt lat="47.38217" lon="-2.32946">
        <ele>71</ele>
        <time>2019-09-22T08:13:29Z</time>
      </trkpt>
      <trkpt lat="47.38222" lon="-2.32941">
        <ele>71</ele>
        <time>2019-09-22T08:13:30Z</time>
      </trkpt>
      <trkpt lat="47.38227" lon="-2.32937">
        <ele>71</ele>
        <time>2019-09-22T08:13:31Z</time>
      </trkpt>
      <trkpt lat="47.38243" lon="-2.32924">
        <ele>71</ele>
        <time>2019-09-22T08:13:34Z</time>
      </trkpt>
      <trkpt lat="47.38247" lon="-2.32919">
        <ele>71</ele>
        <time>2019-09-22T08:13:35Z</time>
      </trkpt>
      <trkpt lat="47.38258" lon="-2.32909">
        <ele>71</ele>
        <time>2019-09-22T08:13:37Z</time>
      </trkpt>
      <trkpt lat="47.38263" lon="-2.32904">
        <ele>71</ele>
        <time>2019-09-22T08:13:38Z</time>
      </trkpt>
      <trkpt lat="47.38274" lon="-2.32894">
        <ele>71</ele>
        <time>2019-09-22T08:13:40Z</time>
      </trkpt>
      <trkpt lat="47.38286" lon="-2.32884">
        <ele>70</ele>
        <time>2019-09-22T08:13:42Z</time>
      </trkpt>
      <trkpt lat="47.38304" lon="-2.32865">
        <ele>69</ele>
        <time>2019-09-22T08:13:45Z</time>
      </trkpt>
      <trkpt lat="47.38316" lon="-2.32855">
        <ele>69</ele>
        <time>2019-09-22T08:13:47Z</time>
      </trkpt>
      <trkpt lat="47.38321" lon="-2.32849">
        <ele>69</ele>
        <time>2019-09-22T08:13:48Z</time>
      </trkpt>
      <trkpt lat="47.38328" lon="-2.32843">
        <ele>69</ele>
        <time>2019-09-22T08:13:49Z</time>
      </trkpt>
      <trkpt lat="47.38334" lon="-2.32837">
        <ele>69</ele>
        <time>2019-09-22T08:13:50Z</time>
      </trkpt>
      <trkpt lat="47.3834" lon="-2.32832">
        <ele>69</ele>
        <time>2019-09-22T08:13:51Z</time>
      </trkpt>
      <trkpt lat="47.38367" lon="-2.32807">
        <ele>69</ele>
        <time>2019-09-22T08:13:55Z</time>
      </trkpt>
      <trkpt lat="47.38375" lon="-2.328">
        <ele>68</ele>
        <time>2019-09-22T08:13:56Z</time>
      </trkpt>
      <trkpt lat="47.38382" lon="-2.32794">
        <ele>68</ele>
        <time>2019-09-22T08:13:57Z</time>
      </trkpt>
      <trkpt lat="47.38405" lon="-2.32774">
        <ele>68</ele>
        <time>2019-09-22T08:14:00Z</time>
      </trkpt>
      <trkpt lat="47.38413" lon="-2.32768">
        <ele>68</ele>
        <time>2019-09-22T08:14:01Z</time>
      </trkpt>
      <trkpt lat="47.38421" lon="-2.32761">
        <ele>68</ele>
        <time>2019-09-22T08:14:02Z</time>
      </trkpt>
      <trkpt lat="47.38429" lon="-2.32754">
        <ele>68</ele>
        <time>2019-09-22T08:14:03Z</time>
      </trkpt>
      <trkpt lat="47.38438" lon="-2.32747">
        <ele>68</ele>
        <time>2019-09-22T08:14:04Z</time>
      </trkpt>
      <trkpt lat="47.38446" lon="-2.32739">
        <ele>67</ele>
        <time>2019-09-22T08:14:05Z</time>
      </trkpt>
      <trkpt lat="47.38455" lon="-2.32731">
        <ele>66</ele>
        <time>2019-09-22T08:14:06Z</time>
      </trkpt>
      <trkpt lat="47.38463" lon="-2.32723">
        <ele>66</ele>
        <time>2019-09-22T08:14:07Z</time>
      </trkpt>
      <trkpt lat="47.38471" lon="-2.32716">
        <ele>65</ele>
        <time>2019-09-22T08:14:08Z</time>
      </trkpt>
      <trkpt lat="47.38478" lon="-2.32708">
        <ele>65</ele>
        <time>2019-09-22T08:14:09Z</time>
      </trkpt>
      <trkpt lat="47.38502" lon="-2.32686">
        <ele>63</ele>
        <time>2019-09-22T08:14:12Z</time>
      </trkpt>
      <trkpt lat="47.3851" lon="-2.32679">
        <ele>63</ele>
        <time>2019-09-22T08:14:13Z</time>
      </trkpt>
      <trkpt lat="47.38526" lon="-2.32664">
        <ele>62</ele>
        <time>2019-09-22T08:14:15Z</time>
      </trkpt>
      <trkpt lat="47.38534" lon="-2.32656">
        <ele>62</ele>
        <time>2019-09-22T08:14:16Z</time>
      </trkpt>
      <trkpt lat="47.38542" lon="-2.32649">
        <ele>62</ele>
        <time>2019-09-22T08:14:17Z</time>
      </trkpt>
      <trkpt lat="47.3855" lon="-2.32641">
        <ele>62</ele>
        <time>2019-09-22T08:14:18Z</time>
      </trkpt>
      <trkpt lat="47.38558" lon="-2.32633">
        <ele>61</ele>
        <time>2019-09-22T08:14:19Z</time>
      </trkpt>
      <trkpt lat="47.38567" lon="-2.32625">
        <ele>60</ele>
        <time>2019-09-22T08:14:20Z</time>
      </trkpt>
      <trkpt lat="47.38575" lon="-2.32617">
        <ele>59</ele>
        <time>2019-09-22T08:14:21Z</time>
      </trkpt>
      <trkpt lat="47.38583" lon="-2.32609">
        <ele>59</ele>
        <time>2019-09-22T08:14:22Z</time>
      </trkpt>
      <trkpt lat="47.38615" lon="-2.32579">
        <ele>58</ele>
        <time>2019-09-22T08:14:26Z</time>
      </trkpt>
      <trkpt lat="47.38623" lon="-2.32572">
        <ele>57</ele>
        <time>2019-09-22T08:14:27Z</time>
      </trkpt>
      <trkpt lat="47.38631" lon="-2.32564">
        <ele>57</ele>
        <time>2019-09-22T08:14:28Z</time>
      </trkpt>
      <trkpt lat="47.38639" lon="-2.32557">
        <ele>57</ele>
        <time>2019-09-22T08:14:29Z</time>
      </trkpt>
      <trkpt lat="47.38646" lon="-2.3255">
        <ele>57</ele>
        <time>2019-09-22T08:14:30Z</time>
      </trkpt>
      <trkpt lat="47.38661" lon="-2.32536">
        <ele>57</ele>
        <time>2019-09-22T08:14:32Z</time>
      </trkpt>
      <trkpt lat="47.38677" lon="-2.32523">
        <ele>58</ele>
        <time>2019-09-22T08:14:34Z</time>
      </trkpt>
      <trkpt lat="47.38683" lon="-2.32516">
        <ele>58</ele>
        <time>2019-09-22T08:14:35Z</time>
      </trkpt>
      <trkpt lat="47.38689" lon="-2.32509">
        <ele>58</ele>
        <time>2019-09-22T08:14:36Z</time>
      </trkpt>
      <trkpt lat="47.38694" lon="-2.32503">
        <ele>58</ele>
        <time>2019-09-22T08:14:37Z</time>
      </trkpt>
      <trkpt lat="47.38699" lon="-2.32499">
        <ele>57</ele>
        <time>2019-09-22T08:14:38Z</time>
      </trkpt>
      <trkpt lat="47.38713" lon="-2.32492">
        <ele>58</ele>
        <time>2019-09-22T08:14:41Z</time>
      </trkpt>
      <trkpt lat="47.38724" lon="-2.32494">
        <ele>58</ele>
        <time>2019-09-22T08:14:43Z</time>
      </trkpt>
      <trkpt lat="47.3873" lon="-2.32498">
        <ele>58</ele>
        <time>2019-09-22T08:14:45Z</time>
      </trkpt>
      <trkpt lat="47.38733" lon="-2.325">
        <ele>57</ele>
        <time>2019-09-22T08:14:47Z</time>
      </trkpt>
      <trkpt lat="47.38739" lon="-2.32496">
        <ele>58</ele>
        <time>2019-09-22T08:14:50Z</time>
      </trkpt>
      <trkpt lat="47.38744" lon="-2.3249">
        <ele>58</ele>
        <time>2019-09-22T08:14:52Z</time>
      </trkpt>
      <trkpt lat="47.38749" lon="-2.32482">
        <ele>57</ele>
        <time>2019-09-22T08:14:54Z</time>
      </trkpt>
      <trkpt lat="47.38752" lon="-2.32478">
        <ele>57</ele>
        <time>2019-09-22T08:14:55Z</time>
      </trkpt>
      <trkpt lat="47.3876" lon="-2.32468">
        <ele>57</ele>
        <time>2019-09-22T08:14:57Z</time>
      </trkpt>
      <trkpt lat="47.38764" lon="-2.32462">
        <ele>57</ele>
        <time>2019-09-22T08:14:58Z</time>
      </trkpt>
      <trkpt lat="47.38768" lon="-2.32457">
        <ele>57</ele>
        <time>2019-09-22T08:14:59Z</time>
      </trkpt>
      <trkpt lat="47.38774" lon="-2.32447">
        <ele>57</ele>
        <time>2019-09-22T08:15:01Z</time>
      </trkpt>
      <trkpt lat="47.38777" lon="-2.32441">
        <ele>57</ele>
        <time>2019-09-22T08:15:02Z</time>
      </trkpt>
      <trkpt lat="47.38781" lon="-2.32436">
        <ele>58</ele>
        <time>2019-09-22T08:15:03Z</time>
      </trkpt>
      <trkpt lat="47.38785" lon="-2.32431">
        <ele>58</ele>
        <time>2019-09-22T08:15:04Z</time>
      </trkpt>
      <trkpt lat="47.38793" lon="-2.3242">
        <ele>58</ele>
        <time>2019-09-22T08:15:06Z</time>
      </trkpt>
      <trkpt lat="47.38799" lon="-2.32413">
        <ele>57</ele>
        <time>2019-09-22T08:15:07Z</time>
      </trkpt>
      <trkpt lat="47.38804" lon="-2.32405">
        <ele>57</ele>
        <time>2019-09-22T08:15:08Z</time>
      </trkpt>
      <trkpt lat="47.38809" lon="-2.32397">
        <ele>57</ele>
        <time>2019-09-22T08:15:09Z</time>
      </trkpt>
      <trkpt lat="47.38814" lon="-2.32389">
        <ele>57</ele>
        <time>2019-09-22T08:15:10Z</time>
      </trkpt>
      <trkpt lat="47.38819" lon="-2.3238">
        <ele>57</ele>
        <time>2019-09-22T08:15:11Z</time>
      </trkpt>
      <trkpt lat="47.38824" lon="-2.32373">
        <ele>57</ele>
        <time>2019-09-22T08:15:12Z</time>
      </trkpt>
      <trkpt lat="47.3883" lon="-2.32365">
        <ele>56</ele>
        <time>2019-09-22T08:15:13Z</time>
      </trkpt>
      <trkpt lat="47.38834" lon="-2.32357">
        <ele>56</ele>
        <time>2019-09-22T08:15:14Z</time>
      </trkpt>
      <trkpt lat="47.38839" lon="-2.3235">
        <ele>56</ele>
        <time>2019-09-22T08:15:15Z</time>
      </trkpt>
      <trkpt lat="47.38843" lon="-2.32342">
        <ele>56</ele>
        <time>2019-09-22T08:15:16Z</time>
      </trkpt>
      <trkpt lat="47.38848" lon="-2.32334">
        <ele>56</ele>
        <time>2019-09-22T08:15:17Z</time>
      </trkpt>
      <trkpt lat="47.38852" lon="-2.32326">
        <ele>56</ele>
        <time>2019-09-22T08:15:18Z</time>
      </trkpt>
      <trkpt lat="47.38857" lon="-2.3232">
        <ele>55</ele>
        <time>2019-09-22T08:15:19Z</time>
      </trkpt>
      <trkpt lat="47.38861" lon="-2.32313">
        <ele>55</ele>
        <time>2019-09-22T08:15:20Z</time>
      </trkpt>
      <trkpt lat="47.3887" lon="-2.32298">
        <ele>55</ele>
        <time>2019-09-22T08:15:22Z</time>
      </trkpt>
      <trkpt lat="47.38874" lon="-2.32291">
        <ele>54</ele>
        <time>2019-09-22T08:15:23Z</time>
      </trkpt>
      <trkpt lat="47.38879" lon="-2.32285">
        <ele>54</ele>
        <time>2019-09-22T08:15:24Z</time>
      </trkpt>
      <trkpt lat="47.38883" lon="-2.32278">
        <ele>55</ele>
        <time>2019-09-22T08:15:25Z</time>
      </trkpt>
      <trkpt lat="47.38891" lon="-2.32265">
        <ele>55</ele>
        <time>2019-09-22T08:15:27Z</time>
      </trkpt>
      <trkpt lat="47.38895" lon="-2.32257">
        <ele>54</ele>
        <time>2019-09-22T08:15:28Z</time>
      </trkpt>
      <trkpt lat="47.38899" lon="-2.32251">
        <ele>54</ele>
        <time>2019-09-22T08:15:29Z</time>
      </trkpt>
      <trkpt lat="47.38903" lon="-2.32244">
        <ele>54</ele>
        <time>2019-09-22T08:15:30Z</time>
      </trkpt>
      <trkpt lat="47.38907" lon="-2.32237">
        <ele>54</ele>
        <time>2019-09-22T08:15:31Z</time>
      </trkpt>
      <trkpt lat="47.38915" lon="-2.32224">
        <ele>54</ele>
        <time>2019-09-22T08:15:33Z</time>
      </trkpt>
      <trkpt lat="47.38918" lon="-2.32217">
        <ele>54</ele>
        <time>2019-09-22T08:15:34Z</time>
      </trkpt>
      <trkpt lat="47.38925" lon="-2.32204">
        <ele>54</ele>
        <time>2019-09-22T08:15:36Z</time>
      </trkpt>
      <trkpt lat="47.38933" lon="-2.3219">
        <ele>55</ele>
        <time>2019-09-22T08:15:38Z</time>
      </trkpt>
      <trkpt lat="47.38948" lon="-2.32165">
        <ele>56</ele>
        <time>2019-09-22T08:15:42Z</time>
      </trkpt>
      <trkpt lat="47.38955" lon="-2.32155">
        <ele>56</ele>
        <time>2019-09-22T08:15:44Z</time>
      </trkpt>
      <trkpt lat="47.38958" lon="-2.3215">
        <ele>57</ele>
        <time>2019-09-22T08:15:45Z</time>
      </trkpt>
      <trkpt lat="47.38971" lon="-2.3213">
        <ele>58</ele>
        <time>2019-09-22T08:15:48Z</time>
      </trkpt>
      <trkpt lat="47.38975" lon="-2.32123">
        <ele>58</ele>
        <time>2019-09-22T08:15:49Z</time>
      </trkpt>
      <trkpt lat="47.38979" lon="-2.32115">
        <ele>58</ele>
        <time>2019-09-22T08:15:50Z</time>
      </trkpt>
      <trkpt lat="47.3899" lon="-2.32095">
        <ele>59</ele>
        <time>2019-09-22T08:15:53Z</time>
      </trkpt>
      <trkpt lat="47.38997" lon="-2.32083">
        <ele>59</ele>
        <time>2019-09-22T08:15:55Z</time>
      </trkpt>
      <trkpt lat="47.39" lon="-2.32077">
        <ele>59</ele>
        <time>2019-09-22T08:15:56Z</time>
      </trkpt>
      <trkpt lat="47.39003" lon="-2.32071">
        <ele>59</ele>
        <time>2019-09-22T08:15:57Z</time>
      </trkpt>
      <trkpt lat="47.3901" lon="-2.32059">
        <ele>59</ele>
        <time>2019-09-22T08:15:59Z</time>
      </trkpt>
      <trkpt lat="47.39013" lon="-2.32051">
        <ele>60</ele>
        <time>2019-09-22T08:16:00Z</time>
      </trkpt>
      <trkpt lat="47.39017" lon="-2.32044">
        <ele>60</ele>
        <time>2019-09-22T08:16:01Z</time>
      </trkpt>
      <trkpt lat="47.39021" lon="-2.32037">
        <ele>60</ele>
        <time>2019-09-22T08:16:02Z</time>
      </trkpt>
      <trkpt lat="47.39025" lon="-2.3203">
        <ele>60</ele>
        <time>2019-09-22T08:16:03Z</time>
      </trkpt>
      <trkpt lat="47.39029" lon="-2.32023">
        <ele>60</ele>
        <time>2019-09-22T08:16:04Z</time>
      </trkpt>
      <trkpt lat="47.39032" lon="-2.32015">
        <ele>60</ele>
        <time>2019-09-22T08:16:05Z</time>
      </trkpt>
      <trkpt lat="47.39036" lon="-2.32008">
        <ele>61</ele>
        <time>2019-09-22T08:16:06Z</time>
      </trkpt>
      <trkpt lat="47.39047" lon="-2.31987">
        <ele>61</ele>
        <time>2019-09-22T08:16:09Z</time>
      </trkpt>
      <trkpt lat="47.3905" lon="-2.3198">
        <ele>61</ele>
        <time>2019-09-22T08:16:10Z</time>
      </trkpt>
      <trkpt lat="47.39054" lon="-2.31973">
        <ele>61</ele>
        <time>2019-09-22T08:16:11Z</time>
      </trkpt>
      <trkpt lat="47.39058" lon="-2.31966">
        <ele>61</ele>
        <time>2019-09-22T08:16:12Z</time>
      </trkpt>
      <trkpt lat="47.39062" lon="-2.31959">
        <ele>61</ele>
        <time>2019-09-22T08:16:13Z</time>
      </trkpt>
      <trkpt lat="47.39065" lon="-2.31952">
        <ele>61</ele>
        <time>2019-09-22T08:16:14Z</time>
      </trkpt>
      <trkpt lat="47.39069" lon="-2.31945">
        <ele>61</ele>
        <time>2019-09-22T08:16:15Z</time>
      </trkpt>
      <trkpt lat="47.39073" lon="-2.31937">
        <ele>61</ele>
        <time>2019-09-22T08:16:16Z</time>
      </trkpt>
      <trkpt lat="47.39081" lon="-2.31924">
        <ele>61</ele>
        <time>2019-09-22T08:16:18Z</time>
      </trkpt>
      <trkpt lat="47.39085" lon="-2.31917">
        <ele>61</ele>
        <time>2019-09-22T08:16:19Z</time>
      </trkpt>
      <trkpt lat="47.39089" lon="-2.31908">
        <ele>61</ele>
        <time>2019-09-22T08:16:20Z</time>
      </trkpt>
      <trkpt lat="47.39093" lon="-2.319">
        <ele>61</ele>
        <time>2019-09-22T08:16:21Z</time>
      </trkpt>
      <trkpt lat="47.39097" lon="-2.31892">
        <ele>61</ele>
        <time>2019-09-22T08:16:22Z</time>
      </trkpt>
      <trkpt lat="47.39101" lon="-2.31884">
        <ele>60</ele>
        <time>2019-09-22T08:16:23Z</time>
      </trkpt>
      <trkpt lat="47.39105" lon="-2.31876">
        <ele>61</ele>
        <time>2019-09-22T08:16:24Z</time>
      </trkpt>
      <trkpt lat="47.39117" lon="-2.31852">
        <ele>61</ele>
        <time>2019-09-22T08:16:27Z</time>
      </trkpt>
      <trkpt lat="47.39121" lon="-2.31845">
        <ele>61</ele>
        <time>2019-09-22T08:16:28Z</time>
      </trkpt>
      <trkpt lat="47.39124" lon="-2.31838">
        <ele>60</ele>
        <time>2019-09-22T08:16:29Z</time>
      </trkpt>
      <trkpt lat="47.39128" lon="-2.31831">
        <ele>61</ele>
        <time>2019-09-22T08:16:30Z</time>
      </trkpt>
      <trkpt lat="47.39137" lon="-2.31815">
        <ele>61</ele>
        <time>2019-09-22T08:16:32Z</time>
      </trkpt>
      <trkpt lat="47.39141" lon="-2.31808">
        <ele>61</ele>
        <time>2019-09-22T08:16:33Z</time>
      </trkpt>
      <trkpt lat="47.39146" lon="-2.31799">
        <ele>61</ele>
        <time>2019-09-22T08:16:34Z</time>
      </trkpt>
      <trkpt lat="47.3915" lon="-2.31792">
        <ele>61</ele>
        <time>2019-09-22T08:16:35Z</time>
      </trkpt>
      <trkpt lat="47.39158" lon="-2.31776">
        <ele>61</ele>
        <time>2019-09-22T08:16:37Z</time>
      </trkpt>
      <trkpt lat="47.39162" lon="-2.31767">
        <ele>60</ele>
        <time>2019-09-22T08:16:38Z</time>
      </trkpt>
      <trkpt lat="47.39167" lon="-2.31759">
        <ele>60</ele>
        <time>2019-09-22T08:16:39Z</time>
      </trkpt>
      <trkpt lat="47.39175" lon="-2.31742">
        <ele>61</ele>
        <time>2019-09-22T08:16:41Z</time>
      </trkpt>
      <trkpt lat="47.39188" lon="-2.31716">
        <ele>61</ele>
        <time>2019-09-22T08:16:44Z</time>
      </trkpt>
      <trkpt lat="47.39192" lon="-2.31707">
        <ele>61</ele>
        <time>2019-09-22T08:16:45Z</time>
      </trkpt>
      <trkpt lat="47.39197" lon="-2.31698">
        <ele>61</ele>
        <time>2019-09-22T08:16:46Z</time>
      </trkpt>
      <trkpt lat="47.39201" lon="-2.31689">
        <ele>61</ele>
        <time>2019-09-22T08:16:47Z</time>
      </trkpt>
      <trkpt lat="47.39205" lon="-2.3168">
        <ele>62</ele>
        <time>2019-09-22T08:16:48Z</time>
      </trkpt>
      <trkpt lat="47.3921" lon="-2.31671">
        <ele>61</ele>
        <time>2019-09-22T08:16:49Z</time>
      </trkpt>
      <trkpt lat="47.39215" lon="-2.31662">
        <ele>62</ele>
        <time>2019-09-22T08:16:50Z</time>
      </trkpt>
      <trkpt lat="47.39223" lon="-2.31645">
        <ele>61</ele>
        <time>2019-09-22T08:16:52Z</time>
      </trkpt>
      <trkpt lat="47.39226" lon="-2.31636">
        <ele>61</ele>
        <time>2019-09-22T08:16:53Z</time>
      </trkpt>
      <trkpt lat="47.39229" lon="-2.31627">
        <ele>61</ele>
        <time>2019-09-22T08:16:54Z</time>
      </trkpt>
      <trkpt lat="47.39233" lon="-2.31618">
        <ele>61</ele>
        <time>2019-09-22T08:16:55Z</time>
      </trkpt>
      <trkpt lat="47.39236" lon="-2.31608">
        <ele>61</ele>
        <time>2019-09-22T08:16:56Z</time>
      </trkpt>
      <trkpt lat="47.39239" lon="-2.31599">
        <ele>61</ele>
        <time>2019-09-22T08:16:57Z</time>
      </trkpt>
      <trkpt lat="47.39241" lon="-2.31591">
        <ele>61</ele>
        <time>2019-09-22T08:16:58Z</time>
      </trkpt>
      <trkpt lat="47.39243" lon="-2.31582">
        <ele>61</ele>
        <time>2019-09-22T08:16:59Z</time>
      </trkpt>
      <trkpt lat="47.39244" lon="-2.31573">
        <ele>61</ele>
        <time>2019-09-22T08:17:00Z</time>
      </trkpt>
      <trkpt lat="47.39245" lon="-2.31563">
        <ele>61</ele>
        <time>2019-09-22T08:17:01Z</time>
      </trkpt>
      <trkpt lat="47.39245" lon="-2.31553">
        <ele>61</ele>
        <time>2019-09-22T08:17:02Z</time>
      </trkpt>
      <trkpt lat="47.39246" lon="-2.31544">
        <ele>60</ele>
        <time>2019-09-22T08:17:03Z</time>
      </trkpt>
      <trkpt lat="47.39255" lon="-2.31532">
        <ele>60</ele>
        <time>2019-09-22T08:17:05Z</time>
      </trkpt>
      <trkpt lat="47.3926" lon="-2.31531">
        <ele>59</ele>
        <time>2019-09-22T08:17:06Z</time>
      </trkpt>
      <trkpt lat="47.39266" lon="-2.31531">
        <ele>59</ele>
        <time>2019-09-22T08:17:07Z</time>
      </trkpt>
      <trkpt lat="47.39271" lon="-2.31532">
        <ele>59</ele>
        <time>2019-09-22T08:17:08Z</time>
      </trkpt>
      <trkpt lat="47.39277" lon="-2.31532">
        <ele>59</ele>
        <time>2019-09-22T08:17:09Z</time>
      </trkpt>
      <trkpt lat="47.39282" lon="-2.3153">
        <ele>59</ele>
        <time>2019-09-22T08:17:10Z</time>
      </trkpt>
      <trkpt lat="47.39291" lon="-2.31521">
        <ele>59</ele>
        <time>2019-09-22T08:17:12Z</time>
      </trkpt>
      <trkpt lat="47.39295" lon="-2.31517">
        <ele>59</ele>
        <time>2019-09-22T08:17:13Z</time>
      </trkpt>
      <trkpt lat="47.39299" lon="-2.31512">
        <ele>59</ele>
        <time>2019-09-22T08:17:14Z</time>
      </trkpt>
      <trkpt lat="47.39303" lon="-2.31508">
        <ele>59</ele>
        <time>2019-09-22T08:17:15Z</time>
      </trkpt>
      <trkpt lat="47.39306" lon="-2.31503">
        <ele>59</ele>
        <time>2019-09-22T08:17:16Z</time>
      </trkpt>
      <trkpt lat="47.3931" lon="-2.31498">
        <ele>59</ele>
        <time>2019-09-22T08:17:17Z</time>
      </trkpt>
      <trkpt lat="47.39314" lon="-2.31492">
        <ele>59</ele>
        <time>2019-09-22T08:17:18Z</time>
      </trkpt>
      <trkpt lat="47.39317" lon="-2.31486">
        <ele>60</ele>
        <time>2019-09-22T08:17:19Z</time>
      </trkpt>
      <trkpt lat="47.39321" lon="-2.31481">
        <ele>60</ele>
        <time>2019-09-22T08:17:20Z</time>
      </trkpt>
      <trkpt lat="47.39326" lon="-2.31476">
        <ele>60</ele>
        <time>2019-09-22T08:17:21Z</time>
      </trkpt>
      <trkpt lat="47.3933" lon="-2.31471">
        <ele>60</ele>
        <time>2019-09-22T08:17:22Z</time>
      </trkpt>
      <trkpt lat="47.39334" lon="-2.31466">
        <ele>60</ele>
        <time>2019-09-22T08:17:23Z</time>
      </trkpt>
      <trkpt lat="47.39342" lon="-2.31453">
        <ele>61</ele>
        <time>2019-09-22T08:17:25Z</time>
      </trkpt>
      <trkpt lat="47.39347" lon="-2.31446">
        <ele>61</ele>
        <time>2019-09-22T08:17:26Z</time>
      </trkpt>
      <trkpt lat="47.39352" lon="-2.3144">
        <ele>61</ele>
        <time>2019-09-22T08:17:27Z</time>
      </trkpt>
      <trkpt lat="47.39361" lon="-2.31428">
        <ele>61</ele>
        <time>2019-09-22T08:17:29Z</time>
      </trkpt>
      <trkpt lat="47.39366" lon="-2.31422">
        <ele>61</ele>
        <time>2019-09-22T08:17:30Z</time>
      </trkpt>
      <trkpt lat="47.39374" lon="-2.3141">
        <ele>61</ele>
        <time>2019-09-22T08:17:32Z</time>
      </trkpt>
      <trkpt lat="47.39388" lon="-2.31392">
        <ele>61</ele>
        <time>2019-09-22T08:17:35Z</time>
      </trkpt>
      <trkpt lat="47.39393" lon="-2.31385">
        <ele>61</ele>
        <time>2019-09-22T08:17:36Z</time>
      </trkpt>
      <trkpt lat="47.39407" lon="-2.31366">
        <ele>61</ele>
        <time>2019-09-22T08:17:39Z</time>
      </trkpt>
      <trkpt lat="47.39411" lon="-2.31361">
        <ele>61</ele>
        <time>2019-09-22T08:17:40Z</time>
      </trkpt>
      <trkpt lat="47.39416" lon="-2.31355">
        <ele>61</ele>
        <time>2019-09-22T08:17:41Z</time>
      </trkpt>
      <trkpt lat="47.39421" lon="-2.3135">
        <ele>61</ele>
        <time>2019-09-22T08:17:42Z</time>
      </trkpt>
      <trkpt lat="47.39435" lon="-2.31334">
        <ele>61</ele>
        <time>2019-09-22T08:17:45Z</time>
      </trkpt>
      <trkpt lat="47.3944" lon="-2.31329">
        <ele>61</ele>
        <time>2019-09-22T08:17:46Z</time>
      </trkpt>
      <trkpt lat="47.39445" lon="-2.31324">
        <ele>62</ele>
        <time>2019-09-22T08:17:47Z</time>
      </trkpt>
      <trkpt lat="47.3945" lon="-2.31319">
        <ele>62</ele>
        <time>2019-09-22T08:17:48Z</time>
      </trkpt>
      <trkpt lat="47.39455" lon="-2.31314">
        <ele>62</ele>
        <time>2019-09-22T08:17:49Z</time>
      </trkpt>
      <trkpt lat="47.39459" lon="-2.31309">
        <ele>62</ele>
        <time>2019-09-22T08:17:50Z</time>
      </trkpt>
      <trkpt lat="47.39469" lon="-2.31299">
        <ele>62</ele>
        <time>2019-09-22T08:17:52Z</time>
      </trkpt>
      <trkpt lat="47.39474" lon="-2.31294">
        <ele>62</ele>
        <time>2019-09-22T08:17:53Z</time>
      </trkpt>
      <trkpt lat="47.39484" lon="-2.31284">
        <ele>62</ele>
        <time>2019-09-22T08:17:55Z</time>
      </trkpt>
      <trkpt lat="47.39489" lon="-2.31279">
        <ele>62</ele>
        <time>2019-09-22T08:17:56Z</time>
      </trkpt>
      <trkpt lat="47.39494" lon="-2.31274">
        <ele>62</ele>
        <time>2019-09-22T08:17:57Z</time>
      </trkpt>
      <trkpt lat="47.39499" lon="-2.31269">
        <ele>62</ele>
        <time>2019-09-22T08:17:58Z</time>
      </trkpt>
      <trkpt lat="47.39504" lon="-2.31264">
        <ele>62</ele>
        <time>2019-09-22T08:17:59Z</time>
      </trkpt>
      <trkpt lat="47.39509" lon="-2.31259">
        <ele>63</ele>
        <time>2019-09-22T08:18:00Z</time>
      </trkpt>
      <trkpt lat="47.39519" lon="-2.31249">
        <ele>63</ele>
        <time>2019-09-22T08:18:02Z</time>
      </trkpt>
      <trkpt lat="47.39524" lon="-2.31243">
        <ele>63</ele>
        <time>2019-09-22T08:18:03Z</time>
      </trkpt>
      <trkpt lat="47.3953" lon="-2.31239">
        <ele>63</ele>
        <time>2019-09-22T08:18:04Z</time>
      </trkpt>
      <trkpt lat="47.39535" lon="-2.31233">
        <ele>63</ele>
        <time>2019-09-22T08:18:05Z</time>
      </trkpt>
      <trkpt lat="47.3954" lon="-2.31227">
        <ele>63</ele>
        <time>2019-09-22T08:18:06Z</time>
      </trkpt>
      <trkpt lat="47.3955" lon="-2.31216">
        <ele>63</ele>
        <time>2019-09-22T08:18:08Z</time>
      </trkpt>
      <trkpt lat="47.39555" lon="-2.3121">
        <ele>62</ele>
        <time>2019-09-22T08:18:09Z</time>
      </trkpt>
      <trkpt lat="47.3956" lon="-2.31204">
        <ele>62</ele>
        <time>2019-09-22T08:18:10Z</time>
      </trkpt>
      <trkpt lat="47.39564" lon="-2.31198">
        <ele>62</ele>
        <time>2019-09-22T08:18:11Z</time>
      </trkpt>
      <trkpt lat="47.39572" lon="-2.31185">
        <ele>62</ele>
        <time>2019-09-22T08:18:13Z</time>
      </trkpt>
      <trkpt lat="47.39576" lon="-2.31179">
        <ele>62</ele>
        <time>2019-09-22T08:18:14Z</time>
      </trkpt>
      <trkpt lat="47.39585" lon="-2.31166">
        <ele>62</ele>
        <time>2019-09-22T08:18:16Z</time>
      </trkpt>
      <trkpt lat="47.3959" lon="-2.3116">
        <ele>62</ele>
        <time>2019-09-22T08:18:17Z</time>
      </trkpt>
      <trkpt lat="47.39594" lon="-2.31153">
        <ele>62</ele>
        <time>2019-09-22T08:18:18Z</time>
      </trkpt>
      <trkpt lat="47.39598" lon="-2.31147">
        <ele>62</ele>
        <time>2019-09-22T08:18:19Z</time>
      </trkpt>
      <trkpt lat="47.39602" lon="-2.3114">
        <ele>62</ele>
        <time>2019-09-22T08:18:20Z</time>
      </trkpt>
      <trkpt lat="47.39606" lon="-2.31133">
        <ele>62</ele>
        <time>2019-09-22T08:18:21Z</time>
      </trkpt>
      <trkpt lat="47.3961" lon="-2.31127">
        <ele>62</ele>
        <time>2019-09-22T08:18:22Z</time>
      </trkpt>
      <trkpt lat="47.39614" lon="-2.3112">
        <ele>62</ele>
        <time>2019-09-22T08:18:23Z</time>
      </trkpt>
      <trkpt lat="47.39618" lon="-2.31114">
        <ele>62</ele>
        <time>2019-09-22T08:18:24Z</time>
      </trkpt>
      <trkpt lat="47.39622" lon="-2.31107">
        <ele>62</ele>
        <time>2019-09-22T08:18:25Z</time>
      </trkpt>
      <trkpt lat="47.39626" lon="-2.31101">
        <ele>62</ele>
        <time>2019-09-22T08:18:26Z</time>
      </trkpt>
      <trkpt lat="47.39634" lon="-2.31089">
        <ele>61</ele>
        <time>2019-09-22T08:18:28Z</time>
      </trkpt>
      <trkpt lat="47.39638" lon="-2.31082">
        <ele>61</ele>
        <time>2019-09-22T08:18:29Z</time>
      </trkpt>
      <trkpt lat="47.39642" lon="-2.31077">
        <ele>61</ele>
        <time>2019-09-22T08:18:30Z</time>
      </trkpt>
      <trkpt lat="47.39646" lon="-2.31071">
        <ele>61</ele>
        <time>2019-09-22T08:18:31Z</time>
      </trkpt>
      <trkpt lat="47.39654" lon="-2.31058">
        <ele>62</ele>
        <time>2019-09-22T08:18:33Z</time>
      </trkpt>
      <trkpt lat="47.39658" lon="-2.31051">
        <ele>61</ele>
        <time>2019-09-22T08:18:34Z</time>
      </trkpt>
      <trkpt lat="47.39673" lon="-2.31025">
        <ele>62</ele>
        <time>2019-09-22T08:18:38Z</time>
      </trkpt>
      <trkpt lat="47.39683" lon="-2.31011">
        <ele>61</ele>
        <time>2019-09-22T08:18:40Z</time>
      </trkpt>
      <trkpt lat="47.39687" lon="-2.31004">
        <ele>61</ele>
        <time>2019-09-22T08:18:41Z</time>
      </trkpt>
      <trkpt lat="47.39692" lon="-2.30997">
        <ele>61</ele>
        <time>2019-09-22T08:18:42Z</time>
      </trkpt>
      <trkpt lat="47.39696" lon="-2.30991">
        <ele>61</ele>
        <time>2019-09-22T08:18:43Z</time>
      </trkpt>
      <trkpt lat="47.397" lon="-2.30984">
        <ele>61</ele>
        <time>2019-09-22T08:18:44Z</time>
      </trkpt>
      <trkpt lat="47.39705" lon="-2.30977">
        <ele>61</ele>
        <time>2019-09-22T08:18:45Z</time>
      </trkpt>
      <trkpt lat="47.39708" lon="-2.30971">
        <ele>61</ele>
        <time>2019-09-22T08:18:46Z</time>
      </trkpt>
      <trkpt lat="47.39713" lon="-2.30965">
        <ele>61</ele>
        <time>2019-09-22T08:18:47Z</time>
      </trkpt>
      <trkpt lat="47.39717" lon="-2.30959">
        <ele>61</ele>
        <time>2019-09-22T08:18:48Z</time>
      </trkpt>
      <trkpt lat="47.39721" lon="-2.30953">
        <ele>61</ele>
        <time>2019-09-22T08:18:49Z</time>
      </trkpt>
      <trkpt lat="47.39725" lon="-2.30946">
        <ele>61</ele>
        <time>2019-09-22T08:18:50Z</time>
      </trkpt>
      <trkpt lat="47.39729" lon="-2.30938">
        <ele>61</ele>
        <time>2019-09-22T08:18:51Z</time>
      </trkpt>
      <trkpt lat="47.39732" lon="-2.30931">
        <ele>61</ele>
        <time>2019-09-22T08:18:52Z</time>
      </trkpt>
      <trkpt lat="47.39736" lon="-2.30924">
        <ele>60</ele>
        <time>2019-09-22T08:18:53Z</time>
      </trkpt>
      <trkpt lat="47.39739" lon="-2.30916">
        <ele>60</ele>
        <time>2019-09-22T08:18:54Z</time>
      </trkpt>
      <trkpt lat="47.39742" lon="-2.30909">
        <ele>60</ele>
        <time>2019-09-22T08:18:55Z</time>
      </trkpt>
      <trkpt lat="47.39748" lon="-2.30894">
        <ele>60</ele>
        <time>2019-09-22T08:18:57Z</time>
      </trkpt>
      <trkpt lat="47.39755" lon="-2.30878">
        <ele>59</ele>
        <time>2019-09-22T08:18:59Z</time>
      </trkpt>
      <trkpt lat="47.39759" lon="-2.3087">
        <ele>59</ele>
        <time>2019-09-22T08:19:00Z</time>
      </trkpt>
      <trkpt lat="47.39762" lon="-2.30862">
        <ele>59</ele>
        <time>2019-09-22T08:19:01Z</time>
      </trkpt>
      <trkpt lat="47.39766" lon="-2.30854">
        <ele>58</ele>
        <time>2019-09-22T08:19:02Z</time>
      </trkpt>
      <trkpt lat="47.39772" lon="-2.30838">
        <ele>58</ele>
        <time>2019-09-22T08:19:04Z</time>
      </trkpt>
      <trkpt lat="47.39776" lon="-2.3083">
        <ele>58</ele>
        <time>2019-09-22T08:19:05Z</time>
      </trkpt>
      <trkpt lat="47.39779" lon="-2.30822">
        <ele>58</ele>
        <time>2019-09-22T08:19:06Z</time>
      </trkpt>
      <trkpt lat="47.39782" lon="-2.30813">
        <ele>58</ele>
        <time>2019-09-22T08:19:07Z</time>
      </trkpt>
      <trkpt lat="47.39786" lon="-2.30805">
        <ele>59</ele>
        <time>2019-09-22T08:19:08Z</time>
      </trkpt>
      <trkpt lat="47.39791" lon="-2.30788">
        <ele>59</ele>
        <time>2019-09-22T08:19:10Z</time>
      </trkpt>
      <trkpt lat="47.39797" lon="-2.30751">
        <ele>60</ele>
        <time>2019-09-22T08:19:14Z</time>
      </trkpt>
      <trkpt lat="47.39797" lon="-2.30741">
        <ele>60</ele>
        <time>2019-09-22T08:19:15Z</time>
      </trkpt>
      <trkpt lat="47.39798" lon="-2.30732">
        <ele>60</ele>
        <time>2019-09-22T08:19:16Z</time>
      </trkpt>
      <trkpt lat="47.39799" lon="-2.30723">
        <ele>60</ele>
        <time>2019-09-22T08:19:17Z</time>
      </trkpt>
      <trkpt lat="47.398" lon="-2.30714">
        <ele>60</ele>
        <time>2019-09-22T08:19:18Z</time>
      </trkpt>
      <trkpt lat="47.39801" lon="-2.30705">
        <ele>59</ele>
        <time>2019-09-22T08:19:19Z</time>
      </trkpt>
      <trkpt lat="47.39801" lon="-2.30687">
        <ele>59</ele>
        <time>2019-09-22T08:19:21Z</time>
      </trkpt>
      <trkpt lat="47.39801" lon="-2.30678">
        <ele>59</ele>
        <time>2019-09-22T08:19:22Z</time>
      </trkpt>
      <trkpt lat="47.39801" lon="-2.30669">
        <ele>59</ele>
        <time>2019-09-22T08:19:23Z</time>
      </trkpt>
      <trkpt lat="47.39802" lon="-2.3066">
        <ele>59</ele>
        <time>2019-09-22T08:19:24Z</time>
      </trkpt>
      <trkpt lat="47.39802" lon="-2.30652">
        <ele>59</ele>
        <time>2019-09-22T08:19:25Z</time>
      </trkpt>
      <trkpt lat="47.39803" lon="-2.30644">
        <ele>59</ele>
        <time>2019-09-22T08:19:26Z</time>
      </trkpt>
      <trkpt lat="47.39803" lon="-2.30635">
        <ele>59</ele>
        <time>2019-09-22T08:19:27Z</time>
      </trkpt>
      <trkpt lat="47.39804" lon="-2.30618">
        <ele>59</ele>
        <time>2019-09-22T08:19:29Z</time>
      </trkpt>
      <trkpt lat="47.39805" lon="-2.3061">
        <ele>59</ele>
        <time>2019-09-22T08:19:30Z</time>
      </trkpt>
      <trkpt lat="47.39805" lon="-2.30602">
        <ele>59</ele>
        <time>2019-09-22T08:19:31Z</time>
      </trkpt>
      <trkpt lat="47.39805" lon="-2.30594">
        <ele>59</ele>
        <time>2019-09-22T08:19:32Z</time>
      </trkpt>
      <trkpt lat="47.39804" lon="-2.30586">
        <ele>59</ele>
        <time>2019-09-22T08:19:33Z</time>
      </trkpt>
      <trkpt lat="47.39804" lon="-2.30578">
        <ele>59</ele>
        <time>2019-09-22T08:19:34Z</time>
      </trkpt>
      <trkpt lat="47.39804" lon="-2.30571">
        <ele>59</ele>
        <time>2019-09-22T08:19:35Z</time>
      </trkpt>
      <trkpt lat="47.39804" lon="-2.30565">
        <ele>59</ele>
        <time>2019-09-22T08:19:36Z</time>
      </trkpt>
      <trkpt lat="47.39805" lon="-2.30553">
        <ele>59</ele>
        <time>2019-09-22T08:19:38Z</time>
      </trkpt>
      <trkpt lat="47.39813" lon="-2.30547">
        <ele>60</ele>
        <time>2019-09-22T08:19:41Z</time>
      </trkpt>
      <trkpt lat="47.39828" lon="-2.30561">
        <ele>61</ele>
        <time>2019-09-22T08:19:45Z</time>
      </trkpt>
      <trkpt lat="47.39837" lon="-2.30566">
        <ele>60</ele>
        <time>2019-09-22T08:19:47Z</time>
      </trkpt>
      <trkpt lat="47.39843" lon="-2.30568">
        <ele>60</ele>
        <time>2019-09-22T08:19:48Z</time>
      </trkpt>
      <trkpt lat="47.39849" lon="-2.3057">
        <ele>60</ele>
        <time>2019-09-22T08:19:49Z</time>
      </trkpt>
      <trkpt lat="47.39855" lon="-2.30573">
        <ele>60</ele>
        <time>2019-09-22T08:19:50Z</time>
      </trkpt>
      <trkpt lat="47.39861" lon="-2.30575">
        <ele>60</ele>
        <time>2019-09-22T08:19:51Z</time>
      </trkpt>
      <trkpt lat="47.39867" lon="-2.30576">
        <ele>60</ele>
        <time>2019-09-22T08:19:52Z</time>
      </trkpt>
      <trkpt lat="47.39873" lon="-2.30579">
        <ele>60</ele>
        <time>2019-09-22T08:19:53Z</time>
      </trkpt>
      <trkpt lat="47.39879" lon="-2.30579">
        <ele>60</ele>
        <time>2019-09-22T08:19:54Z</time>
      </trkpt>
      <trkpt lat="47.39885" lon="-2.30578">
        <ele>60</ele>
        <time>2019-09-22T08:19:55Z</time>
      </trkpt>
      <trkpt lat="47.39891" lon="-2.30578">
        <ele>60</ele>
        <time>2019-09-22T08:19:56Z</time>
      </trkpt>
      <trkpt lat="47.39897" lon="-2.30577">
        <ele>60</ele>
        <time>2019-09-22T08:19:57Z</time>
      </trkpt>
      <trkpt lat="47.39903" lon="-2.30575">
        <ele>60</ele>
        <time>2019-09-22T08:19:58Z</time>
      </trkpt>
      <trkpt lat="47.39909" lon="-2.30574">
        <ele>59</ele>
        <time>2019-09-22T08:19:59Z</time>
      </trkpt>
      <trkpt lat="47.39915" lon="-2.30571">
        <ele>59</ele>
        <time>2019-09-22T08:20:00Z</time>
      </trkpt>
      <trkpt lat="47.39921" lon="-2.30569">
        <ele>59</ele>
        <time>2019-09-22T08:20:01Z</time>
      </trkpt>
      <trkpt lat="47.39927" lon="-2.30566">
        <ele>59</ele>
        <time>2019-09-22T08:20:02Z</time>
      </trkpt>
      <trkpt lat="47.39933" lon="-2.30563">
        <ele>58</ele>
        <time>2019-09-22T08:20:03Z</time>
      </trkpt>
      <trkpt lat="47.3994" lon="-2.30561">
        <ele>58</ele>
        <time>2019-09-22T08:20:04Z</time>
      </trkpt>
      <trkpt lat="47.39957" lon="-2.30556">
        <ele>58</ele>
        <time>2019-09-22T08:20:07Z</time>
      </trkpt>
      <trkpt lat="47.39963" lon="-2.30555">
        <ele>59</ele>
        <time>2019-09-22T08:20:08Z</time>
      </trkpt>
      <trkpt lat="47.39969" lon="-2.30555">
        <ele>59</ele>
        <time>2019-09-22T08:20:09Z</time>
      </trkpt>
      <trkpt lat="47.39975" lon="-2.30555">
        <ele>59</ele>
        <time>2019-09-22T08:20:10Z</time>
      </trkpt>
      <trkpt lat="47.39986" lon="-2.30556">
        <ele>59</ele>
        <time>2019-09-22T08:20:12Z</time>
      </trkpt>
      <trkpt lat="47.39993" lon="-2.30557">
        <ele>59</ele>
        <time>2019-09-22T08:20:13Z</time>
      </trkpt>
      <trkpt lat="47.39999" lon="-2.30559">
        <ele>58</ele>
        <time>2019-09-22T08:20:14Z</time>
      </trkpt>
      <trkpt lat="47.40006" lon="-2.30561">
        <ele>59</ele>
        <time>2019-09-22T08:20:15Z</time>
      </trkpt>
      <trkpt lat="47.40025" lon="-2.30566">
        <ele>58</ele>
        <time>2019-09-22T08:20:18Z</time>
      </trkpt>
      <trkpt lat="47.40032" lon="-2.30568">
        <ele>58</ele>
        <time>2019-09-22T08:20:19Z</time>
      </trkpt>
      <trkpt lat="47.40044" lon="-2.30571">
        <ele>58</ele>
        <time>2019-09-22T08:20:21Z</time>
      </trkpt>
      <trkpt lat="47.40051" lon="-2.30573">
        <ele>58</ele>
        <time>2019-09-22T08:20:22Z</time>
      </trkpt>
      <trkpt lat="47.40065" lon="-2.30577">
        <ele>57</ele>
        <time>2019-09-22T08:20:24Z</time>
      </trkpt>
      <trkpt lat="47.40072" lon="-2.30579">
        <ele>57</ele>
        <time>2019-09-22T08:20:25Z</time>
      </trkpt>
      <trkpt lat="47.40086" lon="-2.30583">
        <ele>57</ele>
        <time>2019-09-22T08:20:27Z</time>
      </trkpt>
      <trkpt lat="47.40094" lon="-2.30585">
        <ele>57</ele>
        <time>2019-09-22T08:20:28Z</time>
      </trkpt>
      <trkpt lat="47.40101" lon="-2.30586">
        <ele>57</ele>
        <time>2019-09-22T08:20:29Z</time>
      </trkpt>
      <trkpt lat="47.40109" lon="-2.30586">
        <ele>57</ele>
        <time>2019-09-22T08:20:30Z</time>
      </trkpt>
      <trkpt lat="47.40117" lon="-2.30586">
        <ele>57</ele>
        <time>2019-09-22T08:20:31Z</time>
      </trkpt>
      <trkpt lat="47.40124" lon="-2.30585">
        <ele>57</ele>
        <time>2019-09-22T08:20:32Z</time>
      </trkpt>
      <trkpt lat="47.40132" lon="-2.30585">
        <ele>57</ele>
        <time>2019-09-22T08:20:33Z</time>
      </trkpt>
      <trkpt lat="47.4014" lon="-2.30584">
        <ele>57</ele>
        <time>2019-09-22T08:20:34Z</time>
      </trkpt>
      <trkpt lat="47.4017" lon="-2.30579">
        <ele>56</ele>
        <time>2019-09-22T08:20:38Z</time>
      </trkpt>
      <trkpt lat="47.40201" lon="-2.30575">
        <ele>56</ele>
        <time>2019-09-22T08:20:42Z</time>
      </trkpt>
      <trkpt lat="47.40208" lon="-2.30573">
        <ele>56</ele>
        <time>2019-09-22T08:20:43Z</time>
      </trkpt>
      <trkpt lat="47.40223" lon="-2.3057">
        <ele>56</ele>
        <time>2019-09-22T08:20:45Z</time>
      </trkpt>
      <trkpt lat="47.4023" lon="-2.30568">
        <ele>56</ele>
        <time>2019-09-22T08:20:46Z</time>
      </trkpt>
      <trkpt lat="47.40238" lon="-2.30564">
        <ele>55</ele>
        <time>2019-09-22T08:20:47Z</time>
      </trkpt>
      <trkpt lat="47.40245" lon="-2.30559">
        <ele>55</ele>
        <time>2019-09-22T08:20:48Z</time>
      </trkpt>
      <trkpt lat="47.40253" lon="-2.30555">
        <ele>55</ele>
        <time>2019-09-22T08:20:49Z</time>
      </trkpt>
      <trkpt lat="47.40259" lon="-2.30549">
        <ele>54</ele>
        <time>2019-09-22T08:20:50Z</time>
      </trkpt>
      <trkpt lat="47.40265" lon="-2.30543">
        <ele>54</ele>
        <time>2019-09-22T08:20:51Z</time>
      </trkpt>
      <trkpt lat="47.40271" lon="-2.30537">
        <ele>54</ele>
        <time>2019-09-22T08:20:52Z</time>
      </trkpt>
      <trkpt lat="47.40277" lon="-2.30531">
        <ele>54</ele>
        <time>2019-09-22T08:20:53Z</time>
      </trkpt>
      <trkpt lat="47.40295" lon="-2.30511">
        <ele>55</ele>
        <time>2019-09-22T08:20:56Z</time>
      </trkpt>
      <trkpt lat="47.40301" lon="-2.30505">
        <ele>55</ele>
        <time>2019-09-22T08:20:57Z</time>
      </trkpt>
      <trkpt lat="47.40308" lon="-2.30498">
        <ele>55</ele>
        <time>2019-09-22T08:20:58Z</time>
      </trkpt>
      <trkpt lat="47.40326" lon="-2.30479">
        <ele>54</ele>
        <time>2019-09-22T08:21:01Z</time>
      </trkpt>
      <trkpt lat="47.40333" lon="-2.30471">
        <ele>54</ele>
        <time>2019-09-22T08:21:02Z</time>
      </trkpt>
      <trkpt lat="47.40339" lon="-2.30465">
        <ele>54</ele>
        <time>2019-09-22T08:21:03Z</time>
      </trkpt>
      <trkpt lat="47.40345" lon="-2.30459">
        <ele>54</ele>
        <time>2019-09-22T08:21:04Z</time>
      </trkpt>
      <trkpt lat="47.40357" lon="-2.30446">
        <ele>54</ele>
        <time>2019-09-22T08:21:06Z</time>
      </trkpt>
      <trkpt lat="47.40363" lon="-2.3044">
        <ele>54</ele>
        <time>2019-09-22T08:21:07Z</time>
      </trkpt>
      <trkpt lat="47.40369" lon="-2.30433">
        <ele>54</ele>
        <time>2019-09-22T08:21:08Z</time>
      </trkpt>
      <trkpt lat="47.40393" lon="-2.30409">
        <ele>54</ele>
        <time>2019-09-22T08:21:12Z</time>
      </trkpt>
      <trkpt lat="47.40405" lon="-2.30397">
        <ele>54</ele>
        <time>2019-09-22T08:21:14Z</time>
      </trkpt>
      <trkpt lat="47.40411" lon="-2.30391">
        <ele>54</ele>
        <time>2019-09-22T08:21:15Z</time>
      </trkpt>
      <trkpt lat="47.40417" lon="-2.30385">
        <ele>54</ele>
        <time>2019-09-22T08:21:16Z</time>
      </trkpt>
      <trkpt lat="47.40422" lon="-2.3038">
        <ele>54</ele>
        <time>2019-09-22T08:21:17Z</time>
      </trkpt>
      <trkpt lat="47.40434" lon="-2.30368">
        <ele>54</ele>
        <time>2019-09-22T08:21:19Z</time>
      </trkpt>
      <trkpt lat="47.40439" lon="-2.30362">
        <ele>54</ele>
        <time>2019-09-22T08:21:20Z</time>
      </trkpt>
      <trkpt lat="47.40455" lon="-2.30349">
        <ele>54</ele>
        <time>2019-09-22T08:21:23Z</time>
      </trkpt>
      <trkpt lat="47.4046" lon="-2.30344">
        <ele>55</ele>
        <time>2019-09-22T08:21:24Z</time>
      </trkpt>
      <trkpt lat="47.40469" lon="-2.30333">
        <ele>55</ele>
        <time>2019-09-22T08:21:26Z</time>
      </trkpt>
      <trkpt lat="47.40474" lon="-2.30328">
        <ele>55</ele>
        <time>2019-09-22T08:21:27Z</time>
      </trkpt>
      <trkpt lat="47.40479" lon="-2.30323">
        <ele>55</ele>
        <time>2019-09-22T08:21:28Z</time>
      </trkpt>
      <trkpt lat="47.40484" lon="-2.30318">
        <ele>56</ele>
        <time>2019-09-22T08:21:29Z</time>
      </trkpt>
      <trkpt lat="47.40489" lon="-2.30314">
        <ele>56</ele>
        <time>2019-09-22T08:21:30Z</time>
      </trkpt>
      <trkpt lat="47.40493" lon="-2.30309">
        <ele>56</ele>
        <time>2019-09-22T08:21:31Z</time>
      </trkpt>
      <trkpt lat="47.40498" lon="-2.30304">
        <ele>56</ele>
        <time>2019-09-22T08:21:32Z</time>
      </trkpt>
      <trkpt lat="47.40503" lon="-2.303">
        <ele>56</ele>
        <time>2019-09-22T08:21:33Z</time>
      </trkpt>
      <trkpt lat="47.40508" lon="-2.30295">
        <ele>57</ele>
        <time>2019-09-22T08:21:34Z</time>
      </trkpt>
      <trkpt lat="47.40513" lon="-2.3029">
        <ele>58</ele>
        <time>2019-09-22T08:21:35Z</time>
      </trkpt>
      <trkpt lat="47.40524" lon="-2.30281">
        <ele>59</ele>
        <time>2019-09-22T08:21:37Z</time>
      </trkpt>
      <trkpt lat="47.40548" lon="-2.30259">
        <ele>58</ele>
        <time>2019-09-22T08:21:41Z</time>
      </trkpt>
      <trkpt lat="47.40559" lon="-2.30248">
        <ele>58</ele>
        <time>2019-09-22T08:21:43Z</time>
      </trkpt>
      <trkpt lat="47.40564" lon="-2.30245">
        <ele>58</ele>
        <time>2019-09-22T08:21:44Z</time>
      </trkpt>
      <trkpt lat="47.40569" lon="-2.3024">
        <ele>58</ele>
        <time>2019-09-22T08:21:45Z</time>
      </trkpt>
      <trkpt lat="47.4058" lon="-2.30231">
        <ele>59</ele>
        <time>2019-09-22T08:21:47Z</time>
      </trkpt>
      <trkpt lat="47.40585" lon="-2.30227">
        <ele>59</ele>
        <time>2019-09-22T08:21:48Z</time>
      </trkpt>
      <trkpt lat="47.40591" lon="-2.30222">
        <ele>59</ele>
        <time>2019-09-22T08:21:49Z</time>
      </trkpt>
      <trkpt lat="47.40596" lon="-2.30217">
        <ele>58</ele>
        <time>2019-09-22T08:21:50Z</time>
      </trkpt>
      <trkpt lat="47.40613" lon="-2.30205">
        <ele>58</ele>
        <time>2019-09-22T08:21:52Z</time>
      </trkpt>
      <trkpt lat="47.40618" lon="-2.30201">
        <ele>57</ele>
        <time>2019-09-22T08:21:54Z</time>
      </trkpt>
      <trkpt lat="47.40634" lon="-2.30189">
        <ele>58</ele>
        <time>2019-09-22T08:21:56Z</time>
      </trkpt>
      <trkpt lat="47.40641" lon="-2.30185">
        <ele>58</ele>
        <time>2019-09-22T08:21:57Z</time>
      </trkpt>
      <trkpt lat="47.40646" lon="-2.3018">
        <ele>57</ele>
        <time>2019-09-22T08:21:58Z</time>
      </trkpt>
      <trkpt lat="47.40651" lon="-2.30175">
        <ele>57</ele>
        <time>2019-09-22T08:22:00Z</time>
      </trkpt>
      <trkpt lat="47.40657" lon="-2.3017">
        <ele>57</ele>
        <time>2019-09-22T08:22:01Z</time>
      </trkpt>
      <trkpt lat="47.40662" lon="-2.30164">
        <ele>57</ele>
        <time>2019-09-22T08:22:02Z</time>
      </trkpt>
      <trkpt lat="47.40667" lon="-2.30159">
        <ele>57</ele>
        <time>2019-09-22T08:22:03Z</time>
      </trkpt>
      <trkpt lat="47.40671" lon="-2.30153">
        <ele>57</ele>
        <time>2019-09-22T08:22:04Z</time>
      </trkpt>
      <trkpt lat="47.40677" lon="-2.30149">
        <ele>57</ele>
        <time>2019-09-22T08:22:05Z</time>
      </trkpt>
      <trkpt lat="47.40682" lon="-2.30145">
        <ele>57</ele>
        <time>2019-09-22T08:22:06Z</time>
      </trkpt>
      <trkpt lat="47.40702" lon="-2.3013">
        <ele>57</ele>
        <time>2019-09-22T08:22:10Z</time>
      </trkpt>
      <trkpt lat="47.40707" lon="-2.30126">
        <ele>57</ele>
        <time>2019-09-22T08:22:11Z</time>
      </trkpt>
      <trkpt lat="47.40712" lon="-2.30123">
        <ele>57</ele>
        <time>2019-09-22T08:22:12Z</time>
      </trkpt>
      <trkpt lat="47.40723" lon="-2.30114">
        <ele>57</ele>
        <time>2019-09-22T08:22:14Z</time>
      </trkpt>
      <trkpt lat="47.40728" lon="-2.3011">
        <ele>57</ele>
        <time>2019-09-22T08:22:15Z</time>
      </trkpt>
      <trkpt lat="47.40733" lon="-2.30105">
        <ele>57</ele>
        <time>2019-09-22T08:22:16Z</time>
      </trkpt>
      <trkpt lat="47.40739" lon="-2.30101">
        <ele>57</ele>
        <time>2019-09-22T08:22:17Z</time>
      </trkpt>
      <trkpt lat="47.40745" lon="-2.30096">
        <ele>57</ele>
        <time>2019-09-22T08:22:18Z</time>
      </trkpt>
      <trkpt lat="47.40751" lon="-2.30092">
        <ele>57</ele>
        <time>2019-09-22T08:22:19Z</time>
      </trkpt>
      <trkpt lat="47.40756" lon="-2.30088">
        <ele>57</ele>
        <time>2019-09-22T08:22:20Z</time>
      </trkpt>
      <trkpt lat="47.40762" lon="-2.30083">
        <ele>57</ele>
        <time>2019-09-22T08:22:21Z</time>
      </trkpt>
      <trkpt lat="47.40768" lon="-2.30079">
        <ele>56</ele>
        <time>2019-09-22T08:22:22Z</time>
      </trkpt>
      <trkpt lat="47.40773" lon="-2.30075">
        <ele>56</ele>
        <time>2019-09-22T08:22:23Z</time>
      </trkpt>
      <trkpt lat="47.4078" lon="-2.30071">
        <ele>56</ele>
        <time>2019-09-22T08:22:24Z</time>
      </trkpt>
      <trkpt lat="47.40786" lon="-2.30067">
        <ele>56</ele>
        <time>2019-09-22T08:22:25Z</time>
      </trkpt>
      <trkpt lat="47.40791" lon="-2.30063">
        <ele>55</ele>
        <time>2019-09-22T08:22:26Z</time>
      </trkpt>
      <trkpt lat="47.40797" lon="-2.30058">
        <ele>55</ele>
        <time>2019-09-22T08:22:27Z</time>
      </trkpt>
      <trkpt lat="47.40802" lon="-2.30055">
        <ele>55</ele>
        <time>2019-09-22T08:22:28Z</time>
      </trkpt>
      <trkpt lat="47.40812" lon="-2.30048">
        <ele>54</ele>
        <time>2019-09-22T08:22:30Z</time>
      </trkpt>
      <trkpt lat="47.40818" lon="-2.30043">
        <ele>55</ele>
        <time>2019-09-22T08:22:31Z</time>
      </trkpt>
      <trkpt lat="47.40823" lon="-2.30039">
        <ele>55</ele>
        <time>2019-09-22T08:22:32Z</time>
      </trkpt>
      <trkpt lat="47.40829" lon="-2.30034">
        <ele>55</ele>
        <time>2019-09-22T08:22:33Z</time>
      </trkpt>
      <trkpt lat="47.40835" lon="-2.30028">
        <ele>55</ele>
        <time>2019-09-22T08:22:34Z</time>
      </trkpt>
      <trkpt lat="47.40845" lon="-2.30016">
        <ele>54</ele>
        <time>2019-09-22T08:22:36Z</time>
      </trkpt>
      <trkpt lat="47.4085" lon="-2.30009">
        <ele>54</ele>
        <time>2019-09-22T08:22:37Z</time>
      </trkpt>
      <trkpt lat="47.40855" lon="-2.30002">
        <ele>54</ele>
        <time>2019-09-22T08:22:38Z</time>
      </trkpt>
      <trkpt lat="47.40863" lon="-2.29987">
        <ele>54</ele>
        <time>2019-09-22T08:22:40Z</time>
      </trkpt>
      <trkpt lat="47.40868" lon="-2.2998">
        <ele>54</ele>
        <time>2019-09-22T08:22:41Z</time>
      </trkpt>
      <trkpt lat="47.40878" lon="-2.29948">
        <ele>53</ele>
        <time>2019-09-22T08:22:45Z</time>
      </trkpt>
      <trkpt lat="47.40876" lon="-2.2994">
        <ele>53</ele>
        <time>2019-09-22T08:22:46Z</time>
      </trkpt>
      <trkpt lat="47.40874" lon="-2.29932">
        <ele>53</ele>
        <time>2019-09-22T08:22:47Z</time>
      </trkpt>
      <trkpt lat="47.40871" lon="-2.29924">
        <ele>53</ele>
        <time>2019-09-22T08:22:48Z</time>
      </trkpt>
      <trkpt lat="47.40864" lon="-2.29901">
        <ele>52</ele>
        <time>2019-09-22T08:22:51Z</time>
      </trkpt>
      <trkpt lat="47.40863" lon="-2.29893">
        <ele>52</ele>
        <time>2019-09-22T08:22:52Z</time>
      </trkpt>
      <trkpt lat="47.40861" lon="-2.29885">
        <ele>51</ele>
        <time>2019-09-22T08:22:53Z</time>
      </trkpt>
      <trkpt lat="47.40857" lon="-2.29871">
        <ele>52</ele>
        <time>2019-09-22T08:22:55Z</time>
      </trkpt>
      <trkpt lat="47.40855" lon="-2.29863">
        <ele>52</ele>
        <time>2019-09-22T08:22:56Z</time>
      </trkpt>
      <trkpt lat="47.40852" lon="-2.29856">
        <ele>52</ele>
        <time>2019-09-22T08:22:57Z</time>
      </trkpt>
      <trkpt lat="47.40849" lon="-2.29849">
        <ele>52</ele>
        <time>2019-09-22T08:22:58Z</time>
      </trkpt>
      <trkpt lat="47.40846" lon="-2.29841">
        <ele>52</ele>
        <time>2019-09-22T08:22:59Z</time>
      </trkpt>
      <trkpt lat="47.40844" lon="-2.29834">
        <ele>52</ele>
        <time>2019-09-22T08:23:00Z</time>
      </trkpt>
      <trkpt lat="47.40841" lon="-2.29826">
        <ele>52</ele>
        <time>2019-09-22T08:23:01Z</time>
      </trkpt>
      <trkpt lat="47.40838" lon="-2.2982">
        <ele>52</ele>
        <time>2019-09-22T08:23:02Z</time>
      </trkpt>
      <trkpt lat="47.40835" lon="-2.29812">
        <ele>52</ele>
        <time>2019-09-22T08:23:03Z</time>
      </trkpt>
      <trkpt lat="47.40826" lon="-2.29781">
        <ele>52</ele>
        <time>2019-09-22T08:23:07Z</time>
      </trkpt>
      <trkpt lat="47.40825" lon="-2.29773">
        <ele>53</ele>
        <time>2019-09-22T08:23:08Z</time>
      </trkpt>
      <trkpt lat="47.40824" lon="-2.29765">
        <ele>52</ele>
        <time>2019-09-22T08:23:09Z</time>
      </trkpt>
      <trkpt lat="47.40822" lon="-2.29731">
        <ele>52</ele>
        <time>2019-09-22T08:23:13Z</time>
      </trkpt>
      <trkpt lat="47.40822" lon="-2.29723">
        <ele>52</ele>
        <time>2019-09-22T08:23:14Z</time>
      </trkpt>
      <trkpt lat="47.40821" lon="-2.29715">
        <ele>52</ele>
        <time>2019-09-22T08:23:15Z</time>
      </trkpt>
      <trkpt lat="47.40821" lon="-2.29706">
        <ele>52</ele>
        <time>2019-09-22T08:23:16Z</time>
      </trkpt>
      <trkpt lat="47.4082" lon="-2.29684">
        <ele>52</ele>
        <time>2019-09-22T08:23:19Z</time>
      </trkpt>
      <trkpt lat="47.40819" lon="-2.29676">
        <ele>52</ele>
        <time>2019-09-22T08:23:20Z</time>
      </trkpt>
      <trkpt lat="47.40818" lon="-2.29667">
        <ele>53</ele>
        <time>2019-09-22T08:23:21Z</time>
      </trkpt>
      <trkpt lat="47.40818" lon="-2.29658">
        <ele>53</ele>
        <time>2019-09-22T08:23:22Z</time>
      </trkpt>
      <trkpt lat="47.40817" lon="-2.2965">
        <ele>53</ele>
        <time>2019-09-22T08:23:23Z</time>
      </trkpt>
      <trkpt lat="47.40817" lon="-2.29642">
        <ele>52</ele>
        <time>2019-09-22T08:23:24Z</time>
      </trkpt>
      <trkpt lat="47.40816" lon="-2.29633">
        <ele>52</ele>
        <time>2019-09-22T08:23:25Z</time>
      </trkpt>
      <trkpt lat="47.40815" lon="-2.29626">
        <ele>52</ele>
        <time>2019-09-22T08:23:26Z</time>
      </trkpt>
      <trkpt lat="47.40813" lon="-2.29618">
        <ele>52</ele>
        <time>2019-09-22T08:23:27Z</time>
      </trkpt>
      <trkpt lat="47.40811" lon="-2.2961">
        <ele>52</ele>
        <time>2019-09-22T08:23:28Z</time>
      </trkpt>
      <trkpt lat="47.40809" lon="-2.29602">
        <ele>52</ele>
        <time>2019-09-22T08:23:29Z</time>
      </trkpt>
      <trkpt lat="47.40805" lon="-2.2958">
        <ele>52</ele>
        <time>2019-09-22T08:23:32Z</time>
      </trkpt>
      <trkpt lat="47.40804" lon="-2.29572">
        <ele>53</ele>
        <time>2019-09-22T08:23:33Z</time>
      </trkpt>
      <trkpt lat="47.40802" lon="-2.29564">
        <ele>53</ele>
        <time>2019-09-22T08:23:34Z</time>
      </trkpt>
      <trkpt lat="47.40799" lon="-2.29556">
        <ele>53</ele>
        <time>2019-09-22T08:23:35Z</time>
      </trkpt>
      <trkpt lat="47.40797" lon="-2.29547">
        <ele>53</ele>
        <time>2019-09-22T08:23:36Z</time>
      </trkpt>
      <trkpt lat="47.40794" lon="-2.2954">
        <ele>53</ele>
        <time>2019-09-22T08:23:37Z</time>
      </trkpt>
      <trkpt lat="47.40787" lon="-2.29512">
        <ele>53</ele>
        <time>2019-09-22T08:23:41Z</time>
      </trkpt>
      <trkpt lat="47.40785" lon="-2.29491">
        <ele>52</ele>
        <time>2019-09-22T08:23:44Z</time>
      </trkpt>
      <trkpt lat="47.40783" lon="-2.29483">
        <ele>53</ele>
        <time>2019-09-22T08:23:45Z</time>
      </trkpt>
      <trkpt lat="47.40782" lon="-2.29463">
        <ele>55</ele>
        <time>2019-09-22T08:23:48Z</time>
      </trkpt>
      <trkpt lat="47.40781" lon="-2.29455">
        <ele>55</ele>
        <time>2019-09-22T08:23:49Z</time>
      </trkpt>
      <trkpt lat="47.4078" lon="-2.29447">
        <ele>55</ele>
        <time>2019-09-22T08:23:50Z</time>
      </trkpt>
      <trkpt lat="47.40779" lon="-2.29439">
        <ele>55</ele>
        <time>2019-09-22T08:23:51Z</time>
      </trkpt>
      <trkpt lat="47.40778" lon="-2.29431">
        <ele>55</ele>
        <time>2019-09-22T08:23:52Z</time>
      </trkpt>
      <trkpt lat="47.40777" lon="-2.29424">
        <ele>55</ele>
        <time>2019-09-22T08:23:53Z</time>
      </trkpt>
      <trkpt lat="47.40777" lon="-2.29418">
        <ele>55</ele>
        <time>2019-09-22T08:23:54Z</time>
      </trkpt>
      <trkpt lat="47.40775" lon="-2.29407">
        <ele>55</ele>
        <time>2019-09-22T08:23:56Z</time>
      </trkpt>
      <trkpt lat="47.40775" lon="-2.29402">
        <ele>55</ele>
        <time>2019-09-22T08:23:57Z</time>
      </trkpt>
      <trkpt lat="47.40774" lon="-2.2939">
        <ele>56</ele>
        <time>2019-09-22T08:24:00Z</time>
      </trkpt>
      <trkpt lat="47.40774" lon="-2.29386">
        <ele>56</ele>
        <time>2019-09-22T08:24:01Z</time>
      </trkpt>
      <trkpt lat="47.40775" lon="-2.29378">
        <ele>56</ele>
        <time>2019-09-22T08:24:03Z</time>
      </trkpt>
      <trkpt lat="47.40775" lon="-2.29368">
        <ele>57</ele>
        <time>2019-09-22T08:24:05Z</time>
      </trkpt>
      <trkpt lat="47.40775" lon="-2.29359">
        <ele>57</ele>
        <time>2019-09-22T08:24:07Z</time>
      </trkpt>
      <trkpt lat="47.40775" lon="-2.29348">
        <ele>57</ele>
        <time>2019-09-22T08:24:10Z</time>
      </trkpt>
      <trkpt lat="47.4077" lon="-2.2934">
        <ele>57</ele>
        <time>2019-09-22T08:24:13Z</time>
      </trkpt>
      <trkpt lat="47.40767" lon="-2.29336">
        <ele>57</ele>
        <time>2019-09-22T08:24:15Z</time>
      </trkpt>
      <trkpt lat="47.4076" lon="-2.29333">
        <ele>58</ele>
        <time>2019-09-22T08:24:18Z</time>
      </trkpt>
      <trkpt lat="47.40752" lon="-2.29333">
        <ele>58</ele>
        <time>2019-09-22T08:24:20Z</time>
      </trkpt>
      <trkpt lat="47.40741" lon="-2.29336">
        <ele>57</ele>
        <time>2019-09-22T08:24:22Z</time>
      </trkpt>
      <trkpt lat="47.40736" lon="-2.29338">
        <ele>57</ele>
        <time>2019-09-22T08:24:23Z</time>
      </trkpt>
      <trkpt lat="47.40729" lon="-2.29341">
        <ele>57</ele>
        <time>2019-09-22T08:24:24Z</time>
      </trkpt>
      <trkpt lat="47.40722" lon="-2.29345">
        <ele>58</ele>
        <time>2019-09-22T08:24:25Z</time>
      </trkpt>
      <trkpt lat="47.40715" lon="-2.29346">
        <ele>57</ele>
        <time>2019-09-22T08:24:27Z</time>
      </trkpt>
      <trkpt lat="47.4071" lon="-2.29346">
        <ele>58</ele>
        <time>2019-09-22T08:24:29Z</time>
      </trkpt>
      <trkpt lat="47.40706" lon="-2.29345">
        <ele>58</ele>
        <time>2019-09-22T08:24:30Z</time>
      </trkpt>
      <trkpt lat="47.40701" lon="-2.29346">
        <ele>58</ele>
        <time>2019-09-22T08:24:32Z</time>
      </trkpt>
      <trkpt lat="47.40696" lon="-2.29346">
        <ele>59</ele>
        <time>2019-09-22T08:24:34Z</time>
      </trkpt>
      <trkpt lat="47.40693" lon="-2.29346">
        <ele>59</ele>
        <time>2019-09-22T08:24:36Z</time>
      </trkpt>
      <trkpt lat="47.40688" lon="-2.29349">
        <ele>59</ele>
        <time>2019-09-22T08:24:39Z</time>
      </trkpt>
      <trkpt lat="47.40681" lon="-2.29349">
        <ele>58</ele>
        <time>2019-09-22T08:24:42Z</time>
      </trkpt>
      <trkpt lat="47.40678" lon="-2.29349">
        <ele>58</ele>
        <time>2019-09-22T08:24:43Z</time>
      </trkpt>
      <trkpt lat="47.40672" lon="-2.2935">
        <ele>59</ele>
        <time>2019-09-22T08:24:45Z</time>
      </trkpt>
      <trkpt lat="47.40662" lon="-2.29352">
        <ele>60</ele>
        <time>2019-09-22T08:24:48Z</time>
      </trkpt>
      <trkpt lat="47.40655" lon="-2.29354">
        <ele>60</ele>
        <time>2019-09-22T08:24:50Z</time>
      </trkpt>
      <trkpt lat="47.40651" lon="-2.29355">
        <ele>60</ele>
        <time>2019-09-22T08:24:51Z</time>
      </trkpt>
      <trkpt lat="47.40639" lon="-2.29356">
        <ele>61</ele>
        <time>2019-09-22T08:24:54Z</time>
      </trkpt>
      <trkpt lat="47.40635" lon="-2.29357">
        <ele>61</ele>
        <time>2019-09-22T08:24:55Z</time>
      </trkpt>
      <trkpt lat="47.4063" lon="-2.29362">
        <ele>62</ele>
        <time>2019-09-22T08:24:58Z</time>
      </trkpt>
      <trkpt lat="47.40624" lon="-2.29366">
        <ele>63</ele>
        <time>2019-09-22T08:25:01Z</time>
      </trkpt>
      <trkpt lat="47.40622" lon="-2.29368">
        <ele>63</ele>
        <time>2019-09-22T08:25:02Z</time>
      </trkpt>
      <trkpt lat="47.40619" lon="-2.29371">
        <ele>63</ele>
        <time>2019-09-22T08:25:03Z</time>
      </trkpt>
      <trkpt lat="47.40608" lon="-2.29374">
        <ele>64</ele>
        <time>2019-09-22T08:25:06Z</time>
      </trkpt>
      <trkpt lat="47.40603" lon="-2.29373">
        <ele>64</ele>
        <time>2019-09-22T08:25:07Z</time>
      </trkpt>
      <trkpt lat="47.40594" lon="-2.29372">
        <ele>64</ele>
        <time>2019-09-22T08:25:09Z</time>
      </trkpt>
      <trkpt lat="47.40589" lon="-2.29372">
        <ele>64</ele>
        <time>2019-09-22T08:25:10Z</time>
      </trkpt>
      <trkpt lat="47.40584" lon="-2.29371">
        <ele>64</ele>
        <time>2019-09-22T08:25:11Z</time>
      </trkpt>
      <trkpt lat="47.40579" lon="-2.2937">
        <ele>64</ele>
        <time>2019-09-22T08:25:12Z</time>
      </trkpt>
      <trkpt lat="47.40574" lon="-2.29371">
        <ele>64</ele>
        <time>2019-09-22T08:25:13Z</time>
      </trkpt>
      <trkpt lat="47.40568" lon="-2.29372">
        <ele>64</ele>
        <time>2019-09-22T08:25:14Z</time>
      </trkpt>
      <trkpt lat="47.40562" lon="-2.29373">
        <ele>63</ele>
        <time>2019-09-22T08:25:15Z</time>
      </trkpt>
      <trkpt lat="47.40557" lon="-2.29375">
        <ele>63</ele>
        <time>2019-09-22T08:25:16Z</time>
      </trkpt>
      <trkpt lat="47.40552" lon="-2.29376">
        <ele>63</ele>
        <time>2019-09-22T08:25:17Z</time>
      </trkpt>
      <trkpt lat="47.4054" lon="-2.29379">
        <ele>64</ele>
        <time>2019-09-22T08:25:19Z</time>
      </trkpt>
      <trkpt lat="47.40534" lon="-2.29379">
        <ele>64</ele>
        <time>2019-09-22T08:25:20Z</time>
      </trkpt>
      <trkpt lat="47.40521" lon="-2.29377">
        <ele>63</ele>
        <time>2019-09-22T08:25:22Z</time>
      </trkpt>
      <trkpt lat="47.40515" lon="-2.29375">
        <ele>63</ele>
        <time>2019-09-22T08:25:23Z</time>
      </trkpt>
      <trkpt lat="47.40507" lon="-2.29372">
        <ele>63</ele>
        <time>2019-09-22T08:25:25Z</time>
      </trkpt>
      <trkpt lat="47.40499" lon="-2.29372">
        <ele>63</ele>
        <time>2019-09-22T08:25:27Z</time>
      </trkpt>
      <trkpt lat="47.40493" lon="-2.29371">
        <ele>63</ele>
        <time>2019-09-22T08:25:29Z</time>
      </trkpt>
      <trkpt lat="47.40475" lon="-2.29354">
        <ele>62</ele>
        <time>2019-09-22T08:25:33Z</time>
      </trkpt>
      <trkpt lat="47.4047" lon="-2.29348">
        <ele>62</ele>
        <time>2019-09-22T08:25:34Z</time>
      </trkpt>
      <trkpt lat="47.40465" lon="-2.29336">
        <ele>62</ele>
        <time>2019-09-22T08:25:36Z</time>
      </trkpt>
      <trkpt lat="47.40463" lon="-2.29329">
        <ele>62</ele>
        <time>2019-09-22T08:25:37Z</time>
      </trkpt>
      <trkpt lat="47.40456" lon="-2.29307">
        <ele>63</ele>
        <time>2019-09-22T08:25:40Z</time>
      </trkpt>
      <trkpt lat="47.40453" lon="-2.29299">
        <ele>64</ele>
        <time>2019-09-22T08:25:41Z</time>
      </trkpt>
      <trkpt lat="47.40447" lon="-2.29274">
        <ele>64</ele>
        <time>2019-09-22T08:25:44Z</time>
      </trkpt>
      <trkpt lat="47.40444" lon="-2.29264">
        <ele>64</ele>
        <time>2019-09-22T08:25:46Z</time>
      </trkpt>
      <trkpt lat="47.40438" lon="-2.29265">
        <ele>64</ele>
        <time>2019-09-22T08:25:48Z</time>
      </trkpt>
      <trkpt lat="47.40433" lon="-2.2927">
        <ele>63</ele>
        <time>2019-09-22T08:25:50Z</time>
      </trkpt>
      <trkpt lat="47.40424" lon="-2.2928">
        <ele>63</ele>
        <time>2019-09-22T08:25:52Z</time>
      </trkpt>
      <trkpt lat="47.40421" lon="-2.29288">
        <ele>62</ele>
        <time>2019-09-22T08:25:53Z</time>
      </trkpt>
      <trkpt lat="47.40419" lon="-2.29296">
        <ele>62</ele>
        <time>2019-09-22T08:25:54Z</time>
      </trkpt>
      <trkpt lat="47.40417" lon="-2.29304">
        <ele>61</ele>
        <time>2019-09-22T08:25:55Z</time>
      </trkpt>
      <trkpt lat="47.40415" lon="-2.29312">
        <ele>60</ele>
        <time>2019-09-22T08:25:56Z</time>
      </trkpt>
      <trkpt lat="47.40414" lon="-2.29319">
        <ele>60</ele>
        <time>2019-09-22T08:25:57Z</time>
      </trkpt>
      <trkpt lat="47.40409" lon="-2.29331">
        <ele>60</ele>
        <time>2019-09-22T08:25:59Z</time>
      </trkpt>
      <trkpt lat="47.40408" lon="-2.29339">
        <ele>60</ele>
        <time>2019-09-22T08:26:00Z</time>
      </trkpt>
      <trkpt lat="47.40407" lon="-2.29346">
        <ele>59</ele>
        <time>2019-09-22T08:26:01Z</time>
      </trkpt>
      <trkpt lat="47.40406" lon="-2.29355">
        <ele>59</ele>
        <time>2019-09-22T08:26:02Z</time>
      </trkpt>
      <trkpt lat="47.40406" lon="-2.29363">
        <ele>59</ele>
        <time>2019-09-22T08:26:03Z</time>
      </trkpt>
      <trkpt lat="47.40405" lon="-2.29372">
        <ele>58</ele>
        <time>2019-09-22T08:26:04Z</time>
      </trkpt>
      <trkpt lat="47.40404" lon="-2.29381">
        <ele>58</ele>
        <time>2019-09-22T08:26:05Z</time>
      </trkpt>
      <trkpt lat="47.40404" lon="-2.29389">
        <ele>58</ele>
        <time>2019-09-22T08:26:06Z</time>
      </trkpt>
      <trkpt lat="47.40403" lon="-2.29398">
        <ele>58</ele>
        <time>2019-09-22T08:26:07Z</time>
      </trkpt>
      <trkpt lat="47.40402" lon="-2.29406">
        <ele>57</ele>
        <time>2019-09-22T08:26:08Z</time>
      </trkpt>
      <trkpt lat="47.40401" lon="-2.29414">
        <ele>57</ele>
        <time>2019-09-22T08:26:09Z</time>
      </trkpt>
      <trkpt lat="47.404" lon="-2.29422">
        <ele>56</ele>
        <time>2019-09-22T08:26:10Z</time>
      </trkpt>
      <trkpt lat="47.40399" lon="-2.2943">
        <ele>56</ele>
        <time>2019-09-22T08:26:11Z</time>
      </trkpt>
      <trkpt lat="47.40399" lon="-2.29437">
        <ele>56</ele>
        <time>2019-09-22T08:26:12Z</time>
      </trkpt>
      <trkpt lat="47.40398" lon="-2.29445">
        <ele>55</ele>
        <time>2019-09-22T08:26:13Z</time>
      </trkpt>
      <trkpt lat="47.40391" lon="-2.29467">
        <ele>55</ele>
        <time>2019-09-22T08:26:16Z</time>
      </trkpt>
      <trkpt lat="47.40388" lon="-2.29474">
        <ele>54</ele>
        <time>2019-09-22T08:26:17Z</time>
      </trkpt>
      <trkpt lat="47.40387" lon="-2.29482">
        <ele>54</ele>
        <time>2019-09-22T08:26:18Z</time>
      </trkpt>
      <trkpt lat="47.40385" lon="-2.2949">
        <ele>54</ele>
        <time>2019-09-22T08:26:19Z</time>
      </trkpt>
      <trkpt lat="47.40384" lon="-2.29499">
        <ele>54</ele>
        <time>2019-09-22T08:26:20Z</time>
      </trkpt>
      <trkpt lat="47.40381" lon="-2.29523">
        <ele>53</ele>
        <time>2019-09-22T08:26:23Z</time>
      </trkpt>
      <trkpt lat="47.4038" lon="-2.29532">
        <ele>52</ele>
        <time>2019-09-22T08:26:24Z</time>
      </trkpt>
      <trkpt lat="47.40378" lon="-2.29539">
        <ele>52</ele>
        <time>2019-09-22T08:26:25Z</time>
      </trkpt>
      <trkpt lat="47.40376" lon="-2.29547">
        <ele>51</ele>
        <time>2019-09-22T08:26:26Z</time>
      </trkpt>
      <trkpt lat="47.40374" lon="-2.29554">
        <ele>51</ele>
        <time>2019-09-22T08:26:27Z</time>
      </trkpt>
      <trkpt lat="47.40367" lon="-2.29566">
        <ele>51</ele>
        <time>2019-09-22T08:26:29Z</time>
      </trkpt>
      <trkpt lat="47.40364" lon="-2.29572">
        <ele>51</ele>
        <time>2019-09-22T08:26:30Z</time>
      </trkpt>
      <trkpt lat="47.40361" lon="-2.29577">
        <ele>51</ele>
        <time>2019-09-22T08:26:31Z</time>
      </trkpt>
      <trkpt lat="47.40354" lon="-2.29585">
        <ele>52</ele>
        <time>2019-09-22T08:26:34Z</time>
      </trkpt>
      <trkpt lat="47.40349" lon="-2.29598">
        <ele>53</ele>
        <time>2019-09-22T08:26:37Z</time>
      </trkpt>
      <trkpt lat="47.40347" lon="-2.29604">
        <ele>53</ele>
        <time>2019-09-22T08:26:38Z</time>
      </trkpt>
      <trkpt lat="47.4034" lon="-2.29626">
        <ele>53</ele>
        <time>2019-09-22T08:26:41Z</time>
      </trkpt>
      <trkpt lat="47.40338" lon="-2.29634">
        <ele>53</ele>
        <time>2019-09-22T08:26:42Z</time>
      </trkpt>
      <trkpt lat="47.40336" lon="-2.29641">
        <ele>53</ele>
        <time>2019-09-22T08:26:43Z</time>
      </trkpt>
      <trkpt lat="47.40324" lon="-2.29675">
        <ele>53</ele>
        <time>2019-09-22T08:26:47Z</time>
      </trkpt>
      <trkpt lat="47.40322" lon="-2.29681">
        <ele>53</ele>
        <time>2019-09-22T08:26:48Z</time>
      </trkpt>
      <trkpt lat="47.40313" lon="-2.29697">
        <ele>54</ele>
        <time>2019-09-22T08:26:51Z</time>
      </trkpt>
      <trkpt lat="47.4031" lon="-2.29703">
        <ele>54</ele>
        <time>2019-09-22T08:26:52Z</time>
      </trkpt>
      <trkpt lat="47.40307" lon="-2.29716">
        <ele>54</ele>
        <time>2019-09-22T08:26:54Z</time>
      </trkpt>
      <trkpt lat="47.40303" lon="-2.29733">
        <ele>55</ele>
        <time>2019-09-22T08:26:57Z</time>
      </trkpt>
      <trkpt lat="47.40302" lon="-2.29739">
        <ele>55</ele>
        <time>2019-09-22T08:26:58Z</time>
      </trkpt>
      <trkpt lat="47.40298" lon="-2.29749">
        <ele>55</ele>
        <time>2019-09-22T08:27:00Z</time>
      </trkpt>
      <trkpt lat="47.40294" lon="-2.29764">
        <ele>56</ele>
        <time>2019-09-22T08:27:03Z</time>
      </trkpt>
      <trkpt lat="47.40293" lon="-2.2977">
        <ele>56</ele>
        <time>2019-09-22T08:27:04Z</time>
      </trkpt>
      <trkpt lat="47.40292" lon="-2.29776">
        <ele>57</ele>
        <time>2019-09-22T08:27:05Z</time>
      </trkpt>
      <trkpt lat="47.40288" lon="-2.29785">
        <ele>57</ele>
        <time>2019-09-22T08:27:07Z</time>
      </trkpt>
      <trkpt lat="47.40285" lon="-2.29791">
        <ele>57</ele>
        <time>2019-09-22T08:27:08Z</time>
      </trkpt>
      <trkpt lat="47.40282" lon="-2.29805">
        <ele>57</ele>
        <time>2019-09-22T08:27:11Z</time>
      </trkpt>
      <trkpt lat="47.4028" lon="-2.29811">
        <ele>57</ele>
        <time>2019-09-22T08:27:13Z</time>
      </trkpt>
      <trkpt lat="47.4028" lon="-2.29811">
        <ele>3.1</ele>
        <time>2019-09-22T08:27:19Z</time>
      </trkpt>
      <trkpt lat="47.4028" lon="-2.29811">
        <ele>3.1</ele>
        <time>2019-09-22T08:27:22Z</time>
      </trkpt>
      <trkpt lat="47.40269" lon="-2.2978">
        <ele>54</ele>
        <time>2019-09-22T08:27:22Z</time>
      </trkpt>
      <trkpt lat="47.40232" lon="-2.29728">
        <ele>62</ele>
        <time>2019-09-22T08:27:28Z</time>
      </trkpt>
      <trkpt lat="47.40229" lon="-2.29718">
        <ele>55</ele>
        <time>2019-09-22T08:27:29Z</time>
      </trkpt>
      <trkpt lat="47.40229" lon="-2.29711">
        <ele>52</ele>
        <time>2019-09-22T08:27:30Z</time>
      </trkpt>
      <trkpt lat="47.40226" lon="-2.29705">
        <ele>51</ele>
        <time>2019-09-22T08:27:31Z</time>
      </trkpt>
      <trkpt lat="47.40226" lon="-2.29698">
        <ele>51</ele>
        <time>2019-09-22T08:27:32Z</time>
      </trkpt>
      <trkpt lat="47.40223" lon="-2.2969">
        <ele>51</ele>
        <time>2019-09-22T08:27:33Z</time>
      </trkpt>
      <trkpt lat="47.40221" lon="-2.29683">
        <ele>48</ele>
        <time>2019-09-22T08:27:34Z</time>
      </trkpt>
      <trkpt lat="47.40216" lon="-2.29665">
        <ele>50</ele>
        <time>2019-09-22T08:27:37Z</time>
      </trkpt>
      <trkpt lat="47.40215" lon="-2.29661">
        <ele>50</ele>
        <time>2019-09-22T08:27:38Z</time>
      </trkpt>
      <trkpt lat="47.40212" lon="-2.29655">
        <ele>51</ele>
        <time>2019-09-22T08:27:41Z</time>
      </trkpt>
      <trkpt lat="47.40212" lon="-2.29655">
        <ele>1</ele>
        <time>2019-09-22T08:27:46Z</time>
      </trkpt>
      <trkpt lat="47.40212" lon="-2.29655">
        <ele>1</ele>
        <time>2019-09-22T08:28:16Z</time>
      </trkpt>
      <trkpt lat="47.4022" lon="-2.29675">
        <ele>52</ele>
        <time>2019-09-22T08:28:16Z</time>
      </trkpt>
      <trkpt lat="47.40228" lon="-2.29709">
        <ele>47</ele>
        <time>2019-09-22T08:28:22Z</time>
      </trkpt>
      <trkpt lat="47.40231" lon="-2.29715">
        <ele>48</ele>
        <time>2019-09-22T08:28:23Z</time>
      </trkpt>
      <trkpt lat="47.40237" lon="-2.29724">
        <ele>49</ele>
        <time>2019-09-22T08:28:25Z</time>
      </trkpt>
      <trkpt lat="47.40239" lon="-2.29727">
        <ele>50</ele>
        <time>2019-09-22T08:28:26Z</time>
      </trkpt>
      <trkpt lat="47.40241" lon="-2.29735">
        <ele>51</ele>
        <time>2019-09-22T08:28:28Z</time>
      </trkpt>
      <trkpt lat="47.40242" lon="-2.29738">
        <ele>51</ele>
        <time>2019-09-22T08:28:29Z</time>
      </trkpt>
      <trkpt lat="47.40237" lon="-2.29749">
        <ele>52</ele>
        <time>2019-09-22T08:28:33Z</time>
      </trkpt>
      <trkpt lat="47.4023" lon="-2.29744">
        <ele>55</ele>
        <time>2019-09-22T08:28:36Z</time>
      </trkpt>
      <trkpt lat="47.40223" lon="-2.29731">
        <ele>55</ele>
        <time>2019-09-22T08:28:39Z</time>
      </trkpt>
      <trkpt lat="47.40219" lon="-2.29726">
        <ele>55</ele>
        <time>2019-09-22T08:28:40Z</time>
      </trkpt>
      <trkpt lat="47.40215" lon="-2.29718">
        <ele>53</ele>
        <time>2019-09-22T08:28:42Z</time>
      </trkpt>
      <trkpt lat="47.40213" lon="-2.29714">
        <ele>54</ele>
        <time>2019-09-22T08:28:43Z</time>
      </trkpt>
      <trkpt lat="47.40206" lon="-2.29712">
        <ele>54</ele>
        <time>2019-09-22T08:28:45Z</time>
      </trkpt>
      <trkpt lat="47.40199" lon="-2.29717">
        <ele>51</ele>
        <time>2019-09-22T08:28:47Z</time>
      </trkpt>
      <trkpt lat="47.40196" lon="-2.2972">
        <ele>50</ele>
        <time>2019-09-22T08:28:48Z</time>
      </trkpt>
      <trkpt lat="47.40192" lon="-2.29723">
        <ele>50</ele>
        <time>2019-09-22T08:28:49Z</time>
      </trkpt>
      <trkpt lat="47.40184" lon="-2.29727">
        <ele>51</ele>
        <time>2019-09-22T08:28:51Z</time>
      </trkpt>
      <trkpt lat="47.40181" lon="-2.29728">
        <ele>50</ele>
        <time>2019-09-22T08:28:52Z</time>
      </trkpt>
      <trkpt lat="47.40171" lon="-2.29729">
        <ele>51</ele>
        <time>2019-09-22T08:28:55Z</time>
      </trkpt>
      <trkpt lat="47.40167" lon="-2.2973">
        <ele>51</ele>
        <time>2019-09-22T08:28:57Z</time>
      </trkpt>
      <trkpt lat="47.40167" lon="-2.2973">
        <ele>1</ele>
        <time>2019-09-22T08:29:03Z</time>
      </trkpt>
      <trkpt lat="47.40167" lon="-2.2973">
        <ele>1</ele>
        <time>2019-09-22T08:29:06Z</time>
      </trkpt>
      <trkpt lat="47.4016" lon="-2.29728">
        <ele>50</ele>
        <time>2019-09-22T08:29:06Z</time>
      </trkpt>
      <trkpt lat="47.40154" lon="-2.29726">
        <ele>56</ele>
        <time>2019-09-22T08:29:12Z</time>
      </trkpt>
      <trkpt lat="47.40149" lon="-2.29723">
        <ele>48</ele>
        <time>2019-09-22T08:29:20Z</time>
      </trkpt>
      <trkpt lat="47.40145" lon="-2.2972">
        <ele>49</ele>
        <time>2019-09-22T08:29:28Z</time>
      </trkpt>
      <trkpt lat="47.40141" lon="-2.2972">
        <ele>49</ele>
        <time>2019-09-22T08:29:33Z</time>
      </trkpt>
      <trkpt lat="47.40138" lon="-2.29726">
        <ele>59</ele>
        <time>2019-09-22T08:29:38Z</time>
      </trkpt>
      <trkpt lat="47.4013" lon="-2.29718">
        <ele>61</ele>
        <time>2019-09-22T08:29:46Z</time>
      </trkpt>
      <trkpt lat="47.40124" lon="-2.29713">
        <ele>59</ele>
        <time>2019-09-22T08:29:49Z</time>
      </trkpt>
      <trkpt lat="47.40118" lon="-2.29709">
        <ele>57</ele>
        <time>2019-09-22T08:29:50Z</time>
      </trkpt>
      <trkpt lat="47.40116" lon="-2.29707">
        <ele>57</ele>
        <time>2019-09-22T08:29:51Z</time>
      </trkpt>
      <trkpt lat="47.40111" lon="-2.29704">
        <ele>57</ele>
        <time>2019-09-22T08:29:54Z</time>
      </trkpt>
      <trkpt lat="47.40107" lon="-2.297">
        <ele>57</ele>
        <time>2019-09-22T08:29:56Z</time>
      </trkpt>
      <trkpt lat="47.40102" lon="-2.29697">
        <ele>57</ele>
        <time>2019-09-22T08:29:58Z</time>
      </trkpt>
      <trkpt lat="47.40094" lon="-2.29689">
        <ele>58</ele>
        <time>2019-09-22T08:30:01Z</time>
      </trkpt>
      <trkpt lat="47.40082" lon="-2.29684">
        <ele>62</ele>
        <time>2019-09-22T08:30:05Z</time>
      </trkpt>
      <trkpt lat="47.40077" lon="-2.29683">
        <ele>62</ele>
        <time>2019-09-22T08:30:06Z</time>
      </trkpt>
      <trkpt lat="47.40071" lon="-2.29682">
        <ele>62</ele>
        <time>2019-09-22T08:30:07Z</time>
      </trkpt>
      <trkpt lat="47.40067" lon="-2.29681">
        <ele>61</ele>
        <time>2019-09-22T08:30:08Z</time>
      </trkpt>
      <trkpt lat="47.4006" lon="-2.29678">
        <ele>60</ele>
        <time>2019-09-22T08:30:10Z</time>
      </trkpt>
      <trkpt lat="47.40055" lon="-2.29676">
        <ele>60</ele>
        <time>2019-09-22T08:30:11Z</time>
      </trkpt>
      <trkpt lat="47.40045" lon="-2.29671">
        <ele>59</ele>
        <time>2019-09-22T08:30:13Z</time>
      </trkpt>
      <trkpt lat="47.40036" lon="-2.29666">
        <ele>58</ele>
        <time>2019-09-22T08:30:15Z</time>
      </trkpt>
      <trkpt lat="47.40026" lon="-2.29663">
        <ele>56</ele>
        <time>2019-09-22T08:30:17Z</time>
      </trkpt>
      <trkpt lat="47.40021" lon="-2.29662">
        <ele>54</ele>
        <time>2019-09-22T08:30:18Z</time>
      </trkpt>
      <trkpt lat="47.40014" lon="-2.29657">
        <ele>53</ele>
        <time>2019-09-22T08:30:20Z</time>
      </trkpt>
      <trkpt lat="47.4001" lon="-2.29655">
        <ele>53</ele>
        <time>2019-09-22T08:30:21Z</time>
      </trkpt>
      <trkpt lat="47.40007" lon="-2.29652">
        <ele>54</ele>
        <time>2019-09-22T08:30:22Z</time>
      </trkpt>
      <trkpt lat="47.40004" lon="-2.2965">
        <ele>54</ele>
        <time>2019-09-22T08:30:23Z</time>
      </trkpt>
      <trkpt lat="47.39999" lon="-2.29647">
        <ele>53</ele>
        <time>2019-09-22T08:30:24Z</time>
      </trkpt>
      <trkpt lat="47.39987" lon="-2.29643">
        <ele>53</ele>
        <time>2019-09-22T08:30:27Z</time>
      </trkpt>
      <trkpt lat="47.39984" lon="-2.29641">
        <ele>52</ele>
        <time>2019-09-22T08:30:28Z</time>
      </trkpt>
      <trkpt lat="47.3998" lon="-2.29639">
        <ele>52</ele>
        <time>2019-09-22T08:30:29Z</time>
      </trkpt>
      <trkpt lat="47.39977" lon="-2.29637">
        <ele>52</ele>
        <time>2019-09-22T08:30:30Z</time>
      </trkpt>
      <trkpt lat="47.39973" lon="-2.29635">
        <ele>52</ele>
        <time>2019-09-22T08:30:31Z</time>
      </trkpt>
      <trkpt lat="47.3997" lon="-2.29634">
        <ele>52</ele>
        <time>2019-09-22T08:30:32Z</time>
      </trkpt>
      <trkpt lat="47.39963" lon="-2.2963">
        <ele>52</ele>
        <time>2019-09-22T08:30:34Z</time>
      </trkpt>
      <trkpt lat="47.39955" lon="-2.29626">
        <ele>51</ele>
        <time>2019-09-22T08:30:36Z</time>
      </trkpt>
      <trkpt lat="47.39952" lon="-2.29624">
        <ele>51</ele>
        <time>2019-09-22T08:30:37Z</time>
      </trkpt>
      <trkpt lat="47.39944" lon="-2.2962">
        <ele>51</ele>
        <time>2019-09-22T08:30:39Z</time>
      </trkpt>
      <trkpt lat="47.39936" lon="-2.29617">
        <ele>50</ele>
        <time>2019-09-22T08:30:41Z</time>
      </trkpt>
      <trkpt lat="47.39933" lon="-2.29615">
        <ele>50</ele>
        <time>2019-09-22T08:30:42Z</time>
      </trkpt>
      <trkpt lat="47.39926" lon="-2.29612">
        <ele>50</ele>
        <time>2019-09-22T08:30:44Z</time>
      </trkpt>
      <trkpt lat="47.39919" lon="-2.2961">
        <ele>50</ele>
        <time>2019-09-22T08:30:46Z</time>
      </trkpt>
      <trkpt lat="47.39909" lon="-2.29603">
        <ele>49</ele>
        <time>2019-09-22T08:30:49Z</time>
      </trkpt>
      <trkpt lat="47.39899" lon="-2.29595">
        <ele>50</ele>
        <time>2019-09-22T08:30:52Z</time>
      </trkpt>
      <trkpt lat="47.39892" lon="-2.29591">
        <ele>50</ele>
        <time>2019-09-22T08:30:54Z</time>
      </trkpt>
      <trkpt lat="47.39885" lon="-2.29587">
        <ele>50</ele>
        <time>2019-09-22T08:30:56Z</time>
      </trkpt>
      <trkpt lat="47.39879" lon="-2.29582">
        <ele>50</ele>
        <time>2019-09-22T08:30:58Z</time>
      </trkpt>
      <trkpt lat="47.39872" lon="-2.29577">
        <ele>49</ele>
        <time>2019-09-22T08:31:00Z</time>
      </trkpt>
      <trkpt lat="47.39862" lon="-2.2957">
        <ele>49</ele>
        <time>2019-09-22T08:31:03Z</time>
      </trkpt>
      <trkpt lat="47.39858" lon="-2.29568">
        <ele>48</ele>
        <time>2019-09-22T08:31:04Z</time>
      </trkpt>
      <trkpt lat="47.39849" lon="-2.29563">
        <ele>49</ele>
        <time>2019-09-22T08:31:07Z</time>
      </trkpt>
      <trkpt lat="47.39842" lon="-2.29561">
        <ele>49</ele>
        <time>2019-09-22T08:31:09Z</time>
      </trkpt>
      <trkpt lat="47.39831" lon="-2.29556">
        <ele>50</ele>
        <time>2019-09-22T08:31:13Z</time>
      </trkpt>
      <trkpt lat="47.39825" lon="-2.29553">
        <ele>50</ele>
        <time>2019-09-22T08:31:15Z</time>
      </trkpt>
      <trkpt lat="47.39822" lon="-2.29548">
        <ele>51</ele>
        <time>2019-09-22T08:31:17Z</time>
      </trkpt>
      <trkpt lat="47.39809" lon="-2.2954">
        <ele>51</ele>
        <time>2019-09-22T08:31:20Z</time>
      </trkpt>
      <trkpt lat="47.39805" lon="-2.29532">
        <ele>51</ele>
        <time>2019-09-22T08:31:23Z</time>
      </trkpt>
      <trkpt lat="47.39802" lon="-2.29527">
        <ele>51</ele>
        <time>2019-09-22T08:31:24Z</time>
      </trkpt>
      <trkpt lat="47.39799" lon="-2.29521">
        <ele>52</ele>
        <time>2019-09-22T08:31:25Z</time>
      </trkpt>
      <trkpt lat="47.398" lon="-2.29508">
        <ele>52</ele>
        <time>2019-09-22T08:31:27Z</time>
      </trkpt>
      <trkpt lat="47.398" lon="-2.295">
        <ele>53</ele>
        <time>2019-09-22T08:31:28Z</time>
      </trkpt>
      <trkpt lat="47.39801" lon="-2.29493">
        <ele>53</ele>
        <time>2019-09-22T08:31:29Z</time>
      </trkpt>
      <trkpt lat="47.39808" lon="-2.29479">
        <ele>54</ele>
        <time>2019-09-22T08:31:31Z</time>
      </trkpt>
      <trkpt lat="47.39811" lon="-2.29473">
        <ele>54</ele>
        <time>2019-09-22T08:31:32Z</time>
      </trkpt>
      <trkpt lat="47.39814" lon="-2.29466">
        <ele>54</ele>
        <time>2019-09-22T08:31:33Z</time>
      </trkpt>
      <trkpt lat="47.39817" lon="-2.2946">
        <ele>54</ele>
        <time>2019-09-22T08:31:34Z</time>
      </trkpt>
      <trkpt lat="47.39818" lon="-2.29454">
        <ele>54</ele>
        <time>2019-09-22T08:31:35Z</time>
      </trkpt>
      <trkpt lat="47.39821" lon="-2.29448">
        <ele>55</ele>
        <time>2019-09-22T08:31:36Z</time>
      </trkpt>
      <trkpt lat="47.39822" lon="-2.29442">
        <ele>55</ele>
        <time>2019-09-22T08:31:37Z</time>
      </trkpt>
      <trkpt lat="47.39825" lon="-2.29435">
        <ele>55</ele>
        <time>2019-09-22T08:31:38Z</time>
      </trkpt>
      <trkpt lat="47.39827" lon="-2.29428">
        <ele>55</ele>
        <time>2019-09-22T08:31:39Z</time>
      </trkpt>
      <trkpt lat="47.3983" lon="-2.29421">
        <ele>56</ele>
        <time>2019-09-22T08:31:40Z</time>
      </trkpt>
      <trkpt lat="47.39833" lon="-2.29415">
        <ele>56</ele>
        <time>2019-09-22T08:31:41Z</time>
      </trkpt>
      <trkpt lat="47.39835" lon="-2.29409">
        <ele>56</ele>
        <time>2019-09-22T08:31:42Z</time>
      </trkpt>
      <trkpt lat="47.39845" lon="-2.29394">
        <ele>58</ele>
        <time>2019-09-22T08:31:45Z</time>
      </trkpt>
      <trkpt lat="47.39848" lon="-2.29389">
        <ele>59</ele>
        <time>2019-09-22T08:31:46Z</time>
      </trkpt>
      <trkpt lat="47.39855" lon="-2.29376">
        <ele>59</ele>
        <time>2019-09-22T08:31:48Z</time>
      </trkpt>
      <trkpt lat="47.39866" lon="-2.294">
        <ele>67</ele>
        <time>2019-09-22T08:31:51Z</time>
      </trkpt>
      <trkpt lat="47.3987" lon="-2.29385">
        <ele>80</ele>
        <time>2019-09-22T08:31:53Z</time>
      </trkpt>
      <trkpt lat="47.39873" lon="-2.29369">
        <ele>84</ele>
        <time>2019-09-22T08:31:54Z</time>
      </trkpt>
      <trkpt lat="47.39876" lon="-2.29356">
        <ele>86</ele>
        <time>2019-09-22T08:31:55Z</time>
      </trkpt>
      <trkpt lat="47.3988" lon="-2.29319">
        <ele>86</ele>
        <time>2019-09-22T08:31:58Z</time>
      </trkpt>
      <trkpt lat="47.3988" lon="-2.29309">
        <ele>84</ele>
        <time>2019-09-22T08:31:59Z</time>
      </trkpt>
      <trkpt lat="47.39882" lon="-2.29293">
        <ele>80</ele>
        <time>2019-09-22T08:32:01Z</time>
      </trkpt>
      <trkpt lat="47.39883" lon="-2.29285">
        <ele>79</ele>
        <time>2019-09-22T08:32:02Z</time>
      </trkpt>
      <trkpt lat="47.39883" lon="-2.29278">
        <ele>76</ele>
        <time>2019-09-22T08:32:03Z</time>
      </trkpt>
      <trkpt lat="47.39887" lon="-2.29266">
        <ele>75</ele>
        <time>2019-09-22T08:32:05Z</time>
      </trkpt>
      <trkpt lat="47.39891" lon="-2.29261">
        <ele>73</ele>
        <time>2019-09-22T08:32:06Z</time>
      </trkpt>
      <trkpt lat="47.39897" lon="-2.29251">
        <ele>70</ele>
        <time>2019-09-22T08:32:08Z</time>
      </trkpt>
      <trkpt lat="47.399" lon="-2.29245">
        <ele>69</ele>
        <time>2019-09-22T08:32:09Z</time>
      </trkpt>
      <trkpt lat="47.39902" lon="-2.29238">
        <ele>68</ele>
        <time>2019-09-22T08:32:10Z</time>
      </trkpt>
      <trkpt lat="47.39904" lon="-2.29229">
        <ele>68</ele>
        <time>2019-09-22T08:32:12Z</time>
      </trkpt>
      <trkpt lat="47.39907" lon="-2.29223">
        <ele>65</ele>
        <time>2019-09-22T08:32:21Z</time>
      </trkpt>
      <trkpt lat="47.39907" lon="-2.29215">
        <ele>63</ele>
        <time>2019-09-22T08:32:43Z</time>
      </trkpt>
      <trkpt lat="47.3991" lon="-2.29209">
        <ele>67</ele>
        <time>2019-09-22T08:32:54Z</time>
      </trkpt>
      <trkpt lat="47.39915" lon="-2.29206">
        <ele>67</ele>
        <time>2019-09-22T08:32:58Z</time>
      </trkpt>
      <trkpt lat="47.39915" lon="-2.29187">
        <ele>61</ele>
        <time>2019-09-22T08:33:10Z</time>
      </trkpt>
      <trkpt lat="47.39917" lon="-2.29174">
        <ele>55</ele>
        <time>2019-09-22T08:33:12Z</time>
      </trkpt>
      <trkpt lat="47.39917" lon="-2.29168">
        <ele>55</ele>
        <time>2019-09-22T08:33:13Z</time>
      </trkpt>
      <trkpt lat="47.39918" lon="-2.29162">
        <ele>54</ele>
        <time>2019-09-22T08:33:14Z</time>
      </trkpt>
      <trkpt lat="47.39918" lon="-2.29155">
        <ele>53</ele>
        <time>2019-09-22T08:33:15Z</time>
      </trkpt>
      <trkpt lat="47.39919" lon="-2.2915">
        <ele>52</ele>
        <time>2019-09-22T08:33:16Z</time>
      </trkpt>
      <trkpt lat="47.39919" lon="-2.29144">
        <ele>52</ele>
        <time>2019-09-22T08:33:17Z</time>
      </trkpt>
      <trkpt lat="47.39919" lon="-2.29137">
        <ele>52</ele>
        <time>2019-09-22T08:33:18Z</time>
      </trkpt>
      <trkpt lat="47.39922" lon="-2.29125">
        <ele>52</ele>
        <time>2019-09-22T08:33:20Z</time>
      </trkpt>
      <trkpt lat="47.39924" lon="-2.29113">
        <ele>52</ele>
        <time>2019-09-22T08:33:22Z</time>
      </trkpt>
      <trkpt lat="47.39926" lon="-2.29101">
        <ele>52</ele>
        <time>2019-09-22T08:33:24Z</time>
      </trkpt>
      <trkpt lat="47.39927" lon="-2.29095">
        <ele>52</ele>
        <time>2019-09-22T08:33:25Z</time>
      </trkpt>
      <trkpt lat="47.39928" lon="-2.29089">
        <ele>51</ele>
        <time>2019-09-22T08:33:26Z</time>
      </trkpt>
      <trkpt lat="47.39928" lon="-2.29083">
        <ele>51</ele>
        <time>2019-09-22T08:33:27Z</time>
      </trkpt>
      <trkpt lat="47.3993" lon="-2.29066">
        <ele>52</ele>
        <time>2019-09-22T08:33:30Z</time>
      </trkpt>
      <trkpt lat="47.39932" lon="-2.2905">
        <ele>53</ele>
        <time>2019-09-22T08:33:33Z</time>
      </trkpt>
      <trkpt lat="47.39932" lon="-2.29043">
        <ele>54</ele>
        <time>2019-09-22T08:33:34Z</time>
      </trkpt>
      <trkpt lat="47.39933" lon="-2.29035">
        <ele>54</ele>
        <time>2019-09-22T08:33:35Z</time>
      </trkpt>
      <trkpt lat="47.39934" lon="-2.29028">
        <ele>53</ele>
        <time>2019-09-22T08:33:36Z</time>
      </trkpt>
      <trkpt lat="47.39936" lon="-2.29022">
        <ele>54</ele>
        <time>2019-09-22T08:33:37Z</time>
      </trkpt>
      <trkpt lat="47.39938" lon="-2.29015">
        <ele>54</ele>
        <time>2019-09-22T08:33:38Z</time>
      </trkpt>
      <trkpt lat="47.3994" lon="-2.29001">
        <ele>54</ele>
        <time>2019-09-22T08:33:40Z</time>
      </trkpt>
      <trkpt lat="47.39938" lon="-2.28986">
        <ele>54</ele>
        <time>2019-09-22T08:33:42Z</time>
      </trkpt>
      <trkpt lat="47.39937" lon="-2.28978">
        <ele>53</ele>
        <time>2019-09-22T08:33:43Z</time>
      </trkpt>
      <trkpt lat="47.39936" lon="-2.28972">
        <ele>53</ele>
        <time>2019-09-22T08:33:44Z</time>
      </trkpt>
      <trkpt lat="47.39934" lon="-2.28965">
        <ele>53</ele>
        <time>2019-09-22T08:33:45Z</time>
      </trkpt>
      <trkpt lat="47.39934" lon="-2.28956">
        <ele>53</ele>
        <time>2019-09-22T08:33:46Z</time>
      </trkpt>
      <trkpt lat="47.39932" lon="-2.28949">
        <ele>52</ele>
        <time>2019-09-22T08:33:47Z</time>
      </trkpt>
      <trkpt lat="47.3993" lon="-2.28941">
        <ele>52</ele>
        <time>2019-09-22T08:33:48Z</time>
      </trkpt>
      <trkpt lat="47.39927" lon="-2.28935">
        <ele>51</ele>
        <time>2019-09-22T08:33:49Z</time>
      </trkpt>
      <trkpt lat="47.39924" lon="-2.28929">
        <ele>51</ele>
        <time>2019-09-22T08:33:50Z</time>
      </trkpt>
      <trkpt lat="47.39919" lon="-2.28926">
        <ele>51</ele>
        <time>2019-09-22T08:33:51Z</time>
      </trkpt>
      <trkpt lat="47.39915" lon="-2.28922">
        <ele>51</ele>
        <time>2019-09-22T08:33:52Z</time>
      </trkpt>
      <trkpt lat="47.39911" lon="-2.28919">
        <ele>50</ele>
        <time>2019-09-22T08:33:53Z</time>
      </trkpt>
      <trkpt lat="47.39907" lon="-2.28916">
        <ele>50</ele>
        <time>2019-09-22T08:33:54Z</time>
      </trkpt>
      <trkpt lat="47.39902" lon="-2.28914">
        <ele>50</ele>
        <time>2019-09-22T08:33:55Z</time>
      </trkpt>
      <trkpt lat="47.39897" lon="-2.28912">
        <ele>50</ele>
        <time>2019-09-22T08:33:56Z</time>
      </trkpt>
      <trkpt lat="47.39893" lon="-2.28911">
        <ele>50</ele>
        <time>2019-09-22T08:33:57Z</time>
      </trkpt>
      <trkpt lat="47.39885" lon="-2.28906">
        <ele>49</ele>
        <time>2019-09-22T08:33:59Z</time>
      </trkpt>
      <trkpt lat="47.39878" lon="-2.28902">
        <ele>49</ele>
        <time>2019-09-22T08:34:01Z</time>
      </trkpt>
      <trkpt lat="47.39874" lon="-2.289">
        <ele>49</ele>
        <time>2019-09-22T08:34:02Z</time>
      </trkpt>
      <trkpt lat="47.39864" lon="-2.28896">
        <ele>50</ele>
        <time>2019-09-22T08:34:05Z</time>
      </trkpt>
      <trkpt lat="47.39857" lon="-2.28894">
        <ele>50</ele>
        <time>2019-09-22T08:34:07Z</time>
      </trkpt>
      <trkpt lat="47.39847" lon="-2.28892">
        <ele>50</ele>
        <time>2019-09-22T08:34:10Z</time>
      </trkpt>
      <trkpt lat="47.39844" lon="-2.28891">
        <ele>50</ele>
        <time>2019-09-22T08:34:11Z</time>
      </trkpt>
      <trkpt lat="47.39839" lon="-2.28886">
        <ele>50</ele>
        <time>2019-09-22T08:34:12Z</time>
      </trkpt>
      <trkpt lat="47.39833" lon="-2.28882">
        <ele>50</ele>
        <time>2019-09-22T08:34:15Z</time>
      </trkpt>
      <trkpt lat="47.39828" lon="-2.28879">
        <ele>49</ele>
        <time>2019-09-22T08:34:17Z</time>
      </trkpt>
      <trkpt lat="47.39826" lon="-2.28878">
        <ele>49</ele>
        <time>2019-09-22T08:34:18Z</time>
      </trkpt>
      <trkpt lat="47.39819" lon="-2.28876">
        <ele>49</ele>
        <time>2019-09-22T08:34:20Z</time>
      </trkpt>
      <trkpt lat="47.39814" lon="-2.28874">
        <ele>49</ele>
        <time>2019-09-22T08:34:22Z</time>
      </trkpt>
      <trkpt lat="47.3981" lon="-2.28873">
        <ele>49</ele>
        <time>2019-09-22T08:34:23Z</time>
      </trkpt>
      <trkpt lat="47.398" lon="-2.28867">
        <ele>49</ele>
        <time>2019-09-22T08:34:26Z</time>
      </trkpt>
      <trkpt lat="47.39797" lon="-2.28866">
        <ele>49</ele>
        <time>2019-09-22T08:34:27Z</time>
      </trkpt>
      <trkpt lat="47.39794" lon="-2.28864">
        <ele>49</ele>
        <time>2019-09-22T08:34:28Z</time>
      </trkpt>
      <trkpt lat="47.3979" lon="-2.28863">
        <ele>49</ele>
        <time>2019-09-22T08:34:29Z</time>
      </trkpt>
      <trkpt lat="47.39787" lon="-2.28862">
        <ele>49</ele>
        <time>2019-09-22T08:34:30Z</time>
      </trkpt>
      <trkpt lat="47.39781" lon="-2.28859">
        <ele>49</ele>
        <time>2019-09-22T08:34:33Z</time>
      </trkpt>
      <trkpt lat="47.39778" lon="-2.28858">
        <ele>50</ele>
        <time>2019-09-22T08:34:34Z</time>
      </trkpt>
      <trkpt lat="47.39773" lon="-2.28855">
        <ele>50</ele>
        <time>2019-09-22T08:34:36Z</time>
      </trkpt>
      <trkpt lat="47.3977" lon="-2.28854">
        <ele>50</ele>
        <time>2019-09-22T08:34:37Z</time>
      </trkpt>
      <trkpt lat="47.39762" lon="-2.28852">
        <ele>50</ele>
        <time>2019-09-22T08:34:39Z</time>
      </trkpt>
      <trkpt lat="47.39757" lon="-2.28852">
        <ele>50</ele>
        <time>2019-09-22T08:34:40Z</time>
      </trkpt>
      <trkpt lat="47.39753" lon="-2.28851">
        <ele>50</ele>
        <time>2019-09-22T08:34:41Z</time>
      </trkpt>
      <trkpt lat="47.39748" lon="-2.28849">
        <ele>50</ele>
        <time>2019-09-22T08:34:42Z</time>
      </trkpt>
      <trkpt lat="47.39741" lon="-2.28849">
        <ele>50</ele>
        <time>2019-09-22T08:34:44Z</time>
      </trkpt>
      <trkpt lat="47.39733" lon="-2.28849">
        <ele>50</ele>
        <time>2019-09-22T08:34:46Z</time>
      </trkpt>
      <trkpt lat="47.39728" lon="-2.28849">
        <ele>50</ele>
        <time>2019-09-22T08:34:47Z</time>
      </trkpt>
      <trkpt lat="47.39724" lon="-2.28849">
        <ele>50</ele>
        <time>2019-09-22T08:34:48Z</time>
      </trkpt>
      <trkpt lat="47.39716" lon="-2.28847">
        <ele>50</ele>
        <time>2019-09-22T08:34:50Z</time>
      </trkpt>
      <trkpt lat="47.39712" lon="-2.28846">
        <ele>50</ele>
        <time>2019-09-22T08:34:51Z</time>
      </trkpt>
      <trkpt lat="47.39704" lon="-2.28845">
        <ele>50</ele>
        <time>2019-09-22T08:34:53Z</time>
      </trkpt>
      <trkpt lat="47.39696" lon="-2.28845">
        <ele>50</ele>
        <time>2019-09-22T08:34:55Z</time>
      </trkpt>
      <trkpt lat="47.39692" lon="-2.28845">
        <ele>50</ele>
        <time>2019-09-22T08:34:56Z</time>
      </trkpt>
      <trkpt lat="47.39679" lon="-2.28843">
        <ele>49</ele>
        <time>2019-09-22T08:34:59Z</time>
      </trkpt>
      <trkpt lat="47.39676" lon="-2.28843">
        <ele>49</ele>
        <time>2019-09-22T08:35:00Z</time>
      </trkpt>
      <trkpt lat="47.39671" lon="-2.28843">
        <ele>49</ele>
        <time>2019-09-22T08:35:01Z</time>
      </trkpt>
      <trkpt lat="47.39667" lon="-2.28843">
        <ele>49</ele>
        <time>2019-09-22T08:35:02Z</time>
      </trkpt>
      <trkpt lat="47.39654" lon="-2.28844">
        <ele>49</ele>
        <time>2019-09-22T08:35:05Z</time>
      </trkpt>
      <trkpt lat="47.39646" lon="-2.28846">
        <ele>48</ele>
        <time>2019-09-22T08:35:07Z</time>
      </trkpt>
      <trkpt lat="47.39642" lon="-2.28847">
        <ele>48</ele>
        <time>2019-09-22T08:35:08Z</time>
      </trkpt>
      <trkpt lat="47.39639" lon="-2.28848">
        <ele>48</ele>
        <time>2019-09-22T08:35:09Z</time>
      </trkpt>
      <trkpt lat="47.39635" lon="-2.28849">
        <ele>48</ele>
        <time>2019-09-22T08:35:10Z</time>
      </trkpt>
      <trkpt lat="47.39631" lon="-2.2885">
        <ele>48</ele>
        <time>2019-09-22T08:35:11Z</time>
      </trkpt>
      <trkpt lat="47.39623" lon="-2.28851">
        <ele>49</ele>
        <time>2019-09-22T08:35:13Z</time>
      </trkpt>
      <trkpt lat="47.39616" lon="-2.28854">
        <ele>49</ele>
        <time>2019-09-22T08:35:15Z</time>
      </trkpt>
      <trkpt lat="47.39613" lon="-2.28855">
        <ele>49</ele>
        <time>2019-09-22T08:35:16Z</time>
      </trkpt>
      <trkpt lat="47.39609" lon="-2.28857">
        <ele>49</ele>
        <time>2019-09-22T08:35:17Z</time>
      </trkpt>
      <trkpt lat="47.39605" lon="-2.28859">
        <ele>50</ele>
        <time>2019-09-22T08:35:18Z</time>
      </trkpt>
      <trkpt lat="47.39598" lon="-2.28862">
        <ele>49</ele>
        <time>2019-09-22T08:35:20Z</time>
      </trkpt>
      <trkpt lat="47.39589" lon="-2.2887">
        <ele>50</ele>
        <time>2019-09-22T08:35:23Z</time>
      </trkpt>
      <trkpt lat="47.39582" lon="-2.28874">
        <ele>50</ele>
        <time>2019-09-22T08:35:25Z</time>
      </trkpt>
      <trkpt lat="47.39578" lon="-2.28877">
        <ele>50</ele>
        <time>2019-09-22T08:35:26Z</time>
      </trkpt>
      <trkpt lat="47.39572" lon="-2.28881">
        <ele>50</ele>
        <time>2019-09-22T08:35:28Z</time>
      </trkpt>
      <trkpt lat="47.39565" lon="-2.28884">
        <ele>50</ele>
        <time>2019-09-22T08:35:30Z</time>
      </trkpt>
      <trkpt lat="47.39561" lon="-2.28885">
        <ele>50</ele>
        <time>2019-09-22T08:35:31Z</time>
      </trkpt>
      <trkpt lat="47.39558" lon="-2.28887">
        <ele>50</ele>
        <time>2019-09-22T08:35:32Z</time>
      </trkpt>
      <trkpt lat="47.39554" lon="-2.28889">
        <ele>50</ele>
        <time>2019-09-22T08:35:33Z</time>
      </trkpt>
      <trkpt lat="47.39547" lon="-2.28893">
        <ele>50</ele>
        <time>2019-09-22T08:35:35Z</time>
      </trkpt>
      <trkpt lat="47.39538" lon="-2.289">
        <ele>51</ele>
        <time>2019-09-22T08:35:38Z</time>
      </trkpt>
      <trkpt lat="47.39535" lon="-2.28903">
        <ele>52</ele>
        <time>2019-09-22T08:35:39Z</time>
      </trkpt>
      <trkpt lat="47.39529" lon="-2.28907">
        <ele>52</ele>
        <time>2019-09-22T08:35:41Z</time>
      </trkpt>
      <trkpt lat="47.39525" lon="-2.28909">
        <ele>52</ele>
        <time>2019-09-22T08:35:42Z</time>
      </trkpt>
      <trkpt lat="47.39519" lon="-2.28914">
        <ele>52</ele>
        <time>2019-09-22T08:35:44Z</time>
      </trkpt>
      <trkpt lat="47.39516" lon="-2.28917">
        <ele>52</ele>
        <time>2019-09-22T08:35:45Z</time>
      </trkpt>
      <trkpt lat="47.39513" lon="-2.28919">
        <ele>52</ele>
        <time>2019-09-22T08:35:46Z</time>
      </trkpt>
      <trkpt lat="47.39508" lon="-2.28925">
        <ele>53</ele>
        <time>2019-09-22T08:35:48Z</time>
      </trkpt>
      <trkpt lat="47.39505" lon="-2.28927">
        <ele>53</ele>
        <time>2019-09-22T08:35:49Z</time>
      </trkpt>
      <trkpt lat="47.39502" lon="-2.2893">
        <ele>53</ele>
        <time>2019-09-22T08:35:50Z</time>
      </trkpt>
      <trkpt lat="47.39494" lon="-2.2894">
        <ele>53</ele>
        <time>2019-09-22T08:35:53Z</time>
      </trkpt>
      <trkpt lat="47.39491" lon="-2.28944">
        <ele>53</ele>
        <time>2019-09-22T08:35:54Z</time>
      </trkpt>
      <trkpt lat="47.39486" lon="-2.28952">
        <ele>53</ele>
        <time>2019-09-22T08:35:56Z</time>
      </trkpt>
      <trkpt lat="47.39479" lon="-2.28959">
        <ele>52</ele>
        <time>2019-09-22T08:35:58Z</time>
      </trkpt>
      <trkpt lat="47.39476" lon="-2.28963">
        <ele>51</ele>
        <time>2019-09-22T08:35:59Z</time>
      </trkpt>
      <trkpt lat="47.39473" lon="-2.28966">
        <ele>51</ele>
        <time>2019-09-22T08:36:00Z</time>
      </trkpt>
      <trkpt lat="47.39471" lon="-2.2897">
        <ele>51</ele>
        <time>2019-09-22T08:36:01Z</time>
      </trkpt>
      <trkpt lat="47.39463" lon="-2.28984">
        <ele>50</ele>
        <time>2019-09-22T08:36:04Z</time>
      </trkpt>
      <trkpt lat="47.39458" lon="-2.28991">
        <ele>50</ele>
        <time>2019-09-22T08:36:06Z</time>
      </trkpt>
      <trkpt lat="47.39453" lon="-2.28998">
        <ele>50</ele>
        <time>2019-09-22T08:36:08Z</time>
      </trkpt>
      <trkpt lat="47.39447" lon="-2.29011">
        <ele>51</ele>
        <time>2019-09-22T08:36:11Z</time>
      </trkpt>
      <trkpt lat="47.39446" lon="-2.29015">
        <ele>51</ele>
        <time>2019-09-22T08:36:12Z</time>
      </trkpt>
      <trkpt lat="47.39444" lon="-2.29019">
        <ele>51</ele>
        <time>2019-09-22T08:36:13Z</time>
      </trkpt>
      <trkpt lat="47.39443" lon="-2.29024">
        <ele>51</ele>
        <time>2019-09-22T08:36:14Z</time>
      </trkpt>
      <trkpt lat="47.39441" lon="-2.29028">
        <ele>50</ele>
        <time>2019-09-22T08:36:15Z</time>
      </trkpt>
      <trkpt lat="47.39439" lon="-2.29039">
        <ele>50</ele>
        <time>2019-09-22T08:36:17Z</time>
      </trkpt>
      <trkpt lat="47.39438" lon="-2.29046">
        <ele>50</ele>
        <time>2019-09-22T08:36:18Z</time>
      </trkpt>
      <trkpt lat="47.39435" lon="-2.29052">
        <ele>49</ele>
        <time>2019-09-22T08:36:19Z</time>
      </trkpt>
      <trkpt lat="47.39432" lon="-2.29057">
        <ele>49</ele>
        <time>2019-09-22T08:36:20Z</time>
      </trkpt>
      <trkpt lat="47.39428" lon="-2.29068">
        <ele>49</ele>
        <time>2019-09-22T08:36:22Z</time>
      </trkpt>
      <trkpt lat="47.39425" lon="-2.29074">
        <ele>49</ele>
        <time>2019-09-22T08:36:23Z</time>
      </trkpt>
      <trkpt lat="47.39423" lon="-2.2908">
        <ele>49</ele>
        <time>2019-09-22T08:36:24Z</time>
      </trkpt>
      <trkpt lat="47.39419" lon="-2.29091">
        <ele>50</ele>
        <time>2019-09-22T08:36:26Z</time>
      </trkpt>
      <trkpt lat="47.39417" lon="-2.29097">
        <ele>50</ele>
        <time>2019-09-22T08:36:27Z</time>
      </trkpt>
      <trkpt lat="47.39415" lon="-2.29103">
        <ele>50</ele>
        <time>2019-09-22T08:36:28Z</time>
      </trkpt>
      <trkpt lat="47.39411" lon="-2.29113">
        <ele>50</ele>
        <time>2019-09-22T08:36:30Z</time>
      </trkpt>
      <trkpt lat="47.39404" lon="-2.29121">
        <ele>50</ele>
        <time>2019-09-22T08:36:32Z</time>
      </trkpt>
      <trkpt lat="47.39394" lon="-2.29131">
        <ele>50</ele>
        <time>2019-09-22T08:36:35Z</time>
      </trkpt>
      <trkpt lat="47.3939" lon="-2.29135">
        <ele>50</ele>
        <time>2019-09-22T08:36:36Z</time>
      </trkpt>
      <trkpt lat="47.39386" lon="-2.29138">
        <ele>50</ele>
        <time>2019-09-22T08:36:37Z</time>
      </trkpt>
      <trkpt lat="47.39383" lon="-2.29142">
        <ele>50</ele>
        <time>2019-09-22T08:36:38Z</time>
      </trkpt>
      <trkpt lat="47.39378" lon="-2.29145">
        <ele>50</ele>
        <time>2019-09-22T08:36:39Z</time>
      </trkpt>
      <trkpt lat="47.39366" lon="-2.29152">
        <ele>51</ele>
        <time>2019-09-22T08:36:42Z</time>
      </trkpt>
      <trkpt lat="47.39362" lon="-2.29154">
        <ele>51</ele>
        <time>2019-09-22T08:36:43Z</time>
      </trkpt>
      <trkpt lat="47.39357" lon="-2.29155">
        <ele>51</ele>
        <time>2019-09-22T08:36:44Z</time>
      </trkpt>
      <trkpt lat="47.39352" lon="-2.29157">
        <ele>51</ele>
        <time>2019-09-22T08:36:45Z</time>
      </trkpt>
      <trkpt lat="47.39348" lon="-2.2916">
        <ele>51</ele>
        <time>2019-09-22T08:36:46Z</time>
      </trkpt>
      <trkpt lat="47.39341" lon="-2.29165">
        <ele>52</ele>
        <time>2019-09-22T08:36:48Z</time>
      </trkpt>
      <trkpt lat="47.39336" lon="-2.29168">
        <ele>52</ele>
        <time>2019-09-22T08:36:49Z</time>
      </trkpt>
      <trkpt lat="47.39333" lon="-2.2917">
        <ele>52</ele>
        <time>2019-09-22T08:36:50Z</time>
      </trkpt>
      <trkpt lat="47.39328" lon="-2.29172">
        <ele>52</ele>
        <time>2019-09-22T08:36:51Z</time>
      </trkpt>
      <trkpt lat="47.39324" lon="-2.29175">
        <ele>51</ele>
        <time>2019-09-22T08:36:52Z</time>
      </trkpt>
      <trkpt lat="47.3932" lon="-2.29178">
        <ele>51</ele>
        <time>2019-09-22T08:36:53Z</time>
      </trkpt>
      <trkpt lat="47.39315" lon="-2.29182">
        <ele>51</ele>
        <time>2019-09-22T08:36:54Z</time>
      </trkpt>
      <trkpt lat="47.39297" lon="-2.2919">
        <ele>51</ele>
        <time>2019-09-22T08:36:58Z</time>
      </trkpt>
      <trkpt lat="47.39293" lon="-2.29192">
        <ele>51</ele>
        <time>2019-09-22T08:36:59Z</time>
      </trkpt>
      <trkpt lat="47.39288" lon="-2.29192">
        <ele>51</ele>
        <time>2019-09-22T08:37:00Z</time>
      </trkpt>
      <trkpt lat="47.39279" lon="-2.29194">
        <ele>51</ele>
        <time>2019-09-22T08:37:02Z</time>
      </trkpt>
      <trkpt lat="47.39274" lon="-2.29196">
        <ele>51</ele>
        <time>2019-09-22T08:37:03Z</time>
      </trkpt>
      <trkpt lat="47.39269" lon="-2.29197">
        <ele>51</ele>
        <time>2019-09-22T08:37:04Z</time>
      </trkpt>
      <trkpt lat="47.39259" lon="-2.29198">
        <ele>50</ele>
        <time>2019-09-22T08:37:06Z</time>
      </trkpt>
      <trkpt lat="47.39254" lon="-2.29198">
        <ele>50</ele>
        <time>2019-09-22T08:37:07Z</time>
      </trkpt>
      <trkpt lat="47.39249" lon="-2.29198">
        <ele>50</ele>
        <time>2019-09-22T08:37:08Z</time>
      </trkpt>
      <trkpt lat="47.39245" lon="-2.29199">
        <ele>50</ele>
        <time>2019-09-22T08:37:09Z</time>
      </trkpt>
      <trkpt lat="47.39237" lon="-2.29199">
        <ele>49</ele>
        <time>2019-09-22T08:37:11Z</time>
      </trkpt>
      <trkpt lat="47.39229" lon="-2.29195">
        <ele>49</ele>
        <time>2019-09-22T08:37:13Z</time>
      </trkpt>
      <trkpt lat="47.39221" lon="-2.29192">
        <ele>50</ele>
        <time>2019-09-22T08:37:15Z</time>
      </trkpt>
      <trkpt lat="47.39214" lon="-2.29195">
        <ele>50</ele>
        <time>2019-09-22T08:37:17Z</time>
      </trkpt>
      <trkpt lat="47.39203" lon="-2.29203">
        <ele>50</ele>
        <time>2019-09-22T08:37:20Z</time>
      </trkpt>
      <trkpt lat="47.39192" lon="-2.2921">
        <ele>51</ele>
        <time>2019-09-22T08:37:22Z</time>
      </trkpt>
      <trkpt lat="47.39188" lon="-2.29215">
        <ele>51</ele>
        <time>2019-09-22T08:37:23Z</time>
      </trkpt>
      <trkpt lat="47.39182" lon="-2.29223">
        <ele>52</ele>
        <time>2019-09-22T08:37:25Z</time>
      </trkpt>
      <trkpt lat="47.39178" lon="-2.29228">
        <ele>52</ele>
        <time>2019-09-22T08:37:29Z</time>
      </trkpt>
      <trkpt lat="47.39178" lon="-2.29228">
        <ele>2</ele>
        <time>2019-09-22T08:37:35Z</time>
      </trkpt>
      <trkpt lat="47.39178" lon="-2.29228">
        <ele>2</ele>
        <time>2019-09-22T08:38:20Z</time>
      </trkpt>
      <trkpt lat="47.39159" lon="-2.29248">
        <ele>58</ele>
        <time>2019-09-22T08:38:20Z</time>
      </trkpt>
      <trkpt lat="47.3915" lon="-2.29283">
        <ele>63</ele>
        <time>2019-09-22T08:38:27Z</time>
      </trkpt>
      <trkpt lat="47.39146" lon="-2.29288">
        <ele>65</ele>
        <time>2019-09-22T08:38:28Z</time>
      </trkpt>
      <trkpt lat="47.39142" lon="-2.29293">
        <ele>66</ele>
        <time>2019-09-22T08:38:29Z</time>
      </trkpt>
      <trkpt lat="47.39128" lon="-2.2931">
        <ele>65</ele>
        <time>2019-09-22T08:38:32Z</time>
      </trkpt>
      <trkpt lat="47.39123" lon="-2.29318">
        <ele>61</ele>
        <time>2019-09-22T08:38:33Z</time>
      </trkpt>
      <trkpt lat="47.3912" lon="-2.29327">
        <ele>61</ele>
        <time>2019-09-22T08:38:34Z</time>
      </trkpt>
      <trkpt lat="47.39111" lon="-2.29364">
        <ele>57</ele>
        <time>2019-09-22T08:38:38Z</time>
      </trkpt>
      <trkpt lat="47.39109" lon="-2.29371">
        <ele>56</ele>
        <time>2019-09-22T08:38:39Z</time>
      </trkpt>
      <trkpt lat="47.39107" lon="-2.29379">
        <ele>55</ele>
        <time>2019-09-22T08:38:40Z</time>
      </trkpt>
      <trkpt lat="47.39104" lon="-2.29386">
        <ele>55</ele>
        <time>2019-09-22T08:38:41Z</time>
      </trkpt>
      <trkpt lat="47.39102" lon="-2.29394">
        <ele>54</ele>
        <time>2019-09-22T08:38:42Z</time>
      </trkpt>
      <trkpt lat="47.391" lon="-2.29401">
        <ele>54</ele>
        <time>2019-09-22T08:38:43Z</time>
      </trkpt>
      <trkpt lat="47.39097" lon="-2.29409">
        <ele>53</ele>
        <time>2019-09-22T08:38:44Z</time>
      </trkpt>
      <trkpt lat="47.39095" lon="-2.29417">
        <ele>52</ele>
        <time>2019-09-22T08:38:45Z</time>
      </trkpt>
      <trkpt lat="47.3909" lon="-2.2943">
        <ele>52</ele>
        <time>2019-09-22T08:38:47Z</time>
      </trkpt>
      <trkpt lat="47.39085" lon="-2.29441">
        <ele>54</ele>
        <time>2019-09-22T08:38:49Z</time>
      </trkpt>
      <trkpt lat="47.39079" lon="-2.29451">
        <ele>55</ele>
        <time>2019-09-22T08:38:51Z</time>
      </trkpt>
      <trkpt lat="47.39076" lon="-2.29464">
        <ele>57</ele>
        <time>2019-09-22T08:38:53Z</time>
      </trkpt>
      <trkpt lat="47.39075" lon="-2.29471">
        <ele>57</ele>
        <time>2019-09-22T08:38:54Z</time>
      </trkpt>
      <trkpt lat="47.39072" lon="-2.29478">
        <ele>58</ele>
        <time>2019-09-22T08:38:55Z</time>
      </trkpt>
      <trkpt lat="47.39066" lon="-2.29491">
        <ele>59</ele>
        <time>2019-09-22T08:38:57Z</time>
      </trkpt>
      <trkpt lat="47.39063" lon="-2.29496">
        <ele>59</ele>
        <time>2019-09-22T08:38:58Z</time>
      </trkpt>
      <trkpt lat="47.39059" lon="-2.29501">
        <ele>59</ele>
        <time>2019-09-22T08:38:59Z</time>
      </trkpt>
      <trkpt lat="47.39055" lon="-2.29508">
        <ele>59</ele>
        <time>2019-09-22T08:39:00Z</time>
      </trkpt>
      <trkpt lat="47.39052" lon="-2.29515">
        <ele>59</ele>
        <time>2019-09-22T08:39:01Z</time>
      </trkpt>
      <trkpt lat="47.39047" lon="-2.29527">
        <ele>59</ele>
        <time>2019-09-22T08:39:03Z</time>
      </trkpt>
      <trkpt lat="47.39044" lon="-2.29533">
        <ele>59</ele>
        <time>2019-09-22T08:39:04Z</time>
      </trkpt>
      <trkpt lat="47.39042" lon="-2.29539">
        <ele>59</ele>
        <time>2019-09-22T08:39:05Z</time>
      </trkpt>
      <trkpt lat="47.39039" lon="-2.29544">
        <ele>60</ele>
        <time>2019-09-22T08:39:06Z</time>
      </trkpt>
      <trkpt lat="47.39037" lon="-2.29551">
        <ele>60</ele>
        <time>2019-09-22T08:39:07Z</time>
      </trkpt>
      <trkpt lat="47.39032" lon="-2.29564">
        <ele>59</ele>
        <time>2019-09-22T08:39:09Z</time>
      </trkpt>
      <trkpt lat="47.39029" lon="-2.29571">
        <ele>59</ele>
        <time>2019-09-22T08:39:10Z</time>
      </trkpt>
      <trkpt lat="47.39025" lon="-2.29575">
        <ele>59</ele>
        <time>2019-09-22T08:39:11Z</time>
      </trkpt>
      <trkpt lat="47.39021" lon="-2.29579">
        <ele>59</ele>
        <time>2019-09-22T08:39:12Z</time>
      </trkpt>
      <trkpt lat="47.39016" lon="-2.29583">
        <ele>60</ele>
        <time>2019-09-22T08:39:13Z</time>
      </trkpt>
      <trkpt lat="47.39011" lon="-2.29591">
        <ele>59</ele>
        <time>2019-09-22T08:39:15Z</time>
      </trkpt>
      <trkpt lat="47.39004" lon="-2.29597">
        <ele>59</ele>
        <time>2019-09-22T08:39:17Z</time>
      </trkpt>
      <trkpt lat="47.38997" lon="-2.29605">
        <ele>60</ele>
        <time>2019-09-22T08:39:19Z</time>
      </trkpt>
      <trkpt lat="47.38992" lon="-2.29609">
        <ele>58</ele>
        <time>2019-09-22T08:39:20Z</time>
      </trkpt>
      <trkpt lat="47.38987" lon="-2.29612">
        <ele>58</ele>
        <time>2019-09-22T08:39:21Z</time>
      </trkpt>
      <trkpt lat="47.38982" lon="-2.29614">
        <ele>57</ele>
        <time>2019-09-22T08:39:22Z</time>
      </trkpt>
      <trkpt lat="47.38978" lon="-2.29616">
        <ele>57</ele>
        <time>2019-09-22T08:39:23Z</time>
      </trkpt>
      <trkpt lat="47.3897" lon="-2.2962">
        <ele>58</ele>
        <time>2019-09-22T08:39:25Z</time>
      </trkpt>
      <trkpt lat="47.38962" lon="-2.29618">
        <ele>58</ele>
        <time>2019-09-22T08:39:27Z</time>
      </trkpt>
      <trkpt lat="47.38958" lon="-2.29611">
        <ele>58</ele>
        <time>2019-09-22T08:39:29Z</time>
      </trkpt>
      <trkpt lat="47.38954" lon="-2.29601">
        <ele>58</ele>
        <time>2019-09-22T08:39:31Z</time>
      </trkpt>
      <trkpt lat="47.38951" lon="-2.29596">
        <ele>58</ele>
        <time>2019-09-22T08:39:32Z</time>
      </trkpt>
      <trkpt lat="47.3894" lon="-2.29588">
        <ele>57</ele>
        <time>2019-09-22T08:39:35Z</time>
      </trkpt>
      <trkpt lat="47.38935" lon="-2.29586">
        <ele>57</ele>
        <time>2019-09-22T08:39:36Z</time>
      </trkpt>
      <trkpt lat="47.38931" lon="-2.29585">
        <ele>56</ele>
        <time>2019-09-22T08:39:37Z</time>
      </trkpt>
      <trkpt lat="47.38921" lon="-2.29574">
        <ele>56</ele>
        <time>2019-09-22T08:39:41Z</time>
      </trkpt>
      <trkpt lat="47.38915" lon="-2.29562">
        <ele>57</ele>
        <time>2019-09-22T08:39:44Z</time>
      </trkpt>
      <trkpt lat="47.38914" lon="-2.29558">
        <ele>58</ele>
        <time>2019-09-22T08:39:45Z</time>
      </trkpt>
      <trkpt lat="47.38909" lon="-2.2955">
        <ele>58</ele>
        <time>2019-09-22T08:39:47Z</time>
      </trkpt>
      <trkpt lat="47.38906" lon="-2.29545">
        <ele>59</ele>
        <time>2019-09-22T08:39:48Z</time>
      </trkpt>
      <trkpt lat="47.389" lon="-2.2954">
        <ele>60</ele>
        <time>2019-09-22T08:39:50Z</time>
      </trkpt>
      <trkpt lat="47.38896" lon="-2.29536">
        <ele>64</ele>
        <time>2019-09-22T08:39:55Z</time>
      </trkpt>
      <trkpt lat="47.38889" lon="-2.29538">
        <ele>63</ele>
        <time>2019-09-22T08:40:01Z</time>
      </trkpt>
      <trkpt lat="47.38884" lon="-2.29527">
        <ele>65</ele>
        <time>2019-09-22T08:40:08Z</time>
      </trkpt>
      <trkpt lat="47.38877" lon="-2.29539">
        <ele>62</ele>
        <time>2019-09-22T08:40:16Z</time>
      </trkpt>
      <trkpt lat="47.38867" lon="-2.29545">
        <ele>59</ele>
        <time>2019-09-22T08:40:21Z</time>
      </trkpt>
      <trkpt lat="47.3886" lon="-2.29551">
        <ele>57</ele>
        <time>2019-09-22T08:40:24Z</time>
      </trkpt>
      <trkpt lat="47.38854" lon="-2.29555">
        <ele>55</ele>
        <time>2019-09-22T08:40:26Z</time>
      </trkpt>
      <trkpt lat="47.38848" lon="-2.29561">
        <ele>55</ele>
        <time>2019-09-22T08:40:29Z</time>
      </trkpt>
      <trkpt lat="47.38844" lon="-2.29566">
        <ele>55</ele>
        <time>2019-09-22T08:40:30Z</time>
      </trkpt>
      <trkpt lat="47.38834" lon="-2.29571">
        <ele>55</ele>
        <time>2019-09-22T08:40:33Z</time>
      </trkpt>
      <trkpt lat="47.38829" lon="-2.29576">
        <ele>57</ele>
        <time>2019-09-22T08:40:36Z</time>
      </trkpt>
      <trkpt lat="47.38819" lon="-2.29581">
        <ele>58</ele>
        <time>2019-09-22T08:40:40Z</time>
      </trkpt>
      <trkpt lat="47.38812" lon="-2.29585">
        <ele>58</ele>
        <time>2019-09-22T08:40:41Z</time>
      </trkpt>
      <trkpt lat="47.38806" lon="-2.29587">
        <ele>57</ele>
        <time>2019-09-22T08:40:42Z</time>
      </trkpt>
      <trkpt lat="47.38799" lon="-2.2959">
        <ele>57</ele>
        <time>2019-09-22T08:40:43Z</time>
      </trkpt>
      <trkpt lat="47.38793" lon="-2.29594">
        <ele>57</ele>
        <time>2019-09-22T08:40:44Z</time>
      </trkpt>
      <trkpt lat="47.38786" lon="-2.29599">
        <ele>56</ele>
        <time>2019-09-22T08:40:45Z</time>
      </trkpt>
      <trkpt lat="47.38781" lon="-2.29603">
        <ele>57</ele>
        <time>2019-09-22T08:40:46Z</time>
      </trkpt>
      <trkpt lat="47.38775" lon="-2.29609">
        <ele>56</ele>
        <time>2019-09-22T08:40:47Z</time>
      </trkpt>
      <trkpt lat="47.3877" lon="-2.29614">
        <ele>56</ele>
        <time>2019-09-22T08:40:48Z</time>
      </trkpt>
      <trkpt lat="47.38761" lon="-2.29628">
        <ele>55</ele>
        <time>2019-09-22T08:40:50Z</time>
      </trkpt>
      <trkpt lat="47.38758" lon="-2.29635">
        <ele>55</ele>
        <time>2019-09-22T08:40:51Z</time>
      </trkpt>
      <trkpt lat="47.38755" lon="-2.29642">
        <ele>54</ele>
        <time>2019-09-22T08:40:52Z</time>
      </trkpt>
      <trkpt lat="47.38751" lon="-2.29649">
        <ele>54</ele>
        <time>2019-09-22T08:40:53Z</time>
      </trkpt>
      <trkpt lat="47.38746" lon="-2.29653">
        <ele>54</ele>
        <time>2019-09-22T08:40:54Z</time>
      </trkpt>
      <trkpt lat="47.38741" lon="-2.29656">
        <ele>54</ele>
        <time>2019-09-22T08:40:55Z</time>
      </trkpt>
      <trkpt lat="47.38736" lon="-2.29658">
        <ele>54</ele>
        <time>2019-09-22T08:40:56Z</time>
      </trkpt>
      <trkpt lat="47.3873" lon="-2.29659">
        <ele>54</ele>
        <time>2019-09-22T08:40:57Z</time>
      </trkpt>
      <trkpt lat="47.38725" lon="-2.2966">
        <ele>54</ele>
        <time>2019-09-22T08:40:58Z</time>
      </trkpt>
      <trkpt lat="47.3872" lon="-2.29662">
        <ele>54</ele>
        <time>2019-09-22T08:40:59Z</time>
      </trkpt>
      <trkpt lat="47.38714" lon="-2.29663">
        <ele>54</ele>
        <time>2019-09-22T08:41:00Z</time>
      </trkpt>
      <trkpt lat="47.38691" lon="-2.29666">
        <ele>53</ele>
        <time>2019-09-22T08:41:04Z</time>
      </trkpt>
      <trkpt lat="47.38686" lon="-2.29666">
        <ele>53</ele>
        <time>2019-09-22T08:41:05Z</time>
      </trkpt>
      <trkpt lat="47.38679" lon="-2.29666">
        <ele>53</ele>
        <time>2019-09-22T08:41:06Z</time>
      </trkpt>
      <trkpt lat="47.38673" lon="-2.29667">
        <ele>53</ele>
        <time>2019-09-22T08:41:07Z</time>
      </trkpt>
      <trkpt lat="47.38668" lon="-2.29667">
        <ele>52</ele>
        <time>2019-09-22T08:41:08Z</time>
      </trkpt>
      <trkpt lat="47.38657" lon="-2.29672">
        <ele>52</ele>
        <time>2019-09-22T08:41:10Z</time>
      </trkpt>
      <trkpt lat="47.38638" lon="-2.29681">
        <ele>51</ele>
        <time>2019-09-22T08:41:14Z</time>
      </trkpt>
      <trkpt lat="47.3863" lon="-2.29684">
        <ele>51</ele>
        <time>2019-09-22T08:41:16Z</time>
      </trkpt>
      <trkpt lat="47.38625" lon="-2.29687">
        <ele>51</ele>
        <time>2019-09-22T08:41:17Z</time>
      </trkpt>
      <trkpt lat="47.38617" lon="-2.29692">
        <ele>51</ele>
        <time>2019-09-22T08:41:19Z</time>
      </trkpt>
      <trkpt lat="47.386" lon="-2.29694">
        <ele>52</ele>
        <time>2019-09-22T08:41:22Z</time>
      </trkpt>
      <trkpt lat="47.38595" lon="-2.29696">
        <ele>52</ele>
        <time>2019-09-22T08:41:23Z</time>
      </trkpt>
      <trkpt lat="47.38585" lon="-2.29699">
        <ele>52</ele>
        <time>2019-09-22T08:41:25Z</time>
      </trkpt>
      <trkpt lat="47.38576" lon="-2.29703">
        <ele>53</ele>
        <time>2019-09-22T08:41:28Z</time>
      </trkpt>
      <trkpt lat="47.38572" lon="-2.29705">
        <ele>54</ele>
        <time>2019-09-22T08:41:31Z</time>
      </trkpt>
      <trkpt lat="47.38572" lon="-2.29705">
        <ele>1.6</ele>
        <time>2019-09-22T08:41:36Z</time>
      </trkpt>
      <trkpt lat="47.38572" lon="-2.29705">
        <ele>1.6</ele>
        <time>2019-09-22T08:41:58Z</time>
      </trkpt>
      <trkpt lat="47.38561" lon="-2.29699">
        <ele>55</ele>
        <time>2019-09-22T08:41:58Z</time>
      </trkpt>
      <trkpt lat="47.38535" lon="-2.29706">
        <ele>56</ele>
        <time>2019-09-22T08:42:05Z</time>
      </trkpt>
      <trkpt lat="47.3853" lon="-2.29704">
        <ele>54</ele>
        <time>2019-09-22T08:42:06Z</time>
      </trkpt>
      <trkpt lat="47.3852" lon="-2.29705">
        <ele>60</ele>
        <time>2019-09-22T08:42:08Z</time>
      </trkpt>
      <trkpt lat="47.38513" lon="-2.29707">
        <ele>56</ele>
        <time>2019-09-22T08:42:09Z</time>
      </trkpt>
      <trkpt lat="47.38508" lon="-2.29706">
        <ele>58</ele>
        <time>2019-09-22T08:42:10Z</time>
      </trkpt>
      <trkpt lat="47.385" lon="-2.29706">
        <ele>56</ele>
        <time>2019-09-22T08:42:11Z</time>
      </trkpt>
      <trkpt lat="47.38487" lon="-2.29707">
        <ele>55</ele>
        <time>2019-09-22T08:42:13Z</time>
      </trkpt>
      <trkpt lat="47.3848" lon="-2.29707">
        <ele>54</ele>
        <time>2019-09-22T08:42:14Z</time>
      </trkpt>
      <trkpt lat="47.38473" lon="-2.29707">
        <ele>53</ele>
        <time>2019-09-22T08:42:15Z</time>
      </trkpt>
      <trkpt lat="47.38465" lon="-2.29709">
        <ele>52</ele>
        <time>2019-09-22T08:42:16Z</time>
      </trkpt>
      <trkpt lat="47.38458" lon="-2.2971">
        <ele>52</ele>
        <time>2019-09-22T08:42:17Z</time>
      </trkpt>
      <trkpt lat="47.38451" lon="-2.29712">
        <ele>51</ele>
        <time>2019-09-22T08:42:18Z</time>
      </trkpt>
      <trkpt lat="47.38438" lon="-2.29717">
        <ele>53</ele>
        <time>2019-09-22T08:42:20Z</time>
      </trkpt>
      <trkpt lat="47.38433" lon="-2.29723">
        <ele>54</ele>
        <time>2019-09-22T08:42:21Z</time>
      </trkpt>
      <trkpt lat="47.3843" lon="-2.2973">
        <ele>56</ele>
        <time>2019-09-22T08:42:22Z</time>
      </trkpt>
      <trkpt lat="47.38427" lon="-2.29737">
        <ele>59</ele>
        <time>2019-09-22T08:42:23Z</time>
      </trkpt>
      <trkpt lat="47.38425" lon="-2.29743">
        <ele>61</ele>
        <time>2019-09-22T08:42:24Z</time>
      </trkpt>
      <trkpt lat="47.38423" lon="-2.29751">
        <ele>64</ele>
        <time>2019-09-22T08:42:25Z</time>
      </trkpt>
      <trkpt lat="47.38422" lon="-2.29758">
        <ele>68</ele>
        <time>2019-09-22T08:42:26Z</time>
      </trkpt>
      <trkpt lat="47.38418" lon="-2.29765">
        <ele>69</ele>
        <time>2019-09-22T08:42:27Z</time>
      </trkpt>
      <trkpt lat="47.38414" lon="-2.29771">
        <ele>70</ele>
        <time>2019-09-22T08:42:28Z</time>
      </trkpt>
      <trkpt lat="47.38409" lon="-2.29778">
        <ele>70</ele>
        <time>2019-09-22T08:42:29Z</time>
      </trkpt>
      <trkpt lat="47.38404" lon="-2.29785">
        <ele>68</ele>
        <time>2019-09-22T08:42:30Z</time>
      </trkpt>
      <trkpt lat="47.38399" lon="-2.2979">
        <ele>67</ele>
        <time>2019-09-22T08:42:31Z</time>
      </trkpt>
      <trkpt lat="47.38392" lon="-2.29794">
        <ele>65</ele>
        <time>2019-09-22T08:42:32Z</time>
      </trkpt>
      <trkpt lat="47.38386" lon="-2.29798">
        <ele>63</ele>
        <time>2019-09-22T08:42:33Z</time>
      </trkpt>
      <trkpt lat="47.38382" lon="-2.298">
        <ele>62</ele>
        <time>2019-09-22T08:42:34Z</time>
      </trkpt>
      <trkpt lat="47.38377" lon="-2.298">
        <ele>60</ele>
        <time>2019-09-22T08:42:35Z</time>
      </trkpt>
      <trkpt lat="47.3837" lon="-2.29797">
        <ele>59</ele>
        <time>2019-09-22T08:42:37Z</time>
      </trkpt>
      <trkpt lat="47.38363" lon="-2.29792">
        <ele>57</ele>
        <time>2019-09-22T08:42:40Z</time>
      </trkpt>
      <trkpt lat="47.3836" lon="-2.2979">
        <ele>56</ele>
        <time>2019-09-22T08:42:42Z</time>
      </trkpt>
      <trkpt lat="47.38358" lon="-2.29788">
        <ele>55</ele>
        <time>2019-09-22T08:42:45Z</time>
      </trkpt>
      <trkpt lat="47.38358" lon="-2.29788">
        <ele>55</ele>
        <time>2019-09-22T08:42:52Z</time>
      </trkpt>
      <trkpt lat="47.38358" lon="-2.29788">
        <ele>1.3</ele>
        <time>2019-09-22T08:42:52Z</time>
      </trkpt>
      <trkpt lat="47.38358" lon="-2.29788">
        <ele>1.3</ele>
        <time>2019-09-22T08:43:03Z</time>
      </trkpt>
      <trkpt lat="47.38346" lon="-2.2978">
        <ele>55</ele>
        <time>2019-09-22T08:43:03Z</time>
      </trkpt>
      <trkpt lat="47.38315" lon="-2.29773">
        <ele>46</ele>
        <time>2019-09-22T08:43:10Z</time>
      </trkpt>
      <trkpt lat="47.3831" lon="-2.29771">
        <ele>46</ele>
        <time>2019-09-22T08:43:11Z</time>
      </trkpt>
      <trkpt lat="47.38304" lon="-2.2977">
        <ele>47</ele>
        <time>2019-09-22T08:43:13Z</time>
      </trkpt>
      <trkpt lat="47.38299" lon="-2.29769">
        <ele>46</ele>
        <time>2019-09-22T08:43:14Z</time>
      </trkpt>
      <trkpt lat="47.38295" lon="-2.29768">
        <ele>46</ele>
        <time>2019-09-22T08:43:15Z</time>
      </trkpt>
      <trkpt lat="47.3829" lon="-2.29766">
        <ele>47</ele>
        <time>2019-09-22T08:43:16Z</time>
      </trkpt>
      <trkpt lat="47.38285" lon="-2.29764">
        <ele>47</ele>
        <time>2019-09-22T08:43:17Z</time>
      </trkpt>
      <trkpt lat="47.3828" lon="-2.29762">
        <ele>47</ele>
        <time>2019-09-22T08:43:18Z</time>
      </trkpt>
      <trkpt lat="47.38276" lon="-2.2976">
        <ele>47</ele>
        <time>2019-09-22T08:43:19Z</time>
      </trkpt>
      <trkpt lat="47.38271" lon="-2.29759">
        <ele>47</ele>
        <time>2019-09-22T08:43:20Z</time>
      </trkpt>
      <trkpt lat="47.38266" lon="-2.29757">
        <ele>47</ele>
        <time>2019-09-22T08:43:21Z</time>
      </trkpt>
      <trkpt lat="47.38261" lon="-2.29755">
        <ele>48</ele>
        <time>2019-09-22T08:43:22Z</time>
      </trkpt>
      <trkpt lat="47.38256" lon="-2.29754">
        <ele>48</ele>
        <time>2019-09-22T08:43:23Z</time>
      </trkpt>
      <trkpt lat="47.38251" lon="-2.29752">
        <ele>47</ele>
        <time>2019-09-22T08:43:24Z</time>
      </trkpt>
      <trkpt lat="47.38246" lon="-2.29751">
        <ele>47</ele>
        <time>2019-09-22T08:43:25Z</time>
      </trkpt>
      <trkpt lat="47.38237" lon="-2.29748">
        <ele>48</ele>
        <time>2019-09-22T08:43:27Z</time>
      </trkpt>
      <trkpt lat="47.38232" lon="-2.29745">
        <ele>48</ele>
        <time>2019-09-22T08:43:28Z</time>
      </trkpt>
      <trkpt lat="47.38227" lon="-2.29743">
        <ele>48</ele>
        <time>2019-09-22T08:43:29Z</time>
      </trkpt>
      <trkpt lat="47.38218" lon="-2.2974">
        <ele>48</ele>
        <time>2019-09-22T08:43:31Z</time>
      </trkpt>
      <trkpt lat="47.38209" lon="-2.29738">
        <ele>48</ele>
        <time>2019-09-22T08:43:33Z</time>
      </trkpt>
      <trkpt lat="47.38201" lon="-2.29736">
        <ele>48</ele>
        <time>2019-09-22T08:43:34Z</time>
      </trkpt>
      <trkpt lat="47.38196" lon="-2.29734">
        <ele>48</ele>
        <time>2019-09-22T08:43:35Z</time>
      </trkpt>
      <trkpt lat="47.38188" lon="-2.29732">
        <ele>48</ele>
        <time>2019-09-22T08:43:37Z</time>
      </trkpt>
      <trkpt lat="47.38184" lon="-2.29731">
        <ele>48</ele>
        <time>2019-09-22T08:43:38Z</time>
      </trkpt>
      <trkpt lat="47.38179" lon="-2.2973">
        <ele>48</ele>
        <time>2019-09-22T08:43:39Z</time>
      </trkpt>
      <trkpt lat="47.38174" lon="-2.29728">
        <ele>48</ele>
        <time>2019-09-22T08:43:40Z</time>
      </trkpt>
      <trkpt lat="47.3817" lon="-2.29727">
        <ele>48</ele>
        <time>2019-09-22T08:43:41Z</time>
      </trkpt>
      <trkpt lat="47.38165" lon="-2.29726">
        <ele>48</ele>
        <time>2019-09-22T08:43:42Z</time>
      </trkpt>
      <trkpt lat="47.38156" lon="-2.29723">
        <ele>48</ele>
        <time>2019-09-22T08:43:45Z</time>
      </trkpt>
      <trkpt lat="47.38151" lon="-2.2972">
        <ele>49</ele>
        <time>2019-09-22T08:43:46Z</time>
      </trkpt>
      <trkpt lat="47.38147" lon="-2.29718">
        <ele>49</ele>
        <time>2019-09-22T08:43:47Z</time>
      </trkpt>
      <trkpt lat="47.38143" lon="-2.29716">
        <ele>49</ele>
        <time>2019-09-22T08:43:48Z</time>
      </trkpt>
      <trkpt lat="47.38136" lon="-2.29715">
        <ele>49</ele>
        <time>2019-09-22T08:43:50Z</time>
      </trkpt>
      <trkpt lat="47.3813" lon="-2.29711">
        <ele>49</ele>
        <time>2019-09-22T08:43:52Z</time>
      </trkpt>
      <trkpt lat="47.38123" lon="-2.29709">
        <ele>49</ele>
        <time>2019-09-22T08:43:54Z</time>
      </trkpt>
      <trkpt lat="47.38116" lon="-2.29707">
        <ele>50</ele>
        <time>2019-09-22T08:43:56Z</time>
      </trkpt>
      <trkpt lat="47.38113" lon="-2.29705">
        <ele>49</ele>
        <time>2019-09-22T08:43:57Z</time>
      </trkpt>
      <trkpt lat="47.38109" lon="-2.29705">
        <ele>49</ele>
        <time>2019-09-22T08:43:58Z</time>
      </trkpt>
      <trkpt lat="47.38105" lon="-2.29704">
        <ele>49</ele>
        <time>2019-09-22T08:43:59Z</time>
      </trkpt>
      <trkpt lat="47.38101" lon="-2.29703">
        <ele>49</ele>
        <time>2019-09-22T08:44:00Z</time>
      </trkpt>
      <trkpt lat="47.38096" lon="-2.29702">
        <ele>49</ele>
        <time>2019-09-22T08:44:01Z</time>
      </trkpt>
      <trkpt lat="47.38088" lon="-2.297">
        <ele>50</ele>
        <time>2019-09-22T08:44:03Z</time>
      </trkpt>
      <trkpt lat="47.38085" lon="-2.29699">
        <ele>50</ele>
        <time>2019-09-22T08:44:04Z</time>
      </trkpt>
      <trkpt lat="47.38081" lon="-2.29698">
        <ele>49</ele>
        <time>2019-09-22T08:44:05Z</time>
      </trkpt>
      <trkpt lat="47.38075" lon="-2.29696">
        <ele>50</ele>
        <time>2019-09-22T08:44:07Z</time>
      </trkpt>
      <trkpt lat="47.38065" lon="-2.29695">
        <ele>50</ele>
        <time>2019-09-22T08:44:10Z</time>
      </trkpt>
      <trkpt lat="47.38061" lon="-2.29695">
        <ele>50</ele>
        <time>2019-09-22T08:44:11Z</time>
      </trkpt>
      <trkpt lat="47.38057" lon="-2.29695">
        <ele>50</ele>
        <time>2019-09-22T08:44:12Z</time>
      </trkpt>
      <trkpt lat="47.38053" lon="-2.29695">
        <ele>50</ele>
        <time>2019-09-22T08:44:13Z</time>
      </trkpt>
      <trkpt lat="47.38045" lon="-2.29694">
        <ele>49</ele>
        <time>2019-09-22T08:44:15Z</time>
      </trkpt>
      <trkpt lat="47.38038" lon="-2.29693">
        <ele>48</ele>
        <time>2019-09-22T08:44:17Z</time>
      </trkpt>
      <trkpt lat="47.38032" lon="-2.29689">
        <ele>49</ele>
        <time>2019-09-22T08:44:19Z</time>
      </trkpt>
      <trkpt lat="47.37974" lon="-2.29684">
        <ele>50</ele>
        <time>2019-09-22T08:44:31Z</time>
      </trkpt>
      <trkpt lat="47.37968" lon="-2.29685">
        <ele>47</ele>
        <time>2019-09-22T08:44:32Z</time>
      </trkpt>
      <trkpt lat="47.37961" lon="-2.29687">
        <ele>43</ele>
        <time>2019-09-22T08:44:33Z</time>
      </trkpt>
      <trkpt lat="47.37956" lon="-2.29688">
        <ele>45</ele>
        <time>2019-09-22T08:44:34Z</time>
      </trkpt>
      <trkpt lat="47.37952" lon="-2.29688">
        <ele>46</ele>
        <time>2019-09-22T08:44:35Z</time>
      </trkpt>
      <trkpt lat="47.37947" lon="-2.29689">
        <ele>46</ele>
        <time>2019-09-22T08:44:36Z</time>
      </trkpt>
      <trkpt lat="47.37934" lon="-2.29694">
        <ele>48</ele>
        <time>2019-09-22T08:44:39Z</time>
      </trkpt>
      <trkpt lat="47.37929" lon="-2.29695">
        <ele>50</ele>
        <time>2019-09-22T08:44:40Z</time>
      </trkpt>
      <trkpt lat="47.3792" lon="-2.29698">
        <ele>51</ele>
        <time>2019-09-22T08:44:42Z</time>
      </trkpt>
      <trkpt lat="47.37912" lon="-2.297">
        <ele>53</ele>
        <time>2019-09-22T08:44:44Z</time>
      </trkpt>
      <trkpt lat="47.37908" lon="-2.29701">
        <ele>54</ele>
        <time>2019-09-22T08:44:45Z</time>
      </trkpt>
      <trkpt lat="47.379" lon="-2.29706">
        <ele>55</ele>
        <time>2019-09-22T08:44:47Z</time>
      </trkpt>
      <trkpt lat="47.37895" lon="-2.29708">
        <ele>55</ele>
        <time>2019-09-22T08:44:48Z</time>
      </trkpt>
      <trkpt lat="47.37891" lon="-2.29709">
        <ele>57</ele>
        <time>2019-09-22T08:44:49Z</time>
      </trkpt>
      <trkpt lat="47.37888" lon="-2.2971">
        <ele>58</ele>
        <time>2019-09-22T08:44:50Z</time>
      </trkpt>
      <trkpt lat="47.37885" lon="-2.29711">
        <ele>60</ele>
        <time>2019-09-22T08:44:51Z</time>
      </trkpt>
      <trkpt lat="47.37877" lon="-2.2971">
        <ele>62</ele>
        <time>2019-09-22T08:44:53Z</time>
      </trkpt>
      <trkpt lat="47.37873" lon="-2.2971">
        <ele>63</ele>
        <time>2019-09-22T08:44:54Z</time>
      </trkpt>
      <trkpt lat="47.37868" lon="-2.2971">
        <ele>63</ele>
        <time>2019-09-22T08:44:55Z</time>
      </trkpt>
      <trkpt lat="47.37863" lon="-2.2971">
        <ele>62</ele>
        <time>2019-09-22T08:44:56Z</time>
      </trkpt>
      <trkpt lat="47.37858" lon="-2.29711">
        <ele>61</ele>
        <time>2019-09-22T08:44:57Z</time>
      </trkpt>
      <trkpt lat="47.37853" lon="-2.29712">
        <ele>60</ele>
        <time>2019-09-22T08:44:58Z</time>
      </trkpt>
      <trkpt lat="47.37848" lon="-2.29713">
        <ele>59</ele>
        <time>2019-09-22T08:44:59Z</time>
      </trkpt>
      <trkpt lat="47.37842" lon="-2.29715">
        <ele>56</ele>
        <time>2019-09-22T08:45:00Z</time>
      </trkpt>
      <trkpt lat="47.37836" lon="-2.29716">
        <ele>55</ele>
        <time>2019-09-22T08:45:01Z</time>
      </trkpt>
      <trkpt lat="47.37831" lon="-2.29718">
        <ele>54</ele>
        <time>2019-09-22T08:45:02Z</time>
      </trkpt>
      <trkpt lat="47.37825" lon="-2.2972">
        <ele>52</ele>
        <time>2019-09-22T08:45:03Z</time>
      </trkpt>
      <trkpt lat="47.3782" lon="-2.29723">
        <ele>52</ele>
        <time>2019-09-22T08:45:04Z</time>
      </trkpt>
      <trkpt lat="47.37815" lon="-2.29726">
        <ele>51</ele>
        <time>2019-09-22T08:45:05Z</time>
      </trkpt>
      <trkpt lat="47.3781" lon="-2.29728">
        <ele>50</ele>
        <time>2019-09-22T08:45:06Z</time>
      </trkpt>
      <trkpt lat="47.37805" lon="-2.29731">
        <ele>50</ele>
        <time>2019-09-22T08:45:07Z</time>
      </trkpt>
      <trkpt lat="47.37795" lon="-2.29739">
        <ele>49</ele>
        <time>2019-09-22T08:45:09Z</time>
      </trkpt>
      <trkpt lat="47.37791" lon="-2.29742">
        <ele>49</ele>
        <time>2019-09-22T08:45:10Z</time>
      </trkpt>
      <trkpt lat="47.37786" lon="-2.29745">
        <ele>49</ele>
        <time>2019-09-22T08:45:11Z</time>
      </trkpt>
      <trkpt lat="47.37782" lon="-2.29748">
        <ele>48</ele>
        <time>2019-09-22T08:45:12Z</time>
      </trkpt>
      <trkpt lat="47.37774" lon="-2.29754">
        <ele>48</ele>
        <time>2019-09-22T08:45:14Z</time>
      </trkpt>
      <trkpt lat="47.3777" lon="-2.29757">
        <ele>48</ele>
        <time>2019-09-22T08:45:15Z</time>
      </trkpt>
      <trkpt lat="47.37766" lon="-2.2976">
        <ele>48</ele>
        <time>2019-09-22T08:45:16Z</time>
      </trkpt>
      <trkpt lat="47.37759" lon="-2.29773">
        <ele>48</ele>
        <time>2019-09-22T08:45:19Z</time>
      </trkpt>
      <trkpt lat="47.37757" lon="-2.29784">
        <ele>49</ele>
        <time>2019-09-22T08:45:21Z</time>
      </trkpt>
      <trkpt lat="47.37755" lon="-2.29796">
        <ele>48</ele>
        <time>2019-09-22T08:45:23Z</time>
      </trkpt>
      <trkpt lat="47.37754" lon="-2.29802">
        <ele>48</ele>
        <time>2019-09-22T08:45:24Z</time>
      </trkpt>
      <trkpt lat="47.37752" lon="-2.29808">
        <ele>48</ele>
        <time>2019-09-22T08:45:25Z</time>
      </trkpt>
      <trkpt lat="47.37751" lon="-2.29814">
        <ele>49</ele>
        <time>2019-09-22T08:45:26Z</time>
      </trkpt>
      <trkpt lat="47.37748" lon="-2.29822">
        <ele>48</ele>
        <time>2019-09-22T08:45:27Z</time>
      </trkpt>
      <trkpt lat="47.37745" lon="-2.29828">
        <ele>48</ele>
        <time>2019-09-22T08:45:28Z</time>
      </trkpt>
      <trkpt lat="47.37742" lon="-2.29835">
        <ele>49</ele>
        <time>2019-09-22T08:45:29Z</time>
      </trkpt>
      <trkpt lat="47.37739" lon="-2.29842">
        <ele>48</ele>
        <time>2019-09-22T08:45:30Z</time>
      </trkpt>
      <trkpt lat="47.37728" lon="-2.29857">
        <ele>48</ele>
        <time>2019-09-22T08:45:33Z</time>
      </trkpt>
      <trkpt lat="47.37724" lon="-2.2986">
        <ele>49</ele>
        <time>2019-09-22T08:45:34Z</time>
      </trkpt>
      <trkpt lat="47.37719" lon="-2.29863">
        <ele>48</ele>
        <time>2019-09-22T08:45:35Z</time>
      </trkpt>
      <trkpt lat="47.37715" lon="-2.29865">
        <ele>48</ele>
        <time>2019-09-22T08:45:36Z</time>
      </trkpt>
      <trkpt lat="47.37706" lon="-2.29873">
        <ele>48</ele>
        <time>2019-09-22T08:45:38Z</time>
      </trkpt>
      <trkpt lat="47.37701" lon="-2.29876">
        <ele>48</ele>
        <time>2019-09-22T08:45:39Z</time>
      </trkpt>
      <trkpt lat="47.37692" lon="-2.29881">
        <ele>48</ele>
        <time>2019-09-22T08:45:41Z</time>
      </trkpt>
      <trkpt lat="47.37688" lon="-2.29884">
        <ele>48</ele>
        <time>2019-09-22T08:45:42Z</time>
      </trkpt>
      <trkpt lat="47.37683" lon="-2.29888">
        <ele>48</ele>
        <time>2019-09-22T08:45:43Z</time>
      </trkpt>
      <trkpt lat="47.37671" lon="-2.29898">
        <ele>48</ele>
        <time>2019-09-22T08:45:46Z</time>
      </trkpt>
      <trkpt lat="47.37667" lon="-2.29901">
        <ele>48</ele>
        <time>2019-09-22T08:45:47Z</time>
      </trkpt>
      <trkpt lat="47.37662" lon="-2.29905">
        <ele>48</ele>
        <time>2019-09-22T08:45:48Z</time>
      </trkpt>
      <trkpt lat="47.37658" lon="-2.29909">
        <ele>48</ele>
        <time>2019-09-22T08:45:49Z</time>
      </trkpt>
      <trkpt lat="47.37653" lon="-2.29913">
        <ele>48</ele>
        <time>2019-09-22T08:45:50Z</time>
      </trkpt>
      <trkpt lat="47.37649" lon="-2.29918">
        <ele>48</ele>
        <time>2019-09-22T08:45:51Z</time>
      </trkpt>
      <trkpt lat="47.37645" lon="-2.29923">
        <ele>48</ele>
        <time>2019-09-22T08:45:52Z</time>
      </trkpt>
      <trkpt lat="47.3764" lon="-2.29927">
        <ele>47</ele>
        <time>2019-09-22T08:45:53Z</time>
      </trkpt>
      <trkpt lat="47.37637" lon="-2.29931">
        <ele>47</ele>
        <time>2019-09-22T08:45:54Z</time>
      </trkpt>
      <trkpt lat="47.37632" lon="-2.29935">
        <ele>47</ele>
        <time>2019-09-22T08:45:55Z</time>
      </trkpt>
      <trkpt lat="47.37628" lon="-2.29939">
        <ele>47</ele>
        <time>2019-09-22T08:45:56Z</time>
      </trkpt>
      <trkpt lat="47.37625" lon="-2.29943">
        <ele>47</ele>
        <time>2019-09-22T08:45:57Z</time>
      </trkpt>
      <trkpt lat="47.37618" lon="-2.29951">
        <ele>47</ele>
        <time>2019-09-22T08:45:59Z</time>
      </trkpt>
      <trkpt lat="47.37615" lon="-2.29955">
        <ele>47</ele>
        <time>2019-09-22T08:46:00Z</time>
      </trkpt>
      <trkpt lat="47.37612" lon="-2.29959">
        <ele>47</ele>
        <time>2019-09-22T08:46:01Z</time>
      </trkpt>
      <trkpt lat="47.37605" lon="-2.29967">
        <ele>47</ele>
        <time>2019-09-22T08:46:03Z</time>
      </trkpt>
      <trkpt lat="47.37597" lon="-2.29974">
        <ele>47</ele>
        <time>2019-09-22T08:46:05Z</time>
      </trkpt>
      <trkpt lat="47.37586" lon="-2.29985">
        <ele>47</ele>
        <time>2019-09-22T08:46:08Z</time>
      </trkpt>
      <trkpt lat="47.37583" lon="-2.29989">
        <ele>47</ele>
        <time>2019-09-22T08:46:09Z</time>
      </trkpt>
      <trkpt lat="47.37579" lon="-2.29993">
        <ele>47</ele>
        <time>2019-09-22T08:46:10Z</time>
      </trkpt>
      <trkpt lat="47.37576" lon="-2.29997">
        <ele>48</ele>
        <time>2019-09-22T08:46:11Z</time>
      </trkpt>
      <trkpt lat="47.37572" lon="-2.30001">
        <ele>48</ele>
        <time>2019-09-22T08:46:12Z</time>
      </trkpt>
      <trkpt lat="47.37569" lon="-2.30005">
        <ele>48</ele>
        <time>2019-09-22T08:46:13Z</time>
      </trkpt>
      <trkpt lat="47.37565" lon="-2.30009">
        <ele>48</ele>
        <time>2019-09-22T08:46:14Z</time>
      </trkpt>
      <trkpt lat="47.37562" lon="-2.30013">
        <ele>48</ele>
        <time>2019-09-22T08:46:15Z</time>
      </trkpt>
      <trkpt lat="47.37559" lon="-2.30016">
        <ele>48</ele>
        <time>2019-09-22T08:46:16Z</time>
      </trkpt>
      <trkpt lat="47.37556" lon="-2.3002">
        <ele>48</ele>
        <time>2019-09-22T08:46:17Z</time>
      </trkpt>
      <trkpt lat="47.37552" lon="-2.30024">
        <ele>48</ele>
        <time>2019-09-22T08:46:18Z</time>
      </trkpt>
      <trkpt lat="47.37544" lon="-2.3003">
        <ele>48</ele>
        <time>2019-09-22T08:46:20Z</time>
      </trkpt>
      <trkpt lat="47.3754" lon="-2.30034">
        <ele>47</ele>
        <time>2019-09-22T08:46:21Z</time>
      </trkpt>
      <trkpt lat="47.37533" lon="-2.30041">
        <ele>47</ele>
        <time>2019-09-22T08:46:23Z</time>
      </trkpt>
      <trkpt lat="47.37526" lon="-2.3005">
        <ele>47</ele>
        <time>2019-09-22T08:46:25Z</time>
      </trkpt>
      <trkpt lat="47.37517" lon="-2.30063">
        <ele>47</ele>
        <time>2019-09-22T08:46:28Z</time>
      </trkpt>
      <trkpt lat="47.37511" lon="-2.30072">
        <ele>47</ele>
        <time>2019-09-22T08:46:30Z</time>
      </trkpt>
      <trkpt lat="47.37508" lon="-2.30076">
        <ele>47</ele>
        <time>2019-09-22T08:46:31Z</time>
      </trkpt>
      <trkpt lat="47.37505" lon="-2.3008">
        <ele>47</ele>
        <time>2019-09-22T08:46:32Z</time>
      </trkpt>
      <trkpt lat="47.37499" lon="-2.30086">
        <ele>47</ele>
        <time>2019-09-22T08:46:34Z</time>
      </trkpt>
      <trkpt lat="47.37495" lon="-2.30089">
        <ele>47</ele>
        <time>2019-09-22T08:46:35Z</time>
      </trkpt>
      <trkpt lat="47.37488" lon="-2.30097">
        <ele>47</ele>
        <time>2019-09-22T08:46:37Z</time>
      </trkpt>
      <trkpt lat="47.37482" lon="-2.30105">
        <ele>47</ele>
        <time>2019-09-22T08:46:39Z</time>
      </trkpt>
      <trkpt lat="47.37476" lon="-2.30113">
        <ele>47</ele>
        <time>2019-09-22T08:46:41Z</time>
      </trkpt>
      <trkpt lat="47.37473" lon="-2.30118">
        <ele>47</ele>
        <time>2019-09-22T08:46:42Z</time>
      </trkpt>
      <trkpt lat="47.37469" lon="-2.30122">
        <ele>47</ele>
        <time>2019-09-22T08:46:43Z</time>
      </trkpt>
      <trkpt lat="47.37466" lon="-2.30127">
        <ele>47</ele>
        <time>2019-09-22T08:46:44Z</time>
      </trkpt>
      <trkpt lat="47.37464" lon="-2.3013">
        <ele>47</ele>
        <time>2019-09-22T08:46:45Z</time>
      </trkpt>
      <trkpt lat="47.37461" lon="-2.30134">
        <ele>47</ele>
        <time>2019-09-22T08:46:46Z</time>
      </trkpt>
      <trkpt lat="47.37455" lon="-2.30143">
        <ele>48</ele>
        <time>2019-09-22T08:46:48Z</time>
      </trkpt>
      <trkpt lat="47.37453" lon="-2.30146">
        <ele>47</ele>
        <time>2019-09-22T08:46:49Z</time>
      </trkpt>
      <trkpt lat="47.37442" lon="-2.30157">
        <ele>48</ele>
        <time>2019-09-22T08:46:52Z</time>
      </trkpt>
      <trkpt lat="47.37437" lon="-2.30165">
        <ele>48</ele>
        <time>2019-09-22T08:46:54Z</time>
      </trkpt>
      <trkpt lat="47.37429" lon="-2.30173">
        <ele>49</ele>
        <time>2019-09-22T08:46:56Z</time>
      </trkpt>
      <trkpt lat="47.37423" lon="-2.3018">
        <ele>48</ele>
        <time>2019-09-22T08:46:58Z</time>
      </trkpt>
      <trkpt lat="47.37415" lon="-2.30192">
        <ele>48</ele>
        <time>2019-09-22T08:47:01Z</time>
      </trkpt>
      <trkpt lat="47.37413" lon="-2.30196">
        <ele>48</ele>
        <time>2019-09-22T08:47:02Z</time>
      </trkpt>
      <trkpt lat="47.37408" lon="-2.30205">
        <ele>47</ele>
        <time>2019-09-22T08:47:04Z</time>
      </trkpt>
      <trkpt lat="47.37403" lon="-2.30213">
        <ele>48</ele>
        <time>2019-09-22T08:47:06Z</time>
      </trkpt>
      <trkpt lat="47.37401" lon="-2.30217">
        <ele>48</ele>
        <time>2019-09-22T08:47:07Z</time>
      </trkpt>
      <trkpt lat="47.37398" lon="-2.30221">
        <ele>48</ele>
        <time>2019-09-22T08:47:08Z</time>
      </trkpt>
      <trkpt lat="47.37394" lon="-2.3023">
        <ele>48</ele>
        <time>2019-09-22T08:47:10Z</time>
      </trkpt>
      <trkpt lat="47.37388" lon="-2.30239">
        <ele>48</ele>
        <time>2019-09-22T08:47:12Z</time>
      </trkpt>
      <trkpt lat="47.37379" lon="-2.30259">
        <ele>48</ele>
        <time>2019-09-22T08:47:16Z</time>
      </trkpt>
      <trkpt lat="47.37377" lon="-2.30264">
        <ele>48</ele>
        <time>2019-09-22T08:47:17Z</time>
      </trkpt>
      <trkpt lat="47.37373" lon="-2.30273">
        <ele>48</ele>
        <time>2019-09-22T08:47:19Z</time>
      </trkpt>
      <trkpt lat="47.37368" lon="-2.30281">
        <ele>48</ele>
        <time>2019-09-22T08:47:21Z</time>
      </trkpt>
      <trkpt lat="47.37365" lon="-2.30286">
        <ele>48</ele>
        <time>2019-09-22T08:47:22Z</time>
      </trkpt>
      <trkpt lat="47.37362" lon="-2.3029">
        <ele>47</ele>
        <time>2019-09-22T08:47:23Z</time>
      </trkpt>
      <trkpt lat="47.37358" lon="-2.303">
        <ele>47</ele>
        <time>2019-09-22T08:47:25Z</time>
      </trkpt>
      <trkpt lat="47.37357" lon="-2.30306">
        <ele>47</ele>
        <time>2019-09-22T08:47:26Z</time>
      </trkpt>
      <trkpt lat="47.37355" lon="-2.3031">
        <ele>47</ele>
        <time>2019-09-22T08:47:27Z</time>
      </trkpt>
      <trkpt lat="47.37348" lon="-2.30324">
        <ele>47</ele>
        <time>2019-09-22T08:47:30Z</time>
      </trkpt>
      <trkpt lat="47.37346" lon="-2.30329">
        <ele>47</ele>
        <time>2019-09-22T08:47:31Z</time>
      </trkpt>
      <trkpt lat="47.37342" lon="-2.30339">
        <ele>47</ele>
        <time>2019-09-22T08:47:33Z</time>
      </trkpt>
      <trkpt lat="47.37341" lon="-2.30344">
        <ele>47</ele>
        <time>2019-09-22T08:47:34Z</time>
      </trkpt>
      <trkpt lat="47.37336" lon="-2.30358">
        <ele>47</ele>
        <time>2019-09-22T08:47:37Z</time>
      </trkpt>
      <trkpt lat="47.37331" lon="-2.30374">
        <ele>47</ele>
        <time>2019-09-22T08:47:40Z</time>
      </trkpt>
      <trkpt lat="47.37326" lon="-2.30391">
        <ele>47</ele>
        <time>2019-09-22T08:47:43Z</time>
      </trkpt>
      <trkpt lat="47.37321" lon="-2.30399">
        <ele>47</ele>
        <time>2019-09-22T08:47:45Z</time>
      </trkpt>
      <trkpt lat="47.37316" lon="-2.30409">
        <ele>51</ele>
        <time>2019-09-22T08:47:48Z</time>
      </trkpt>
      <trkpt lat="47.37309" lon="-2.30436">
        <ele>48</ele>
        <time>2019-09-22T08:47:52Z</time>
      </trkpt>
      <trkpt lat="47.37307" lon="-2.30443">
        <ele>48</ele>
        <time>2019-09-22T08:47:53Z</time>
      </trkpt>
      <trkpt lat="47.37304" lon="-2.30449">
        <ele>48</ele>
        <time>2019-09-22T08:47:54Z</time>
      </trkpt>
      <trkpt lat="47.37303" lon="-2.30455">
        <ele>47</ele>
        <time>2019-09-22T08:47:55Z</time>
      </trkpt>
      <trkpt lat="47.37301" lon="-2.3046">
        <ele>47</ele>
        <time>2019-09-22T08:47:56Z</time>
      </trkpt>
      <trkpt lat="47.37296" lon="-2.30477">
        <ele>46</ele>
        <time>2019-09-22T08:47:59Z</time>
      </trkpt>
      <trkpt lat="47.37293" lon="-2.30487">
        <ele>46</ele>
        <time>2019-09-22T08:48:01Z</time>
      </trkpt>
      <trkpt lat="47.3729" lon="-2.30496">
        <ele>47</ele>
        <time>2019-09-22T08:48:03Z</time>
      </trkpt>
      <trkpt lat="47.37288" lon="-2.30501">
        <ele>47</ele>
        <time>2019-09-22T08:48:04Z</time>
      </trkpt>
      <trkpt lat="47.37286" lon="-2.30506">
        <ele>47</ele>
        <time>2019-09-22T08:48:05Z</time>
      </trkpt>
      <trkpt lat="47.37284" lon="-2.30512">
        <ele>47</ele>
        <time>2019-09-22T08:48:06Z</time>
      </trkpt>
      <trkpt lat="47.37282" lon="-2.30517">
        <ele>47</ele>
        <time>2019-09-22T08:48:07Z</time>
      </trkpt>
      <trkpt lat="47.3728" lon="-2.30522">
        <ele>47</ele>
        <time>2019-09-22T08:48:08Z</time>
      </trkpt>
      <trkpt lat="47.37278" lon="-2.30533">
        <ele>46</ele>
        <time>2019-09-22T08:48:10Z</time>
      </trkpt>
      <trkpt lat="47.37271" lon="-2.30548">
        <ele>46</ele>
        <time>2019-09-22T08:48:13Z</time>
      </trkpt>
      <trkpt lat="47.37269" lon="-2.30553">
        <ele>46</ele>
        <time>2019-09-22T08:48:14Z</time>
      </trkpt>
      <trkpt lat="47.37267" lon="-2.30557">
        <ele>46</ele>
        <time>2019-09-22T08:48:15Z</time>
      </trkpt>
      <trkpt lat="47.37265" lon="-2.30563">
        <ele>46</ele>
        <time>2019-09-22T08:48:16Z</time>
      </trkpt>
      <trkpt lat="47.37263" lon="-2.30567">
        <ele>46</ele>
        <time>2019-09-22T08:48:17Z</time>
      </trkpt>
      <trkpt lat="47.3726" lon="-2.30578">
        <ele>46</ele>
        <time>2019-09-22T08:48:19Z</time>
      </trkpt>
      <trkpt lat="47.37253" lon="-2.30595">
        <ele>47</ele>
        <time>2019-09-22T08:48:22Z</time>
      </trkpt>
      <trkpt lat="47.37251" lon="-2.30601">
        <ele>47</ele>
        <time>2019-09-22T08:48:23Z</time>
      </trkpt>
      <trkpt lat="47.37249" lon="-2.30607">
        <ele>47</ele>
        <time>2019-09-22T08:48:24Z</time>
      </trkpt>
      <trkpt lat="47.37246" lon="-2.30613">
        <ele>47</ele>
        <time>2019-09-22T08:48:25Z</time>
      </trkpt>
      <trkpt lat="47.37244" lon="-2.30619">
        <ele>47</ele>
        <time>2019-09-22T08:48:26Z</time>
      </trkpt>
      <trkpt lat="47.37243" lon="-2.30624">
        <ele>47</ele>
        <time>2019-09-22T08:48:27Z</time>
      </trkpt>
      <trkpt lat="47.37237" lon="-2.30634">
        <ele>47</ele>
        <time>2019-09-22T08:48:29Z</time>
      </trkpt>
      <trkpt lat="47.3723" lon="-2.30637">
        <ele>48</ele>
        <time>2019-09-22T08:48:31Z</time>
      </trkpt>
      <trkpt lat="47.37222" lon="-2.30641">
        <ele>48</ele>
        <time>2019-09-22T08:48:33Z</time>
      </trkpt>
      <trkpt lat="47.37216" lon="-2.30649">
        <ele>48</ele>
        <time>2019-09-22T08:48:35Z</time>
      </trkpt>
      <trkpt lat="47.37218" lon="-2.30672">
        <ele>48</ele>
        <time>2019-09-22T08:48:39Z</time>
      </trkpt>
      <trkpt lat="47.37218" lon="-2.30684">
        <ele>48</ele>
        <time>2019-09-22T08:48:41Z</time>
      </trkpt>
      <trkpt lat="47.37215" lon="-2.30702">
        <ele>48</ele>
        <time>2019-09-22T08:48:44Z</time>
      </trkpt>
      <trkpt lat="47.37215" lon="-2.30707">
        <ele>48</ele>
        <time>2019-09-22T08:48:45Z</time>
      </trkpt>
      <trkpt lat="47.37212" lon="-2.30719">
        <ele>48</ele>
        <time>2019-09-22T08:48:47Z</time>
      </trkpt>
      <trkpt lat="47.37208" lon="-2.30736">
        <ele>48</ele>
        <time>2019-09-22T08:48:50Z</time>
      </trkpt>
      <trkpt lat="47.37204" lon="-2.30747">
        <ele>48</ele>
        <time>2019-09-22T08:48:52Z</time>
      </trkpt>
      <trkpt lat="47.37203" lon="-2.30753">
        <ele>48</ele>
        <time>2019-09-22T08:48:53Z</time>
      </trkpt>
      <trkpt lat="47.37202" lon="-2.3076">
        <ele>48</ele>
        <time>2019-09-22T08:48:54Z</time>
      </trkpt>
      <trkpt lat="47.372" lon="-2.30767">
        <ele>47</ele>
        <time>2019-09-22T08:48:55Z</time>
      </trkpt>
      <trkpt lat="47.37198" lon="-2.30778">
        <ele>47</ele>
        <time>2019-09-22T08:48:57Z</time>
      </trkpt>
      <trkpt lat="47.37197" lon="-2.30785">
        <ele>47</ele>
        <time>2019-09-22T08:48:58Z</time>
      </trkpt>
      <trkpt lat="47.37194" lon="-2.30797">
        <ele>47</ele>
        <time>2019-09-22T08:49:00Z</time>
      </trkpt>
      <trkpt lat="47.37192" lon="-2.30803">
        <ele>47</ele>
        <time>2019-09-22T08:49:01Z</time>
      </trkpt>
      <trkpt lat="47.3719" lon="-2.30818">
        <ele>47</ele>
        <time>2019-09-22T08:49:04Z</time>
      </trkpt>
      <trkpt lat="47.37188" lon="-2.30828">
        <ele>48</ele>
        <time>2019-09-22T08:49:06Z</time>
      </trkpt>
      <trkpt lat="47.37187" lon="-2.30834">
        <ele>48</ele>
        <time>2019-09-22T08:49:07Z</time>
      </trkpt>
      <trkpt lat="47.37185" lon="-2.3084">
        <ele>47</ele>
        <time>2019-09-22T08:49:08Z</time>
      </trkpt>
      <trkpt lat="47.37183" lon="-2.30846">
        <ele>47</ele>
        <time>2019-09-22T08:49:09Z</time>
      </trkpt>
      <trkpt lat="47.37183" lon="-2.30853">
        <ele>47</ele>
        <time>2019-09-22T08:49:10Z</time>
      </trkpt>
      <trkpt lat="47.3718" lon="-2.30865">
        <ele>47</ele>
        <time>2019-09-22T08:49:12Z</time>
      </trkpt>
      <trkpt lat="47.37179" lon="-2.30872">
        <ele>47</ele>
        <time>2019-09-22T08:49:13Z</time>
      </trkpt>
      <trkpt lat="47.37178" lon="-2.30877">
        <ele>47</ele>
        <time>2019-09-22T08:49:14Z</time>
      </trkpt>
      <trkpt lat="47.37176" lon="-2.3089">
        <ele>47</ele>
        <time>2019-09-22T08:49:16Z</time>
      </trkpt>
      <trkpt lat="47.37175" lon="-2.30895">
        <ele>47</ele>
        <time>2019-09-22T08:49:17Z</time>
      </trkpt>
      <trkpt lat="47.37173" lon="-2.30901">
        <ele>47</ele>
        <time>2019-09-22T08:49:18Z</time>
      </trkpt>
      <trkpt lat="47.37171" lon="-2.30913">
        <ele>47</ele>
        <time>2019-09-22T08:49:20Z</time>
      </trkpt>
      <trkpt lat="47.37169" lon="-2.30919">
        <ele>47</ele>
        <time>2019-09-22T08:49:21Z</time>
      </trkpt>
      <trkpt lat="47.37167" lon="-2.3093">
        <ele>47</ele>
        <time>2019-09-22T08:49:23Z</time>
      </trkpt>
      <trkpt lat="47.37166" lon="-2.30935">
        <ele>47</ele>
        <time>2019-09-22T08:49:24Z</time>
      </trkpt>
      <trkpt lat="47.37164" lon="-2.30942">
        <ele>47</ele>
        <time>2019-09-22T08:49:25Z</time>
      </trkpt>
      <trkpt lat="47.37162" lon="-2.30954">
        <ele>47</ele>
        <time>2019-09-22T08:49:27Z</time>
      </trkpt>
      <trkpt lat="47.37161" lon="-2.30959">
        <ele>47</ele>
        <time>2019-09-22T08:49:28Z</time>
      </trkpt>
      <trkpt lat="47.37156" lon="-2.30976">
        <ele>46</ele>
        <time>2019-09-22T08:49:30Z</time>
      </trkpt>
      <trkpt lat="47.37154" lon="-2.30982">
        <ele>47</ele>
        <time>2019-09-22T08:49:31Z</time>
      </trkpt>
      <trkpt lat="47.37152" lon="-2.30993">
        <ele>47</ele>
        <time>2019-09-22T08:49:33Z</time>
      </trkpt>
      <trkpt lat="47.37149" lon="-2.31004">
        <ele>47</ele>
        <time>2019-09-22T08:49:35Z</time>
      </trkpt>
      <trkpt lat="47.37148" lon="-2.31009">
        <ele>47</ele>
        <time>2019-09-22T08:49:36Z</time>
      </trkpt>
      <trkpt lat="47.37146" lon="-2.31021">
        <ele>47</ele>
        <time>2019-09-22T08:49:38Z</time>
      </trkpt>
      <trkpt lat="47.37143" lon="-2.31029">
        <ele>47</ele>
        <time>2019-09-22T08:49:41Z</time>
      </trkpt>
      <trkpt lat="47.37142" lon="-2.31036">
        <ele>47</ele>
        <time>2019-09-22T08:49:43Z</time>
      </trkpt>
      <trkpt lat="47.37141" lon="-2.31041">
        <ele>47</ele>
        <time>2019-09-22T08:49:44Z</time>
      </trkpt>
      <trkpt lat="47.37139" lon="-2.3106">
        <ele>48</ele>
        <time>2019-09-22T08:49:48Z</time>
      </trkpt>
      <trkpt lat="47.37139" lon="-2.31068">
        <ele>50</ele>
        <time>2019-09-22T08:49:50Z</time>
      </trkpt>
      <trkpt lat="47.37138" lon="-2.31073">
        <ele>50</ele>
        <time>2019-09-22T08:49:51Z</time>
      </trkpt>
      <trkpt lat="47.37138" lon="-2.31078">
        <ele>50</ele>
        <time>2019-09-22T08:49:52Z</time>
      </trkpt>
      <trkpt lat="47.37137" lon="-2.31083">
        <ele>50</ele>
        <time>2019-09-22T08:49:53Z</time>
      </trkpt>
      <trkpt lat="47.37135" lon="-2.31097">
        <ele>50</ele>
        <time>2019-09-22T08:49:55Z</time>
      </trkpt>
      <trkpt lat="47.37135" lon="-2.31103">
        <ele>49</ele>
        <time>2019-09-22T08:49:56Z</time>
      </trkpt>
      <trkpt lat="47.37134" lon="-2.3111">
        <ele>49</ele>
        <time>2019-09-22T08:49:57Z</time>
      </trkpt>
      <trkpt lat="47.37132" lon="-2.31125">
        <ele>50</ele>
        <time>2019-09-22T08:50:00Z</time>
      </trkpt>
      <trkpt lat="47.37131" lon="-2.31131">
        <ele>50</ele>
        <time>2019-09-22T08:50:01Z</time>
      </trkpt>
      <trkpt lat="47.37132" lon="-2.31143">
        <ele>50</ele>
        <time>2019-09-22T08:50:03Z</time>
      </trkpt>
      <trkpt lat="47.37132" lon="-2.31157">
        <ele>50</ele>
        <time>2019-09-22T08:50:05Z</time>
      </trkpt>
      <trkpt lat="47.37132" lon="-2.31164">
        <ele>50</ele>
        <time>2019-09-22T08:50:06Z</time>
      </trkpt>
      <trkpt lat="47.37132" lon="-2.3117">
        <ele>49</ele>
        <time>2019-09-22T08:50:07Z</time>
      </trkpt>
      <trkpt lat="47.37131" lon="-2.31181">
        <ele>49</ele>
        <time>2019-09-22T08:50:09Z</time>
      </trkpt>
      <trkpt lat="47.37131" lon="-2.31187">
        <ele>49</ele>
        <time>2019-09-22T08:50:10Z</time>
      </trkpt>
      <trkpt lat="47.37131" lon="-2.31193">
        <ele>48</ele>
        <time>2019-09-22T08:50:11Z</time>
      </trkpt>
      <trkpt lat="47.37129" lon="-2.312">
        <ele>48</ele>
        <time>2019-09-22T08:50:12Z</time>
      </trkpt>
      <trkpt lat="47.37129" lon="-2.3122">
        <ele>48</ele>
        <time>2019-09-22T08:50:15Z</time>
      </trkpt>
      <trkpt lat="47.37129" lon="-2.31226">
        <ele>48</ele>
        <time>2019-09-22T08:50:16Z</time>
      </trkpt>
      <trkpt lat="47.37128" lon="-2.31232">
        <ele>48</ele>
        <time>2019-09-22T08:50:17Z</time>
      </trkpt>
      <trkpt lat="47.37127" lon="-2.31244">
        <ele>48</ele>
        <time>2019-09-22T08:50:19Z</time>
      </trkpt>
      <trkpt lat="47.37128" lon="-2.31251">
        <ele>48</ele>
        <time>2019-09-22T08:50:20Z</time>
      </trkpt>
      <trkpt lat="47.37128" lon="-2.31258">
        <ele>48</ele>
        <time>2019-09-22T08:50:21Z</time>
      </trkpt>
      <trkpt lat="47.37128" lon="-2.31264">
        <ele>48</ele>
        <time>2019-09-22T08:50:22Z</time>
      </trkpt>
      <trkpt lat="47.37128" lon="-2.3127">
        <ele>48</ele>
        <time>2019-09-22T08:50:23Z</time>
      </trkpt>
      <trkpt lat="47.37129" lon="-2.31276">
        <ele>48</ele>
        <time>2019-09-22T08:50:24Z</time>
      </trkpt>
      <trkpt lat="47.3713" lon="-2.31289">
        <ele>48</ele>
        <time>2019-09-22T08:50:26Z</time>
      </trkpt>
      <trkpt lat="47.3713" lon="-2.31295">
        <ele>48</ele>
        <time>2019-09-22T08:50:27Z</time>
      </trkpt>
      <trkpt lat="47.3713" lon="-2.31302">
        <ele>48</ele>
        <time>2019-09-22T08:50:28Z</time>
      </trkpt>
      <trkpt lat="47.3713" lon="-2.31308">
        <ele>48</ele>
        <time>2019-09-22T08:50:29Z</time>
      </trkpt>
      <trkpt lat="47.37128" lon="-2.31325">
        <ele>49</ele>
        <time>2019-09-22T08:50:32Z</time>
      </trkpt>
      <trkpt lat="47.37128" lon="-2.31331">
        <ele>49</ele>
        <time>2019-09-22T08:50:33Z</time>
      </trkpt>
      <trkpt lat="47.37128" lon="-2.31344">
        <ele>49</ele>
        <time>2019-09-22T08:50:35Z</time>
      </trkpt>
      <trkpt lat="47.37127" lon="-2.31351">
        <ele>49</ele>
        <time>2019-09-22T08:50:36Z</time>
      </trkpt>
      <trkpt lat="47.37127" lon="-2.31359">
        <ele>49</ele>
        <time>2019-09-22T08:50:37Z</time>
      </trkpt>
      <trkpt lat="47.37128" lon="-2.31365">
        <ele>49</ele>
        <time>2019-09-22T08:50:38Z</time>
      </trkpt>
      <trkpt lat="47.37125" lon="-2.31382">
        <ele>49</ele>
        <time>2019-09-22T08:50:41Z</time>
      </trkpt>
      <trkpt lat="47.37126" lon="-2.31394">
        <ele>49</ele>
        <time>2019-09-22T08:50:43Z</time>
      </trkpt>
      <trkpt lat="47.37127" lon="-2.314">
        <ele>49</ele>
        <time>2019-09-22T08:50:44Z</time>
      </trkpt>
      <trkpt lat="47.37127" lon="-2.31411">
        <ele>50</ele>
        <time>2019-09-22T08:50:46Z</time>
      </trkpt>
      <trkpt lat="47.37127" lon="-2.31417">
        <ele>50</ele>
        <time>2019-09-22T08:50:47Z</time>
      </trkpt>
      <trkpt lat="47.37126" lon="-2.31434">
        <ele>50</ele>
        <time>2019-09-22T08:50:50Z</time>
      </trkpt>
      <trkpt lat="47.37127" lon="-2.31458">
        <ele>50</ele>
        <time>2019-09-22T08:50:54Z</time>
      </trkpt>
      <trkpt lat="47.37126" lon="-2.31476">
        <ele>51</ele>
        <time>2019-09-22T08:50:57Z</time>
      </trkpt>
      <trkpt lat="47.37126" lon="-2.31481">
        <ele>50</ele>
        <time>2019-09-22T08:50:58Z</time>
      </trkpt>
      <trkpt lat="47.37127" lon="-2.31492">
        <ele>51</ele>
        <time>2019-09-22T08:51:00Z</time>
      </trkpt>
      <trkpt lat="47.37128" lon="-2.31505">
        <ele>51</ele>
        <time>2019-09-22T08:51:03Z</time>
      </trkpt>
      <trkpt lat="47.37128" lon="-2.31512">
        <ele>52</ele>
        <time>2019-09-22T08:51:05Z</time>
      </trkpt>
      <trkpt lat="47.37128" lon="-2.31534">
        <ele>51</ele>
        <time>2019-09-22T08:51:09Z</time>
      </trkpt>
      <trkpt lat="47.37129" lon="-2.31544">
        <ele>52</ele>
        <time>2019-09-22T08:51:11Z</time>
      </trkpt>
      <trkpt lat="47.37129" lon="-2.31563">
        <ele>52</ele>
        <time>2019-09-22T08:51:15Z</time>
      </trkpt>
      <trkpt lat="47.37129" lon="-2.31569">
        <ele>52</ele>
        <time>2019-09-22T08:51:16Z</time>
      </trkpt>
      <trkpt lat="47.37129" lon="-2.31576">
        <ele>52</ele>
        <time>2019-09-22T08:51:17Z</time>
      </trkpt>
      <trkpt lat="47.3713" lon="-2.31583">
        <ele>52</ele>
        <time>2019-09-22T08:51:18Z</time>
      </trkpt>
      <trkpt lat="47.37131" lon="-2.31591">
        <ele>52</ele>
        <time>2019-09-22T08:51:19Z</time>
      </trkpt>
      <trkpt lat="47.37132" lon="-2.31599">
        <ele>52</ele>
        <time>2019-09-22T08:51:20Z</time>
      </trkpt>
      <trkpt lat="47.37131" lon="-2.31607">
        <ele>52</ele>
        <time>2019-09-22T08:51:21Z</time>
      </trkpt>
      <trkpt lat="47.37133" lon="-2.31614">
        <ele>52</ele>
        <time>2019-09-22T08:51:22Z</time>
      </trkpt>
      <trkpt lat="47.37134" lon="-2.3162">
        <ele>51</ele>
        <time>2019-09-22T08:51:23Z</time>
      </trkpt>
      <trkpt lat="47.37135" lon="-2.31627">
        <ele>51</ele>
        <time>2019-09-22T08:51:24Z</time>
      </trkpt>
      <trkpt lat="47.37136" lon="-2.31634">
        <ele>52</ele>
        <time>2019-09-22T08:51:25Z</time>
      </trkpt>
      <trkpt lat="47.37138" lon="-2.31645">
        <ele>52</ele>
        <time>2019-09-22T08:51:27Z</time>
      </trkpt>
      <trkpt lat="47.37142" lon="-2.31656">
        <ele>52</ele>
        <time>2019-09-22T08:51:29Z</time>
      </trkpt>
      <trkpt lat="47.37144" lon="-2.31663">
        <ele>54</ele>
        <time>2019-09-22T08:51:31Z</time>
      </trkpt>
      <trkpt lat="47.37144" lon="-2.31671">
        <ele>53</ele>
        <time>2019-09-22T08:51:33Z</time>
      </trkpt>
      <trkpt lat="47.37146" lon="-2.31678">
        <ele>55</ele>
        <time>2019-09-22T08:51:37Z</time>
      </trkpt>
      <trkpt lat="47.37157" lon="-2.31685">
        <ele>71</ele>
        <time>2019-09-22T08:51:40Z</time>
      </trkpt>
      <trkpt lat="47.37155" lon="-2.31699">
        <ele>88</ele>
        <time>2019-09-22T08:51:44Z</time>
      </trkpt>
      <trkpt lat="47.37156" lon="-2.31713">
        <ele>88</ele>
        <time>2019-09-22T08:51:45Z</time>
      </trkpt>
      <trkpt lat="47.37159" lon="-2.31723">
        <ele>89</ele>
        <time>2019-09-22T08:51:46Z</time>
      </trkpt>
      <trkpt lat="47.37163" lon="-2.31735">
        <ele>91</ele>
        <time>2019-09-22T08:51:48Z</time>
      </trkpt>
      <trkpt lat="47.37167" lon="-2.31745">
        <ele>90</ele>
        <time>2019-09-22T08:51:49Z</time>
      </trkpt>
      <trkpt lat="47.37167" lon="-2.31754">
        <ele>88</ele>
        <time>2019-09-22T08:51:50Z</time>
      </trkpt>
      <trkpt lat="47.37168" lon="-2.31761">
        <ele>87</ele>
        <time>2019-09-22T08:51:51Z</time>
      </trkpt>
      <trkpt lat="47.37168" lon="-2.31768">
        <ele>85</ele>
        <time>2019-09-22T08:51:52Z</time>
      </trkpt>
      <trkpt lat="47.37168" lon="-2.31777">
        <ele>82</ele>
        <time>2019-09-22T08:51:54Z</time>
      </trkpt>
      <trkpt lat="47.37167" lon="-2.31781">
        <ele>83</ele>
        <time>2019-09-22T08:51:58Z</time>
      </trkpt>
      <trkpt lat="47.37173" lon="-2.31785">
        <ele>81</ele>
        <time>2019-09-22T08:52:37Z</time>
      </trkpt>
      <trkpt lat="47.3717" lon="-2.31802">
        <ele>78</ele>
        <time>2019-09-22T08:52:45Z</time>
      </trkpt>
      <trkpt lat="47.37168" lon="-2.31811">
        <ele>78</ele>
        <time>2019-09-22T08:52:48Z</time>
      </trkpt>
      <trkpt lat="47.37163" lon="-2.3182">
        <ele>78</ele>
        <time>2019-09-22T08:52:52Z</time>
      </trkpt>
      <trkpt lat="47.37157" lon="-2.31823">
        <ele>78</ele>
        <time>2019-09-22T08:52:56Z</time>
      </trkpt>
      <trkpt lat="47.37157" lon="-2.31832">
        <ele>79</ele>
        <time>2019-09-22T08:53:00Z</time>
      </trkpt>
      <trkpt lat="47.37154" lon="-2.31839">
        <ele>79</ele>
        <time>2019-09-22T08:53:02Z</time>
      </trkpt>
      <trkpt lat="47.37152" lon="-2.31852">
        <ele>80</ele>
        <time>2019-09-22T08:53:06Z</time>
      </trkpt>
      <trkpt lat="47.37153" lon="-2.31861">
        <ele>83</ele>
        <time>2019-09-22T08:53:11Z</time>
      </trkpt>
      <trkpt lat="47.37147" lon="-2.31904">
        <ele>91</ele>
        <time>2019-09-22T08:53:16Z</time>
      </trkpt>
      <trkpt lat="47.37144" lon="-2.31915">
        <ele>90</ele>
        <time>2019-09-22T08:53:17Z</time>
      </trkpt>
      <trkpt lat="47.37144" lon="-2.31927">
        <ele>88</ele>
        <time>2019-09-22T08:53:18Z</time>
      </trkpt>
      <trkpt lat="47.37144" lon="-2.31939">
        <ele>88</ele>
        <time>2019-09-22T08:53:19Z</time>
      </trkpt>
      <trkpt lat="47.37143" lon="-2.31947">
        <ele>88</ele>
        <time>2019-09-22T08:53:20Z</time>
      </trkpt>
      <trkpt lat="47.37144" lon="-2.31956">
        <ele>88</ele>
        <time>2019-09-22T08:53:21Z</time>
      </trkpt>
      <trkpt lat="47.37144" lon="-2.31967">
        <ele>86</ele>
        <time>2019-09-22T08:53:22Z</time>
      </trkpt>
      <trkpt lat="47.37143" lon="-2.31981">
        <ele>85</ele>
        <time>2019-09-22T08:53:23Z</time>
      </trkpt>
      <trkpt lat="47.37142" lon="-2.31992">
        <ele>84</ele>
        <time>2019-09-22T08:53:24Z</time>
      </trkpt>
      <trkpt lat="47.37141" lon="-2.32002">
        <ele>83</ele>
        <time>2019-09-22T08:53:25Z</time>
      </trkpt>
      <trkpt lat="47.3714" lon="-2.32012">
        <ele>83</ele>
        <time>2019-09-22T08:53:26Z</time>
      </trkpt>
      <trkpt lat="47.3714" lon="-2.32039">
        <ele>80</ele>
        <time>2019-09-22T08:53:29Z</time>
      </trkpt>
      <trkpt lat="47.3714" lon="-2.32047">
        <ele>79</ele>
        <time>2019-09-22T08:53:30Z</time>
      </trkpt>
      <trkpt lat="47.37139" lon="-2.32054">
        <ele>80</ele>
        <time>2019-09-22T08:53:31Z</time>
      </trkpt>
      <trkpt lat="47.3714" lon="-2.32073">
        <ele>81</ele>
        <time>2019-09-22T08:53:34Z</time>
      </trkpt>
      <trkpt lat="47.3714" lon="-2.32081">
        <ele>80</ele>
        <time>2019-09-22T08:53:35Z</time>
      </trkpt>
      <trkpt lat="47.3714" lon="-2.32091">
        <ele>79</ele>
        <time>2019-09-22T08:53:36Z</time>
      </trkpt>
      <trkpt lat="47.3714" lon="-2.32157">
        <ele>76</ele>
        <time>2019-09-22T08:53:42Z</time>
      </trkpt>
      <trkpt lat="47.37144" lon="-2.32225">
        <ele>72</ele>
        <time>2019-09-22T08:53:47Z</time>
      </trkpt>
      <trkpt lat="47.37145" lon="-2.32236">
        <ele>72</ele>
        <time>2019-09-22T08:53:48Z</time>
      </trkpt>
      <trkpt lat="47.37147" lon="-2.32245">
        <ele>73</ele>
        <time>2019-09-22T08:53:49Z</time>
      </trkpt>
      <trkpt lat="47.37148" lon="-2.3225">
        <ele>73</ele>
        <time>2019-09-22T08:53:50Z</time>
      </trkpt>
      <trkpt lat="47.37149" lon="-2.3226">
        <ele>73</ele>
        <time>2019-09-22T08:53:51Z</time>
      </trkpt>
      <trkpt lat="47.37149" lon="-2.32266">
        <ele>73</ele>
        <time>2019-09-22T08:53:52Z</time>
      </trkpt>
      <trkpt lat="47.37149" lon="-2.32273">
        <ele>73</ele>
        <time>2019-09-22T08:53:53Z</time>
      </trkpt>
      <trkpt lat="47.37148" lon="-2.32281">
        <ele>73</ele>
        <time>2019-09-22T08:53:54Z</time>
      </trkpt>
      <trkpt lat="47.37149" lon="-2.32289">
        <ele>72</ele>
        <time>2019-09-22T08:53:55Z</time>
      </trkpt>
      <trkpt lat="47.37148" lon="-2.32299">
        <ele>72</ele>
        <time>2019-09-22T08:53:56Z</time>
      </trkpt>
      <trkpt lat="47.37148" lon="-2.32307">
        <ele>72</ele>
        <time>2019-09-22T08:53:57Z</time>
      </trkpt>
      <trkpt lat="47.37147" lon="-2.32314">
        <ele>72</ele>
        <time>2019-09-22T08:53:58Z</time>
      </trkpt>
      <trkpt lat="47.37146" lon="-2.32321">
        <ele>71</ele>
        <time>2019-09-22T08:53:59Z</time>
      </trkpt>
      <trkpt lat="47.37147" lon="-2.32334">
        <ele>70</ele>
        <time>2019-09-22T08:54:00Z</time>
      </trkpt>
      <trkpt lat="47.37146" lon="-2.32361">
        <ele>67</ele>
        <time>2019-09-22T08:54:02Z</time>
      </trkpt>
      <trkpt lat="47.37147" lon="-2.32372">
        <ele>67</ele>
        <time>2019-09-22T08:54:03Z</time>
      </trkpt>
      <trkpt lat="47.37148" lon="-2.32395">
        <ele>66</ele>
        <time>2019-09-22T08:54:05Z</time>
      </trkpt>
      <trkpt lat="47.37148" lon="-2.324">
        <ele>67</ele>
        <time>2019-09-22T08:54:06Z</time>
      </trkpt>
      <trkpt lat="47.37146" lon="-2.32414">
        <ele>67</ele>
        <time>2019-09-22T08:54:08Z</time>
      </trkpt>
      <trkpt lat="47.37146" lon="-2.32421">
        <ele>66</ele>
        <time>2019-09-22T08:54:09Z</time>
      </trkpt>
      <trkpt lat="47.37145" lon="-2.32428">
        <ele>66</ele>
        <time>2019-09-22T08:54:11Z</time>
      </trkpt>
      <trkpt lat="47.37138" lon="-2.32433">
        <ele>67</ele>
        <time>2019-09-22T08:54:14Z</time>
      </trkpt>
      <trkpt lat="47.37129" lon="-2.32436">
        <ele>67</ele>
        <time>2019-09-22T08:54:16Z</time>
      </trkpt>
      <trkpt lat="47.37125" lon="-2.32438">
        <ele>67</ele>
        <time>2019-09-22T08:54:17Z</time>
      </trkpt>
      <trkpt lat="47.37114" lon="-2.32437">
        <ele>68</ele>
        <time>2019-09-22T08:54:20Z</time>
      </trkpt>
      <trkpt lat="47.37105" lon="-2.32436">
        <ele>68</ele>
        <time>2019-09-22T08:54:22Z</time>
      </trkpt>
      <trkpt lat="47.37087" lon="-2.32432">
        <ele>69</ele>
        <time>2019-09-22T08:54:26Z</time>
      </trkpt>
      <trkpt lat="47.37079" lon="-2.32435">
        <ele>68</ele>
        <time>2019-09-22T08:54:27Z</time>
      </trkpt>
      <trkpt lat="47.37071" lon="-2.32439">
        <ele>68</ele>
        <time>2019-09-22T08:54:28Z</time>
      </trkpt>
      <trkpt lat="47.3703" lon="-2.32441">
        <ele>58</ele>
        <time>2019-09-22T08:54:32Z</time>
      </trkpt>
      <trkpt lat="47.3702" lon="-2.32442">
        <ele>58</ele>
        <time>2019-09-22T08:54:33Z</time>
      </trkpt>
      <trkpt lat="47.37009" lon="-2.32442">
        <ele>58</ele>
        <time>2019-09-22T08:54:34Z</time>
      </trkpt>
      <trkpt lat="47.37" lon="-2.32442">
        <ele>58</ele>
        <time>2019-09-22T08:54:35Z</time>
      </trkpt>
      <trkpt lat="47.36992" lon="-2.32441">
        <ele>58</ele>
        <time>2019-09-22T08:54:36Z</time>
      </trkpt>
      <trkpt lat="47.36985" lon="-2.3244">
        <ele>56</ele>
        <time>2019-09-22T08:54:37Z</time>
      </trkpt>
      <trkpt lat="47.36978" lon="-2.32439">
        <ele>55</ele>
        <time>2019-09-22T08:54:38Z</time>
      </trkpt>
      <trkpt lat="47.36972" lon="-2.32439">
        <ele>56</ele>
        <time>2019-09-22T08:54:39Z</time>
      </trkpt>
      <trkpt lat="47.36966" lon="-2.32439">
        <ele>55</ele>
        <time>2019-09-22T08:54:40Z</time>
      </trkpt>
      <trkpt lat="47.36955" lon="-2.32439">
        <ele>55</ele>
        <time>2019-09-22T08:54:42Z</time>
      </trkpt>
      <trkpt lat="47.36949" lon="-2.32439">
        <ele>55</ele>
        <time>2019-09-22T08:54:43Z</time>
      </trkpt>
      <trkpt lat="47.36944" lon="-2.32439">
        <ele>54</ele>
        <time>2019-09-22T08:54:44Z</time>
      </trkpt>
      <trkpt lat="47.36938" lon="-2.32439">
        <ele>54</ele>
        <time>2019-09-22T08:54:45Z</time>
      </trkpt>
      <trkpt lat="47.36932" lon="-2.32439">
        <ele>54</ele>
        <time>2019-09-22T08:54:46Z</time>
      </trkpt>
      <trkpt lat="47.36926" lon="-2.32439">
        <ele>54</ele>
        <time>2019-09-22T08:54:47Z</time>
      </trkpt>
      <trkpt lat="47.36921" lon="-2.32437">
        <ele>54</ele>
        <time>2019-09-22T08:54:48Z</time>
      </trkpt>
      <trkpt lat="47.36916" lon="-2.32435">
        <ele>55</ele>
        <time>2019-09-22T08:54:49Z</time>
      </trkpt>
      <trkpt lat="47.3691" lon="-2.32433">
        <ele>55</ele>
        <time>2019-09-22T08:54:50Z</time>
      </trkpt>
      <trkpt lat="47.36904" lon="-2.3243">
        <ele>54</ele>
        <time>2019-09-22T08:54:51Z</time>
      </trkpt>
      <trkpt lat="47.36899" lon="-2.32428">
        <ele>54</ele>
        <time>2019-09-22T08:54:52Z</time>
      </trkpt>
      <trkpt lat="47.36894" lon="-2.32424">
        <ele>54</ele>
        <time>2019-09-22T08:54:53Z</time>
      </trkpt>
      <trkpt lat="47.36889" lon="-2.32421">
        <ele>53</ele>
        <time>2019-09-22T08:54:54Z</time>
      </trkpt>
      <trkpt lat="47.36883" lon="-2.32417">
        <ele>53</ele>
        <time>2019-09-22T08:54:55Z</time>
      </trkpt>
      <trkpt lat="47.36878" lon="-2.32415">
        <ele>53</ele>
        <time>2019-09-22T08:54:56Z</time>
      </trkpt>
      <trkpt lat="47.36872" lon="-2.32411">
        <ele>53</ele>
        <time>2019-09-22T08:54:57Z</time>
      </trkpt>
      <trkpt lat="47.36855" lon="-2.32402">
        <ele>53</ele>
        <time>2019-09-22T08:55:00Z</time>
      </trkpt>
      <trkpt lat="47.36844" lon="-2.32396">
        <ele>54</ele>
        <time>2019-09-22T08:55:02Z</time>
      </trkpt>
      <trkpt lat="47.36839" lon="-2.32393">
        <ele>54</ele>
        <time>2019-09-22T08:55:03Z</time>
      </trkpt>
      <trkpt lat="47.36827" lon="-2.32388">
        <ele>54</ele>
        <time>2019-09-22T08:55:05Z</time>
      </trkpt>
      <trkpt lat="47.36811" lon="-2.32375">
        <ele>55</ele>
        <time>2019-09-22T08:55:08Z</time>
      </trkpt>
      <trkpt lat="47.36799" lon="-2.32368">
        <ele>55</ele>
        <time>2019-09-22T08:55:10Z</time>
      </trkpt>
      <trkpt lat="47.36787" lon="-2.32364">
        <ele>56</ele>
        <time>2019-09-22T08:55:12Z</time>
      </trkpt>
      <trkpt lat="47.36781" lon="-2.32362">
        <ele>56</ele>
        <time>2019-09-22T08:55:13Z</time>
      </trkpt>
      <trkpt lat="47.36774" lon="-2.32359">
        <ele>56</ele>
        <time>2019-09-22T08:55:14Z</time>
      </trkpt>
      <trkpt lat="47.36769" lon="-2.32356">
        <ele>56</ele>
        <time>2019-09-22T08:55:15Z</time>
      </trkpt>
      <trkpt lat="47.36763" lon="-2.32353">
        <ele>57</ele>
        <time>2019-09-22T08:55:16Z</time>
      </trkpt>
      <trkpt lat="47.3679" lon="-2.32202">
        <ele>81</ele>
        <time>2019-09-22T08:55:26Z</time>
      </trkpt>
      <trkpt lat="47.36756" lon="-2.32233">
        <ele>96</ele>
        <time>2019-09-22T08:55:29Z</time>
      </trkpt>
      <trkpt lat="47.36744" lon="-2.32241">
        <ele>96</ele>
        <time>2019-09-22T08:55:30Z</time>
      </trkpt>
      <trkpt lat="47.36731" lon="-2.32245">
        <ele>98</ele>
        <time>2019-09-22T08:55:31Z</time>
      </trkpt>
      <trkpt lat="47.36722" lon="-2.32246">
        <ele>99</ele>
        <time>2019-09-22T08:55:32Z</time>
      </trkpt>
      <trkpt lat="47.36713" lon="-2.32247">
        <ele>97</ele>
        <time>2019-09-22T08:55:33Z</time>
      </trkpt>
      <trkpt lat="47.36698" lon="-2.32252">
        <ele>97</ele>
        <time>2019-09-22T08:55:35Z</time>
      </trkpt>
      <trkpt lat="47.36676" lon="-2.32259">
        <ele>91</ele>
        <time>2019-09-22T08:55:37Z</time>
      </trkpt>
      <trkpt lat="47.36666" lon="-2.3226">
        <ele>85</ele>
        <time>2019-09-22T08:55:38Z</time>
      </trkpt>
      <trkpt lat="47.36658" lon="-2.32261">
        <ele>81</ele>
        <time>2019-09-22T08:55:39Z</time>
      </trkpt>
      <trkpt lat="47.36649" lon="-2.32263">
        <ele>80</ele>
        <time>2019-09-22T08:55:40Z</time>
      </trkpt>
      <trkpt lat="47.36636" lon="-2.32261">
        <ele>75</ele>
        <time>2019-09-22T08:55:41Z</time>
      </trkpt>
      <trkpt lat="47.36624" lon="-2.32257">
        <ele>72</ele>
        <time>2019-09-22T08:55:42Z</time>
      </trkpt>
      <trkpt lat="47.36614" lon="-2.32255">
        <ele>68</ele>
        <time>2019-09-22T08:55:43Z</time>
      </trkpt>
      <trkpt lat="47.36607" lon="-2.32254">
        <ele>70</ele>
        <time>2019-09-22T08:55:44Z</time>
      </trkpt>
      <trkpt lat="47.366" lon="-2.3225">
        <ele>70</ele>
        <time>2019-09-22T08:55:45Z</time>
      </trkpt>
      <trkpt lat="47.36586" lon="-2.32242">
        <ele>70</ele>
        <time>2019-09-22T08:55:47Z</time>
      </trkpt>
      <trkpt lat="47.36619" lon="-2.32252">
        <ele>139</ele>
        <time>2019-09-22T08:55:52Z</time>
      </trkpt>
      <trkpt lat="47.36593" lon="-2.32238">
        <ele>149</ele>
        <time>2019-09-22T08:55:56Z</time>
      </trkpt>
      <trkpt lat="47.36541" lon="-2.32203">
        <ele>122</ele>
        <time>2019-09-22T08:56:01Z</time>
      </trkpt>
      <trkpt lat="47.36534" lon="-2.32197">
        <ele>119</ele>
        <time>2019-09-22T08:56:02Z</time>
      </trkpt>
      <trkpt lat="47.36526" lon="-2.32191">
        <ele>114</ele>
        <time>2019-09-22T08:56:03Z</time>
      </trkpt>
      <trkpt lat="47.36519" lon="-2.32185">
        <ele>109</ele>
        <time>2019-09-22T08:56:04Z</time>
      </trkpt>
      <trkpt lat="47.36513" lon="-2.32178">
        <ele>105</ele>
        <time>2019-09-22T08:56:05Z</time>
      </trkpt>
      <trkpt lat="47.36506" lon="-2.32174">
        <ele>101</ele>
        <time>2019-09-22T08:56:06Z</time>
      </trkpt>
      <trkpt lat="47.3649" lon="-2.32153">
        <ele>95</ele>
        <time>2019-09-22T08:56:10Z</time>
      </trkpt>
      <trkpt lat="47.36486" lon="-2.32148">
        <ele>94</ele>
        <time>2019-09-22T08:56:11Z</time>
      </trkpt>
      <trkpt lat="47.36482" lon="-2.32142">
        <ele>93</ele>
        <time>2019-09-22T08:56:12Z</time>
      </trkpt>
      <trkpt lat="47.3646" lon="-2.32126">
        <ele>90</ele>
        <time>2019-09-22T08:56:15Z</time>
      </trkpt>
      <trkpt lat="47.36428" lon="-2.32089">
        <ele>81</ele>
        <time>2019-09-22T08:56:19Z</time>
      </trkpt>
      <trkpt lat="47.36421" lon="-2.32082">
        <ele>80</ele>
        <time>2019-09-22T08:56:20Z</time>
      </trkpt>
      <trkpt lat="47.36413" lon="-2.32076">
        <ele>79</ele>
        <time>2019-09-22T08:56:21Z</time>
      </trkpt>
      <trkpt lat="47.36409" lon="-2.32071">
        <ele>78</ele>
        <time>2019-09-22T08:56:22Z</time>
      </trkpt>
      <trkpt lat="47.36403" lon="-2.32063">
        <ele>77</ele>
        <time>2019-09-22T08:56:23Z</time>
      </trkpt>
      <trkpt lat="47.36393" lon="-2.3205">
        <ele>77</ele>
        <time>2019-09-22T08:56:25Z</time>
      </trkpt>
      <trkpt lat="47.36384" lon="-2.32039">
        <ele>78</ele>
        <time>2019-09-22T08:56:27Z</time>
      </trkpt>
      <trkpt lat="47.36364" lon="-2.32028">
        <ele>76</ele>
        <time>2019-09-22T08:56:30Z</time>
      </trkpt>
      <trkpt lat="47.36346" lon="-2.32012">
        <ele>74</ele>
        <time>2019-09-22T08:56:33Z</time>
      </trkpt>
      <trkpt lat="47.36343" lon="-2.32009">
        <ele>73</ele>
        <time>2019-09-22T08:56:34Z</time>
      </trkpt>
      <trkpt lat="47.36336" lon="-2.31999">
        <ele>72</ele>
        <time>2019-09-22T08:56:36Z</time>
      </trkpt>
      <trkpt lat="47.36319" lon="-2.31967">
        <ele>70</ele>
        <time>2019-09-22T08:56:40Z</time>
      </trkpt>
      <trkpt lat="47.36308" lon="-2.31956">
        <ele>70</ele>
        <time>2019-09-22T08:56:42Z</time>
      </trkpt>
      <trkpt lat="47.36303" lon="-2.31953">
        <ele>71</ele>
        <time>2019-09-22T08:56:43Z</time>
      </trkpt>
      <trkpt lat="47.36293" lon="-2.31945">
        <ele>74</ele>
        <time>2019-09-22T08:56:45Z</time>
      </trkpt>
      <trkpt lat="47.36288" lon="-2.31939">
        <ele>74</ele>
        <time>2019-09-22T08:56:46Z</time>
      </trkpt>
      <trkpt lat="47.36281" lon="-2.31927">
        <ele>73</ele>
        <time>2019-09-22T08:56:48Z</time>
      </trkpt>
      <trkpt lat="47.36278" lon="-2.31923">
        <ele>72</ele>
        <time>2019-09-22T08:56:49Z</time>
      </trkpt>
      <trkpt lat="47.36273" lon="-2.31917">
        <ele>71</ele>
        <time>2019-09-22T08:56:50Z</time>
      </trkpt>
      <trkpt lat="47.36262" lon="-2.31907">
        <ele>68</ele>
        <time>2019-09-22T08:56:54Z</time>
      </trkpt>
      <trkpt lat="47.36197" lon="-2.31923">
        <ele>64</ele>
        <time>2019-09-22T08:56:59Z</time>
      </trkpt>
      <trkpt lat="47.36178" lon="-2.31879">
        <ele>58</ele>
        <time>2019-09-22T08:57:03Z</time>
      </trkpt>
      <trkpt lat="47.3618" lon="-2.31867">
        <ele>58</ele>
        <time>2019-09-22T08:57:04Z</time>
      </trkpt>
      <trkpt lat="47.36177" lon="-2.31843">
        <ele>56</ele>
        <time>2019-09-22T08:57:05Z</time>
      </trkpt>
      <trkpt lat="47.36179" lon="-2.31806">
        <ele>55</ele>
        <time>2019-09-22T08:57:08Z</time>
      </trkpt>
      <trkpt lat="47.36179" lon="-2.31793">
        <ele>54</ele>
        <time>2019-09-22T08:57:10Z</time>
      </trkpt>
      <trkpt lat="47.36179" lon="-2.31782">
        <ele>54</ele>
        <time>2019-09-22T08:57:11Z</time>
      </trkpt>
      <trkpt lat="47.36178" lon="-2.3177">
        <ele>53</ele>
        <time>2019-09-22T08:57:12Z</time>
      </trkpt>
      <trkpt lat="47.36177" lon="-2.31759">
        <ele>52</ele>
        <time>2019-09-22T08:57:13Z</time>
      </trkpt>
      <trkpt lat="47.36173" lon="-2.31723">
        <ele>44</ele>
        <time>2019-09-22T08:57:16Z</time>
      </trkpt>
      <trkpt lat="47.36173" lon="-2.31683">
        <ele>43</ele>
        <time>2019-09-22T08:57:19Z</time>
      </trkpt>
      <trkpt lat="47.36173" lon="-2.31672">
        <ele>42</ele>
        <time>2019-09-22T08:57:21Z</time>
      </trkpt>
      <trkpt lat="47.36176" lon="-2.31633">
        <ele>42</ele>
        <time>2019-09-22T08:57:24Z</time>
      </trkpt>
      <trkpt lat="47.36176" lon="-2.31578">
        <ele>44</ele>
        <time>2019-09-22T08:57:27Z</time>
      </trkpt>
      <trkpt lat="47.36175" lon="-2.31566">
        <ele>44</ele>
        <time>2019-09-22T08:57:28Z</time>
      </trkpt>
      <trkpt lat="47.36173" lon="-2.31553">
        <ele>45</ele>
        <time>2019-09-22T08:57:30Z</time>
      </trkpt>
      <trkpt lat="47.36173" lon="-2.3154">
        <ele>46</ele>
        <time>2019-09-22T08:57:31Z</time>
      </trkpt>
      <trkpt lat="47.36173" lon="-2.31527">
        <ele>46</ele>
        <time>2019-09-22T08:57:32Z</time>
      </trkpt>
      <trkpt lat="47.36173" lon="-2.31491">
        <ele>48</ele>
        <time>2019-09-22T08:57:35Z</time>
      </trkpt>
      <trkpt lat="47.36171" lon="-2.3148">
        <ele>48</ele>
        <time>2019-09-22T08:57:36Z</time>
      </trkpt>
      <trkpt lat="47.36169" lon="-2.3147">
        <ele>47</ele>
        <time>2019-09-22T08:57:37Z</time>
      </trkpt>
      <trkpt lat="47.36166" lon="-2.31462">
        <ele>47</ele>
        <time>2019-09-22T08:57:38Z</time>
      </trkpt>
      <trkpt lat="47.36162" lon="-2.31454">
        <ele>48</ele>
        <time>2019-09-22T08:57:39Z</time>
      </trkpt>
      <trkpt lat="47.36157" lon="-2.31439">
        <ele>48</ele>
        <time>2019-09-22T08:57:41Z</time>
      </trkpt>
      <trkpt lat="47.36154" lon="-2.31433">
        <ele>48</ele>
        <time>2019-09-22T08:57:42Z</time>
      </trkpt>
      <trkpt lat="47.3615" lon="-2.31426">
        <ele>48</ele>
        <time>2019-09-22T08:57:43Z</time>
      </trkpt>
      <trkpt lat="47.36147" lon="-2.3142">
        <ele>48</ele>
        <time>2019-09-22T08:57:44Z</time>
      </trkpt>
      <trkpt lat="47.36141" lon="-2.3141">
        <ele>49</ele>
        <time>2019-09-22T08:57:46Z</time>
      </trkpt>
      <trkpt lat="47.36137" lon="-2.31401">
        <ele>48</ele>
        <time>2019-09-22T08:57:47Z</time>
      </trkpt>
      <trkpt lat="47.36134" lon="-2.31395">
        <ele>48</ele>
        <time>2019-09-22T08:57:48Z</time>
      </trkpt>
      <trkpt lat="47.36129" lon="-2.31387">
        <ele>48</ele>
        <time>2019-09-22T08:57:51Z</time>
      </trkpt>
      <trkpt lat="47.36121" lon="-2.31375">
        <ele>49</ele>
        <time>2019-09-22T08:57:54Z</time>
      </trkpt>
      <trkpt lat="47.36113" lon="-2.31363">
        <ele>49</ele>
        <time>2019-09-22T08:57:57Z</time>
      </trkpt>
      <trkpt lat="47.36108" lon="-2.31354">
        <ele>49</ele>
        <time>2019-09-22T08:57:59Z</time>
      </trkpt>
      <trkpt lat="47.36104" lon="-2.31348">
        <ele>50</ele>
        <time>2019-09-22T08:58:01Z</time>
      </trkpt>
      <trkpt lat="47.36097" lon="-2.31342">
        <ele>50</ele>
        <time>2019-09-22T08:58:03Z</time>
      </trkpt>
      <trkpt lat="47.36092" lon="-2.3133">
        <ele>51</ele>
        <time>2019-09-22T08:58:06Z</time>
      </trkpt>
      <trkpt lat="47.36092" lon="-2.3132">
        <ele>51</ele>
        <time>2019-09-22T08:58:08Z</time>
      </trkpt>
      <trkpt lat="47.36092" lon="-2.31316">
        <ele>50</ele>
        <time>2019-09-22T08:58:09Z</time>
      </trkpt>
      <trkpt lat="47.36092" lon="-2.31299">
        <ele>51</ele>
        <time>2019-09-22T08:58:11Z</time>
      </trkpt>
      <trkpt lat="47.36094" lon="-2.31288">
        <ele>50</ele>
        <time>2019-09-22T08:58:13Z</time>
      </trkpt>
      <trkpt lat="47.36093" lon="-2.31277">
        <ele>50</ele>
        <time>2019-09-22T08:58:15Z</time>
      </trkpt>
      <trkpt lat="47.36092" lon="-2.31267">
        <ele>51</ele>
        <time>2019-09-22T08:58:17Z</time>
      </trkpt>
      <trkpt lat="47.36092" lon="-2.31262">
        <ele>51</ele>
        <time>2019-09-22T08:58:18Z</time>
      </trkpt>
      <trkpt lat="47.36091" lon="-2.31246">
        <ele>51</ele>
        <time>2019-09-22T08:58:22Z</time>
      </trkpt>
      <trkpt lat="47.36089" lon="-2.31238">
        <ele>51</ele>
        <time>2019-09-22T08:58:25Z</time>
      </trkpt>
      <trkpt lat="47.36087" lon="-2.31231">
        <ele>51</ele>
        <time>2019-09-22T08:58:28Z</time>
      </trkpt>
      <trkpt lat="47.36087" lon="-2.31231">
        <ele>1</ele>
        <time>2019-09-22T08:58:36Z</time>
      </trkpt>
      <trkpt lat="47.36087" lon="-2.31231">
        <ele>1</ele>
        <time>2019-09-22T09:09:04Z</time>
      </trkpt>
      <trkpt lat="47.3609" lon="-2.31233">
        <ele>52</ele>
        <time>2019-09-22T09:14:57Z</time>
      </trkpt>
      <trkpt lat="47.36092" lon="-2.31237">
        <ele>52</ele>
        <time>2019-09-22T09:14:59Z</time>
      </trkpt>
      <trkpt lat="47.36092" lon="-2.31245">
        <ele>53</ele>
        <time>2019-09-22T09:15:01Z</time>
      </trkpt>
      <trkpt lat="47.36093" lon="-2.31253">
        <ele>53</ele>
        <time>2019-09-22T09:15:03Z</time>
      </trkpt>
      <trkpt lat="47.36094" lon="-2.31263">
        <ele>52</ele>
        <time>2019-09-22T09:15:05Z</time>
      </trkpt>
      <trkpt lat="47.36094" lon="-2.31269">
        <ele>51</ele>
        <time>2019-09-22T09:15:06Z</time>
      </trkpt>
      <trkpt lat="47.36094" lon="-2.31288">
        <ele>52</ele>
        <time>2019-09-22T09:15:09Z</time>
      </trkpt>
      <trkpt lat="47.36092" lon="-2.31299">
        <ele>52</ele>
        <time>2019-09-22T09:15:11Z</time>
      </trkpt>
      <trkpt lat="47.36091" lon="-2.31304">
        <ele>51</ele>
        <time>2019-09-22T09:15:12Z</time>
      </trkpt>
      <trkpt lat="47.3609" lon="-2.31316">
        <ele>51</ele>
        <time>2019-09-22T09:15:14Z</time>
      </trkpt>
      <trkpt lat="47.36089" lon="-2.31325">
        <ele>52</ele>
        <time>2019-09-22T09:15:16Z</time>
      </trkpt>
      <trkpt lat="47.36089" lon="-2.31336">
        <ele>53</ele>
        <time>2019-09-22T09:15:18Z</time>
      </trkpt>
      <trkpt lat="47.36086" lon="-2.31345">
        <ele>55</ele>
        <time>2019-09-22T09:15:20Z</time>
      </trkpt>
      <trkpt lat="47.3608" lon="-2.31348">
        <ele>55</ele>
        <time>2019-09-22T09:15:22Z</time>
      </trkpt>
      <trkpt lat="47.36072" lon="-2.31349">
        <ele>54</ele>
        <time>2019-09-22T09:15:24Z</time>
      </trkpt>
      <trkpt lat="47.36067" lon="-2.31349">
        <ele>54</ele>
        <time>2019-09-22T09:15:25Z</time>
      </trkpt>
      <trkpt lat="47.36062" lon="-2.31349">
        <ele>54</ele>
        <time>2019-09-22T09:15:26Z</time>
      </trkpt>
      <trkpt lat="47.36055" lon="-2.31354">
        <ele>54</ele>
        <time>2019-09-22T09:15:28Z</time>
      </trkpt>
      <trkpt lat="47.36048" lon="-2.31356">
        <ele>54</ele>
        <time>2019-09-22T09:15:30Z</time>
      </trkpt>
      <trkpt lat="47.36042" lon="-2.31355">
        <ele>53</ele>
        <time>2019-09-22T09:15:31Z</time>
      </trkpt>
      <trkpt lat="47.36037" lon="-2.31355">
        <ele>54</ele>
        <time>2019-09-22T09:15:32Z</time>
      </trkpt>
      <trkpt lat="47.36032" lon="-2.31356">
        <ele>54</ele>
        <time>2019-09-22T09:15:33Z</time>
      </trkpt>
      <trkpt lat="47.36026" lon="-2.31356">
        <ele>53</ele>
        <time>2019-09-22T09:15:34Z</time>
      </trkpt>
      <trkpt lat="47.36021" lon="-2.31357">
        <ele>53</ele>
        <time>2019-09-22T09:15:35Z</time>
      </trkpt>
      <trkpt lat="47.36016" lon="-2.31358">
        <ele>52</ele>
        <time>2019-09-22T09:15:36Z</time>
      </trkpt>
      <trkpt lat="47.36008" lon="-2.31362">
        <ele>51</ele>
        <time>2019-09-22T09:15:38Z</time>
      </trkpt>
      <trkpt lat="47.36004" lon="-2.31364">
        <ele>51</ele>
        <time>2019-09-22T09:15:39Z</time>
      </trkpt>
      <trkpt lat="47.35999" lon="-2.31365">
        <ele>51</ele>
        <time>2019-09-22T09:15:40Z</time>
      </trkpt>
      <trkpt lat="47.35995" lon="-2.31367">
        <ele>51</ele>
        <time>2019-09-22T09:15:41Z</time>
      </trkpt>
      <trkpt lat="47.35991" lon="-2.31368">
        <ele>51</ele>
        <time>2019-09-22T09:15:42Z</time>
      </trkpt>
      <trkpt lat="47.35986" lon="-2.3137">
        <ele>51</ele>
        <time>2019-09-22T09:15:43Z</time>
      </trkpt>
      <trkpt lat="47.35982" lon="-2.31372">
        <ele>51</ele>
        <time>2019-09-22T09:15:44Z</time>
      </trkpt>
      <trkpt lat="47.35975" lon="-2.31376">
        <ele>52</ele>
        <time>2019-09-22T09:15:46Z</time>
      </trkpt>
      <trkpt lat="47.35966" lon="-2.31377">
        <ele>52</ele>
        <time>2019-09-22T09:15:48Z</time>
      </trkpt>
      <trkpt lat="47.35961" lon="-2.31375">
        <ele>52</ele>
        <time>2019-09-22T09:15:50Z</time>
      </trkpt>
      <trkpt lat="47.35951" lon="-2.31368">
        <ele>53</ele>
        <time>2019-09-22T09:15:53Z</time>
      </trkpt>
      <trkpt lat="47.35945" lon="-2.31358">
        <ele>53</ele>
        <time>2019-09-22T09:15:55Z</time>
      </trkpt>
      <trkpt lat="47.35941" lon="-2.31353">
        <ele>53</ele>
        <time>2019-09-22T09:15:56Z</time>
      </trkpt>
      <trkpt lat="47.35938" lon="-2.31349">
        <ele>54</ele>
        <time>2019-09-22T09:15:57Z</time>
      </trkpt>
      <trkpt lat="47.35934" lon="-2.31343">
        <ele>54</ele>
        <time>2019-09-22T09:15:59Z</time>
      </trkpt>
      <trkpt lat="47.35929" lon="-2.31335">
        <ele>54</ele>
        <time>2019-09-22T09:16:02Z</time>
      </trkpt>
      <trkpt lat="47.35925" lon="-2.31332">
        <ele>53</ele>
        <time>2019-09-22T09:16:05Z</time>
      </trkpt>
      <trkpt lat="47.35925" lon="-2.31332">
        <ele>1.3</ele>
        <time>2019-09-22T09:16:10Z</time>
      </trkpt>
      <trkpt lat="47.35925" lon="-2.31332">
        <ele>1.3</ele>
        <time>2019-09-22T09:16:49Z</time>
      </trkpt>
      <trkpt lat="47.35905" lon="-2.31316">
        <ele>52</ele>
        <time>2019-09-22T09:16:49Z</time>
      </trkpt>
      <trkpt lat="47.35873" lon="-2.31332">
        <ele>52</ele>
        <time>2019-09-22T09:16:55Z</time>
      </trkpt>
      <trkpt lat="47.35868" lon="-2.31335">
        <ele>53</ele>
        <time>2019-09-22T09:16:56Z</time>
      </trkpt>
      <trkpt lat="47.35858" lon="-2.31341">
        <ele>56</ele>
        <time>2019-09-22T09:16:58Z</time>
      </trkpt>
      <trkpt lat="47.35854" lon="-2.31344">
        <ele>56</ele>
        <time>2019-09-22T09:16:59Z</time>
      </trkpt>
      <trkpt lat="47.35849" lon="-2.31348">
        <ele>55</ele>
        <time>2019-09-22T09:17:00Z</time>
      </trkpt>
      <trkpt lat="47.35843" lon="-2.31352">
        <ele>54</ele>
        <time>2019-09-22T09:17:01Z</time>
      </trkpt>
      <trkpt lat="47.35834" lon="-2.31361">
        <ele>53</ele>
        <time>2019-09-22T09:17:03Z</time>
      </trkpt>
      <trkpt lat="47.35828" lon="-2.31363">
        <ele>52</ele>
        <time>2019-09-22T09:17:04Z</time>
      </trkpt>
      <trkpt lat="47.35818" lon="-2.3137">
        <ele>52</ele>
        <time>2019-09-22T09:17:06Z</time>
      </trkpt>
      <trkpt lat="47.35813" lon="-2.31373">
        <ele>52</ele>
        <time>2019-09-22T09:17:07Z</time>
      </trkpt>
      <trkpt lat="47.35808" lon="-2.31377">
        <ele>52</ele>
        <time>2019-09-22T09:17:08Z</time>
      </trkpt>
      <trkpt lat="47.35803" lon="-2.31381">
        <ele>51</ele>
        <time>2019-09-22T09:17:09Z</time>
      </trkpt>
      <trkpt lat="47.35788" lon="-2.31392">
        <ele>50</ele>
        <time>2019-09-22T09:17:12Z</time>
      </trkpt>
      <trkpt lat="47.35782" lon="-2.31395">
        <ele>49</ele>
        <time>2019-09-22T09:17:13Z</time>
      </trkpt>
      <trkpt lat="47.35772" lon="-2.31402">
        <ele>50</ele>
        <time>2019-09-22T09:17:15Z</time>
      </trkpt>
      <trkpt lat="47.35767" lon="-2.31406">
        <ele>49</ele>
        <time>2019-09-22T09:17:16Z</time>
      </trkpt>
      <trkpt lat="47.35761" lon="-2.3141">
        <ele>49</ele>
        <time>2019-09-22T09:17:17Z</time>
      </trkpt>
      <trkpt lat="47.35751" lon="-2.31417">
        <ele>49</ele>
        <time>2019-09-22T09:17:19Z</time>
      </trkpt>
      <trkpt lat="47.35746" lon="-2.3142">
        <ele>49</ele>
        <time>2019-09-22T09:17:20Z</time>
      </trkpt>
      <trkpt lat="47.35741" lon="-2.31423">
        <ele>50</ele>
        <time>2019-09-22T09:17:21Z</time>
      </trkpt>
      <trkpt lat="47.35736" lon="-2.31426">
        <ele>50</ele>
        <time>2019-09-22T09:17:22Z</time>
      </trkpt>
      <trkpt lat="47.35721" lon="-2.31434">
        <ele>50</ele>
        <time>2019-09-22T09:17:25Z</time>
      </trkpt>
      <trkpt lat="47.35716" lon="-2.31438">
        <ele>50</ele>
        <time>2019-09-22T09:17:26Z</time>
      </trkpt>
      <trkpt lat="47.35711" lon="-2.31441">
        <ele>49</ele>
        <time>2019-09-22T09:17:27Z</time>
      </trkpt>
      <trkpt lat="47.35706" lon="-2.31446">
        <ele>50</ele>
        <time>2019-09-22T09:17:28Z</time>
      </trkpt>
      <trkpt lat="47.35702" lon="-2.3145">
        <ele>50</ele>
        <time>2019-09-22T09:17:29Z</time>
      </trkpt>
      <trkpt lat="47.35698" lon="-2.31455">
        <ele>50</ele>
        <time>2019-09-22T09:17:30Z</time>
      </trkpt>
      <trkpt lat="47.35694" lon="-2.31461">
        <ele>51</ele>
        <time>2019-09-22T09:17:31Z</time>
      </trkpt>
      <trkpt lat="47.35691" lon="-2.31466">
        <ele>51</ele>
        <time>2019-09-22T09:17:32Z</time>
      </trkpt>
      <trkpt lat="47.35687" lon="-2.31473">
        <ele>51</ele>
        <time>2019-09-22T09:17:33Z</time>
      </trkpt>
      <trkpt lat="47.35683" lon="-2.31479">
        <ele>51</ele>
        <time>2019-09-22T09:17:34Z</time>
      </trkpt>
      <trkpt lat="47.3568" lon="-2.31486">
        <ele>51</ele>
        <time>2019-09-22T09:17:35Z</time>
      </trkpt>
      <trkpt lat="47.35677" lon="-2.31493">
        <ele>51</ele>
        <time>2019-09-22T09:17:36Z</time>
      </trkpt>
      <trkpt lat="47.35673" lon="-2.31499">
        <ele>51</ele>
        <time>2019-09-22T09:17:37Z</time>
      </trkpt>
      <trkpt lat="47.3567" lon="-2.31505">
        <ele>51</ele>
        <time>2019-09-22T09:17:38Z</time>
      </trkpt>
      <trkpt lat="47.35662" lon="-2.31529">
        <ele>50</ele>
        <time>2019-09-22T09:17:41Z</time>
      </trkpt>
      <trkpt lat="47.35659" lon="-2.31537">
        <ele>49</ele>
        <time>2019-09-22T09:17:42Z</time>
      </trkpt>
      <trkpt lat="47.35657" lon="-2.31544">
        <ele>49</ele>
        <time>2019-09-22T09:17:43Z</time>
      </trkpt>
      <trkpt lat="47.35654" lon="-2.31552">
        <ele>49</ele>
        <time>2019-09-22T09:17:44Z</time>
      </trkpt>
      <trkpt lat="47.35652" lon="-2.31559">
        <ele>49</ele>
        <time>2019-09-22T09:17:45Z</time>
      </trkpt>
      <trkpt lat="47.35649" lon="-2.31566">
        <ele>49</ele>
        <time>2019-09-22T09:17:46Z</time>
      </trkpt>
      <trkpt lat="47.35646" lon="-2.31573">
        <ele>48</ele>
        <time>2019-09-22T09:17:47Z</time>
      </trkpt>
      <trkpt lat="47.35643" lon="-2.31579">
        <ele>48</ele>
        <time>2019-09-22T09:17:48Z</time>
      </trkpt>
      <trkpt lat="47.35641" lon="-2.31585">
        <ele>48</ele>
        <time>2019-09-22T09:17:49Z</time>
      </trkpt>
      <trkpt lat="47.35638" lon="-2.31591">
        <ele>48</ele>
        <time>2019-09-22T09:17:50Z</time>
      </trkpt>
      <trkpt lat="47.35636" lon="-2.31597">
        <ele>48</ele>
        <time>2019-09-22T09:17:51Z</time>
      </trkpt>
      <trkpt lat="47.35633" lon="-2.31603">
        <ele>48</ele>
        <time>2019-09-22T09:17:52Z</time>
      </trkpt>
      <trkpt lat="47.3563" lon="-2.31609">
        <ele>49</ele>
        <time>2019-09-22T09:17:53Z</time>
      </trkpt>
      <trkpt lat="47.35624" lon="-2.3162">
        <ele>48</ele>
        <time>2019-09-22T09:17:55Z</time>
      </trkpt>
      <trkpt lat="47.35622" lon="-2.31627">
        <ele>48</ele>
        <time>2019-09-22T09:17:56Z</time>
      </trkpt>
      <trkpt lat="47.3562" lon="-2.31634">
        <ele>49</ele>
        <time>2019-09-22T09:17:57Z</time>
      </trkpt>
      <trkpt lat="47.35617" lon="-2.3164">
        <ele>49</ele>
        <time>2019-09-22T09:17:58Z</time>
      </trkpt>
      <trkpt lat="47.35615" lon="-2.31645">
        <ele>49</ele>
        <time>2019-09-22T09:17:59Z</time>
      </trkpt>
      <trkpt lat="47.35613" lon="-2.31651">
        <ele>48</ele>
        <time>2019-09-22T09:18:00Z</time>
      </trkpt>
      <trkpt lat="47.35611" lon="-2.31657">
        <ele>48</ele>
        <time>2019-09-22T09:18:01Z</time>
      </trkpt>
      <trkpt lat="47.35606" lon="-2.31668">
        <ele>48</ele>
        <time>2019-09-22T09:18:03Z</time>
      </trkpt>
      <trkpt lat="47.35604" lon="-2.31673">
        <ele>48</ele>
        <time>2019-09-22T09:18:04Z</time>
      </trkpt>
      <trkpt lat="47.35602" lon="-2.31678">
        <ele>48</ele>
        <time>2019-09-22T09:18:05Z</time>
      </trkpt>
      <trkpt lat="47.35599" lon="-2.31683">
        <ele>48</ele>
        <time>2019-09-22T09:18:06Z</time>
      </trkpt>
      <trkpt lat="47.35595" lon="-2.31695">
        <ele>49</ele>
        <time>2019-09-22T09:18:08Z</time>
      </trkpt>
      <trkpt lat="47.35593" lon="-2.31701">
        <ele>48</ele>
        <time>2019-09-22T09:18:09Z</time>
      </trkpt>
      <trkpt lat="47.35591" lon="-2.31706">
        <ele>48</ele>
        <time>2019-09-22T09:18:10Z</time>
      </trkpt>
      <trkpt lat="47.35588" lon="-2.31712">
        <ele>48</ele>
        <time>2019-09-22T09:18:11Z</time>
      </trkpt>
      <trkpt lat="47.35586" lon="-2.31718">
        <ele>48</ele>
        <time>2019-09-22T09:18:12Z</time>
      </trkpt>
      <trkpt lat="47.35584" lon="-2.31724">
        <ele>49</ele>
        <time>2019-09-22T09:18:13Z</time>
      </trkpt>
      <trkpt lat="47.35581" lon="-2.3173">
        <ele>49</ele>
        <time>2019-09-22T09:18:14Z</time>
      </trkpt>
      <trkpt lat="47.35578" lon="-2.31736">
        <ele>49</ele>
        <time>2019-09-22T09:18:15Z</time>
      </trkpt>
      <trkpt lat="47.35576" lon="-2.31742">
        <ele>49</ele>
        <time>2019-09-22T09:18:16Z</time>
      </trkpt>
      <trkpt lat="47.35573" lon="-2.31748">
        <ele>49</ele>
        <time>2019-09-22T09:18:17Z</time>
      </trkpt>
      <trkpt lat="47.35568" lon="-2.31758">
        <ele>48</ele>
        <time>2019-09-22T09:18:19Z</time>
      </trkpt>
      <trkpt lat="47.35562" lon="-2.3177">
        <ele>48</ele>
        <time>2019-09-22T09:18:21Z</time>
      </trkpt>
      <trkpt lat="47.3556" lon="-2.31776">
        <ele>49</ele>
        <time>2019-09-22T09:18:22Z</time>
      </trkpt>
      <trkpt lat="47.35558" lon="-2.31782">
        <ele>49</ele>
        <time>2019-09-22T09:18:23Z</time>
      </trkpt>
      <trkpt lat="47.35556" lon="-2.31788">
        <ele>49</ele>
        <time>2019-09-22T09:18:24Z</time>
      </trkpt>
      <trkpt lat="47.35554" lon="-2.31794">
        <ele>49</ele>
        <time>2019-09-22T09:18:25Z</time>
      </trkpt>
      <trkpt lat="47.3555" lon="-2.31805">
        <ele>50</ele>
        <time>2019-09-22T09:18:27Z</time>
      </trkpt>
      <trkpt lat="47.35548" lon="-2.3181">
        <ele>50</ele>
        <time>2019-09-22T09:18:28Z</time>
      </trkpt>
      <trkpt lat="47.35545" lon="-2.31823">
        <ele>50</ele>
        <time>2019-09-22T09:18:30Z</time>
      </trkpt>
      <trkpt lat="47.35543" lon="-2.3183">
        <ele>50</ele>
        <time>2019-09-22T09:18:31Z</time>
      </trkpt>
      <trkpt lat="47.3554" lon="-2.31836">
        <ele>50</ele>
        <time>2019-09-22T09:18:32Z</time>
      </trkpt>
      <trkpt lat="47.35537" lon="-2.31842">
        <ele>50</ele>
        <time>2019-09-22T09:18:33Z</time>
      </trkpt>
      <trkpt lat="47.35534" lon="-2.31849">
        <ele>50</ele>
        <time>2019-09-22T09:18:34Z</time>
      </trkpt>
      <trkpt lat="47.35532" lon="-2.31855">
        <ele>49</ele>
        <time>2019-09-22T09:18:35Z</time>
      </trkpt>
      <trkpt lat="47.35529" lon="-2.31861">
        <ele>49</ele>
        <time>2019-09-22T09:18:36Z</time>
      </trkpt>
      <trkpt lat="47.35526" lon="-2.31867">
        <ele>49</ele>
        <time>2019-09-22T09:18:37Z</time>
      </trkpt>
      <trkpt lat="47.35521" lon="-2.31877">
        <ele>49</ele>
        <time>2019-09-22T09:18:39Z</time>
      </trkpt>
      <trkpt lat="47.35518" lon="-2.31883">
        <ele>49</ele>
        <time>2019-09-22T09:18:40Z</time>
      </trkpt>
      <trkpt lat="47.35513" lon="-2.31895">
        <ele>49</ele>
        <time>2019-09-22T09:18:42Z</time>
      </trkpt>
      <trkpt lat="47.35511" lon="-2.31901">
        <ele>49</ele>
        <time>2019-09-22T09:18:43Z</time>
      </trkpt>
      <trkpt lat="47.35507" lon="-2.31909">
        <ele>49</ele>
        <time>2019-09-22T09:18:45Z</time>
      </trkpt>
      <trkpt lat="47.35506" lon="-2.31912">
        <ele>49</ele>
        <time>2019-09-22T09:18:46Z</time>
      </trkpt>
      <trkpt lat="47.35499" lon="-2.31926">
        <ele>50</ele>
        <time>2019-09-22T09:18:49Z</time>
      </trkpt>
      <trkpt lat="47.35494" lon="-2.31935">
        <ele>51</ele>
        <time>2019-09-22T09:18:51Z</time>
      </trkpt>
      <trkpt lat="47.35493" lon="-2.31938">
        <ele>50</ele>
        <time>2019-09-22T09:18:52Z</time>
      </trkpt>
      <trkpt lat="47.35495" lon="-2.31945">
        <ele>51</ele>
        <time>2019-09-22T09:18:56Z</time>
      </trkpt>
      <trkpt lat="47.35499" lon="-2.31949">
        <ele>52</ele>
        <time>2019-09-22T09:18:58Z</time>
      </trkpt>
      <trkpt lat="47.35506" lon="-2.31968">
        <ele>53</ele>
        <time>2019-09-22T09:19:02Z</time>
      </trkpt>
      <trkpt lat="47.35507" lon="-2.3198">
        <ele>53</ele>
        <time>2019-09-22T09:19:04Z</time>
      </trkpt>
      <trkpt lat="47.3551" lon="-2.32">
        <ele>53</ele>
        <time>2019-09-22T09:19:07Z</time>
      </trkpt>
      <trkpt lat="47.35512" lon="-2.32014">
        <ele>61</ele>
        <time>2019-09-22T09:19:10Z</time>
      </trkpt>
      <trkpt lat="47.35513" lon="-2.32023">
        <ele>63</ele>
        <time>2019-09-22T09:19:12Z</time>
      </trkpt>
      <trkpt lat="47.35514" lon="-2.32028">
        <ele>63</ele>
        <time>2019-09-22T09:19:13Z</time>
      </trkpt>
      <trkpt lat="47.35512" lon="-2.32037">
        <ele>65</ele>
        <time>2019-09-22T09:19:15Z</time>
      </trkpt>
      <trkpt lat="47.35514" lon="-2.32045">
        <ele>67</ele>
        <time>2019-09-22T09:19:17Z</time>
      </trkpt>
      <trkpt lat="47.35516" lon="-2.32061">
        <ele>68</ele>
        <time>2019-09-22T09:19:20Z</time>
      </trkpt>
      <trkpt lat="47.35516" lon="-2.32073">
        <ele>69</ele>
        <time>2019-09-22T09:19:22Z</time>
      </trkpt>
      <trkpt lat="47.35516" lon="-2.32079">
        <ele>69</ele>
        <time>2019-09-22T09:19:23Z</time>
      </trkpt>
      <trkpt lat="47.35514" lon="-2.32088">
        <ele>72</ele>
        <time>2019-09-22T09:19:26Z</time>
      </trkpt>
      <trkpt lat="47.35514" lon="-2.32091">
        <ele>73</ele>
        <time>2019-09-22T09:19:27Z</time>
      </trkpt>
      <trkpt lat="47.35514" lon="-2.32101">
        <ele>74</ele>
        <time>2019-09-22T09:19:29Z</time>
      </trkpt>
      <trkpt lat="47.35514" lon="-2.32108">
        <ele>74</ele>
        <time>2019-09-22T09:19:30Z</time>
      </trkpt>
      <trkpt lat="47.35514" lon="-2.32122">
        <ele>68</ele>
        <time>2019-09-22T09:19:32Z</time>
      </trkpt>
      <trkpt lat="47.35513" lon="-2.32133">
        <ele>68</ele>
        <time>2019-09-22T09:19:34Z</time>
      </trkpt>
      <trkpt lat="47.3551" lon="-2.32144">
        <ele>67</ele>
        <time>2019-09-22T09:19:36Z</time>
      </trkpt>
      <trkpt lat="47.3551" lon="-2.32149">
        <ele>67</ele>
        <time>2019-09-22T09:19:37Z</time>
      </trkpt>
      <trkpt lat="47.35509" lon="-2.32159">
        <ele>67</ele>
        <time>2019-09-22T09:19:39Z</time>
      </trkpt>
      <trkpt lat="47.35509" lon="-2.32165">
        <ele>67</ele>
        <time>2019-09-22T09:19:40Z</time>
      </trkpt>
      <trkpt lat="47.35509" lon="-2.32182">
        <ele>64</ele>
        <time>2019-09-22T09:19:43Z</time>
      </trkpt>
      <trkpt lat="47.35508" lon="-2.322">
        <ele>63</ele>
        <time>2019-09-22T09:19:46Z</time>
      </trkpt>
      <trkpt lat="47.35509" lon="-2.32211">
        <ele>63</ele>
        <time>2019-09-22T09:19:48Z</time>
      </trkpt>
      <trkpt lat="47.35494" lon="-2.32261">
        <ele>56</ele>
        <time>2019-09-22T09:19:57Z</time>
      </trkpt>
      <trkpt lat="47.35489" lon="-2.32263">
        <ele>62</ele>
        <time>2019-09-22T09:19:58Z</time>
      </trkpt>
      <trkpt lat="47.35483" lon="-2.32269">
        <ele>63</ele>
        <time>2019-09-22T09:20:00Z</time>
      </trkpt>
      <trkpt lat="47.35478" lon="-2.32272">
        <ele>61</ele>
        <time>2019-09-22T09:20:01Z</time>
      </trkpt>
      <trkpt lat="47.35472" lon="-2.32276">
        <ele>55</ele>
        <time>2019-09-22T09:20:02Z</time>
      </trkpt>
      <trkpt lat="47.35446" lon="-2.32294">
        <ele>39</ele>
        <time>2019-09-22T09:20:06Z</time>
      </trkpt>
      <trkpt lat="47.35438" lon="-2.32297">
        <ele>41</ele>
        <time>2019-09-22T09:20:08Z</time>
      </trkpt>
      <trkpt lat="47.3543" lon="-2.323">
        <ele>44</ele>
        <time>2019-09-22T09:20:10Z</time>
      </trkpt>
      <trkpt lat="47.35425" lon="-2.32302">
        <ele>45</ele>
        <time>2019-09-22T09:20:11Z</time>
      </trkpt>
      <trkpt lat="47.3542" lon="-2.32305">
        <ele>45</ele>
        <time>2019-09-22T09:20:12Z</time>
      </trkpt>
      <trkpt lat="47.35413" lon="-2.3231">
        <ele>47</ele>
        <time>2019-09-22T09:20:14Z</time>
      </trkpt>
      <trkpt lat="47.35408" lon="-2.32313">
        <ele>46</ele>
        <time>2019-09-22T09:20:15Z</time>
      </trkpt>
      <trkpt lat="47.35403" lon="-2.32316">
        <ele>46</ele>
        <time>2019-09-22T09:20:16Z</time>
      </trkpt>
      <trkpt lat="47.35397" lon="-2.32318">
        <ele>47</ele>
        <time>2019-09-22T09:20:17Z</time>
      </trkpt>
      <trkpt lat="47.35388" lon="-2.32323">
        <ele>47</ele>
        <time>2019-09-22T09:20:19Z</time>
      </trkpt>
      <trkpt lat="47.35384" lon="-2.32328">
        <ele>48</ele>
        <time>2019-09-22T09:20:20Z</time>
      </trkpt>
      <trkpt lat="47.35379" lon="-2.3233">
        <ele>50</ele>
        <time>2019-09-22T09:20:21Z</time>
      </trkpt>
      <trkpt lat="47.35374" lon="-2.32332">
        <ele>52</ele>
        <time>2019-09-22T09:20:22Z</time>
      </trkpt>
      <trkpt lat="47.35368" lon="-2.32333">
        <ele>53</ele>
        <time>2019-09-22T09:20:23Z</time>
      </trkpt>
      <trkpt lat="47.35363" lon="-2.32335">
        <ele>54</ele>
        <time>2019-09-22T09:20:24Z</time>
      </trkpt>
      <trkpt lat="47.35358" lon="-2.32336">
        <ele>54</ele>
        <time>2019-09-22T09:20:25Z</time>
      </trkpt>
      <trkpt lat="47.35353" lon="-2.32339">
        <ele>54</ele>
        <time>2019-09-22T09:20:26Z</time>
      </trkpt>
      <trkpt lat="47.35349" lon="-2.32341">
        <ele>54</ele>
        <time>2019-09-22T09:20:27Z</time>
      </trkpt>
      <trkpt lat="47.35343" lon="-2.32342">
        <ele>55</ele>
        <time>2019-09-22T09:20:28Z</time>
      </trkpt>
      <trkpt lat="47.35338" lon="-2.32344">
        <ele>54</ele>
        <time>2019-09-22T09:20:29Z</time>
      </trkpt>
      <trkpt lat="47.35333" lon="-2.32347">
        <ele>53</ele>
        <time>2019-09-22T09:20:30Z</time>
      </trkpt>
      <trkpt lat="47.35329" lon="-2.3235">
        <ele>53</ele>
        <time>2019-09-22T09:20:31Z</time>
      </trkpt>
      <trkpt lat="47.35325" lon="-2.32353">
        <ele>53</ele>
        <time>2019-09-22T09:20:32Z</time>
      </trkpt>
      <trkpt lat="47.3532" lon="-2.32356">
        <ele>54</ele>
        <time>2019-09-22T09:20:33Z</time>
      </trkpt>
      <trkpt lat="47.35309" lon="-2.32358">
        <ele>56</ele>
        <time>2019-09-22T09:20:36Z</time>
      </trkpt>
      <trkpt lat="47.35288" lon="-2.32366">
        <ele>57</ele>
        <time>2019-09-22T09:20:40Z</time>
      </trkpt>
      <trkpt lat="47.35283" lon="-2.32368">
        <ele>58</ele>
        <time>2019-09-22T09:20:41Z</time>
      </trkpt>
      <trkpt lat="47.35272" lon="-2.32374">
        <ele>58</ele>
        <time>2019-09-22T09:20:43Z</time>
      </trkpt>
      <trkpt lat="47.35267" lon="-2.32376">
        <ele>58</ele>
        <time>2019-09-22T09:20:44Z</time>
      </trkpt>
      <trkpt lat="47.35262" lon="-2.32379">
        <ele>58</ele>
        <time>2019-09-22T09:20:45Z</time>
      </trkpt>
      <trkpt lat="47.35257" lon="-2.32381">
        <ele>59</ele>
        <time>2019-09-22T09:20:46Z</time>
      </trkpt>
      <trkpt lat="47.35243" lon="-2.32392">
        <ele>59</ele>
        <time>2019-09-22T09:20:49Z</time>
      </trkpt>
      <trkpt lat="47.35237" lon="-2.32396">
        <ele>59</ele>
        <time>2019-09-22T09:20:50Z</time>
      </trkpt>
      <trkpt lat="47.35232" lon="-2.32398">
        <ele>58</ele>
        <time>2019-09-22T09:20:51Z</time>
      </trkpt>
      <trkpt lat="47.35227" lon="-2.32402">
        <ele>58</ele>
        <time>2019-09-22T09:20:52Z</time>
      </trkpt>
      <trkpt lat="47.35223" lon="-2.32405">
        <ele>56</ele>
        <time>2019-09-22T09:20:53Z</time>
      </trkpt>
      <trkpt lat="47.35213" lon="-2.32411">
        <ele>56</ele>
        <time>2019-09-22T09:20:55Z</time>
      </trkpt>
      <trkpt lat="47.35204" lon="-2.32419">
        <ele>56</ele>
        <time>2019-09-22T09:20:57Z</time>
      </trkpt>
      <trkpt lat="47.352" lon="-2.32423">
        <ele>55</ele>
        <time>2019-09-22T09:20:58Z</time>
      </trkpt>
      <trkpt lat="47.35196" lon="-2.32428">
        <ele>55</ele>
        <time>2019-09-22T09:21:00Z</time>
      </trkpt>
      <trkpt lat="47.35191" lon="-2.32431">
        <ele>55</ele>
        <time>2019-09-22T09:21:05Z</time>
      </trkpt>
      <trkpt lat="47.35191" lon="-2.32431">
        <ele>1.9</ele>
        <time>2019-09-22T09:21:10Z</time>
      </trkpt>
      <trkpt lat="47.35191" lon="-2.32431">
        <ele>1.9</ele>
        <time>2019-09-22T09:21:43Z</time>
      </trkpt>
      <trkpt lat="47.35157" lon="-2.32439">
        <ele>60</ele>
        <time>2019-09-22T09:21:43Z</time>
      </trkpt>
      <trkpt lat="47.35121" lon="-2.325">
        <ele>52</ele>
        <time>2019-09-22T09:21:49Z</time>
      </trkpt>
      <trkpt lat="47.3511" lon="-2.32509">
        <ele>51</ele>
        <time>2019-09-22T09:21:51Z</time>
      </trkpt>
      <trkpt lat="47.35106" lon="-2.32513">
        <ele>52</ele>
        <time>2019-09-22T09:21:52Z</time>
      </trkpt>
      <trkpt lat="47.35101" lon="-2.32518">
        <ele>52</ele>
        <time>2019-09-22T09:21:53Z</time>
      </trkpt>
      <trkpt lat="47.35096" lon="-2.32523">
        <ele>52</ele>
        <time>2019-09-22T09:21:54Z</time>
      </trkpt>
      <trkpt lat="47.35092" lon="-2.32527">
        <ele>53</ele>
        <time>2019-09-22T09:21:55Z</time>
      </trkpt>
      <trkpt lat="47.35087" lon="-2.32532">
        <ele>53</ele>
        <time>2019-09-22T09:21:56Z</time>
      </trkpt>
      <trkpt lat="47.35082" lon="-2.32537">
        <ele>52</ele>
        <time>2019-09-22T09:21:57Z</time>
      </trkpt>
      <trkpt lat="47.35077" lon="-2.32542">
        <ele>51</ele>
        <time>2019-09-22T09:21:58Z</time>
      </trkpt>
      <trkpt lat="47.35073" lon="-2.32546">
        <ele>51</ele>
        <time>2019-09-22T09:21:59Z</time>
      </trkpt>
      <trkpt lat="47.35069" lon="-2.3255">
        <ele>51</ele>
        <time>2019-09-22T09:22:00Z</time>
      </trkpt>
      <trkpt lat="47.35065" lon="-2.32554">
        <ele>53</ele>
        <time>2019-09-22T09:22:01Z</time>
      </trkpt>
      <trkpt lat="47.3506" lon="-2.32556">
        <ele>52</ele>
        <time>2019-09-22T09:22:02Z</time>
      </trkpt>
      <trkpt lat="47.35055" lon="-2.32559">
        <ele>52</ele>
        <time>2019-09-22T09:22:03Z</time>
      </trkpt>
      <trkpt lat="47.35047" lon="-2.32564">
        <ele>53</ele>
        <time>2019-09-22T09:22:05Z</time>
      </trkpt>
      <trkpt lat="47.35043" lon="-2.32567">
        <ele>52</ele>
        <time>2019-09-22T09:22:06Z</time>
      </trkpt>
      <trkpt lat="47.3504" lon="-2.32568">
        <ele>53</ele>
        <time>2019-09-22T09:22:07Z</time>
      </trkpt>
      <trkpt lat="47.35036" lon="-2.32571">
        <ele>53</ele>
        <time>2019-09-22T09:22:08Z</time>
      </trkpt>
      <trkpt lat="47.35032" lon="-2.32574">
        <ele>52</ele>
        <time>2019-09-22T09:22:09Z</time>
      </trkpt>
      <trkpt lat="47.35028" lon="-2.32577">
        <ele>52</ele>
        <time>2019-09-22T09:22:10Z</time>
      </trkpt>
      <trkpt lat="47.35023" lon="-2.32582">
        <ele>51</ele>
        <time>2019-09-22T09:22:12Z</time>
      </trkpt>
      <trkpt lat="47.3502" lon="-2.32583">
        <ele>51</ele>
        <time>2019-09-22T09:22:13Z</time>
      </trkpt>
      <trkpt lat="47.35018" lon="-2.32585">
        <ele>51</ele>
        <time>2019-09-22T09:22:14Z</time>
      </trkpt>
      <trkpt lat="47.35016" lon="-2.32586">
        <ele>51</ele>
        <time>2019-09-22T09:22:15Z</time>
      </trkpt>
      <trkpt lat="47.35013" lon="-2.32588">
        <ele>52</ele>
        <time>2019-09-22T09:22:16Z</time>
      </trkpt>
      <trkpt lat="47.35006" lon="-2.32591">
        <ele>52</ele>
        <time>2019-09-22T09:22:18Z</time>
      </trkpt>
      <trkpt lat="47.34999" lon="-2.32595">
        <ele>51</ele>
        <time>2019-09-22T09:22:20Z</time>
      </trkpt>
      <trkpt lat="47.34996" lon="-2.32596">
        <ele>52</ele>
        <time>2019-09-22T09:22:21Z</time>
      </trkpt>
      <trkpt lat="47.34993" lon="-2.32598">
        <ele>53</ele>
        <time>2019-09-22T09:22:22Z</time>
      </trkpt>
      <trkpt lat="47.34989" lon="-2.326">
        <ele>53</ele>
        <time>2019-09-22T09:22:23Z</time>
      </trkpt>
      <trkpt lat="47.34981" lon="-2.32601">
        <ele>53</ele>
        <time>2019-09-22T09:22:25Z</time>
      </trkpt>
      <trkpt lat="47.34976" lon="-2.32602">
        <ele>54</ele>
        <time>2019-09-22T09:22:26Z</time>
      </trkpt>
      <trkpt lat="47.34971" lon="-2.32601">
        <ele>54</ele>
        <time>2019-09-22T09:22:27Z</time>
      </trkpt>
      <trkpt lat="47.34961" lon="-2.32603">
        <ele>54</ele>
        <time>2019-09-22T09:22:29Z</time>
      </trkpt>
      <trkpt lat="47.34956" lon="-2.32603">
        <ele>54</ele>
        <time>2019-09-22T09:22:31Z</time>
      </trkpt>
      <trkpt lat="47.34952" lon="-2.32603">
        <ele>55</ele>
        <time>2019-09-22T09:22:32Z</time>
      </trkpt>
      <trkpt lat="47.34947" lon="-2.32603">
        <ele>55</ele>
        <time>2019-09-22T09:22:33Z</time>
      </trkpt>
      <trkpt lat="47.34942" lon="-2.32603">
        <ele>55</ele>
        <time>2019-09-22T09:22:34Z</time>
      </trkpt>
      <trkpt lat="47.34937" lon="-2.32604">
        <ele>55</ele>
        <time>2019-09-22T09:22:35Z</time>
      </trkpt>
      <trkpt lat="47.34928" lon="-2.32606">
        <ele>56</ele>
        <time>2019-09-22T09:22:37Z</time>
      </trkpt>
      <trkpt lat="47.34923" lon="-2.32609">
        <ele>56</ele>
        <time>2019-09-22T09:22:38Z</time>
      </trkpt>
      <trkpt lat="47.34919" lon="-2.32613">
        <ele>55</ele>
        <time>2019-09-22T09:22:39Z</time>
      </trkpt>
      <trkpt lat="47.3491" lon="-2.3262">
        <ele>54</ele>
        <time>2019-09-22T09:22:40Z</time>
      </trkpt>
      <trkpt lat="47.34907" lon="-2.32624">
        <ele>54</ele>
        <time>2019-09-22T09:22:41Z</time>
      </trkpt>
      <trkpt lat="47.34901" lon="-2.32631">
        <ele>57</ele>
        <time>2019-09-22T09:22:43Z</time>
      </trkpt>
      <trkpt lat="47.34893" lon="-2.32639">
        <ele>62</ele>
        <time>2019-09-22T09:22:46Z</time>
      </trkpt>
      <trkpt lat="47.3489" lon="-2.32644">
        <ele>62</ele>
        <time>2019-09-22T09:22:47Z</time>
      </trkpt>
      <trkpt lat="47.34884" lon="-2.32648">
        <ele>65</ele>
        <time>2019-09-22T09:22:49Z</time>
      </trkpt>
      <trkpt lat="47.34879" lon="-2.32651">
        <ele>66</ele>
        <time>2019-09-22T09:22:51Z</time>
      </trkpt>
      <trkpt lat="47.34875" lon="-2.32653">
        <ele>67</ele>
        <time>2019-09-22T09:22:53Z</time>
      </trkpt>
      <trkpt lat="47.34874" lon="-2.32665">
        <ele>70</ele>
        <time>2019-09-22T09:22:57Z</time>
      </trkpt>
      <trkpt lat="47.34876" lon="-2.32676">
        <ele>73</ele>
        <time>2019-09-22T09:23:01Z</time>
      </trkpt>
      <trkpt lat="47.34869" lon="-2.32685">
        <ele>77</ele>
        <time>2019-09-22T09:23:05Z</time>
      </trkpt>
      <trkpt lat="47.34827" lon="-2.32687">
        <ele>89</ele>
        <time>2019-09-22T09:23:11Z</time>
      </trkpt>
      <trkpt lat="47.34821" lon="-2.32687">
        <ele>87</ele>
        <time>2019-09-22T09:23:12Z</time>
      </trkpt>
      <trkpt lat="47.34815" lon="-2.32688">
        <ele>84</ele>
        <time>2019-09-22T09:23:13Z</time>
      </trkpt>
      <trkpt lat="47.34811" lon="-2.32691">
        <ele>82</ele>
        <time>2019-09-22T09:23:14Z</time>
      </trkpt>
      <trkpt lat="47.34806" lon="-2.32692">
        <ele>81</ele>
        <time>2019-09-22T09:23:15Z</time>
      </trkpt>
      <trkpt lat="47.34798" lon="-2.32694">
        <ele>77</ele>
        <time>2019-09-22T09:23:17Z</time>
      </trkpt>
      <trkpt lat="47.34793" lon="-2.32697">
        <ele>75</ele>
        <time>2019-09-22T09:23:19Z</time>
      </trkpt>
      <trkpt lat="47.34787" lon="-2.327">
        <ele>73</ele>
        <time>2019-09-22T09:23:21Z</time>
      </trkpt>
      <trkpt lat="47.34781" lon="-2.32705">
        <ele>72</ele>
        <time>2019-09-22T09:23:23Z</time>
      </trkpt>
      <trkpt lat="47.34776" lon="-2.32711">
        <ele>71</ele>
        <time>2019-09-22T09:23:25Z</time>
      </trkpt>
      <trkpt lat="47.34773" lon="-2.32714">
        <ele>70</ele>
        <time>2019-09-22T09:23:26Z</time>
      </trkpt>
      <trkpt lat="47.34764" lon="-2.32722">
        <ele>69</ele>
        <time>2019-09-22T09:23:29Z</time>
      </trkpt>
      <trkpt lat="47.3476" lon="-2.32725">
        <ele>66</ele>
        <time>2019-09-22T09:23:30Z</time>
      </trkpt>
      <trkpt lat="47.34756" lon="-2.32728">
        <ele>65</ele>
        <time>2019-09-22T09:23:31Z</time>
      </trkpt>
      <trkpt lat="47.34753" lon="-2.3273">
        <ele>64</ele>
        <time>2019-09-22T09:23:32Z</time>
      </trkpt>
      <trkpt lat="47.34741" lon="-2.32741">
        <ele>61</ele>
        <time>2019-09-22T09:23:35Z</time>
      </trkpt>
      <trkpt lat="47.34737" lon="-2.32744">
        <ele>60</ele>
        <time>2019-09-22T09:23:36Z</time>
      </trkpt>
      <trkpt lat="47.34732" lon="-2.3275">
        <ele>59</ele>
        <time>2019-09-22T09:23:38Z</time>
      </trkpt>
      <trkpt lat="47.34726" lon="-2.32753">
        <ele>59</ele>
        <time>2019-09-22T09:23:40Z</time>
      </trkpt>
      <trkpt lat="47.34717" lon="-2.32744">
        <ele>59</ele>
        <time>2019-09-22T09:23:43Z</time>
      </trkpt>
      <trkpt lat="47.34711" lon="-2.32736">
        <ele>59</ele>
        <time>2019-09-22T09:23:45Z</time>
      </trkpt>
      <trkpt lat="47.34708" lon="-2.32732">
        <ele>59</ele>
        <time>2019-09-22T09:23:46Z</time>
      </trkpt>
      <trkpt lat="47.34706" lon="-2.32729">
        <ele>59</ele>
        <time>2019-09-22T09:23:47Z</time>
      </trkpt>
      <trkpt lat="47.34698" lon="-2.32714">
        <ele>59</ele>
        <time>2019-09-22T09:23:50Z</time>
      </trkpt>
      <trkpt lat="47.34695" lon="-2.3271">
        <ele>59</ele>
        <time>2019-09-22T09:23:51Z</time>
      </trkpt>
      <trkpt lat="47.34689" lon="-2.32705">
        <ele>58</ele>
        <time>2019-09-22T09:23:52Z</time>
      </trkpt>
      <trkpt lat="47.34684" lon="-2.327">
        <ele>57</ele>
        <time>2019-09-22T09:23:53Z</time>
      </trkpt>
      <trkpt lat="47.3468" lon="-2.32695">
        <ele>57</ele>
        <time>2019-09-22T09:23:54Z</time>
      </trkpt>
      <trkpt lat="47.34677" lon="-2.3269">
        <ele>57</ele>
        <time>2019-09-22T09:23:55Z</time>
      </trkpt>
      <trkpt lat="47.34673" lon="-2.32686">
        <ele>58</ele>
        <time>2019-09-22T09:23:56Z</time>
      </trkpt>
      <trkpt lat="47.34671" lon="-2.32682">
        <ele>57</ele>
        <time>2019-09-22T09:23:57Z</time>
      </trkpt>
      <trkpt lat="47.34664" lon="-2.32664">
        <ele>60</ele>
        <time>2019-09-22T09:24:01Z</time>
      </trkpt>
      <trkpt lat="47.34656" lon="-2.32654">
        <ele>60</ele>
        <time>2019-09-22T09:24:04Z</time>
      </trkpt>
      <trkpt lat="47.34648" lon="-2.3265">
        <ele>60</ele>
        <time>2019-09-22T09:24:06Z</time>
      </trkpt>
      <trkpt lat="47.34635" lon="-2.32641">
        <ele>60</ele>
        <time>2019-09-22T09:24:09Z</time>
      </trkpt>
      <trkpt lat="47.3463" lon="-2.32639">
        <ele>59</ele>
        <time>2019-09-22T09:24:10Z</time>
      </trkpt>
      <trkpt lat="47.34627" lon="-2.32636">
        <ele>59</ele>
        <time>2019-09-22T09:24:11Z</time>
      </trkpt>
      <trkpt lat="47.34621" lon="-2.32634">
        <ele>59</ele>
        <time>2019-09-22T09:24:13Z</time>
      </trkpt>
      <trkpt lat="47.34612" lon="-2.32636">
        <ele>58</ele>
        <time>2019-09-22T09:24:16Z</time>
      </trkpt>
      <trkpt lat="47.34605" lon="-2.32643">
        <ele>58</ele>
        <time>2019-09-22T09:24:18Z</time>
      </trkpt>
      <trkpt lat="47.34602" lon="-2.32646">
        <ele>57</ele>
        <time>2019-09-22T09:24:19Z</time>
      </trkpt>
      <trkpt lat="47.34592" lon="-2.32657">
        <ele>57</ele>
        <time>2019-09-22T09:24:22Z</time>
      </trkpt>
      <trkpt lat="47.34584" lon="-2.32665">
        <ele>56</ele>
        <time>2019-09-22T09:24:24Z</time>
      </trkpt>
      <trkpt lat="47.34572" lon="-2.32673">
        <ele>56</ele>
        <time>2019-09-22T09:24:28Z</time>
      </trkpt>
      <trkpt lat="47.34561" lon="-2.32682">
        <ele>56</ele>
        <time>2019-09-22T09:24:31Z</time>
      </trkpt>
      <trkpt lat="47.34557" lon="-2.32686">
        <ele>56</ele>
        <time>2019-09-22T09:24:32Z</time>
      </trkpt>
      <trkpt lat="47.34553" lon="-2.3269">
        <ele>56</ele>
        <time>2019-09-22T09:24:33Z</time>
      </trkpt>
      <trkpt lat="47.34548" lon="-2.32695">
        <ele>56</ele>
        <time>2019-09-22T09:24:34Z</time>
      </trkpt>
      <trkpt lat="47.34534" lon="-2.32703">
        <ele>56</ele>
        <time>2019-09-22T09:24:36Z</time>
      </trkpt>
      <trkpt lat="47.34525" lon="-2.32709">
        <ele>56</ele>
        <time>2019-09-22T09:24:38Z</time>
      </trkpt>
      <trkpt lat="47.34517" lon="-2.32716">
        <ele>56</ele>
        <time>2019-09-22T09:24:40Z</time>
      </trkpt>
      <trkpt lat="47.34505" lon="-2.32723">
        <ele>57</ele>
        <time>2019-09-22T09:24:43Z</time>
      </trkpt>
      <trkpt lat="47.34494" lon="-2.32732">
        <ele>63</ele>
        <time>2019-09-22T09:24:47Z</time>
      </trkpt>
      <trkpt lat="47.34476" lon="-2.32743">
        <ele>63</ele>
        <time>2019-09-22T09:24:51Z</time>
      </trkpt>
      <trkpt lat="47.3447" lon="-2.32747">
        <ele>63</ele>
        <time>2019-09-22T09:24:52Z</time>
      </trkpt>
      <trkpt lat="47.34466" lon="-2.32752">
        <ele>63</ele>
        <time>2019-09-22T09:24:53Z</time>
      </trkpt>
      <trkpt lat="47.3446" lon="-2.32763">
        <ele>63</ele>
        <time>2019-09-22T09:24:55Z</time>
      </trkpt>
      <trkpt lat="47.3446" lon="-2.32777">
        <ele>62</ele>
        <time>2019-09-22T09:24:57Z</time>
      </trkpt>
      <trkpt lat="47.3446" lon="-2.32794">
        <ele>57</ele>
        <time>2019-09-22T09:24:59Z</time>
      </trkpt>
      <trkpt lat="47.34461" lon="-2.32801">
        <ele>57</ele>
        <time>2019-09-22T09:25:00Z</time>
      </trkpt>
      <trkpt lat="47.34461" lon="-2.32808">
        <ele>57</ele>
        <time>2019-09-22T09:25:01Z</time>
      </trkpt>
      <trkpt lat="47.34451" lon="-2.32834">
        <ele>58</ele>
        <time>2019-09-22T09:25:04Z</time>
      </trkpt>
      <trkpt lat="47.34436" lon="-2.32847">
        <ele>59</ele>
        <time>2019-09-22T09:25:07Z</time>
      </trkpt>
      <trkpt lat="47.34431" lon="-2.3285">
        <ele>59</ele>
        <time>2019-09-22T09:25:08Z</time>
      </trkpt>
      <trkpt lat="47.34419" lon="-2.32859">
        <ele>59</ele>
        <time>2019-09-22T09:25:10Z</time>
      </trkpt>
      <trkpt lat="47.34414" lon="-2.32863">
        <ele>59</ele>
        <time>2019-09-22T09:25:11Z</time>
      </trkpt>
      <trkpt lat="47.34408" lon="-2.32867">
        <ele>59</ele>
        <time>2019-09-22T09:25:12Z</time>
      </trkpt>
      <trkpt lat="47.34404" lon="-2.32871">
        <ele>59</ele>
        <time>2019-09-22T09:25:13Z</time>
      </trkpt>
      <trkpt lat="47.34398" lon="-2.3288">
        <ele>60</ele>
        <time>2019-09-22T09:25:15Z</time>
      </trkpt>
      <trkpt lat="47.34384" lon="-2.32892">
        <ele>60</ele>
        <time>2019-09-22T09:25:18Z</time>
      </trkpt>
      <trkpt lat="47.34378" lon="-2.329">
        <ele>61</ele>
        <time>2019-09-22T09:25:20Z</time>
      </trkpt>
      <trkpt lat="47.34354" lon="-2.32921">
        <ele>39</ele>
        <time>2019-09-22T09:25:25Z</time>
      </trkpt>
      <trkpt lat="47.3436" lon="-2.32935">
        <ele>50</ele>
        <time>2019-09-22T09:25:26Z</time>
      </trkpt>
      <trkpt lat="47.3436" lon="-2.32952">
        <ele>53</ele>
        <time>2019-09-22T09:25:28Z</time>
      </trkpt>
      <trkpt lat="47.34362" lon="-2.32958">
        <ele>56</ele>
        <time>2019-09-22T09:25:29Z</time>
      </trkpt>
      <trkpt lat="47.34363" lon="-2.32965">
        <ele>59</ele>
        <time>2019-09-22T09:25:30Z</time>
      </trkpt>
      <trkpt lat="47.34372" lon="-2.32999">
        <ele>59</ele>
        <time>2019-09-22T09:25:34Z</time>
      </trkpt>
      <trkpt lat="47.34373" lon="-2.33009">
        <ele>60</ele>
        <time>2019-09-22T09:25:35Z</time>
      </trkpt>
      <trkpt lat="47.3437" lon="-2.33029">
        <ele>62</ele>
        <time>2019-09-22T09:25:37Z</time>
      </trkpt>
      <trkpt lat="47.34364" lon="-2.33037">
        <ele>63</ele>
        <time>2019-09-22T09:25:38Z</time>
      </trkpt>
      <trkpt lat="47.34351" lon="-2.33047">
        <ele>67</ele>
        <time>2019-09-22T09:25:41Z</time>
      </trkpt>
      <trkpt lat="47.34345" lon="-2.33049">
        <ele>68</ele>
        <time>2019-09-22T09:25:42Z</time>
      </trkpt>
      <trkpt lat="47.34341" lon="-2.33052">
        <ele>70</ele>
        <time>2019-09-22T09:25:43Z</time>
      </trkpt>
      <trkpt lat="47.34333" lon="-2.33057">
        <ele>72</ele>
        <time>2019-09-22T09:25:45Z</time>
      </trkpt>
      <trkpt lat="47.34321" lon="-2.3306">
        <ele>73</ele>
        <time>2019-09-22T09:25:47Z</time>
      </trkpt>
      <trkpt lat="47.34315" lon="-2.3306">
        <ele>73</ele>
        <time>2019-09-22T09:25:48Z</time>
      </trkpt>
      <trkpt lat="47.34308" lon="-2.33062">
        <ele>74</ele>
        <time>2019-09-22T09:25:49Z</time>
      </trkpt>
      <trkpt lat="47.34303" lon="-2.33065">
        <ele>74</ele>
        <time>2019-09-22T09:25:50Z</time>
      </trkpt>
      <trkpt lat="47.34298" lon="-2.33068">
        <ele>76</ele>
        <time>2019-09-22T09:25:51Z</time>
      </trkpt>
      <trkpt lat="47.34292" lon="-2.3307">
        <ele>76</ele>
        <time>2019-09-22T09:25:52Z</time>
      </trkpt>
      <trkpt lat="47.3428" lon="-2.33075">
        <ele>74</ele>
        <time>2019-09-22T09:25:54Z</time>
      </trkpt>
      <trkpt lat="47.34273" lon="-2.33079">
        <ele>73</ele>
        <time>2019-09-22T09:25:55Z</time>
      </trkpt>
      <trkpt lat="47.34268" lon="-2.33083">
        <ele>71</ele>
        <time>2019-09-22T09:25:56Z</time>
      </trkpt>
      <trkpt lat="47.34264" lon="-2.33088">
        <ele>70</ele>
        <time>2019-09-22T09:25:57Z</time>
      </trkpt>
      <trkpt lat="47.34261" lon="-2.33093">
        <ele>69</ele>
        <time>2019-09-22T09:25:58Z</time>
      </trkpt>
      <trkpt lat="47.34257" lon="-2.33101">
        <ele>68</ele>
        <time>2019-09-22T09:25:59Z</time>
      </trkpt>
      <trkpt lat="47.34255" lon="-2.3311">
        <ele>68</ele>
        <time>2019-09-22T09:26:00Z</time>
      </trkpt>
      <trkpt lat="47.34253" lon="-2.3312">
        <ele>67</ele>
        <time>2019-09-22T09:26:01Z</time>
      </trkpt>
      <trkpt lat="47.3425" lon="-2.3313">
        <ele>65</ele>
        <time>2019-09-22T09:26:02Z</time>
      </trkpt>
      <trkpt lat="47.34248" lon="-2.33139">
        <ele>64</ele>
        <time>2019-09-22T09:26:03Z</time>
      </trkpt>
      <trkpt lat="47.34243" lon="-2.33157">
        <ele>63</ele>
        <time>2019-09-22T09:26:05Z</time>
      </trkpt>
      <trkpt lat="47.34238" lon="-2.33174">
        <ele>62</ele>
        <time>2019-09-22T09:26:07Z</time>
      </trkpt>
      <trkpt lat="47.34234" lon="-2.33182">
        <ele>62</ele>
        <time>2019-09-22T09:26:08Z</time>
      </trkpt>
      <trkpt lat="47.34231" lon="-2.33189">
        <ele>61</ele>
        <time>2019-09-22T09:26:09Z</time>
      </trkpt>
      <trkpt lat="47.34226" lon="-2.33209">
        <ele>63</ele>
        <time>2019-09-22T09:26:12Z</time>
      </trkpt>
      <trkpt lat="47.34215" lon="-2.33242">
        <ele>60</ele>
        <time>2019-09-22T09:26:16Z</time>
      </trkpt>
      <trkpt lat="47.34212" lon="-2.33249">
        <ele>60</ele>
        <time>2019-09-22T09:26:17Z</time>
      </trkpt>
      <trkpt lat="47.34208" lon="-2.33263">
        <ele>60</ele>
        <time>2019-09-22T09:26:19Z</time>
      </trkpt>
      <trkpt lat="47.34206" lon="-2.33271">
        <ele>60</ele>
        <time>2019-09-22T09:26:20Z</time>
      </trkpt>
      <trkpt lat="47.34203" lon="-2.33279">
        <ele>60</ele>
        <time>2019-09-22T09:26:21Z</time>
      </trkpt>
      <trkpt lat="47.34201" lon="-2.33287">
        <ele>60</ele>
        <time>2019-09-22T09:26:22Z</time>
      </trkpt>
      <trkpt lat="47.34198" lon="-2.33294">
        <ele>60</ele>
        <time>2019-09-22T09:26:23Z</time>
      </trkpt>
      <trkpt lat="47.34195" lon="-2.33302">
        <ele>59</ele>
        <time>2019-09-22T09:26:24Z</time>
      </trkpt>
      <trkpt lat="47.34192" lon="-2.33309">
        <ele>59</ele>
        <time>2019-09-22T09:26:25Z</time>
      </trkpt>
      <trkpt lat="47.34189" lon="-2.33316">
        <ele>58</ele>
        <time>2019-09-22T09:26:26Z</time>
      </trkpt>
      <trkpt lat="47.34186" lon="-2.33323">
        <ele>57</ele>
        <time>2019-09-22T09:26:27Z</time>
      </trkpt>
      <trkpt lat="47.34184" lon="-2.3333">
        <ele>57</ele>
        <time>2019-09-22T09:26:28Z</time>
      </trkpt>
      <trkpt lat="47.34182" lon="-2.33336">
        <ele>56</ele>
        <time>2019-09-22T09:26:29Z</time>
      </trkpt>
      <trkpt lat="47.3418" lon="-2.33343">
        <ele>56</ele>
        <time>2019-09-22T09:26:30Z</time>
      </trkpt>
      <trkpt lat="47.34178" lon="-2.33349">
        <ele>56</ele>
        <time>2019-09-22T09:26:31Z</time>
      </trkpt>
      <trkpt lat="47.34176" lon="-2.33356">
        <ele>56</ele>
        <time>2019-09-22T09:26:32Z</time>
      </trkpt>
      <trkpt lat="47.34175" lon="-2.33362">
        <ele>56</ele>
        <time>2019-09-22T09:26:33Z</time>
      </trkpt>
      <trkpt lat="47.34172" lon="-2.3337">
        <ele>56</ele>
        <time>2019-09-22T09:26:34Z</time>
      </trkpt>
      <trkpt lat="47.3417" lon="-2.33377">
        <ele>56</ele>
        <time>2019-09-22T09:26:35Z</time>
      </trkpt>
      <trkpt lat="47.34156" lon="-2.33412">
        <ele>57</ele>
        <time>2019-09-22T09:26:40Z</time>
      </trkpt>
      <trkpt lat="47.34149" lon="-2.33424">
        <ele>58</ele>
        <time>2019-09-22T09:26:42Z</time>
      </trkpt>
      <trkpt lat="47.34145" lon="-2.33429">
        <ele>57</ele>
        <time>2019-09-22T09:26:43Z</time>
      </trkpt>
      <trkpt lat="47.34142" lon="-2.33434">
        <ele>57</ele>
        <time>2019-09-22T09:26:44Z</time>
      </trkpt>
      <trkpt lat="47.34138" lon="-2.3344">
        <ele>57</ele>
        <time>2019-09-22T09:26:45Z</time>
      </trkpt>
      <trkpt lat="47.34136" lon="-2.33444">
        <ele>58</ele>
        <time>2019-09-22T09:26:46Z</time>
      </trkpt>
      <trkpt lat="47.34134" lon="-2.33448">
        <ele>58</ele>
        <time>2019-09-22T09:26:47Z</time>
      </trkpt>
      <trkpt lat="47.34126" lon="-2.33458">
        <ele>58</ele>
        <time>2019-09-22T09:26:50Z</time>
      </trkpt>
      <trkpt lat="47.34121" lon="-2.33464">
        <ele>58</ele>
        <time>2019-09-22T09:26:52Z</time>
      </trkpt>
      <trkpt lat="47.34119" lon="-2.33467">
        <ele>58</ele>
        <time>2019-09-22T09:26:53Z</time>
      </trkpt>
      <trkpt lat="47.34114" lon="-2.33474">
        <ele>58</ele>
        <time>2019-09-22T09:26:56Z</time>
      </trkpt>
      <trkpt lat="47.34082" lon="-2.33525">
        <ele>56</ele>
        <time>2019-09-22T09:27:07Z</time>
      </trkpt>
      <trkpt lat="47.3408" lon="-2.33532">
        <ele>63</ele>
        <time>2019-09-22T09:27:08Z</time>
      </trkpt>
      <trkpt lat="47.34019" lon="-2.33618">
        <ele>38</ele>
        <time>2019-09-22T09:27:21Z</time>
      </trkpt>
      <trkpt lat="47.34018" lon="-2.33628">
        <ele>47</ele>
        <time>2019-09-22T09:27:22Z</time>
      </trkpt>
      <trkpt lat="47.34017" lon="-2.33642">
        <ele>56</ele>
        <time>2019-09-22T09:27:24Z</time>
      </trkpt>
      <trkpt lat="47.34014" lon="-2.3365">
        <ele>56</ele>
        <time>2019-09-22T09:27:25Z</time>
      </trkpt>
      <trkpt lat="47.34011" lon="-2.33658">
        <ele>58</ele>
        <time>2019-09-22T09:27:26Z</time>
      </trkpt>
      <trkpt lat="47.34" lon="-2.33676">
        <ele>59</ele>
        <time>2019-09-22T09:27:29Z</time>
      </trkpt>
      <trkpt lat="47.33997" lon="-2.33682">
        <ele>60</ele>
        <time>2019-09-22T09:27:30Z</time>
      </trkpt>
      <trkpt lat="47.33991" lon="-2.33694">
        <ele>63</ele>
        <time>2019-09-22T09:27:32Z</time>
      </trkpt>
      <trkpt lat="47.33988" lon="-2.33702">
        <ele>67</ele>
        <time>2019-09-22T09:27:34Z</time>
      </trkpt>
      <trkpt lat="47.33986" lon="-2.33709">
        <ele>79</ele>
        <time>2019-09-22T09:27:36Z</time>
      </trkpt>
      <trkpt lat="47.3398" lon="-2.3372">
        <ele>89</ele>
        <time>2019-09-22T09:27:38Z</time>
      </trkpt>
      <trkpt lat="47.3396" lon="-2.33757">
        <ele>96</ele>
        <time>2019-09-22T09:27:43Z</time>
      </trkpt>
      <trkpt lat="47.33952" lon="-2.33771">
        <ele>94</ele>
        <time>2019-09-22T09:27:45Z</time>
      </trkpt>
      <trkpt lat="47.33948" lon="-2.33779">
        <ele>91</ele>
        <time>2019-09-22T09:27:46Z</time>
      </trkpt>
      <trkpt lat="47.33945" lon="-2.33786">
        <ele>90</ele>
        <time>2019-09-22T09:27:47Z</time>
      </trkpt>
      <trkpt lat="47.33941" lon="-2.33793">
        <ele>90</ele>
        <time>2019-09-22T09:27:48Z</time>
      </trkpt>
      <trkpt lat="47.33938" lon="-2.33799">
        <ele>87</ele>
        <time>2019-09-22T09:27:49Z</time>
      </trkpt>
      <trkpt lat="47.33935" lon="-2.33806">
        <ele>87</ele>
        <time>2019-09-22T09:27:50Z</time>
      </trkpt>
      <trkpt lat="47.33931" lon="-2.33812">
        <ele>86</ele>
        <time>2019-09-22T09:27:51Z</time>
      </trkpt>
      <trkpt lat="47.33927" lon="-2.33818">
        <ele>85</ele>
        <time>2019-09-22T09:27:52Z</time>
      </trkpt>
      <trkpt lat="47.33922" lon="-2.33824">
        <ele>85</ele>
        <time>2019-09-22T09:27:53Z</time>
      </trkpt>
      <trkpt lat="47.33919" lon="-2.33829">
        <ele>83</ele>
        <time>2019-09-22T09:27:54Z</time>
      </trkpt>
      <trkpt lat="47.33915" lon="-2.33835">
        <ele>82</ele>
        <time>2019-09-22T09:27:55Z</time>
      </trkpt>
      <trkpt lat="47.33912" lon="-2.3384">
        <ele>81</ele>
        <time>2019-09-22T09:27:56Z</time>
      </trkpt>
      <trkpt lat="47.33908" lon="-2.33844">
        <ele>81</ele>
        <time>2019-09-22T09:27:57Z</time>
      </trkpt>
      <trkpt lat="47.33905" lon="-2.33849">
        <ele>80</ele>
        <time>2019-09-22T09:27:58Z</time>
      </trkpt>
      <trkpt lat="47.33901" lon="-2.33854">
        <ele>80</ele>
        <time>2019-09-22T09:27:59Z</time>
      </trkpt>
      <trkpt lat="47.33892" lon="-2.33864">
        <ele>78</ele>
        <time>2019-09-22T09:28:02Z</time>
      </trkpt>
      <trkpt lat="47.33887" lon="-2.33874">
        <ele>76</ele>
        <time>2019-09-22T09:28:05Z</time>
      </trkpt>
      <trkpt lat="47.33882" lon="-2.3388">
        <ele>75</ele>
        <time>2019-09-22T09:28:07Z</time>
      </trkpt>
      <trkpt lat="47.33879" lon="-2.33884">
        <ele>74</ele>
        <time>2019-09-22T09:28:08Z</time>
      </trkpt>
      <trkpt lat="47.33876" lon="-2.33887">
        <ele>74</ele>
        <time>2019-09-22T09:28:09Z</time>
      </trkpt>
      <trkpt lat="47.33869" lon="-2.33893">
        <ele>72</ele>
        <time>2019-09-22T09:28:11Z</time>
      </trkpt>
      <trkpt lat="47.33861" lon="-2.33901">
        <ele>72</ele>
        <time>2019-09-22T09:28:13Z</time>
      </trkpt>
      <trkpt lat="47.3384" lon="-2.33921">
        <ele>74</ele>
        <time>2019-09-22T09:28:18Z</time>
      </trkpt>
      <trkpt lat="47.33835" lon="-2.33926">
        <ele>74</ele>
        <time>2019-09-22T09:28:19Z</time>
      </trkpt>
      <trkpt lat="47.3383" lon="-2.3393">
        <ele>74</ele>
        <time>2019-09-22T09:28:20Z</time>
      </trkpt>
      <trkpt lat="47.33825" lon="-2.33933">
        <ele>73</ele>
        <time>2019-09-22T09:28:21Z</time>
      </trkpt>
      <trkpt lat="47.33819" lon="-2.33936">
        <ele>72</ele>
        <time>2019-09-22T09:28:22Z</time>
      </trkpt>
      <trkpt lat="47.33813" lon="-2.3394">
        <ele>72</ele>
        <time>2019-09-22T09:28:23Z</time>
      </trkpt>
      <trkpt lat="47.33807" lon="-2.33945">
        <ele>72</ele>
        <time>2019-09-22T09:28:24Z</time>
      </trkpt>
      <trkpt lat="47.33801" lon="-2.33949">
        <ele>72</ele>
        <time>2019-09-22T09:28:25Z</time>
      </trkpt>
      <trkpt lat="47.33795" lon="-2.33953">
        <ele>72</ele>
        <time>2019-09-22T09:28:26Z</time>
      </trkpt>
      <trkpt lat="47.3379" lon="-2.33956">
        <ele>72</ele>
        <time>2019-09-22T09:28:27Z</time>
      </trkpt>
      <trkpt lat="47.33784" lon="-2.33961">
        <ele>72</ele>
        <time>2019-09-22T09:28:28Z</time>
      </trkpt>
      <trkpt lat="47.33778" lon="-2.33965">
        <ele>72</ele>
        <time>2019-09-22T09:28:29Z</time>
      </trkpt>
      <trkpt lat="47.33773" lon="-2.3397">
        <ele>72</ele>
        <time>2019-09-22T09:28:30Z</time>
      </trkpt>
      <trkpt lat="47.33762" lon="-2.33979">
        <ele>72</ele>
        <time>2019-09-22T09:28:32Z</time>
      </trkpt>
      <trkpt lat="47.33753" lon="-2.33986">
        <ele>72</ele>
        <time>2019-09-22T09:28:34Z</time>
      </trkpt>
      <trkpt lat="47.3377" lon="-2.34007">
        <ele>101</ele>
        <time>2019-09-22T09:28:38Z</time>
      </trkpt>
      <trkpt lat="47.33749" lon="-2.34018">
        <ele>114</ele>
        <time>2019-09-22T09:28:41Z</time>
      </trkpt>
      <trkpt lat="47.33738" lon="-2.34023">
        <ele>113</ele>
        <time>2019-09-22T09:28:42Z</time>
      </trkpt>
      <trkpt lat="47.33719" lon="-2.3403">
        <ele>109</ele>
        <time>2019-09-22T09:28:44Z</time>
      </trkpt>
      <trkpt lat="47.33712" lon="-2.34033">
        <ele>107</ele>
        <time>2019-09-22T09:28:45Z</time>
      </trkpt>
      <trkpt lat="47.33704" lon="-2.34036">
        <ele>105</ele>
        <time>2019-09-22T09:28:46Z</time>
      </trkpt>
      <trkpt lat="47.33676" lon="-2.34049">
        <ele>96</ele>
        <time>2019-09-22T09:28:49Z</time>
      </trkpt>
      <trkpt lat="47.33669" lon="-2.34053">
        <ele>93</ele>
        <time>2019-09-22T09:28:50Z</time>
      </trkpt>
      <trkpt lat="47.33663" lon="-2.34058">
        <ele>91</ele>
        <time>2019-09-22T09:28:51Z</time>
      </trkpt>
      <trkpt lat="47.33657" lon="-2.34062">
        <ele>88</ele>
        <time>2019-09-22T09:28:52Z</time>
      </trkpt>
      <trkpt lat="47.33652" lon="-2.34066">
        <ele>87</ele>
        <time>2019-09-22T09:28:53Z</time>
      </trkpt>
      <trkpt lat="47.33646" lon="-2.34071">
        <ele>86</ele>
        <time>2019-09-22T09:28:54Z</time>
      </trkpt>
      <trkpt lat="47.3364" lon="-2.34076">
        <ele>85</ele>
        <time>2019-09-22T09:28:55Z</time>
      </trkpt>
      <trkpt lat="47.33634" lon="-2.34081">
        <ele>84</ele>
        <time>2019-09-22T09:28:56Z</time>
      </trkpt>
      <trkpt lat="47.33628" lon="-2.34085">
        <ele>82</ele>
        <time>2019-09-22T09:28:57Z</time>
      </trkpt>
      <trkpt lat="47.33622" lon="-2.34089">
        <ele>82</ele>
        <time>2019-09-22T09:28:58Z</time>
      </trkpt>
      <trkpt lat="47.33617" lon="-2.34094">
        <ele>81</ele>
        <time>2019-09-22T09:28:59Z</time>
      </trkpt>
      <trkpt lat="47.33601" lon="-2.34107">
        <ele>79</ele>
        <time>2019-09-22T09:29:02Z</time>
      </trkpt>
      <trkpt lat="47.33591" lon="-2.34116">
        <ele>79</ele>
        <time>2019-09-22T09:29:04Z</time>
      </trkpt>
      <trkpt lat="47.33585" lon="-2.3412">
        <ele>78</ele>
        <time>2019-09-22T09:29:05Z</time>
      </trkpt>
      <trkpt lat="47.33579" lon="-2.34125">
        <ele>78</ele>
        <time>2019-09-22T09:29:06Z</time>
      </trkpt>
      <trkpt lat="47.33572" lon="-2.3413">
        <ele>77</ele>
        <time>2019-09-22T09:29:07Z</time>
      </trkpt>
      <trkpt lat="47.33566" lon="-2.34133">
        <ele>77</ele>
        <time>2019-09-22T09:29:08Z</time>
      </trkpt>
      <trkpt lat="47.3356" lon="-2.34137">
        <ele>77</ele>
        <time>2019-09-22T09:29:09Z</time>
      </trkpt>
      <trkpt lat="47.33541" lon="-2.34151">
        <ele>75</ele>
        <time>2019-09-22T09:29:12Z</time>
      </trkpt>
      <trkpt lat="47.33535" lon="-2.34154">
        <ele>74</ele>
        <time>2019-09-22T09:29:13Z</time>
      </trkpt>
      <trkpt lat="47.3353" lon="-2.34159">
        <ele>74</ele>
        <time>2019-09-22T09:29:14Z</time>
      </trkpt>
      <trkpt lat="47.33524" lon="-2.34163">
        <ele>74</ele>
        <time>2019-09-22T09:29:15Z</time>
      </trkpt>
      <trkpt lat="47.33519" lon="-2.34166">
        <ele>73</ele>
        <time>2019-09-22T09:29:16Z</time>
      </trkpt>
      <trkpt lat="47.33513" lon="-2.34169">
        <ele>73</ele>
        <time>2019-09-22T09:29:17Z</time>
      </trkpt>
      <trkpt lat="47.33502" lon="-2.34177">
        <ele>73</ele>
        <time>2019-09-22T09:29:19Z</time>
      </trkpt>
      <trkpt lat="47.33493" lon="-2.34186">
        <ele>73</ele>
        <time>2019-09-22T09:29:21Z</time>
      </trkpt>
      <trkpt lat="47.33483" lon="-2.34194">
        <ele>72</ele>
        <time>2019-09-22T09:29:23Z</time>
      </trkpt>
      <trkpt lat="47.33477" lon="-2.34199">
        <ele>72</ele>
        <time>2019-09-22T09:29:24Z</time>
      </trkpt>
      <trkpt lat="47.33468" lon="-2.3421">
        <ele>71</ele>
        <time>2019-09-22T09:29:26Z</time>
      </trkpt>
      <trkpt lat="47.33463" lon="-2.34217">
        <ele>71</ele>
        <time>2019-09-22T09:29:27Z</time>
      </trkpt>
      <trkpt lat="47.33453" lon="-2.34229">
        <ele>71</ele>
        <time>2019-09-22T09:29:29Z</time>
      </trkpt>
      <trkpt lat="47.33449" lon="-2.34235">
        <ele>70</ele>
        <time>2019-09-22T09:29:30Z</time>
      </trkpt>
      <trkpt lat="47.33446" lon="-2.34241">
        <ele>70</ele>
        <time>2019-09-22T09:29:31Z</time>
      </trkpt>
      <trkpt lat="47.33441" lon="-2.34247">
        <ele>70</ele>
        <time>2019-09-22T09:29:32Z</time>
      </trkpt>
      <trkpt lat="47.33437" lon="-2.34254">
        <ele>70</ele>
        <time>2019-09-22T09:29:33Z</time>
      </trkpt>
      <trkpt lat="47.33434" lon="-2.3426">
        <ele>70</ele>
        <time>2019-09-22T09:29:34Z</time>
      </trkpt>
      <trkpt lat="47.33429" lon="-2.34275">
        <ele>70</ele>
        <time>2019-09-22T09:29:36Z</time>
      </trkpt>
      <trkpt lat="47.33424" lon="-2.34288">
        <ele>71</ele>
        <time>2019-09-22T09:29:38Z</time>
      </trkpt>
      <trkpt lat="47.33422" lon="-2.34295">
        <ele>71</ele>
        <time>2019-09-22T09:29:39Z</time>
      </trkpt>
      <trkpt lat="47.33418" lon="-2.34302">
        <ele>70</ele>
        <time>2019-09-22T09:29:40Z</time>
      </trkpt>
      <trkpt lat="47.33415" lon="-2.3431">
        <ele>71</ele>
        <time>2019-09-22T09:29:41Z</time>
      </trkpt>
      <trkpt lat="47.33411" lon="-2.34326">
        <ele>71</ele>
        <time>2019-09-22T09:29:43Z</time>
      </trkpt>
      <trkpt lat="47.33409" lon="-2.34334">
        <ele>71</ele>
        <time>2019-09-22T09:29:44Z</time>
      </trkpt>
      <trkpt lat="47.33405" lon="-2.34341">
        <ele>71</ele>
        <time>2019-09-22T09:29:45Z</time>
      </trkpt>
      <trkpt lat="47.33402" lon="-2.3435">
        <ele>70</ele>
        <time>2019-09-22T09:29:46Z</time>
      </trkpt>
      <trkpt lat="47.33399" lon="-2.34358">
        <ele>70</ele>
        <time>2019-09-22T09:29:47Z</time>
      </trkpt>
      <trkpt lat="47.33397" lon="-2.34366">
        <ele>70</ele>
        <time>2019-09-22T09:29:48Z</time>
      </trkpt>
      <trkpt lat="47.33394" lon="-2.34374">
        <ele>71</ele>
        <time>2019-09-22T09:29:49Z</time>
      </trkpt>
      <trkpt lat="47.33391" lon="-2.34381">
        <ele>71</ele>
        <time>2019-09-22T09:29:50Z</time>
      </trkpt>
      <trkpt lat="47.33384" lon="-2.34404">
        <ele>70</ele>
        <time>2019-09-22T09:29:53Z</time>
      </trkpt>
      <trkpt lat="47.33381" lon="-2.34411">
        <ele>71</ele>
        <time>2019-09-22T09:29:54Z</time>
      </trkpt>
      <trkpt lat="47.33379" lon="-2.34418">
        <ele>71</ele>
        <time>2019-09-22T09:29:55Z</time>
      </trkpt>
      <trkpt lat="47.33373" lon="-2.34432">
        <ele>71</ele>
        <time>2019-09-22T09:29:57Z</time>
      </trkpt>
      <trkpt lat="47.33367" lon="-2.34449">
        <ele>71</ele>
        <time>2019-09-22T09:29:59Z</time>
      </trkpt>
      <trkpt lat="47.33365" lon="-2.34458">
        <ele>71</ele>
        <time>2019-09-22T09:30:00Z</time>
      </trkpt>
      <trkpt lat="47.33362" lon="-2.34466">
        <ele>71</ele>
        <time>2019-09-22T09:30:01Z</time>
      </trkpt>
      <trkpt lat="47.33359" lon="-2.34474">
        <ele>71</ele>
        <time>2019-09-22T09:30:02Z</time>
      </trkpt>
      <trkpt lat="47.33356" lon="-2.34486">
        <ele>70</ele>
        <time>2019-09-22T09:30:04Z</time>
      </trkpt>
      <trkpt lat="47.33346" lon="-2.34509">
        <ele>70</ele>
        <time>2019-09-22T09:30:08Z</time>
      </trkpt>
      <trkpt lat="47.33343" lon="-2.34515">
        <ele>70</ele>
        <time>2019-09-22T09:30:09Z</time>
      </trkpt>
      <trkpt lat="47.3334" lon="-2.34522">
        <ele>71</ele>
        <time>2019-09-22T09:30:10Z</time>
      </trkpt>
      <trkpt lat="47.33338" lon="-2.34534">
        <ele>70</ele>
        <time>2019-09-22T09:30:12Z</time>
      </trkpt>
      <trkpt lat="47.33337" lon="-2.3454">
        <ele>69</ele>
        <time>2019-09-22T09:30:13Z</time>
      </trkpt>
      <trkpt lat="47.33334" lon="-2.3455">
        <ele>69</ele>
        <time>2019-09-22T09:30:15Z</time>
      </trkpt>
      <trkpt lat="47.33332" lon="-2.34558">
        <ele>69</ele>
        <time>2019-09-22T09:30:17Z</time>
      </trkpt>
      <trkpt lat="47.33329" lon="-2.34569">
        <ele>68</ele>
        <time>2019-09-22T09:30:20Z</time>
      </trkpt>
      <trkpt lat="47.33327" lon="-2.34576">
        <ele>68</ele>
        <time>2019-09-22T09:30:22Z</time>
      </trkpt>
      <trkpt lat="47.33326" lon="-2.3458">
        <ele>68</ele>
        <time>2019-09-22T09:30:23Z</time>
      </trkpt>
      <trkpt lat="47.33325" lon="-2.34586">
        <ele>69</ele>
        <time>2019-09-22T09:30:25Z</time>
      </trkpt>
      <trkpt lat="47.33322" lon="-2.34595">
        <ele>69</ele>
        <time>2019-09-22T09:30:27Z</time>
      </trkpt>
      <trkpt lat="47.33319" lon="-2.34607">
        <ele>68</ele>
        <time>2019-09-22T09:30:29Z</time>
      </trkpt>
      <trkpt lat="47.33316" lon="-2.34614">
        <ele>69</ele>
        <time>2019-09-22T09:30:30Z</time>
      </trkpt>
      <trkpt lat="47.33313" lon="-2.3462">
        <ele>69</ele>
        <time>2019-09-22T09:30:31Z</time>
      </trkpt>
      <trkpt lat="47.3331" lon="-2.34626">
        <ele>69</ele>
        <time>2019-09-22T09:30:32Z</time>
      </trkpt>
      <trkpt lat="47.33309" lon="-2.34633">
        <ele>69</ele>
        <time>2019-09-22T09:30:33Z</time>
      </trkpt>
      <trkpt lat="47.33307" lon="-2.34639">
        <ele>69</ele>
        <time>2019-09-22T09:30:35Z</time>
      </trkpt>
      <trkpt lat="47.33296" lon="-2.34671">
        <ele>71</ele>
        <time>2019-09-22T09:30:40Z</time>
      </trkpt>
      <trkpt lat="47.33288" lon="-2.34692">
        <ele>72</ele>
        <time>2019-09-22T09:30:43Z</time>
      </trkpt>
      <trkpt lat="47.33286" lon="-2.34697">
        <ele>72</ele>
        <time>2019-09-22T09:30:44Z</time>
      </trkpt>
      <trkpt lat="47.33282" lon="-2.34703">
        <ele>72</ele>
        <time>2019-09-22T09:30:45Z</time>
      </trkpt>
      <trkpt lat="47.33279" lon="-2.34709">
        <ele>72</ele>
        <time>2019-09-22T09:30:47Z</time>
      </trkpt>
      <trkpt lat="47.33277" lon="-2.34716">
        <ele>72</ele>
        <time>2019-09-22T09:30:48Z</time>
      </trkpt>
      <trkpt lat="47.33273" lon="-2.3473">
        <ele>72</ele>
        <time>2019-09-22T09:30:49Z</time>
      </trkpt>
      <trkpt lat="47.3327" lon="-2.34736">
        <ele>73</ele>
        <time>2019-09-22T09:30:50Z</time>
      </trkpt>
      <trkpt lat="47.33265" lon="-2.34751">
        <ele>73</ele>
        <time>2019-09-22T09:30:52Z</time>
      </trkpt>
      <trkpt lat="47.33265" lon="-2.34759">
        <ele>73</ele>
        <time>2019-09-22T09:30:53Z</time>
      </trkpt>
      <trkpt lat="47.33263" lon="-2.34766">
        <ele>73</ele>
        <time>2019-09-22T09:30:54Z</time>
      </trkpt>
      <trkpt lat="47.3326" lon="-2.34773">
        <ele>73</ele>
        <time>2019-09-22T09:30:55Z</time>
      </trkpt>
      <trkpt lat="47.33253" lon="-2.34795">
        <ele>73</ele>
        <time>2019-09-22T09:30:58Z</time>
      </trkpt>
      <trkpt lat="47.33251" lon="-2.34802">
        <ele>73</ele>
        <time>2019-09-22T09:30:59Z</time>
      </trkpt>
      <trkpt lat="47.33246" lon="-2.34816">
        <ele>74</ele>
        <time>2019-09-22T09:31:01Z</time>
      </trkpt>
      <trkpt lat="47.33243" lon="-2.34824">
        <ele>74</ele>
        <time>2019-09-22T09:31:02Z</time>
      </trkpt>
      <trkpt lat="47.33238" lon="-2.34834">
        <ele>74</ele>
        <time>2019-09-22T09:31:04Z</time>
      </trkpt>
      <trkpt lat="47.33234" lon="-2.34843">
        <ele>74</ele>
        <time>2019-09-22T09:31:06Z</time>
      </trkpt>
      <trkpt lat="47.33227" lon="-2.3486">
        <ele>74</ele>
        <time>2019-09-22T09:31:09Z</time>
      </trkpt>
      <trkpt lat="47.33224" lon="-2.34865">
        <ele>74</ele>
        <time>2019-09-22T09:31:10Z</time>
      </trkpt>
      <trkpt lat="47.3322" lon="-2.3487">
        <ele>74</ele>
        <time>2019-09-22T09:31:11Z</time>
      </trkpt>
      <trkpt lat="47.33214" lon="-2.3488">
        <ele>74</ele>
        <time>2019-09-22T09:31:13Z</time>
      </trkpt>
      <trkpt lat="47.33204" lon="-2.34902">
        <ele>75</ele>
        <time>2019-09-22T09:31:17Z</time>
      </trkpt>
      <trkpt lat="47.33201" lon="-2.34909">
        <ele>74</ele>
        <time>2019-09-22T09:31:18Z</time>
      </trkpt>
      <trkpt lat="47.33196" lon="-2.34923">
        <ele>74</ele>
        <time>2019-09-22T09:31:21Z</time>
      </trkpt>
      <trkpt lat="47.33191" lon="-2.34933">
        <ele>75</ele>
        <time>2019-09-22T09:31:23Z</time>
      </trkpt>
      <trkpt lat="47.33188" lon="-2.34946">
        <ele>75</ele>
        <time>2019-09-22T09:31:25Z</time>
      </trkpt>
      <trkpt lat="47.33187" lon="-2.34952">
        <ele>76</ele>
        <time>2019-09-22T09:31:26Z</time>
      </trkpt>
      <trkpt lat="47.33185" lon="-2.34959">
        <ele>76</ele>
        <time>2019-09-22T09:31:27Z</time>
      </trkpt>
      <trkpt lat="47.33183" lon="-2.34967">
        <ele>76</ele>
        <time>2019-09-22T09:31:28Z</time>
      </trkpt>
      <trkpt lat="47.3318" lon="-2.34975">
        <ele>76</ele>
        <time>2019-09-22T09:31:29Z</time>
      </trkpt>
      <trkpt lat="47.33176" lon="-2.34981">
        <ele>77</ele>
        <time>2019-09-22T09:31:30Z</time>
      </trkpt>
      <trkpt lat="47.33173" lon="-2.34987">
        <ele>77</ele>
        <time>2019-09-22T09:31:31Z</time>
      </trkpt>
      <trkpt lat="47.3317" lon="-2.34992">
        <ele>77</ele>
        <time>2019-09-22T09:31:33Z</time>
      </trkpt>
      <trkpt lat="47.33163" lon="-2.35003">
        <ele>78</ele>
        <time>2019-09-22T09:31:34Z</time>
      </trkpt>
      <trkpt lat="47.3316" lon="-2.35007">
        <ele>78</ele>
        <time>2019-09-22T09:31:35Z</time>
      </trkpt>
      <trkpt lat="47.33155" lon="-2.35016">
        <ele>78</ele>
        <time>2019-09-22T09:31:38Z</time>
      </trkpt>
      <trkpt lat="47.33151" lon="-2.35025">
        <ele>79</ele>
        <time>2019-09-22T09:31:39Z</time>
      </trkpt>
      <trkpt lat="47.33138" lon="-2.35039">
        <ele>82</ele>
        <time>2019-09-22T09:31:43Z</time>
      </trkpt>
      <trkpt lat="47.33135" lon="-2.35045">
        <ele>83</ele>
        <time>2019-09-22T09:31:45Z</time>
      </trkpt>
      <trkpt lat="47.33133" lon="-2.35053">
        <ele>83</ele>
        <time>2019-09-22T09:31:46Z</time>
      </trkpt>
      <trkpt lat="47.33129" lon="-2.3506">
        <ele>84</ele>
        <time>2019-09-22T09:31:47Z</time>
      </trkpt>
      <trkpt lat="47.33124" lon="-2.35067">
        <ele>84</ele>
        <time>2019-09-22T09:31:48Z</time>
      </trkpt>
      <trkpt lat="47.33119" lon="-2.35073">
        <ele>85</ele>
        <time>2019-09-22T09:31:49Z</time>
      </trkpt>
      <trkpt lat="47.33114" lon="-2.35079">
        <ele>85</ele>
        <time>2019-09-22T09:31:50Z</time>
      </trkpt>
      <trkpt lat="47.33101" lon="-2.35096">
        <ele>84</ele>
        <time>2019-09-22T09:31:53Z</time>
      </trkpt>
      <trkpt lat="47.33097" lon="-2.35102">
        <ele>84</ele>
        <time>2019-09-22T09:31:54Z</time>
      </trkpt>
      <trkpt lat="47.33093" lon="-2.35108">
        <ele>85</ele>
        <time>2019-09-22T09:31:55Z</time>
      </trkpt>
      <trkpt lat="47.33087" lon="-2.35118">
        <ele>84</ele>
        <time>2019-09-22T09:31:57Z</time>
      </trkpt>
      <trkpt lat="47.33082" lon="-2.35123">
        <ele>85</ele>
        <time>2019-09-22T09:31:58Z</time>
      </trkpt>
      <trkpt lat="47.33078" lon="-2.35127">
        <ele>85</ele>
        <time>2019-09-22T09:31:59Z</time>
      </trkpt>
      <trkpt lat="47.33074" lon="-2.35132">
        <ele>85</ele>
        <time>2019-09-22T09:32:00Z</time>
      </trkpt>
      <trkpt lat="47.3307" lon="-2.35138">
        <ele>85</ele>
        <time>2019-09-22T09:32:01Z</time>
      </trkpt>
      <trkpt lat="47.33067" lon="-2.35144">
        <ele>85</ele>
        <time>2019-09-22T09:32:02Z</time>
      </trkpt>
      <trkpt lat="47.33063" lon="-2.3515">
        <ele>85</ele>
        <time>2019-09-22T09:32:03Z</time>
      </trkpt>
      <trkpt lat="47.33059" lon="-2.35162">
        <ele>85</ele>
        <time>2019-09-22T09:32:05Z</time>
      </trkpt>
      <trkpt lat="47.33055" lon="-2.35168">
        <ele>84</ele>
        <time>2019-09-22T09:32:06Z</time>
      </trkpt>
      <trkpt lat="47.33052" lon="-2.35174">
        <ele>84</ele>
        <time>2019-09-22T09:32:07Z</time>
      </trkpt>
      <trkpt lat="47.33048" lon="-2.35179">
        <ele>83</ele>
        <time>2019-09-22T09:32:08Z</time>
      </trkpt>
      <trkpt lat="47.33044" lon="-2.35187">
        <ele>82</ele>
        <time>2019-09-22T09:32:10Z</time>
      </trkpt>
      <trkpt lat="47.33033" lon="-2.3518">
        <ele>81</ele>
        <time>2019-09-22T09:32:14Z</time>
      </trkpt>
      <trkpt lat="47.33029" lon="-2.35175">
        <ele>80</ele>
        <time>2019-09-22T09:32:15Z</time>
      </trkpt>
      <trkpt lat="47.33026" lon="-2.35169">
        <ele>79</ele>
        <time>2019-09-22T09:32:16Z</time>
      </trkpt>
      <trkpt lat="47.33021" lon="-2.35157">
        <ele>78</ele>
        <time>2019-09-22T09:32:18Z</time>
      </trkpt>
      <trkpt lat="47.33019" lon="-2.35143">
        <ele>78</ele>
        <time>2019-09-22T09:32:20Z</time>
      </trkpt>
      <trkpt lat="47.33019" lon="-2.35135">
        <ele>78</ele>
        <time>2019-09-22T09:32:21Z</time>
      </trkpt>
      <trkpt lat="47.33017" lon="-2.35128">
        <ele>77</ele>
        <time>2019-09-22T09:32:22Z</time>
      </trkpt>
      <trkpt lat="47.33015" lon="-2.35121">
        <ele>77</ele>
        <time>2019-09-22T09:32:23Z</time>
      </trkpt>
      <trkpt lat="47.33014" lon="-2.35114">
        <ele>77</ele>
        <time>2019-09-22T09:32:24Z</time>
      </trkpt>
      <trkpt lat="47.33013" lon="-2.35107">
        <ele>77</ele>
        <time>2019-09-22T09:32:25Z</time>
      </trkpt>
      <trkpt lat="47.33012" lon="-2.35099">
        <ele>77</ele>
        <time>2019-09-22T09:32:26Z</time>
      </trkpt>
      <trkpt lat="47.33011" lon="-2.35092">
        <ele>77</ele>
        <time>2019-09-22T09:32:27Z</time>
      </trkpt>
      <trkpt lat="47.3301" lon="-2.3508">
        <ele>78</ele>
        <time>2019-09-22T09:32:29Z</time>
      </trkpt>
      <trkpt lat="47.33007" lon="-2.35073">
        <ele>78</ele>
        <time>2019-09-22T09:32:30Z</time>
      </trkpt>
      <trkpt lat="47.33003" lon="-2.35061">
        <ele>79</ele>
        <time>2019-09-22T09:32:32Z</time>
      </trkpt>
      <trkpt lat="47.33001" lon="-2.35055">
        <ele>78</ele>
        <time>2019-09-22T09:32:33Z</time>
      </trkpt>
      <trkpt lat="47.32996" lon="-2.35042">
        <ele>79</ele>
        <time>2019-09-22T09:32:35Z</time>
      </trkpt>
      <trkpt lat="47.32994" lon="-2.35036">
        <ele>79</ele>
        <time>2019-09-22T09:32:36Z</time>
      </trkpt>
      <trkpt lat="47.32992" lon="-2.3503">
        <ele>78</ele>
        <time>2019-09-22T09:32:37Z</time>
      </trkpt>
      <trkpt lat="47.32986" lon="-2.35014">
        <ele>79</ele>
        <time>2019-09-22T09:32:40Z</time>
      </trkpt>
      <trkpt lat="47.32983" lon="-2.35006">
        <ele>79</ele>
        <time>2019-09-22T09:32:42Z</time>
      </trkpt>
      <trkpt lat="47.3298" lon="-2.34999">
        <ele>78</ele>
        <time>2019-09-22T09:32:43Z</time>
      </trkpt>
      <trkpt lat="47.32977" lon="-2.34992">
        <ele>78</ele>
        <time>2019-09-22T09:32:44Z</time>
      </trkpt>
      <trkpt lat="47.32975" lon="-2.34986">
        <ele>78</ele>
        <time>2019-09-22T09:32:45Z</time>
      </trkpt>
      <trkpt lat="47.32973" lon="-2.34981">
        <ele>78</ele>
        <time>2019-09-22T09:32:46Z</time>
      </trkpt>
      <trkpt lat="47.32969" lon="-2.3497">
        <ele>79</ele>
        <time>2019-09-22T09:32:48Z</time>
      </trkpt>
      <trkpt lat="47.32963" lon="-2.34958">
        <ele>80</ele>
        <time>2019-09-22T09:32:50Z</time>
      </trkpt>
      <trkpt lat="47.32951" lon="-2.34921">
        <ele>78</ele>
        <time>2019-09-22T09:32:53Z</time>
      </trkpt>
      <trkpt lat="47.32948" lon="-2.34912">
        <ele>77</ele>
        <time>2019-09-22T09:32:54Z</time>
      </trkpt>
      <trkpt lat="47.32944" lon="-2.34894">
        <ele>77</ele>
        <time>2019-09-22T09:32:56Z</time>
      </trkpt>
      <trkpt lat="47.32939" lon="-2.34877">
        <ele>77</ele>
        <time>2019-09-22T09:32:58Z</time>
      </trkpt>
      <trkpt lat="47.32936" lon="-2.34869">
        <ele>76</ele>
        <time>2019-09-22T09:32:59Z</time>
      </trkpt>
      <trkpt lat="47.32933" lon="-2.34861">
        <ele>76</ele>
        <time>2019-09-22T09:33:00Z</time>
      </trkpt>
      <trkpt lat="47.32928" lon="-2.34844">
        <ele>75</ele>
        <time>2019-09-22T09:33:02Z</time>
      </trkpt>
      <trkpt lat="47.32924" lon="-2.34837">
        <ele>75</ele>
        <time>2019-09-22T09:33:03Z</time>
      </trkpt>
      <trkpt lat="47.3292" lon="-2.34829">
        <ele>75</ele>
        <time>2019-09-22T09:33:04Z</time>
      </trkpt>
      <trkpt lat="47.32916" lon="-2.34821">
        <ele>75</ele>
        <time>2019-09-22T09:33:05Z</time>
      </trkpt>
      <trkpt lat="47.32914" lon="-2.34814">
        <ele>75</ele>
        <time>2019-09-22T09:33:06Z</time>
      </trkpt>
      <trkpt lat="47.32911" lon="-2.34807">
        <ele>75</ele>
        <time>2019-09-22T09:33:07Z</time>
      </trkpt>
      <trkpt lat="47.32907" lon="-2.34799">
        <ele>75</ele>
        <time>2019-09-22T09:33:10Z</time>
      </trkpt>
      <trkpt lat="47.32899" lon="-2.34797">
        <ele>75</ele>
        <time>2019-09-22T09:33:14Z</time>
      </trkpt>
      <trkpt lat="47.32893" lon="-2.34797">
        <ele>75</ele>
        <time>2019-09-22T09:33:17Z</time>
      </trkpt>
      <trkpt lat="47.32888" lon="-2.34799">
        <ele>74</ele>
        <time>2019-09-22T09:33:20Z</time>
      </trkpt>
      <trkpt lat="47.32883" lon="-2.34803">
        <ele>74</ele>
        <time>2019-09-22T09:33:23Z</time>
      </trkpt>
      <trkpt lat="47.32878" lon="-2.34806">
        <ele>74</ele>
        <time>2019-09-22T09:33:25Z</time>
      </trkpt>
      <trkpt lat="47.32873" lon="-2.3481">
        <ele>74</ele>
        <time>2019-09-22T09:33:27Z</time>
      </trkpt>
      <trkpt lat="47.32864" lon="-2.34813">
        <ele>74</ele>
        <time>2019-09-22T09:33:29Z</time>
      </trkpt>
      <trkpt lat="47.32859" lon="-2.34815">
        <ele>74</ele>
        <time>2019-09-22T09:33:30Z</time>
      </trkpt>
      <trkpt lat="47.32854" lon="-2.34817">
        <ele>74</ele>
        <time>2019-09-22T09:33:31Z</time>
      </trkpt>
      <trkpt lat="47.32849" lon="-2.34819">
        <ele>73</ele>
        <time>2019-09-22T09:33:32Z</time>
      </trkpt>
      <trkpt lat="47.32844" lon="-2.34822">
        <ele>73</ele>
        <time>2019-09-22T09:33:33Z</time>
      </trkpt>
      <trkpt lat="47.32833" lon="-2.34829">
        <ele>73</ele>
        <time>2019-09-22T09:33:35Z</time>
      </trkpt>
      <trkpt lat="47.32828" lon="-2.34833">
        <ele>74</ele>
        <time>2019-09-22T09:33:36Z</time>
      </trkpt>
      <trkpt lat="47.32822" lon="-2.34838">
        <ele>73</ele>
        <time>2019-09-22T09:33:37Z</time>
      </trkpt>
      <trkpt lat="47.32817" lon="-2.34842">
        <ele>73</ele>
        <time>2019-09-22T09:33:38Z</time>
      </trkpt>
      <trkpt lat="47.32803" lon="-2.34853">
        <ele>73</ele>
        <time>2019-09-22T09:33:41Z</time>
      </trkpt>
      <trkpt lat="47.32798" lon="-2.34856">
        <ele>73</ele>
        <time>2019-09-22T09:33:42Z</time>
      </trkpt>
      <trkpt lat="47.32781" lon="-2.34871">
        <ele>73</ele>
        <time>2019-09-22T09:33:46Z</time>
      </trkpt>
      <trkpt lat="47.32776" lon="-2.34874">
        <ele>73</ele>
        <time>2019-09-22T09:33:47Z</time>
      </trkpt>
      <trkpt lat="47.32772" lon="-2.34877">
        <ele>73</ele>
        <time>2019-09-22T09:33:48Z</time>
      </trkpt>
      <trkpt lat="47.32766" lon="-2.34882">
        <ele>73</ele>
        <time>2019-09-22T09:33:49Z</time>
      </trkpt>
      <trkpt lat="47.32752" lon="-2.34893">
        <ele>73</ele>
        <time>2019-09-22T09:33:52Z</time>
      </trkpt>
      <trkpt lat="47.32747" lon="-2.34897">
        <ele>73</ele>
        <time>2019-09-22T09:33:53Z</time>
      </trkpt>
      <trkpt lat="47.32742" lon="-2.34902">
        <ele>73</ele>
        <time>2019-09-22T09:33:54Z</time>
      </trkpt>
      <trkpt lat="47.32736" lon="-2.34906">
        <ele>73</ele>
        <time>2019-09-22T09:33:55Z</time>
      </trkpt>
      <trkpt lat="47.32729" lon="-2.3491">
        <ele>73</ele>
        <time>2019-09-22T09:33:56Z</time>
      </trkpt>
      <trkpt lat="47.32724" lon="-2.34914">
        <ele>73</ele>
        <time>2019-09-22T09:33:57Z</time>
      </trkpt>
      <trkpt lat="47.32719" lon="-2.34918">
        <ele>73</ele>
        <time>2019-09-22T09:33:58Z</time>
      </trkpt>
      <trkpt lat="47.32703" lon="-2.34927">
        <ele>72</ele>
        <time>2019-09-22T09:34:01Z</time>
      </trkpt>
      <trkpt lat="47.32694" lon="-2.34934">
        <ele>73</ele>
        <time>2019-09-22T09:34:03Z</time>
      </trkpt>
      <trkpt lat="47.3269" lon="-2.34937">
        <ele>72</ele>
        <time>2019-09-22T09:34:04Z</time>
      </trkpt>
      <trkpt lat="47.32686" lon="-2.34939">
        <ele>73</ele>
        <time>2019-09-22T09:34:05Z</time>
      </trkpt>
      <trkpt lat="47.32682" lon="-2.34942">
        <ele>72</ele>
        <time>2019-09-22T09:34:06Z</time>
      </trkpt>
      <trkpt lat="47.32675" lon="-2.34949">
        <ele>72</ele>
        <time>2019-09-22T09:34:08Z</time>
      </trkpt>
      <trkpt lat="47.32672" lon="-2.34951">
        <ele>73</ele>
        <time>2019-09-22T09:34:09Z</time>
      </trkpt>
      <trkpt lat="47.32661" lon="-2.34959">
        <ele>73</ele>
        <time>2019-09-22T09:34:12Z</time>
      </trkpt>
      <trkpt lat="47.32656" lon="-2.34962">
        <ele>74</ele>
        <time>2019-09-22T09:34:13Z</time>
      </trkpt>
      <trkpt lat="47.32652" lon="-2.34967">
        <ele>74</ele>
        <time>2019-09-22T09:34:14Z</time>
      </trkpt>
      <trkpt lat="47.32643" lon="-2.34972">
        <ele>75</ele>
        <time>2019-09-22T09:34:16Z</time>
      </trkpt>
      <trkpt lat="47.32633" lon="-2.34976">
        <ele>76</ele>
        <time>2019-09-22T09:34:18Z</time>
      </trkpt>
      <trkpt lat="47.32627" lon="-2.34978">
        <ele>75</ele>
        <time>2019-09-22T09:34:19Z</time>
      </trkpt>
      <trkpt lat="47.32616" lon="-2.34983">
        <ele>75</ele>
        <time>2019-09-22T09:34:21Z</time>
      </trkpt>
      <trkpt lat="47.32598" lon="-2.34995">
        <ele>76</ele>
        <time>2019-09-22T09:34:25Z</time>
      </trkpt>
      <trkpt lat="47.32587" lon="-2.34999">
        <ele>77</ele>
        <time>2019-09-22T09:34:27Z</time>
      </trkpt>
      <trkpt lat="47.32582" lon="-2.35001">
        <ele>77</ele>
        <time>2019-09-22T09:34:28Z</time>
      </trkpt>
      <trkpt lat="47.32577" lon="-2.35004">
        <ele>77</ele>
        <time>2019-09-22T09:34:29Z</time>
      </trkpt>
      <trkpt lat="47.32571" lon="-2.35008">
        <ele>77</ele>
        <time>2019-09-22T09:34:30Z</time>
      </trkpt>
      <trkpt lat="47.32566" lon="-2.35011">
        <ele>77</ele>
        <time>2019-09-22T09:34:31Z</time>
      </trkpt>
      <trkpt lat="47.32556" lon="-2.35015">
        <ele>77</ele>
        <time>2019-09-22T09:34:33Z</time>
      </trkpt>
      <trkpt lat="47.32551" lon="-2.35015">
        <ele>77</ele>
        <time>2019-09-22T09:34:34Z</time>
      </trkpt>
      <trkpt lat="47.32545" lon="-2.35018">
        <ele>77</ele>
        <time>2019-09-22T09:34:35Z</time>
      </trkpt>
      <trkpt lat="47.32541" lon="-2.3502">
        <ele>76</ele>
        <time>2019-09-22T09:34:36Z</time>
      </trkpt>
      <trkpt lat="47.32536" lon="-2.35022">
        <ele>77</ele>
        <time>2019-09-22T09:34:37Z</time>
      </trkpt>
      <trkpt lat="47.32527" lon="-2.35027">
        <ele>77</ele>
        <time>2019-09-22T09:34:39Z</time>
      </trkpt>
      <trkpt lat="47.32511" lon="-2.35029">
        <ele>77</ele>
        <time>2019-09-22T09:34:42Z</time>
      </trkpt>
      <trkpt lat="47.32506" lon="-2.3503">
        <ele>77</ele>
        <time>2019-09-22T09:34:44Z</time>
      </trkpt>
      <trkpt lat="47.32494" lon="-2.35033">
        <ele>77</ele>
        <time>2019-09-22T09:34:47Z</time>
      </trkpt>
      <trkpt lat="47.32488" lon="-2.35036">
        <ele>77</ele>
        <time>2019-09-22T09:34:48Z</time>
      </trkpt>
      <trkpt lat="47.32484" lon="-2.35038">
        <ele>77</ele>
        <time>2019-09-22T09:34:49Z</time>
      </trkpt>
      <trkpt lat="47.32474" lon="-2.35041">
        <ele>79</ele>
        <time>2019-09-22T09:34:51Z</time>
      </trkpt>
      <trkpt lat="47.32469" lon="-2.35042">
        <ele>79</ele>
        <time>2019-09-22T09:34:52Z</time>
      </trkpt>
      <trkpt lat="47.32462" lon="-2.35044">
        <ele>79</ele>
        <time>2019-09-22T09:34:53Z</time>
      </trkpt>
      <trkpt lat="47.32456" lon="-2.35045">
        <ele>79</ele>
        <time>2019-09-22T09:34:54Z</time>
      </trkpt>
      <trkpt lat="47.32434" lon="-2.35048">
        <ele>77</ele>
        <time>2019-09-22T09:34:58Z</time>
      </trkpt>
      <trkpt lat="47.32427" lon="-2.35047">
        <ele>77</ele>
        <time>2019-09-22T09:34:59Z</time>
      </trkpt>
      <trkpt lat="47.32418" lon="-2.35047">
        <ele>77</ele>
        <time>2019-09-22T09:35:00Z</time>
      </trkpt>
      <trkpt lat="47.32396" lon="-2.35048">
        <ele>77</ele>
        <time>2019-09-22T09:35:02Z</time>
      </trkpt>
      <trkpt lat="47.32384" lon="-2.35049">
        <ele>77</ele>
        <time>2019-09-22T09:35:04Z</time>
      </trkpt>
      <trkpt lat="47.32372" lon="-2.35051">
        <ele>77</ele>
        <time>2019-09-22T09:35:06Z</time>
      </trkpt>
      <trkpt lat="47.32366" lon="-2.35052">
        <ele>77</ele>
        <time>2019-09-22T09:35:07Z</time>
      </trkpt>
      <trkpt lat="47.32359" lon="-2.35054">
        <ele>76</ele>
        <time>2019-09-22T09:35:08Z</time>
      </trkpt>
      <trkpt lat="47.32353" lon="-2.35054">
        <ele>77</ele>
        <time>2019-09-22T09:35:09Z</time>
      </trkpt>
      <trkpt lat="47.32346" lon="-2.35054">
        <ele>77</ele>
        <time>2019-09-22T09:35:10Z</time>
      </trkpt>
      <trkpt lat="47.32328" lon="-2.35054">
        <ele>76</ele>
        <time>2019-09-22T09:35:13Z</time>
      </trkpt>
      <trkpt lat="47.32315" lon="-2.35054">
        <ele>76</ele>
        <time>2019-09-22T09:35:15Z</time>
      </trkpt>
      <trkpt lat="47.32293" lon="-2.35054">
        <ele>76</ele>
        <time>2019-09-22T09:35:18Z</time>
      </trkpt>
      <trkpt lat="47.32274" lon="-2.35053">
        <ele>75</ele>
        <time>2019-09-22T09:35:21Z</time>
      </trkpt>
      <trkpt lat="47.32259" lon="-2.35054">
        <ele>75</ele>
        <time>2019-09-22T09:35:23Z</time>
      </trkpt>
      <trkpt lat="47.32248" lon="-2.35057">
        <ele>75</ele>
        <time>2019-09-22T09:35:25Z</time>
      </trkpt>
      <trkpt lat="47.32242" lon="-2.35058">
        <ele>75</ele>
        <time>2019-09-22T09:35:26Z</time>
      </trkpt>
      <trkpt lat="47.32236" lon="-2.3506">
        <ele>75</ele>
        <time>2019-09-22T09:35:27Z</time>
      </trkpt>
      <trkpt lat="47.32228" lon="-2.35061">
        <ele>75</ele>
        <time>2019-09-22T09:35:28Z</time>
      </trkpt>
      <trkpt lat="47.32221" lon="-2.35062">
        <ele>75</ele>
        <time>2019-09-22T09:35:29Z</time>
      </trkpt>
      <trkpt lat="47.32214" lon="-2.35063">
        <ele>76</ele>
        <time>2019-09-22T09:35:30Z</time>
      </trkpt>
      <trkpt lat="47.32207" lon="-2.35063">
        <ele>76</ele>
        <time>2019-09-22T09:35:31Z</time>
      </trkpt>
      <trkpt lat="47.322" lon="-2.35064">
        <ele>76</ele>
        <time>2019-09-22T09:35:32Z</time>
      </trkpt>
      <trkpt lat="47.32193" lon="-2.35063">
        <ele>75</ele>
        <time>2019-09-22T09:35:33Z</time>
      </trkpt>
      <trkpt lat="47.32184" lon="-2.35063">
        <ele>75</ele>
        <time>2019-09-22T09:35:34Z</time>
      </trkpt>
      <trkpt lat="47.32177" lon="-2.35063">
        <ele>75</ele>
        <time>2019-09-22T09:35:35Z</time>
      </trkpt>
      <trkpt lat="47.32166" lon="-2.35064">
        <ele>75</ele>
        <time>2019-09-22T09:35:37Z</time>
      </trkpt>
      <trkpt lat="47.32159" lon="-2.35063">
        <ele>74</ele>
        <time>2019-09-22T09:35:38Z</time>
      </trkpt>
      <trkpt lat="47.32152" lon="-2.35063">
        <ele>74</ele>
        <time>2019-09-22T09:35:39Z</time>
      </trkpt>
      <trkpt lat="47.3213" lon="-2.35062">
        <ele>74</ele>
        <time>2019-09-22T09:35:42Z</time>
      </trkpt>
      <trkpt lat="47.32123" lon="-2.35061">
        <ele>74</ele>
        <time>2019-09-22T09:35:43Z</time>
      </trkpt>
      <trkpt lat="47.32116" lon="-2.35062">
        <ele>74</ele>
        <time>2019-09-22T09:35:44Z</time>
      </trkpt>
      <trkpt lat="47.32109" lon="-2.35063">
        <ele>74</ele>
        <time>2019-09-22T09:35:45Z</time>
      </trkpt>
      <trkpt lat="47.32102" lon="-2.35063">
        <ele>74</ele>
        <time>2019-09-22T09:35:46Z</time>
      </trkpt>
      <trkpt lat="47.32095" lon="-2.35063">
        <ele>74</ele>
        <time>2019-09-22T09:35:47Z</time>
      </trkpt>
      <trkpt lat="47.32089" lon="-2.35063">
        <ele>74</ele>
        <time>2019-09-22T09:35:48Z</time>
      </trkpt>
      <trkpt lat="47.32083" lon="-2.35062">
        <ele>74</ele>
        <time>2019-09-22T09:35:49Z</time>
      </trkpt>
      <trkpt lat="47.32078" lon="-2.35062">
        <ele>73</ele>
        <time>2019-09-22T09:35:50Z</time>
      </trkpt>
      <trkpt lat="47.32066" lon="-2.35063">
        <ele>73</ele>
        <time>2019-09-22T09:35:52Z</time>
      </trkpt>
      <trkpt lat="47.32062" lon="-2.35063">
        <ele>73</ele>
        <time>2019-09-22T09:35:53Z</time>
      </trkpt>
      <trkpt lat="47.3205" lon="-2.35062">
        <ele>74</ele>
        <time>2019-09-22T09:35:55Z</time>
      </trkpt>
      <trkpt lat="47.32045" lon="-2.35062">
        <ele>74</ele>
        <time>2019-09-22T09:35:56Z</time>
      </trkpt>
      <trkpt lat="47.3204" lon="-2.35068">
        <ele>74</ele>
        <time>2019-09-22T09:35:58Z</time>
      </trkpt>
      <trkpt lat="47.32041" lon="-2.35078">
        <ele>74</ele>
        <time>2019-09-22T09:36:00Z</time>
      </trkpt>
      <trkpt lat="47.32043" lon="-2.35087">
        <ele>75</ele>
        <time>2019-09-22T09:36:02Z</time>
      </trkpt>
      <trkpt lat="47.32044" lon="-2.35094">
        <ele>74</ele>
        <time>2019-09-22T09:36:03Z</time>
      </trkpt>
      <trkpt lat="47.32045" lon="-2.35101">
        <ele>74</ele>
        <time>2019-09-22T09:36:04Z</time>
      </trkpt>
      <trkpt lat="47.32045" lon="-2.35108">
        <ele>74</ele>
        <time>2019-09-22T09:36:05Z</time>
      </trkpt>
      <trkpt lat="47.3204" lon="-2.35122">
        <ele>74</ele>
        <time>2019-09-22T09:36:07Z</time>
      </trkpt>
      <trkpt lat="47.32027" lon="-2.35137">
        <ele>74</ele>
        <time>2019-09-22T09:36:10Z</time>
      </trkpt>
      <trkpt lat="47.32023" lon="-2.35141">
        <ele>74</ele>
        <time>2019-09-22T09:36:11Z</time>
      </trkpt>
      <trkpt lat="47.32018" lon="-2.35146">
        <ele>73</ele>
        <time>2019-09-22T09:36:12Z</time>
      </trkpt>
      <trkpt lat="47.32013" lon="-2.3515">
        <ele>73</ele>
        <time>2019-09-22T09:36:13Z</time>
      </trkpt>
      <trkpt lat="47.32005" lon="-2.3516">
        <ele>73</ele>
        <time>2019-09-22T09:36:15Z</time>
      </trkpt>
      <trkpt lat="47.32001" lon="-2.35164">
        <ele>73</ele>
        <time>2019-09-22T09:36:16Z</time>
      </trkpt>
      <trkpt lat="47.31996" lon="-2.35168">
        <ele>73</ele>
        <time>2019-09-22T09:36:17Z</time>
      </trkpt>
      <trkpt lat="47.31992" lon="-2.35173">
        <ele>73</ele>
        <time>2019-09-22T09:36:18Z</time>
      </trkpt>
      <trkpt lat="47.31988" lon="-2.35178">
        <ele>73</ele>
        <time>2019-09-22T09:36:19Z</time>
      </trkpt>
      <trkpt lat="47.31984" lon="-2.35181">
        <ele>73</ele>
        <time>2019-09-22T09:36:20Z</time>
      </trkpt>
      <trkpt lat="47.31979" lon="-2.35185">
        <ele>73</ele>
        <time>2019-09-22T09:36:21Z</time>
      </trkpt>
      <trkpt lat="47.31975" lon="-2.35189">
        <ele>73</ele>
        <time>2019-09-22T09:36:22Z</time>
      </trkpt>
      <trkpt lat="47.3197" lon="-2.35193">
        <ele>74</ele>
        <time>2019-09-22T09:36:23Z</time>
      </trkpt>
      <trkpt lat="47.31959" lon="-2.35201">
        <ele>74</ele>
        <time>2019-09-22T09:36:25Z</time>
      </trkpt>
      <trkpt lat="47.31954" lon="-2.35205">
        <ele>74</ele>
        <time>2019-09-22T09:36:26Z</time>
      </trkpt>
      <trkpt lat="47.31946" lon="-2.35214">
        <ele>74</ele>
        <time>2019-09-22T09:36:28Z</time>
      </trkpt>
      <trkpt lat="47.31943" lon="-2.35217">
        <ele>75</ele>
        <time>2019-09-22T09:36:29Z</time>
      </trkpt>
      <trkpt lat="47.31935" lon="-2.35225">
        <ele>74</ele>
        <time>2019-09-22T09:36:31Z</time>
      </trkpt>
      <trkpt lat="47.31931" lon="-2.35231">
        <ele>75</ele>
        <time>2019-09-22T09:36:32Z</time>
      </trkpt>
      <trkpt lat="47.31918" lon="-2.35244">
        <ele>76</ele>
        <time>2019-09-22T09:36:35Z</time>
      </trkpt>
      <trkpt lat="47.31913" lon="-2.35249">
        <ele>76</ele>
        <time>2019-09-22T09:36:36Z</time>
      </trkpt>
      <trkpt lat="47.31908" lon="-2.35253">
        <ele>77</ele>
        <time>2019-09-22T09:36:37Z</time>
      </trkpt>
      <trkpt lat="47.31904" lon="-2.35257">
        <ele>77</ele>
        <time>2019-09-22T09:36:38Z</time>
      </trkpt>
      <trkpt lat="47.319" lon="-2.35261">
        <ele>77</ele>
        <time>2019-09-22T09:36:39Z</time>
      </trkpt>
      <trkpt lat="47.31896" lon="-2.35265">
        <ele>78</ele>
        <time>2019-09-22T09:36:40Z</time>
      </trkpt>
      <trkpt lat="47.31887" lon="-2.35274">
        <ele>78</ele>
        <time>2019-09-22T09:36:42Z</time>
      </trkpt>
      <trkpt lat="47.31882" lon="-2.35277">
        <ele>78</ele>
        <time>2019-09-22T09:36:43Z</time>
      </trkpt>
      <trkpt lat="47.31877" lon="-2.35281">
        <ele>78</ele>
        <time>2019-09-22T09:36:44Z</time>
      </trkpt>
      <trkpt lat="47.31873" lon="-2.35284">
        <ele>78</ele>
        <time>2019-09-22T09:36:45Z</time>
      </trkpt>
      <trkpt lat="47.31868" lon="-2.35289">
        <ele>78</ele>
        <time>2019-09-22T09:36:46Z</time>
      </trkpt>
      <trkpt lat="47.31859" lon="-2.35299">
        <ele>79</ele>
        <time>2019-09-22T09:36:49Z</time>
      </trkpt>
      <trkpt lat="47.31849" lon="-2.35309">
        <ele>80</ele>
        <time>2019-09-22T09:36:52Z</time>
      </trkpt>
      <trkpt lat="47.31839" lon="-2.35319">
        <ele>79</ele>
        <time>2019-09-22T09:36:55Z</time>
      </trkpt>
      <trkpt lat="47.31822" lon="-2.35328">
        <ele>80</ele>
        <time>2019-09-22T09:36:58Z</time>
      </trkpt>
      <trkpt lat="47.31816" lon="-2.3533">
        <ele>80</ele>
        <time>2019-09-22T09:36:59Z</time>
      </trkpt>
      <trkpt lat="47.3181" lon="-2.35332">
        <ele>79</ele>
        <time>2019-09-22T09:37:00Z</time>
      </trkpt>
      <trkpt lat="47.31805" lon="-2.35334">
        <ele>78</ele>
        <time>2019-09-22T09:37:01Z</time>
      </trkpt>
      <trkpt lat="47.31794" lon="-2.35338">
        <ele>78</ele>
        <time>2019-09-22T09:37:03Z</time>
      </trkpt>
      <trkpt lat="47.3179" lon="-2.35341">
        <ele>79</ele>
        <time>2019-09-22T09:37:04Z</time>
      </trkpt>
      <trkpt lat="47.31785" lon="-2.35343">
        <ele>79</ele>
        <time>2019-09-22T09:37:05Z</time>
      </trkpt>
      <trkpt lat="47.31781" lon="-2.35346">
        <ele>79</ele>
        <time>2019-09-22T09:37:06Z</time>
      </trkpt>
      <trkpt lat="47.31772" lon="-2.35353">
        <ele>80</ele>
        <time>2019-09-22T09:37:09Z</time>
      </trkpt>
      <trkpt lat="47.31769" lon="-2.35356">
        <ele>80</ele>
        <time>2019-09-22T09:37:10Z</time>
      </trkpt>
      <trkpt lat="47.31763" lon="-2.35371">
        <ele>81</ele>
        <time>2019-09-22T09:37:14Z</time>
      </trkpt>
      <trkpt lat="47.31765" lon="-2.3538">
        <ele>80</ele>
        <time>2019-09-22T09:37:16Z</time>
      </trkpt>
      <trkpt lat="47.3177" lon="-2.35388">
        <ele>81</ele>
        <time>2019-09-22T09:37:18Z</time>
      </trkpt>
      <trkpt lat="47.31778" lon="-2.35403">
        <ele>83</ele>
        <time>2019-09-22T09:37:21Z</time>
      </trkpt>
      <trkpt lat="47.31787" lon="-2.35414">
        <ele>86</ele>
        <time>2019-09-22T09:37:24Z</time>
      </trkpt>
      <trkpt lat="47.31791" lon="-2.35419">
        <ele>86</ele>
        <time>2019-09-22T09:37:25Z</time>
      </trkpt>
      <trkpt lat="47.31795" lon="-2.35425">
        <ele>85</ele>
        <time>2019-09-22T09:37:26Z</time>
      </trkpt>
      <trkpt lat="47.31818" lon="-2.35467">
        <ele>86</ele>
        <time>2019-09-22T09:37:31Z</time>
      </trkpt>
      <trkpt lat="47.31823" lon="-2.35485">
        <ele>87</ele>
        <time>2019-09-22T09:37:33Z</time>
      </trkpt>
      <trkpt lat="47.31829" lon="-2.35501">
        <ele>87</ele>
        <time>2019-09-22T09:37:35Z</time>
      </trkpt>
      <trkpt lat="47.31831" lon="-2.35509">
        <ele>88</ele>
        <time>2019-09-22T09:37:36Z</time>
      </trkpt>
      <trkpt lat="47.31834" lon="-2.35517">
        <ele>88</ele>
        <time>2019-09-22T09:37:37Z</time>
      </trkpt>
      <trkpt lat="47.31836" lon="-2.35524">
        <ele>88</ele>
        <time>2019-09-22T09:37:38Z</time>
      </trkpt>
      <trkpt lat="47.31838" lon="-2.35541">
        <ele>90</ele>
        <time>2019-09-22T09:37:40Z</time>
      </trkpt>
      <trkpt lat="47.31832" lon="-2.35553">
        <ele>89</ele>
        <time>2019-09-22T09:37:42Z</time>
      </trkpt>
      <trkpt lat="47.31829" lon="-2.35558">
        <ele>88</ele>
        <time>2019-09-22T09:37:43Z</time>
      </trkpt>
      <trkpt lat="47.31826" lon="-2.35562">
        <ele>88</ele>
        <time>2019-09-22T09:37:44Z</time>
      </trkpt>
      <trkpt lat="47.31817" lon="-2.35572">
        <ele>87</ele>
        <time>2019-09-22T09:37:46Z</time>
      </trkpt>
      <trkpt lat="47.31814" lon="-2.35578">
        <ele>86</ele>
        <time>2019-09-22T09:37:47Z</time>
      </trkpt>
      <trkpt lat="47.31811" lon="-2.35584">
        <ele>86</ele>
        <time>2019-09-22T09:37:48Z</time>
      </trkpt>
      <trkpt lat="47.31808" lon="-2.3559">
        <ele>85</ele>
        <time>2019-09-22T09:37:49Z</time>
      </trkpt>
      <trkpt lat="47.31805" lon="-2.35595">
        <ele>85</ele>
        <time>2019-09-22T09:37:50Z</time>
      </trkpt>
      <trkpt lat="47.318" lon="-2.35601">
        <ele>84</ele>
        <time>2019-09-22T09:37:51Z</time>
      </trkpt>
      <trkpt lat="47.31798" lon="-2.35607">
        <ele>84</ele>
        <time>2019-09-22T09:37:52Z</time>
      </trkpt>
      <trkpt lat="47.31795" lon="-2.35613">
        <ele>84</ele>
        <time>2019-09-22T09:37:53Z</time>
      </trkpt>
      <trkpt lat="47.3179" lon="-2.35623">
        <ele>85</ele>
        <time>2019-09-22T09:37:55Z</time>
      </trkpt>
      <trkpt lat="47.31787" lon="-2.35638">
        <ele>86</ele>
        <time>2019-09-22T09:37:58Z</time>
      </trkpt>
      <trkpt lat="47.31786" lon="-2.35643">
        <ele>86</ele>
        <time>2019-09-22T09:37:59Z</time>
      </trkpt>
      <trkpt lat="47.31785" lon="-2.3566">
        <ele>86</ele>
        <time>2019-09-22T09:38:02Z</time>
      </trkpt>
      <trkpt lat="47.31784" lon="-2.35667">
        <ele>86</ele>
        <time>2019-09-22T09:38:03Z</time>
      </trkpt>
      <trkpt lat="47.31784" lon="-2.35673">
        <ele>86</ele>
        <time>2019-09-22T09:38:04Z</time>
      </trkpt>
      <trkpt lat="47.31784" lon="-2.35679">
        <ele>86</ele>
        <time>2019-09-22T09:38:05Z</time>
      </trkpt>
      <trkpt lat="47.31782" lon="-2.35695">
        <ele>87</ele>
        <time>2019-09-22T09:38:08Z</time>
      </trkpt>
      <trkpt lat="47.31783" lon="-2.35707">
        <ele>87</ele>
        <time>2019-09-22T09:38:10Z</time>
      </trkpt>
      <trkpt lat="47.31784" lon="-2.35714">
        <ele>87</ele>
        <time>2019-09-22T09:38:11Z</time>
      </trkpt>
      <trkpt lat="47.31784" lon="-2.35726">
        <ele>88</ele>
        <time>2019-09-22T09:38:13Z</time>
      </trkpt>
      <trkpt lat="47.31784" lon="-2.35732">
        <ele>88</ele>
        <time>2019-09-22T09:38:14Z</time>
      </trkpt>
      <trkpt lat="47.31784" lon="-2.35738">
        <ele>88</ele>
        <time>2019-09-22T09:38:15Z</time>
      </trkpt>
      <trkpt lat="47.31785" lon="-2.35744">
        <ele>88</ele>
        <time>2019-09-22T09:38:16Z</time>
      </trkpt>
      <trkpt lat="47.31784" lon="-2.35755">
        <ele>88</ele>
        <time>2019-09-22T09:38:18Z</time>
      </trkpt>
      <trkpt lat="47.31786" lon="-2.35766">
        <ele>88</ele>
        <time>2019-09-22T09:38:20Z</time>
      </trkpt>
      <trkpt lat="47.31788" lon="-2.3578">
        <ele>88</ele>
        <time>2019-09-22T09:38:22Z</time>
      </trkpt>
      <trkpt lat="47.31792" lon="-2.35793">
        <ele>88</ele>
        <time>2019-09-22T09:38:24Z</time>
      </trkpt>
      <trkpt lat="47.31795" lon="-2.358">
        <ele>87</ele>
        <time>2019-09-22T09:38:25Z</time>
      </trkpt>
      <trkpt lat="47.31799" lon="-2.35805">
        <ele>87</ele>
        <time>2019-09-22T09:38:26Z</time>
      </trkpt>
      <trkpt lat="47.31803" lon="-2.35813">
        <ele>86</ele>
        <time>2019-09-22T09:38:27Z</time>
      </trkpt>
      <trkpt lat="47.31806" lon="-2.35819">
        <ele>86</ele>
        <time>2019-09-22T09:38:28Z</time>
      </trkpt>
      <trkpt lat="47.31813" lon="-2.35829">
        <ele>86</ele>
        <time>2019-09-22T09:38:30Z</time>
      </trkpt>
      <trkpt lat="47.31816" lon="-2.35836">
        <ele>86</ele>
        <time>2019-09-22T09:38:31Z</time>
      </trkpt>
      <trkpt lat="47.31821" lon="-2.35844">
        <ele>86</ele>
        <time>2019-09-22T09:38:32Z</time>
      </trkpt>
      <trkpt lat="47.31825" lon="-2.35851">
        <ele>86</ele>
        <time>2019-09-22T09:38:33Z</time>
      </trkpt>
      <trkpt lat="47.31825" lon="-2.35868">
        <ele>87</ele>
        <time>2019-09-22T09:38:35Z</time>
      </trkpt>
      <trkpt lat="47.31823" lon="-2.35875">
        <ele>87</ele>
        <time>2019-09-22T09:38:36Z</time>
      </trkpt>
      <trkpt lat="47.3182" lon="-2.3588">
        <ele>87</ele>
        <time>2019-09-22T09:38:37Z</time>
      </trkpt>
      <trkpt lat="47.31815" lon="-2.35883">
        <ele>87</ele>
        <time>2019-09-22T09:38:38Z</time>
      </trkpt>
      <trkpt lat="47.31811" lon="-2.35885">
        <ele>86</ele>
        <time>2019-09-22T09:38:39Z</time>
      </trkpt>
      <trkpt lat="47.31806" lon="-2.35887">
        <ele>86</ele>
        <time>2019-09-22T09:38:40Z</time>
      </trkpt>
      <trkpt lat="47.318" lon="-2.3589">
        <ele>85</ele>
        <time>2019-09-22T09:38:41Z</time>
      </trkpt>
      <trkpt lat="47.31792" lon="-2.35895">
        <ele>85</ele>
        <time>2019-09-22T09:38:43Z</time>
      </trkpt>
      <trkpt lat="47.31788" lon="-2.35898">
        <ele>85</ele>
        <time>2019-09-22T09:38:44Z</time>
      </trkpt>
      <trkpt lat="47.31783" lon="-2.35902">
        <ele>84</ele>
        <time>2019-09-22T09:38:45Z</time>
      </trkpt>
      <trkpt lat="47.31778" lon="-2.35906">
        <ele>84</ele>
        <time>2019-09-22T09:38:46Z</time>
      </trkpt>
      <trkpt lat="47.31772" lon="-2.35908">
        <ele>84</ele>
        <time>2019-09-22T09:38:47Z</time>
      </trkpt>
      <trkpt lat="47.31761" lon="-2.35915">
        <ele>83</ele>
        <time>2019-09-22T09:38:49Z</time>
      </trkpt>
      <trkpt lat="47.31757" lon="-2.35917">
        <ele>84</ele>
        <time>2019-09-22T09:38:50Z</time>
      </trkpt>
      <trkpt lat="47.31752" lon="-2.3592">
        <ele>84</ele>
        <time>2019-09-22T09:38:51Z</time>
      </trkpt>
      <trkpt lat="47.31747" lon="-2.35923">
        <ele>83</ele>
        <time>2019-09-22T09:38:53Z</time>
      </trkpt>
      <trkpt lat="47.31739" lon="-2.35928">
        <ele>83</ele>
        <time>2019-09-22T09:38:54Z</time>
      </trkpt>
      <trkpt lat="47.31734" lon="-2.35931">
        <ele>83</ele>
        <time>2019-09-22T09:38:55Z</time>
      </trkpt>
      <trkpt lat="47.31726" lon="-2.35936">
        <ele>85</ele>
        <time>2019-09-22T09:38:57Z</time>
      </trkpt>
      <trkpt lat="47.31717" lon="-2.35942">
        <ele>85</ele>
        <time>2019-09-22T09:38:59Z</time>
      </trkpt>
      <trkpt lat="47.31713" lon="-2.35945">
        <ele>84</ele>
        <time>2019-09-22T09:39:00Z</time>
      </trkpt>
      <trkpt lat="47.31703" lon="-2.3595">
        <ele>84</ele>
        <time>2019-09-22T09:39:02Z</time>
      </trkpt>
      <trkpt lat="47.31698" lon="-2.35954">
        <ele>84</ele>
        <time>2019-09-22T09:39:03Z</time>
      </trkpt>
      <trkpt lat="47.31694" lon="-2.35957">
        <ele>84</ele>
        <time>2019-09-22T09:39:04Z</time>
      </trkpt>
      <trkpt lat="47.3169" lon="-2.3596">
        <ele>85</ele>
        <time>2019-09-22T09:39:05Z</time>
      </trkpt>
      <trkpt lat="47.31675" lon="-2.35967">
        <ele>89</ele>
        <time>2019-09-22T09:39:09Z</time>
      </trkpt>
      <trkpt lat="47.31669" lon="-2.35973">
        <ele>88</ele>
        <time>2019-09-22T09:39:11Z</time>
      </trkpt>
      <trkpt lat="47.31661" lon="-2.35979">
        <ele>88</ele>
        <time>2019-09-22T09:39:13Z</time>
      </trkpt>
      <trkpt lat="47.31653" lon="-2.35985">
        <ele>88</ele>
        <time>2019-09-22T09:39:15Z</time>
      </trkpt>
      <trkpt lat="47.31649" lon="-2.35988">
        <ele>88</ele>
        <time>2019-09-22T09:39:16Z</time>
      </trkpt>
      <trkpt lat="47.31639" lon="-2.35998">
        <ele>88</ele>
        <time>2019-09-22T09:39:19Z</time>
      </trkpt>
      <trkpt lat="47.31634" lon="-2.36002">
        <ele>88</ele>
        <time>2019-09-22T09:39:20Z</time>
      </trkpt>
      <trkpt lat="47.31622" lon="-2.36014">
        <ele>89</ele>
        <time>2019-09-22T09:39:23Z</time>
      </trkpt>
      <trkpt lat="47.31618" lon="-2.36018">
        <ele>89</ele>
        <time>2019-09-22T09:39:24Z</time>
      </trkpt>
      <trkpt lat="47.31615" lon="-2.36021">
        <ele>89</ele>
        <time>2019-09-22T09:39:25Z</time>
      </trkpt>
      <trkpt lat="47.31611" lon="-2.36025">
        <ele>89</ele>
        <time>2019-09-22T09:39:26Z</time>
      </trkpt>
      <trkpt lat="47.31602" lon="-2.36037">
        <ele>89</ele>
        <time>2019-09-22T09:39:29Z</time>
      </trkpt>
      <trkpt lat="47.31598" lon="-2.36041">
        <ele>89</ele>
        <time>2019-09-22T09:39:30Z</time>
      </trkpt>
      <trkpt lat="47.31594" lon="-2.36044">
        <ele>89</ele>
        <time>2019-09-22T09:39:31Z</time>
      </trkpt>
      <trkpt lat="47.3159" lon="-2.36048">
        <ele>89</ele>
        <time>2019-09-22T09:39:32Z</time>
      </trkpt>
      <trkpt lat="47.31582" lon="-2.36054">
        <ele>89</ele>
        <time>2019-09-22T09:39:34Z</time>
      </trkpt>
      <trkpt lat="47.31575" lon="-2.36062">
        <ele>89</ele>
        <time>2019-09-22T09:39:36Z</time>
      </trkpt>
      <trkpt lat="47.31571" lon="-2.36066">
        <ele>89</ele>
        <time>2019-09-22T09:39:37Z</time>
      </trkpt>
      <trkpt lat="47.31567" lon="-2.36069">
        <ele>89</ele>
        <time>2019-09-22T09:39:38Z</time>
      </trkpt>
      <trkpt lat="47.31559" lon="-2.36075">
        <ele>90</ele>
        <time>2019-09-22T09:39:40Z</time>
      </trkpt>
      <trkpt lat="47.31552" lon="-2.36081">
        <ele>89</ele>
        <time>2019-09-22T09:39:42Z</time>
      </trkpt>
      <trkpt lat="47.31549" lon="-2.36085">
        <ele>89</ele>
        <time>2019-09-22T09:39:43Z</time>
      </trkpt>
      <trkpt lat="47.31545" lon="-2.36089">
        <ele>89</ele>
        <time>2019-09-22T09:39:44Z</time>
      </trkpt>
      <trkpt lat="47.31541" lon="-2.36093">
        <ele>89</ele>
        <time>2019-09-22T09:39:45Z</time>
      </trkpt>
      <trkpt lat="47.31538" lon="-2.36096">
        <ele>88</ele>
        <time>2019-09-22T09:39:46Z</time>
      </trkpt>
      <trkpt lat="47.31534" lon="-2.361">
        <ele>88</ele>
        <time>2019-09-22T09:39:47Z</time>
      </trkpt>
      <trkpt lat="47.3153" lon="-2.36104">
        <ele>88</ele>
        <time>2019-09-22T09:39:48Z</time>
      </trkpt>
      <trkpt lat="47.31523" lon="-2.36112">
        <ele>88</ele>
        <time>2019-09-22T09:39:50Z</time>
      </trkpt>
      <trkpt lat="47.31519" lon="-2.36116">
        <ele>88</ele>
        <time>2019-09-22T09:39:51Z</time>
      </trkpt>
      <trkpt lat="47.31516" lon="-2.3612">
        <ele>88</ele>
        <time>2019-09-22T09:39:52Z</time>
      </trkpt>
      <trkpt lat="47.31513" lon="-2.36124">
        <ele>88</ele>
        <time>2019-09-22T09:39:53Z</time>
      </trkpt>
      <trkpt lat="47.31507" lon="-2.36132">
        <ele>88</ele>
        <time>2019-09-22T09:39:55Z</time>
      </trkpt>
      <trkpt lat="47.31503" lon="-2.36136">
        <ele>88</ele>
        <time>2019-09-22T09:39:56Z</time>
      </trkpt>
      <trkpt lat="47.31497" lon="-2.36144">
        <ele>89</ele>
        <time>2019-09-22T09:39:58Z</time>
      </trkpt>
      <trkpt lat="47.31489" lon="-2.36151">
        <ele>89</ele>
        <time>2019-09-22T09:40:00Z</time>
      </trkpt>
      <trkpt lat="47.31483" lon="-2.36158">
        <ele>88</ele>
        <time>2019-09-22T09:40:02Z</time>
      </trkpt>
      <trkpt lat="47.31479" lon="-2.36161">
        <ele>89</ele>
        <time>2019-09-22T09:40:03Z</time>
      </trkpt>
      <trkpt lat="47.31477" lon="-2.36164">
        <ele>89</ele>
        <time>2019-09-22T09:40:04Z</time>
      </trkpt>
      <trkpt lat="47.31472" lon="-2.3617">
        <ele>89</ele>
        <time>2019-09-22T09:40:06Z</time>
      </trkpt>
      <trkpt lat="47.31468" lon="-2.36174">
        <ele>89</ele>
        <time>2019-09-22T09:40:08Z</time>
      </trkpt>
      <trkpt lat="47.31468" lon="-2.36174">
        <ele>89</ele>
        <time>2019-09-22T09:40:13Z</time>
      </trkpt>
      <trkpt lat="47.31468" lon="-2.36174">
        <ele>40.1</ele>
        <time>2019-09-22T09:40:13Z</time>
      </trkpt>
      <trkpt lat="47.31468" lon="-2.36174">
        <ele>40.1</ele>
        <time>2019-09-22T09:40:42Z</time>
      </trkpt>
      <trkpt lat="47.31456" lon="-2.36155">
        <ele>90</ele>
        <time>2019-09-22T09:40:42Z</time>
      </trkpt>
      <trkpt lat="47.31447" lon="-2.36124">
        <ele>94</ele>
        <time>2019-09-22T09:40:49Z</time>
      </trkpt>
      <trkpt lat="47.31442" lon="-2.36115">
        <ele>94</ele>
        <time>2019-09-22T09:40:51Z</time>
      </trkpt>
      <trkpt lat="47.31439" lon="-2.36109">
        <ele>96</ele>
        <time>2019-09-22T09:40:52Z</time>
      </trkpt>
      <trkpt lat="47.31436" lon="-2.36103">
        <ele>96</ele>
        <time>2019-09-22T09:40:53Z</time>
      </trkpt>
      <trkpt lat="47.3143" lon="-2.36093">
        <ele>94</ele>
        <time>2019-09-22T09:40:55Z</time>
      </trkpt>
      <trkpt lat="47.31423" lon="-2.36073">
        <ele>93</ele>
        <time>2019-09-22T09:40:58Z</time>
      </trkpt>
      <trkpt lat="47.31421" lon="-2.36066">
        <ele>93</ele>
        <time>2019-09-22T09:40:59Z</time>
      </trkpt>
      <trkpt lat="47.31417" lon="-2.36052">
        <ele>92</ele>
        <time>2019-09-22T09:41:01Z</time>
      </trkpt>
      <trkpt lat="47.31414" lon="-2.36044">
        <ele>92</ele>
        <time>2019-09-22T09:41:02Z</time>
      </trkpt>
      <trkpt lat="47.31412" lon="-2.36037">
        <ele>93</ele>
        <time>2019-09-22T09:41:03Z</time>
      </trkpt>
      <trkpt lat="47.3141" lon="-2.36029">
        <ele>92</ele>
        <time>2019-09-22T09:41:04Z</time>
      </trkpt>
      <trkpt lat="47.31408" lon="-2.36023">
        <ele>93</ele>
        <time>2019-09-22T09:41:05Z</time>
      </trkpt>
      <trkpt lat="47.314" lon="-2.35999">
        <ele>93</ele>
        <time>2019-09-22T09:41:08Z</time>
      </trkpt>
      <trkpt lat="47.31397" lon="-2.35991">
        <ele>94</ele>
        <time>2019-09-22T09:41:09Z</time>
      </trkpt>
      <trkpt lat="47.31391" lon="-2.35974">
        <ele>96</ele>
        <time>2019-09-22T09:41:11Z</time>
      </trkpt>
      <trkpt lat="47.31387" lon="-2.35966">
        <ele>94</ele>
        <time>2019-09-22T09:41:12Z</time>
      </trkpt>
      <trkpt lat="47.31382" lon="-2.35957">
        <ele>93</ele>
        <time>2019-09-22T09:41:13Z</time>
      </trkpt>
      <trkpt lat="47.31377" lon="-2.35947">
        <ele>93</ele>
        <time>2019-09-22T09:41:14Z</time>
      </trkpt>
      <trkpt lat="47.31372" lon="-2.35938">
        <ele>92</ele>
        <time>2019-09-22T09:41:15Z</time>
      </trkpt>
      <trkpt lat="47.31369" lon="-2.35929">
        <ele>92</ele>
        <time>2019-09-22T09:41:16Z</time>
      </trkpt>
      <trkpt lat="47.31356" lon="-2.35905">
        <ele>90</ele>
        <time>2019-09-22T09:41:19Z</time>
      </trkpt>
      <trkpt lat="47.31352" lon="-2.35897">
        <ele>90</ele>
        <time>2019-09-22T09:41:20Z</time>
      </trkpt>
      <trkpt lat="47.31348" lon="-2.35889">
        <ele>90</ele>
        <time>2019-09-22T09:41:21Z</time>
      </trkpt>
      <trkpt lat="47.31341" lon="-2.35876">
        <ele>90</ele>
        <time>2019-09-22T09:41:23Z</time>
      </trkpt>
      <trkpt lat="47.31338" lon="-2.35869">
        <ele>90</ele>
        <time>2019-09-22T09:41:24Z</time>
      </trkpt>
      <trkpt lat="47.31335" lon="-2.35861">
        <ele>91</ele>
        <time>2019-09-22T09:41:25Z</time>
      </trkpt>
      <trkpt lat="47.31334" lon="-2.35833">
        <ele>92</ele>
        <time>2019-09-22T09:41:28Z</time>
      </trkpt>
      <trkpt lat="47.31333" lon="-2.35824">
        <ele>92</ele>
        <time>2019-09-22T09:41:29Z</time>
      </trkpt>
      <trkpt lat="47.31332" lon="-2.35806">
        <ele>92</ele>
        <time>2019-09-22T09:41:31Z</time>
      </trkpt>
      <trkpt lat="47.31331" lon="-2.35797">
        <ele>92</ele>
        <time>2019-09-22T09:41:32Z</time>
      </trkpt>
      <trkpt lat="47.31331" lon="-2.35788">
        <ele>92</ele>
        <time>2019-09-22T09:41:33Z</time>
      </trkpt>
      <trkpt lat="47.3133" lon="-2.35771">
        <ele>92</ele>
        <time>2019-09-22T09:41:35Z</time>
      </trkpt>
      <trkpt lat="47.3133" lon="-2.35762">
        <ele>92</ele>
        <time>2019-09-22T09:41:36Z</time>
      </trkpt>
      <trkpt lat="47.3133" lon="-2.35754">
        <ele>92</ele>
        <time>2019-09-22T09:41:37Z</time>
      </trkpt>
      <trkpt lat="47.31331" lon="-2.35745">
        <ele>91</ele>
        <time>2019-09-22T09:41:38Z</time>
      </trkpt>
      <trkpt lat="47.31331" lon="-2.35736">
        <ele>91</ele>
        <time>2019-09-22T09:41:39Z</time>
      </trkpt>
      <trkpt lat="47.31332" lon="-2.35727">
        <ele>91</ele>
        <time>2019-09-22T09:41:40Z</time>
      </trkpt>
      <trkpt lat="47.31332" lon="-2.35718">
        <ele>91</ele>
        <time>2019-09-22T09:41:41Z</time>
      </trkpt>
      <trkpt lat="47.31332" lon="-2.35709">
        <ele>91</ele>
        <time>2019-09-22T09:41:42Z</time>
      </trkpt>
      <trkpt lat="47.31332" lon="-2.357">
        <ele>91</ele>
        <time>2019-09-22T09:41:43Z</time>
      </trkpt>
      <trkpt lat="47.31332" lon="-2.35691">
        <ele>91</ele>
        <time>2019-09-22T09:41:44Z</time>
      </trkpt>
      <trkpt lat="47.31332" lon="-2.35682">
        <ele>90</ele>
        <time>2019-09-22T09:41:45Z</time>
      </trkpt>
      <trkpt lat="47.31332" lon="-2.35674">
        <ele>91</ele>
        <time>2019-09-22T09:41:46Z</time>
      </trkpt>
      <trkpt lat="47.31331" lon="-2.35665">
        <ele>90</ele>
        <time>2019-09-22T09:41:47Z</time>
      </trkpt>
      <trkpt lat="47.31331" lon="-2.35657">
        <ele>90</ele>
        <time>2019-09-22T09:41:48Z</time>
      </trkpt>
      <trkpt lat="47.31332" lon="-2.35649">
        <ele>90</ele>
        <time>2019-09-22T09:41:49Z</time>
      </trkpt>
      <trkpt lat="47.3133" lon="-2.35631">
        <ele>89</ele>
        <time>2019-09-22T09:41:51Z</time>
      </trkpt>
      <trkpt lat="47.31329" lon="-2.35622">
        <ele>90</ele>
        <time>2019-09-22T09:41:52Z</time>
      </trkpt>
      <trkpt lat="47.31328" lon="-2.35595">
        <ele>90</ele>
        <time>2019-09-22T09:41:55Z</time>
      </trkpt>
      <trkpt lat="47.31328" lon="-2.35585">
        <ele>90</ele>
        <time>2019-09-22T09:41:56Z</time>
      </trkpt>
      <trkpt lat="47.31327" lon="-2.35578">
        <ele>89</ele>
        <time>2019-09-22T09:41:57Z</time>
      </trkpt>
      <trkpt lat="47.31327" lon="-2.35572">
        <ele>89</ele>
        <time>2019-09-22T09:41:58Z</time>
      </trkpt>
      <trkpt lat="47.31328" lon="-2.3556">
        <ele>89</ele>
        <time>2019-09-22T09:42:00Z</time>
      </trkpt>
      <trkpt lat="47.31328" lon="-2.35555">
        <ele>89</ele>
        <time>2019-09-22T09:42:01Z</time>
      </trkpt>
      <trkpt lat="47.31329" lon="-2.35549">
        <ele>89</ele>
        <time>2019-09-22T09:42:02Z</time>
      </trkpt>
      <trkpt lat="47.3133" lon="-2.35543">
        <ele>89</ele>
        <time>2019-09-22T09:42:03Z</time>
      </trkpt>
      <trkpt lat="47.31331" lon="-2.35537">
        <ele>89</ele>
        <time>2019-09-22T09:42:04Z</time>
      </trkpt>
      <trkpt lat="47.31333" lon="-2.35514">
        <ele>89</ele>
        <time>2019-09-22T09:42:08Z</time>
      </trkpt>
      <trkpt lat="47.31333" lon="-2.35508">
        <ele>89</ele>
        <time>2019-09-22T09:42:09Z</time>
      </trkpt>
      <trkpt lat="47.31334" lon="-2.35487">
        <ele>90</ele>
        <time>2019-09-22T09:42:12Z</time>
      </trkpt>
      <trkpt lat="47.31334" lon="-2.35479">
        <ele>90</ele>
        <time>2019-09-22T09:42:13Z</time>
      </trkpt>
      <trkpt lat="47.31334" lon="-2.35463">
        <ele>90</ele>
        <time>2019-09-22T09:42:15Z</time>
      </trkpt>
      <trkpt lat="47.31334" lon="-2.35455">
        <ele>90</ele>
        <time>2019-09-22T09:42:16Z</time>
      </trkpt>
      <trkpt lat="47.31334" lon="-2.35447">
        <ele>90</ele>
        <time>2019-09-22T09:42:17Z</time>
      </trkpt>
      <trkpt lat="47.31334" lon="-2.35414">
        <ele>90</ele>
        <time>2019-09-22T09:42:21Z</time>
      </trkpt>
      <trkpt lat="47.31333" lon="-2.35379">
        <ele>90</ele>
        <time>2019-09-22T09:42:25Z</time>
      </trkpt>
      <trkpt lat="47.31333" lon="-2.35371">
        <ele>90</ele>
        <time>2019-09-22T09:42:26Z</time>
      </trkpt>
      <trkpt lat="47.31334" lon="-2.35363">
        <ele>90</ele>
        <time>2019-09-22T09:42:27Z</time>
      </trkpt>
      <trkpt lat="47.31334" lon="-2.35354">
        <ele>89</ele>
        <time>2019-09-22T09:42:28Z</time>
      </trkpt>
      <trkpt lat="47.31337" lon="-2.35315">
        <ele>90</ele>
        <time>2019-09-22T09:42:32Z</time>
      </trkpt>
      <trkpt lat="47.31339" lon="-2.35304">
        <ele>89</ele>
        <time>2019-09-22T09:42:33Z</time>
      </trkpt>
      <trkpt lat="47.3134" lon="-2.35293">
        <ele>89</ele>
        <time>2019-09-22T09:42:34Z</time>
      </trkpt>
      <trkpt lat="47.3134" lon="-2.35282">
        <ele>89</ele>
        <time>2019-09-22T09:42:35Z</time>
      </trkpt>
      <trkpt lat="47.31341" lon="-2.35271">
        <ele>89</ele>
        <time>2019-09-22T09:42:36Z</time>
      </trkpt>
      <trkpt lat="47.31341" lon="-2.3526">
        <ele>88</ele>
        <time>2019-09-22T09:42:37Z</time>
      </trkpt>
      <trkpt lat="47.31342" lon="-2.3525">
        <ele>88</ele>
        <time>2019-09-22T09:42:38Z</time>
      </trkpt>
      <trkpt lat="47.31342" lon="-2.3524">
        <ele>88</ele>
        <time>2019-09-22T09:42:39Z</time>
      </trkpt>
      <trkpt lat="47.31341" lon="-2.35229">
        <ele>88</ele>
        <time>2019-09-22T09:42:40Z</time>
      </trkpt>
      <trkpt lat="47.31342" lon="-2.35209">
        <ele>88</ele>
        <time>2019-09-22T09:42:42Z</time>
      </trkpt>
      <trkpt lat="47.31342" lon="-2.35199">
        <ele>88</ele>
        <time>2019-09-22T09:42:44Z</time>
      </trkpt>
      <trkpt lat="47.31343" lon="-2.35187">
        <ele>88</ele>
        <time>2019-09-22T09:42:45Z</time>
      </trkpt>
      <trkpt lat="47.31343" lon="-2.35176">
        <ele>87</ele>
        <time>2019-09-22T09:42:46Z</time>
      </trkpt>
      <trkpt lat="47.31343" lon="-2.35166">
        <ele>87</ele>
        <time>2019-09-22T09:42:47Z</time>
      </trkpt>
      <trkpt lat="47.31344" lon="-2.35156">
        <ele>87</ele>
        <time>2019-09-22T09:42:48Z</time>
      </trkpt>
      <trkpt lat="47.31345" lon="-2.35145">
        <ele>87</ele>
        <time>2019-09-22T09:42:49Z</time>
      </trkpt>
      <trkpt lat="47.31345" lon="-2.35136">
        <ele>87</ele>
        <time>2019-09-22T09:42:50Z</time>
      </trkpt>
      <trkpt lat="47.31346" lon="-2.35126">
        <ele>87</ele>
        <time>2019-09-22T09:42:51Z</time>
      </trkpt>
      <trkpt lat="47.31346" lon="-2.35116">
        <ele>87</ele>
        <time>2019-09-22T09:42:52Z</time>
      </trkpt>
      <trkpt lat="47.31346" lon="-2.35106">
        <ele>87</ele>
        <time>2019-09-22T09:42:53Z</time>
      </trkpt>
      <trkpt lat="47.31346" lon="-2.35097">
        <ele>87</ele>
        <time>2019-09-22T09:42:54Z</time>
      </trkpt>
      <trkpt lat="47.31347" lon="-2.35079">
        <ele>87</ele>
        <time>2019-09-22T09:42:56Z</time>
      </trkpt>
      <trkpt lat="47.31347" lon="-2.35069">
        <ele>86</ele>
        <time>2019-09-22T09:42:57Z</time>
      </trkpt>
      <trkpt lat="47.31347" lon="-2.3505">
        <ele>86</ele>
        <time>2019-09-22T09:42:58Z</time>
      </trkpt>
      <trkpt lat="47.31347" lon="-2.35042">
        <ele>86</ele>
        <time>2019-09-22T09:42:59Z</time>
      </trkpt>
      <trkpt lat="47.31347" lon="-2.35034">
        <ele>86</ele>
        <time>2019-09-22T09:43:00Z</time>
      </trkpt>
      <trkpt lat="47.31345" lon="-2.35018">
        <ele>86</ele>
        <time>2019-09-22T09:43:02Z</time>
      </trkpt>
      <trkpt lat="47.31345" lon="-2.35011">
        <ele>86</ele>
        <time>2019-09-22T09:43:03Z</time>
      </trkpt>
      <trkpt lat="47.31344" lon="-2.35005">
        <ele>86</ele>
        <time>2019-09-22T09:43:04Z</time>
      </trkpt>
      <trkpt lat="47.31342" lon="-2.34993">
        <ele>86</ele>
        <time>2019-09-22T09:43:06Z</time>
      </trkpt>
      <trkpt lat="47.31341" lon="-2.34987">
        <ele>86</ele>
        <time>2019-09-22T09:43:07Z</time>
      </trkpt>
      <trkpt lat="47.31338" lon="-2.34975">
        <ele>85</ele>
        <time>2019-09-22T09:43:09Z</time>
      </trkpt>
      <trkpt lat="47.31336" lon="-2.34969">
        <ele>85</ele>
        <time>2019-09-22T09:43:10Z</time>
      </trkpt>
      <trkpt lat="47.31334" lon="-2.34963">
        <ele>85</ele>
        <time>2019-09-22T09:43:11Z</time>
      </trkpt>
      <trkpt lat="47.31332" lon="-2.34956">
        <ele>85</ele>
        <time>2019-09-22T09:43:12Z</time>
      </trkpt>
      <trkpt lat="47.31328" lon="-2.34942">
        <ele>85</ele>
        <time>2019-09-22T09:43:14Z</time>
      </trkpt>
      <trkpt lat="47.31325" lon="-2.34934">
        <ele>85</ele>
        <time>2019-09-22T09:43:15Z</time>
      </trkpt>
      <trkpt lat="47.31323" lon="-2.34927">
        <ele>85</ele>
        <time>2019-09-22T09:43:16Z</time>
      </trkpt>
      <trkpt lat="47.31321" lon="-2.3492">
        <ele>85</ele>
        <time>2019-09-22T09:43:17Z</time>
      </trkpt>
      <trkpt lat="47.31319" lon="-2.34912">
        <ele>85</ele>
        <time>2019-09-22T09:43:18Z</time>
      </trkpt>
      <trkpt lat="47.31317" lon="-2.34904">
        <ele>85</ele>
        <time>2019-09-22T09:43:19Z</time>
      </trkpt>
      <trkpt lat="47.31316" lon="-2.34897">
        <ele>84</ele>
        <time>2019-09-22T09:43:20Z</time>
      </trkpt>
      <trkpt lat="47.31313" lon="-2.34889">
        <ele>85</ele>
        <time>2019-09-22T09:43:21Z</time>
      </trkpt>
      <trkpt lat="47.31311" lon="-2.34881">
        <ele>85</ele>
        <time>2019-09-22T09:43:22Z</time>
      </trkpt>
      <trkpt lat="47.31309" lon="-2.34873">
        <ele>85</ele>
        <time>2019-09-22T09:43:23Z</time>
      </trkpt>
      <trkpt lat="47.31306" lon="-2.34865">
        <ele>85</ele>
        <time>2019-09-22T09:43:24Z</time>
      </trkpt>
      <trkpt lat="47.31304" lon="-2.34856">
        <ele>85</ele>
        <time>2019-09-22T09:43:25Z</time>
      </trkpt>
      <trkpt lat="47.31302" lon="-2.34847">
        <ele>85</ele>
        <time>2019-09-22T09:43:26Z</time>
      </trkpt>
      <trkpt lat="47.313" lon="-2.34838">
        <ele>85</ele>
        <time>2019-09-22T09:43:27Z</time>
      </trkpt>
      <trkpt lat="47.31298" lon="-2.34829">
        <ele>84</ele>
        <time>2019-09-22T09:43:28Z</time>
      </trkpt>
      <trkpt lat="47.31296" lon="-2.3482">
        <ele>84</ele>
        <time>2019-09-22T09:43:29Z</time>
      </trkpt>
      <trkpt lat="47.31295" lon="-2.34812">
        <ele>84</ele>
        <time>2019-09-22T09:43:30Z</time>
      </trkpt>
      <trkpt lat="47.31293" lon="-2.34804">
        <ele>85</ele>
        <time>2019-09-22T09:43:31Z</time>
      </trkpt>
      <trkpt lat="47.31292" lon="-2.34796">
        <ele>85</ele>
        <time>2019-09-22T09:43:32Z</time>
      </trkpt>
      <trkpt lat="47.3129" lon="-2.34787">
        <ele>85</ele>
        <time>2019-09-22T09:43:33Z</time>
      </trkpt>
      <trkpt lat="47.31288" lon="-2.3478">
        <ele>85</ele>
        <time>2019-09-22T09:43:34Z</time>
      </trkpt>
      <trkpt lat="47.31286" lon="-2.34771">
        <ele>85</ele>
        <time>2019-09-22T09:43:35Z</time>
      </trkpt>
      <trkpt lat="47.31285" lon="-2.34763">
        <ele>84</ele>
        <time>2019-09-22T09:43:36Z</time>
      </trkpt>
      <trkpt lat="47.31284" lon="-2.34755">
        <ele>85</ele>
        <time>2019-09-22T09:43:37Z</time>
      </trkpt>
      <trkpt lat="47.31282" lon="-2.34739">
        <ele>85</ele>
        <time>2019-09-22T09:43:39Z</time>
      </trkpt>
      <trkpt lat="47.3128" lon="-2.34731">
        <ele>84</ele>
        <time>2019-09-22T09:43:40Z</time>
      </trkpt>
      <trkpt lat="47.31279" lon="-2.34724">
        <ele>84</ele>
        <time>2019-09-22T09:43:41Z</time>
      </trkpt>
      <trkpt lat="47.31278" lon="-2.34717">
        <ele>84</ele>
        <time>2019-09-22T09:43:42Z</time>
      </trkpt>
      <trkpt lat="47.31276" lon="-2.34712">
        <ele>84</ele>
        <time>2019-09-22T09:43:43Z</time>
      </trkpt>
      <trkpt lat="47.31276" lon="-2.34702">
        <ele>85</ele>
        <time>2019-09-22T09:43:45Z</time>
      </trkpt>
      <trkpt lat="47.31279" lon="-2.3469">
        <ele>85</ele>
        <time>2019-09-22T09:43:47Z</time>
      </trkpt>
      <trkpt lat="47.31281" lon="-2.34684">
        <ele>85</ele>
        <time>2019-09-22T09:43:48Z</time>
      </trkpt>
      <trkpt lat="47.31283" lon="-2.34678">
        <ele>85</ele>
        <time>2019-09-22T09:43:49Z</time>
      </trkpt>
      <trkpt lat="47.31287" lon="-2.34664">
        <ele>84</ele>
        <time>2019-09-22T09:43:51Z</time>
      </trkpt>
      <trkpt lat="47.31289" lon="-2.34656">
        <ele>84</ele>
        <time>2019-09-22T09:43:52Z</time>
      </trkpt>
      <trkpt lat="47.3129" lon="-2.34647">
        <ele>84</ele>
        <time>2019-09-22T09:43:53Z</time>
      </trkpt>
      <trkpt lat="47.31291" lon="-2.34637">
        <ele>84</ele>
        <time>2019-09-22T09:43:54Z</time>
      </trkpt>
      <trkpt lat="47.31289" lon="-2.34608">
        <ele>84</ele>
        <time>2019-09-22T09:43:57Z</time>
      </trkpt>
      <trkpt lat="47.31288" lon="-2.34596">
        <ele>84</ele>
        <time>2019-09-22T09:43:58Z</time>
      </trkpt>
      <trkpt lat="47.31287" lon="-2.34584">
        <ele>84</ele>
        <time>2019-09-22T09:43:59Z</time>
      </trkpt>
      <trkpt lat="47.31285" lon="-2.34571">
        <ele>84</ele>
        <time>2019-09-22T09:44:00Z</time>
      </trkpt>
      <trkpt lat="47.31283" lon="-2.34559">
        <ele>84</ele>
        <time>2019-09-22T09:44:01Z</time>
      </trkpt>
      <trkpt lat="47.31281" lon="-2.34546">
        <ele>84</ele>
        <time>2019-09-22T09:44:02Z</time>
      </trkpt>
      <trkpt lat="47.3128" lon="-2.34533">
        <ele>83</ele>
        <time>2019-09-22T09:44:03Z</time>
      </trkpt>
      <trkpt lat="47.31279" lon="-2.3452">
        <ele>83</ele>
        <time>2019-09-22T09:44:04Z</time>
      </trkpt>
      <trkpt lat="47.31277" lon="-2.34508">
        <ele>82</ele>
        <time>2019-09-22T09:44:05Z</time>
      </trkpt>
      <trkpt lat="47.31276" lon="-2.34495">
        <ele>81</ele>
        <time>2019-09-22T09:44:06Z</time>
      </trkpt>
      <trkpt lat="47.31275" lon="-2.34483">
        <ele>81</ele>
        <time>2019-09-22T09:44:07Z</time>
      </trkpt>
      <trkpt lat="47.31274" lon="-2.34469">
        <ele>81</ele>
        <time>2019-09-22T09:44:08Z</time>
      </trkpt>
      <trkpt lat="47.31269" lon="-2.34431">
        <ele>79</ele>
        <time>2019-09-22T09:44:11Z</time>
      </trkpt>
      <trkpt lat="47.31267" lon="-2.34418">
        <ele>79</ele>
        <time>2019-09-22T09:44:12Z</time>
      </trkpt>
      <trkpt lat="47.31265" lon="-2.34406">
        <ele>78</ele>
        <time>2019-09-22T09:44:13Z</time>
      </trkpt>
      <trkpt lat="47.31264" lon="-2.34393">
        <ele>78</ele>
        <time>2019-09-22T09:44:14Z</time>
      </trkpt>
      <trkpt lat="47.31252" lon="-2.34359">
        <ele>78</ele>
        <time>2019-09-22T09:44:17Z</time>
      </trkpt>
      <trkpt lat="47.3123" lon="-2.34351">
        <ele>78</ele>
        <time>2019-09-22T09:44:20Z</time>
      </trkpt>
      <trkpt lat="47.31222" lon="-2.34349">
        <ele>78</ele>
        <time>2019-09-22T09:44:21Z</time>
      </trkpt>
      <trkpt lat="47.31209" lon="-2.34343">
        <ele>77</ele>
        <time>2019-09-22T09:44:23Z</time>
      </trkpt>
      <trkpt lat="47.31202" lon="-2.34338">
        <ele>77</ele>
        <time>2019-09-22T09:44:24Z</time>
      </trkpt>
      <trkpt lat="47.31195" lon="-2.34332">
        <ele>77</ele>
        <time>2019-09-22T09:44:25Z</time>
      </trkpt>
      <trkpt lat="47.31185" lon="-2.34316">
        <ele>76</ele>
        <time>2019-09-22T09:44:27Z</time>
      </trkpt>
      <trkpt lat="47.31181" lon="-2.34307">
        <ele>77</ele>
        <time>2019-09-22T09:44:28Z</time>
      </trkpt>
      <trkpt lat="47.31177" lon="-2.34297">
        <ele>76</ele>
        <time>2019-09-22T09:44:29Z</time>
      </trkpt>
      <trkpt lat="47.31173" lon="-2.34288">
        <ele>76</ele>
        <time>2019-09-22T09:44:30Z</time>
      </trkpt>
      <trkpt lat="47.31165" lon="-2.3427">
        <ele>75</ele>
        <time>2019-09-22T09:44:32Z</time>
      </trkpt>
      <trkpt lat="47.31161" lon="-2.34262">
        <ele>76</ele>
        <time>2019-09-22T09:44:33Z</time>
      </trkpt>
      <trkpt lat="47.31157" lon="-2.34253">
        <ele>75</ele>
        <time>2019-09-22T09:44:34Z</time>
      </trkpt>
      <trkpt lat="47.31153" lon="-2.34244">
        <ele>75</ele>
        <time>2019-09-22T09:44:35Z</time>
      </trkpt>
      <trkpt lat="47.3115" lon="-2.34235">
        <ele>76</ele>
        <time>2019-09-22T09:44:36Z</time>
      </trkpt>
      <trkpt lat="47.31146" lon="-2.34227">
        <ele>76</ele>
        <time>2019-09-22T09:44:37Z</time>
      </trkpt>
      <trkpt lat="47.31143" lon="-2.3422">
        <ele>76</ele>
        <time>2019-09-22T09:44:38Z</time>
      </trkpt>
      <trkpt lat="47.31139" lon="-2.34212">
        <ele>76</ele>
        <time>2019-09-22T09:44:39Z</time>
      </trkpt>
      <trkpt lat="47.31136" lon="-2.34206">
        <ele>76</ele>
        <time>2019-09-22T09:44:40Z</time>
      </trkpt>
      <trkpt lat="47.31132" lon="-2.34198">
        <ele>76</ele>
        <time>2019-09-22T09:44:41Z</time>
      </trkpt>
      <trkpt lat="47.31129" lon="-2.34192">
        <ele>76</ele>
        <time>2019-09-22T09:44:42Z</time>
      </trkpt>
      <trkpt lat="47.31125" lon="-2.34185">
        <ele>77</ele>
        <time>2019-09-22T09:44:43Z</time>
      </trkpt>
      <trkpt lat="47.31121" lon="-2.34178">
        <ele>77</ele>
        <time>2019-09-22T09:44:44Z</time>
      </trkpt>
      <trkpt lat="47.31117" lon="-2.34171">
        <ele>77</ele>
        <time>2019-09-22T09:44:45Z</time>
      </trkpt>
      <trkpt lat="47.3111" lon="-2.34158">
        <ele>77</ele>
        <time>2019-09-22T09:44:47Z</time>
      </trkpt>
      <trkpt lat="47.31107" lon="-2.34151">
        <ele>77</ele>
        <time>2019-09-22T09:44:48Z</time>
      </trkpt>
      <trkpt lat="47.31104" lon="-2.34145">
        <ele>78</ele>
        <time>2019-09-22T09:44:49Z</time>
      </trkpt>
      <trkpt lat="47.31097" lon="-2.34132">
        <ele>78</ele>
        <time>2019-09-22T09:44:51Z</time>
      </trkpt>
      <trkpt lat="47.31093" lon="-2.34125">
        <ele>78</ele>
        <time>2019-09-22T09:44:52Z</time>
      </trkpt>
      <trkpt lat="47.3109" lon="-2.3412">
        <ele>79</ele>
        <time>2019-09-22T09:44:53Z</time>
      </trkpt>
      <trkpt lat="47.31083" lon="-2.34109">
        <ele>79</ele>
        <time>2019-09-22T09:44:55Z</time>
      </trkpt>
      <trkpt lat="47.31078" lon="-2.34095">
        <ele>79</ele>
        <time>2019-09-22T09:44:57Z</time>
      </trkpt>
      <trkpt lat="47.31076" lon="-2.34088">
        <ele>79</ele>
        <time>2019-09-22T09:44:58Z</time>
      </trkpt>
      <trkpt lat="47.31073" lon="-2.34081">
        <ele>80</ele>
        <time>2019-09-22T09:44:59Z</time>
      </trkpt>
      <trkpt lat="47.31071" lon="-2.34075">
        <ele>80</ele>
        <time>2019-09-22T09:45:00Z</time>
      </trkpt>
      <trkpt lat="47.31069" lon="-2.34067">
        <ele>80</ele>
        <time>2019-09-22T09:45:01Z</time>
      </trkpt>
      <trkpt lat="47.31068" lon="-2.34059">
        <ele>80</ele>
        <time>2019-09-22T09:45:02Z</time>
      </trkpt>
      <trkpt lat="47.31066" lon="-2.34052">
        <ele>80</ele>
        <time>2019-09-22T09:45:03Z</time>
      </trkpt>
      <trkpt lat="47.31063" lon="-2.34029">
        <ele>81</ele>
        <time>2019-09-22T09:45:06Z</time>
      </trkpt>
      <trkpt lat="47.31063" lon="-2.34021">
        <ele>81</ele>
        <time>2019-09-22T09:45:07Z</time>
      </trkpt>
      <trkpt lat="47.31062" lon="-2.34013">
        <ele>82</ele>
        <time>2019-09-22T09:45:08Z</time>
      </trkpt>
      <trkpt lat="47.31062" lon="-2.34005">
        <ele>81</ele>
        <time>2019-09-22T09:45:09Z</time>
      </trkpt>
      <trkpt lat="47.31062" lon="-2.33998">
        <ele>82</ele>
        <time>2019-09-22T09:45:10Z</time>
      </trkpt>
      <trkpt lat="47.31062" lon="-2.3399">
        <ele>82</ele>
        <time>2019-09-22T09:45:11Z</time>
      </trkpt>
      <trkpt lat="47.31061" lon="-2.33975">
        <ele>82</ele>
        <time>2019-09-22T09:45:13Z</time>
      </trkpt>
      <trkpt lat="47.31061" lon="-2.33967">
        <ele>82</ele>
        <time>2019-09-22T09:45:14Z</time>
      </trkpt>
      <trkpt lat="47.3106" lon="-2.3396">
        <ele>82</ele>
        <time>2019-09-22T09:45:15Z</time>
      </trkpt>
      <trkpt lat="47.31055" lon="-2.33949">
        <ele>83</ele>
        <time>2019-09-22T09:45:17Z</time>
      </trkpt>
      <trkpt lat="47.31046" lon="-2.33948">
        <ele>83</ele>
        <time>2019-09-22T09:45:19Z</time>
      </trkpt>
      <trkpt lat="47.31042" lon="-2.3395">
        <ele>83</ele>
        <time>2019-09-22T09:45:20Z</time>
      </trkpt>
      <trkpt lat="47.31037" lon="-2.33951">
        <ele>83</ele>
        <time>2019-09-22T09:45:21Z</time>
      </trkpt>
      <trkpt lat="47.31032" lon="-2.33952">
        <ele>83</ele>
        <time>2019-09-22T09:45:22Z</time>
      </trkpt>
      <trkpt lat="47.31027" lon="-2.33952">
        <ele>83</ele>
        <time>2019-09-22T09:45:23Z</time>
      </trkpt>
      <trkpt lat="47.31022" lon="-2.33953">
        <ele>83</ele>
        <time>2019-09-22T09:45:24Z</time>
      </trkpt>
      <trkpt lat="47.31017" lon="-2.33955">
        <ele>83</ele>
        <time>2019-09-22T09:45:25Z</time>
      </trkpt>
      <trkpt lat="47.31005" lon="-2.33957">
        <ele>83</ele>
        <time>2019-09-22T09:45:27Z</time>
      </trkpt>
      <trkpt lat="47.30999" lon="-2.33957">
        <ele>84</ele>
        <time>2019-09-22T09:45:28Z</time>
      </trkpt>
      <trkpt lat="47.30987" lon="-2.33957">
        <ele>83</ele>
        <time>2019-09-22T09:45:31Z</time>
      </trkpt>
      <trkpt lat="47.3098" lon="-2.33957">
        <ele>84</ele>
        <time>2019-09-22T09:45:32Z</time>
      </trkpt>
      <trkpt lat="47.30974" lon="-2.33957">
        <ele>83</ele>
        <time>2019-09-22T09:45:33Z</time>
      </trkpt>
      <trkpt lat="47.30967" lon="-2.33956">
        <ele>84</ele>
        <time>2019-09-22T09:45:34Z</time>
      </trkpt>
      <trkpt lat="47.30961" lon="-2.33955">
        <ele>84</ele>
        <time>2019-09-22T09:45:35Z</time>
      </trkpt>
      <trkpt lat="47.30955" lon="-2.33955">
        <ele>84</ele>
        <time>2019-09-22T09:45:36Z</time>
      </trkpt>
      <trkpt lat="47.3095" lon="-2.33953">
        <ele>84</ele>
        <time>2019-09-22T09:45:37Z</time>
      </trkpt>
      <trkpt lat="47.30939" lon="-2.3395">
        <ele>84</ele>
        <time>2019-09-22T09:45:38Z</time>
      </trkpt>
      <trkpt lat="47.30935" lon="-2.33949">
        <ele>83</ele>
        <time>2019-09-22T09:45:39Z</time>
      </trkpt>
      <trkpt lat="47.3093" lon="-2.33948">
        <ele>83</ele>
        <time>2019-09-22T09:45:40Z</time>
      </trkpt>
      <trkpt lat="47.30925" lon="-2.33947">
        <ele>82</ele>
        <time>2019-09-22T09:45:41Z</time>
      </trkpt>
      <trkpt lat="47.3092" lon="-2.33947">
        <ele>83</ele>
        <time>2019-09-22T09:45:42Z</time>
      </trkpt>
      <trkpt lat="47.30911" lon="-2.33946">
        <ele>83</ele>
        <time>2019-09-22T09:45:44Z</time>
      </trkpt>
      <trkpt lat="47.30906" lon="-2.33946">
        <ele>83</ele>
        <time>2019-09-22T09:45:45Z</time>
      </trkpt>
      <trkpt lat="47.30902" lon="-2.33946">
        <ele>83</ele>
        <time>2019-09-22T09:45:46Z</time>
      </trkpt>
      <trkpt lat="47.30897" lon="-2.33947">
        <ele>83</ele>
        <time>2019-09-22T09:45:47Z</time>
      </trkpt>
      <trkpt lat="47.30893" lon="-2.33948">
        <ele>83</ele>
        <time>2019-09-22T09:45:48Z</time>
      </trkpt>
      <trkpt lat="47.30888" lon="-2.33949">
        <ele>83</ele>
        <time>2019-09-22T09:45:49Z</time>
      </trkpt>
      <trkpt lat="47.30883" lon="-2.33949">
        <ele>82</ele>
        <time>2019-09-22T09:45:50Z</time>
      </trkpt>
      <trkpt lat="47.30872" lon="-2.3395">
        <ele>82</ele>
        <time>2019-09-22T09:45:52Z</time>
      </trkpt>
      <trkpt lat="47.30867" lon="-2.33951">
        <ele>83</ele>
        <time>2019-09-22T09:45:53Z</time>
      </trkpt>
      <trkpt lat="47.30861" lon="-2.33953">
        <ele>83</ele>
        <time>2019-09-22T09:45:54Z</time>
      </trkpt>
      <trkpt lat="47.30855" lon="-2.33954">
        <ele>82</ele>
        <time>2019-09-22T09:45:55Z</time>
      </trkpt>
      <trkpt lat="47.3085" lon="-2.33955">
        <ele>83</ele>
        <time>2019-09-22T09:45:56Z</time>
      </trkpt>
      <trkpt lat="47.30845" lon="-2.33956">
        <ele>83</ele>
        <time>2019-09-22T09:45:57Z</time>
      </trkpt>
      <trkpt lat="47.3084" lon="-2.33956">
        <ele>83</ele>
        <time>2019-09-22T09:45:58Z</time>
      </trkpt>
      <trkpt lat="47.30825" lon="-2.33959">
        <ele>82</ele>
        <time>2019-09-22T09:46:01Z</time>
      </trkpt>
      <trkpt lat="47.30821" lon="-2.3396">
        <ele>83</ele>
        <time>2019-09-22T09:46:02Z</time>
      </trkpt>
      <trkpt lat="47.30816" lon="-2.33962">
        <ele>83</ele>
        <time>2019-09-22T09:46:03Z</time>
      </trkpt>
      <trkpt lat="47.30802" lon="-2.33967">
        <ele>83</ele>
        <time>2019-09-22T09:46:06Z</time>
      </trkpt>
      <trkpt lat="47.30797" lon="-2.33968">
        <ele>83</ele>
        <time>2019-09-22T09:46:07Z</time>
      </trkpt>
      <trkpt lat="47.30793" lon="-2.3397">
        <ele>83</ele>
        <time>2019-09-22T09:46:08Z</time>
      </trkpt>
      <trkpt lat="47.30788" lon="-2.33971">
        <ele>83</ele>
        <time>2019-09-22T09:46:09Z</time>
      </trkpt>
      <trkpt lat="47.30783" lon="-2.33972">
        <ele>83</ele>
        <time>2019-09-22T09:46:10Z</time>
      </trkpt>
      <trkpt lat="47.30778" lon="-2.33973">
        <ele>83</ele>
        <time>2019-09-22T09:46:11Z</time>
      </trkpt>
      <trkpt lat="47.30769" lon="-2.33975">
        <ele>84</ele>
        <time>2019-09-22T09:46:13Z</time>
      </trkpt>
      <trkpt lat="47.30763" lon="-2.33976">
        <ele>83</ele>
        <time>2019-09-22T09:46:14Z</time>
      </trkpt>
      <trkpt lat="47.30748" lon="-2.33979">
        <ele>83</ele>
        <time>2019-09-22T09:46:17Z</time>
      </trkpt>
      <trkpt lat="47.30743" lon="-2.33981">
        <ele>83</ele>
        <time>2019-09-22T09:46:18Z</time>
      </trkpt>
      <trkpt lat="47.30737" lon="-2.33983">
        <ele>82</ele>
        <time>2019-09-22T09:46:19Z</time>
      </trkpt>
      <trkpt lat="47.30732" lon="-2.33985">
        <ele>82</ele>
        <time>2019-09-22T09:46:20Z</time>
      </trkpt>
      <trkpt lat="47.30728" lon="-2.33986">
        <ele>82</ele>
        <time>2019-09-22T09:46:21Z</time>
      </trkpt>
      <trkpt lat="47.30723" lon="-2.33998">
        <ele>81</ele>
        <time>2019-09-22T09:46:23Z</time>
      </trkpt>
      <trkpt lat="47.30722" lon="-2.34005">
        <ele>82</ele>
        <time>2019-09-22T09:46:24Z</time>
      </trkpt>
      <trkpt lat="47.30721" lon="-2.34011">
        <ele>82</ele>
        <time>2019-09-22T09:46:25Z</time>
      </trkpt>
      <trkpt lat="47.30711" lon="-2.34019">
        <ele>82</ele>
        <time>2019-09-22T09:46:28Z</time>
      </trkpt>
      <trkpt lat="47.30707" lon="-2.3402">
        <ele>82</ele>
        <time>2019-09-22T09:46:29Z</time>
      </trkpt>
      <trkpt lat="47.30702" lon="-2.34021">
        <ele>82</ele>
        <time>2019-09-22T09:46:30Z</time>
      </trkpt>
      <trkpt lat="47.30698" lon="-2.34021">
        <ele>82</ele>
        <time>2019-09-22T09:46:31Z</time>
      </trkpt>
      <trkpt lat="47.30684" lon="-2.34024">
        <ele>82</ele>
        <time>2019-09-22T09:46:34Z</time>
      </trkpt>
      <trkpt lat="47.30672" lon="-2.34033">
        <ele>82</ele>
        <time>2019-09-22T09:46:37Z</time>
      </trkpt>
      <trkpt lat="47.30662" lon="-2.34047">
        <ele>82</ele>
        <time>2019-09-22T09:46:40Z</time>
      </trkpt>
      <trkpt lat="47.30654" lon="-2.34052">
        <ele>82</ele>
        <time>2019-09-22T09:46:42Z</time>
      </trkpt>
      <trkpt lat="47.30646" lon="-2.34055">
        <ele>82</ele>
        <time>2019-09-22T09:46:44Z</time>
      </trkpt>
      <trkpt lat="47.30643" lon="-2.34057">
        <ele>82</ele>
        <time>2019-09-22T09:46:45Z</time>
      </trkpt>
      <trkpt lat="47.30636" lon="-2.34062">
        <ele>82</ele>
        <time>2019-09-22T09:46:47Z</time>
      </trkpt>
      <trkpt lat="47.30633" lon="-2.34064">
        <ele>82</ele>
        <time>2019-09-22T09:46:48Z</time>
      </trkpt>
      <trkpt lat="47.30629" lon="-2.34067">
        <ele>82</ele>
        <time>2019-09-22T09:46:49Z</time>
      </trkpt>
      <trkpt lat="47.30626" lon="-2.34069">
        <ele>82</ele>
        <time>2019-09-22T09:46:50Z</time>
      </trkpt>
      <trkpt lat="47.30623" lon="-2.34072">
        <ele>82</ele>
        <time>2019-09-22T09:46:51Z</time>
      </trkpt>
      <trkpt lat="47.3062" lon="-2.34074">
        <ele>82</ele>
        <time>2019-09-22T09:46:52Z</time>
      </trkpt>
      <trkpt lat="47.30617" lon="-2.34076">
        <ele>82</ele>
        <time>2019-09-22T09:46:54Z</time>
      </trkpt>
      <trkpt lat="47.30613" lon="-2.34079">
        <ele>83</ele>
        <time>2019-09-22T09:46:55Z</time>
      </trkpt>
      <trkpt lat="47.3061" lon="-2.34082">
        <ele>83</ele>
        <time>2019-09-22T09:46:56Z</time>
      </trkpt>
      <trkpt lat="47.30602" lon="-2.34092">
        <ele>83</ele>
        <time>2019-09-22T09:46:59Z</time>
      </trkpt>
      <trkpt lat="47.30596" lon="-2.34105">
        <ele>83</ele>
        <time>2019-09-22T09:47:02Z</time>
      </trkpt>
      <trkpt lat="47.30593" lon="-2.34114">
        <ele>83</ele>
        <time>2019-09-22T09:47:04Z</time>
      </trkpt>
      <trkpt lat="47.30591" lon="-2.34118">
        <ele>84</ele>
        <time>2019-09-22T09:47:05Z</time>
      </trkpt>
      <trkpt lat="47.3059" lon="-2.34122">
        <ele>84</ele>
        <time>2019-09-22T09:47:06Z</time>
      </trkpt>
      <trkpt lat="47.3058" lon="-2.34137">
        <ele>84</ele>
        <time>2019-09-22T09:47:09Z</time>
      </trkpt>
      <trkpt lat="47.30571" lon="-2.34145">
        <ele>83</ele>
        <time>2019-09-22T09:47:12Z</time>
      </trkpt>
      <trkpt lat="47.30568" lon="-2.34148">
        <ele>83</ele>
        <time>2019-09-22T09:47:13Z</time>
      </trkpt>
      <trkpt lat="47.30565" lon="-2.34151">
        <ele>83</ele>
        <time>2019-09-22T09:47:14Z</time>
      </trkpt>
      <trkpt lat="47.3056" lon="-2.34157">
        <ele>83</ele>
        <time>2019-09-22T09:47:16Z</time>
      </trkpt>
      <trkpt lat="47.30556" lon="-2.34165">
        <ele>84</ele>
        <time>2019-09-22T09:47:18Z</time>
      </trkpt>
      <trkpt lat="47.30548" lon="-2.34173">
        <ele>83</ele>
        <time>2019-09-22T09:47:21Z</time>
      </trkpt>
      <trkpt lat="47.30545" lon="-2.34178">
        <ele>84</ele>
        <time>2019-09-22T09:47:23Z</time>
      </trkpt>
      <trkpt lat="47.30543" lon="-2.34181">
        <ele>84</ele>
        <time>2019-09-22T09:47:24Z</time>
      </trkpt>
      <trkpt lat="47.30532" lon="-2.34187">
        <ele>85</ele>
        <time>2019-09-22T09:47:28Z</time>
      </trkpt>
      <trkpt lat="47.30524" lon="-2.34195">
        <ele>85</ele>
        <time>2019-09-22T09:47:31Z</time>
      </trkpt>
      <trkpt lat="47.30522" lon="-2.34199">
        <ele>85</ele>
        <time>2019-09-22T09:47:32Z</time>
      </trkpt>
      <trkpt lat="47.30517" lon="-2.34208">
        <ele>86</ele>
        <time>2019-09-22T09:47:34Z</time>
      </trkpt>
      <trkpt lat="47.30515" lon="-2.34214">
        <ele>86</ele>
        <time>2019-09-22T09:47:35Z</time>
      </trkpt>
      <trkpt lat="47.30511" lon="-2.34229">
        <ele>87</ele>
        <time>2019-09-22T09:47:38Z</time>
      </trkpt>
      <trkpt lat="47.30505" lon="-2.34243">
        <ele>88</ele>
        <time>2019-09-22T09:47:41Z</time>
      </trkpt>
      <trkpt lat="47.30499" lon="-2.34253">
        <ele>88</ele>
        <time>2019-09-22T09:47:43Z</time>
      </trkpt>
      <trkpt lat="47.30499" lon="-2.34266">
        <ele>89</ele>
        <time>2019-09-22T09:47:46Z</time>
      </trkpt>
      <trkpt lat="47.305" lon="-2.34275">
        <ele>89</ele>
        <time>2019-09-22T09:47:48Z</time>
      </trkpt>
      <trkpt lat="47.30504" lon="-2.34285">
        <ele>90</ele>
        <time>2019-09-22T09:47:50Z</time>
      </trkpt>
      <trkpt lat="47.30506" lon="-2.3429">
        <ele>90</ele>
        <time>2019-09-22T09:47:51Z</time>
      </trkpt>
      <trkpt lat="47.30513" lon="-2.34305">
        <ele>91</ele>
        <time>2019-09-22T09:47:54Z</time>
      </trkpt>
      <trkpt lat="47.30516" lon="-2.34319">
        <ele>93</ele>
        <time>2019-09-22T09:47:56Z</time>
      </trkpt>
      <trkpt lat="47.30517" lon="-2.3433">
        <ele>94</ele>
        <time>2019-09-22T09:47:58Z</time>
      </trkpt>
      <trkpt lat="47.30517" lon="-2.34343">
        <ele>94</ele>
        <time>2019-09-22T09:48:00Z</time>
      </trkpt>
      <trkpt lat="47.30516" lon="-2.3435">
        <ele>94</ele>
        <time>2019-09-22T09:48:01Z</time>
      </trkpt>
      <trkpt lat="47.30515" lon="-2.34361">
        <ele>94</ele>
        <time>2019-09-22T09:48:04Z</time>
      </trkpt>
      <trkpt lat="47.30514" lon="-2.34371">
        <ele>93</ele>
        <time>2019-09-22T09:48:06Z</time>
      </trkpt>
      <trkpt lat="47.30513" lon="-2.34382">
        <ele>94</ele>
        <time>2019-09-22T09:48:08Z</time>
      </trkpt>
      <trkpt lat="47.30507" lon="-2.34397">
        <ele>94</ele>
        <time>2019-09-22T09:48:10Z</time>
      </trkpt>
      <trkpt lat="47.30501" lon="-2.34413">
        <ele>94</ele>
        <time>2019-09-22T09:48:13Z</time>
      </trkpt>
      <trkpt lat="47.305" lon="-2.34422">
        <ele>94</ele>
        <time>2019-09-22T09:48:15Z</time>
      </trkpt>
      <trkpt lat="47.30501" lon="-2.34434">
        <ele>95</ele>
        <time>2019-09-22T09:48:17Z</time>
      </trkpt>
      <trkpt lat="47.30503" lon="-2.34445">
        <ele>95</ele>
        <time>2019-09-22T09:48:19Z</time>
      </trkpt>
      <trkpt lat="47.30505" lon="-2.34454">
        <ele>96</ele>
        <time>2019-09-22T09:48:21Z</time>
      </trkpt>
      <trkpt lat="47.30509" lon="-2.3446">
        <ele>97</ele>
        <time>2019-09-22T09:48:23Z</time>
      </trkpt>
      <trkpt lat="47.30521" lon="-2.34468">
        <ele>97</ele>
        <time>2019-09-22T09:48:26Z</time>
      </trkpt>
      <trkpt lat="47.30528" lon="-2.34472">
        <ele>97</ele>
        <time>2019-09-22T09:48:28Z</time>
      </trkpt>
      <trkpt lat="47.30533" lon="-2.34477">
        <ele>98</ele>
        <time>2019-09-22T09:48:30Z</time>
      </trkpt>
      <trkpt lat="47.30536" lon="-2.34479">
        <ele>97</ele>
        <time>2019-09-22T09:48:31Z</time>
      </trkpt>
      <trkpt lat="47.30541" lon="-2.34488">
        <ele>97</ele>
        <time>2019-09-22T09:48:33Z</time>
      </trkpt>
      <trkpt lat="47.30545" lon="-2.34497">
        <ele>98</ele>
        <time>2019-09-22T09:48:35Z</time>
      </trkpt>
      <trkpt lat="47.3055" lon="-2.34505">
        <ele>98</ele>
        <time>2019-09-22T09:48:37Z</time>
      </trkpt>
      <trkpt lat="47.3056" lon="-2.34519">
        <ele>98</ele>
        <time>2019-09-22T09:48:40Z</time>
      </trkpt>
      <trkpt lat="47.30561" lon="-2.34528">
        <ele>97</ele>
        <time>2019-09-22T09:48:41Z</time>
      </trkpt>
      <trkpt lat="47.30561" lon="-2.34537">
        <ele>96</ele>
        <time>2019-09-22T09:48:42Z</time>
      </trkpt>
      <trkpt lat="47.3056" lon="-2.34545">
        <ele>95</ele>
        <time>2019-09-22T09:48:43Z</time>
      </trkpt>
      <trkpt lat="47.30557" lon="-2.34553">
        <ele>93</ele>
        <time>2019-09-22T09:48:44Z</time>
      </trkpt>
      <trkpt lat="47.30554" lon="-2.34562">
        <ele>92</ele>
        <time>2019-09-22T09:48:45Z</time>
      </trkpt>
      <trkpt lat="47.30552" lon="-2.3457">
        <ele>92</ele>
        <time>2019-09-22T09:48:46Z</time>
      </trkpt>
      <trkpt lat="47.30547" lon="-2.34578">
        <ele>91</ele>
        <time>2019-09-22T09:48:47Z</time>
      </trkpt>
      <trkpt lat="47.30543" lon="-2.34584">
        <ele>91</ele>
        <time>2019-09-22T09:48:48Z</time>
      </trkpt>
      <trkpt lat="47.30538" lon="-2.34591">
        <ele>91</ele>
        <time>2019-09-22T09:48:49Z</time>
      </trkpt>
      <trkpt lat="47.30533" lon="-2.34598">
        <ele>90</ele>
        <time>2019-09-22T09:48:50Z</time>
      </trkpt>
      <trkpt lat="47.30528" lon="-2.34604">
        <ele>91</ele>
        <time>2019-09-22T09:48:51Z</time>
      </trkpt>
      <trkpt lat="47.30514" lon="-2.34622">
        <ele>91</ele>
        <time>2019-09-22T09:48:54Z</time>
      </trkpt>
      <trkpt lat="47.30511" lon="-2.34629">
        <ele>91</ele>
        <time>2019-09-22T09:48:55Z</time>
      </trkpt>
      <trkpt lat="47.30505" lon="-2.34642">
        <ele>91</ele>
        <time>2019-09-22T09:48:57Z</time>
      </trkpt>
      <trkpt lat="47.30501" lon="-2.34648">
        <ele>90</ele>
        <time>2019-09-22T09:48:58Z</time>
      </trkpt>
      <trkpt lat="47.30496" lon="-2.34654">
        <ele>90</ele>
        <time>2019-09-22T09:48:59Z</time>
      </trkpt>
      <trkpt lat="47.30491" lon="-2.34661">
        <ele>90</ele>
        <time>2019-09-22T09:49:00Z</time>
      </trkpt>
      <trkpt lat="47.30486" lon="-2.34666">
        <ele>89</ele>
        <time>2019-09-22T09:49:01Z</time>
      </trkpt>
      <trkpt lat="47.30482" lon="-2.34672">
        <ele>89</ele>
        <time>2019-09-22T09:49:02Z</time>
      </trkpt>
      <trkpt lat="47.30477" lon="-2.34678">
        <ele>89</ele>
        <time>2019-09-22T09:49:03Z</time>
      </trkpt>
      <trkpt lat="47.30472" lon="-2.34683">
        <ele>88</ele>
        <time>2019-09-22T09:49:04Z</time>
      </trkpt>
      <trkpt lat="47.30468" lon="-2.34688">
        <ele>88</ele>
        <time>2019-09-22T09:49:05Z</time>
      </trkpt>
      <trkpt lat="47.30457" lon="-2.34695">
        <ele>86</ele>
        <time>2019-09-22T09:49:07Z</time>
      </trkpt>
      <trkpt lat="47.30452" lon="-2.34698">
        <ele>86</ele>
        <time>2019-09-22T09:49:08Z</time>
      </trkpt>
      <trkpt lat="47.30447" lon="-2.34702">
        <ele>86</ele>
        <time>2019-09-22T09:49:09Z</time>
      </trkpt>
      <trkpt lat="47.30423" lon="-2.34725">
        <ele>87</ele>
        <time>2019-09-22T09:49:14Z</time>
      </trkpt>
      <trkpt lat="47.30418" lon="-2.34729">
        <ele>87</ele>
        <time>2019-09-22T09:49:15Z</time>
      </trkpt>
      <trkpt lat="47.30413" lon="-2.34733">
        <ele>87</ele>
        <time>2019-09-22T09:49:16Z</time>
      </trkpt>
      <trkpt lat="47.30408" lon="-2.34736">
        <ele>88</ele>
        <time>2019-09-22T09:49:17Z</time>
      </trkpt>
      <trkpt lat="47.30402" lon="-2.34739">
        <ele>88</ele>
        <time>2019-09-22T09:49:18Z</time>
      </trkpt>
      <trkpt lat="47.30397" lon="-2.34742">
        <ele>88</ele>
        <time>2019-09-22T09:49:19Z</time>
      </trkpt>
      <trkpt lat="47.30387" lon="-2.34748">
        <ele>88</ele>
        <time>2019-09-22T09:49:21Z</time>
      </trkpt>
      <trkpt lat="47.30382" lon="-2.34751">
        <ele>88</ele>
        <time>2019-09-22T09:49:22Z</time>
      </trkpt>
      <trkpt lat="47.30378" lon="-2.34755">
        <ele>88</ele>
        <time>2019-09-22T09:49:23Z</time>
      </trkpt>
      <trkpt lat="47.30369" lon="-2.34761">
        <ele>88</ele>
        <time>2019-09-22T09:49:25Z</time>
      </trkpt>
      <trkpt lat="47.30364" lon="-2.34765">
        <ele>88</ele>
        <time>2019-09-22T09:49:26Z</time>
      </trkpt>
      <trkpt lat="47.30359" lon="-2.34768">
        <ele>88</ele>
        <time>2019-09-22T09:49:27Z</time>
      </trkpt>
      <trkpt lat="47.30353" lon="-2.34773">
        <ele>88</ele>
        <time>2019-09-22T09:49:28Z</time>
      </trkpt>
      <trkpt lat="47.30348" lon="-2.34777">
        <ele>87</ele>
        <time>2019-09-22T09:49:29Z</time>
      </trkpt>
      <trkpt lat="47.30339" lon="-2.3479">
        <ele>87</ele>
        <time>2019-09-22T09:49:31Z</time>
      </trkpt>
      <trkpt lat="47.30334" lon="-2.34798">
        <ele>87</ele>
        <time>2019-09-22T09:49:32Z</time>
      </trkpt>
      <trkpt lat="47.3033" lon="-2.34806">
        <ele>86</ele>
        <time>2019-09-22T09:49:33Z</time>
      </trkpt>
      <trkpt lat="47.30325" lon="-2.34813">
        <ele>87</ele>
        <time>2019-09-22T09:49:34Z</time>
      </trkpt>
      <trkpt lat="47.3032" lon="-2.3482">
        <ele>87</ele>
        <time>2019-09-22T09:49:35Z</time>
      </trkpt>
      <trkpt lat="47.30315" lon="-2.34826">
        <ele>87</ele>
        <time>2019-09-22T09:49:36Z</time>
      </trkpt>
      <trkpt lat="47.30299" lon="-2.34846">
        <ele>87</ele>
        <time>2019-09-22T09:49:39Z</time>
      </trkpt>
      <trkpt lat="47.30293" lon="-2.34852">
        <ele>86</ele>
        <time>2019-09-22T09:49:40Z</time>
      </trkpt>
      <trkpt lat="47.30283" lon="-2.34859">
        <ele>86</ele>
        <time>2019-09-22T09:49:42Z</time>
      </trkpt>
      <trkpt lat="47.30277" lon="-2.34862">
        <ele>86</ele>
        <time>2019-09-22T09:49:43Z</time>
      </trkpt>
      <trkpt lat="47.30272" lon="-2.34865">
        <ele>86</ele>
        <time>2019-09-22T09:49:44Z</time>
      </trkpt>
      <trkpt lat="47.30267" lon="-2.34868">
        <ele>86</ele>
        <time>2019-09-22T09:49:45Z</time>
      </trkpt>
      <trkpt lat="47.30261" lon="-2.34872">
        <ele>86</ele>
        <time>2019-09-22T09:49:46Z</time>
      </trkpt>
      <trkpt lat="47.30256" lon="-2.34875">
        <ele>86</ele>
        <time>2019-09-22T09:49:47Z</time>
      </trkpt>
      <trkpt lat="47.30251" lon="-2.34878">
        <ele>86</ele>
        <time>2019-09-22T09:49:49Z</time>
      </trkpt>
      <trkpt lat="47.30246" lon="-2.34881">
        <ele>86</ele>
        <time>2019-09-22T09:49:50Z</time>
      </trkpt>
      <trkpt lat="47.30233" lon="-2.34891">
        <ele>86</ele>
        <time>2019-09-22T09:49:52Z</time>
      </trkpt>
      <trkpt lat="47.30226" lon="-2.34896">
        <ele>86</ele>
        <time>2019-09-22T09:49:53Z</time>
      </trkpt>
      <trkpt lat="47.30212" lon="-2.34913">
        <ele>85</ele>
        <time>2019-09-22T09:49:55Z</time>
      </trkpt>
      <trkpt lat="47.30211" lon="-2.34922">
        <ele>85</ele>
        <time>2019-09-22T09:49:56Z</time>
      </trkpt>
      <trkpt lat="47.3021" lon="-2.34942">
        <ele>86</ele>
        <time>2019-09-22T09:49:58Z</time>
      </trkpt>
      <trkpt lat="47.3021" lon="-2.34963">
        <ele>86</ele>
        <time>2019-09-22T09:50:00Z</time>
      </trkpt>
      <trkpt lat="47.3021" lon="-2.34974">
        <ele>85</ele>
        <time>2019-09-22T09:50:01Z</time>
      </trkpt>
      <trkpt lat="47.3021" lon="-2.34984">
        <ele>84</ele>
        <time>2019-09-22T09:50:02Z</time>
      </trkpt>
      <trkpt lat="47.3021" lon="-2.34995">
        <ele>84</ele>
        <time>2019-09-22T09:50:04Z</time>
      </trkpt>
      <trkpt lat="47.30211" lon="-2.35018">
        <ele>83</ele>
        <time>2019-09-22T09:50:05Z</time>
      </trkpt>
      <trkpt lat="47.30211" lon="-2.3505">
        <ele>81</ele>
        <time>2019-09-22T09:50:08Z</time>
      </trkpt>
      <trkpt lat="47.30211" lon="-2.35061">
        <ele>81</ele>
        <time>2019-09-22T09:50:09Z</time>
      </trkpt>
      <trkpt lat="47.30211" lon="-2.35082">
        <ele>81</ele>
        <time>2019-09-22T09:50:11Z</time>
      </trkpt>
      <trkpt lat="47.30211" lon="-2.35104">
        <ele>81</ele>
        <time>2019-09-22T09:50:13Z</time>
      </trkpt>
      <trkpt lat="47.3021" lon="-2.35113">
        <ele>82</ele>
        <time>2019-09-22T09:50:14Z</time>
      </trkpt>
      <trkpt lat="47.30209" lon="-2.35123">
        <ele>81</ele>
        <time>2019-09-22T09:50:15Z</time>
      </trkpt>
      <trkpt lat="47.3021" lon="-2.35134">
        <ele>81</ele>
        <time>2019-09-22T09:50:16Z</time>
      </trkpt>
      <trkpt lat="47.3021" lon="-2.35145">
        <ele>80</ele>
        <time>2019-09-22T09:50:18Z</time>
      </trkpt>
      <trkpt lat="47.30209" lon="-2.35155">
        <ele>81</ele>
        <time>2019-09-22T09:50:19Z</time>
      </trkpt>
      <trkpt lat="47.30204" lon="-2.35167">
        <ele>81</ele>
        <time>2019-09-22T09:50:21Z</time>
      </trkpt>
      <trkpt lat="47.30195" lon="-2.35171">
        <ele>81</ele>
        <time>2019-09-22T09:50:22Z</time>
      </trkpt>
      <trkpt lat="47.30191" lon="-2.35172">
        <ele>81</ele>
        <time>2019-09-22T09:50:23Z</time>
      </trkpt>
      <trkpt lat="47.30181" lon="-2.35178">
        <ele>81</ele>
        <time>2019-09-22T09:50:25Z</time>
      </trkpt>
      <trkpt lat="47.30176" lon="-2.3518">
        <ele>80</ele>
        <time>2019-09-22T09:50:26Z</time>
      </trkpt>
      <trkpt lat="47.30171" lon="-2.35182">
        <ele>80</ele>
        <time>2019-09-22T09:50:27Z</time>
      </trkpt>
      <trkpt lat="47.30166" lon="-2.35186">
        <ele>80</ele>
        <time>2019-09-22T09:50:28Z</time>
      </trkpt>
      <trkpt lat="47.30161" lon="-2.3519">
        <ele>80</ele>
        <time>2019-09-22T09:50:29Z</time>
      </trkpt>
      <trkpt lat="47.30146" lon="-2.35195">
        <ele>80</ele>
        <time>2019-09-22T09:50:32Z</time>
      </trkpt>
      <trkpt lat="47.30123" lon="-2.35198">
        <ele>81</ele>
        <time>2019-09-22T09:50:36Z</time>
      </trkpt>
      <trkpt lat="47.30115" lon="-2.35201">
        <ele>80</ele>
        <time>2019-09-22T09:50:37Z</time>
      </trkpt>
      <trkpt lat="47.30109" lon="-2.35204">
        <ele>80</ele>
        <time>2019-09-22T09:50:38Z</time>
      </trkpt>
      <trkpt lat="47.30103" lon="-2.35207">
        <ele>80</ele>
        <time>2019-09-22T09:50:39Z</time>
      </trkpt>
      <trkpt lat="47.30084" lon="-2.35216">
        <ele>80</ele>
        <time>2019-09-22T09:50:42Z</time>
      </trkpt>
      <trkpt lat="47.30078" lon="-2.35218">
        <ele>80</ele>
        <time>2019-09-22T09:50:43Z</time>
      </trkpt>
      <trkpt lat="47.30072" lon="-2.35221">
        <ele>80</ele>
        <time>2019-09-22T09:50:44Z</time>
      </trkpt>
      <trkpt lat="47.30063" lon="-2.35228">
        <ele>79</ele>
        <time>2019-09-22T09:50:46Z</time>
      </trkpt>
      <trkpt lat="47.30058" lon="-2.3523">
        <ele>80</ele>
        <time>2019-09-22T09:50:47Z</time>
      </trkpt>
      <trkpt lat="47.30053" lon="-2.35232">
        <ele>80</ele>
        <time>2019-09-22T09:50:48Z</time>
      </trkpt>
      <trkpt lat="47.30047" lon="-2.35234">
        <ele>80</ele>
        <time>2019-09-22T09:50:49Z</time>
      </trkpt>
      <trkpt lat="47.30041" lon="-2.35236">
        <ele>79</ele>
        <time>2019-09-22T09:50:50Z</time>
      </trkpt>
      <trkpt lat="47.30036" lon="-2.35238">
        <ele>79</ele>
        <time>2019-09-22T09:50:51Z</time>
      </trkpt>
      <trkpt lat="47.30032" lon="-2.3524">
        <ele>79</ele>
        <time>2019-09-22T09:50:52Z</time>
      </trkpt>
      <trkpt lat="47.30026" lon="-2.35245">
        <ele>79</ele>
        <time>2019-09-22T09:50:54Z</time>
      </trkpt>
      <trkpt lat="47.3002" lon="-2.35248">
        <ele>78</ele>
        <time>2019-09-22T09:50:57Z</time>
      </trkpt>
      <trkpt lat="47.30014" lon="-2.35253">
        <ele>78</ele>
        <time>2019-09-22T09:50:59Z</time>
      </trkpt>
      <trkpt lat="47.30011" lon="-2.35256">
        <ele>78</ele>
        <time>2019-09-22T09:51:00Z</time>
      </trkpt>
      <trkpt lat="47.30006" lon="-2.35259">
        <ele>78</ele>
        <time>2019-09-22T09:51:02Z</time>
      </trkpt>
      <trkpt lat="47.3" lon="-2.35259">
        <ele>78</ele>
        <time>2019-09-22T09:51:05Z</time>
      </trkpt>
      <trkpt lat="47.29995" lon="-2.35262">
        <ele>78</ele>
        <time>2019-09-22T09:51:07Z</time>
      </trkpt>
      <trkpt lat="47.29992" lon="-2.35268">
        <ele>78</ele>
        <time>2019-09-22T09:51:09Z</time>
      </trkpt>
      <trkpt lat="47.29989" lon="-2.35271">
        <ele>78</ele>
        <time>2019-09-22T09:51:10Z</time>
      </trkpt>
      <trkpt lat="47.29982" lon="-2.35279">
        <ele>77</ele>
        <time>2019-09-22T09:51:13Z</time>
      </trkpt>
      <trkpt lat="47.29979" lon="-2.35282">
        <ele>78</ele>
        <time>2019-09-22T09:51:14Z</time>
      </trkpt>
      <trkpt lat="47.29976" lon="-2.35285">
        <ele>78</ele>
        <time>2019-09-22T09:51:15Z</time>
      </trkpt>
      <trkpt lat="47.29973" lon="-2.35289">
        <ele>77</ele>
        <time>2019-09-22T09:51:16Z</time>
      </trkpt>
      <trkpt lat="47.29971" lon="-2.35291">
        <ele>77</ele>
        <time>2019-09-22T09:51:17Z</time>
      </trkpt>
      <trkpt lat="47.29968" lon="-2.35295">
        <ele>77</ele>
        <time>2019-09-22T09:51:18Z</time>
      </trkpt>
      <trkpt lat="47.29965" lon="-2.35299">
        <ele>77</ele>
        <time>2019-09-22T09:51:19Z</time>
      </trkpt>
      <trkpt lat="47.29962" lon="-2.35303">
        <ele>77</ele>
        <time>2019-09-22T09:51:20Z</time>
      </trkpt>
      <trkpt lat="47.29959" lon="-2.35307">
        <ele>77</ele>
        <time>2019-09-22T09:51:21Z</time>
      </trkpt>
      <trkpt lat="47.29957" lon="-2.35311">
        <ele>77</ele>
        <time>2019-09-22T09:51:22Z</time>
      </trkpt>
      <trkpt lat="47.29948" lon="-2.35323">
        <ele>77</ele>
        <time>2019-09-22T09:51:25Z</time>
      </trkpt>
      <trkpt lat="47.29945" lon="-2.35326">
        <ele>77</ele>
        <time>2019-09-22T09:51:26Z</time>
      </trkpt>
      <trkpt lat="47.29942" lon="-2.3533">
        <ele>77</ele>
        <time>2019-09-22T09:51:27Z</time>
      </trkpt>
      <trkpt lat="47.29939" lon="-2.35334">
        <ele>77</ele>
        <time>2019-09-22T09:51:28Z</time>
      </trkpt>
      <trkpt lat="47.29936" lon="-2.35338">
        <ele>77</ele>
        <time>2019-09-22T09:51:29Z</time>
      </trkpt>
      <trkpt lat="47.2993" lon="-2.35346">
        <ele>78</ele>
        <time>2019-09-22T09:51:31Z</time>
      </trkpt>
      <trkpt lat="47.29924" lon="-2.35354">
        <ele>78</ele>
        <time>2019-09-22T09:51:32Z</time>
      </trkpt>
      <trkpt lat="47.29917" lon="-2.35361">
        <ele>78</ele>
        <time>2019-09-22T09:51:34Z</time>
      </trkpt>
      <trkpt lat="47.29911" lon="-2.35368">
        <ele>78</ele>
        <time>2019-09-22T09:51:36Z</time>
      </trkpt>
      <trkpt lat="47.29906" lon="-2.35376">
        <ele>78</ele>
        <time>2019-09-22T09:51:38Z</time>
      </trkpt>
      <trkpt lat="47.299" lon="-2.35382">
        <ele>78</ele>
        <time>2019-09-22T09:51:40Z</time>
      </trkpt>
      <trkpt lat="47.29893" lon="-2.35389">
        <ele>78</ele>
        <time>2019-09-22T09:51:42Z</time>
      </trkpt>
      <trkpt lat="47.29887" lon="-2.35396">
        <ele>78</ele>
        <time>2019-09-22T09:51:44Z</time>
      </trkpt>
      <trkpt lat="47.2988" lon="-2.35402">
        <ele>78</ele>
        <time>2019-09-22T09:51:46Z</time>
      </trkpt>
      <trkpt lat="47.29877" lon="-2.35406">
        <ele>78</ele>
        <time>2019-09-22T09:51:47Z</time>
      </trkpt>
      <trkpt lat="47.29874" lon="-2.35409">
        <ele>78</ele>
        <time>2019-09-22T09:51:48Z</time>
      </trkpt>
      <trkpt lat="47.29871" lon="-2.35412">
        <ele>78</ele>
        <time>2019-09-22T09:51:49Z</time>
      </trkpt>
      <trkpt lat="47.29868" lon="-2.35415">
        <ele>78</ele>
        <time>2019-09-22T09:51:50Z</time>
      </trkpt>
      <trkpt lat="47.29859" lon="-2.35426">
        <ele>78</ele>
        <time>2019-09-22T09:51:53Z</time>
      </trkpt>
      <trkpt lat="47.29852" lon="-2.35432">
        <ele>78</ele>
        <time>2019-09-22T09:51:56Z</time>
      </trkpt>
      <trkpt lat="47.29846" lon="-2.3544">
        <ele>79</ele>
        <time>2019-09-22T09:51:58Z</time>
      </trkpt>
      <trkpt lat="47.29843" lon="-2.35443">
        <ele>79</ele>
        <time>2019-09-22T09:51:59Z</time>
      </trkpt>
      <trkpt lat="47.29839" lon="-2.35446">
        <ele>79</ele>
        <time>2019-09-22T09:52:00Z</time>
      </trkpt>
      <trkpt lat="47.29834" lon="-2.35453">
        <ele>79</ele>
        <time>2019-09-22T09:52:02Z</time>
      </trkpt>
      <trkpt lat="47.2983" lon="-2.35463">
        <ele>79</ele>
        <time>2019-09-22T09:52:04Z</time>
      </trkpt>
      <trkpt lat="47.29832" lon="-2.35478">
        <ele>79</ele>
        <time>2019-09-22T09:52:07Z</time>
      </trkpt>
      <trkpt lat="47.29835" lon="-2.35487">
        <ele>80</ele>
        <time>2019-09-22T09:52:09Z</time>
      </trkpt>
      <trkpt lat="47.29836" lon="-2.35491">
        <ele>80</ele>
        <time>2019-09-22T09:52:10Z</time>
      </trkpt>
      <trkpt lat="47.29837" lon="-2.35496">
        <ele>80</ele>
        <time>2019-09-22T09:52:11Z</time>
      </trkpt>
      <trkpt lat="47.29842" lon="-2.3551">
        <ele>81</ele>
        <time>2019-09-22T09:52:13Z</time>
      </trkpt>
      <trkpt lat="47.29845" lon="-2.35523">
        <ele>81</ele>
        <time>2019-09-22T09:52:15Z</time>
      </trkpt>
      <trkpt lat="47.29847" lon="-2.35529">
        <ele>82</ele>
        <time>2019-09-22T09:52:16Z</time>
      </trkpt>
      <trkpt lat="47.29848" lon="-2.35535">
        <ele>82</ele>
        <time>2019-09-22T09:52:17Z</time>
      </trkpt>
      <trkpt lat="47.29853" lon="-2.3555">
        <ele>83</ele>
        <time>2019-09-22T09:52:20Z</time>
      </trkpt>
      <trkpt lat="47.29854" lon="-2.35554">
        <ele>83</ele>
        <time>2019-09-22T09:52:21Z</time>
      </trkpt>
      <trkpt lat="47.29857" lon="-2.35569">
        <ele>83</ele>
        <time>2019-09-22T09:52:24Z</time>
      </trkpt>
      <trkpt lat="47.29861" lon="-2.3558">
        <ele>83</ele>
        <time>2019-09-22T09:52:26Z</time>
      </trkpt>
      <trkpt lat="47.29863" lon="-2.35585">
        <ele>83</ele>
        <time>2019-09-22T09:52:27Z</time>
      </trkpt>
      <trkpt lat="47.29865" lon="-2.35591">
        <ele>83</ele>
        <time>2019-09-22T09:52:28Z</time>
      </trkpt>
      <trkpt lat="47.29866" lon="-2.35597">
        <ele>82</ele>
        <time>2019-09-22T09:52:30Z</time>
      </trkpt>
      <trkpt lat="47.29871" lon="-2.35614">
        <ele>83</ele>
        <time>2019-09-22T09:52:32Z</time>
      </trkpt>
      <trkpt lat="47.29873" lon="-2.35625">
        <ele>83</ele>
        <time>2019-09-22T09:52:34Z</time>
      </trkpt>
      <trkpt lat="47.29874" lon="-2.35632">
        <ele>83</ele>
        <time>2019-09-22T09:52:35Z</time>
      </trkpt>
      <trkpt lat="47.29875" lon="-2.35637">
        <ele>83</ele>
        <time>2019-09-22T09:52:36Z</time>
      </trkpt>
      <trkpt lat="47.29877" lon="-2.35648">
        <ele>83</ele>
        <time>2019-09-22T09:52:38Z</time>
      </trkpt>
      <trkpt lat="47.29878" lon="-2.35652">
        <ele>84</ele>
        <time>2019-09-22T09:52:39Z</time>
      </trkpt>
      <trkpt lat="47.29879" lon="-2.35658">
        <ele>84</ele>
        <time>2019-09-22T09:52:40Z</time>
      </trkpt>
      <trkpt lat="47.29879" lon="-2.35663">
        <ele>85</ele>
        <time>2019-09-22T09:52:41Z</time>
      </trkpt>
      <trkpt lat="47.2988" lon="-2.35669">
        <ele>85</ele>
        <time>2019-09-22T09:52:42Z</time>
      </trkpt>
      <trkpt lat="47.29882" lon="-2.35682">
        <ele>85</ele>
        <time>2019-09-22T09:52:44Z</time>
      </trkpt>
      <trkpt lat="47.29884" lon="-2.35687">
        <ele>85</ele>
        <time>2019-09-22T09:52:45Z</time>
      </trkpt>
      <trkpt lat="47.29885" lon="-2.35693">
        <ele>84</ele>
        <time>2019-09-22T09:52:46Z</time>
      </trkpt>
      <trkpt lat="47.29886" lon="-2.35698">
        <ele>85</ele>
        <time>2019-09-22T09:52:47Z</time>
      </trkpt>
      <trkpt lat="47.29887" lon="-2.35703">
        <ele>84</ele>
        <time>2019-09-22T09:52:48Z</time>
      </trkpt>
      <trkpt lat="47.29888" lon="-2.35707">
        <ele>84</ele>
        <time>2019-09-22T09:52:49Z</time>
      </trkpt>
      <trkpt lat="47.29892" lon="-2.35723">
        <ele>85</ele>
        <time>2019-09-22T09:52:52Z</time>
      </trkpt>
      <trkpt lat="47.29893" lon="-2.35728">
        <ele>85</ele>
        <time>2019-09-22T09:52:53Z</time>
      </trkpt>
      <trkpt lat="47.29895" lon="-2.35739">
        <ele>85</ele>
        <time>2019-09-22T09:52:55Z</time>
      </trkpt>
      <trkpt lat="47.29896" lon="-2.35743">
        <ele>85</ele>
        <time>2019-09-22T09:52:56Z</time>
      </trkpt>
      <trkpt lat="47.29895" lon="-2.35751">
        <ele>85</ele>
        <time>2019-09-22T09:53:00Z</time>
      </trkpt>
      <trkpt lat="47.29891" lon="-2.35757">
        <ele>85</ele>
        <time>2019-09-22T09:53:04Z</time>
      </trkpt>
      <trkpt lat="47.29884" lon="-2.35767">
        <ele>85</ele>
        <time>2019-09-22T09:53:07Z</time>
      </trkpt>
      <trkpt lat="47.29876" lon="-2.35771">
        <ele>85</ele>
        <time>2019-09-22T09:53:09Z</time>
      </trkpt>
      <trkpt lat="47.29868" lon="-2.35774">
        <ele>86</ele>
        <time>2019-09-22T09:53:11Z</time>
      </trkpt>
      <trkpt lat="47.29863" lon="-2.35776">
        <ele>86</ele>
        <time>2019-09-22T09:53:12Z</time>
      </trkpt>
      <trkpt lat="47.29858" lon="-2.35778">
        <ele>86</ele>
        <time>2019-09-22T09:53:13Z</time>
      </trkpt>
      <trkpt lat="47.29849" lon="-2.35781">
        <ele>86</ele>
        <time>2019-09-22T09:53:15Z</time>
      </trkpt>
      <trkpt lat="47.29845" lon="-2.35783">
        <ele>86</ele>
        <time>2019-09-22T09:53:16Z</time>
      </trkpt>
      <trkpt lat="47.2984" lon="-2.35785">
        <ele>86</ele>
        <time>2019-09-22T09:53:17Z</time>
      </trkpt>
      <trkpt lat="47.29831" lon="-2.35788">
        <ele>87</ele>
        <time>2019-09-22T09:53:19Z</time>
      </trkpt>
      <trkpt lat="47.29827" lon="-2.3579">
        <ele>87</ele>
        <time>2019-09-22T09:53:20Z</time>
      </trkpt>
      <trkpt lat="47.29819" lon="-2.35792">
        <ele>88</ele>
        <time>2019-09-22T09:53:21Z</time>
      </trkpt>
      <trkpt lat="47.29814" lon="-2.35793">
        <ele>88</ele>
        <time>2019-09-22T09:53:22Z</time>
      </trkpt>
      <trkpt lat="47.29805" lon="-2.35796">
        <ele>88</ele>
        <time>2019-09-22T09:53:24Z</time>
      </trkpt>
      <trkpt lat="47.29801" lon="-2.35797">
        <ele>88</ele>
        <time>2019-09-22T09:53:25Z</time>
      </trkpt>
      <trkpt lat="47.29797" lon="-2.35799">
        <ele>88</ele>
        <time>2019-09-22T09:53:26Z</time>
      </trkpt>
      <trkpt lat="47.29793" lon="-2.35801">
        <ele>87</ele>
        <time>2019-09-22T09:53:27Z</time>
      </trkpt>
      <trkpt lat="47.29788" lon="-2.35802">
        <ele>87</ele>
        <time>2019-09-22T09:53:28Z</time>
      </trkpt>
      <trkpt lat="47.29784" lon="-2.35803">
        <ele>87</ele>
        <time>2019-09-22T09:53:29Z</time>
      </trkpt>
      <trkpt lat="47.29779" lon="-2.35805">
        <ele>87</ele>
        <time>2019-09-22T09:53:30Z</time>
      </trkpt>
      <trkpt lat="47.29771" lon="-2.35808">
        <ele>87</ele>
        <time>2019-09-22T09:53:32Z</time>
      </trkpt>
      <trkpt lat="47.29766" lon="-2.35809">
        <ele>87</ele>
        <time>2019-09-22T09:53:34Z</time>
      </trkpt>
      <trkpt lat="47.29762" lon="-2.35811">
        <ele>87</ele>
        <time>2019-09-22T09:53:35Z</time>
      </trkpt>
      <trkpt lat="47.29758" lon="-2.35813">
        <ele>87</ele>
        <time>2019-09-22T09:53:36Z</time>
      </trkpt>
      <trkpt lat="47.29753" lon="-2.35815">
        <ele>87</ele>
        <time>2019-09-22T09:53:37Z</time>
      </trkpt>
      <trkpt lat="47.29748" lon="-2.35817">
        <ele>87</ele>
        <time>2019-09-22T09:53:38Z</time>
      </trkpt>
      <trkpt lat="47.29743" lon="-2.3582">
        <ele>87</ele>
        <time>2019-09-22T09:53:39Z</time>
      </trkpt>
      <trkpt lat="47.29715" lon="-2.35835">
        <ele>86</ele>
        <time>2019-09-22T09:53:43Z</time>
      </trkpt>
      <trkpt lat="47.29708" lon="-2.35838">
        <ele>86</ele>
        <time>2019-09-22T09:53:45Z</time>
      </trkpt>
      <trkpt lat="47.29702" lon="-2.3584">
        <ele>86</ele>
        <time>2019-09-22T09:53:46Z</time>
      </trkpt>
      <trkpt lat="47.2968" lon="-2.35848">
        <ele>86</ele>
        <time>2019-09-22T09:53:49Z</time>
      </trkpt>
      <trkpt lat="47.29675" lon="-2.35851">
        <ele>86</ele>
        <time>2019-09-22T09:53:50Z</time>
      </trkpt>
      <trkpt lat="47.29661" lon="-2.35864">
        <ele>85</ele>
        <time>2019-09-22T09:53:53Z</time>
      </trkpt>
      <trkpt lat="47.29656" lon="-2.35868">
        <ele>85</ele>
        <time>2019-09-22T09:53:54Z</time>
      </trkpt>
      <trkpt lat="47.2965" lon="-2.3587">
        <ele>85</ele>
        <time>2019-09-22T09:53:55Z</time>
      </trkpt>
      <trkpt lat="47.29645" lon="-2.35873">
        <ele>85</ele>
        <time>2019-09-22T09:53:56Z</time>
      </trkpt>
      <trkpt lat="47.2964" lon="-2.35877">
        <ele>85</ele>
        <time>2019-09-22T09:53:58Z</time>
      </trkpt>
      <trkpt lat="47.29635" lon="-2.3588">
        <ele>85</ele>
        <time>2019-09-22T09:53:59Z</time>
      </trkpt>
      <trkpt lat="47.29629" lon="-2.35882">
        <ele>85</ele>
        <time>2019-09-22T09:54:00Z</time>
      </trkpt>
      <trkpt lat="47.29619" lon="-2.35887">
        <ele>85</ele>
        <time>2019-09-22T09:54:02Z</time>
      </trkpt>
      <trkpt lat="47.29614" lon="-2.3589">
        <ele>85</ele>
        <time>2019-09-22T09:54:03Z</time>
      </trkpt>
      <trkpt lat="47.29604" lon="-2.35895">
        <ele>85</ele>
        <time>2019-09-22T09:54:05Z</time>
      </trkpt>
      <trkpt lat="47.296" lon="-2.35899">
        <ele>85</ele>
        <time>2019-09-22T09:54:06Z</time>
      </trkpt>
      <trkpt lat="47.29595" lon="-2.35903">
        <ele>84</ele>
        <time>2019-09-22T09:54:07Z</time>
      </trkpt>
      <trkpt lat="47.2959" lon="-2.35906">
        <ele>84</ele>
        <time>2019-09-22T09:54:08Z</time>
      </trkpt>
      <trkpt lat="47.29585" lon="-2.35909">
        <ele>84</ele>
        <time>2019-09-22T09:54:09Z</time>
      </trkpt>
      <trkpt lat="47.29575" lon="-2.35915">
        <ele>84</ele>
        <time>2019-09-22T09:54:10Z</time>
      </trkpt>
      <trkpt lat="47.2957" lon="-2.35918">
        <ele>84</ele>
        <time>2019-09-22T09:54:11Z</time>
      </trkpt>
      <trkpt lat="47.29565" lon="-2.35921">
        <ele>84</ele>
        <time>2019-09-22T09:54:12Z</time>
      </trkpt>
      <trkpt lat="47.2956" lon="-2.35923">
        <ele>84</ele>
        <time>2019-09-22T09:54:14Z</time>
      </trkpt>
      <trkpt lat="47.29549" lon="-2.35929">
        <ele>84</ele>
        <time>2019-09-22T09:54:15Z</time>
      </trkpt>
      <trkpt lat="47.2954" lon="-2.35935">
        <ele>84</ele>
        <time>2019-09-22T09:54:17Z</time>
      </trkpt>
      <trkpt lat="47.29535" lon="-2.35938">
        <ele>85</ele>
        <time>2019-09-22T09:54:18Z</time>
      </trkpt>
      <trkpt lat="47.29525" lon="-2.35944">
        <ele>85</ele>
        <time>2019-09-22T09:54:20Z</time>
      </trkpt>
      <trkpt lat="47.29514" lon="-2.3595">
        <ele>84</ele>
        <time>2019-09-22T09:54:22Z</time>
      </trkpt>
      <trkpt lat="47.29509" lon="-2.35952">
        <ele>84</ele>
        <time>2019-09-22T09:54:23Z</time>
      </trkpt>
      <trkpt lat="47.29505" lon="-2.35956">
        <ele>84</ele>
        <time>2019-09-22T09:54:24Z</time>
      </trkpt>
      <trkpt lat="47.295" lon="-2.3596">
        <ele>84</ele>
        <time>2019-09-22T09:54:25Z</time>
      </trkpt>
      <trkpt lat="47.29496" lon="-2.35963">
        <ele>84</ele>
        <time>2019-09-22T09:54:26Z</time>
      </trkpt>
      <trkpt lat="47.29489" lon="-2.3597">
        <ele>84</ele>
        <time>2019-09-22T09:54:28Z</time>
      </trkpt>
      <trkpt lat="47.29485" lon="-2.35974">
        <ele>84</ele>
        <time>2019-09-22T09:54:29Z</time>
      </trkpt>
      <trkpt lat="47.29482" lon="-2.35978">
        <ele>84</ele>
        <time>2019-09-22T09:54:31Z</time>
      </trkpt>
      <trkpt lat="47.29475" lon="-2.35991">
        <ele>84</ele>
        <time>2019-09-22T09:54:34Z</time>
      </trkpt>
      <trkpt lat="47.29468" lon="-2.35998">
        <ele>84</ele>
        <time>2019-09-22T09:54:36Z</time>
      </trkpt>
      <trkpt lat="47.2946" lon="-2.36003">
        <ele>85</ele>
        <time>2019-09-22T09:54:39Z</time>
      </trkpt>
      <trkpt lat="47.29451" lon="-2.3601">
        <ele>85</ele>
        <time>2019-09-22T09:54:40Z</time>
      </trkpt>
      <trkpt lat="47.29447" lon="-2.36014">
        <ele>85</ele>
        <time>2019-09-22T09:54:41Z</time>
      </trkpt>
      <trkpt lat="47.29443" lon="-2.36017">
        <ele>85</ele>
        <time>2019-09-22T09:54:42Z</time>
      </trkpt>
      <trkpt lat="47.29434" lon="-2.36024">
        <ele>85</ele>
        <time>2019-09-22T09:54:44Z</time>
      </trkpt>
      <trkpt lat="47.2943" lon="-2.36028">
        <ele>85</ele>
        <time>2019-09-22T09:54:45Z</time>
      </trkpt>
      <trkpt lat="47.29425" lon="-2.36033">
        <ele>85</ele>
        <time>2019-09-22T09:54:46Z</time>
      </trkpt>
      <trkpt lat="47.29421" lon="-2.36036">
        <ele>85</ele>
        <time>2019-09-22T09:54:47Z</time>
      </trkpt>
      <trkpt lat="47.29417" lon="-2.36041">
        <ele>85</ele>
        <time>2019-09-22T09:54:48Z</time>
      </trkpt>
      <trkpt lat="47.29412" lon="-2.36045">
        <ele>85</ele>
        <time>2019-09-22T09:54:49Z</time>
      </trkpt>
      <trkpt lat="47.29408" lon="-2.36049">
        <ele>85</ele>
        <time>2019-09-22T09:54:50Z</time>
      </trkpt>
      <trkpt lat="47.29404" lon="-2.36053">
        <ele>85</ele>
        <time>2019-09-22T09:54:51Z</time>
      </trkpt>
      <trkpt lat="47.29399" lon="-2.36056">
        <ele>84</ele>
        <time>2019-09-22T09:54:52Z</time>
      </trkpt>
      <trkpt lat="47.29394" lon="-2.36059">
        <ele>84</ele>
        <time>2019-09-22T09:54:53Z</time>
      </trkpt>
      <trkpt lat="47.29389" lon="-2.36063">
        <ele>83</ele>
        <time>2019-09-22T09:54:54Z</time>
      </trkpt>
      <trkpt lat="47.29385" lon="-2.36068">
        <ele>83</ele>
        <time>2019-09-22T09:54:55Z</time>
      </trkpt>
      <trkpt lat="47.29381" lon="-2.36072">
        <ele>83</ele>
        <time>2019-09-22T09:54:56Z</time>
      </trkpt>
      <trkpt lat="47.29377" lon="-2.36076">
        <ele>84</ele>
        <time>2019-09-22T09:54:58Z</time>
      </trkpt>
      <trkpt lat="47.29367" lon="-2.36084">
        <ele>83</ele>
        <time>2019-09-22T09:54:59Z</time>
      </trkpt>
      <trkpt lat="47.29362" lon="-2.36087">
        <ele>83</ele>
        <time>2019-09-22T09:55:00Z</time>
      </trkpt>
      <trkpt lat="47.29357" lon="-2.36091">
        <ele>83</ele>
        <time>2019-09-22T09:55:01Z</time>
      </trkpt>
      <trkpt lat="47.29351" lon="-2.36095">
        <ele>83</ele>
        <time>2019-09-22T09:55:02Z</time>
      </trkpt>
      <trkpt lat="47.29346" lon="-2.36099">
        <ele>82</ele>
        <time>2019-09-22T09:55:03Z</time>
      </trkpt>
      <trkpt lat="47.29341" lon="-2.36103">
        <ele>82</ele>
        <time>2019-09-22T09:55:04Z</time>
      </trkpt>
      <trkpt lat="47.29336" lon="-2.36106">
        <ele>82</ele>
        <time>2019-09-22T09:55:05Z</time>
      </trkpt>
      <trkpt lat="47.29331" lon="-2.3611">
        <ele>82</ele>
        <time>2019-09-22T09:55:06Z</time>
      </trkpt>
      <trkpt lat="47.29326" lon="-2.36113">
        <ele>82</ele>
        <time>2019-09-22T09:55:07Z</time>
      </trkpt>
      <trkpt lat="47.29317" lon="-2.36119">
        <ele>82</ele>
        <time>2019-09-22T09:55:09Z</time>
      </trkpt>
      <trkpt lat="47.29312" lon="-2.36121">
        <ele>82</ele>
        <time>2019-09-22T09:55:10Z</time>
      </trkpt>
      <trkpt lat="47.29306" lon="-2.36124">
        <ele>82</ele>
        <time>2019-09-22T09:55:11Z</time>
      </trkpt>
      <trkpt lat="47.29295" lon="-2.36129">
        <ele>82</ele>
        <time>2019-09-22T09:55:14Z</time>
      </trkpt>
      <trkpt lat="47.29284" lon="-2.36134">
        <ele>82</ele>
        <time>2019-09-22T09:55:15Z</time>
      </trkpt>
      <trkpt lat="47.29279" lon="-2.36136">
        <ele>82</ele>
        <time>2019-09-22T09:55:16Z</time>
      </trkpt>
      <trkpt lat="47.29273" lon="-2.36138">
        <ele>82</ele>
        <time>2019-09-22T09:55:17Z</time>
      </trkpt>
      <trkpt lat="47.29263" lon="-2.36143">
        <ele>82</ele>
        <time>2019-09-22T09:55:19Z</time>
      </trkpt>
      <trkpt lat="47.29258" lon="-2.36146">
        <ele>83</ele>
        <time>2019-09-22T09:55:20Z</time>
      </trkpt>
      <trkpt lat="47.29247" lon="-2.36151">
        <ele>83</ele>
        <time>2019-09-22T09:55:22Z</time>
      </trkpt>
      <trkpt lat="47.29241" lon="-2.36153">
        <ele>82</ele>
        <time>2019-09-22T09:55:23Z</time>
      </trkpt>
      <trkpt lat="47.29235" lon="-2.36156">
        <ele>82</ele>
        <time>2019-09-22T09:55:24Z</time>
      </trkpt>
      <trkpt lat="47.2923" lon="-2.36159">
        <ele>82</ele>
        <time>2019-09-22T09:55:25Z</time>
      </trkpt>
      <trkpt lat="47.29218" lon="-2.36163">
        <ele>83</ele>
        <time>2019-09-22T09:55:27Z</time>
      </trkpt>
      <trkpt lat="47.29213" lon="-2.36166">
        <ele>83</ele>
        <time>2019-09-22T09:55:28Z</time>
      </trkpt>
      <trkpt lat="47.29207" lon="-2.36168">
        <ele>83</ele>
        <time>2019-09-22T09:55:29Z</time>
      </trkpt>
      <trkpt lat="47.29201" lon="-2.36171">
        <ele>83</ele>
        <time>2019-09-22T09:55:31Z</time>
      </trkpt>
      <trkpt lat="47.2919" lon="-2.36176">
        <ele>83</ele>
        <time>2019-09-22T09:55:32Z</time>
      </trkpt>
      <trkpt lat="47.29184" lon="-2.36179">
        <ele>83</ele>
        <time>2019-09-22T09:55:33Z</time>
      </trkpt>
      <trkpt lat="47.29178" lon="-2.36182">
        <ele>83</ele>
        <time>2019-09-22T09:55:34Z</time>
      </trkpt>
      <trkpt lat="47.29172" lon="-2.36184">
        <ele>83</ele>
        <time>2019-09-22T09:55:35Z</time>
      </trkpt>
      <trkpt lat="47.29166" lon="-2.36187">
        <ele>83</ele>
        <time>2019-09-22T09:55:36Z</time>
      </trkpt>
      <trkpt lat="47.29143" lon="-2.36197">
        <ele>83</ele>
        <time>2019-09-22T09:55:40Z</time>
      </trkpt>
      <trkpt lat="47.29137" lon="-2.36199">
        <ele>83</ele>
        <time>2019-09-22T09:55:41Z</time>
      </trkpt>
      <trkpt lat="47.29131" lon="-2.36202">
        <ele>82</ele>
        <time>2019-09-22T09:55:42Z</time>
      </trkpt>
      <trkpt lat="47.29125" lon="-2.36205">
        <ele>82</ele>
        <time>2019-09-22T09:55:43Z</time>
      </trkpt>
      <trkpt lat="47.29118" lon="-2.36208">
        <ele>82</ele>
        <time>2019-09-22T09:55:44Z</time>
      </trkpt>
      <trkpt lat="47.291" lon="-2.36215">
        <ele>81</ele>
        <time>2019-09-22T09:55:47Z</time>
      </trkpt>
      <trkpt lat="47.29088" lon="-2.3622">
        <ele>81</ele>
        <time>2019-09-22T09:55:49Z</time>
      </trkpt>
      <trkpt lat="47.29083" lon="-2.36222">
        <ele>81</ele>
        <time>2019-09-22T09:55:50Z</time>
      </trkpt>
      <trkpt lat="47.29077" lon="-2.36225">
        <ele>80</ele>
        <time>2019-09-22T09:55:51Z</time>
      </trkpt>
      <trkpt lat="47.29071" lon="-2.36228">
        <ele>80</ele>
        <time>2019-09-22T09:55:52Z</time>
      </trkpt>
      <trkpt lat="47.29065" lon="-2.3623">
        <ele>80</ele>
        <time>2019-09-22T09:55:53Z</time>
      </trkpt>
      <trkpt lat="47.29059" lon="-2.36233">
        <ele>80</ele>
        <time>2019-09-22T09:55:54Z</time>
      </trkpt>
      <trkpt lat="47.29053" lon="-2.36236">
        <ele>80</ele>
        <time>2019-09-22T09:55:55Z</time>
      </trkpt>
      <trkpt lat="47.29047" lon="-2.36238">
        <ele>80</ele>
        <time>2019-09-22T09:55:56Z</time>
      </trkpt>
      <trkpt lat="47.29041" lon="-2.36241">
        <ele>80</ele>
        <time>2019-09-22T09:55:57Z</time>
      </trkpt>
      <trkpt lat="47.29035" lon="-2.36243">
        <ele>80</ele>
        <time>2019-09-22T09:55:58Z</time>
      </trkpt>
      <trkpt lat="47.29029" lon="-2.36246">
        <ele>80</ele>
        <time>2019-09-22T09:55:59Z</time>
      </trkpt>
      <trkpt lat="47.29011" lon="-2.36254">
        <ele>80</ele>
        <time>2019-09-22T09:56:02Z</time>
      </trkpt>
      <trkpt lat="47.29005" lon="-2.36256">
        <ele>80</ele>
        <time>2019-09-22T09:56:03Z</time>
      </trkpt>
      <trkpt lat="47.28999" lon="-2.36259">
        <ele>80</ele>
        <time>2019-09-22T09:56:04Z</time>
      </trkpt>
      <trkpt lat="47.28993" lon="-2.36261">
        <ele>80</ele>
        <time>2019-09-22T09:56:05Z</time>
      </trkpt>
      <trkpt lat="47.28987" lon="-2.36264">
        <ele>79</ele>
        <time>2019-09-22T09:56:06Z</time>
      </trkpt>
      <trkpt lat="47.28969" lon="-2.36272">
        <ele>79</ele>
        <time>2019-09-22T09:56:09Z</time>
      </trkpt>
      <trkpt lat="47.28963" lon="-2.36275">
        <ele>79</ele>
        <time>2019-09-22T09:56:10Z</time>
      </trkpt>
      <trkpt lat="47.28957" lon="-2.36277">
        <ele>79</ele>
        <time>2019-09-22T09:56:11Z</time>
      </trkpt>
      <trkpt lat="47.28951" lon="-2.3628">
        <ele>79</ele>
        <time>2019-09-22T09:56:12Z</time>
      </trkpt>
      <trkpt lat="47.28945" lon="-2.36283">
        <ele>79</ele>
        <time>2019-09-22T09:56:13Z</time>
      </trkpt>
      <trkpt lat="47.2894" lon="-2.36285">
        <ele>79</ele>
        <time>2019-09-22T09:56:14Z</time>
      </trkpt>
      <trkpt lat="47.28922" lon="-2.36292">
        <ele>79</ele>
        <time>2019-09-22T09:56:17Z</time>
      </trkpt>
      <trkpt lat="47.28916" lon="-2.36295">
        <ele>79</ele>
        <time>2019-09-22T09:56:18Z</time>
      </trkpt>
      <trkpt lat="47.28911" lon="-2.36298">
        <ele>79</ele>
        <time>2019-09-22T09:56:19Z</time>
      </trkpt>
      <trkpt lat="47.289" lon="-2.36302">
        <ele>79</ele>
        <time>2019-09-22T09:56:21Z</time>
      </trkpt>
      <trkpt lat="47.28895" lon="-2.36304">
        <ele>79</ele>
        <time>2019-09-22T09:56:22Z</time>
      </trkpt>
      <trkpt lat="47.2889" lon="-2.36307">
        <ele>79</ele>
        <time>2019-09-22T09:56:23Z</time>
      </trkpt>
      <trkpt lat="47.28885" lon="-2.3631">
        <ele>79</ele>
        <time>2019-09-22T09:56:24Z</time>
      </trkpt>
      <trkpt lat="47.28879" lon="-2.36312">
        <ele>80</ele>
        <time>2019-09-22T09:56:25Z</time>
      </trkpt>
      <trkpt lat="47.28873" lon="-2.36315">
        <ele>80</ele>
        <time>2019-09-22T09:56:26Z</time>
      </trkpt>
      <trkpt lat="47.28868" lon="-2.36318">
        <ele>80</ele>
        <time>2019-09-22T09:56:27Z</time>
      </trkpt>
      <trkpt lat="47.28863" lon="-2.3632">
        <ele>80</ele>
        <time>2019-09-22T09:56:28Z</time>
      </trkpt>
      <trkpt lat="47.28858" lon="-2.36323">
        <ele>80</ele>
        <time>2019-09-22T09:56:29Z</time>
      </trkpt>
      <trkpt lat="47.28853" lon="-2.36326">
        <ele>80</ele>
        <time>2019-09-22T09:56:30Z</time>
      </trkpt>
      <trkpt lat="47.28845" lon="-2.36334">
        <ele>80</ele>
        <time>2019-09-22T09:56:32Z</time>
      </trkpt>
      <trkpt lat="47.28842" lon="-2.36339">
        <ele>80</ele>
        <time>2019-09-22T09:56:33Z</time>
      </trkpt>
      <trkpt lat="47.28838" lon="-2.36344">
        <ele>81</ele>
        <time>2019-09-22T09:56:34Z</time>
      </trkpt>
      <trkpt lat="47.28824" lon="-2.36364">
        <ele>82</ele>
        <time>2019-09-22T09:56:38Z</time>
      </trkpt>
      <trkpt lat="47.2882" lon="-2.36369">
        <ele>83</ele>
        <time>2019-09-22T09:56:39Z</time>
      </trkpt>
      <trkpt lat="47.28817" lon="-2.36375">
        <ele>83</ele>
        <time>2019-09-22T09:56:40Z</time>
      </trkpt>
      <trkpt lat="47.28813" lon="-2.36381">
        <ele>83</ele>
        <time>2019-09-22T09:56:41Z</time>
      </trkpt>
      <trkpt lat="47.2881" lon="-2.36388">
        <ele>84</ele>
        <time>2019-09-22T09:56:42Z</time>
      </trkpt>
      <trkpt lat="47.28807" lon="-2.36395">
        <ele>84</ele>
        <time>2019-09-22T09:56:43Z</time>
      </trkpt>
      <trkpt lat="47.28804" lon="-2.36402">
        <ele>84</ele>
        <time>2019-09-22T09:56:44Z</time>
      </trkpt>
      <trkpt lat="47.28798" lon="-2.36415">
        <ele>85</ele>
        <time>2019-09-22T09:56:46Z</time>
      </trkpt>
      <trkpt lat="47.28795" lon="-2.36421">
        <ele>85</ele>
        <time>2019-09-22T09:56:47Z</time>
      </trkpt>
      <trkpt lat="47.28792" lon="-2.36427">
        <ele>85</ele>
        <time>2019-09-22T09:56:48Z</time>
      </trkpt>
      <trkpt lat="47.28789" lon="-2.36434">
        <ele>85</ele>
        <time>2019-09-22T09:56:49Z</time>
      </trkpt>
      <trkpt lat="47.28786" lon="-2.3644">
        <ele>85</ele>
        <time>2019-09-22T09:56:50Z</time>
      </trkpt>
      <trkpt lat="47.28783" lon="-2.36447">
        <ele>86</ele>
        <time>2019-09-22T09:56:51Z</time>
      </trkpt>
      <trkpt lat="47.2878" lon="-2.36454">
        <ele>86</ele>
        <time>2019-09-22T09:56:52Z</time>
      </trkpt>
      <trkpt lat="47.28777" lon="-2.36461">
        <ele>86</ele>
        <time>2019-09-22T09:56:53Z</time>
      </trkpt>
      <trkpt lat="47.28773" lon="-2.36469">
        <ele>87</ele>
        <time>2019-09-22T09:56:54Z</time>
      </trkpt>
      <trkpt lat="47.2877" lon="-2.36477">
        <ele>87</ele>
        <time>2019-09-22T09:56:55Z</time>
      </trkpt>
      <trkpt lat="47.28767" lon="-2.36485">
        <ele>87</ele>
        <time>2019-09-22T09:56:56Z</time>
      </trkpt>
      <trkpt lat="47.2876" lon="-2.365">
        <ele>88</ele>
        <time>2019-09-22T09:56:58Z</time>
      </trkpt>
      <trkpt lat="47.28757" lon="-2.36508">
        <ele>88</ele>
        <time>2019-09-22T09:56:59Z</time>
      </trkpt>
      <trkpt lat="47.28754" lon="-2.36516">
        <ele>88</ele>
        <time>2019-09-22T09:57:00Z</time>
      </trkpt>
      <trkpt lat="47.2875" lon="-2.36524">
        <ele>88</ele>
        <time>2019-09-22T09:57:01Z</time>
      </trkpt>
      <trkpt lat="47.28746" lon="-2.36532">
        <ele>88</ele>
        <time>2019-09-22T09:57:02Z</time>
      </trkpt>
      <trkpt lat="47.28738" lon="-2.36549">
        <ele>88</ele>
        <time>2019-09-22T09:57:04Z</time>
      </trkpt>
      <trkpt lat="47.28735" lon="-2.36556">
        <ele>88</ele>
        <time>2019-09-22T09:57:05Z</time>
      </trkpt>
      <trkpt lat="47.28732" lon="-2.36564">
        <ele>88</ele>
        <time>2019-09-22T09:57:06Z</time>
      </trkpt>
      <trkpt lat="47.28729" lon="-2.36571">
        <ele>88</ele>
        <time>2019-09-22T09:57:07Z</time>
      </trkpt>
      <trkpt lat="47.28722" lon="-2.36586">
        <ele>89</ele>
        <time>2019-09-22T09:57:09Z</time>
      </trkpt>
      <trkpt lat="47.28719" lon="-2.36592">
        <ele>89</ele>
        <time>2019-09-22T09:57:10Z</time>
      </trkpt>
      <trkpt lat="47.28715" lon="-2.36599">
        <ele>89</ele>
        <time>2019-09-22T09:57:11Z</time>
      </trkpt>
      <trkpt lat="47.28711" lon="-2.36606">
        <ele>89</ele>
        <time>2019-09-22T09:57:12Z</time>
      </trkpt>
      <trkpt lat="47.28687" lon="-2.36629">
        <ele>88</ele>
        <time>2019-09-22T09:57:16Z</time>
      </trkpt>
      <trkpt lat="47.2868" lon="-2.36634">
        <ele>88</ele>
        <time>2019-09-22T09:57:17Z</time>
      </trkpt>
      <trkpt lat="47.28673" lon="-2.36639">
        <ele>88</ele>
        <time>2019-09-22T09:57:18Z</time>
      </trkpt>
      <trkpt lat="47.28667" lon="-2.36645">
        <ele>87</ele>
        <time>2019-09-22T09:57:19Z</time>
      </trkpt>
      <trkpt lat="47.2866" lon="-2.3665">
        <ele>88</ele>
        <time>2019-09-22T09:57:20Z</time>
      </trkpt>
      <trkpt lat="47.28638" lon="-2.36665">
        <ele>87</ele>
        <time>2019-09-22T09:57:23Z</time>
      </trkpt>
      <trkpt lat="47.28631" lon="-2.3667">
        <ele>87</ele>
        <time>2019-09-22T09:57:24Z</time>
      </trkpt>
      <trkpt lat="47.28622" lon="-2.36672">
        <ele>87</ele>
        <time>2019-09-22T09:57:25Z</time>
      </trkpt>
      <trkpt lat="47.28571" lon="-2.36676">
        <ele>86</ele>
        <time>2019-09-22T09:57:30Z</time>
      </trkpt>
      <trkpt lat="47.28562" lon="-2.36676">
        <ele>85</ele>
        <time>2019-09-22T09:57:31Z</time>
      </trkpt>
      <trkpt lat="47.28552" lon="-2.36676">
        <ele>85</ele>
        <time>2019-09-22T09:57:32Z</time>
      </trkpt>
      <trkpt lat="47.28537" lon="-2.36678">
        <ele>84</ele>
        <time>2019-09-22T09:57:34Z</time>
      </trkpt>
      <trkpt lat="47.28523" lon="-2.36678">
        <ele>83</ele>
        <time>2019-09-22T09:57:36Z</time>
      </trkpt>
      <trkpt lat="47.28516" lon="-2.36679">
        <ele>82</ele>
        <time>2019-09-22T09:57:37Z</time>
      </trkpt>
      <trkpt lat="47.28511" lon="-2.36681">
        <ele>82</ele>
        <time>2019-09-22T09:57:38Z</time>
      </trkpt>
      <trkpt lat="47.28505" lon="-2.36683">
        <ele>81</ele>
        <time>2019-09-22T09:57:39Z</time>
      </trkpt>
      <trkpt lat="47.28498" lon="-2.36685">
        <ele>81</ele>
        <time>2019-09-22T09:57:40Z</time>
      </trkpt>
      <trkpt lat="47.28491" lon="-2.36687">
        <ele>80</ele>
        <time>2019-09-22T09:57:41Z</time>
      </trkpt>
      <trkpt lat="47.28485" lon="-2.3669">
        <ele>80</ele>
        <time>2019-09-22T09:57:42Z</time>
      </trkpt>
      <trkpt lat="47.28479" lon="-2.36695">
        <ele>78</ele>
        <time>2019-09-22T09:57:43Z</time>
      </trkpt>
      <trkpt lat="47.28471" lon="-2.36705">
        <ele>76</ele>
        <time>2019-09-22T09:57:45Z</time>
      </trkpt>
      <trkpt lat="47.28466" lon="-2.3671">
        <ele>75</ele>
        <time>2019-09-22T09:57:46Z</time>
      </trkpt>
      <trkpt lat="47.28462" lon="-2.36714">
        <ele>75</ele>
        <time>2019-09-22T09:57:47Z</time>
      </trkpt>
      <trkpt lat="47.28449" lon="-2.3672">
        <ele>75</ele>
        <time>2019-09-22T09:57:50Z</time>
      </trkpt>
      <trkpt lat="47.28445" lon="-2.36716">
        <ele>75</ele>
        <time>2019-09-22T09:57:51Z</time>
      </trkpt>
      <trkpt lat="47.28441" lon="-2.36709">
        <ele>75</ele>
        <time>2019-09-22T09:57:52Z</time>
      </trkpt>
      <trkpt lat="47.28438" lon="-2.36702">
        <ele>75</ele>
        <time>2019-09-22T09:57:53Z</time>
      </trkpt>
      <trkpt lat="47.28434" lon="-2.36695">
        <ele>74</ele>
        <time>2019-09-22T09:57:54Z</time>
      </trkpt>
      <trkpt lat="47.28431" lon="-2.36688">
        <ele>74</ele>
        <time>2019-09-22T09:57:55Z</time>
      </trkpt>
      <trkpt lat="47.28428" lon="-2.36681">
        <ele>74</ele>
        <time>2019-09-22T09:57:56Z</time>
      </trkpt>
      <trkpt lat="47.28425" lon="-2.36673">
        <ele>74</ele>
        <time>2019-09-22T09:57:57Z</time>
      </trkpt>
      <trkpt lat="47.28422" lon="-2.36665">
        <ele>74</ele>
        <time>2019-09-22T09:57:58Z</time>
      </trkpt>
      <trkpt lat="47.28418" lon="-2.36658">
        <ele>74</ele>
        <time>2019-09-22T09:57:59Z</time>
      </trkpt>
      <trkpt lat="47.28414" lon="-2.36651">
        <ele>74</ele>
        <time>2019-09-22T09:58:00Z</time>
      </trkpt>
      <trkpt lat="47.28409" lon="-2.36644">
        <ele>74</ele>
        <time>2019-09-22T09:58:01Z</time>
      </trkpt>
      <trkpt lat="47.284" lon="-2.36628">
        <ele>74</ele>
        <time>2019-09-22T09:58:03Z</time>
      </trkpt>
      <trkpt lat="47.28383" lon="-2.36603">
        <ele>72</ele>
        <time>2019-09-22T09:58:06Z</time>
      </trkpt>
      <trkpt lat="47.28378" lon="-2.36594">
        <ele>71</ele>
        <time>2019-09-22T09:58:07Z</time>
      </trkpt>
      <trkpt lat="47.28369" lon="-2.36581">
        <ele>71</ele>
        <time>2019-09-22T09:58:09Z</time>
      </trkpt>
      <trkpt lat="47.28362" lon="-2.3658">
        <ele>70</ele>
        <time>2019-09-22T09:58:10Z</time>
      </trkpt>
      <trkpt lat="47.28355" lon="-2.36582">
        <ele>69</ele>
        <time>2019-09-22T09:58:11Z</time>
      </trkpt>
      <trkpt lat="47.28349" lon="-2.36587">
        <ele>68</ele>
        <time>2019-09-22T09:58:12Z</time>
      </trkpt>
      <trkpt lat="47.28343" lon="-2.36594">
        <ele>68</ele>
        <time>2019-09-22T09:58:13Z</time>
      </trkpt>
      <trkpt lat="47.28338" lon="-2.36601">
        <ele>67</ele>
        <time>2019-09-22T09:58:14Z</time>
      </trkpt>
      <trkpt lat="47.28332" lon="-2.36608">
        <ele>67</ele>
        <time>2019-09-22T09:58:15Z</time>
      </trkpt>
      <trkpt lat="47.28326" lon="-2.36617">
        <ele>67</ele>
        <time>2019-09-22T09:58:16Z</time>
      </trkpt>
      <trkpt lat="47.28319" lon="-2.36624">
        <ele>67</ele>
        <time>2019-09-22T09:58:17Z</time>
      </trkpt>
      <trkpt lat="47.28313" lon="-2.36632">
        <ele>66</ele>
        <time>2019-09-22T09:58:18Z</time>
      </trkpt>
      <trkpt lat="47.28305" lon="-2.36639">
        <ele>65</ele>
        <time>2019-09-22T09:58:19Z</time>
      </trkpt>
      <trkpt lat="47.28299" lon="-2.36646">
        <ele>64</ele>
        <time>2019-09-22T09:58:20Z</time>
      </trkpt>
      <trkpt lat="47.28293" lon="-2.36653">
        <ele>63</ele>
        <time>2019-09-22T09:58:21Z</time>
      </trkpt>
      <trkpt lat="47.28286" lon="-2.36661">
        <ele>63</ele>
        <time>2019-09-22T09:58:22Z</time>
      </trkpt>
      <trkpt lat="47.2828" lon="-2.36668">
        <ele>62</ele>
        <time>2019-09-22T09:58:23Z</time>
      </trkpt>
      <trkpt lat="47.28273" lon="-2.36676">
        <ele>62</ele>
        <time>2019-09-22T09:58:24Z</time>
      </trkpt>
      <trkpt lat="47.28255" lon="-2.36699">
        <ele>62</ele>
        <time>2019-09-22T09:58:27Z</time>
      </trkpt>
      <trkpt lat="47.28249" lon="-2.36707">
        <ele>61</ele>
        <time>2019-09-22T09:58:28Z</time>
      </trkpt>
      <trkpt lat="47.28243" lon="-2.36714">
        <ele>61</ele>
        <time>2019-09-22T09:58:29Z</time>
      </trkpt>
      <trkpt lat="47.28237" lon="-2.36721">
        <ele>61</ele>
        <time>2019-09-22T09:58:30Z</time>
      </trkpt>
      <trkpt lat="47.28232" lon="-2.36728">
        <ele>60</ele>
        <time>2019-09-22T09:58:31Z</time>
      </trkpt>
      <trkpt lat="47.28226" lon="-2.36735">
        <ele>60</ele>
        <time>2019-09-22T09:58:32Z</time>
      </trkpt>
      <trkpt lat="47.28221" lon="-2.36741">
        <ele>60</ele>
        <time>2019-09-22T09:58:33Z</time>
      </trkpt>
      <trkpt lat="47.28215" lon="-2.36748">
        <ele>59</ele>
        <time>2019-09-22T09:58:34Z</time>
      </trkpt>
      <trkpt lat="47.2821" lon="-2.36754">
        <ele>58</ele>
        <time>2019-09-22T09:58:35Z</time>
      </trkpt>
      <trkpt lat="47.28186" lon="-2.36778">
        <ele>59</ele>
        <time>2019-09-22T09:58:39Z</time>
      </trkpt>
      <trkpt lat="47.28181" lon="-2.36783">
        <ele>59</ele>
        <time>2019-09-22T09:58:40Z</time>
      </trkpt>
      <trkpt lat="47.28176" lon="-2.3679">
        <ele>59</ele>
        <time>2019-09-22T09:58:41Z</time>
      </trkpt>
      <trkpt lat="47.28171" lon="-2.36796">
        <ele>59</ele>
        <time>2019-09-22T09:58:42Z</time>
      </trkpt>
      <trkpt lat="47.28167" lon="-2.36802">
        <ele>59</ele>
        <time>2019-09-22T09:58:43Z</time>
      </trkpt>
      <trkpt lat="47.28162" lon="-2.36808">
        <ele>59</ele>
        <time>2019-09-22T09:58:44Z</time>
      </trkpt>
      <trkpt lat="47.28158" lon="-2.36814">
        <ele>59</ele>
        <time>2019-09-22T09:58:45Z</time>
      </trkpt>
      <trkpt lat="47.28153" lon="-2.3682">
        <ele>59</ele>
        <time>2019-09-22T09:58:46Z</time>
      </trkpt>
      <trkpt lat="47.28149" lon="-2.36844">
        <ele>59</ele>
        <time>2019-09-22T09:58:49Z</time>
      </trkpt>
      <trkpt lat="47.28147" lon="-2.36852">
        <ele>59</ele>
        <time>2019-09-22T09:58:50Z</time>
      </trkpt>
      <trkpt lat="47.28145" lon="-2.3686">
        <ele>58</ele>
        <time>2019-09-22T09:58:51Z</time>
      </trkpt>
      <trkpt lat="47.28143" lon="-2.36868">
        <ele>58</ele>
        <time>2019-09-22T09:58:52Z</time>
      </trkpt>
      <trkpt lat="47.2814" lon="-2.36874">
        <ele>58</ele>
        <time>2019-09-22T09:58:53Z</time>
      </trkpt>
      <trkpt lat="47.28135" lon="-2.3688">
        <ele>58</ele>
        <time>2019-09-22T09:58:54Z</time>
      </trkpt>
      <trkpt lat="47.28131" lon="-2.36884">
        <ele>58</ele>
        <time>2019-09-22T09:58:55Z</time>
      </trkpt>
      <trkpt lat="47.28123" lon="-2.36889">
        <ele>58</ele>
        <time>2019-09-22T09:58:57Z</time>
      </trkpt>
      <trkpt lat="47.28114" lon="-2.36889">
        <ele>58</ele>
        <time>2019-09-22T09:58:59Z</time>
      </trkpt>
      <trkpt lat="47.28106" lon="-2.36886">
        <ele>58</ele>
        <time>2019-09-22T09:59:01Z</time>
      </trkpt>
      <trkpt lat="47.281" lon="-2.36883">
        <ele>58</ele>
        <time>2019-09-22T09:59:03Z</time>
      </trkpt>
      <trkpt lat="47.28095" lon="-2.36883">
        <ele>58</ele>
        <time>2019-09-22T09:59:06Z</time>
      </trkpt>
      <trkpt lat="47.2809" lon="-2.36886">
        <ele>58</ele>
        <time>2019-09-22T09:59:10Z</time>
      </trkpt>
      <trkpt lat="47.28084" lon="-2.36893">
        <ele>58</ele>
        <time>2019-09-22T09:59:14Z</time>
      </trkpt>
      <trkpt lat="47.28079" lon="-2.369">
        <ele>58</ele>
        <time>2019-09-22T09:59:16Z</time>
      </trkpt>
      <trkpt lat="47.28075" lon="-2.36905">
        <ele>58</ele>
        <time>2019-09-22T09:59:17Z</time>
      </trkpt>
      <trkpt lat="47.28072" lon="-2.36909">
        <ele>58</ele>
        <time>2019-09-22T09:59:18Z</time>
      </trkpt>
      <trkpt lat="47.28069" lon="-2.36913">
        <ele>58</ele>
        <time>2019-09-22T09:59:19Z</time>
      </trkpt>
      <trkpt lat="47.28065" lon="-2.36916">
        <ele>59</ele>
        <time>2019-09-22T09:59:20Z</time>
      </trkpt>
      <trkpt lat="47.28059" lon="-2.36924">
        <ele>59</ele>
        <time>2019-09-22T09:59:22Z</time>
      </trkpt>
      <trkpt lat="47.28056" lon="-2.36928">
        <ele>59</ele>
        <time>2019-09-22T09:59:23Z</time>
      </trkpt>
      <trkpt lat="47.28051" lon="-2.36935">
        <ele>59</ele>
        <time>2019-09-22T09:59:25Z</time>
      </trkpt>
      <trkpt lat="47.28049" lon="-2.36938">
        <ele>59</ele>
        <time>2019-09-22T09:59:26Z</time>
      </trkpt>
      <trkpt lat="47.28043" lon="-2.36943">
        <ele>59</ele>
        <time>2019-09-22T09:59:28Z</time>
      </trkpt>
      <trkpt lat="47.28038" lon="-2.36948">
        <ele>60</ele>
        <time>2019-09-22T09:59:30Z</time>
      </trkpt>
      <trkpt lat="47.2803" lon="-2.36953">
        <ele>60</ele>
        <time>2019-09-22T09:59:33Z</time>
      </trkpt>
      <trkpt lat="47.28025" lon="-2.36957">
        <ele>59</ele>
        <time>2019-09-22T09:59:36Z</time>
      </trkpt>
      <trkpt lat="47.28021" lon="-2.36962">
        <ele>58</ele>
        <time>2019-09-22T09:59:38Z</time>
      </trkpt>
      <trkpt lat="47.28017" lon="-2.36971">
        <ele>59</ele>
        <time>2019-09-22T09:59:39Z</time>
      </trkpt>
      <trkpt lat="47.28016" lon="-2.3698">
        <ele>61</ele>
        <time>2019-09-22T09:59:41Z</time>
      </trkpt>
      <trkpt lat="47.2801" lon="-2.36988">
        <ele>62</ele>
        <time>2019-09-22T09:59:43Z</time>
      </trkpt>
      <trkpt lat="47.28007" lon="-2.36991">
        <ele>62</ele>
        <time>2019-09-22T09:59:44Z</time>
      </trkpt>
      <trkpt lat="47.28004" lon="-2.36995">
        <ele>62</ele>
        <time>2019-09-22T09:59:45Z</time>
      </trkpt>
      <trkpt lat="47.28001" lon="-2.36998">
        <ele>62</ele>
        <time>2019-09-22T09:59:46Z</time>
      </trkpt>
      <trkpt lat="47.27999" lon="-2.37001">
        <ele>62</ele>
        <time>2019-09-22T09:59:47Z</time>
      </trkpt>
      <trkpt lat="47.27994" lon="-2.37006">
        <ele>63</ele>
        <time>2019-09-22T09:59:49Z</time>
      </trkpt>
      <trkpt lat="47.27992" lon="-2.37008">
        <ele>63</ele>
        <time>2019-09-22T09:59:50Z</time>
      </trkpt>
      <trkpt lat="47.27989" lon="-2.37011">
        <ele>63</ele>
        <time>2019-09-22T09:59:51Z</time>
      </trkpt>
      <trkpt lat="47.27987" lon="-2.37014">
        <ele>63</ele>
        <time>2019-09-22T09:59:52Z</time>
      </trkpt>
      <trkpt lat="47.2798" lon="-2.3702">
        <ele>62</ele>
        <time>2019-09-22T09:59:54Z</time>
      </trkpt>
      <trkpt lat="47.27977" lon="-2.37022">
        <ele>63</ele>
        <time>2019-09-22T09:59:55Z</time>
      </trkpt>
      <trkpt lat="47.27972" lon="-2.37027">
        <ele>63</ele>
        <time>2019-09-22T09:59:57Z</time>
      </trkpt>
      <trkpt lat="47.27966" lon="-2.37034">
        <ele>62</ele>
        <time>2019-09-22T09:59:59Z</time>
      </trkpt>
      <trkpt lat="47.27959" lon="-2.37041">
        <ele>62</ele>
        <time>2019-09-22T10:00:01Z</time>
      </trkpt>
      <trkpt lat="47.27952" lon="-2.37049">
        <ele>62</ele>
        <time>2019-09-22T10:00:04Z</time>
      </trkpt>
      <trkpt lat="47.27948" lon="-2.37052">
        <ele>61</ele>
        <time>2019-09-22T10:00:08Z</time>
      </trkpt>
      <trkpt lat="47.27946" lon="-2.37054">
        <ele>60</ele>
        <time>2019-09-22T10:00:12Z</time>
      </trkpt>
      <trkpt lat="47.27946" lon="-2.37054">
        <ele>6</ele>
        <time>2019-09-22T10:00:20Z</time>
      </trkpt>
      <trkpt lat="47.27946" lon="-2.37054">
        <ele>6</ele>
        <time>2019-09-22T10:00:50Z</time>
      </trkpt>
      <trkpt lat="47.27928" lon="-2.37078">
        <ele>59</ele>
        <time>2019-09-22T10:00:50Z</time>
      </trkpt>
      <trkpt lat="47.27908" lon="-2.37098">
        <ele>64</ele>
        <time>2019-09-22T10:00:56Z</time>
      </trkpt>
      <trkpt lat="47.27907" lon="-2.37106">
        <ele>65</ele>
        <time>2019-09-22T10:00:57Z</time>
      </trkpt>
      <trkpt lat="47.279" lon="-2.37114">
        <ele>65</ele>
        <time>2019-09-22T10:00:59Z</time>
      </trkpt>
      <trkpt lat="47.27897" lon="-2.37118">
        <ele>65</ele>
        <time>2019-09-22T10:01:00Z</time>
      </trkpt>
      <trkpt lat="47.27894" lon="-2.37122">
        <ele>66</ele>
        <time>2019-09-22T10:01:01Z</time>
      </trkpt>
      <trkpt lat="47.2789" lon="-2.37126">
        <ele>66</ele>
        <time>2019-09-22T10:01:02Z</time>
      </trkpt>
      <trkpt lat="47.27887" lon="-2.3713">
        <ele>65</ele>
        <time>2019-09-22T10:01:03Z</time>
      </trkpt>
      <trkpt lat="47.27884" lon="-2.37134">
        <ele>65</ele>
        <time>2019-09-22T10:01:04Z</time>
      </trkpt>
      <trkpt lat="47.27877" lon="-2.37138">
        <ele>65</ele>
        <time>2019-09-22T10:01:06Z</time>
      </trkpt>
      <trkpt lat="47.27866" lon="-2.3714">
        <ele>65</ele>
        <time>2019-09-22T10:01:09Z</time>
      </trkpt>
      <trkpt lat="47.27861" lon="-2.37143">
        <ele>64</ele>
        <time>2019-09-22T10:01:11Z</time>
      </trkpt>
      <trkpt lat="47.27857" lon="-2.37148">
        <ele>65</ele>
        <time>2019-09-22T10:01:14Z</time>
      </trkpt>
      <trkpt lat="47.27853" lon="-2.37155">
        <ele>65</ele>
        <time>2019-09-22T10:01:17Z</time>
      </trkpt>
      <trkpt lat="47.27851" lon="-2.37158">
        <ele>65</ele>
        <time>2019-09-22T10:01:19Z</time>
      </trkpt>
      <trkpt lat="47.27848" lon="-2.37164">
        <ele>66</ele>
        <time>2019-09-22T10:01:22Z</time>
      </trkpt>
      <trkpt lat="47.27844" lon="-2.37172">
        <ele>65</ele>
        <time>2019-09-22T10:01:25Z</time>
      </trkpt>
      <trkpt lat="47.27835" lon="-2.37172">
        <ele>64</ele>
        <time>2019-09-22T10:01:28Z</time>
      </trkpt>
      <trkpt lat="47.2783" lon="-2.37168">
        <ele>64</ele>
        <time>2019-09-22T10:01:30Z</time>
      </trkpt>
      <trkpt lat="47.27828" lon="-2.37166">
        <ele>65</ele>
        <time>2019-09-22T10:01:31Z</time>
      </trkpt>
      <trkpt lat="47.27823" lon="-2.3716">
        <ele>64</ele>
        <time>2019-09-22T10:01:35Z</time>
      </trkpt>
      <trkpt lat="47.2782" lon="-2.37157">
        <ele>61</ele>
        <time>2019-09-22T10:01:40Z</time>
      </trkpt>
      <trkpt lat="47.2782" lon="-2.37157">
        <ele>7.7</ele>
        <time>2019-09-22T10:01:48Z</time>
      </trkpt>
      <trkpt lat="47.2782" lon="-2.37157">
        <ele>7.7</ele>
        <time>2019-09-22T10:02:50Z</time>
      </trkpt>
      <trkpt lat="47.27804" lon="-2.3714">
        <ele>61</ele>
        <time>2019-09-22T10:02:50Z</time>
      </trkpt>
      <trkpt lat="47.27794" lon="-2.37105">
        <ele>59</ele>
        <time>2019-09-22T10:02:55Z</time>
      </trkpt>
      <trkpt lat="47.27791" lon="-2.37098">
        <ele>58</ele>
        <time>2019-09-22T10:02:56Z</time>
      </trkpt>
      <trkpt lat="47.27789" lon="-2.3709">
        <ele>57</ele>
        <time>2019-09-22T10:02:57Z</time>
      </trkpt>
      <trkpt lat="47.27787" lon="-2.37083">
        <ele>57</ele>
        <time>2019-09-22T10:02:58Z</time>
      </trkpt>
      <trkpt lat="47.27785" lon="-2.37075">
        <ele>56</ele>
        <time>2019-09-22T10:02:59Z</time>
      </trkpt>
      <trkpt lat="47.27783" lon="-2.37067">
        <ele>57</ele>
        <time>2019-09-22T10:03:00Z</time>
      </trkpt>
      <trkpt lat="47.27779" lon="-2.3705">
        <ele>56</ele>
        <time>2019-09-22T10:03:02Z</time>
      </trkpt>
      <trkpt lat="47.27777" lon="-2.37042">
        <ele>56</ele>
        <time>2019-09-22T10:03:03Z</time>
      </trkpt>
      <trkpt lat="47.27775" lon="-2.37034">
        <ele>56</ele>
        <time>2019-09-22T10:03:04Z</time>
      </trkpt>
      <trkpt lat="47.27773" lon="-2.37025">
        <ele>56</ele>
        <time>2019-09-22T10:03:05Z</time>
      </trkpt>
      <trkpt lat="47.2777" lon="-2.37018">
        <ele>56</ele>
        <time>2019-09-22T10:03:06Z</time>
      </trkpt>
      <trkpt lat="47.27766" lon="-2.37001">
        <ele>56</ele>
        <time>2019-09-22T10:03:08Z</time>
      </trkpt>
      <trkpt lat="47.27761" lon="-2.36985">
        <ele>56</ele>
        <time>2019-09-22T10:03:10Z</time>
      </trkpt>
      <trkpt lat="47.27759" lon="-2.36977">
        <ele>56</ele>
        <time>2019-09-22T10:03:11Z</time>
      </trkpt>
      <trkpt lat="47.27754" lon="-2.36961">
        <ele>56</ele>
        <time>2019-09-22T10:03:13Z</time>
      </trkpt>
      <trkpt lat="47.27751" lon="-2.36952">
        <ele>56</ele>
        <time>2019-09-22T10:03:15Z</time>
      </trkpt>
      <trkpt lat="47.27749" lon="-2.36944">
        <ele>56</ele>
        <time>2019-09-22T10:03:16Z</time>
      </trkpt>
      <trkpt lat="47.27744" lon="-2.36928">
        <ele>56</ele>
        <time>2019-09-22T10:03:18Z</time>
      </trkpt>
      <trkpt lat="47.27739" lon="-2.36911">
        <ele>56</ele>
        <time>2019-09-22T10:03:19Z</time>
      </trkpt>
      <trkpt lat="47.27735" lon="-2.36895">
        <ele>55</ele>
        <time>2019-09-22T10:03:21Z</time>
      </trkpt>
      <trkpt lat="47.27733" lon="-2.36887">
        <ele>55</ele>
        <time>2019-09-22T10:03:22Z</time>
      </trkpt>
      <trkpt lat="47.2773" lon="-2.36879">
        <ele>55</ele>
        <time>2019-09-22T10:03:23Z</time>
      </trkpt>
      <trkpt lat="47.27728" lon="-2.36871">
        <ele>55</ele>
        <time>2019-09-22T10:03:24Z</time>
      </trkpt>
      <trkpt lat="47.27725" lon="-2.36863">
        <ele>56</ele>
        <time>2019-09-22T10:03:25Z</time>
      </trkpt>
      <trkpt lat="47.27722" lon="-2.36855">
        <ele>56</ele>
        <time>2019-09-22T10:03:26Z</time>
      </trkpt>
      <trkpt lat="47.27719" lon="-2.36846">
        <ele>55</ele>
        <time>2019-09-22T10:03:27Z</time>
      </trkpt>
      <trkpt lat="47.27717" lon="-2.36838">
        <ele>56</ele>
        <time>2019-09-22T10:03:28Z</time>
      </trkpt>
      <trkpt lat="47.27715" lon="-2.3683">
        <ele>56</ele>
        <time>2019-09-22T10:03:29Z</time>
      </trkpt>
      <trkpt lat="47.27713" lon="-2.36821">
        <ele>56</ele>
        <time>2019-09-22T10:03:30Z</time>
      </trkpt>
      <trkpt lat="47.27711" lon="-2.36813">
        <ele>56</ele>
        <time>2019-09-22T10:03:31Z</time>
      </trkpt>
      <trkpt lat="47.27708" lon="-2.36805">
        <ele>56</ele>
        <time>2019-09-22T10:03:32Z</time>
      </trkpt>
      <trkpt lat="47.27706" lon="-2.36797">
        <ele>56</ele>
        <time>2019-09-22T10:03:33Z</time>
      </trkpt>
      <trkpt lat="47.27703" lon="-2.36788">
        <ele>55</ele>
        <time>2019-09-22T10:03:34Z</time>
      </trkpt>
      <trkpt lat="47.277" lon="-2.3678">
        <ele>55</ele>
        <time>2019-09-22T10:03:35Z</time>
      </trkpt>
      <trkpt lat="47.27696" lon="-2.36764">
        <ele>55</ele>
        <time>2019-09-22T10:03:38Z</time>
      </trkpt>
      <trkpt lat="47.27693" lon="-2.36756">
        <ele>56</ele>
        <time>2019-09-22T10:03:39Z</time>
      </trkpt>
      <trkpt lat="47.2769" lon="-2.36748">
        <ele>55</ele>
        <time>2019-09-22T10:03:40Z</time>
      </trkpt>
      <trkpt lat="47.27688" lon="-2.36739">
        <ele>55</ele>
        <time>2019-09-22T10:03:41Z</time>
      </trkpt>
      <trkpt lat="47.27685" lon="-2.36731">
        <ele>56</ele>
        <time>2019-09-22T10:03:42Z</time>
      </trkpt>
      <trkpt lat="47.27682" lon="-2.36723">
        <ele>56</ele>
        <time>2019-09-22T10:03:43Z</time>
      </trkpt>
      <trkpt lat="47.27676" lon="-2.36706">
        <ele>55</ele>
        <time>2019-09-22T10:03:44Z</time>
      </trkpt>
      <trkpt lat="47.27673" lon="-2.36698">
        <ele>55</ele>
        <time>2019-09-22T10:03:45Z</time>
      </trkpt>
      <trkpt lat="47.2767" lon="-2.3669">
        <ele>55</ele>
        <time>2019-09-22T10:03:46Z</time>
      </trkpt>
      <trkpt lat="47.27668" lon="-2.36681">
        <ele>56</ele>
        <time>2019-09-22T10:03:47Z</time>
      </trkpt>
      <trkpt lat="47.27662" lon="-2.36665">
        <ele>56</ele>
        <time>2019-09-22T10:03:49Z</time>
      </trkpt>
      <trkpt lat="47.27659" lon="-2.36657">
        <ele>56</ele>
        <time>2019-09-22T10:03:50Z</time>
      </trkpt>
      <trkpt lat="47.27656" lon="-2.36649">
        <ele>55</ele>
        <time>2019-09-22T10:03:51Z</time>
      </trkpt>
      <trkpt lat="47.27653" lon="-2.36641">
        <ele>56</ele>
        <time>2019-09-22T10:03:52Z</time>
      </trkpt>
      <trkpt lat="47.2765" lon="-2.36633">
        <ele>56</ele>
        <time>2019-09-22T10:03:53Z</time>
      </trkpt>
      <trkpt lat="47.27648" lon="-2.36625">
        <ele>56</ele>
        <time>2019-09-22T10:03:54Z</time>
      </trkpt>
      <trkpt lat="47.27646" lon="-2.36616">
        <ele>56</ele>
        <time>2019-09-22T10:03:55Z</time>
      </trkpt>
      <trkpt lat="47.27643" lon="-2.36608">
        <ele>56</ele>
        <time>2019-09-22T10:03:56Z</time>
      </trkpt>
      <trkpt lat="47.27641" lon="-2.366">
        <ele>56</ele>
        <time>2019-09-22T10:03:57Z</time>
      </trkpt>
      <trkpt lat="47.27638" lon="-2.36591">
        <ele>56</ele>
        <time>2019-09-22T10:03:58Z</time>
      </trkpt>
      <trkpt lat="47.27635" lon="-2.36583">
        <ele>56</ele>
        <time>2019-09-22T10:03:59Z</time>
      </trkpt>
      <trkpt lat="47.27632" lon="-2.36576">
        <ele>56</ele>
        <time>2019-09-22T10:04:00Z</time>
      </trkpt>
      <trkpt lat="47.27629" lon="-2.36567">
        <ele>56</ele>
        <time>2019-09-22T10:04:01Z</time>
      </trkpt>
      <trkpt lat="47.27627" lon="-2.36559">
        <ele>56</ele>
        <time>2019-09-22T10:04:02Z</time>
      </trkpt>
      <trkpt lat="47.27624" lon="-2.36551">
        <ele>56</ele>
        <time>2019-09-22T10:04:03Z</time>
      </trkpt>
      <trkpt lat="47.27621" lon="-2.36544">
        <ele>56</ele>
        <time>2019-09-22T10:04:04Z</time>
      </trkpt>
      <trkpt lat="47.27616" lon="-2.36528">
        <ele>56</ele>
        <time>2019-09-22T10:04:06Z</time>
      </trkpt>
      <trkpt lat="47.27613" lon="-2.3652">
        <ele>56</ele>
        <time>2019-09-22T10:04:07Z</time>
      </trkpt>
      <trkpt lat="47.2761" lon="-2.36512">
        <ele>56</ele>
        <time>2019-09-22T10:04:08Z</time>
      </trkpt>
      <trkpt lat="47.27607" lon="-2.36503">
        <ele>56</ele>
        <time>2019-09-22T10:04:09Z</time>
      </trkpt>
      <trkpt lat="47.27604" lon="-2.36495">
        <ele>56</ele>
        <time>2019-09-22T10:04:10Z</time>
      </trkpt>
      <trkpt lat="47.27601" lon="-2.36487">
        <ele>56</ele>
        <time>2019-09-22T10:04:11Z</time>
      </trkpt>
      <trkpt lat="47.27598" lon="-2.3648">
        <ele>55</ele>
        <time>2019-09-22T10:04:12Z</time>
      </trkpt>
      <trkpt lat="47.27589" lon="-2.36456">
        <ele>56</ele>
        <time>2019-09-22T10:04:15Z</time>
      </trkpt>
      <trkpt lat="47.27586" lon="-2.36449">
        <ele>56</ele>
        <time>2019-09-22T10:04:16Z</time>
      </trkpt>
      <trkpt lat="47.2758" lon="-2.36433">
        <ele>56</ele>
        <time>2019-09-22T10:04:18Z</time>
      </trkpt>
      <trkpt lat="47.27577" lon="-2.36424">
        <ele>56</ele>
        <time>2019-09-22T10:04:19Z</time>
      </trkpt>
      <trkpt lat="47.27574" lon="-2.36416">
        <ele>56</ele>
        <time>2019-09-22T10:04:20Z</time>
      </trkpt>
      <trkpt lat="47.27571" lon="-2.36407">
        <ele>56</ele>
        <time>2019-09-22T10:04:21Z</time>
      </trkpt>
      <trkpt lat="47.27568" lon="-2.36398">
        <ele>56</ele>
        <time>2019-09-22T10:04:22Z</time>
      </trkpt>
      <trkpt lat="47.27565" lon="-2.3639">
        <ele>55</ele>
        <time>2019-09-22T10:04:23Z</time>
      </trkpt>
      <trkpt lat="47.27562" lon="-2.36382">
        <ele>55</ele>
        <time>2019-09-22T10:04:24Z</time>
      </trkpt>
      <trkpt lat="47.27559" lon="-2.36374">
        <ele>55</ele>
        <time>2019-09-22T10:04:25Z</time>
      </trkpt>
      <trkpt lat="47.27556" lon="-2.36366">
        <ele>55</ele>
        <time>2019-09-22T10:04:26Z</time>
      </trkpt>
      <trkpt lat="47.27553" lon="-2.36358">
        <ele>55</ele>
        <time>2019-09-22T10:04:27Z</time>
      </trkpt>
      <trkpt lat="47.2755" lon="-2.3635">
        <ele>55</ele>
        <time>2019-09-22T10:04:28Z</time>
      </trkpt>
      <trkpt lat="47.27547" lon="-2.36342">
        <ele>55</ele>
        <time>2019-09-22T10:04:29Z</time>
      </trkpt>
      <trkpt lat="47.27535" lon="-2.3631">
        <ele>55</ele>
        <time>2019-09-22T10:04:33Z</time>
      </trkpt>
      <trkpt lat="47.27531" lon="-2.36302">
        <ele>55</ele>
        <time>2019-09-22T10:04:34Z</time>
      </trkpt>
      <trkpt lat="47.27528" lon="-2.36294">
        <ele>55</ele>
        <time>2019-09-22T10:04:35Z</time>
      </trkpt>
      <trkpt lat="47.27522" lon="-2.36277">
        <ele>56</ele>
        <time>2019-09-22T10:04:37Z</time>
      </trkpt>
      <trkpt lat="47.27519" lon="-2.36269">
        <ele>55</ele>
        <time>2019-09-22T10:04:38Z</time>
      </trkpt>
      <trkpt lat="47.27516" lon="-2.36261">
        <ele>55</ele>
        <time>2019-09-22T10:04:39Z</time>
      </trkpt>
      <trkpt lat="47.27509" lon="-2.36245">
        <ele>55</ele>
        <time>2019-09-22T10:04:41Z</time>
      </trkpt>
      <trkpt lat="47.27503" lon="-2.36228">
        <ele>55</ele>
        <time>2019-09-22T10:04:43Z</time>
      </trkpt>
      <trkpt lat="47.275" lon="-2.36219">
        <ele>55</ele>
        <time>2019-09-22T10:04:44Z</time>
      </trkpt>
      <trkpt lat="47.27494" lon="-2.36202">
        <ele>56</ele>
        <time>2019-09-22T10:04:46Z</time>
      </trkpt>
      <trkpt lat="47.27491" lon="-2.36195">
        <ele>56</ele>
        <time>2019-09-22T10:04:47Z</time>
      </trkpt>
      <trkpt lat="47.27487" lon="-2.36187">
        <ele>56</ele>
        <time>2019-09-22T10:04:48Z</time>
      </trkpt>
      <trkpt lat="47.27484" lon="-2.36179">
        <ele>56</ele>
        <time>2019-09-22T10:04:49Z</time>
      </trkpt>
      <trkpt lat="47.27482" lon="-2.3617">
        <ele>56</ele>
        <time>2019-09-22T10:04:50Z</time>
      </trkpt>
      <trkpt lat="47.27479" lon="-2.36162">
        <ele>56</ele>
        <time>2019-09-22T10:04:51Z</time>
      </trkpt>
      <trkpt lat="47.27476" lon="-2.36155">
        <ele>56</ele>
        <time>2019-09-22T10:04:52Z</time>
      </trkpt>
      <trkpt lat="47.27473" lon="-2.36147">
        <ele>56</ele>
        <time>2019-09-22T10:04:53Z</time>
      </trkpt>
      <trkpt lat="47.2747" lon="-2.36138">
        <ele>56</ele>
        <time>2019-09-22T10:04:54Z</time>
      </trkpt>
      <trkpt lat="47.27467" lon="-2.3613">
        <ele>56</ele>
        <time>2019-09-22T10:04:55Z</time>
      </trkpt>
      <trkpt lat="47.27465" lon="-2.36121">
        <ele>56</ele>
        <time>2019-09-22T10:04:56Z</time>
      </trkpt>
      <trkpt lat="47.27462" lon="-2.36113">
        <ele>56</ele>
        <time>2019-09-22T10:04:57Z</time>
      </trkpt>
      <trkpt lat="47.27459" lon="-2.36106">
        <ele>56</ele>
        <time>2019-09-22T10:04:58Z</time>
      </trkpt>
      <trkpt lat="47.27456" lon="-2.36098">
        <ele>56</ele>
        <time>2019-09-22T10:04:59Z</time>
      </trkpt>
      <trkpt lat="47.27452" lon="-2.3609">
        <ele>56</ele>
        <time>2019-09-22T10:05:00Z</time>
      </trkpt>
      <trkpt lat="47.27448" lon="-2.36082">
        <ele>56</ele>
        <time>2019-09-22T10:05:01Z</time>
      </trkpt>
      <trkpt lat="47.27445" lon="-2.36074">
        <ele>56</ele>
        <time>2019-09-22T10:05:02Z</time>
      </trkpt>
      <trkpt lat="47.27443" lon="-2.36066">
        <ele>56</ele>
        <time>2019-09-22T10:05:03Z</time>
      </trkpt>
      <trkpt lat="47.2744" lon="-2.36057">
        <ele>56</ele>
        <time>2019-09-22T10:05:04Z</time>
      </trkpt>
      <trkpt lat="47.27437" lon="-2.36049">
        <ele>55</ele>
        <time>2019-09-22T10:05:05Z</time>
      </trkpt>
      <trkpt lat="47.27433" lon="-2.36042">
        <ele>55</ele>
        <time>2019-09-22T10:05:06Z</time>
      </trkpt>
      <trkpt lat="47.2743" lon="-2.36034">
        <ele>55</ele>
        <time>2019-09-22T10:05:07Z</time>
      </trkpt>
      <trkpt lat="47.2742" lon="-2.36011">
        <ele>55</ele>
        <time>2019-09-22T10:05:10Z</time>
      </trkpt>
      <trkpt lat="47.27414" lon="-2.35995">
        <ele>55</ele>
        <time>2019-09-22T10:05:12Z</time>
      </trkpt>
      <trkpt lat="47.27411" lon="-2.35988">
        <ele>56</ele>
        <time>2019-09-22T10:05:13Z</time>
      </trkpt>
      <trkpt lat="47.27407" lon="-2.3598">
        <ele>56</ele>
        <time>2019-09-22T10:05:14Z</time>
      </trkpt>
      <trkpt lat="47.27404" lon="-2.35973">
        <ele>55</ele>
        <time>2019-09-22T10:05:15Z</time>
      </trkpt>
      <trkpt lat="47.27401" lon="-2.35965">
        <ele>55</ele>
        <time>2019-09-22T10:05:16Z</time>
      </trkpt>
      <trkpt lat="47.27397" lon="-2.35957">
        <ele>55</ele>
        <time>2019-09-22T10:05:17Z</time>
      </trkpt>
      <trkpt lat="47.27387" lon="-2.35932">
        <ele>55</ele>
        <time>2019-09-22T10:05:20Z</time>
      </trkpt>
      <trkpt lat="47.27384" lon="-2.35924">
        <ele>55</ele>
        <time>2019-09-22T10:05:21Z</time>
      </trkpt>
      <trkpt lat="47.27381" lon="-2.35917">
        <ele>55</ele>
        <time>2019-09-22T10:05:22Z</time>
      </trkpt>
      <trkpt lat="47.27378" lon="-2.35909">
        <ele>55</ele>
        <time>2019-09-22T10:05:23Z</time>
      </trkpt>
      <trkpt lat="47.27375" lon="-2.35901">
        <ele>55</ele>
        <time>2019-09-22T10:05:24Z</time>
      </trkpt>
      <trkpt lat="47.27371" lon="-2.35892">
        <ele>55</ele>
        <time>2019-09-22T10:05:25Z</time>
      </trkpt>
      <trkpt lat="47.27368" lon="-2.35885">
        <ele>55</ele>
        <time>2019-09-22T10:05:26Z</time>
      </trkpt>
      <trkpt lat="47.27365" lon="-2.35877">
        <ele>55</ele>
        <time>2019-09-22T10:05:27Z</time>
      </trkpt>
      <trkpt lat="47.27362" lon="-2.35868">
        <ele>54</ele>
        <time>2019-09-22T10:05:28Z</time>
      </trkpt>
      <trkpt lat="47.27359" lon="-2.3586">
        <ele>54</ele>
        <time>2019-09-22T10:05:29Z</time>
      </trkpt>
      <trkpt lat="47.27353" lon="-2.35843">
        <ele>54</ele>
        <time>2019-09-22T10:05:31Z</time>
      </trkpt>
      <trkpt lat="47.2735" lon="-2.35835">
        <ele>54</ele>
        <time>2019-09-22T10:05:32Z</time>
      </trkpt>
      <trkpt lat="47.27346" lon="-2.35827">
        <ele>54</ele>
        <time>2019-09-22T10:05:33Z</time>
      </trkpt>
      <trkpt lat="47.27343" lon="-2.35818">
        <ele>54</ele>
        <time>2019-09-22T10:05:34Z</time>
      </trkpt>
      <trkpt lat="47.2734" lon="-2.3581">
        <ele>54</ele>
        <time>2019-09-22T10:05:35Z</time>
      </trkpt>
      <trkpt lat="47.27336" lon="-2.35802">
        <ele>53</ele>
        <time>2019-09-22T10:05:36Z</time>
      </trkpt>
      <trkpt lat="47.2733" lon="-2.35785">
        <ele>53</ele>
        <time>2019-09-22T10:05:38Z</time>
      </trkpt>
      <trkpt lat="47.27328" lon="-2.35776">
        <ele>53</ele>
        <time>2019-09-22T10:05:39Z</time>
      </trkpt>
      <trkpt lat="47.27325" lon="-2.35767">
        <ele>53</ele>
        <time>2019-09-22T10:05:40Z</time>
      </trkpt>
      <trkpt lat="47.27321" lon="-2.35759">
        <ele>53</ele>
        <time>2019-09-22T10:05:41Z</time>
      </trkpt>
      <trkpt lat="47.27317" lon="-2.35752">
        <ele>53</ele>
        <time>2019-09-22T10:05:42Z</time>
      </trkpt>
      <trkpt lat="47.27313" lon="-2.35744">
        <ele>53</ele>
        <time>2019-09-22T10:05:43Z</time>
      </trkpt>
      <trkpt lat="47.2731" lon="-2.35736">
        <ele>53</ele>
        <time>2019-09-22T10:05:44Z</time>
      </trkpt>
      <trkpt lat="47.27308" lon="-2.35728">
        <ele>53</ele>
        <time>2019-09-22T10:05:45Z</time>
      </trkpt>
      <trkpt lat="47.27306" lon="-2.35719">
        <ele>53</ele>
        <time>2019-09-22T10:05:46Z</time>
      </trkpt>
      <trkpt lat="47.27295" lon="-2.35698">
        <ele>53</ele>
        <time>2019-09-22T10:05:49Z</time>
      </trkpt>
      <trkpt lat="47.27291" lon="-2.3569">
        <ele>53</ele>
        <time>2019-09-22T10:05:50Z</time>
      </trkpt>
      <trkpt lat="47.27287" lon="-2.35682">
        <ele>54</ele>
        <time>2019-09-22T10:05:51Z</time>
      </trkpt>
      <trkpt lat="47.27284" lon="-2.35674">
        <ele>54</ele>
        <time>2019-09-22T10:05:52Z</time>
      </trkpt>
      <trkpt lat="47.2728" lon="-2.35667">
        <ele>54</ele>
        <time>2019-09-22T10:05:53Z</time>
      </trkpt>
      <trkpt lat="47.27271" lon="-2.3565">
        <ele>54</ele>
        <time>2019-09-22T10:05:55Z</time>
      </trkpt>
      <trkpt lat="47.27267" lon="-2.35642">
        <ele>54</ele>
        <time>2019-09-22T10:05:56Z</time>
      </trkpt>
      <trkpt lat="47.27263" lon="-2.35633">
        <ele>54</ele>
        <time>2019-09-22T10:05:57Z</time>
      </trkpt>
      <trkpt lat="47.27259" lon="-2.35624">
        <ele>54</ele>
        <time>2019-09-22T10:05:58Z</time>
      </trkpt>
      <trkpt lat="47.27256" lon="-2.35615">
        <ele>54</ele>
        <time>2019-09-22T10:05:59Z</time>
      </trkpt>
      <trkpt lat="47.27252" lon="-2.35606">
        <ele>54</ele>
        <time>2019-09-22T10:06:00Z</time>
      </trkpt>
      <trkpt lat="47.27243" lon="-2.35589">
        <ele>54</ele>
        <time>2019-09-22T10:06:02Z</time>
      </trkpt>
      <trkpt lat="47.27239" lon="-2.35581">
        <ele>54</ele>
        <time>2019-09-22T10:06:03Z</time>
      </trkpt>
      <trkpt lat="47.27235" lon="-2.35572">
        <ele>54</ele>
        <time>2019-09-22T10:06:04Z</time>
      </trkpt>
      <trkpt lat="47.27232" lon="-2.35564">
        <ele>54</ele>
        <time>2019-09-22T10:06:05Z</time>
      </trkpt>
      <trkpt lat="47.27228" lon="-2.35555">
        <ele>54</ele>
        <time>2019-09-22T10:06:06Z</time>
      </trkpt>
      <trkpt lat="47.27224" lon="-2.35546">
        <ele>54</ele>
        <time>2019-09-22T10:06:07Z</time>
      </trkpt>
      <trkpt lat="47.2722" lon="-2.35538">
        <ele>54</ele>
        <time>2019-09-22T10:06:08Z</time>
      </trkpt>
      <trkpt lat="47.27216" lon="-2.3553">
        <ele>55</ele>
        <time>2019-09-22T10:06:09Z</time>
      </trkpt>
      <trkpt lat="47.27212" lon="-2.35522">
        <ele>55</ele>
        <time>2019-09-22T10:06:10Z</time>
      </trkpt>
      <trkpt lat="47.27208" lon="-2.35514">
        <ele>55</ele>
        <time>2019-09-22T10:06:11Z</time>
      </trkpt>
      <trkpt lat="47.27204" lon="-2.35505">
        <ele>55</ele>
        <time>2019-09-22T10:06:12Z</time>
      </trkpt>
      <trkpt lat="47.27201" lon="-2.35498">
        <ele>55</ele>
        <time>2019-09-22T10:06:13Z</time>
      </trkpt>
      <trkpt lat="47.27196" lon="-2.35489">
        <ele>55</ele>
        <time>2019-09-22T10:06:14Z</time>
      </trkpt>
      <trkpt lat="47.27187" lon="-2.35472">
        <ele>55</ele>
        <time>2019-09-22T10:06:16Z</time>
      </trkpt>
      <trkpt lat="47.27183" lon="-2.35464">
        <ele>55</ele>
        <time>2019-09-22T10:06:17Z</time>
      </trkpt>
      <trkpt lat="47.27174" lon="-2.35446">
        <ele>55</ele>
        <time>2019-09-22T10:06:19Z</time>
      </trkpt>
      <trkpt lat="47.2717" lon="-2.35438">
        <ele>55</ele>
        <time>2019-09-22T10:06:20Z</time>
      </trkpt>
      <trkpt lat="47.27156" lon="-2.35413">
        <ele>55</ele>
        <time>2019-09-22T10:06:23Z</time>
      </trkpt>
      <trkpt lat="47.27152" lon="-2.35405">
        <ele>55</ele>
        <time>2019-09-22T10:06:24Z</time>
      </trkpt>
      <trkpt lat="47.27138" lon="-2.3538">
        <ele>55</ele>
        <time>2019-09-22T10:06:27Z</time>
      </trkpt>
      <trkpt lat="47.27133" lon="-2.35372">
        <ele>55</ele>
        <time>2019-09-22T10:06:28Z</time>
      </trkpt>
      <trkpt lat="47.27129" lon="-2.35364">
        <ele>55</ele>
        <time>2019-09-22T10:06:29Z</time>
      </trkpt>
      <trkpt lat="47.27124" lon="-2.35356">
        <ele>55</ele>
        <time>2019-09-22T10:06:30Z</time>
      </trkpt>
      <trkpt lat="47.27119" lon="-2.35349">
        <ele>55</ele>
        <time>2019-09-22T10:06:31Z</time>
      </trkpt>
      <trkpt lat="47.27115" lon="-2.35341">
        <ele>55</ele>
        <time>2019-09-22T10:06:32Z</time>
      </trkpt>
      <trkpt lat="47.27105" lon="-2.35325">
        <ele>55</ele>
        <time>2019-09-22T10:06:34Z</time>
      </trkpt>
      <trkpt lat="47.271" lon="-2.35317">
        <ele>55</ele>
        <time>2019-09-22T10:06:35Z</time>
      </trkpt>
      <trkpt lat="47.27087" lon="-2.35294">
        <ele>55</ele>
        <time>2019-09-22T10:06:38Z</time>
      </trkpt>
      <trkpt lat="47.27082" lon="-2.35287">
        <ele>55</ele>
        <time>2019-09-22T10:06:39Z</time>
      </trkpt>
      <trkpt lat="47.27077" lon="-2.35279">
        <ele>54</ele>
        <time>2019-09-22T10:06:40Z</time>
      </trkpt>
      <trkpt lat="47.27073" lon="-2.35273">
        <ele>55</ele>
        <time>2019-09-22T10:06:41Z</time>
      </trkpt>
      <trkpt lat="47.27068" lon="-2.35266">
        <ele>55</ele>
        <time>2019-09-22T10:06:42Z</time>
      </trkpt>
      <trkpt lat="47.27064" lon="-2.35258">
        <ele>55</ele>
        <time>2019-09-22T10:06:43Z</time>
      </trkpt>
      <trkpt lat="47.27055" lon="-2.35244">
        <ele>55</ele>
        <time>2019-09-22T10:06:45Z</time>
      </trkpt>
      <trkpt lat="47.27051" lon="-2.35236">
        <ele>55</ele>
        <time>2019-09-22T10:06:46Z</time>
      </trkpt>
      <trkpt lat="47.27046" lon="-2.35229">
        <ele>55</ele>
        <time>2019-09-22T10:06:47Z</time>
      </trkpt>
      <trkpt lat="47.27042" lon="-2.35222">
        <ele>55</ele>
        <time>2019-09-22T10:06:48Z</time>
      </trkpt>
      <trkpt lat="47.27038" lon="-2.35215">
        <ele>55</ele>
        <time>2019-09-22T10:06:49Z</time>
      </trkpt>
      <trkpt lat="47.27033" lon="-2.35208">
        <ele>54</ele>
        <time>2019-09-22T10:06:50Z</time>
      </trkpt>
      <trkpt lat="47.27028" lon="-2.35201">
        <ele>55</ele>
        <time>2019-09-22T10:06:51Z</time>
      </trkpt>
      <trkpt lat="47.27023" lon="-2.35193">
        <ele>55</ele>
        <time>2019-09-22T10:06:52Z</time>
      </trkpt>
      <trkpt lat="47.27018" lon="-2.35185">
        <ele>55</ele>
        <time>2019-09-22T10:06:53Z</time>
      </trkpt>
      <trkpt lat="47.27013" lon="-2.35178">
        <ele>55</ele>
        <time>2019-09-22T10:06:54Z</time>
      </trkpt>
      <trkpt lat="47.27008" lon="-2.3517">
        <ele>55</ele>
        <time>2019-09-22T10:06:55Z</time>
      </trkpt>
      <trkpt lat="47.27003" lon="-2.35163">
        <ele>55</ele>
        <time>2019-09-22T10:06:56Z</time>
      </trkpt>
      <trkpt lat="47.26989" lon="-2.35141">
        <ele>55</ele>
        <time>2019-09-22T10:06:59Z</time>
      </trkpt>
      <trkpt lat="47.26985" lon="-2.35134">
        <ele>55</ele>
        <time>2019-09-22T10:07:00Z</time>
      </trkpt>
      <trkpt lat="47.2698" lon="-2.35126">
        <ele>54</ele>
        <time>2019-09-22T10:07:01Z</time>
      </trkpt>
      <trkpt lat="47.26975" lon="-2.35118">
        <ele>54</ele>
        <time>2019-09-22T10:07:02Z</time>
      </trkpt>
      <trkpt lat="47.2697" lon="-2.35111">
        <ele>54</ele>
        <time>2019-09-22T10:07:03Z</time>
      </trkpt>
      <trkpt lat="47.26966" lon="-2.35103">
        <ele>55</ele>
        <time>2019-09-22T10:07:04Z</time>
      </trkpt>
      <trkpt lat="47.2696" lon="-2.35096">
        <ele>55</ele>
        <time>2019-09-22T10:07:05Z</time>
      </trkpt>
      <trkpt lat="47.26955" lon="-2.35091">
        <ele>55</ele>
        <time>2019-09-22T10:07:06Z</time>
      </trkpt>
      <trkpt lat="47.26951" lon="-2.35083">
        <ele>55</ele>
        <time>2019-09-22T10:07:07Z</time>
      </trkpt>
      <trkpt lat="47.26946" lon="-2.35076">
        <ele>55</ele>
        <time>2019-09-22T10:07:08Z</time>
      </trkpt>
      <trkpt lat="47.26941" lon="-2.35069">
        <ele>55</ele>
        <time>2019-09-22T10:07:09Z</time>
      </trkpt>
      <trkpt lat="47.26936" lon="-2.35062">
        <ele>54</ele>
        <time>2019-09-22T10:07:10Z</time>
      </trkpt>
      <trkpt lat="47.26931" lon="-2.35055">
        <ele>54</ele>
        <time>2019-09-22T10:07:11Z</time>
      </trkpt>
      <trkpt lat="47.26926" lon="-2.35048">
        <ele>54</ele>
        <time>2019-09-22T10:07:12Z</time>
      </trkpt>
      <trkpt lat="47.26921" lon="-2.3504">
        <ele>54</ele>
        <time>2019-09-22T10:07:13Z</time>
      </trkpt>
      <trkpt lat="47.26917" lon="-2.35033">
        <ele>54</ele>
        <time>2019-09-22T10:07:14Z</time>
      </trkpt>
      <trkpt lat="47.26911" lon="-2.35025">
        <ele>54</ele>
        <time>2019-09-22T10:07:15Z</time>
      </trkpt>
      <trkpt lat="47.26906" lon="-2.35018">
        <ele>54</ele>
        <time>2019-09-22T10:07:16Z</time>
      </trkpt>
      <trkpt lat="47.26902" lon="-2.35011">
        <ele>54</ele>
        <time>2019-09-22T10:07:17Z</time>
      </trkpt>
      <trkpt lat="47.26892" lon="-2.34996">
        <ele>54</ele>
        <time>2019-09-22T10:07:19Z</time>
      </trkpt>
      <trkpt lat="47.26887" lon="-2.34988">
        <ele>54</ele>
        <time>2019-09-22T10:07:20Z</time>
      </trkpt>
      <trkpt lat="47.26882" lon="-2.34981">
        <ele>54</ele>
        <time>2019-09-22T10:07:21Z</time>
      </trkpt>
      <trkpt lat="47.26878" lon="-2.34973">
        <ele>53</ele>
        <time>2019-09-22T10:07:22Z</time>
      </trkpt>
      <trkpt lat="47.26874" lon="-2.34966">
        <ele>54</ele>
        <time>2019-09-22T10:07:23Z</time>
      </trkpt>
      <trkpt lat="47.26869" lon="-2.34959">
        <ele>54</ele>
        <time>2019-09-22T10:07:24Z</time>
      </trkpt>
      <trkpt lat="47.26863" lon="-2.34953">
        <ele>53</ele>
        <time>2019-09-22T10:07:25Z</time>
      </trkpt>
      <trkpt lat="47.26858" lon="-2.34946">
        <ele>54</ele>
        <time>2019-09-22T10:07:26Z</time>
      </trkpt>
      <trkpt lat="47.26849" lon="-2.34932">
        <ele>54</ele>
        <time>2019-09-22T10:07:28Z</time>
      </trkpt>
      <trkpt lat="47.26844" lon="-2.34924">
        <ele>54</ele>
        <time>2019-09-22T10:07:29Z</time>
      </trkpt>
      <trkpt lat="47.26839" lon="-2.34917">
        <ele>54</ele>
        <time>2019-09-22T10:07:30Z</time>
      </trkpt>
      <trkpt lat="47.26835" lon="-2.34909">
        <ele>54</ele>
        <time>2019-09-22T10:07:31Z</time>
      </trkpt>
      <trkpt lat="47.26826" lon="-2.34895">
        <ele>54</ele>
        <time>2019-09-22T10:07:33Z</time>
      </trkpt>
      <trkpt lat="47.26821" lon="-2.34888">
        <ele>54</ele>
        <time>2019-09-22T10:07:34Z</time>
      </trkpt>
      <trkpt lat="47.26816" lon="-2.34881">
        <ele>54</ele>
        <time>2019-09-22T10:07:35Z</time>
      </trkpt>
      <trkpt lat="47.26801" lon="-2.34861">
        <ele>54</ele>
        <time>2019-09-22T10:07:38Z</time>
      </trkpt>
      <trkpt lat="47.26796" lon="-2.34854">
        <ele>54</ele>
        <time>2019-09-22T10:07:39Z</time>
      </trkpt>
      <trkpt lat="47.26791" lon="-2.34847">
        <ele>54</ele>
        <time>2019-09-22T10:07:40Z</time>
      </trkpt>
      <trkpt lat="47.26786" lon="-2.3484">
        <ele>54</ele>
        <time>2019-09-22T10:07:41Z</time>
      </trkpt>
      <trkpt lat="47.26781" lon="-2.34833">
        <ele>53</ele>
        <time>2019-09-22T10:07:42Z</time>
      </trkpt>
      <trkpt lat="47.26776" lon="-2.34825">
        <ele>54</ele>
        <time>2019-09-22T10:07:43Z</time>
      </trkpt>
      <trkpt lat="47.2676" lon="-2.34805">
        <ele>54</ele>
        <time>2019-09-22T10:07:46Z</time>
      </trkpt>
      <trkpt lat="47.2675" lon="-2.34792">
        <ele>54</ele>
        <time>2019-09-22T10:07:48Z</time>
      </trkpt>
      <trkpt lat="47.26735" lon="-2.34772">
        <ele>54</ele>
        <time>2019-09-22T10:07:51Z</time>
      </trkpt>
      <trkpt lat="47.26729" lon="-2.34766">
        <ele>54</ele>
        <time>2019-09-22T10:07:52Z</time>
      </trkpt>
      <trkpt lat="47.26724" lon="-2.34759">
        <ele>54</ele>
        <time>2019-09-22T10:07:53Z</time>
      </trkpt>
      <trkpt lat="47.26714" lon="-2.34748">
        <ele>54</ele>
        <time>2019-09-22T10:07:55Z</time>
      </trkpt>
      <trkpt lat="47.26709" lon="-2.34741">
        <ele>54</ele>
        <time>2019-09-22T10:07:56Z</time>
      </trkpt>
      <trkpt lat="47.26704" lon="-2.34735">
        <ele>54</ele>
        <time>2019-09-22T10:07:57Z</time>
      </trkpt>
      <trkpt lat="47.26689" lon="-2.34717">
        <ele>54</ele>
        <time>2019-09-22T10:08:00Z</time>
      </trkpt>
      <trkpt lat="47.26684" lon="-2.34711">
        <ele>54</ele>
        <time>2019-09-22T10:08:01Z</time>
      </trkpt>
      <trkpt lat="47.2668" lon="-2.34706">
        <ele>54</ele>
        <time>2019-09-22T10:08:02Z</time>
      </trkpt>
      <trkpt lat="47.26675" lon="-2.34699">
        <ele>54</ele>
        <time>2019-09-22T10:08:03Z</time>
      </trkpt>
      <trkpt lat="47.2667" lon="-2.34693">
        <ele>55</ele>
        <time>2019-09-22T10:08:04Z</time>
      </trkpt>
      <trkpt lat="47.26665" lon="-2.34688">
        <ele>54</ele>
        <time>2019-09-22T10:08:05Z</time>
      </trkpt>
      <trkpt lat="47.2666" lon="-2.34682">
        <ele>54</ele>
        <time>2019-09-22T10:08:06Z</time>
      </trkpt>
      <trkpt lat="47.26656" lon="-2.34676">
        <ele>54</ele>
        <time>2019-09-22T10:08:07Z</time>
      </trkpt>
      <trkpt lat="47.26651" lon="-2.3467">
        <ele>55</ele>
        <time>2019-09-22T10:08:08Z</time>
      </trkpt>
      <trkpt lat="47.26646" lon="-2.34664">
        <ele>55</ele>
        <time>2019-09-22T10:08:09Z</time>
      </trkpt>
      <trkpt lat="47.26641" lon="-2.34658">
        <ele>55</ele>
        <time>2019-09-22T10:08:10Z</time>
      </trkpt>
      <trkpt lat="47.26636" lon="-2.34651">
        <ele>55</ele>
        <time>2019-09-22T10:08:11Z</time>
      </trkpt>
      <trkpt lat="47.2663" lon="-2.34645">
        <ele>55</ele>
        <time>2019-09-22T10:08:12Z</time>
      </trkpt>
      <trkpt lat="47.26625" lon="-2.34639">
        <ele>55</ele>
        <time>2019-09-22T10:08:13Z</time>
      </trkpt>
      <trkpt lat="47.2662" lon="-2.34633">
        <ele>55</ele>
        <time>2019-09-22T10:08:14Z</time>
      </trkpt>
      <trkpt lat="47.26604" lon="-2.34613">
        <ele>55</ele>
        <time>2019-09-22T10:08:17Z</time>
      </trkpt>
      <trkpt lat="47.26599" lon="-2.34606">
        <ele>55</ele>
        <time>2019-09-22T10:08:18Z</time>
      </trkpt>
      <trkpt lat="47.26589" lon="-2.34594">
        <ele>55</ele>
        <time>2019-09-22T10:08:20Z</time>
      </trkpt>
      <trkpt lat="47.26583" lon="-2.34588">
        <ele>55</ele>
        <time>2019-09-22T10:08:21Z</time>
      </trkpt>
      <trkpt lat="47.26578" lon="-2.34582">
        <ele>55</ele>
        <time>2019-09-22T10:08:22Z</time>
      </trkpt>
      <trkpt lat="47.26572" lon="-2.34576">
        <ele>55</ele>
        <time>2019-09-22T10:08:23Z</time>
      </trkpt>
      <trkpt lat="47.26561" lon="-2.34565">
        <ele>55</ele>
        <time>2019-09-22T10:08:26Z</time>
      </trkpt>
      <trkpt lat="47.26556" lon="-2.34559">
        <ele>55</ele>
        <time>2019-09-22T10:08:27Z</time>
      </trkpt>
      <trkpt lat="47.2654" lon="-2.34541">
        <ele>55</ele>
        <time>2019-09-22T10:08:29Z</time>
      </trkpt>
      <trkpt lat="47.26529" lon="-2.3453">
        <ele>54</ele>
        <time>2019-09-22T10:08:31Z</time>
      </trkpt>
      <trkpt lat="47.26523" lon="-2.34526">
        <ele>54</ele>
        <time>2019-09-22T10:08:32Z</time>
      </trkpt>
      <trkpt lat="47.26518" lon="-2.34521">
        <ele>54</ele>
        <time>2019-09-22T10:08:33Z</time>
      </trkpt>
      <trkpt lat="47.26506" lon="-2.34513">
        <ele>54</ele>
        <time>2019-09-22T10:08:35Z</time>
      </trkpt>
      <trkpt lat="47.26501" lon="-2.34509">
        <ele>53</ele>
        <time>2019-09-22T10:08:36Z</time>
      </trkpt>
      <trkpt lat="47.2649" lon="-2.345">
        <ele>54</ele>
        <time>2019-09-22T10:08:38Z</time>
      </trkpt>
      <trkpt lat="47.26479" lon="-2.34492">
        <ele>54</ele>
        <time>2019-09-22T10:08:40Z</time>
      </trkpt>
      <trkpt lat="47.26473" lon="-2.34488">
        <ele>54</ele>
        <time>2019-09-22T10:08:41Z</time>
      </trkpt>
      <trkpt lat="47.26468" lon="-2.34484">
        <ele>53</ele>
        <time>2019-09-22T10:08:42Z</time>
      </trkpt>
      <trkpt lat="47.26462" lon="-2.3448">
        <ele>53</ele>
        <time>2019-09-22T10:08:43Z</time>
      </trkpt>
      <trkpt lat="47.26456" lon="-2.34476">
        <ele>53</ele>
        <time>2019-09-22T10:08:44Z</time>
      </trkpt>
      <trkpt lat="47.26451" lon="-2.34472">
        <ele>54</ele>
        <time>2019-09-22T10:08:45Z</time>
      </trkpt>
      <trkpt lat="47.26445" lon="-2.34468">
        <ele>54</ele>
        <time>2019-09-22T10:08:46Z</time>
      </trkpt>
      <trkpt lat="47.2644" lon="-2.34464">
        <ele>54</ele>
        <time>2019-09-22T10:08:47Z</time>
      </trkpt>
      <trkpt lat="47.26434" lon="-2.3446">
        <ele>54</ele>
        <time>2019-09-22T10:08:48Z</time>
      </trkpt>
      <trkpt lat="47.26428" lon="-2.34456">
        <ele>54</ele>
        <time>2019-09-22T10:08:49Z</time>
      </trkpt>
      <trkpt lat="47.26422" lon="-2.34452">
        <ele>54</ele>
        <time>2019-09-22T10:08:50Z</time>
      </trkpt>
      <trkpt lat="47.26417" lon="-2.34448">
        <ele>54</ele>
        <time>2019-09-22T10:08:51Z</time>
      </trkpt>
      <trkpt lat="47.26411" lon="-2.34444">
        <ele>54</ele>
        <time>2019-09-22T10:08:52Z</time>
      </trkpt>
      <trkpt lat="47.26406" lon="-2.3444">
        <ele>54</ele>
        <time>2019-09-22T10:08:53Z</time>
      </trkpt>
      <trkpt lat="47.264" lon="-2.34435">
        <ele>54</ele>
        <time>2019-09-22T10:08:54Z</time>
      </trkpt>
      <trkpt lat="47.26395" lon="-2.34431">
        <ele>53</ele>
        <time>2019-09-22T10:08:55Z</time>
      </trkpt>
      <trkpt lat="47.26389" lon="-2.34426">
        <ele>53</ele>
        <time>2019-09-22T10:08:56Z</time>
      </trkpt>
      <trkpt lat="47.26384" lon="-2.34421">
        <ele>53</ele>
        <time>2019-09-22T10:08:57Z</time>
      </trkpt>
      <trkpt lat="47.26368" lon="-2.34408">
        <ele>53</ele>
        <time>2019-09-22T10:09:00Z</time>
      </trkpt>
      <trkpt lat="47.26363" lon="-2.34403">
        <ele>54</ele>
        <time>2019-09-22T10:09:01Z</time>
      </trkpt>
      <trkpt lat="47.26358" lon="-2.34398">
        <ele>54</ele>
        <time>2019-09-22T10:09:02Z</time>
      </trkpt>
      <trkpt lat="47.26353" lon="-2.34393">
        <ele>54</ele>
        <time>2019-09-22T10:09:03Z</time>
      </trkpt>
      <trkpt lat="47.26348" lon="-2.34389">
        <ele>54</ele>
        <time>2019-09-22T10:09:04Z</time>
      </trkpt>
      <trkpt lat="47.26342" lon="-2.34385">
        <ele>53</ele>
        <time>2019-09-22T10:09:05Z</time>
      </trkpt>
      <trkpt lat="47.2633" lon="-2.3438">
        <ele>54</ele>
        <time>2019-09-22T10:09:07Z</time>
      </trkpt>
      <trkpt lat="47.26324" lon="-2.34377">
        <ele>54</ele>
        <time>2019-09-22T10:09:08Z</time>
      </trkpt>
      <trkpt lat="47.26319" lon="-2.3437">
        <ele>54</ele>
        <time>2019-09-22T10:09:09Z</time>
      </trkpt>
      <trkpt lat="47.26315" lon="-2.34364">
        <ele>54</ele>
        <time>2019-09-22T10:09:10Z</time>
      </trkpt>
      <trkpt lat="47.26311" lon="-2.34357">
        <ele>54</ele>
        <time>2019-09-22T10:09:11Z</time>
      </trkpt>
      <trkpt lat="47.26306" lon="-2.3435">
        <ele>53</ele>
        <time>2019-09-22T10:09:13Z</time>
      </trkpt>
      <trkpt lat="47.263" lon="-2.34344">
        <ele>53</ele>
        <time>2019-09-22T10:09:14Z</time>
      </trkpt>
      <trkpt lat="47.26295" lon="-2.34339">
        <ele>53</ele>
        <time>2019-09-22T10:09:15Z</time>
      </trkpt>
      <trkpt lat="47.2629" lon="-2.34334">
        <ele>53</ele>
        <time>2019-09-22T10:09:16Z</time>
      </trkpt>
      <trkpt lat="47.2628" lon="-2.34324">
        <ele>54</ele>
        <time>2019-09-22T10:09:18Z</time>
      </trkpt>
      <trkpt lat="47.26258" lon="-2.34302">
        <ele>54</ele>
        <time>2019-09-22T10:09:21Z</time>
      </trkpt>
      <trkpt lat="47.26253" lon="-2.34296">
        <ele>54</ele>
        <time>2019-09-22T10:09:22Z</time>
      </trkpt>
      <trkpt lat="47.26247" lon="-2.3429">
        <ele>54</ele>
        <time>2019-09-22T10:09:23Z</time>
      </trkpt>
      <trkpt lat="47.26242" lon="-2.34284">
        <ele>54</ele>
        <time>2019-09-22T10:09:24Z</time>
      </trkpt>
      <trkpt lat="47.26236" lon="-2.34279">
        <ele>54</ele>
        <time>2019-09-22T10:09:25Z</time>
      </trkpt>
      <trkpt lat="47.26231" lon="-2.34273">
        <ele>54</ele>
        <time>2019-09-22T10:09:26Z</time>
      </trkpt>
      <trkpt lat="47.26211" lon="-2.34251">
        <ele>54</ele>
        <time>2019-09-22T10:09:30Z</time>
      </trkpt>
      <trkpt lat="47.26206" lon="-2.34244">
        <ele>53</ele>
        <time>2019-09-22T10:09:31Z</time>
      </trkpt>
      <trkpt lat="47.26195" lon="-2.34234">
        <ele>53</ele>
        <time>2019-09-22T10:09:33Z</time>
      </trkpt>
      <trkpt lat="47.26189" lon="-2.34228">
        <ele>53</ele>
        <time>2019-09-22T10:09:34Z</time>
      </trkpt>
      <trkpt lat="47.26184" lon="-2.34223">
        <ele>53</ele>
        <time>2019-09-22T10:09:35Z</time>
      </trkpt>
      <trkpt lat="47.26179" lon="-2.34218">
        <ele>53</ele>
        <time>2019-09-22T10:09:36Z</time>
      </trkpt>
      <trkpt lat="47.26174" lon="-2.34213">
        <ele>53</ele>
        <time>2019-09-22T10:09:37Z</time>
      </trkpt>
      <trkpt lat="47.26168" lon="-2.34207">
        <ele>53</ele>
        <time>2019-09-22T10:09:38Z</time>
      </trkpt>
      <trkpt lat="47.26163" lon="-2.34202">
        <ele>53</ele>
        <time>2019-09-22T10:09:39Z</time>
      </trkpt>
      <trkpt lat="47.26158" lon="-2.34197">
        <ele>53</ele>
        <time>2019-09-22T10:09:40Z</time>
      </trkpt>
      <trkpt lat="47.26153" lon="-2.34192">
        <ele>53</ele>
        <time>2019-09-22T10:09:41Z</time>
      </trkpt>
      <trkpt lat="47.26147" lon="-2.34188">
        <ele>54</ele>
        <time>2019-09-22T10:09:42Z</time>
      </trkpt>
      <trkpt lat="47.26141" lon="-2.34184">
        <ele>54</ele>
        <time>2019-09-22T10:09:43Z</time>
      </trkpt>
      <trkpt lat="47.26129" lon="-2.34177">
        <ele>54</ele>
        <time>2019-09-22T10:09:45Z</time>
      </trkpt>
      <trkpt lat="47.26124" lon="-2.34171">
        <ele>54</ele>
        <time>2019-09-22T10:09:46Z</time>
      </trkpt>
      <trkpt lat="47.26119" lon="-2.34165">
        <ele>54</ele>
        <time>2019-09-22T10:09:47Z</time>
      </trkpt>
      <trkpt lat="47.26114" lon="-2.34161">
        <ele>54</ele>
        <time>2019-09-22T10:09:49Z</time>
      </trkpt>
      <trkpt lat="47.26109" lon="-2.34159">
        <ele>54</ele>
        <time>2019-09-22T10:09:50Z</time>
      </trkpt>
      <trkpt lat="47.26104" lon="-2.34154">
        <ele>54</ele>
        <time>2019-09-22T10:09:52Z</time>
      </trkpt>
      <trkpt lat="47.26104" lon="-2.34154">
        <ele>54</ele>
        <time>2019-09-22T10:09:58Z</time>
      </trkpt>
      <trkpt lat="47.26104" lon="-2.34154">
        <ele>5.9</ele>
        <time>2019-09-22T10:09:58Z</time>
      </trkpt>
      <trkpt lat="47.26104" lon="-2.34154">
        <ele>5.9</ele>
        <time>2019-09-22T10:10:07Z</time>
      </trkpt>
      <trkpt lat="47.26123" lon="-2.3415">
        <ele>57</ele>
        <time>2019-09-22T10:10:07Z</time>
      </trkpt>
      <trkpt lat="47.26133" lon="-2.34155">
        <ele>56</ele>
        <time>2019-09-22T10:10:15Z</time>
      </trkpt>
      <trkpt lat="47.26139" lon="-2.34155">
        <ele>56</ele>
        <time>2019-09-22T10:10:20Z</time>
      </trkpt>
      <trkpt lat="47.26144" lon="-2.34162">
        <ele>55</ele>
        <time>2019-09-22T10:10:22Z</time>
      </trkpt>
      <trkpt lat="47.26147" lon="-2.34166">
        <ele>57</ele>
        <time>2019-09-22T10:10:23Z</time>
      </trkpt>
      <trkpt lat="47.26145" lon="-2.34178">
        <ele>58</ele>
        <time>2019-09-22T10:10:25Z</time>
      </trkpt>
      <trkpt lat="47.26141" lon="-2.34181">
        <ele>57</ele>
        <time>2019-09-22T10:10:26Z</time>
      </trkpt>
      <trkpt lat="47.2613" lon="-2.34178">
        <ele>56</ele>
        <time>2019-09-22T10:10:28Z</time>
      </trkpt>
      <trkpt lat="47.26121" lon="-2.3417">
        <ele>56</ele>
        <time>2019-09-22T10:10:29Z</time>
      </trkpt>
      <trkpt lat="47.26116" lon="-2.34166">
        <ele>56</ele>
        <time>2019-09-22T10:10:30Z</time>
      </trkpt>
      <trkpt lat="47.26111" lon="-2.34163">
        <ele>56</ele>
        <time>2019-09-22T10:10:31Z</time>
      </trkpt>
      <trkpt lat="47.26105" lon="-2.3416">
        <ele>56</ele>
        <time>2019-09-22T10:10:32Z</time>
      </trkpt>
      <trkpt lat="47.261" lon="-2.34158">
        <ele>57</ele>
        <time>2019-09-22T10:10:33Z</time>
      </trkpt>
      <trkpt lat="47.26089" lon="-2.34153">
        <ele>56</ele>
        <time>2019-09-22T10:10:36Z</time>
      </trkpt>
      <trkpt lat="47.26067" lon="-2.34143">
        <ele>57</ele>
        <time>2019-09-22T10:10:39Z</time>
      </trkpt>
      <trkpt lat="47.26062" lon="-2.3414">
        <ele>57</ele>
        <time>2019-09-22T10:10:40Z</time>
      </trkpt>
      <trkpt lat="47.26057" lon="-2.34137">
        <ele>57</ele>
        <time>2019-09-22T10:10:41Z</time>
      </trkpt>
      <trkpt lat="47.26052" lon="-2.34134">
        <ele>56</ele>
        <time>2019-09-22T10:10:42Z</time>
      </trkpt>
      <trkpt lat="47.26047" lon="-2.34131">
        <ele>56</ele>
        <time>2019-09-22T10:10:43Z</time>
      </trkpt>
      <trkpt lat="47.26042" lon="-2.34129">
        <ele>56</ele>
        <time>2019-09-22T10:10:44Z</time>
      </trkpt>
      <trkpt lat="47.26037" lon="-2.34127">
        <ele>55</ele>
        <time>2019-09-22T10:10:45Z</time>
      </trkpt>
      <trkpt lat="47.26032" lon="-2.34125">
        <ele>56</ele>
        <time>2019-09-22T10:10:46Z</time>
      </trkpt>
      <trkpt lat="47.26022" lon="-2.3412">
        <ele>55</ele>
        <time>2019-09-22T10:10:48Z</time>
      </trkpt>
      <trkpt lat="47.26017" lon="-2.34117">
        <ele>55</ele>
        <time>2019-09-22T10:10:49Z</time>
      </trkpt>
      <trkpt lat="47.26012" lon="-2.34114">
        <ele>55</ele>
        <time>2019-09-22T10:10:50Z</time>
      </trkpt>
      <trkpt lat="47.26007" lon="-2.34111">
        <ele>54</ele>
        <time>2019-09-22T10:10:51Z</time>
      </trkpt>
      <trkpt lat="47.26001" lon="-2.34109">
        <ele>55</ele>
        <time>2019-09-22T10:10:52Z</time>
      </trkpt>
      <trkpt lat="47.25996" lon="-2.34107">
        <ele>54</ele>
        <time>2019-09-22T10:10:53Z</time>
      </trkpt>
      <trkpt lat="47.25992" lon="-2.34104">
        <ele>54</ele>
        <time>2019-09-22T10:10:54Z</time>
      </trkpt>
      <trkpt lat="47.25987" lon="-2.34102">
        <ele>54</ele>
        <time>2019-09-22T10:10:55Z</time>
      </trkpt>
      <trkpt lat="47.25982" lon="-2.34099">
        <ele>54</ele>
        <time>2019-09-22T10:10:56Z</time>
      </trkpt>
      <trkpt lat="47.25973" lon="-2.34094">
        <ele>54</ele>
        <time>2019-09-22T10:10:58Z</time>
      </trkpt>
      <trkpt lat="47.25968" lon="-2.34092">
        <ele>54</ele>
        <time>2019-09-22T10:10:59Z</time>
      </trkpt>
      <trkpt lat="47.25963" lon="-2.3409">
        <ele>54</ele>
        <time>2019-09-22T10:11:00Z</time>
      </trkpt>
      <trkpt lat="47.25959" lon="-2.34087">
        <ele>54</ele>
        <time>2019-09-22T10:11:01Z</time>
      </trkpt>
      <trkpt lat="47.25954" lon="-2.34084">
        <ele>54</ele>
        <time>2019-09-22T10:11:02Z</time>
      </trkpt>
      <trkpt lat="47.2595" lon="-2.34081">
        <ele>54</ele>
        <time>2019-09-22T10:11:03Z</time>
      </trkpt>
      <trkpt lat="47.2594" lon="-2.34078">
        <ele>53</ele>
        <time>2019-09-22T10:11:05Z</time>
      </trkpt>
      <trkpt lat="47.25935" lon="-2.34077">
        <ele>53</ele>
        <time>2019-09-22T10:11:06Z</time>
      </trkpt>
      <trkpt lat="47.25929" lon="-2.34076">
        <ele>53</ele>
        <time>2019-09-22T10:11:07Z</time>
      </trkpt>
      <trkpt lat="47.25924" lon="-2.34076">
        <ele>53</ele>
        <time>2019-09-22T10:11:08Z</time>
      </trkpt>
      <trkpt lat="47.25918" lon="-2.34078">
        <ele>53</ele>
        <time>2019-09-22T10:11:09Z</time>
      </trkpt>
      <trkpt lat="47.25914" lon="-2.3408">
        <ele>53</ele>
        <time>2019-09-22T10:11:10Z</time>
      </trkpt>
      <trkpt lat="47.25906" lon="-2.34092">
        <ele>53</ele>
        <time>2019-09-22T10:11:12Z</time>
      </trkpt>
      <trkpt lat="47.25902" lon="-2.34098">
        <ele>53</ele>
        <time>2019-09-22T10:11:13Z</time>
      </trkpt>
      <trkpt lat="47.25899" lon="-2.34104">
        <ele>53</ele>
        <time>2019-09-22T10:11:14Z</time>
      </trkpt>
      <trkpt lat="47.25895" lon="-2.34111">
        <ele>53</ele>
        <time>2019-09-22T10:11:15Z</time>
      </trkpt>
      <trkpt lat="47.2589" lon="-2.34125">
        <ele>53</ele>
        <time>2019-09-22T10:11:17Z</time>
      </trkpt>
      <trkpt lat="47.25888" lon="-2.34131">
        <ele>53</ele>
        <time>2019-09-22T10:11:18Z</time>
      </trkpt>
      <trkpt lat="47.25887" lon="-2.34137">
        <ele>53</ele>
        <time>2019-09-22T10:11:19Z</time>
      </trkpt>
      <trkpt lat="47.25882" lon="-2.34151">
        <ele>53</ele>
        <time>2019-09-22T10:11:22Z</time>
      </trkpt>
      <trkpt lat="47.25879" lon="-2.3416">
        <ele>53</ele>
        <time>2019-09-22T10:11:24Z</time>
      </trkpt>
      <trkpt lat="47.25874" lon="-2.34164">
        <ele>53</ele>
        <time>2019-09-22T10:11:26Z</time>
      </trkpt>
      <trkpt lat="47.25866" lon="-2.34162">
        <ele>53</ele>
        <time>2019-09-22T10:11:29Z</time>
      </trkpt>
      <trkpt lat="47.25858" lon="-2.34159">
        <ele>54</ele>
        <time>2019-09-22T10:11:32Z</time>
      </trkpt>
      <trkpt lat="47.25848" lon="-2.34156">
        <ele>54</ele>
        <time>2019-09-22T10:11:35Z</time>
      </trkpt>
      <trkpt lat="47.25841" lon="-2.34154">
        <ele>54</ele>
        <time>2019-09-22T10:11:37Z</time>
      </trkpt>
      <trkpt lat="47.25832" lon="-2.34167">
        <ele>56</ele>
        <time>2019-09-22T10:11:41Z</time>
      </trkpt>
      <trkpt lat="47.25828" lon="-2.34174">
        <ele>57</ele>
        <time>2019-09-22T10:11:43Z</time>
      </trkpt>
      <trkpt lat="47.25823" lon="-2.34175">
        <ele>57</ele>
        <time>2019-09-22T10:11:45Z</time>
      </trkpt>
      <trkpt lat="47.25812" lon="-2.34172">
        <ele>58</ele>
        <time>2019-09-22T10:11:48Z</time>
      </trkpt>
      <trkpt lat="47.25804" lon="-2.34171">
        <ele>58</ele>
        <time>2019-09-22T10:11:50Z</time>
      </trkpt>
      <trkpt lat="47.258" lon="-2.3417">
        <ele>58</ele>
        <time>2019-09-22T10:11:51Z</time>
      </trkpt>
      <trkpt lat="47.25794" lon="-2.34169">
        <ele>58</ele>
        <time>2019-09-22T10:11:52Z</time>
      </trkpt>
      <trkpt lat="47.25789" lon="-2.34171">
        <ele>58</ele>
        <time>2019-09-22T10:11:54Z</time>
      </trkpt>
      <trkpt lat="47.25772" lon="-2.34173">
        <ele>57</ele>
        <time>2019-09-22T10:11:56Z</time>
      </trkpt>
      <trkpt lat="47.25766" lon="-2.34175">
        <ele>56</ele>
        <time>2019-09-22T10:11:57Z</time>
      </trkpt>
      <trkpt lat="47.2576" lon="-2.34176">
        <ele>56</ele>
        <time>2019-09-22T10:11:58Z</time>
      </trkpt>
      <trkpt lat="47.25754" lon="-2.34177">
        <ele>56</ele>
        <time>2019-09-22T10:11:59Z</time>
      </trkpt>
      <trkpt lat="47.25748" lon="-2.34179">
        <ele>56</ele>
        <time>2019-09-22T10:12:00Z</time>
      </trkpt>
      <trkpt lat="47.25733" lon="-2.34182">
        <ele>56</ele>
        <time>2019-09-22T10:12:03Z</time>
      </trkpt>
      <trkpt lat="47.25728" lon="-2.34183">
        <ele>55</ele>
        <time>2019-09-22T10:12:04Z</time>
      </trkpt>
      <trkpt lat="47.25723" lon="-2.34185">
        <ele>55</ele>
        <time>2019-09-22T10:12:05Z</time>
      </trkpt>
      <trkpt lat="47.25718" lon="-2.34186">
        <ele>55</ele>
        <time>2019-09-22T10:12:06Z</time>
      </trkpt>
      <trkpt lat="47.25713" lon="-2.34187">
        <ele>55</ele>
        <time>2019-09-22T10:12:07Z</time>
      </trkpt>
      <trkpt lat="47.25709" lon="-2.34188">
        <ele>56</ele>
        <time>2019-09-22T10:12:08Z</time>
      </trkpt>
      <trkpt lat="47.25704" lon="-2.3419">
        <ele>55</ele>
        <time>2019-09-22T10:12:09Z</time>
      </trkpt>
      <trkpt lat="47.25698" lon="-2.34191">
        <ele>55</ele>
        <time>2019-09-22T10:12:10Z</time>
      </trkpt>
      <trkpt lat="47.25694" lon="-2.34192">
        <ele>55</ele>
        <time>2019-09-22T10:12:11Z</time>
      </trkpt>
      <trkpt lat="47.25689" lon="-2.34192">
        <ele>56</ele>
        <time>2019-09-22T10:12:13Z</time>
      </trkpt>
      <trkpt lat="47.25684" lon="-2.34192">
        <ele>55</ele>
        <time>2019-09-22T10:12:14Z</time>
      </trkpt>
      <trkpt lat="47.25679" lon="-2.34191">
        <ele>55</ele>
        <time>2019-09-22T10:12:15Z</time>
      </trkpt>
      <trkpt lat="47.25674" lon="-2.34189">
        <ele>55</ele>
        <time>2019-09-22T10:12:16Z</time>
      </trkpt>
      <trkpt lat="47.2566" lon="-2.3417">
        <ele>56</ele>
        <time>2019-09-22T10:12:20Z</time>
      </trkpt>
      <trkpt lat="47.25657" lon="-2.34165">
        <ele>56</ele>
        <time>2019-09-22T10:12:21Z</time>
      </trkpt>
      <trkpt lat="47.25654" lon="-2.34158">
        <ele>55</ele>
        <time>2019-09-22T10:12:22Z</time>
      </trkpt>
      <trkpt lat="47.25647" lon="-2.34139">
        <ele>55</ele>
        <time>2019-09-22T10:12:24Z</time>
      </trkpt>
      <trkpt lat="47.25645" lon="-2.34132">
        <ele>55</ele>
        <time>2019-09-22T10:12:25Z</time>
      </trkpt>
      <trkpt lat="47.25643" lon="-2.34124">
        <ele>55</ele>
        <time>2019-09-22T10:12:26Z</time>
      </trkpt>
      <trkpt lat="47.25642" lon="-2.34117">
        <ele>55</ele>
        <time>2019-09-22T10:12:27Z</time>
      </trkpt>
      <trkpt lat="47.25641" lon="-2.3411">
        <ele>55</ele>
        <time>2019-09-22T10:12:28Z</time>
      </trkpt>
      <trkpt lat="47.2564" lon="-2.34103">
        <ele>55</ele>
        <time>2019-09-22T10:12:29Z</time>
      </trkpt>
      <trkpt lat="47.25639" lon="-2.34096">
        <ele>55</ele>
        <time>2019-09-22T10:12:30Z</time>
      </trkpt>
      <trkpt lat="47.2564" lon="-2.34088">
        <ele>55</ele>
        <time>2019-09-22T10:12:31Z</time>
      </trkpt>
      <trkpt lat="47.2564" lon="-2.3408">
        <ele>55</ele>
        <time>2019-09-22T10:12:32Z</time>
      </trkpt>
      <trkpt lat="47.25642" lon="-2.34065">
        <ele>55</ele>
        <time>2019-09-22T10:12:34Z</time>
      </trkpt>
      <trkpt lat="47.25643" lon="-2.34057">
        <ele>54</ele>
        <time>2019-09-22T10:12:35Z</time>
      </trkpt>
      <trkpt lat="47.25645" lon="-2.34049">
        <ele>54</ele>
        <time>2019-09-22T10:12:36Z</time>
      </trkpt>
      <trkpt lat="47.25646" lon="-2.34041">
        <ele>55</ele>
        <time>2019-09-22T10:12:37Z</time>
      </trkpt>
      <trkpt lat="47.25648" lon="-2.34033">
        <ele>55</ele>
        <time>2019-09-22T10:12:38Z</time>
      </trkpt>
      <trkpt lat="47.25649" lon="-2.34025">
        <ele>55</ele>
        <time>2019-09-22T10:12:39Z</time>
      </trkpt>
      <trkpt lat="47.2565" lon="-2.34017">
        <ele>56</ele>
        <time>2019-09-22T10:12:40Z</time>
      </trkpt>
      <trkpt lat="47.25652" lon="-2.3401">
        <ele>56</ele>
        <time>2019-09-22T10:12:41Z</time>
      </trkpt>
      <trkpt lat="47.25654" lon="-2.34002">
        <ele>56</ele>
        <time>2019-09-22T10:12:42Z</time>
      </trkpt>
      <trkpt lat="47.25655" lon="-2.33995">
        <ele>56</ele>
        <time>2019-09-22T10:12:43Z</time>
      </trkpt>
      <trkpt lat="47.25657" lon="-2.33986">
        <ele>56</ele>
        <time>2019-09-22T10:12:44Z</time>
      </trkpt>
      <trkpt lat="47.25658" lon="-2.33979">
        <ele>56</ele>
        <time>2019-09-22T10:12:45Z</time>
      </trkpt>
      <trkpt lat="47.25659" lon="-2.33972">
        <ele>56</ele>
        <time>2019-09-22T10:12:46Z</time>
      </trkpt>
      <trkpt lat="47.25662" lon="-2.33957">
        <ele>56</ele>
        <time>2019-09-22T10:12:48Z</time>
      </trkpt>
      <trkpt lat="47.25662" lon="-2.33949">
        <ele>56</ele>
        <time>2019-09-22T10:12:49Z</time>
      </trkpt>
      <trkpt lat="47.2566" lon="-2.33942">
        <ele>57</ele>
        <time>2019-09-22T10:12:51Z</time>
      </trkpt>
      <trkpt lat="47.25656" lon="-2.33928">
        <ele>57</ele>
        <time>2019-09-22T10:12:52Z</time>
      </trkpt>
      <trkpt lat="47.25653" lon="-2.33911">
        <ele>57</ele>
        <time>2019-09-22T10:12:54Z</time>
      </trkpt>
      <trkpt lat="47.25651" lon="-2.33895">
        <ele>57</ele>
        <time>2019-09-22T10:12:56Z</time>
      </trkpt>
      <trkpt lat="47.2565" lon="-2.33888">
        <ele>57</ele>
        <time>2019-09-22T10:12:57Z</time>
      </trkpt>
      <trkpt lat="47.25648" lon="-2.3388">
        <ele>57</ele>
        <time>2019-09-22T10:12:58Z</time>
      </trkpt>
      <trkpt lat="47.25646" lon="-2.33873">
        <ele>57</ele>
        <time>2019-09-22T10:12:59Z</time>
      </trkpt>
      <trkpt lat="47.25645" lon="-2.33865">
        <ele>57</ele>
        <time>2019-09-22T10:13:00Z</time>
      </trkpt>
      <trkpt lat="47.25639" lon="-2.33841">
        <ele>56</ele>
        <time>2019-09-22T10:13:03Z</time>
      </trkpt>
      <trkpt lat="47.25638" lon="-2.33834">
        <ele>57</ele>
        <time>2019-09-22T10:13:04Z</time>
      </trkpt>
      <trkpt lat="47.25638" lon="-2.33825">
        <ele>57</ele>
        <time>2019-09-22T10:13:05Z</time>
      </trkpt>
      <trkpt lat="47.25638" lon="-2.33817">
        <ele>56</ele>
        <time>2019-09-22T10:13:06Z</time>
      </trkpt>
      <trkpt lat="47.25633" lon="-2.33795">
        <ele>57</ele>
        <time>2019-09-22T10:13:09Z</time>
      </trkpt>
      <trkpt lat="47.25627" lon="-2.33773">
        <ele>57</ele>
        <time>2019-09-22T10:13:12Z</time>
      </trkpt>
      <trkpt lat="47.25617" lon="-2.3376">
        <ele>56</ele>
        <time>2019-09-22T10:13:15Z</time>
      </trkpt>
      <trkpt lat="47.25612" lon="-2.33759">
        <ele>57</ele>
        <time>2019-09-22T10:13:16Z</time>
      </trkpt>
      <trkpt lat="47.25606" lon="-2.33758">
        <ele>57</ele>
        <time>2019-09-22T10:13:17Z</time>
      </trkpt>
      <trkpt lat="47.25599" lon="-2.33757">
        <ele>57</ele>
        <time>2019-09-22T10:13:18Z</time>
      </trkpt>
      <trkpt lat="47.25593" lon="-2.33757">
        <ele>57</ele>
        <time>2019-09-22T10:13:19Z</time>
      </trkpt>
      <trkpt lat="47.25587" lon="-2.33757">
        <ele>57</ele>
        <time>2019-09-22T10:13:20Z</time>
      </trkpt>
      <trkpt lat="47.25581" lon="-2.33757">
        <ele>57</ele>
        <time>2019-09-22T10:13:21Z</time>
      </trkpt>
      <trkpt lat="47.25575" lon="-2.33757">
        <ele>57</ele>
        <time>2019-09-22T10:13:22Z</time>
      </trkpt>
      <trkpt lat="47.25569" lon="-2.33757">
        <ele>56</ele>
        <time>2019-09-22T10:13:23Z</time>
      </trkpt>
      <trkpt lat="47.25552" lon="-2.3376">
        <ele>56</ele>
        <time>2019-09-22T10:13:26Z</time>
      </trkpt>
      <trkpt lat="47.25546" lon="-2.3376">
        <ele>56</ele>
        <time>2019-09-22T10:13:27Z</time>
      </trkpt>
      <trkpt lat="47.25541" lon="-2.33761">
        <ele>56</ele>
        <time>2019-09-22T10:13:28Z</time>
      </trkpt>
      <trkpt lat="47.25536" lon="-2.33761">
        <ele>56</ele>
        <time>2019-09-22T10:13:29Z</time>
      </trkpt>
      <trkpt lat="47.2553" lon="-2.33761">
        <ele>56</ele>
        <time>2019-09-22T10:13:30Z</time>
      </trkpt>
      <trkpt lat="47.25524" lon="-2.3376">
        <ele>55</ele>
        <time>2019-09-22T10:13:31Z</time>
      </trkpt>
      <trkpt lat="47.255" lon="-2.33759">
        <ele>55</ele>
        <time>2019-09-22T10:13:35Z</time>
      </trkpt>
      <trkpt lat="47.25495" lon="-2.33758">
        <ele>55</ele>
        <time>2019-09-22T10:13:36Z</time>
      </trkpt>
      <trkpt lat="47.25473" lon="-2.33751">
        <ele>54</ele>
        <time>2019-09-22T10:13:40Z</time>
      </trkpt>
      <trkpt lat="47.25458" lon="-2.33741">
        <ele>54</ele>
        <time>2019-09-22T10:13:43Z</time>
      </trkpt>
      <trkpt lat="47.25454" lon="-2.33737">
        <ele>54</ele>
        <time>2019-09-22T10:13:44Z</time>
      </trkpt>
      <trkpt lat="47.25452" lon="-2.3373">
        <ele>54</ele>
        <time>2019-09-22T10:13:45Z</time>
      </trkpt>
      <trkpt lat="47.25451" lon="-2.33722">
        <ele>54</ele>
        <time>2019-09-22T10:13:46Z</time>
      </trkpt>
      <trkpt lat="47.25451" lon="-2.33713">
        <ele>54</ele>
        <time>2019-09-22T10:13:47Z</time>
      </trkpt>
      <trkpt lat="47.25451" lon="-2.33704">
        <ele>54</ele>
        <time>2019-09-22T10:13:48Z</time>
      </trkpt>
      <trkpt lat="47.2545" lon="-2.33696">
        <ele>54</ele>
        <time>2019-09-22T10:13:49Z</time>
      </trkpt>
      <trkpt lat="47.25449" lon="-2.33689">
        <ele>54</ele>
        <time>2019-09-22T10:13:50Z</time>
      </trkpt>
      <trkpt lat="47.25448" lon="-2.33682">
        <ele>54</ele>
        <time>2019-09-22T10:13:51Z</time>
      </trkpt>
      <trkpt lat="47.25447" lon="-2.33675">
        <ele>54</ele>
        <time>2019-09-22T10:13:52Z</time>
      </trkpt>
      <trkpt lat="47.25447" lon="-2.33668">
        <ele>54</ele>
        <time>2019-09-22T10:13:53Z</time>
      </trkpt>
      <trkpt lat="47.25445" lon="-2.33651">
        <ele>54</ele>
        <time>2019-09-22T10:13:56Z</time>
      </trkpt>
      <trkpt lat="47.25443" lon="-2.33638">
        <ele>55</ele>
        <time>2019-09-22T10:13:58Z</time>
      </trkpt>
      <trkpt lat="47.25441" lon="-2.33626">
        <ele>55</ele>
        <time>2019-09-22T10:14:00Z</time>
      </trkpt>
      <trkpt lat="47.2544" lon="-2.33615">
        <ele>55</ele>
        <time>2019-09-22T10:14:03Z</time>
      </trkpt>
      <trkpt lat="47.25441" lon="-2.33609">
        <ele>55</ele>
        <time>2019-09-22T10:14:04Z</time>
      </trkpt>
      <trkpt lat="47.2544" lon="-2.33603">
        <ele>55</ele>
        <time>2019-09-22T10:14:05Z</time>
      </trkpt>
      <trkpt lat="47.25441" lon="-2.33587">
        <ele>56</ele>
        <time>2019-09-22T10:14:07Z</time>
      </trkpt>
      <trkpt lat="47.25447" lon="-2.33582">
        <ele>56</ele>
        <time>2019-09-22T10:14:09Z</time>
      </trkpt>
      <trkpt lat="47.25456" lon="-2.33577">
        <ele>56</ele>
        <time>2019-09-22T10:14:12Z</time>
      </trkpt>
      <trkpt lat="47.25455" lon="-2.33564">
        <ele>56</ele>
        <time>2019-09-22T10:14:15Z</time>
      </trkpt>
      <trkpt lat="47.25451" lon="-2.3355">
        <ele>57</ele>
        <time>2019-09-22T10:14:18Z</time>
      </trkpt>
      <trkpt lat="47.25449" lon="-2.33536">
        <ele>58</ele>
        <time>2019-09-22T10:14:21Z</time>
      </trkpt>
      <trkpt lat="47.25447" lon="-2.33526">
        <ele>58</ele>
        <time>2019-09-22T10:14:23Z</time>
      </trkpt>
      <trkpt lat="47.25446" lon="-2.33521">
        <ele>58</ele>
        <time>2019-09-22T10:14:24Z</time>
      </trkpt>
      <trkpt lat="47.25445" lon="-2.33513">
        <ele>58</ele>
        <time>2019-09-22T10:14:25Z</time>
      </trkpt>
      <trkpt lat="47.25444" lon="-2.33506">
        <ele>58</ele>
        <time>2019-09-22T10:14:26Z</time>
      </trkpt>
      <trkpt lat="47.25441" lon="-2.33494">
        <ele>56</ele>
        <time>2019-09-22T10:14:28Z</time>
      </trkpt>
      <trkpt lat="47.25438" lon="-2.33483">
        <ele>57</ele>
        <time>2019-09-22T10:14:30Z</time>
      </trkpt>
      <trkpt lat="47.25433" lon="-2.33462">
        <ele>57</ele>
        <time>2019-09-22T10:14:33Z</time>
      </trkpt>
      <trkpt lat="47.25432" lon="-2.33447">
        <ele>56</ele>
        <time>2019-09-22T10:14:35Z</time>
      </trkpt>
      <trkpt lat="47.25431" lon="-2.33432">
        <ele>56</ele>
        <time>2019-09-22T10:14:37Z</time>
      </trkpt>
      <trkpt lat="47.25431" lon="-2.33425">
        <ele>56</ele>
        <time>2019-09-22T10:14:38Z</time>
      </trkpt>
      <trkpt lat="47.25431" lon="-2.33417">
        <ele>56</ele>
        <time>2019-09-22T10:14:39Z</time>
      </trkpt>
      <trkpt lat="47.25431" lon="-2.3341">
        <ele>56</ele>
        <time>2019-09-22T10:14:40Z</time>
      </trkpt>
      <trkpt lat="47.25431" lon="-2.33403">
        <ele>56</ele>
        <time>2019-09-22T10:14:41Z</time>
      </trkpt>
      <trkpt lat="47.25431" lon="-2.33388">
        <ele>56</ele>
        <time>2019-09-22T10:14:43Z</time>
      </trkpt>
      <trkpt lat="47.25431" lon="-2.33381">
        <ele>56</ele>
        <time>2019-09-22T10:14:44Z</time>
      </trkpt>
      <trkpt lat="47.25431" lon="-2.33374">
        <ele>56</ele>
        <time>2019-09-22T10:14:45Z</time>
      </trkpt>
      <trkpt lat="47.25431" lon="-2.33367">
        <ele>56</ele>
        <time>2019-09-22T10:14:46Z</time>
      </trkpt>
      <trkpt lat="47.25431" lon="-2.33361">
        <ele>56</ele>
        <time>2019-09-22T10:14:47Z</time>
      </trkpt>
      <trkpt lat="47.25432" lon="-2.33348">
        <ele>56</ele>
        <time>2019-09-22T10:14:49Z</time>
      </trkpt>
      <trkpt lat="47.25438" lon="-2.33326">
        <ele>56</ele>
        <time>2019-09-22T10:14:53Z</time>
      </trkpt>
      <trkpt lat="47.25441" lon="-2.3332">
        <ele>56</ele>
        <time>2019-09-22T10:14:54Z</time>
      </trkpt>
      <trkpt lat="47.25443" lon="-2.33313">
        <ele>56</ele>
        <time>2019-09-22T10:14:55Z</time>
      </trkpt>
      <trkpt lat="47.25445" lon="-2.33307">
        <ele>56</ele>
        <time>2019-09-22T10:14:56Z</time>
      </trkpt>
      <trkpt lat="47.25447" lon="-2.333">
        <ele>56</ele>
        <time>2019-09-22T10:14:57Z</time>
      </trkpt>
      <trkpt lat="47.25447" lon="-2.33287">
        <ele>56</ele>
        <time>2019-09-22T10:14:59Z</time>
      </trkpt>
      <trkpt lat="47.25443" lon="-2.33274">
        <ele>57</ele>
        <time>2019-09-22T10:15:01Z</time>
      </trkpt>
      <trkpt lat="47.25441" lon="-2.33268">
        <ele>57</ele>
        <time>2019-09-22T10:15:02Z</time>
      </trkpt>
      <trkpt lat="47.25438" lon="-2.33261">
        <ele>57</ele>
        <time>2019-09-22T10:15:03Z</time>
      </trkpt>
      <trkpt lat="47.25436" lon="-2.33255">
        <ele>57</ele>
        <time>2019-09-22T10:15:04Z</time>
      </trkpt>
      <trkpt lat="47.25433" lon="-2.33249">
        <ele>57</ele>
        <time>2019-09-22T10:15:05Z</time>
      </trkpt>
      <trkpt lat="47.2543" lon="-2.33242">
        <ele>57</ele>
        <time>2019-09-22T10:15:06Z</time>
      </trkpt>
      <trkpt lat="47.25427" lon="-2.33234">
        <ele>57</ele>
        <time>2019-09-22T10:15:07Z</time>
      </trkpt>
      <trkpt lat="47.25424" lon="-2.33228">
        <ele>57</ele>
        <time>2019-09-22T10:15:08Z</time>
      </trkpt>
      <trkpt lat="47.25422" lon="-2.33221">
        <ele>57</ele>
        <time>2019-09-22T10:15:09Z</time>
      </trkpt>
      <trkpt lat="47.25419" lon="-2.33215">
        <ele>57</ele>
        <time>2019-09-22T10:15:10Z</time>
      </trkpt>
      <trkpt lat="47.25416" lon="-2.33207">
        <ele>56</ele>
        <time>2019-09-22T10:15:11Z</time>
      </trkpt>
      <trkpt lat="47.25413" lon="-2.332">
        <ele>56</ele>
        <time>2019-09-22T10:15:12Z</time>
      </trkpt>
      <trkpt lat="47.2541" lon="-2.33193">
        <ele>55</ele>
        <time>2019-09-22T10:15:13Z</time>
      </trkpt>
      <trkpt lat="47.25408" lon="-2.33187">
        <ele>56</ele>
        <time>2019-09-22T10:15:14Z</time>
      </trkpt>
      <trkpt lat="47.25405" lon="-2.3318">
        <ele>56</ele>
        <time>2019-09-22T10:15:15Z</time>
      </trkpt>
      <trkpt lat="47.25403" lon="-2.33175">
        <ele>55</ele>
        <time>2019-09-22T10:15:16Z</time>
      </trkpt>
      <trkpt lat="47.25401" lon="-2.3317">
        <ele>55</ele>
        <time>2019-09-22T10:15:17Z</time>
      </trkpt>
      <trkpt lat="47.25399" lon="-2.33164">
        <ele>55</ele>
        <time>2019-09-22T10:15:18Z</time>
      </trkpt>
      <trkpt lat="47.25391" lon="-2.3315">
        <ele>56</ele>
        <time>2019-09-22T10:15:21Z</time>
      </trkpt>
      <trkpt lat="47.25384" lon="-2.33144">
        <ele>56</ele>
        <time>2019-09-22T10:15:25Z</time>
      </trkpt>
      <trkpt lat="47.25381" lon="-2.33137">
        <ele>56</ele>
        <time>2019-09-22T10:15:27Z</time>
      </trkpt>
      <trkpt lat="47.25379" lon="-2.3313">
        <ele>56</ele>
        <time>2019-09-22T10:15:29Z</time>
      </trkpt>
      <trkpt lat="47.25378" lon="-2.33127">
        <ele>56</ele>
        <time>2019-09-22T10:15:30Z</time>
      </trkpt>
      <trkpt lat="47.25374" lon="-2.33119">
        <ele>56</ele>
        <time>2019-09-22T10:15:33Z</time>
      </trkpt>
      <trkpt lat="47.25374" lon="-2.33119">
        <ele>8</ele>
        <time>2019-09-22T10:15:39Z</time>
      </trkpt>
      <trkpt lat="47.25374" lon="-2.33119">
        <ele>8</ele>
        <time>2019-09-22T10:29:16Z</time>
      </trkpt>
      <trkpt lat="47.25365" lon="-2.33091">
        <ele>59</ele>
        <time>2019-09-22T10:29:16Z</time>
      </trkpt>
      <trkpt lat="47.25354" lon="-2.33065">
        <ele>58</ele>
        <time>2019-09-22T10:29:22Z</time>
      </trkpt>
      <trkpt lat="47.25351" lon="-2.33054">
        <ele>56</ele>
        <time>2019-09-22T10:29:24Z</time>
      </trkpt>
      <trkpt lat="47.25347" lon="-2.33045">
        <ele>54</ele>
        <time>2019-09-22T10:29:26Z</time>
      </trkpt>
      <trkpt lat="47.25345" lon="-2.33039">
        <ele>54</ele>
        <time>2019-09-22T10:29:27Z</time>
      </trkpt>
      <trkpt lat="47.25341" lon="-2.3303">
        <ele>54</ele>
        <time>2019-09-22T10:29:29Z</time>
      </trkpt>
      <trkpt lat="47.25339" lon="-2.33026">
        <ele>54</ele>
        <time>2019-09-22T10:29:31Z</time>
      </trkpt>
      <trkpt lat="47.25335" lon="-2.33016">
        <ele>56</ele>
        <time>2019-09-22T10:29:33Z</time>
      </trkpt>
      <trkpt lat="47.25333" lon="-2.3301">
        <ele>56</ele>
        <time>2019-09-22T10:29:34Z</time>
      </trkpt>
      <trkpt lat="47.25328" lon="-2.33">
        <ele>57</ele>
        <time>2019-09-22T10:29:36Z</time>
      </trkpt>
      <trkpt lat="47.25324" lon="-2.32989">
        <ele>56</ele>
        <time>2019-09-22T10:29:38Z</time>
      </trkpt>
      <trkpt lat="47.25322" lon="-2.32984">
        <ele>56</ele>
        <time>2019-09-22T10:29:39Z</time>
      </trkpt>
      <trkpt lat="47.25319" lon="-2.32974">
        <ele>56</ele>
        <time>2019-09-22T10:29:40Z</time>
      </trkpt>
      <trkpt lat="47.25317" lon="-2.32969">
        <ele>56</ele>
        <time>2019-09-22T10:29:41Z</time>
      </trkpt>
      <trkpt lat="47.25314" lon="-2.32964">
        <ele>57</ele>
        <time>2019-09-22T10:29:42Z</time>
      </trkpt>
      <trkpt lat="47.25312" lon="-2.32959">
        <ele>57</ele>
        <time>2019-09-22T10:29:43Z</time>
      </trkpt>
      <trkpt lat="47.25309" lon="-2.3295">
        <ele>57</ele>
        <time>2019-09-22T10:29:45Z</time>
      </trkpt>
      <trkpt lat="47.25307" lon="-2.32939">
        <ele>58</ele>
        <time>2019-09-22T10:29:47Z</time>
      </trkpt>
      <trkpt lat="47.2531" lon="-2.32921">
        <ele>57</ele>
        <time>2019-09-22T10:29:50Z</time>
      </trkpt>
      <trkpt lat="47.25317" lon="-2.32913">
        <ele>56</ele>
        <time>2019-09-22T10:29:52Z</time>
      </trkpt>
      <trkpt lat="47.25324" lon="-2.32906">
        <ele>56</ele>
        <time>2019-09-22T10:29:54Z</time>
      </trkpt>
      <trkpt lat="47.25334" lon="-2.32896">
        <ele>56</ele>
        <time>2019-09-22T10:29:57Z</time>
      </trkpt>
      <trkpt lat="47.25338" lon="-2.32893">
        <ele>57</ele>
        <time>2019-09-22T10:29:58Z</time>
      </trkpt>
      <trkpt lat="47.25347" lon="-2.32882">
        <ele>57</ele>
        <time>2019-09-22T10:30:01Z</time>
      </trkpt>
      <trkpt lat="47.25351" lon="-2.32878">
        <ele>57</ele>
        <time>2019-09-22T10:30:02Z</time>
      </trkpt>
      <trkpt lat="47.25358" lon="-2.32872">
        <ele>57</ele>
        <time>2019-09-22T10:30:04Z</time>
      </trkpt>
      <trkpt lat="47.25362" lon="-2.32868">
        <ele>57</ele>
        <time>2019-09-22T10:30:05Z</time>
      </trkpt>
      <trkpt lat="47.25366" lon="-2.32864">
        <ele>57</ele>
        <time>2019-09-22T10:30:06Z</time>
      </trkpt>
      <trkpt lat="47.25369" lon="-2.3286">
        <ele>56</ele>
        <time>2019-09-22T10:30:07Z</time>
      </trkpt>
      <trkpt lat="47.25373" lon="-2.32856">
        <ele>56</ele>
        <time>2019-09-22T10:30:08Z</time>
      </trkpt>
      <trkpt lat="47.25376" lon="-2.32852">
        <ele>56</ele>
        <time>2019-09-22T10:30:09Z</time>
      </trkpt>
      <trkpt lat="47.25387" lon="-2.32841">
        <ele>57</ele>
        <time>2019-09-22T10:30:12Z</time>
      </trkpt>
      <trkpt lat="47.25391" lon="-2.32836">
        <ele>57</ele>
        <time>2019-09-22T10:30:13Z</time>
      </trkpt>
      <trkpt lat="47.25401" lon="-2.32824">
        <ele>56</ele>
        <time>2019-09-22T10:30:16Z</time>
      </trkpt>
      <trkpt lat="47.25404" lon="-2.3282">
        <ele>56</ele>
        <time>2019-09-22T10:30:17Z</time>
      </trkpt>
      <trkpt lat="47.25407" lon="-2.32816">
        <ele>56</ele>
        <time>2019-09-22T10:30:18Z</time>
      </trkpt>
      <trkpt lat="47.2541" lon="-2.32811">
        <ele>56</ele>
        <time>2019-09-22T10:30:19Z</time>
      </trkpt>
      <trkpt lat="47.2542" lon="-2.32794">
        <ele>58</ele>
        <time>2019-09-22T10:30:23Z</time>
      </trkpt>
      <trkpt lat="47.25422" lon="-2.3279">
        <ele>58</ele>
        <time>2019-09-22T10:30:24Z</time>
      </trkpt>
      <trkpt lat="47.25425" lon="-2.32781">
        <ele>58</ele>
        <time>2019-09-22T10:30:26Z</time>
      </trkpt>
      <trkpt lat="47.2543" lon="-2.32772">
        <ele>58</ele>
        <time>2019-09-22T10:30:28Z</time>
      </trkpt>
      <trkpt lat="47.25434" lon="-2.32767">
        <ele>58</ele>
        <time>2019-09-22T10:30:29Z</time>
      </trkpt>
      <trkpt lat="47.25438" lon="-2.32763">
        <ele>58</ele>
        <time>2019-09-22T10:30:30Z</time>
      </trkpt>
      <trkpt lat="47.25442" lon="-2.32758">
        <ele>58</ele>
        <time>2019-09-22T10:30:31Z</time>
      </trkpt>
      <trkpt lat="47.25452" lon="-2.32744">
        <ele>59</ele>
        <time>2019-09-22T10:30:34Z</time>
      </trkpt>
      <trkpt lat="47.25455" lon="-2.3274">
        <ele>59</ele>
        <time>2019-09-22T10:30:35Z</time>
      </trkpt>
      <trkpt lat="47.25458" lon="-2.32736">
        <ele>58</ele>
        <time>2019-09-22T10:30:36Z</time>
      </trkpt>
      <trkpt lat="47.25461" lon="-2.32732">
        <ele>58</ele>
        <time>2019-09-22T10:30:37Z</time>
      </trkpt>
      <trkpt lat="47.25468" lon="-2.32723">
        <ele>58</ele>
        <time>2019-09-22T10:30:39Z</time>
      </trkpt>
      <trkpt lat="47.25471" lon="-2.32719">
        <ele>58</ele>
        <time>2019-09-22T10:30:40Z</time>
      </trkpt>
      <trkpt lat="47.25478" lon="-2.3271">
        <ele>58</ele>
        <time>2019-09-22T10:30:42Z</time>
      </trkpt>
      <trkpt lat="47.25481" lon="-2.32705">
        <ele>58</ele>
        <time>2019-09-22T10:30:43Z</time>
      </trkpt>
      <trkpt lat="47.25485" lon="-2.32694">
        <ele>59</ele>
        <time>2019-09-22T10:30:45Z</time>
      </trkpt>
      <trkpt lat="47.25487" lon="-2.3268">
        <ele>59</ele>
        <time>2019-09-22T10:30:47Z</time>
      </trkpt>
      <trkpt lat="47.25487" lon="-2.32667">
        <ele>59</ele>
        <time>2019-09-22T10:30:49Z</time>
      </trkpt>
      <trkpt lat="47.25486" lon="-2.32661">
        <ele>59</ele>
        <time>2019-09-22T10:30:50Z</time>
      </trkpt>
      <trkpt lat="47.25484" lon="-2.32643">
        <ele>59</ele>
        <time>2019-09-22T10:30:53Z</time>
      </trkpt>
      <trkpt lat="47.25484" lon="-2.32637">
        <ele>59</ele>
        <time>2019-09-22T10:30:54Z</time>
      </trkpt>
      <trkpt lat="47.25483" lon="-2.32631">
        <ele>60</ele>
        <time>2019-09-22T10:30:55Z</time>
      </trkpt>
      <trkpt lat="47.25479" lon="-2.32613">
        <ele>60</ele>
        <time>2019-09-22T10:30:58Z</time>
      </trkpt>
      <trkpt lat="47.25477" lon="-2.32601">
        <ele>60</ele>
        <time>2019-09-22T10:31:00Z</time>
      </trkpt>
      <trkpt lat="47.25477" lon="-2.32588">
        <ele>61</ele>
        <time>2019-09-22T10:31:02Z</time>
      </trkpt>
      <trkpt lat="47.25477" lon="-2.32582">
        <ele>60</ele>
        <time>2019-09-22T10:31:03Z</time>
      </trkpt>
      <trkpt lat="47.25479" lon="-2.32571">
        <ele>60</ele>
        <time>2019-09-22T10:31:05Z</time>
      </trkpt>
      <trkpt lat="47.25484" lon="-2.3256">
        <ele>60</ele>
        <time>2019-09-22T10:31:07Z</time>
      </trkpt>
      <trkpt lat="47.25487" lon="-2.32555">
        <ele>60</ele>
        <time>2019-09-22T10:31:08Z</time>
      </trkpt>
      <trkpt lat="47.25499" lon="-2.32543">
        <ele>60</ele>
        <time>2019-09-22T10:31:11Z</time>
      </trkpt>
      <trkpt lat="47.25504" lon="-2.32539">
        <ele>60</ele>
        <time>2019-09-22T10:31:12Z</time>
      </trkpt>
      <trkpt lat="47.25508" lon="-2.32535">
        <ele>60</ele>
        <time>2019-09-22T10:31:13Z</time>
      </trkpt>
      <trkpt lat="47.25513" lon="-2.32531">
        <ele>59</ele>
        <time>2019-09-22T10:31:14Z</time>
      </trkpt>
      <trkpt lat="47.25522" lon="-2.32522">
        <ele>59</ele>
        <time>2019-09-22T10:31:16Z</time>
      </trkpt>
      <trkpt lat="47.25527" lon="-2.32517">
        <ele>59</ele>
        <time>2019-09-22T10:31:17Z</time>
      </trkpt>
      <trkpt lat="47.25542" lon="-2.32502">
        <ele>58</ele>
        <time>2019-09-22T10:31:20Z</time>
      </trkpt>
      <trkpt lat="47.25548" lon="-2.32497">
        <ele>58</ele>
        <time>2019-09-22T10:31:21Z</time>
      </trkpt>
      <trkpt lat="47.25554" lon="-2.32491">
        <ele>58</ele>
        <time>2019-09-22T10:31:22Z</time>
      </trkpt>
      <trkpt lat="47.2556" lon="-2.32486">
        <ele>58</ele>
        <time>2019-09-22T10:31:23Z</time>
      </trkpt>
      <trkpt lat="47.25566" lon="-2.32481">
        <ele>58</ele>
        <time>2019-09-22T10:31:24Z</time>
      </trkpt>
      <trkpt lat="47.25572" lon="-2.32474">
        <ele>58</ele>
        <time>2019-09-22T10:31:25Z</time>
      </trkpt>
      <trkpt lat="47.25586" lon="-2.32462">
        <ele>58</ele>
        <time>2019-09-22T10:31:27Z</time>
      </trkpt>
      <trkpt lat="47.25592" lon="-2.32455">
        <ele>57</ele>
        <time>2019-09-22T10:31:28Z</time>
      </trkpt>
      <trkpt lat="47.25599" lon="-2.32448">
        <ele>56</ele>
        <time>2019-09-22T10:31:29Z</time>
      </trkpt>
      <trkpt lat="47.25605" lon="-2.32442">
        <ele>56</ele>
        <time>2019-09-22T10:31:30Z</time>
      </trkpt>
      <trkpt lat="47.25611" lon="-2.32434">
        <ele>55</ele>
        <time>2019-09-22T10:31:31Z</time>
      </trkpt>
      <trkpt lat="47.25617" lon="-2.32427">
        <ele>55</ele>
        <time>2019-09-22T10:31:32Z</time>
      </trkpt>
      <trkpt lat="47.25625" lon="-2.32419">
        <ele>55</ele>
        <time>2019-09-22T10:31:33Z</time>
      </trkpt>
      <trkpt lat="47.25631" lon="-2.32413">
        <ele>55</ele>
        <time>2019-09-22T10:31:34Z</time>
      </trkpt>
      <trkpt lat="47.25637" lon="-2.32406">
        <ele>55</ele>
        <time>2019-09-22T10:31:35Z</time>
      </trkpt>
      <trkpt lat="47.25643" lon="-2.32403">
        <ele>55</ele>
        <time>2019-09-22T10:31:36Z</time>
      </trkpt>
      <trkpt lat="47.25649" lon="-2.32402">
        <ele>55</ele>
        <time>2019-09-22T10:31:37Z</time>
      </trkpt>
      <trkpt lat="47.25655" lon="-2.32401">
        <ele>56</ele>
        <time>2019-09-22T10:31:38Z</time>
      </trkpt>
      <trkpt lat="47.2566" lon="-2.32402">
        <ele>56</ele>
        <time>2019-09-22T10:31:39Z</time>
      </trkpt>
      <trkpt lat="47.25666" lon="-2.32406">
        <ele>56</ele>
        <time>2019-09-22T10:31:40Z</time>
      </trkpt>
      <trkpt lat="47.2567" lon="-2.32411">
        <ele>56</ele>
        <time>2019-09-22T10:31:41Z</time>
      </trkpt>
      <trkpt lat="47.25676" lon="-2.32415">
        <ele>55</ele>
        <time>2019-09-22T10:31:42Z</time>
      </trkpt>
      <trkpt lat="47.25688" lon="-2.32418">
        <ele>55</ele>
        <time>2019-09-22T10:31:44Z</time>
      </trkpt>
      <trkpt lat="47.25694" lon="-2.32419">
        <ele>55</ele>
        <time>2019-09-22T10:31:45Z</time>
      </trkpt>
      <trkpt lat="47.257" lon="-2.3242">
        <ele>54</ele>
        <time>2019-09-22T10:31:46Z</time>
      </trkpt>
      <trkpt lat="47.25706" lon="-2.3242">
        <ele>54</ele>
        <time>2019-09-22T10:31:47Z</time>
      </trkpt>
      <trkpt lat="47.25712" lon="-2.32421">
        <ele>54</ele>
        <time>2019-09-22T10:31:48Z</time>
      </trkpt>
      <trkpt lat="47.25729" lon="-2.32423">
        <ele>54</ele>
        <time>2019-09-22T10:31:51Z</time>
      </trkpt>
      <trkpt lat="47.25735" lon="-2.32422">
        <ele>55</ele>
        <time>2019-09-22T10:31:52Z</time>
      </trkpt>
      <trkpt lat="47.2574" lon="-2.32422">
        <ele>55</ele>
        <time>2019-09-22T10:31:53Z</time>
      </trkpt>
      <trkpt lat="47.25745" lon="-2.32422">
        <ele>54</ele>
        <time>2019-09-22T10:31:54Z</time>
      </trkpt>
      <trkpt lat="47.2575" lon="-2.32422">
        <ele>54</ele>
        <time>2019-09-22T10:31:55Z</time>
      </trkpt>
      <trkpt lat="47.25759" lon="-2.32421">
        <ele>54</ele>
        <time>2019-09-22T10:31:57Z</time>
      </trkpt>
      <trkpt lat="47.25767" lon="-2.32416">
        <ele>53</ele>
        <time>2019-09-22T10:31:59Z</time>
      </trkpt>
      <trkpt lat="47.25774" lon="-2.32414">
        <ele>54</ele>
        <time>2019-09-22T10:32:01Z</time>
      </trkpt>
      <trkpt lat="47.25779" lon="-2.32416">
        <ele>54</ele>
        <time>2019-09-22T10:32:02Z</time>
      </trkpt>
      <trkpt lat="47.25783" lon="-2.32419">
        <ele>54</ele>
        <time>2019-09-22T10:32:03Z</time>
      </trkpt>
      <trkpt lat="47.25786" lon="-2.32424">
        <ele>53</ele>
        <time>2019-09-22T10:32:04Z</time>
      </trkpt>
      <trkpt lat="47.2579" lon="-2.32429">
        <ele>53</ele>
        <time>2019-09-22T10:32:05Z</time>
      </trkpt>
      <trkpt lat="47.25797" lon="-2.32439">
        <ele>54</ele>
        <time>2019-09-22T10:32:07Z</time>
      </trkpt>
      <trkpt lat="47.25801" lon="-2.32444">
        <ele>54</ele>
        <time>2019-09-22T10:32:08Z</time>
      </trkpt>
      <trkpt lat="47.25806" lon="-2.32449">
        <ele>54</ele>
        <time>2019-09-22T10:32:09Z</time>
      </trkpt>
      <trkpt lat="47.25811" lon="-2.32453">
        <ele>54</ele>
        <time>2019-09-22T10:32:10Z</time>
      </trkpt>
      <trkpt lat="47.25817" lon="-2.32457">
        <ele>54</ele>
        <time>2019-09-22T10:32:11Z</time>
      </trkpt>
      <trkpt lat="47.25822" lon="-2.3246">
        <ele>53</ele>
        <time>2019-09-22T10:32:12Z</time>
      </trkpt>
      <trkpt lat="47.25828" lon="-2.32463">
        <ele>52</ele>
        <time>2019-09-22T10:32:13Z</time>
      </trkpt>
      <trkpt lat="47.25833" lon="-2.32467">
        <ele>52</ele>
        <time>2019-09-22T10:32:14Z</time>
      </trkpt>
      <trkpt lat="47.25839" lon="-2.3247">
        <ele>52</ele>
        <time>2019-09-22T10:32:15Z</time>
      </trkpt>
      <trkpt lat="47.2585" lon="-2.32472">
        <ele>52</ele>
        <time>2019-09-22T10:32:17Z</time>
      </trkpt>
      <trkpt lat="47.2586" lon="-2.32472">
        <ele>52</ele>
        <time>2019-09-22T10:32:19Z</time>
      </trkpt>
      <trkpt lat="47.2587" lon="-2.3247">
        <ele>52</ele>
        <time>2019-09-22T10:32:21Z</time>
      </trkpt>
      <trkpt lat="47.25876" lon="-2.32469">
        <ele>52</ele>
        <time>2019-09-22T10:32:23Z</time>
      </trkpt>
      <trkpt lat="47.25886" lon="-2.32467">
        <ele>52</ele>
        <time>2019-09-22T10:32:24Z</time>
      </trkpt>
      <trkpt lat="47.25891" lon="-2.32465">
        <ele>52</ele>
        <time>2019-09-22T10:32:25Z</time>
      </trkpt>
      <trkpt lat="47.25896" lon="-2.32461">
        <ele>53</ele>
        <time>2019-09-22T10:32:26Z</time>
      </trkpt>
      <trkpt lat="47.25901" lon="-2.32457">
        <ele>52</ele>
        <time>2019-09-22T10:32:27Z</time>
      </trkpt>
      <trkpt lat="47.25906" lon="-2.32452">
        <ele>52</ele>
        <time>2019-09-22T10:32:28Z</time>
      </trkpt>
      <trkpt lat="47.25911" lon="-2.32447">
        <ele>52</ele>
        <time>2019-09-22T10:32:29Z</time>
      </trkpt>
      <trkpt lat="47.25928" lon="-2.32425">
        <ele>52</ele>
        <time>2019-09-22T10:32:33Z</time>
      </trkpt>
      <trkpt lat="47.25937" lon="-2.32413">
        <ele>51</ele>
        <time>2019-09-22T10:32:35Z</time>
      </trkpt>
      <trkpt lat="47.25941" lon="-2.32407">
        <ele>51</ele>
        <time>2019-09-22T10:32:36Z</time>
      </trkpt>
      <trkpt lat="47.25946" lon="-2.32401">
        <ele>51</ele>
        <time>2019-09-22T10:32:37Z</time>
      </trkpt>
      <trkpt lat="47.25954" lon="-2.32391">
        <ele>52</ele>
        <time>2019-09-22T10:32:39Z</time>
      </trkpt>
      <trkpt lat="47.25959" lon="-2.32385">
        <ele>51</ele>
        <time>2019-09-22T10:32:40Z</time>
      </trkpt>
      <trkpt lat="47.25964" lon="-2.32379">
        <ele>51</ele>
        <time>2019-09-22T10:32:41Z</time>
      </trkpt>
      <trkpt lat="47.25968" lon="-2.32374">
        <ele>51</ele>
        <time>2019-09-22T10:32:42Z</time>
      </trkpt>
      <trkpt lat="47.25972" lon="-2.32368">
        <ele>51</ele>
        <time>2019-09-22T10:32:43Z</time>
      </trkpt>
      <trkpt lat="47.25977" lon="-2.32362">
        <ele>52</ele>
        <time>2019-09-22T10:32:44Z</time>
      </trkpt>
      <trkpt lat="47.25981" lon="-2.32357">
        <ele>51</ele>
        <time>2019-09-22T10:32:45Z</time>
      </trkpt>
      <trkpt lat="47.25985" lon="-2.32351">
        <ele>51</ele>
        <time>2019-09-22T10:32:47Z</time>
      </trkpt>
      <trkpt lat="47.25993" lon="-2.3234">
        <ele>50</ele>
        <time>2019-09-22T10:32:49Z</time>
      </trkpt>
      <trkpt lat="47.26002" lon="-2.32328">
        <ele>50</ele>
        <time>2019-09-22T10:32:51Z</time>
      </trkpt>
      <trkpt lat="47.26006" lon="-2.32323">
        <ele>50</ele>
        <time>2019-09-22T10:32:52Z</time>
      </trkpt>
      <trkpt lat="47.26018" lon="-2.32308">
        <ele>50</ele>
        <time>2019-09-22T10:32:55Z</time>
      </trkpt>
      <trkpt lat="47.26031" lon="-2.32292">
        <ele>49</ele>
        <time>2019-09-22T10:32:57Z</time>
      </trkpt>
      <trkpt lat="47.26035" lon="-2.32287">
        <ele>49</ele>
        <time>2019-09-22T10:32:58Z</time>
      </trkpt>
      <trkpt lat="47.2604" lon="-2.32282">
        <ele>49</ele>
        <time>2019-09-22T10:32:59Z</time>
      </trkpt>
      <trkpt lat="47.26044" lon="-2.32277">
        <ele>49</ele>
        <time>2019-09-22T10:33:00Z</time>
      </trkpt>
      <trkpt lat="47.26052" lon="-2.32268">
        <ele>49</ele>
        <time>2019-09-22T10:33:03Z</time>
      </trkpt>
      <trkpt lat="47.26057" lon="-2.32263">
        <ele>49</ele>
        <time>2019-09-22T10:33:04Z</time>
      </trkpt>
      <trkpt lat="47.26066" lon="-2.32254">
        <ele>49</ele>
        <time>2019-09-22T10:33:06Z</time>
      </trkpt>
      <trkpt lat="47.26078" lon="-2.3224">
        <ele>49</ele>
        <time>2019-09-22T10:33:09Z</time>
      </trkpt>
      <trkpt lat="47.26086" lon="-2.32229">
        <ele>49</ele>
        <time>2019-09-22T10:33:10Z</time>
      </trkpt>
      <trkpt lat="47.26093" lon="-2.32218">
        <ele>49</ele>
        <time>2019-09-22T10:33:12Z</time>
      </trkpt>
      <trkpt lat="47.26096" lon="-2.32213">
        <ele>49</ele>
        <time>2019-09-22T10:33:13Z</time>
      </trkpt>
      <trkpt lat="47.26102" lon="-2.32202">
        <ele>50</ele>
        <time>2019-09-22T10:33:15Z</time>
      </trkpt>
      <trkpt lat="47.26105" lon="-2.32195">
        <ele>50</ele>
        <time>2019-09-22T10:33:16Z</time>
      </trkpt>
      <trkpt lat="47.2611" lon="-2.32183">
        <ele>51</ele>
        <time>2019-09-22T10:33:18Z</time>
      </trkpt>
      <trkpt lat="47.26113" lon="-2.32176">
        <ele>51</ele>
        <time>2019-09-22T10:33:19Z</time>
      </trkpt>
      <trkpt lat="47.26116" lon="-2.32169">
        <ele>51</ele>
        <time>2019-09-22T10:33:20Z</time>
      </trkpt>
      <trkpt lat="47.26118" lon="-2.32162">
        <ele>52</ele>
        <time>2019-09-22T10:33:21Z</time>
      </trkpt>
      <trkpt lat="47.2612" lon="-2.32155">
        <ele>52</ele>
        <time>2019-09-22T10:33:22Z</time>
      </trkpt>
      <trkpt lat="47.26125" lon="-2.32142">
        <ele>53</ele>
        <time>2019-09-22T10:33:24Z</time>
      </trkpt>
      <trkpt lat="47.26127" lon="-2.32135">
        <ele>53</ele>
        <time>2019-09-22T10:33:25Z</time>
      </trkpt>
      <trkpt lat="47.2613" lon="-2.32129">
        <ele>53</ele>
        <time>2019-09-22T10:33:26Z</time>
      </trkpt>
      <trkpt lat="47.26132" lon="-2.32122">
        <ele>53</ele>
        <time>2019-09-22T10:33:27Z</time>
      </trkpt>
      <trkpt lat="47.26137" lon="-2.32108">
        <ele>53</ele>
        <time>2019-09-22T10:33:29Z</time>
      </trkpt>
      <trkpt lat="47.2614" lon="-2.32093">
        <ele>52</ele>
        <time>2019-09-22T10:33:31Z</time>
      </trkpt>
      <trkpt lat="47.26142" lon="-2.32086">
        <ele>52</ele>
        <time>2019-09-22T10:33:32Z</time>
      </trkpt>
      <trkpt lat="47.26145" lon="-2.32079">
        <ele>53</ele>
        <time>2019-09-22T10:33:33Z</time>
      </trkpt>
      <trkpt lat="47.26147" lon="-2.32072">
        <ele>53</ele>
        <time>2019-09-22T10:33:34Z</time>
      </trkpt>
      <trkpt lat="47.26149" lon="-2.32066">
        <ele>52</ele>
        <time>2019-09-22T10:33:35Z</time>
      </trkpt>
      <trkpt lat="47.26156" lon="-2.32047">
        <ele>52</ele>
        <time>2019-09-22T10:33:38Z</time>
      </trkpt>
      <trkpt lat="47.26158" lon="-2.3204">
        <ele>51</ele>
        <time>2019-09-22T10:33:39Z</time>
      </trkpt>
      <trkpt lat="47.2616" lon="-2.32034">
        <ele>51</ele>
        <time>2019-09-22T10:33:40Z</time>
      </trkpt>
      <trkpt lat="47.26163" lon="-2.32028">
        <ele>51</ele>
        <time>2019-09-22T10:33:41Z</time>
      </trkpt>
      <trkpt lat="47.26169" lon="-2.3202">
        <ele>51</ele>
        <time>2019-09-22T10:33:43Z</time>
      </trkpt>
      <trkpt lat="47.26176" lon="-2.3202">
        <ele>51</ele>
        <time>2019-09-22T10:33:45Z</time>
      </trkpt>
      <trkpt lat="47.26185" lon="-2.32023">
        <ele>50</ele>
        <time>2019-09-22T10:33:48Z</time>
      </trkpt>
      <trkpt lat="47.26192" lon="-2.32023">
        <ele>50</ele>
        <time>2019-09-22T10:33:52Z</time>
      </trkpt>
      <trkpt lat="47.26197" lon="-2.3202">
        <ele>51</ele>
        <time>2019-09-22T10:33:55Z</time>
      </trkpt>
      <trkpt lat="47.26199" lon="-2.32012">
        <ele>51</ele>
        <time>2019-09-22T10:33:56Z</time>
      </trkpt>
      <trkpt lat="47.26203" lon="-2.32004">
        <ele>51</ele>
        <time>2019-09-22T10:33:58Z</time>
      </trkpt>
      <trkpt lat="47.26208" lon="-2.31997">
        <ele>52</ele>
        <time>2019-09-22T10:34:00Z</time>
      </trkpt>
      <trkpt lat="47.26212" lon="-2.31992">
        <ele>52</ele>
        <time>2019-09-22T10:34:01Z</time>
      </trkpt>
      <trkpt lat="47.26215" lon="-2.31987">
        <ele>52</ele>
        <time>2019-09-22T10:34:03Z</time>
      </trkpt>
      <trkpt lat="47.26222" lon="-2.31979">
        <ele>52</ele>
        <time>2019-09-22T10:34:05Z</time>
      </trkpt>
      <trkpt lat="47.26225" lon="-2.31975">
        <ele>52</ele>
        <time>2019-09-22T10:34:06Z</time>
      </trkpt>
      <trkpt lat="47.26233" lon="-2.31966">
        <ele>52</ele>
        <time>2019-09-22T10:34:09Z</time>
      </trkpt>
      <trkpt lat="47.26241" lon="-2.31959">
        <ele>53</ele>
        <time>2019-09-22T10:34:11Z</time>
      </trkpt>
      <trkpt lat="47.26244" lon="-2.31956">
        <ele>54</ele>
        <time>2019-09-22T10:34:12Z</time>
      </trkpt>
      <trkpt lat="47.26246" lon="-2.31953">
        <ele>54</ele>
        <time>2019-09-22T10:34:13Z</time>
      </trkpt>
      <trkpt lat="47.26251" lon="-2.31945">
        <ele>54</ele>
        <time>2019-09-22T10:34:15Z</time>
      </trkpt>
      <trkpt lat="47.26256" lon="-2.31935">
        <ele>54</ele>
        <time>2019-09-22T10:34:17Z</time>
      </trkpt>
      <trkpt lat="47.26259" lon="-2.31929">
        <ele>54</ele>
        <time>2019-09-22T10:34:18Z</time>
      </trkpt>
      <trkpt lat="47.26264" lon="-2.31915">
        <ele>55</ele>
        <time>2019-09-22T10:34:21Z</time>
      </trkpt>
      <trkpt lat="47.2627" lon="-2.31908">
        <ele>55</ele>
        <time>2019-09-22T10:34:23Z</time>
      </trkpt>
      <trkpt lat="47.26278" lon="-2.31903">
        <ele>56</ele>
        <time>2019-09-22T10:34:25Z</time>
      </trkpt>
      <trkpt lat="47.26285" lon="-2.31899">
        <ele>56</ele>
        <time>2019-09-22T10:34:27Z</time>
      </trkpt>
      <trkpt lat="47.26293" lon="-2.31892">
        <ele>57</ele>
        <time>2019-09-22T10:34:30Z</time>
      </trkpt>
      <trkpt lat="47.26295" lon="-2.31883">
        <ele>58</ele>
        <time>2019-09-22T10:34:32Z</time>
      </trkpt>
      <trkpt lat="47.26296" lon="-2.3188">
        <ele>58</ele>
        <time>2019-09-22T10:34:33Z</time>
      </trkpt>
      <trkpt lat="47.26296" lon="-2.31869">
        <ele>59</ele>
        <time>2019-09-22T10:34:36Z</time>
      </trkpt>
      <trkpt lat="47.26297" lon="-2.31861">
        <ele>58</ele>
        <time>2019-09-22T10:34:37Z</time>
      </trkpt>
      <trkpt lat="47.26297" lon="-2.31852">
        <ele>57</ele>
        <time>2019-09-22T10:34:38Z</time>
      </trkpt>
      <trkpt lat="47.26297" lon="-2.31844">
        <ele>56</ele>
        <time>2019-09-22T10:34:39Z</time>
      </trkpt>
      <trkpt lat="47.26299" lon="-2.31833">
        <ele>56</ele>
        <time>2019-09-22T10:34:40Z</time>
      </trkpt>
      <trkpt lat="47.263" lon="-2.31826">
        <ele>56</ele>
        <time>2019-09-22T10:34:41Z</time>
      </trkpt>
      <trkpt lat="47.263" lon="-2.31819">
        <ele>56</ele>
        <time>2019-09-22T10:34:42Z</time>
      </trkpt>
      <trkpt lat="47.26301" lon="-2.31812">
        <ele>56</ele>
        <time>2019-09-22T10:34:43Z</time>
      </trkpt>
      <trkpt lat="47.26301" lon="-2.31801">
        <ele>55</ele>
        <time>2019-09-22T10:34:45Z</time>
      </trkpt>
      <trkpt lat="47.26301" lon="-2.31788">
        <ele>56</ele>
        <time>2019-09-22T10:34:47Z</time>
      </trkpt>
      <trkpt lat="47.26301" lon="-2.31782">
        <ele>56</ele>
        <time>2019-09-22T10:34:48Z</time>
      </trkpt>
      <trkpt lat="47.26301" lon="-2.31775">
        <ele>55</ele>
        <time>2019-09-22T10:34:49Z</time>
      </trkpt>
      <trkpt lat="47.26301" lon="-2.31768">
        <ele>54</ele>
        <time>2019-09-22T10:34:50Z</time>
      </trkpt>
      <trkpt lat="47.263" lon="-2.31761">
        <ele>55</ele>
        <time>2019-09-22T10:34:51Z</time>
      </trkpt>
      <trkpt lat="47.26299" lon="-2.31753">
        <ele>54</ele>
        <time>2019-09-22T10:34:52Z</time>
      </trkpt>
      <trkpt lat="47.26299" lon="-2.31746">
        <ele>54</ele>
        <time>2019-09-22T10:34:53Z</time>
      </trkpt>
      <trkpt lat="47.26298" lon="-2.31739">
        <ele>54</ele>
        <time>2019-09-22T10:34:54Z</time>
      </trkpt>
      <trkpt lat="47.26304" lon="-2.3172">
        <ele>54</ele>
        <time>2019-09-22T10:34:57Z</time>
      </trkpt>
      <trkpt lat="47.26309" lon="-2.31717">
        <ele>54</ele>
        <time>2019-09-22T10:34:58Z</time>
      </trkpt>
      <trkpt lat="47.26313" lon="-2.31715">
        <ele>53</ele>
        <time>2019-09-22T10:34:59Z</time>
      </trkpt>
      <trkpt lat="47.2632" lon="-2.31711">
        <ele>54</ele>
        <time>2019-09-22T10:35:01Z</time>
      </trkpt>
      <trkpt lat="47.26324" lon="-2.31709">
        <ele>54</ele>
        <time>2019-09-22T10:35:02Z</time>
      </trkpt>
      <trkpt lat="47.26331" lon="-2.31704">
        <ele>54</ele>
        <time>2019-09-22T10:35:04Z</time>
      </trkpt>
      <trkpt lat="47.26333" lon="-2.31695">
        <ele>54</ele>
        <time>2019-09-22T10:35:06Z</time>
      </trkpt>
      <trkpt lat="47.26338" lon="-2.31689">
        <ele>54</ele>
        <time>2019-09-22T10:35:08Z</time>
      </trkpt>
      <trkpt lat="47.26344" lon="-2.31686">
        <ele>55</ele>
        <time>2019-09-22T10:35:10Z</time>
      </trkpt>
      <trkpt lat="47.26347" lon="-2.31684">
        <ele>55</ele>
        <time>2019-09-22T10:35:11Z</time>
      </trkpt>
      <trkpt lat="47.26349" lon="-2.31683">
        <ele>55</ele>
        <time>2019-09-22T10:35:12Z</time>
      </trkpt>
      <trkpt lat="47.26355" lon="-2.3168">
        <ele>55</ele>
        <time>2019-09-22T10:35:14Z</time>
      </trkpt>
      <trkpt lat="47.26358" lon="-2.31678">
        <ele>55</ele>
        <time>2019-09-22T10:35:15Z</time>
      </trkpt>
      <trkpt lat="47.26362" lon="-2.31676">
        <ele>55</ele>
        <time>2019-09-22T10:35:16Z</time>
      </trkpt>
      <trkpt lat="47.26365" lon="-2.31674">
        <ele>54</ele>
        <time>2019-09-22T10:35:17Z</time>
      </trkpt>
      <trkpt lat="47.26369" lon="-2.31672">
        <ele>54</ele>
        <time>2019-09-22T10:35:18Z</time>
      </trkpt>
      <trkpt lat="47.26373" lon="-2.3167">
        <ele>53</ele>
        <time>2019-09-22T10:35:19Z</time>
      </trkpt>
      <trkpt lat="47.26379" lon="-2.31667">
        <ele>54</ele>
        <time>2019-09-22T10:35:21Z</time>
      </trkpt>
      <trkpt lat="47.26382" lon="-2.31664">
        <ele>54</ele>
        <time>2019-09-22T10:35:22Z</time>
      </trkpt>
      <trkpt lat="47.26386" lon="-2.31662">
        <ele>54</ele>
        <time>2019-09-22T10:35:23Z</time>
      </trkpt>
      <trkpt lat="47.26394" lon="-2.31658">
        <ele>54</ele>
        <time>2019-09-22T10:35:26Z</time>
      </trkpt>
      <trkpt lat="47.26398" lon="-2.31655">
        <ele>54</ele>
        <time>2019-09-22T10:35:28Z</time>
      </trkpt>
      <trkpt lat="47.26401" lon="-2.31653">
        <ele>54</ele>
        <time>2019-09-22T10:35:29Z</time>
      </trkpt>
      <trkpt lat="47.26405" lon="-2.31651">
        <ele>55</ele>
        <time>2019-09-22T10:35:30Z</time>
      </trkpt>
      <trkpt lat="47.26408" lon="-2.31645">
        <ele>55</ele>
        <time>2019-09-22T10:35:32Z</time>
      </trkpt>
      <trkpt lat="47.26407" lon="-2.31638">
        <ele>54</ele>
        <time>2019-09-22T10:35:35Z</time>
      </trkpt>
      <trkpt lat="47.26406" lon="-2.31634">
        <ele>55</ele>
        <time>2019-09-22T10:35:36Z</time>
      </trkpt>
      <trkpt lat="47.26404" lon="-2.31627">
        <ele>55</ele>
        <time>2019-09-22T10:35:37Z</time>
      </trkpt>
      <trkpt lat="47.26403" lon="-2.31623">
        <ele>55</ele>
        <time>2019-09-22T10:35:38Z</time>
      </trkpt>
      <trkpt lat="47.26403" lon="-2.31612">
        <ele>56</ele>
        <time>2019-09-22T10:35:41Z</time>
      </trkpt>
      <trkpt lat="47.26405" lon="-2.31602">
        <ele>57</ele>
        <time>2019-09-22T10:35:43Z</time>
      </trkpt>
      <trkpt lat="47.26404" lon="-2.31591">
        <ele>57</ele>
        <time>2019-09-22T10:35:45Z</time>
      </trkpt>
      <trkpt lat="47.26405" lon="-2.31581">
        <ele>57</ele>
        <time>2019-09-22T10:35:47Z</time>
      </trkpt>
      <trkpt lat="47.26404" lon="-2.31566">
        <ele>57</ele>
        <time>2019-09-22T10:35:49Z</time>
      </trkpt>
      <trkpt lat="47.26404" lon="-2.31562">
        <ele>57</ele>
        <time>2019-09-22T10:35:50Z</time>
      </trkpt>
      <trkpt lat="47.26408" lon="-2.31555">
        <ele>57</ele>
        <time>2019-09-22T10:35:52Z</time>
      </trkpt>
      <trkpt lat="47.26413" lon="-2.31554">
        <ele>57</ele>
        <time>2019-09-22T10:35:55Z</time>
      </trkpt>
      <trkpt lat="47.26413" lon="-2.31554">
        <ele>57</ele>
        <time>2019-09-22T10:36:00Z</time>
      </trkpt>
      <trkpt lat="47.26413" lon="-2.31554">
        <ele>9.9</ele>
        <time>2019-09-22T10:36:00Z</time>
      </trkpt>
      <trkpt lat="47.26413" lon="-2.31554">
        <ele>9.9</ele>
        <time>2019-09-22T10:37:31Z</time>
      </trkpt>
    </trkseg>
  </trk>
</gpx>